﻿<?xml version="1.0" encoding="utf-8"?><gpx creator="Garmin Desktop App" version="1.1" xsi:schemaLocation="http://www.topografix.com/GPX/1/1 http://www.topografix.com/GPX/1/1/gpx.xsd http://www.garmin.com/xmlschemas/WaypointExtension/v1 http://www8.garmin.com/xmlschemas/WaypointExtensionv1.xsd http://www.garmin.com/xmlschemas/TrackPointExtension/v1 http://www.garmin.com/xmlschemas/TrackPointExtensionv1.xsd http://www.garmin.com/xmlschemas/GpxExtensions/v3 http://www8.garmin.com/xmlschemas/GpxExtensionsv3.xsd http://www.garmin.com/xmlschemas/ActivityExtension/v1 http://www8.garmin.com/xmlschemas/ActivityExtensionv1.xsd http://www.garmin.com/xmlschemas/AdventuresExtensions/v1 http://www8.garmin.com/xmlschemas/AdventuresExtensionv1.xsd http://www.garmin.com/xmlschemas/PressureExtension/v1 http://www.garmin.com/xmlschemas/PressureExtensionv1.xsd http://www.garmin.com/xmlschemas/TripExtensions/v1 http://www.garmin.com/xmlschemas/TripExtensionsv1.xsd http://www.garmin.com/xmlschemas/TripMetaDataExtensions/v1 http://www.garmin.com/xmlschemas/TripMetaDataExtensionsv1.xsd http://www.garmin.com/xmlschemas/ViaPointTransportationModeExtensions/v1 http://www.garmin.com/xmlschemas/ViaPointTransportationModeExtensionsv1.xsd http://www.garmin.com/xmlschemas/CreationTimeExtension/v1 http://www.garmin.com/xmlschemas/CreationTimeExtensionsv1.xsd http://www.garmin.com/xmlschemas/AccelerationExtension/v1 http://www.garmin.com/xmlschemas/AccelerationExtensionv1.xsd http://www.garmin.com/xmlschemas/PowerExtension/v1 http://www.garmin.com/xmlschemas/PowerExtensionv1.xsd http://www.garmin.com/xmlschemas/VideoExtension/v1 http://www.garmin.com/xmlschemas/VideoExtensionv1.xsd" xmlns="http://www.topografix.com/GPX/1/1" xmlns:xsi="http://www.w3.org/2001/XMLSchema-instance" xmlns:wptx1="http://www.garmin.com/xmlschemas/WaypointExtension/v1" xmlns:gpxtrx="http://www.garmin.com/xmlschemas/GpxExtensions/v3" xmlns:gpxtpx="http://www.garmin.com/xmlschemas/TrackPointExtension/v1" xmlns:gpxx="http://www.garmin.com/xmlschemas/GpxExtensions/v3" xmlns:trp="http://www.garmin.com/xmlschemas/TripExtensions/v1" xmlns:adv="http://www.garmin.com/xmlschemas/AdventuresExtensions/v1" xmlns:prs="http://www.garmin.com/xmlschemas/PressureExtension/v1" xmlns:tmd="http://www.garmin.com/xmlschemas/TripMetaDataExtensions/v1" xmlns:vptm="http://www.garmin.com/xmlschemas/ViaPointTransportationModeExtensions/v1" xmlns:ctx="http://www.garmin.com/xmlschemas/CreationTimeExtension/v1" xmlns:gpxacc="http://www.garmin.com/xmlschemas/AccelerationExtension/v1" xmlns:gpxpx="http://www.garmin.com/xmlschemas/PowerExtension/v1" xmlns:vidx1="http://www.garmin.com/xmlschemas/VideoExtension/v1">

  <metadata>
    <link href="http://www.garmin.com">
      <text>Garmin International</text>
    </link>
    <time>2024-09-17T19:10:21Z</time>
    <bounds maxlat="53.170251986011863" maxlon="14.40751195885241" minlat="51.606303015723825" minlon="13.219025982543826" />
  </metadata>

  <trk>
    <name>Track 240917</name>
    <extensions>
      <gpxx:TrackExtension>
        <gpxx:DisplayColor>DarkGray</gpxx:DisplayColor>
      </gpxx:TrackExtension>
    </extensions>
    <trkseg>
      <trkpt lat="53.17024796269834" lon="13.896907037124038">
        <ele>71.269999999999996</ele>
        <time>2024-09-17T06:49:23Z</time>
      </trkpt>
      <trkpt lat="53.170250980183482" lon="13.896907959133387">
        <ele>71.760000000000005</ele>
        <time>2024-09-17T06:50:16Z</time>
      </trkpt>
      <trkpt lat="53.17024796269834" lon="13.896906031295657">
        <ele>71.760000000000005</ele>
        <time>2024-09-17T06:51:08Z</time>
      </trkpt>
      <trkpt lat="53.170250980183482" lon="13.896904019638896">
        <ele>71.760000000000005</ele>
        <time>2024-09-17T06:52:05Z</time>
      </trkpt>
      <trkpt lat="53.170251986011863" lon="13.897008039057255">
        <ele>73.200000000000003</ele>
        <time>2024-09-17T06:52:32Z</time>
      </trkpt>
      <trkpt lat="53.17024402320385" lon="13.897061012685299">
        <ele>74.159999999999997</ele>
        <time>2024-09-17T06:52:53Z</time>
      </trkpt>
      <trkpt lat="53.170239999890327" lon="13.897071992978454">
        <ele>74.159999999999997</ele>
        <time>2024-09-17T06:52:59Z</time>
      </trkpt>
      <trkpt lat="53.170198006555438" lon="13.897077022120357">
        <ele>74.159999999999997</ele>
        <time>2024-09-17T06:53:17Z</time>
      </trkpt>
      <trkpt lat="53.169956021010876" lon="13.897123960778117">
        <ele>70.790000000000006</ele>
        <time>2024-09-17T06:53:39Z</time>
      </trkpt>
      <trkpt lat="53.169777989387512" lon="13.897113986313343">
        <ele>66.469999999999999</ele>
        <time>2024-09-17T06:53:48Z</time>
      </trkpt>
      <trkpt lat="53.169661983847618" lon="13.897108035162091">
        <ele>62.619999999999997</ele>
        <time>2024-09-17T06:54:20Z</time>
      </trkpt>
      <trkpt lat="53.169613033533096" lon="13.89710501767695">
        <ele>62.140000000000001</ele>
        <time>2024-09-17T06:54:21Z</time>
      </trkpt>
      <trkpt lat="53.169339029118419" lon="13.897091019898653">
        <ele>61.18</ele>
        <time>2024-09-17T06:54:26Z</time>
      </trkpt>
      <trkpt lat="53.169194022193551" lon="13.897082973271608">
        <ele>61.18</ele>
        <time>2024-09-17T06:54:29Z</time>
      </trkpt>
      <trkpt lat="53.169154962524772" lon="13.897066963836551">
        <ele>61.18</ele>
        <time>2024-09-17T06:54:31Z</time>
      </trkpt>
      <trkpt lat="53.169111963361502" lon="13.897050032392144">
        <ele>60.700000000000003</ele>
        <time>2024-09-17T06:54:32Z</time>
      </trkpt>
      <trkpt lat="53.168971985578537" lon="13.896940983831882">
        <ele>60.700000000000003</ele>
        <time>2024-09-17T06:54:33Z</time>
      </trkpt>
      <trkpt lat="53.168958993628621" lon="13.896850040182471">
        <ele>60.219999999999999</ele>
        <time>2024-09-17T06:54:34Z</time>
      </trkpt>
      <trkpt lat="53.168944995850325" lon="13.896749038249254">
        <ele>60.219999999999999</ele>
        <time>2024-09-17T06:54:35Z</time>
      </trkpt>
      <trkpt lat="53.168694963678718" lon="13.895156979560852">
        <ele>59.740000000000002</ele>
        <time>2024-09-17T06:54:50Z</time>
      </trkpt>
      <trkpt lat="53.168673003092408" lon="13.895046003162861">
        <ele>59.740000000000002</ele>
        <time>2024-09-17T06:54:51Z</time>
      </trkpt>
      <trkpt lat="53.168649030849338" lon="13.894931003451347">
        <ele>59.740000000000002</ele>
        <time>2024-09-17T06:54:52Z</time>
      </trkpt>
      <trkpt lat="53.168625980615616" lon="13.894819021224976">
        <ele>59.259999999999998</ele>
        <time>2024-09-17T06:54:53Z</time>
      </trkpt>
      <trkpt lat="53.168603014200926" lon="13.894707038998604">
        <ele>59.259999999999998</ele>
        <time>2024-09-17T06:54:54Z</time>
      </trkpt>
      <trkpt lat="53.168572001159191" lon="13.89455096796155">
        <ele>59.259999999999998</ele>
        <time>2024-09-17T06:54:55Z</time>
      </trkpt>
      <trkpt lat="53.168546017259359" lon="13.894475027918816">
        <ele>59.259999999999998</ele>
        <time>2024-09-17T06:54:56Z</time>
      </trkpt>
      <trkpt lat="53.168299002572894" lon="13.893748987466097">
        <ele>56.859999999999999</ele>
        <time>2024-09-17T06:55:03Z</time>
      </trkpt>
      <trkpt lat="53.168263966217637" lon="13.89364798553288">
        <ele>56.369999999999997</ele>
        <time>2024-09-17T06:55:04Z</time>
      </trkpt>
      <trkpt lat="53.168072020635009" lon="13.892567977309227">
        <ele>56.369999999999997</ele>
        <time>2024-09-17T06:55:13Z</time>
      </trkpt>
      <trkpt lat="53.168044025078416" lon="13.892464963719249">
        <ele>56.369999999999997</ele>
        <time>2024-09-17T06:55:14Z</time>
      </trkpt>
      <trkpt lat="53.168016029521823" lon="13.892363961786032">
        <ele>56.859999999999999</ele>
        <time>2024-09-17T06:55:15Z</time>
      </trkpt>
      <trkpt lat="53.167989961802959" lon="13.892267988994718">
        <ele>57.340000000000003</ele>
        <time>2024-09-17T06:55:17Z</time>
      </trkpt>
      <trkpt lat="53.167928019538522" lon="13.892040001228452">
        <ele>57.82</ele>
        <time>2024-09-17T06:55:19Z</time>
      </trkpt>
      <trkpt lat="53.167932964861393" lon="13.891890970990062">
        <ele>58.299999999999997</ele>
        <time>2024-09-17T06:55:21Z</time>
      </trkpt>
      <trkpt lat="53.167955009266734" lon="13.890416007488966">
        <ele>58.299999999999997</ele>
        <time>2024-09-17T06:55:33Z</time>
      </trkpt>
      <trkpt lat="53.167970012873411" lon="13.890164969488978">
        <ele>58.299999999999997</ele>
        <time>2024-09-17T06:55:35Z</time>
      </trkpt>
      <trkpt lat="53.167976969853044" lon="13.890039995312691">
        <ele>58.299999999999997</ele>
        <time>2024-09-17T06:55:36Z</time>
      </trkpt>
      <trkpt lat="53.168012006208301" lon="13.889429960399866">
        <ele>58.299999999999997</ele>
        <time>2024-09-17T06:55:42Z</time>
      </trkpt>
      <trkpt lat="53.168003037571907" lon="13.889188980683684">
        <ele>58.299999999999997</ele>
        <time>2024-09-17T06:55:44Z</time>
      </trkpt>
      <trkpt lat="53.167847972363234" lon="13.887896994128823">
        <ele>58.780000000000001</ele>
        <time>2024-09-17T06:55:53Z</time>
      </trkpt>
      <trkpt lat="53.167465003207326" lon="13.886356987059116">
        <ele>54.450000000000003</ele>
        <time>2024-09-17T06:56:04Z</time>
      </trkpt>
      <trkpt lat="53.166931997984648" lon="13.884845981374383">
        <ele>53.490000000000002</ele>
        <time>2024-09-17T06:56:16Z</time>
      </trkpt>
      <trkpt lat="53.166296985000372" lon="13.883402030915022">
        <ele>54.93</ele>
        <time>2024-09-17T06:56:27Z</time>
      </trkpt>
      <trkpt lat="53.166193971410394" lon="13.883208995684981">
        <ele>54.93</ele>
        <time>2024-09-17T06:56:29Z</time>
      </trkpt>
      <trkpt lat="53.166136974468827" lon="13.883130960166454">
        <ele>54.93</ele>
        <time>2024-09-17T06:56:30Z</time>
      </trkpt>
      <trkpt lat="53.166038990020752" lon="13.88299198821187">
        <ele>54.450000000000003</ele>
        <time>2024-09-17T06:56:32Z</time>
      </trkpt>
      <trkpt lat="53.166018035262823" lon="13.882871037349105">
        <ele>53.009999999999998</ele>
        <time>2024-09-17T06:56:34Z</time>
      </trkpt>
      <trkpt lat="53.166018035262823" lon="13.882598960772157">
        <ele>52.530000000000001</ele>
        <time>2024-09-17T06:56:35Z</time>
      </trkpt>
      <trkpt lat="53.166018035262823" lon="13.882450014352798">
        <ele>52.049999999999997</ele>
        <time>2024-09-17T06:56:36Z</time>
      </trkpt>
      <trkpt lat="53.166018035262823" lon="13.882298972457647">
        <ele>51.57</ele>
        <time>2024-09-17T06:56:37Z</time>
      </trkpt>
      <trkpt lat="53.165929019451141" lon="13.880152031779289">
        <ele>50.130000000000003</ele>
        <time>2024-09-17T06:56:49Z</time>
      </trkpt>
      <trkpt lat="53.165910998359323" lon="13.877997966483235">
        <ele>48.68</ele>
        <time>2024-09-17T06:56:58Z</time>
      </trkpt>
      <trkpt lat="53.165866993367672" lon="13.875356996431947">
        <ele>39.549999999999997</ele>
        <time>2024-09-17T06:57:08Z</time>
      </trkpt>
      <trkpt lat="53.165831035003066" lon="13.875019960105419">
        <ele>38.109999999999999</ele>
        <time>2024-09-17T06:57:10Z</time>
      </trkpt>
      <trkpt lat="53.165803961455822" lon="13.874766994267702">
        <ele>37.149999999999999</ele>
        <time>2024-09-17T06:57:12Z</time>
      </trkpt>
      <trkpt lat="53.165803961455822" lon="13.874596003443003">
        <ele>36.670000000000002</ele>
        <time>2024-09-17T06:57:13Z</time>
      </trkpt>
      <trkpt lat="53.165803961455822" lon="13.874457031488419">
        <ele>35.710000000000001</ele>
        <time>2024-09-17T06:57:14Z</time>
      </trkpt>
      <trkpt lat="53.165803961455822" lon="13.87431101873517">
        <ele>35.229999999999997</ele>
        <time>2024-09-17T06:57:15Z</time>
      </trkpt>
      <trkpt lat="53.165881996974349" lon="13.874164000153542">
        <ele>34.259999999999998</ele>
        <time>2024-09-17T06:57:16Z</time>
      </trkpt>
      <trkpt lat="53.16594896838069" lon="13.87405201792717">
        <ele>33.299999999999997</ele>
        <time>2024-09-17T06:57:17Z</time>
      </trkpt>
      <trkpt lat="53.166010994464159" lon="13.873928971588612">
        <ele>32.340000000000003</ele>
        <time>2024-09-17T06:57:19Z</time>
      </trkpt>
      <trkpt lat="53.166089029982686" lon="13.873635018244386">
        <ele>31.379999999999999</ele>
        <time>2024-09-17T06:57:20Z</time>
      </trkpt>
      <trkpt lat="53.166103027760983" lon="13.873468972742558">
        <ele>30.899999999999999</ele>
        <time>2024-09-17T06:57:21Z</time>
      </trkpt>
      <trkpt lat="53.166117025539279" lon="13.873296976089478">
        <ele>30.420000000000002</ele>
        <time>2024-09-17T06:57:22Z</time>
      </trkpt>
      <trkpt lat="53.166132029145956" lon="13.873118022456765">
        <ele>30.420000000000002</ele>
        <time>2024-09-17T06:57:23Z</time>
      </trkpt>
      <trkpt lat="53.166147032752633" lon="13.872937979176641">
        <ele>29.940000000000001</ele>
        <time>2024-09-17T06:57:24Z</time>
      </trkpt>
      <trkpt lat="53.166274018585682" lon="13.87141196988523">
        <ele>28.5</ele>
        <time>2024-09-17T06:57:34Z</time>
      </trkpt>
      <trkpt lat="53.166276030242443" lon="13.871397972106934">
        <ele>28.5</ele>
        <time>2024-09-17T06:57:35Z</time>
      </trkpt>
      <trkpt lat="53.166276030242443" lon="13.871397972106934">
        <ele>28.02</ele>
        <time>2024-09-17T06:57:36Z</time>
      </trkpt>
      <trkpt lat="53.166276030242443" lon="13.871397972106934">
        <ele>28.02</ele>
        <time>2024-09-17T06:57:37Z</time>
      </trkpt>
      <trkpt lat="53.166259014979005" lon="13.871210971847177">
        <ele>27.530000000000001</ele>
        <time>2024-09-17T06:57:39Z</time>
      </trkpt>
      <trkpt lat="53.166246023029089" lon="13.871203009039164">
        <ele>27.050000000000001</ele>
        <time>2024-09-17T06:57:40Z</time>
      </trkpt>
      <trkpt lat="53.166191037744284" lon="13.871168978512287">
        <ele>26.57</ele>
        <time>2024-09-17T06:57:42Z</time>
      </trkpt>
      <trkpt lat="53.165848972275853" lon="13.871031012386084">
        <ele>24.170000000000002</ele>
        <time>2024-09-17T06:57:47Z</time>
      </trkpt>
      <trkpt lat="53.164605014026165" lon="13.870732029899955">
        <ele>22.25</ele>
        <time>2024-09-17T06:57:57Z</time>
      </trkpt>
      <trkpt lat="53.164393035694957" lon="13.87068098410964">
        <ele>23.690000000000001</ele>
        <time>2024-09-17T06:57:59Z</time>
      </trkpt>
      <trkpt lat="53.164283987134695" lon="13.870655000209808">
        <ele>23.690000000000001</ele>
        <time>2024-09-17T06:58:00Z</time>
      </trkpt>
      <trkpt lat="53.163258964195848" lon="13.870380995795131">
        <ele>25.609999999999999</ele>
        <time>2024-09-17T06:58:09Z</time>
      </trkpt>
      <trkpt lat="53.163039023056626" lon="13.870374038815498">
        <ele>26.09</ele>
        <time>2024-09-17T06:58:11Z</time>
      </trkpt>
      <trkpt lat="53.162485985085368" lon="13.870473029091954">
        <ele>26.57</ele>
        <time>2024-09-17T06:58:16Z</time>
      </trkpt>
      <trkpt lat="53.161419974640012" lon="13.871036041527987">
        <ele>27.050000000000001</ele>
        <time>2024-09-17T06:58:26Z</time>
      </trkpt>
      <trkpt lat="53.160560997202992" lon="13.871751017868519">
        <ele>28.98</ele>
        <time>2024-09-17T06:58:34Z</time>
      </trkpt>
      <trkpt lat="53.159920033067465" lon="13.872314030304551">
        <ele>31.379999999999999</ele>
        <time>2024-09-17T06:58:40Z</time>
      </trkpt>
      <trkpt lat="53.159817019477487" lon="13.872396005317569">
        <ele>31.859999999999999</ele>
        <time>2024-09-17T06:58:41Z</time>
      </trkpt>
      <trkpt lat="53.159710988402367" lon="13.872451996430755">
        <ele>32.340000000000003</ele>
        <time>2024-09-17T06:58:42Z</time>
      </trkpt>
      <trkpt lat="53.159518036991358" lon="13.872555010020733">
        <ele>33.780000000000001</ele>
        <time>2024-09-17T06:58:45Z</time>
      </trkpt>
      <trkpt lat="53.159319972619414" lon="13.872540006414056">
        <ele>33.780000000000001</ele>
        <time>2024-09-17T06:58:46Z</time>
      </trkpt>
      <trkpt lat="53.159216037020087" lon="13.872514022514224">
        <ele>33.780000000000001</ele>
        <time>2024-09-17T06:58:47Z</time>
      </trkpt>
      <trkpt lat="53.158528972417116" lon="13.872105991467834">
        <ele>33.780000000000001</ele>
        <time>2024-09-17T06:58:54Z</time>
      </trkpt>
      <trkpt lat="53.158437022939324" lon="13.872090987861156">
        <ele>33.780000000000001</ele>
        <time>2024-09-17T06:58:55Z</time>
      </trkpt>
      <trkpt lat="53.158358987420797" lon="13.872077995911241">
        <ele>33.299999999999997</ele>
        <time>2024-09-17T06:58:56Z</time>
      </trkpt>
      <trkpt lat="53.158271983265877" lon="13.872062992304564">
        <ele>33.299999999999997</ele>
        <time>2024-09-17T06:58:57Z</time>
      </trkpt>
      <trkpt lat="53.158223032951355" lon="13.872104985639453">
        <ele>33.299999999999997</ele>
        <time>2024-09-17T06:58:58Z</time>
      </trkpt>
      <trkpt lat="53.158160001039505" lon="13.872158965095878">
        <ele>33.299999999999997</ele>
        <time>2024-09-17T06:58:59Z</time>
      </trkpt>
      <trkpt lat="53.1581050157547" lon="13.87220598757267">
        <ele>33.299999999999997</ele>
        <time>2024-09-17T06:59:00Z</time>
      </trkpt>
      <trkpt lat="53.158065034076571" lon="13.872240018099546">
        <ele>32.82</ele>
        <time>2024-09-17T06:59:01Z</time>
      </trkpt>
      <trkpt lat="53.157943999394774" lon="13.872290980070829">
        <ele>32.82</ele>
        <time>2024-09-17T06:59:02Z</time>
      </trkpt>
      <trkpt lat="53.157893037423491" lon="13.872239012271166">
        <ele>32.82</ele>
        <time>2024-09-17T06:59:03Z</time>
      </trkpt>
      <trkpt lat="53.157833022996783" lon="13.872174974530935">
        <ele>33.299999999999997</ele>
        <time>2024-09-17T06:59:05Z</time>
      </trkpt>
      <trkpt lat="53.157591037452221" lon="13.871921002864838">
        <ele>33.299999999999997</ele>
        <time>2024-09-17T06:59:07Z</time>
      </trkpt>
      <trkpt lat="53.157515013590455" lon="13.871782030910254">
        <ele>33.299999999999997</ele>
        <time>2024-09-17T06:59:08Z</time>
      </trkpt>
      <trkpt lat="53.157477965578437" lon="13.871698966249824">
        <ele>33.299999999999997</ele>
        <time>2024-09-17T06:59:09Z</time>
      </trkpt>
      <trkpt lat="53.157382998615503" lon="13.871611962094903">
        <ele>33.299999999999997</ele>
        <time>2024-09-17T06:59:10Z</time>
      </trkpt>
      <trkpt lat="53.157298006117344" lon="13.871535016223788">
        <ele>33.299999999999997</ele>
        <time>2024-09-17T06:59:11Z</time>
      </trkpt>
      <trkpt lat="53.157201027497649" lon="13.871483970433474">
        <ele>33.299999999999997</ele>
        <time>2024-09-17T06:59:12Z</time>
      </trkpt>
      <trkpt lat="53.157084016129375" lon="13.871483970433474">
        <ele>32.340000000000003</ele>
        <time>2024-09-17T06:59:13Z</time>
      </trkpt>
      <trkpt lat="53.156695012003183" lon="13.871483970433474">
        <ele>30.420000000000002</ele>
        <time>2024-09-17T06:59:16Z</time>
      </trkpt>
      <trkpt lat="53.156565008684993" lon="13.871462009847164">
        <ele>29.460000000000001</ele>
        <time>2024-09-17T06:59:18Z</time>
      </trkpt>
      <trkpt lat="53.156433999538422" lon="13.871430996805429">
        <ele>28.98</ele>
        <time>2024-09-17T06:59:19Z</time>
      </trkpt>
      <trkpt lat="53.155359020456672" lon="13.870749967172742">
        <ele>27.050000000000001</ele>
        <time>2024-09-17T06:59:27Z</time>
      </trkpt>
      <trkpt lat="53.155233962461352" lon="13.870738986879587">
        <ele>27.050000000000001</ele>
        <time>2024-09-17T06:59:28Z</time>
      </trkpt>
      <trkpt lat="53.155103037133813" lon="13.870747033506632">
        <ele>26.57</ele>
        <time>2024-09-17T06:59:29Z</time>
      </trkpt>
      <trkpt lat="53.153703007847071" lon="13.870948031544685">
        <ele>26.09</ele>
        <time>2024-09-17T06:59:39Z</time>
      </trkpt>
      <trkpt lat="53.153296988457441" lon="13.871007962152362">
        <ele>25.609999999999999</ele>
        <time>2024-09-17T06:59:43Z</time>
      </trkpt>
      <trkpt lat="53.152749985456467" lon="13.870973009616137">
        <ele>25.129999999999999</ele>
        <time>2024-09-17T06:59:46Z</time>
      </trkpt>
      <trkpt lat="53.152615958824754" lon="13.870878964662552">
        <ele>25.129999999999999</ele>
        <time>2024-09-17T06:59:47Z</time>
      </trkpt>
      <trkpt lat="53.152492996305227" lon="13.87078701518476">
        <ele>24.649999999999999</ele>
        <time>2024-09-17T06:59:49Z</time>
      </trkpt>
      <trkpt lat="53.15236902795732" lon="13.870693976059556">
        <ele>24.649999999999999</ele>
        <time>2024-09-17T06:59:50Z</time>
      </trkpt>
      <trkpt lat="53.152247993275523" lon="13.870603032410145">
        <ele>24.170000000000002</ele>
        <time>2024-09-17T06:59:51Z</time>
      </trkpt>
      <trkpt lat="53.15213299356401" lon="13.870517034083605">
        <ele>23.690000000000001</ele>
        <time>2024-09-17T06:59:52Z</time>
      </trkpt>
      <trkpt lat="53.152018999680877" lon="13.870431035757065">
        <ele>23.690000000000001</ele>
        <time>2024-09-17T06:59:53Z</time>
      </trkpt>
      <trkpt lat="53.150874031707644" lon="13.869385980069637">
        <ele>23.210000000000001</ele>
        <time>2024-09-17T07:00:02Z</time>
      </trkpt>
      <trkpt lat="53.150748973712325" lon="13.869270980358124">
        <ele>23.210000000000001</ele>
        <time>2024-09-17T07:00:04Z</time>
      </trkpt>
      <trkpt lat="53.149582967162132" lon="13.868637979030609">
        <ele>23.690000000000001</ele>
        <time>2024-09-17T07:00:12Z</time>
      </trkpt>
      <trkpt lat="53.149066977202892" lon="13.868367997929454">
        <ele>22.73</ele>
        <time>2024-09-17T07:00:17Z</time>
      </trkpt>
      <trkpt lat="53.148585017770529" lon="13.868059040978551">
        <ele>22.25</ele>
        <time>2024-09-17T07:00:21Z</time>
      </trkpt>
      <trkpt lat="53.147573992609978" lon="13.867459986358881">
        <ele>19.84</ele>
        <time>2024-09-17T07:00:31Z</time>
      </trkpt>
      <trkpt lat="53.147291019558907" lon="13.867313973605633">
        <ele>19.84</ele>
        <time>2024-09-17T07:00:34Z</time>
      </trkpt>
      <trkpt lat="53.147221030667424" lon="13.867278015241027">
        <ele>19.84</ele>
        <time>2024-09-17T07:00:35Z</time>
      </trkpt>
      <trkpt lat="53.147221030667424" lon="13.867278015241027">
        <ele>19.84</ele>
        <time>2024-09-17T07:00:36Z</time>
      </trkpt>
      <trkpt lat="53.146834960207343" lon="13.866894962266088">
        <ele>20.32</ele>
        <time>2024-09-17T07:00:40Z</time>
      </trkpt>
      <trkpt lat="53.146446039900184" lon="13.8667699880898">
        <ele>20.809999999999999</ele>
        <time>2024-09-17T07:00:44Z</time>
      </trkpt>
      <trkpt lat="53.146336991339922" lon="13.866760013625026">
        <ele>21.289999999999999</ele>
        <time>2024-09-17T07:00:45Z</time>
      </trkpt>
      <trkpt lat="53.145189005881548" lon="13.866481985896826">
        <ele>22.25</ele>
        <time>2024-09-17T07:00:53Z</time>
      </trkpt>
      <trkpt lat="53.144048983231187" lon="13.866105973720551">
        <ele>18.879999999999999</ele>
        <time>2024-09-17T07:00:59Z</time>
      </trkpt>
      <trkpt lat="53.143403995782137" lon="13.865892989560962">
        <ele>17.920000000000002</ele>
        <time>2024-09-17T07:01:02Z</time>
      </trkpt>
      <trkpt lat="53.143265023827553" lon="13.86584697291255">
        <ele>17.920000000000002</ele>
        <time>2024-09-17T07:01:03Z</time>
      </trkpt>
      <trkpt lat="53.143129991367459" lon="13.865802967920899">
        <ele>17.920000000000002</ele>
        <time>2024-09-17T07:01:04Z</time>
      </trkpt>
      <trkpt lat="53.143000993877649" lon="13.865759968757629">
        <ele>17.920000000000002</ele>
        <time>2024-09-17T07:01:05Z</time>
      </trkpt>
      <trkpt lat="53.142875013872981" lon="13.865718981251121">
        <ele>17.440000000000001</ele>
        <time>2024-09-17T07:01:06Z</time>
      </trkpt>
      <trkpt lat="53.142755990847945" lon="13.865680005401373">
        <ele>17.440000000000001</ele>
        <time>2024-09-17T07:01:07Z</time>
      </trkpt>
      <trkpt lat="53.142534960061312" lon="13.865606999024749">
        <ele>17.440000000000001</ele>
        <time>2024-09-17T07:01:09Z</time>
      </trkpt>
      <trkpt lat="53.142062975093722" lon="13.865451011806726">
        <ele>16</ele>
        <time>2024-09-17T07:01:15Z</time>
      </trkpt>
      <trkpt lat="53.142010001465678" lon="13.865433996543288">
        <ele>15.52</ele>
        <time>2024-09-17T07:01:16Z</time>
      </trkpt>
      <trkpt lat="53.1419069878757" lon="13.865398960188031">
        <ele>15.52</ele>
        <time>2024-09-17T07:01:23Z</time>
      </trkpt>
      <trkpt lat="53.141877986490726" lon="13.865389991551638">
        <ele>15.52</ele>
        <time>2024-09-17T07:01:25Z</time>
      </trkpt>
      <trkpt lat="53.141877986490726" lon="13.865389991551638">
        <ele>16</ele>
        <time>2024-09-17T07:01:26Z</time>
      </trkpt>
      <trkpt lat="53.141877986490726" lon="13.865389991551638">
        <ele>15.52</ele>
        <time>2024-09-17T07:01:27Z</time>
      </trkpt>
      <trkpt lat="53.141620997339487" lon="13.865501973778009">
        <ele>15.52</ele>
        <time>2024-09-17T07:01:29Z</time>
      </trkpt>
      <trkpt lat="53.141556037589908" lon="13.865389991551638">
        <ele>15.52</ele>
        <time>2024-09-17T07:01:30Z</time>
      </trkpt>
      <trkpt lat="53.141283961012959" lon="13.86513601988554">
        <ele>14.56</ele>
        <time>2024-09-17T07:01:32Z</time>
      </trkpt>
      <trkpt lat="53.141043987125158" lon="13.864911971613765">
        <ele>13.119999999999999</ele>
        <time>2024-09-17T07:01:35Z</time>
      </trkpt>
      <trkpt lat="53.140823040157557" lon="13.864608965814114">
        <ele>12.630000000000001</ele>
        <time>2024-09-17T07:01:36Z</time>
      </trkpt>
      <trkpt lat="53.140805019065738" lon="13.864575019106269">
        <ele>12.15</ele>
        <time>2024-09-17T07:01:37Z</time>
      </trkpt>
      <trkpt lat="53.14070200547576" lon="13.864201018586755">
        <ele>11.67</ele>
        <time>2024-09-17T07:01:38Z</time>
      </trkpt>
      <trkpt lat="53.140663029626012" lon="13.863999014720321">
        <ele>10.710000000000001</ele>
        <time>2024-09-17T07:01:39Z</time>
      </trkpt>
      <trkpt lat="53.140619024634361" lon="13.86376197449863">
        <ele>10.23</ele>
        <time>2024-09-17T07:01:40Z</time>
      </trkpt>
      <trkpt lat="53.14057401381433" lon="13.863522000610828">
        <ele>10.23</ele>
        <time>2024-09-17T07:01:41Z</time>
      </trkpt>
      <trkpt lat="53.140533026307821" lon="13.863302981480956">
        <ele>9.75</ele>
        <time>2024-09-17T07:01:42Z</time>
      </trkpt>
      <trkpt lat="53.140377961099148" lon="13.863101983442903">
        <ele>9.27</ele>
        <time>2024-09-17T07:01:43Z</time>
      </trkpt>
      <trkpt lat="53.140279976651073" lon="13.862994024530053">
        <ele>9.27</ele>
        <time>2024-09-17T07:01:44Z</time>
      </trkpt>
      <trkpt lat="53.13995098695159" lon="13.862632010132074">
        <ele>8.310000000000001</ele>
        <time>2024-09-17T07:01:47Z</time>
      </trkpt>
      <trkpt lat="53.139839004725218" lon="13.862464036792517">
        <ele>8.310000000000001</ele>
        <time>2024-09-17T07:01:48Z</time>
      </trkpt>
      <trkpt lat="53.139746971428394" lon="13.862263038754463">
        <ele>8.310000000000001</ele>
        <time>2024-09-17T07:01:49Z</time>
      </trkpt>
      <trkpt lat="53.139652004465461" lon="13.862058017402887">
        <ele>7.83</ele>
        <time>2024-09-17T07:01:51Z</time>
      </trkpt>
      <trkpt lat="53.138594962656498" lon="13.860008977353573">
        <ele>9.75</ele>
        <time>2024-09-17T07:02:00Z</time>
      </trkpt>
      <trkpt lat="53.137322003021836" lon="13.858058005571365">
        <ele>16.48</ele>
        <time>2024-09-17T07:02:10Z</time>
      </trkpt>
      <trkpt lat="53.13614702783525" lon="13.85628598742187">
        <ele>21.77</ele>
        <time>2024-09-17T07:02:21Z</time>
      </trkpt>
      <trkpt lat="53.135234992951155" lon="13.854938009753823">
        <ele>26.09</ele>
        <time>2024-09-17T07:02:29Z</time>
      </trkpt>
      <trkpt lat="53.135128039866686" lon="13.854828039184213">
        <ele>26.09</ele>
        <time>2024-09-17T07:02:30Z</time>
      </trkpt>
      <trkpt lat="53.135014967992902" lon="13.85478101670742">
        <ele>26.57</ele>
        <time>2024-09-17T07:02:31Z</time>
      </trkpt>
      <trkpt lat="53.134193038567901" lon="13.854506006464362">
        <ele>27.530000000000001</ele>
        <time>2024-09-17T07:02:39Z</time>
      </trkpt>
      <trkpt lat="53.133129039779305" lon="13.854162013158202">
        <ele>31.859999999999999</ele>
        <time>2024-09-17T07:02:49Z</time>
      </trkpt>
      <trkpt lat="53.131780978292227" lon="13.853624984622002">
        <ele>33.299999999999997</ele>
        <time>2024-09-17T07:03:01Z</time>
      </trkpt>
      <trkpt lat="53.131676958873868" lon="13.853548038750887">
        <ele>33.299999999999997</ele>
        <time>2024-09-17T07:03:02Z</time>
      </trkpt>
      <trkpt lat="53.130688983947039" lon="13.852708004415035">
        <ele>36.189999999999998</ele>
        <time>2024-09-17T07:03:12Z</time>
      </trkpt>
      <trkpt lat="53.129827994853258" lon="13.851926978677511">
        <ele>37.149999999999999</ele>
        <time>2024-09-17T07:03:25Z</time>
      </trkpt>
      <trkpt lat="53.129707965999842" lon="13.85179596953094">
        <ele>37.630000000000003</ele>
        <time>2024-09-17T07:03:27Z</time>
      </trkpt>
      <trkpt lat="53.129646023735404" lon="13.851727992296219">
        <ele>37.630000000000003</ele>
        <time>2024-09-17T07:03:28Z</time>
      </trkpt>
      <trkpt lat="53.128819987177849" lon="13.85082702152431">
        <ele>35.710000000000001</ele>
        <time>2024-09-17T07:03:41Z</time>
      </trkpt>
      <trkpt lat="53.128178017213941" lon="13.850024035200477">
        <ele>35.229999999999997</ele>
        <time>2024-09-17T07:03:53Z</time>
      </trkpt>
      <trkpt lat="53.128050025552511" lon="13.849864024668932">
        <ele>35.229999999999997</ele>
        <time>2024-09-17T07:03:54Z</time>
      </trkpt>
      <trkpt lat="53.127987999469042" lon="13.849785989150405">
        <ele>34.740000000000002</ele>
        <time>2024-09-17T07:03:55Z</time>
      </trkpt>
      <trkpt lat="53.127699997276068" lon="13.849377958104014">
        <ele>34.259999999999998</ele>
        <time>2024-09-17T07:04:00Z</time>
      </trkpt>
      <trkpt lat="53.127649035304785" lon="13.849286008626223">
        <ele>33.780000000000001</ele>
        <time>2024-09-17T07:04:01Z</time>
      </trkpt>
      <trkpt lat="53.127601006999612" lon="13.849180983379483">
        <ele>33.780000000000001</ele>
        <time>2024-09-17T07:04:02Z</time>
      </trkpt>
      <trkpt lat="53.127487013116479" lon="13.848929023370147">
        <ele>33.780000000000001</ele>
        <time>2024-09-17T07:04:04Z</time>
      </trkpt>
      <trkpt lat="53.127158023416996" lon="13.847516002133489">
        <ele>32.340000000000003</ele>
        <time>2024-09-17T07:04:12Z</time>
      </trkpt>
      <trkpt lat="53.126733982935548" lon="13.845299994572997">
        <ele>35.229999999999997</ele>
        <time>2024-09-17T07:04:23Z</time>
      </trkpt>
      <trkpt lat="53.126632981002331" lon="13.844841001555324">
        <ele>35.229999999999997</ele>
        <time>2024-09-17T07:04:26Z</time>
      </trkpt>
      <trkpt lat="53.126487974077463" lon="13.844388965517282">
        <ele>34.740000000000002</ele>
        <time>2024-09-17T07:04:27Z</time>
      </trkpt>
      <trkpt lat="53.126381020992994" lon="13.844178998842835">
        <ele>34.740000000000002</ele>
        <time>2024-09-17T07:04:28Z</time>
      </trkpt>
      <trkpt lat="53.126272978261113" lon="13.843988981097937">
        <ele>34.259999999999998</ele>
        <time>2024-09-17T07:04:29Z</time>
      </trkpt>
      <trkpt lat="53.126153033226728" lon="13.843799969181418">
        <ele>34.259999999999998</ele>
        <time>2024-09-17T07:04:30Z</time>
      </trkpt>
      <trkpt lat="53.126016994938254" lon="13.843639958649874">
        <ele>33.780000000000001</ele>
        <time>2024-09-17T07:04:31Z</time>
      </trkpt>
      <trkpt lat="53.12587701715529" lon="13.843475002795458">
        <ele>33.780000000000001</ele>
        <time>2024-09-17T07:04:32Z</time>
      </trkpt>
      <trkpt lat="53.124230979010463" lon="13.841730980202556">
        <ele>32.82</ele>
        <time>2024-09-17T07:04:42Z</time>
      </trkpt>
      <trkpt lat="53.122037015855312" lon="13.839383963495493">
        <ele>32.340000000000003</ele>
        <time>2024-09-17T07:04:54Z</time>
      </trkpt>
      <trkpt lat="53.121123975142837" lon="13.838358018547297">
        <ele>31.859999999999999</ele>
        <time>2024-09-17T07:04:59Z</time>
      </trkpt>
      <trkpt lat="53.120968993753195" lon="13.838101029396057">
        <ele>32.340000000000003</ele>
        <time>2024-09-17T07:05:00Z</time>
      </trkpt>
      <trkpt lat="53.119430998340249" lon="13.834900986403227">
        <ele>37.630000000000003</ele>
        <time>2024-09-17T07:05:11Z</time>
      </trkpt>
      <trkpt lat="53.118114033713937" lon="13.832062035799026">
        <ele>43.880000000000003</ele>
        <time>2024-09-17T07:05:21Z</time>
      </trkpt>
      <trkpt lat="53.116566985845566" lon="13.828772976994514">
        <ele>51.090000000000003</ele>
        <time>2024-09-17T07:05:33Z</time>
      </trkpt>
      <trkpt lat="53.115495024248958" lon="13.826023964211345">
        <ele>51.57</ele>
        <time>2024-09-17T07:05:43Z</time>
      </trkpt>
      <trkpt lat="53.115385975688696" lon="13.825762029737234">
        <ele>52.530000000000001</ele>
        <time>2024-09-17T07:05:45Z</time>
      </trkpt>
      <trkpt lat="53.114287024363875" lon="13.823864031583071">
        <ele>56.859999999999999</ele>
        <time>2024-09-17T07:05:53Z</time>
      </trkpt>
      <trkpt lat="53.113573975861073" lon="13.822514964267612">
        <ele>61.659999999999997</ele>
        <time>2024-09-17T07:06:00Z</time>
      </trkpt>
      <trkpt lat="53.11337498947978" lon="13.822069969028234">
        <ele>62.619999999999997</ele>
        <time>2024-09-17T07:06:02Z</time>
      </trkpt>
      <trkpt lat="53.112831003963947" lon="13.820329969748855">
        <ele>65.030000000000001</ele>
        <time>2024-09-17T07:06:09Z</time>
      </trkpt>
      <trkpt lat="53.11187001876533" lon="13.81737501360476">
        <ele>66.469999999999999</ele>
        <time>2024-09-17T07:06:20Z</time>
      </trkpt>
      <trkpt lat="53.111287979409099" lon="13.816052014008164">
        <ele>66.950000000000003</ele>
        <time>2024-09-17T07:06:25Z</time>
      </trkpt>
      <trkpt lat="53.111210027709603" lon="13.815748002380133">
        <ele>66.950000000000003</ele>
        <time>2024-09-17T07:06:26Z</time>
      </trkpt>
      <trkpt lat="53.111131992191076" lon="13.815444996580482">
        <ele>66.950000000000003</ele>
        <time>2024-09-17T07:06:27Z</time>
      </trkpt>
      <trkpt lat="53.111077006906271" lon="13.815123969689012">
        <ele>66.950000000000003</ele>
        <time>2024-09-17T07:06:28Z</time>
      </trkpt>
      <trkpt lat="53.111030990257859" lon="13.814791962504387">
        <ele>66.950000000000003</ele>
        <time>2024-09-17T07:06:29Z</time>
      </trkpt>
      <trkpt lat="53.110983967781067" lon="13.814456015825272">
        <ele>66.950000000000003</ele>
        <time>2024-09-17T07:06:30Z</time>
      </trkpt>
      <trkpt lat="53.110461020842195" lon="13.810385009273887">
        <ele>62.619999999999997</ele>
        <time>2024-09-17T07:06:42Z</time>
      </trkpt>
      <trkpt lat="53.109847968444228" lon="13.806787999346852">
        <ele>64.549999999999997</ele>
        <time>2024-09-17T07:06:52Z</time>
      </trkpt>
      <trkpt lat="53.109059985727072" lon="13.803540011867881">
        <ele>66.950000000000003</ele>
        <time>2024-09-17T07:07:02Z</time>
      </trkpt>
      <trkpt lat="53.108134036883712" lon="13.800886971876025">
        <ele>71.269999999999996</ele>
        <time>2024-09-17T07:07:13Z</time>
      </trkpt>
      <trkpt lat="53.106694025918841" lon="13.796608010306954">
        <ele>69.349999999999994</ele>
        <time>2024-09-17T07:07:26Z</time>
      </trkpt>
      <trkpt lat="53.105732034891844" lon="13.793248040601611">
        <ele>69.349999999999994</ele>
        <time>2024-09-17T07:07:36Z</time>
      </trkpt>
      <trkpt lat="53.105267006903887" lon="13.790807984769344">
        <ele>68.870000000000005</ele>
        <time>2024-09-17T07:07:45Z</time>
      </trkpt>
      <trkpt lat="53.104999959468842" lon="13.789320029318333">
        <ele>65.989999999999995</ele>
        <time>2024-09-17T07:07:53Z</time>
      </trkpt>
      <trkpt lat="53.10480197891593" lon="13.788214037194848">
        <ele>65.030000000000001</ele>
        <time>2024-09-17T07:07:59Z</time>
      </trkpt>
      <trkpt lat="53.1043959595263" lon="13.786574034020305">
        <ele>62.140000000000001</ele>
        <time>2024-09-17T07:08:05Z</time>
      </trkpt>
      <trkpt lat="53.103532958775759" lon="13.783853016793728">
        <ele>60.219999999999999</ele>
        <time>2024-09-17T07:08:14Z</time>
      </trkpt>
      <trkpt lat="53.101937966421247" lon="13.779916958883405">
        <ele>62.619999999999997</ele>
        <time>2024-09-17T07:08:26Z</time>
      </trkpt>
      <trkpt lat="53.100931970402598" lon="13.777410015463829">
        <ele>67.909999999999997</ele>
        <time>2024-09-17T07:08:34Z</time>
      </trkpt>
      <trkpt lat="53.100815964862704" lon="13.777081025764346">
        <ele>68.390000000000001</ele>
        <time>2024-09-17T07:08:35Z</time>
      </trkpt>
      <trkpt lat="53.099825978279114" lon="13.773661041632295">
        <ele>68.870000000000005</ele>
        <time>2024-09-17T07:08:44Z</time>
      </trkpt>
      <trkpt lat="53.099089041352272" lon="13.770915968343616">
        <ele>68.390000000000001</ele>
        <time>2024-09-17T07:08:53Z</time>
      </trkpt>
      <trkpt lat="53.097934015095234" lon="13.766677994281054">
        <ele>77.519999999999996</ele>
        <time>2024-09-17T07:09:05Z</time>
      </trkpt>
      <trkpt lat="53.09723999351263" lon="13.763893023133278">
        <ele>78.480000000000004</ele>
        <time>2024-09-17T07:09:13Z</time>
      </trkpt>
      <trkpt lat="53.09698199853301" lon="13.762002987787127">
        <ele>74.640000000000001</ele>
        <time>2024-09-17T07:09:20Z</time>
      </trkpt>
      <trkpt lat="53.096663989126682" lon="13.759772982448339">
        <ele>70.790000000000006</ele>
        <time>2024-09-17T07:09:31Z</time>
      </trkpt>
      <trkpt lat="53.096639011055231" lon="13.759602997452021">
        <ele>70.310000000000002</ele>
        <time>2024-09-17T07:09:33Z</time>
      </trkpt>
      <trkpt lat="53.096589976921678" lon="13.7592569924891">
        <ele>69.829999999999998</ele>
        <time>2024-09-17T07:09:34Z</time>
      </trkpt>
      <trkpt lat="53.096103994175792" lon="13.756828000769019">
        <ele>68.390000000000001</ele>
        <time>2024-09-17T07:09:48Z</time>
      </trkpt>
      <trkpt lat="53.095941971987486" lon="13.756329026073217">
        <ele>68.390000000000001</ele>
        <time>2024-09-17T07:09:51Z</time>
      </trkpt>
      <trkpt lat="53.095386000350118" lon="13.754666978493333">
        <ele>67.430000000000007</ele>
        <time>2024-09-17T07:10:01Z</time>
      </trkpt>
      <trkpt lat="53.095107972621918" lon="13.754046969115734">
        <ele>67.909999999999997</ele>
        <time>2024-09-17T07:10:06Z</time>
      </trkpt>
      <trkpt lat="53.09468200430274" lon="13.753378009423614">
        <ele>67.430000000000007</ele>
        <time>2024-09-17T07:10:11Z</time>
      </trkpt>
      <trkpt lat="53.094586031511426" lon="13.752972995862365">
        <ele>67.430000000000007</ele>
        <time>2024-09-17T07:10:12Z</time>
      </trkpt>
      <trkpt lat="53.094586031511426" lon="13.752749031409621">
        <ele>66.950000000000003</ele>
        <time>2024-09-17T07:10:13Z</time>
      </trkpt>
      <trkpt lat="53.094586031511426" lon="13.752517020329833">
        <ele>66.950000000000003</ele>
        <time>2024-09-17T07:10:14Z</time>
      </trkpt>
      <trkpt lat="53.094586031511426" lon="13.751269038766623">
        <ele>67.430000000000007</ele>
        <time>2024-09-17T07:10:19Z</time>
      </trkpt>
      <trkpt lat="53.094586031511426" lon="13.750992016866803">
        <ele>67.430000000000007</ele>
        <time>2024-09-17T07:10:20Z</time>
      </trkpt>
      <trkpt lat="53.09455200098455" lon="13.750699991360307">
        <ele>67.430000000000007</ele>
        <time>2024-09-17T07:10:21Z</time>
      </trkpt>
      <trkpt lat="53.094490980729461" lon="13.7504050321877">
        <ele>67.909999999999997</ele>
        <time>2024-09-17T07:10:22Z</time>
      </trkpt>
      <trkpt lat="53.094391990453005" lon="13.750144019722939">
        <ele>67.909999999999997</ele>
        <time>2024-09-17T07:10:23Z</time>
      </trkpt>
      <trkpt lat="53.094272967427969" lon="13.749899016693234">
        <ele>67.909999999999997</ele>
        <time>2024-09-17T07:10:24Z</time>
      </trkpt>
      <trkpt lat="53.094138018786907" lon="13.749658958986402">
        <ele>67.909999999999997</ele>
        <time>2024-09-17T07:10:25Z</time>
      </trkpt>
      <trkpt lat="53.094001980498433" lon="13.7494189850986">
        <ele>67.909999999999997</ele>
        <time>2024-09-17T07:10:26Z</time>
      </trkpt>
      <trkpt lat="53.093871977180243" lon="13.749188985675573">
        <ele>67.909999999999997</ele>
        <time>2024-09-17T07:10:27Z</time>
      </trkpt>
      <trkpt lat="53.093766029924154" lon="13.748938031494617">
        <ele>67.430000000000007</ele>
        <time>2024-09-17T07:10:28Z</time>
      </trkpt>
      <trkpt lat="53.093706015497446" lon="13.748681964352727">
        <ele>67.430000000000007</ele>
        <time>2024-09-17T07:10:29Z</time>
      </trkpt>
      <trkpt lat="53.093702998012304" lon="13.74840603210032">
        <ele>67.430000000000007</ele>
        <time>2024-09-17T07:10:30Z</time>
      </trkpt>
      <trkpt lat="53.093698974698782" lon="13.748120963573456">
        <ele>66.950000000000003</ele>
        <time>2024-09-17T07:10:31Z</time>
      </trkpt>
      <trkpt lat="53.093695035204291" lon="13.747800020501018">
        <ele>66.950000000000003</ele>
        <time>2024-09-17T07:10:32Z</time>
      </trkpt>
      <trkpt lat="53.093524966388941" lon="13.745324006304145">
        <ele>64.069999999999993</ele>
        <time>2024-09-17T07:10:39Z</time>
      </trkpt>
      <trkpt lat="53.093390017747879" lon="13.744612969458103">
        <ele>64.069999999999993</ele>
        <time>2024-09-17T07:10:41Z</time>
      </trkpt>
      <trkpt lat="53.093304019421339" lon="13.744293032214046">
        <ele>64.069999999999993</ele>
        <time>2024-09-17T07:10:42Z</time>
      </trkpt>
      <trkpt lat="53.093139985576272" lon="13.743682997301221">
        <ele>63.579999999999998</ele>
        <time>2024-09-17T07:10:44Z</time>
      </trkpt>
      <trkpt lat="53.093081982806325" lon="13.743372028693557">
        <ele>63.579999999999998</ele>
        <time>2024-09-17T07:10:45Z</time>
      </trkpt>
      <trkpt lat="53.093040995299816" lon="13.743054019287229">
        <ele>63.579999999999998</ele>
        <time>2024-09-17T07:10:46Z</time>
      </trkpt>
      <trkpt lat="53.093019034713507" lon="13.742725029587746">
        <ele>63.579999999999998</ele>
        <time>2024-09-17T07:10:47Z</time>
      </trkpt>
      <trkpt lat="53.093019034713507" lon="13.742382964119315">
        <ele>63.579999999999998</ele>
        <time>2024-09-17T07:10:48Z</time>
      </trkpt>
      <trkpt lat="53.093037977814674" lon="13.74202799052">
        <ele>63.579999999999998</ele>
        <time>2024-09-17T07:10:49Z</time>
      </trkpt>
      <trkpt lat="53.093082988634706" lon="13.741668993607163">
        <ele>63.579999999999998</ele>
        <time>2024-09-17T07:10:50Z</time>
      </trkpt>
      <trkpt lat="53.093127999454737" lon="13.741306979209185">
        <ele>63.579999999999998</ele>
        <time>2024-09-17T07:10:51Z</time>
      </trkpt>
      <trkpt lat="53.093708027154207" lon="13.738291002810001">
        <ele>64.549999999999997</ele>
        <time>2024-09-17T07:11:00Z</time>
      </trkpt>
      <trkpt lat="53.094255030155182" lon="13.735245019197464">
        <ele>65.030000000000001</ele>
        <time>2024-09-17T07:11:09Z</time>
      </trkpt>
      <trkpt lat="53.094429960474372" lon="13.732720976695418">
        <ele>65.989999999999995</ele>
        <time>2024-09-17T07:11:16Z</time>
      </trkpt>
      <trkpt lat="53.094415962696075" lon="13.728446960449219">
        <ele>73.200000000000003</ele>
        <time>2024-09-17T07:11:28Z</time>
      </trkpt>
      <trkpt lat="53.094348991289735" lon="13.726361962035298">
        <ele>75.120000000000005</ele>
        <time>2024-09-17T07:11:34Z</time>
      </trkpt>
      <trkpt lat="53.094266010448337" lon="13.726059040054679">
        <ele>75.599999999999994</ele>
        <time>2024-09-17T07:11:35Z</time>
      </trkpt>
      <trkpt lat="53.094173977151513" lon="13.725756034255028">
        <ele>76.079999999999998</ele>
        <time>2024-09-17T07:11:36Z</time>
      </trkpt>
      <trkpt lat="53.093097992241383" lon="13.722623968496919">
        <ele>75.120000000000005</ele>
        <time>2024-09-17T07:11:46Z</time>
      </trkpt>
      <trkpt lat="53.092106999829412" lon="13.71940297074616">
        <ele>71.269999999999996</ele>
        <time>2024-09-17T07:11:56Z</time>
      </trkpt>
      <trkpt lat="53.091498976573348" lon="13.716234024614096">
        <ele>69.349999999999994</ele>
        <time>2024-09-17T07:12:06Z</time>
      </trkpt>
      <trkpt lat="53.091109972447157" lon="13.714054981246591">
        <ele>68.870000000000005</ele>
        <time>2024-09-17T07:12:14Z</time>
      </trkpt>
      <trkpt lat="53.091035038232803" lon="13.712236024439335">
        <ele>66.950000000000003</ele>
        <time>2024-09-17T07:12:21Z</time>
      </trkpt>
      <trkpt lat="53.091250034049153" lon="13.710498958826065">
        <ele>62.619999999999997</ele>
        <time>2024-09-17T07:12:29Z</time>
      </trkpt>
      <trkpt lat="53.09131097048521" lon="13.710053041577339">
        <ele>61.659999999999997</ele>
        <time>2024-09-17T07:12:30Z</time>
      </trkpt>
      <trkpt lat="53.091340977698565" lon="13.709837039932609">
        <ele>61.18</ele>
        <time>2024-09-17T07:12:31Z</time>
      </trkpt>
      <trkpt lat="53.091368973255157" lon="13.70962698943913">
        <ele>60.700000000000003</ele>
        <time>2024-09-17T07:12:32Z</time>
      </trkpt>
      <trkpt lat="53.091472992673516" lon="13.708868008106947">
        <ele>57.340000000000003</ele>
        <time>2024-09-17T07:12:36Z</time>
      </trkpt>
      <trkpt lat="53.091496964916587" lon="13.70870397426188">
        <ele>55.890000000000001</ele>
        <time>2024-09-17T07:12:38Z</time>
      </trkpt>
      <trkpt lat="53.091662004590034" lon="13.707445012405515">
        <ele>48.200000000000003</ele>
        <time>2024-09-17T07:12:45Z</time>
      </trkpt>
      <trkpt lat="53.09191002510488" lon="13.705660002306104">
        <ele>41.950000000000003</ele>
        <time>2024-09-17T07:12:52Z</time>
      </trkpt>
      <trkpt lat="53.091908013448119" lon="13.70322598144412">
        <ele>40.030000000000001</ele>
        <time>2024-09-17T07:12:59Z</time>
      </trkpt>
      <trkpt lat="53.091871971264482" lon="13.699933988973498">
        <ele>39.549999999999997</ele>
        <time>2024-09-17T07:13:08Z</time>
      </trkpt>
      <trkpt lat="53.091964004561305" lon="13.697109036147594">
        <ele>43.880000000000003</ele>
        <time>2024-09-17T07:13:16Z</time>
      </trkpt>
      <trkpt lat="53.092219987884164" lon="13.693418987095356">
        <ele>48.200000000000003</ele>
        <time>2024-09-17T07:13:26Z</time>
      </trkpt>
      <trkpt lat="53.092388967052102" lon="13.68962399661541">
        <ele>53.490000000000002</ele>
        <time>2024-09-17T07:13:36Z</time>
      </trkpt>
      <trkpt lat="53.092354014515877" lon="13.685947023332119">
        <ele>51.57</ele>
        <time>2024-09-17T07:13:46Z</time>
      </trkpt>
      <trkpt lat="53.092277990654111" lon="13.682274995371699">
        <ele>48.68</ele>
        <time>2024-09-17T07:13:56Z</time>
      </trkpt>
      <trkpt lat="53.091898038983345" lon="13.679793030023575">
        <ele>48.68</ele>
        <time>2024-09-17T07:14:04Z</time>
      </trkpt>
      <trkpt lat="53.091697040945292" lon="13.677902994677424">
        <ele>47.240000000000002</ele>
        <time>2024-09-17T07:14:12Z</time>
      </trkpt>
      <trkpt lat="53.091605007648468" lon="13.675975995138288">
        <ele>44.840000000000003</ele>
        <time>2024-09-17T07:14:22Z</time>
      </trkpt>
      <trkpt lat="53.091575000435114" lon="13.675000006332994">
        <ele>45.799999999999997</ele>
        <time>2024-09-17T07:14:27Z</time>
      </trkpt>
      <trkpt lat="53.091552034020424" lon="13.674235995858908">
        <ele>45.32</ele>
        <time>2024-09-17T07:14:31Z</time>
      </trkpt>
      <trkpt lat="53.091519009321928" lon="13.67310200817883">
        <ele>45.32</ele>
        <time>2024-09-17T07:14:37Z</time>
      </trkpt>
      <trkpt lat="53.091495959088206" lon="13.672334980219603">
        <ele>45.799999999999997</ele>
        <time>2024-09-17T07:14:41Z</time>
      </trkpt>
      <trkpt lat="53.091849004849792" lon="13.670273032039404">
        <ele>51.090000000000003</ele>
        <time>2024-09-17T07:14:52Z</time>
      </trkpt>
      <trkpt lat="53.092225017026067" lon="13.668551975861192">
        <ele>53.490000000000002</ele>
        <time>2024-09-17T07:14:59Z</time>
      </trkpt>
      <trkpt lat="53.093089023604989" lon="13.666307972744107">
        <ele>55.409999999999997</ele>
        <time>2024-09-17T07:15:07Z</time>
      </trkpt>
      <trkpt lat="53.094805972650647" lon="13.662519017234445">
        <ele>58.780000000000001</ele>
        <time>2024-09-17T07:15:20Z</time>
      </trkpt>
      <trkpt lat="53.095461018383503" lon="13.661550991237164">
        <ele>58.780000000000001</ele>
        <time>2024-09-17T07:15:25Z</time>
      </trkpt>
      <trkpt lat="53.09749798849225" lon="13.659601025283337">
        <ele>58.780000000000001</ele>
        <time>2024-09-17T07:15:34Z</time>
      </trkpt>
      <trkpt lat="53.100393014028668" lon="13.656851006671786">
        <ele>63.100000000000001</ele>
        <time>2024-09-17T07:15:50Z</time>
      </trkpt>
      <trkpt lat="53.102655960246921" lon="13.654660983011127">
        <ele>66.950000000000003</ele>
        <time>2024-09-17T07:16:01Z</time>
      </trkpt>
      <trkpt lat="53.103363979607821" lon="13.653899990022182">
        <ele>69.349999999999994</ele>
        <time>2024-09-17T07:16:05Z</time>
      </trkpt>
      <trkpt lat="53.103519966825843" lon="13.653648030012846">
        <ele>69.829999999999998</ele>
        <time>2024-09-17T07:16:06Z</time>
      </trkpt>
      <trkpt lat="53.103666985407472" lon="13.653385005891323">
        <ele>70.310000000000002</ele>
        <time>2024-09-17T07:16:07Z</time>
      </trkpt>
      <trkpt lat="53.104194039478898" lon="13.652205001562834">
        <ele>72.719999999999999</ele>
        <time>2024-09-17T07:16:11Z</time>
      </trkpt>
      <trkpt lat="53.105239011347294" lon="13.649752959609032">
        <ele>77.519999999999996</ele>
        <time>2024-09-17T07:16:19Z</time>
      </trkpt>
      <trkpt lat="53.107082024216652" lon="13.645511968061328">
        <ele>74.640000000000001</ele>
        <time>2024-09-17T07:16:33Z</time>
      </trkpt>
      <trkpt lat="53.107820972800255" lon="13.643586980178952">
        <ele>74.159999999999997</ele>
        <time>2024-09-17T07:16:40Z</time>
      </trkpt>
      <trkpt lat="53.108178041875362" lon="13.642500014975667">
        <ele>70.790000000000006</ele>
        <time>2024-09-17T07:16:46Z</time>
      </trkpt>
      <trkpt lat="53.108308967202902" lon="13.642119979485869">
        <ele>68.870000000000005</ele>
        <time>2024-09-17T07:16:51Z</time>
      </trkpt>
      <trkpt lat="53.108335034921765" lon="13.642047978937626">
        <ele>68.390000000000001</ele>
        <time>2024-09-17T07:16:52Z</time>
      </trkpt>
      <trkpt lat="53.108361018821597" lon="13.641972960904241">
        <ele>68.390000000000001</ele>
        <time>2024-09-17T07:16:53Z</time>
      </trkpt>
      <trkpt lat="53.108392031863332" lon="13.641875982284546">
        <ele>67.909999999999997</ele>
        <time>2024-09-17T07:16:54Z</time>
      </trkpt>
      <trkpt lat="53.108391026034951" lon="13.641876988112926">
        <ele>67.909999999999997</ele>
        <time>2024-09-17T07:16:55Z</time>
      </trkpt>
      <trkpt lat="53.108403012156487" lon="13.641839018091559">
        <ele>67.430000000000007</ele>
        <time>2024-09-17T07:16:56Z</time>
      </trkpt>
      <trkpt lat="53.108351966366172" lon="13.641808005049825">
        <ele>66.950000000000003</ele>
        <time>2024-09-17T07:16:57Z</time>
      </trkpt>
      <trkpt lat="53.108323970809579" lon="13.641772968694568">
        <ele>66.469999999999999</ele>
        <time>2024-09-17T07:16:58Z</time>
      </trkpt>
      <trkpt lat="53.108407035470009" lon="13.641825020313263">
        <ele>65.510000000000005</ele>
        <time>2024-09-17T07:17:01Z</time>
      </trkpt>
      <trkpt lat="53.108416004106402" lon="13.641798030585051">
        <ele>65.030000000000001</ele>
        <time>2024-09-17T07:17:02Z</time>
      </trkpt>
      <trkpt lat="53.108430001884699" lon="13.6417540255934">
        <ele>64.549999999999997</ele>
        <time>2024-09-17T07:17:03Z</time>
      </trkpt>
      <trkpt lat="53.108447017148137" lon="13.641696022823453">
        <ele>64.069999999999993</ele>
        <time>2024-09-17T07:17:04Z</time>
      </trkpt>
      <trkpt lat="53.108483981341124" lon="13.641578005626798">
        <ele>64.069999999999993</ele>
        <time>2024-09-17T07:17:05Z</time>
      </trkpt>
      <trkpt lat="53.108091037720442" lon="13.641363009810448">
        <ele>61.659999999999997</ele>
        <time>2024-09-17T07:17:10Z</time>
      </trkpt>
      <trkpt lat="53.108078967779875" lon="13.641398968175054">
        <ele>60.700000000000003</ele>
        <time>2024-09-17T07:17:21Z</time>
      </trkpt>
      <trkpt lat="53.108252976089716" lon="13.641788978129625">
        <ele>59.259999999999998</ele>
        <time>2024-09-17T07:17:27Z</time>
      </trkpt>
      <trkpt lat="53.108361018821597" lon="13.641972960904241">
        <ele>59.740000000000002</ele>
        <time>2024-09-17T07:17:31Z</time>
      </trkpt>
      <trkpt lat="53.108595041558146" lon="13.641221020370722">
        <ele>59.259999999999998</ele>
        <time>2024-09-17T07:17:37Z</time>
      </trkpt>
      <trkpt lat="53.108739964663982" lon="13.640994960442185">
        <ele>59.259999999999998</ele>
        <time>2024-09-17T07:17:38Z</time>
      </trkpt>
      <trkpt lat="53.108739964663982" lon="13.640994960442185">
        <ele>59.259999999999998</ele>
        <time>2024-09-17T07:17:39Z</time>
      </trkpt>
      <trkpt lat="53.108791010454297" lon="13.640964031219482">
        <ele>58.780000000000001</ele>
        <time>2024-09-17T07:17:40Z</time>
      </trkpt>
      <trkpt lat="53.108782041817904" lon="13.640879960730672">
        <ele>58.780000000000001</ele>
        <time>2024-09-17T07:17:41Z</time>
      </trkpt>
      <trkpt lat="53.108773995190859" lon="13.640794968232512">
        <ele>58.780000000000001</ele>
        <time>2024-09-17T07:17:42Z</time>
      </trkpt>
      <trkpt lat="53.108724961057305" lon="13.640770995989442">
        <ele>58.780000000000001</ele>
        <time>2024-09-17T07:17:43Z</time>
      </trkpt>
      <trkpt lat="53.108666036278009" lon="13.640801003202796">
        <ele>58.780000000000001</ele>
        <time>2024-09-17T07:17:44Z</time>
      </trkpt>
      <trkpt lat="53.108566040173173" lon="13.640773007646203">
        <ele>58.780000000000001</ele>
        <time>2024-09-17T07:17:45Z</time>
      </trkpt>
      <trkpt lat="53.108479036018252" lon="13.64072397351265">
        <ele>58.780000000000001</ele>
        <time>2024-09-17T07:17:46Z</time>
      </trkpt>
      <trkpt lat="53.107374971732497" lon="13.639969015493989">
        <ele>61.18</ele>
        <time>2024-09-17T07:17:55Z</time>
      </trkpt>
      <trkpt lat="53.106343997642398" lon="13.639268958941102">
        <ele>62.140000000000001</ele>
        <time>2024-09-17T07:18:04Z</time>
      </trkpt>
      <trkpt lat="53.104975987225771" lon="13.638333035632968">
        <ele>64.069999999999993</ele>
        <time>2024-09-17T07:18:17Z</time>
      </trkpt>
      <trkpt lat="53.103682994842529" lon="13.637439021840692">
        <ele>64.549999999999997</ele>
        <time>2024-09-17T07:18:28Z</time>
      </trkpt>
      <trkpt lat="53.102069981396198" lon="13.636325988918543">
        <ele>64.549999999999997</ele>
        <time>2024-09-17T07:18:43Z</time>
      </trkpt>
      <trkpt lat="53.100787969306111" lon="13.635457037016749">
        <ele>63.579999999999998</ele>
        <time>2024-09-17T07:18:55Z</time>
      </trkpt>
      <trkpt lat="53.099035983905196" lon="13.634249959141016">
        <ele>64.549999999999997</ele>
        <time>2024-09-17T07:19:11Z</time>
      </trkpt>
      <trkpt lat="53.09762598015368" lon="13.633262990042567">
        <ele>62.619999999999997</ele>
        <time>2024-09-17T07:19:21Z</time>
      </trkpt>
      <trkpt lat="53.095823032781482" lon="13.632020959630609">
        <ele>62.619999999999997</ele>
        <time>2024-09-17T07:19:31Z</time>
      </trkpt>
      <trkpt lat="53.093924028798938" lon="13.630729978904128">
        <ele>64.069999999999993</ele>
        <time>2024-09-17T07:19:40Z</time>
      </trkpt>
      <trkpt lat="53.09371498413384" lon="13.630590001121163">
        <ele>64.549999999999997</ele>
        <time>2024-09-17T07:19:41Z</time>
      </trkpt>
      <trkpt lat="53.091648006811738" lon="13.629195000976324">
        <ele>64.549999999999997</ele>
        <time>2024-09-17T07:19:51Z</time>
      </trkpt>
      <trkpt lat="53.089304007589817" lon="13.627593973651528">
        <ele>64.549999999999997</ele>
        <time>2024-09-17T07:20:02Z</time>
      </trkpt>
      <trkpt lat="53.087480021640658" lon="13.626330988481641">
        <ele>68.870000000000005</ele>
        <time>2024-09-17T07:20:11Z</time>
      </trkpt>
      <trkpt lat="53.085774974897504" lon="13.625155007466674">
        <ele>65.989999999999995</ele>
        <time>2024-09-17T07:20:19Z</time>
      </trkpt>
      <trkpt lat="53.084288025274873" lon="13.62413702532649">
        <ele>65.510000000000005</ele>
        <time>2024-09-17T07:20:26Z</time>
      </trkpt>
      <trkpt lat="53.082368988543749" lon="13.62280597910285">
        <ele>68.390000000000001</ele>
        <time>2024-09-17T07:20:35Z</time>
      </trkpt>
      <trkpt lat="53.080112999305129" lon="13.621432017534971">
        <ele>69.829999999999998</ele>
        <time>2024-09-17T07:20:45Z</time>
      </trkpt>
      <trkpt lat="53.078411975875497" lon="13.62132397480309">
        <ele>68.870000000000005</ele>
        <time>2024-09-17T07:20:52Z</time>
      </trkpt>
      <trkpt lat="53.076721010729671" lon="13.621898973360658">
        <ele>65.989999999999995</ele>
        <time>2024-09-17T07:21:00Z</time>
      </trkpt>
      <trkpt lat="53.075739992782474" lon="13.622308010235429">
        <ele>61.18</ele>
        <time>2024-09-17T07:21:07Z</time>
      </trkpt>
      <trkpt lat="53.074591001495719" lon="13.622767003253102">
        <ele>55.409999999999997</ele>
        <time>2024-09-17T07:21:17Z</time>
      </trkpt>
      <trkpt lat="53.073635967448354" lon="13.622871022671461">
        <ele>56.369999999999997</ele>
        <time>2024-09-17T07:21:25Z</time>
      </trkpt>
      <trkpt lat="53.072484964504838" lon="13.622972024604678">
        <ele>61.659999999999997</ele>
        <time>2024-09-17T07:21:34Z</time>
      </trkpt>
      <trkpt lat="53.072319002822042" lon="13.622986022382975">
        <ele>62.140000000000001</ele>
        <time>2024-09-17T07:21:36Z</time>
      </trkpt>
      <trkpt lat="53.070125039666891" lon="13.623161036521196">
        <ele>63.100000000000001</ele>
        <time>2024-09-17T07:21:46Z</time>
      </trkpt>
      <trkpt lat="53.067648019641638" lon="13.623358011245728">
        <ele>61.659999999999997</ele>
        <time>2024-09-17T07:21:57Z</time>
      </trkpt>
      <trkpt lat="53.064596001058817" lon="13.623596979305148">
        <ele>63.100000000000001</ele>
        <time>2024-09-17T07:22:11Z</time>
      </trkpt>
      <trkpt lat="53.062138007953763" lon="13.623776016756892">
        <ele>62.140000000000001</ele>
        <time>2024-09-17T07:22:23Z</time>
      </trkpt>
      <trkpt lat="53.060466991737485" lon="13.623797977343202">
        <ele>59.259999999999998</ele>
        <time>2024-09-17T07:22:32Z</time>
      </trkpt>
      <trkpt lat="53.059453032910824" lon="13.62340503372252">
        <ele>56.369999999999997</ele>
        <time>2024-09-17T07:22:37Z</time>
      </trkpt>
      <trkpt lat="53.059270977973938" lon="13.623223984614015">
        <ele>55.890000000000001</ele>
        <time>2024-09-17T07:22:38Z</time>
      </trkpt>
      <trkpt lat="53.058278979733586" lon="13.621844993904233">
        <ele>56.369999999999997</ele>
        <time>2024-09-17T07:22:44Z</time>
      </trkpt>
      <trkpt lat="53.056863024830818" lon="13.619464030489326">
        <ele>57.340000000000003</ele>
        <time>2024-09-17T07:22:52Z</time>
      </trkpt>
      <trkpt lat="53.055969011038542" lon="13.617938021197915">
        <ele>58.780000000000001</ele>
        <time>2024-09-17T07:22:58Z</time>
      </trkpt>
      <trkpt lat="53.054806021973491" lon="13.615924017503858">
        <ele>62.140000000000001</ele>
        <time>2024-09-17T07:23:06Z</time>
      </trkpt>
      <trkpt lat="53.053682008758187" lon="13.613813035190105">
        <ele>67.909999999999997</ele>
        <time>2024-09-17T07:23:14Z</time>
      </trkpt>
      <trkpt lat="53.052856978029013" lon="13.611850999295712">
        <ele>71.760000000000005</ele>
        <time>2024-09-17T07:23:21Z</time>
      </trkpt>
      <trkpt lat="53.052453976124525" lon="13.61087903380394">
        <ele>71.760000000000005</ele>
        <time>2024-09-17T07:23:27Z</time>
      </trkpt>
      <trkpt lat="53.051852993667126" lon="13.609460983425379">
        <ele>66.469999999999999</ele>
        <time>2024-09-17T07:23:36Z</time>
      </trkpt>
      <trkpt lat="53.051107004284859" lon="13.60767999663949">
        <ele>63.100000000000001</ele>
        <time>2024-09-17T07:23:47Z</time>
      </trkpt>
      <trkpt lat="53.050544997677207" lon="13.606384992599487">
        <ele>64.069999999999993</ele>
        <time>2024-09-17T07:23:55Z</time>
      </trkpt>
      <trkpt lat="53.050209973007441" lon="13.605822985991836">
        <ele>64.069999999999993</ele>
        <time>2024-09-17T07:23:59Z</time>
      </trkpt>
      <trkpt lat="53.049398018047214" lon="13.604653039947152">
        <ele>63.579999999999998</ele>
        <time>2024-09-17T07:24:08Z</time>
      </trkpt>
      <trkpt lat="53.048815978690982" lon="13.603370022028685">
        <ele>61.659999999999997</ele>
        <time>2024-09-17T07:24:16Z</time>
      </trkpt>
      <trkpt lat="53.048712965101004" lon="13.603282012045383">
        <ele>61.659999999999997</ele>
        <time>2024-09-17T07:24:17Z</time>
      </trkpt>
      <trkpt lat="53.048607017844915" lon="13.603190984576941">
        <ele>61.18</ele>
        <time>2024-09-17T07:24:18Z</time>
      </trkpt>
      <trkpt lat="53.048498975113034" lon="13.603108003735542">
        <ele>61.18</ele>
        <time>2024-09-17T07:24:19Z</time>
      </trkpt>
      <trkpt lat="53.04838296957314" lon="13.603073973208666">
        <ele>60.700000000000003</ele>
        <time>2024-09-17T07:24:20Z</time>
      </trkpt>
      <trkpt lat="53.048266964033246" lon="13.603040026500821">
        <ele>60.700000000000003</ele>
        <time>2024-09-17T07:24:21Z</time>
      </trkpt>
      <trkpt lat="53.048150958493352" lon="13.603005995973945">
        <ele>60.219999999999999</ele>
        <time>2024-09-17T07:24:22Z</time>
      </trkpt>
      <trkpt lat="53.048027995973825" lon="13.603005995973945">
        <ele>59.740000000000002</ele>
        <time>2024-09-17T07:24:24Z</time>
      </trkpt>
      <trkpt lat="53.047680985182524" lon="13.60306098125875">
        <ele>59.259999999999998</ele>
        <time>2024-09-17T07:24:26Z</time>
      </trkpt>
      <trkpt lat="53.047570008784533" lon="13.603109009563923">
        <ele>58.780000000000001</ele>
        <time>2024-09-17T07:24:27Z</time>
      </trkpt>
      <trkpt lat="53.04653400555253" lon="13.603395000100136">
        <ele>58.299999999999997</ele>
        <time>2024-09-17T07:24:36Z</time>
      </trkpt>
      <trkpt lat="53.046220019459724" lon="13.603407992050052">
        <ele>58.299999999999997</ele>
        <time>2024-09-17T07:24:37Z</time>
      </trkpt>
      <trkpt lat="53.044885033741593" lon="13.603413021191955">
        <ele>59.740000000000002</ele>
        <time>2024-09-17T07:24:44Z</time>
      </trkpt>
      <trkpt lat="53.043012013658881" lon="13.60342500731349">
        <ele>59.259999999999998</ele>
        <time>2024-09-17T07:24:52Z</time>
      </trkpt>
      <trkpt lat="53.040803968906403" lon="13.603456020355225">
        <ele>59.259999999999998</ele>
        <time>2024-09-17T07:25:01Z</time>
      </trkpt>
      <trkpt lat="53.038006005808711" lon="13.60348803922534">
        <ele>61.659999999999997</ele>
        <time>2024-09-17T07:25:13Z</time>
      </trkpt>
      <trkpt lat="53.036062996834517" lon="13.603499019518495">
        <ele>61.18</ele>
        <time>2024-09-17T07:25:21Z</time>
      </trkpt>
      <trkpt lat="53.033566027879715" lon="13.603514023125172">
        <ele>60.700000000000003</ele>
        <time>2024-09-17T07:25:31Z</time>
      </trkpt>
      <trkpt lat="53.031550012528896" lon="13.603525003418326">
        <ele>59.740000000000002</ele>
        <time>2024-09-17T07:25:39Z</time>
      </trkpt>
      <trkpt lat="53.029052037745714" lon="13.603540007025003">
        <ele>58.780000000000001</ele>
        <time>2024-09-17T07:25:49Z</time>
      </trkpt>
      <trkpt lat="53.026807028800249" lon="13.603542018681765">
        <ele>58.299999999999997</ele>
        <time>2024-09-17T07:25:58Z</time>
      </trkpt>
      <trkpt lat="53.02468498237431" lon="13.603269020095468">
        <ele>58.780000000000001</ele>
        <time>2024-09-17T07:26:07Z</time>
      </trkpt>
      <trkpt lat="53.022111989557743" lon="13.602902982383966">
        <ele>60.219999999999999</ele>
        <time>2024-09-17T07:26:19Z</time>
      </trkpt>
      <trkpt lat="53.020352041348815" lon="13.602606011554599">
        <ele>60.219999999999999</ele>
        <time>2024-09-17T07:26:26Z</time>
      </trkpt>
      <trkpt lat="53.018293026834726" lon="13.602262018248439">
        <ele>60.219999999999999</ele>
        <time>2024-09-17T07:26:35Z</time>
      </trkpt>
      <trkpt lat="53.016133010387421" lon="13.601901009678841">
        <ele>64.069999999999993</ele>
        <time>2024-09-17T07:26:44Z</time>
      </trkpt>
      <trkpt lat="53.013936029747128" lon="13.601530026644468">
        <ele>65.030000000000001</ele>
        <time>2024-09-17T07:26:53Z</time>
      </trkpt>
      <trkpt lat="53.012473974376917" lon="13.601279994472861">
        <ele>66.950000000000003</ele>
        <time>2024-09-17T07:26:59Z</time>
      </trkpt>
      <trkpt lat="53.010486038401723" lon="13.600940024480224">
        <ele>71.760000000000005</ele>
        <time>2024-09-17T07:27:07Z</time>
      </trkpt>
      <trkpt lat="53.008660962805152" lon="13.600598964840174">
        <ele>76.560000000000002</ele>
        <time>2024-09-17T07:27:14Z</time>
      </trkpt>
      <trkpt lat="53.007861999794841" lon="13.60035396181047">
        <ele>77.040000000000006</ele>
        <time>2024-09-17T07:27:17Z</time>
      </trkpt>
      <trkpt lat="53.005916979163885" lon="13.59910698607564">
        <ele>79.450000000000003</ele>
        <time>2024-09-17T07:27:25Z</time>
      </trkpt>
      <trkpt lat="53.004395999014378" lon="13.598139965906739">
        <ele>83.290000000000006</ele>
        <time>2024-09-17T07:27:32Z</time>
      </trkpt>
      <trkpt lat="53.002905026078224" lon="13.597160037606955">
        <ele>90.5</ele>
        <time>2024-09-17T07:27:39Z</time>
      </trkpt>
      <trkpt lat="53.001728039234877" lon="13.596379011869431">
        <ele>96.269999999999996</ele>
        <time>2024-09-17T07:27:46Z</time>
      </trkpt>
      <trkpt lat="53.000127011910081" lon="13.595722038298845">
        <ele>94.349999999999994</ele>
        <time>2024-09-17T07:27:53Z</time>
      </trkpt>
      <trkpt lat="52.998462030664086" lon="13.594691986218095">
        <ele>89.060000000000002</ele>
        <time>2024-09-17T07:28:00Z</time>
      </trkpt>
      <trkpt lat="52.996485996991396" lon="13.593362029641867">
        <ele>84.730000000000004</ele>
        <time>2024-09-17T07:28:07Z</time>
      </trkpt>
      <trkpt lat="52.994484985247254" lon="13.592025032266974">
        <ele>82.329999999999998</ele>
        <time>2024-09-17T07:28:15Z</time>
      </trkpt>
      <trkpt lat="52.992366040125489" lon="13.590619973838329">
        <ele>80.409999999999997</ele>
        <time>2024-09-17T07:28:25Z</time>
      </trkpt>
      <trkpt lat="52.990410961210728" lon="13.589314995333552">
        <ele>80.890000000000001</ele>
        <time>2024-09-17T07:28:34Z</time>
      </trkpt>
      <trkpt lat="52.988670039921999" lon="13.588152006268501">
        <ele>82.329999999999998</ele>
        <time>2024-09-17T07:28:42Z</time>
      </trkpt>
      <trkpt lat="52.986628962680697" lon="13.586789024993777">
        <ele>84.730000000000004</ele>
        <time>2024-09-17T07:28:51Z</time>
      </trkpt>
      <trkpt lat="52.985111000016332" lon="13.585742963477969">
        <ele>86.659999999999997</ele>
        <time>2024-09-17T07:28:58Z</time>
      </trkpt>
      <trkpt lat="52.983404025435448" lon="13.58454099856317">
        <ele>86.659999999999997</ele>
        <time>2024-09-17T07:29:06Z</time>
      </trkpt>
      <trkpt lat="52.9809629637748" lon="13.582888003438711">
        <ele>81.849999999999994</ele>
        <time>2024-09-17T07:29:17Z</time>
      </trkpt>
      <trkpt lat="52.9791359603405" lon="13.581683021038771">
        <ele>80.409999999999997</ele>
        <time>2024-09-17T07:29:26Z</time>
      </trkpt>
      <trkpt lat="52.977667031809688" lon="13.580723963677883">
        <ele>79.930000000000007</ele>
        <time>2024-09-17T07:29:35Z</time>
      </trkpt>
      <trkpt lat="52.976202964782715" lon="13.579773036763072">
        <ele>83.290000000000006</ele>
        <time>2024-09-17T07:29:42Z</time>
      </trkpt>
      <trkpt lat="52.974521974101663" lon="13.578652963042259">
        <ele>84.25</ele>
        <time>2024-09-17T07:29:49Z</time>
      </trkpt>
      <trkpt lat="52.972107985988259" lon="13.577039027586579">
        <ele>80.890000000000001</ele>
        <time>2024-09-17T07:29:59Z</time>
      </trkpt>
      <trkpt lat="52.970032040029764" lon="13.575649978592992">
        <ele>79.450000000000003</ele>
        <time>2024-09-17T07:30:08Z</time>
      </trkpt>
      <trkpt lat="52.967893984168768" lon="13.574219020083547">
        <ele>77.519999999999996</ele>
        <time>2024-09-17T07:30:17Z</time>
      </trkpt>
      <trkpt lat="52.965716030448675" lon="13.57276501134038">
        <ele>75.120000000000005</ele>
        <time>2024-09-17T07:30:26Z</time>
      </trkpt>
      <trkpt lat="52.963328026235104" lon="13.571170018985868">
        <ele>70.310000000000002</ele>
        <time>2024-09-17T07:30:36Z</time>
      </trkpt>
      <trkpt lat="52.960738018155098" lon="13.569432031363249">
        <ele>68.390000000000001</ele>
        <time>2024-09-17T07:30:47Z</time>
      </trkpt>
      <trkpt lat="52.957998979836702" lon="13.567602010443807">
        <ele>67.909999999999997</ele>
        <time>2024-09-17T07:30:59Z</time>
      </trkpt>
      <trkpt lat="52.955999979749322" lon="13.566266018897295">
        <ele>68.390000000000001</ele>
        <time>2024-09-17T07:31:08Z</time>
      </trkpt>
      <trkpt lat="52.953733010217547" lon="13.564750989899039">
        <ele>66.950000000000003</ele>
        <time>2024-09-17T07:31:18Z</time>
      </trkpt>
      <trkpt lat="52.95195696875453" lon="13.563561011105776">
        <ele>65.510000000000005</ele>
        <time>2024-09-17T07:31:26Z</time>
      </trkpt>
      <trkpt lat="52.950221998617053" lon="13.562399027869105">
        <ele>65.989999999999995</ele>
        <time>2024-09-17T07:31:34Z</time>
      </trkpt>
      <trkpt lat="52.948705963790417" lon="13.561388002708554">
        <ele>66.950000000000003</ele>
        <time>2024-09-17T07:31:41Z</time>
      </trkpt>
      <trkpt lat="52.94677997007966" lon="13.560122000053525">
        <ele>67.430000000000007</ele>
        <time>2024-09-17T07:31:50Z</time>
      </trkpt>
      <trkpt lat="52.94501599855721" lon="13.559053977951407">
        <ele>67.430000000000007</ele>
        <time>2024-09-17T07:31:59Z</time>
      </trkpt>
      <trkpt lat="52.943172985687852" lon="13.558420976623893">
        <ele>65.510000000000005</ele>
        <time>2024-09-17T07:32:06Z</time>
      </trkpt>
      <trkpt lat="52.942946003749967" lon="13.558314023539424">
        <ele>65.510000000000005</ele>
        <time>2024-09-17T07:32:07Z</time>
      </trkpt>
      <trkpt lat="52.942505031824112" lon="13.558040019124746">
        <ele>65.510000000000005</ele>
        <time>2024-09-17T07:32:09Z</time>
      </trkpt>
      <trkpt lat="52.940863016992807" lon="13.556468999013305">
        <ele>65.510000000000005</ele>
        <time>2024-09-17T07:32:17Z</time>
      </trkpt>
      <trkpt lat="52.939155958592892" lon="13.55501901358366">
        <ele>66.469999999999999</ele>
        <time>2024-09-17T07:32:25Z</time>
      </trkpt>
      <trkpt lat="52.9372179787606" lon="13.553716968744993">
        <ele>68.390000000000001</ele>
        <time>2024-09-17T07:32:34Z</time>
      </trkpt>
      <trkpt lat="52.935965973883867" lon="13.552886992692947">
        <ele>69.349999999999994</ele>
        <time>2024-09-17T07:32:41Z</time>
      </trkpt>
      <trkpt lat="52.93433896265924" lon="13.551805978640914">
        <ele>71.269999999999996</ele>
        <time>2024-09-17T07:32:49Z</time>
      </trkpt>
      <trkpt lat="52.932137958705425" lon="13.550327997654676">
        <ele>72.719999999999999</ele>
        <time>2024-09-17T07:32:59Z</time>
      </trkpt>
      <trkpt lat="52.930939011275768" lon="13.549524005502462">
        <ele>73.200000000000003</ele>
        <time>2024-09-17T07:33:07Z</time>
      </trkpt>
      <trkpt lat="52.929895967245102" lon="13.548824032768607">
        <ele>72.719999999999999</ele>
        <time>2024-09-17T07:33:15Z</time>
      </trkpt>
      <trkpt lat="52.928868010640144" lon="13.548134034499526">
        <ele>73.200000000000003</ele>
        <time>2024-09-17T07:33:24Z</time>
      </trkpt>
      <trkpt lat="52.928200978785753" lon="13.547686021775007">
        <ele>74.159999999999997</ele>
        <time>2024-09-17T07:33:30Z</time>
      </trkpt>
      <trkpt lat="52.927177967503667" lon="13.546999963000417">
        <ele>76.560000000000002</ele>
        <time>2024-09-17T07:33:39Z</time>
      </trkpt>
      <trkpt lat="52.926687961444259" lon="13.546670973300934">
        <ele>75.599999999999994</ele>
        <time>2024-09-17T07:33:43Z</time>
      </trkpt>
      <trkpt lat="52.926574973389506" lon="13.5465950332582">
        <ele>75.599999999999994</ele>
        <time>2024-09-17T07:33:44Z</time>
      </trkpt>
      <trkpt lat="52.926458967849612" lon="13.546516997739673">
        <ele>75.599999999999994</ele>
        <time>2024-09-17T07:33:45Z</time>
      </trkpt>
      <trkpt lat="52.925633015111089" lon="13.545963037759066">
        <ele>74.159999999999997</ele>
        <time>2024-09-17T07:33:52Z</time>
      </trkpt>
      <trkpt lat="52.925520027056336" lon="13.5458870138973">
        <ele>74.159999999999997</ele>
        <time>2024-09-17T07:33:53Z</time>
      </trkpt>
      <trkpt lat="52.925415001809597" lon="13.545816019177437">
        <ele>73.680000000000007</ele>
        <time>2024-09-17T07:33:54Z</time>
      </trkpt>
      <trkpt lat="52.925310982391238" lon="13.545747036114335">
        <ele>73.680000000000007</ele>
        <time>2024-09-17T07:33:55Z</time>
      </trkpt>
      <trkpt lat="52.925212997943163" lon="13.545680986717343">
        <ele>73.200000000000003</ele>
        <time>2024-09-17T07:33:56Z</time>
      </trkpt>
      <trkpt lat="52.925126999616623" lon="13.545622983947396">
        <ele>73.200000000000003</ele>
        <time>2024-09-17T07:33:57Z</time>
      </trkpt>
      <trkpt lat="52.924682004377246" lon="13.545324001461267">
        <ele>73.680000000000007</ele>
        <time>2024-09-17T07:34:02Z</time>
      </trkpt>
      <trkpt lat="52.924039028584957" lon="13.544893004000187">
        <ele>73.680000000000007</ele>
        <time>2024-09-17T07:34:10Z</time>
      </trkpt>
      <trkpt lat="52.923948001116514" lon="13.544830977916718">
        <ele>73.680000000000007</ele>
        <time>2024-09-17T07:34:11Z</time>
      </trkpt>
      <trkpt lat="52.92385496199131" lon="13.54476903565228">
        <ele>74.159999999999997</ele>
        <time>2024-09-17T07:34:12Z</time>
      </trkpt>
      <trkpt lat="52.922966983169317" lon="13.54419001378119">
        <ele>74.640000000000001</ele>
        <time>2024-09-17T07:34:20Z</time>
      </trkpt>
      <trkpt lat="52.922401959076524" lon="13.543867981061339">
        <ele>74.640000000000001</ele>
        <time>2024-09-17T07:34:24Z</time>
      </trkpt>
      <trkpt lat="52.922266004607081" lon="13.543773014098406">
        <ele>74.159999999999997</ele>
        <time>2024-09-17T07:34:25Z</time>
      </trkpt>
      <trkpt lat="52.921990994364023" lon="13.543584002181888">
        <ele>73.680000000000007</ele>
        <time>2024-09-17T07:34:27Z</time>
      </trkpt>
      <trkpt lat="52.92185696773231" lon="13.543491968885064">
        <ele>73.200000000000003</ele>
        <time>2024-09-17T07:34:28Z</time>
      </trkpt>
      <trkpt lat="52.92159603908658" lon="13.543312009423971">
        <ele>73.680000000000007</ele>
        <time>2024-09-17T07:34:30Z</time>
      </trkpt>
      <trkpt lat="52.921475004404783" lon="13.543229028582573">
        <ele>73.680000000000007</ele>
        <time>2024-09-17T07:34:31Z</time>
      </trkpt>
      <trkpt lat="52.920447969809175" lon="13.542540036141872">
        <ele>75.599999999999994</ele>
        <time>2024-09-17T07:34:39Z</time>
      </trkpt>
      <trkpt lat="52.92032802477479" lon="13.542458983138204">
        <ele>76.560000000000002</ele>
        <time>2024-09-17T07:34:40Z</time>
      </trkpt>
      <trkpt lat="52.919342983514071" lon="13.541806032881141">
        <ele>77.519999999999996</ele>
        <time>2024-09-17T07:34:49Z</time>
      </trkpt>
      <trkpt lat="52.919166963547468" lon="13.541692038998008">
        <ele>77.040000000000006</ele>
        <time>2024-09-17T07:34:51Z</time>
      </trkpt>
      <trkpt lat="52.919087000191212" lon="13.541636969894171">
        <ele>76.560000000000002</ele>
        <time>2024-09-17T07:34:52Z</time>
      </trkpt>
      <trkpt lat="52.918467996641994" lon="13.541233967989683">
        <ele>73.680000000000007</ele>
        <time>2024-09-17T07:35:00Z</time>
      </trkpt>
      <trkpt lat="52.918317960575223" lon="13.541123997420073">
        <ele>72.239999999999995</ele>
        <time>2024-09-17T07:35:02Z</time>
      </trkpt>
      <trkpt lat="52.917888974770904" lon="13.540826020762324">
        <ele>69.349999999999994</ele>
        <time>2024-09-17T07:35:07Z</time>
      </trkpt>
      <trkpt lat="52.917796019464731" lon="13.540757037699223">
        <ele>68.870000000000005</ele>
        <time>2024-09-17T07:35:08Z</time>
      </trkpt>
      <trkpt lat="52.916873004287481" lon="13.540156977251172">
        <ele>65.510000000000005</ele>
        <time>2024-09-17T07:35:16Z</time>
      </trkpt>
      <trkpt lat="52.915972033515573" lon="13.539561023935676">
        <ele>59.740000000000002</ele>
        <time>2024-09-17T07:35:24Z</time>
      </trkpt>
      <trkpt lat="52.914977017790079" lon="13.538893992081285">
        <ele>57.82</ele>
        <time>2024-09-17T07:35:33Z</time>
      </trkpt>
      <trkpt lat="52.913767006248236" lon="13.538079019635916">
        <ele>56.859999999999999</ele>
        <time>2024-09-17T07:35:44Z</time>
      </trkpt>
      <trkpt lat="52.912660008296371" lon="13.53733797557652">
        <ele>59.259999999999998</ele>
        <time>2024-09-17T07:35:54Z</time>
      </trkpt>
      <trkpt lat="52.911288980394602" lon="13.536485033109784">
        <ele>59.259999999999998</ele>
        <time>2024-09-17T07:36:06Z</time>
      </trkpt>
      <trkpt lat="52.909871013835073" lon="13.536051018163562">
        <ele>59.740000000000002</ele>
        <time>2024-09-17T07:36:18Z</time>
      </trkpt>
      <trkpt lat="52.909195013344288" lon="13.535632006824017">
        <ele>58.299999999999997</ele>
        <time>2024-09-17T07:36:24Z</time>
      </trkpt>
      <trkpt lat="52.90909300558269" lon="13.535529999062419">
        <ele>58.299999999999997</ele>
        <time>2024-09-17T07:36:25Z</time>
      </trkpt>
      <trkpt lat="52.908990997821093" lon="13.535427991300821">
        <ele>57.82</ele>
        <time>2024-09-17T07:36:26Z</time>
      </trkpt>
      <trkpt lat="52.908886978402734" lon="13.535299999639392">
        <ele>57.82</ele>
        <time>2024-09-17T07:36:27Z</time>
      </trkpt>
      <trkpt lat="52.908810032531619" lon="13.53514501824975">
        <ele>57.82</ele>
        <time>2024-09-17T07:36:28Z</time>
      </trkpt>
      <trkpt lat="52.908734008669853" lon="13.534991964697838">
        <ele>57.82</ele>
        <time>2024-09-17T07:36:29Z</time>
      </trkpt>
      <trkpt lat="52.907976033166051" lon="13.53342798538506">
        <ele>58.299999999999997</ele>
        <time>2024-09-17T07:36:39Z</time>
      </trkpt>
      <trkpt lat="52.907322999089956" lon="13.532086964696646">
        <ele>58.299999999999997</ele>
        <time>2024-09-17T07:36:49Z</time>
      </trkpt>
      <trkpt lat="52.907238006591797" lon="13.531885966658592">
        <ele>57.82</ele>
        <time>2024-09-17T07:36:51Z</time>
      </trkpt>
      <trkpt lat="52.907187966629863" lon="13.531785970553756">
        <ele>57.340000000000003</ele>
        <time>2024-09-17T07:36:52Z</time>
      </trkpt>
      <trkpt lat="52.907129963859916" lon="13.531699972227216">
        <ele>56.859999999999999</ele>
        <time>2024-09-17T07:36:53Z</time>
      </trkpt>
      <trkpt lat="52.90700901299715" lon="13.531593019142747">
        <ele>56.369999999999997</ele>
        <time>2024-09-17T07:36:55Z</time>
      </trkpt>
      <trkpt lat="52.906950004398823" lon="13.531561000272632">
        <ele>56.369999999999997</ele>
        <time>2024-09-17T07:36:56Z</time>
      </trkpt>
      <trkpt lat="52.906884038820863" lon="13.531413981691003">
        <ele>55.890000000000001</ele>
        <time>2024-09-17T07:36:57Z</time>
      </trkpt>
      <trkpt lat="52.906875992193818" lon="13.531335024163127">
        <ele>55.890000000000001</ele>
        <time>2024-09-17T07:36:58Z</time>
      </trkpt>
      <trkpt lat="52.90692200884223" lon="13.531225975602865">
        <ele>55.409999999999997</ele>
        <time>2024-09-17T07:36:59Z</time>
      </trkpt>
      <trkpt lat="52.906957967206836" lon="13.531159004196525">
        <ele>55.409999999999997</ele>
        <time>2024-09-17T07:37:00Z</time>
      </trkpt>
      <trkpt lat="52.907285029068589" lon="13.530553998425603">
        <ele>53.490000000000002</ele>
        <time>2024-09-17T07:37:07Z</time>
      </trkpt>
      <trkpt lat="52.90731000714004" lon="13.530506975948811">
        <ele>53.490000000000002</ele>
        <time>2024-09-17T07:37:09Z</time>
      </trkpt>
      <trkpt lat="52.907327022403479" lon="13.530475962907076">
        <ele>53.490000000000002</ele>
        <time>2024-09-17T07:37:10Z</time>
      </trkpt>
      <trkpt lat="52.907040026038885" lon="13.530323999002576">
        <ele>52.530000000000001</ele>
        <time>2024-09-17T07:37:17Z</time>
      </trkpt>
      <trkpt lat="52.906905999407172" lon="13.53031100705266">
        <ele>51.57</ele>
        <time>2024-09-17T07:37:21Z</time>
      </trkpt>
      <trkpt lat="52.906873980537057" lon="13.530238000676036">
        <ele>51.57</ele>
        <time>2024-09-17T07:37:38Z</time>
      </trkpt>
      <trkpt lat="52.906860988587141" lon="13.530218973755836">
        <ele>51.090000000000003</ele>
        <time>2024-09-17T07:37:54Z</time>
      </trkpt>
      <trkpt lat="52.906833998858929" lon="13.530203970149159">
        <ele>51.090000000000003</ele>
        <time>2024-09-17T07:38:42Z</time>
      </trkpt>
      <trkpt lat="52.906824024394155" lon="13.530190978199244">
        <ele>50.609999999999999</ele>
        <time>2024-09-17T07:39:37Z</time>
      </trkpt>
      <trkpt lat="52.906824024394155" lon="13.530190978199244">
        <ele>50.609999999999999</ele>
        <time>2024-09-17T07:39:41Z</time>
      </trkpt>
      <trkpt lat="52.90662101469934" lon="13.530478980392218">
        <ele>51.57</ele>
        <time>2024-09-17T07:39:50Z</time>
      </trkpt>
      <trkpt lat="52.906613973900676" lon="13.530485015362501">
        <ele>51.57</ele>
        <time>2024-09-17T07:40:04Z</time>
      </trkpt>
      <trkpt lat="52.906595030799508" lon="13.530606972053647">
        <ele>51.090000000000003</ele>
        <time>2024-09-17T07:40:07Z</time>
      </trkpt>
      <trkpt lat="52.906602993607521" lon="13.530623987317085">
        <ele>51.090000000000003</ele>
        <time>2024-09-17T07:40:08Z</time>
      </trkpt>
      <trkpt lat="52.906639035791159" lon="13.530700011178851">
        <ele>51.090000000000003</ele>
        <time>2024-09-17T07:40:09Z</time>
      </trkpt>
      <trkpt lat="52.906685974448919" lon="13.530796989798546">
        <ele>50.609999999999999</ele>
        <time>2024-09-17T07:40:10Z</time>
      </trkpt>
      <trkpt lat="52.906786976382136" lon="13.531007962301373">
        <ele>50.609999999999999</ele>
        <time>2024-09-17T07:40:12Z</time>
      </trkpt>
      <trkpt lat="52.906830981373787" lon="13.531101001426578">
        <ele>50.130000000000003</ele>
        <time>2024-09-17T07:40:13Z</time>
      </trkpt>
      <trkpt lat="52.906853025779128" lon="13.531211977824569">
        <ele>50.130000000000003</ele>
        <time>2024-09-17T07:40:14Z</time>
      </trkpt>
      <trkpt lat="52.906869035214186" lon="13.531539039686322">
        <ele>49.159999999999997</ele>
        <time>2024-09-17T07:40:16Z</time>
      </trkpt>
      <trkpt lat="52.906701983883977" lon="13.531594024971128">
        <ele>48.68</ele>
        <time>2024-09-17T07:40:18Z</time>
      </trkpt>
      <trkpt lat="52.906424961984158" lon="13.531999038532376">
        <ele>47.240000000000002</ele>
        <time>2024-09-17T07:40:22Z</time>
      </trkpt>
      <trkpt lat="52.906360002234578" lon="13.532119989395142">
        <ele>47.240000000000002</ele>
        <time>2024-09-17T07:40:23Z</time>
      </trkpt>
      <trkpt lat="52.905604038387537" lon="13.533313991501927">
        <ele>48.68</ele>
        <time>2024-09-17T07:40:33Z</time>
      </trkpt>
      <trkpt lat="52.905383007600904" lon="13.533591013401747">
        <ele>48.68</ele>
        <time>2024-09-17T07:40:36Z</time>
      </trkpt>
      <trkpt lat="52.905306983739138" lon="13.533671982586384">
        <ele>48.200000000000003</ele>
        <time>2024-09-17T07:40:38Z</time>
      </trkpt>
      <trkpt lat="52.904541967436671" lon="13.534064004197717">
        <ele>49.159999999999997</ele>
        <time>2024-09-17T07:40:46Z</time>
      </trkpt>
      <trkpt lat="52.904137959703803" lon="13.534225020557642">
        <ele>48.68</ele>
        <time>2024-09-17T07:40:49Z</time>
      </trkpt>
      <trkpt lat="52.902888972312212" lon="13.534919964149594">
        <ele>47.240000000000002</ele>
        <time>2024-09-17T07:41:02Z</time>
      </trkpt>
      <trkpt lat="52.901785997673869" lon="13.535592025145888">
        <ele>48.200000000000003</ele>
        <time>2024-09-17T07:41:13Z</time>
      </trkpt>
      <trkpt lat="52.900769021362066" lon="13.535967031493783">
        <ele>45.799999999999997</ele>
        <time>2024-09-17T07:41:23Z</time>
      </trkpt>
      <trkpt lat="52.899366980418563" lon="13.536451002582908">
        <ele>46.280000000000001</ele>
        <time>2024-09-17T07:41:35Z</time>
      </trkpt>
      <trkpt lat="52.898769015446305" lon="13.536653006449342">
        <ele>46.280000000000001</ele>
        <time>2024-09-17T07:41:39Z</time>
      </trkpt>
      <trkpt lat="52.897606026381254" lon="13.537058020010591">
        <ele>48.200000000000003</ele>
        <time>2024-09-17T07:41:49Z</time>
      </trkpt>
      <trkpt lat="52.896069036796689" lon="13.537570992484689">
        <ele>53.009999999999998</ele>
        <time>2024-09-17T07:42:02Z</time>
      </trkpt>
      <trkpt lat="52.89501802995801" lon="13.538060998544097">
        <ele>53.969999999999999</ele>
        <time>2024-09-17T07:42:12Z</time>
      </trkpt>
      <trkpt lat="52.893690001219511" lon="13.539406964555383">
        <ele>53.009999999999998</ele>
        <time>2024-09-17T07:42:20Z</time>
      </trkpt>
      <trkpt lat="52.89175596088171" lon="13.541562035679817">
        <ele>51.57</ele>
        <time>2024-09-17T07:42:31Z</time>
      </trkpt>
      <trkpt lat="52.889895010739565" lon="13.543635969981551">
        <ele>48.200000000000003</ele>
        <time>2024-09-17T07:42:41Z</time>
      </trkpt>
      <trkpt lat="52.888956991955638" lon="13.544597961008549">
        <ele>45.799999999999997</ele>
        <time>2024-09-17T07:42:47Z</time>
      </trkpt>
      <trkpt lat="52.888369001448154" lon="13.545109005644917">
        <ele>45.799999999999997</ele>
        <time>2024-09-17T07:42:51Z</time>
      </trkpt>
      <trkpt lat="52.888203039765358" lon="13.545215036720037">
        <ele>46.280000000000001</ele>
        <time>2024-09-17T07:42:52Z</time>
      </trkpt>
      <trkpt lat="52.887205006554723" lon="13.545530028641224">
        <ele>46.280000000000001</ele>
        <time>2024-09-17T07:42:58Z</time>
      </trkpt>
      <trkpt lat="52.886846009641886" lon="13.545528016984463">
        <ele>46.759999999999998</ele>
        <time>2024-09-17T07:43:00Z</time>
      </trkpt>
      <trkpt lat="52.886485001072288" lon="13.545459033921361">
        <ele>46.280000000000001</ele>
        <time>2024-09-17T07:43:02Z</time>
      </trkpt>
      <trkpt lat="52.884389022365212" lon="13.5449009668082">
        <ele>47.240000000000002</ele>
        <time>2024-09-17T07:43:13Z</time>
      </trkpt>
      <trkpt lat="52.882623039186001" lon="13.544393023476005">
        <ele>47.719999999999999</ele>
        <time>2024-09-17T07:43:22Z</time>
      </trkpt>
      <trkpt lat="52.881031986325979" lon="13.543952973559499">
        <ele>49.159999999999997</ele>
        <time>2024-09-17T07:43:30Z</time>
      </trkpt>
      <trkpt lat="52.879844019189477" lon="13.543605962768197">
        <ele>52.530000000000001</ele>
        <time>2024-09-17T07:43:36Z</time>
      </trkpt>
      <trkpt lat="52.879646038636565" lon="13.543532034382224">
        <ele>53.009999999999998</ele>
        <time>2024-09-17T07:43:38Z</time>
      </trkpt>
      <trkpt lat="52.877263985574245" lon="13.542265025898814">
        <ele>52.530000000000001</ele>
        <time>2024-09-17T07:43:50Z</time>
      </trkpt>
      <trkpt lat="52.87508100271225" lon="13.541030958294868">
        <ele>51.090000000000003</ele>
        <time>2024-09-17T07:43:58Z</time>
      </trkpt>
      <trkpt lat="52.87254698574543" lon="13.539598993957043">
        <ele>50.609999999999999</ele>
        <time>2024-09-17T07:44:07Z</time>
      </trkpt>
      <trkpt lat="52.870749989524484" lon="13.538600038737059">
        <ele>48.68</ele>
        <time>2024-09-17T07:44:15Z</time>
      </trkpt>
      <trkpt lat="52.869616001844406" lon="13.537969971075654">
        <ele>48.200000000000003</ele>
        <time>2024-09-17T07:44:22Z</time>
      </trkpt>
      <trkpt lat="52.869336968287826" lon="13.53780803270638">
        <ele>48.200000000000003</ele>
        <time>2024-09-17T07:44:25Z</time>
      </trkpt>
      <trkpt lat="52.867923025041819" lon="13.536956012248993">
        <ele>49.649999999999999</ele>
        <time>2024-09-17T07:44:34Z</time>
      </trkpt>
      <trkpt lat="52.867759997025132" lon="13.536860961467028">
        <ele>50.609999999999999</ele>
        <time>2024-09-17T07:44:35Z</time>
      </trkpt>
      <trkpt lat="52.867595041170716" lon="13.536769011989236">
        <ele>51.57</ele>
        <time>2024-09-17T07:44:36Z</time>
      </trkpt>
      <trkpt lat="52.86614497192204" lon="13.53596200235188">
        <ele>55.890000000000001</ele>
        <time>2024-09-17T07:44:44Z</time>
      </trkpt>
      <trkpt lat="52.86397104151547" lon="13.534751990810037">
        <ele>59.259999999999998</ele>
        <time>2024-09-17T07:44:54Z</time>
      </trkpt>
      <trkpt lat="52.861511036753654" lon="13.533381968736649">
        <ele>60.700000000000003</ele>
        <time>2024-09-17T07:45:05Z</time>
      </trkpt>
      <trkpt lat="52.860180996358395" lon="13.532627010717988">
        <ele>58.780000000000001</ele>
        <time>2024-09-17T07:45:12Z</time>
      </trkpt>
      <trkpt lat="52.859315983951092" lon="13.532139016315341">
        <ele>56.859999999999999</ele>
        <time>2024-09-17T07:45:20Z</time>
      </trkpt>
      <trkpt lat="52.858812985941768" lon="13.531867023557425">
        <ele>55.409999999999997</ele>
        <time>2024-09-17T07:45:28Z</time>
      </trkpt>
      <trkpt lat="52.858793959021568" lon="13.531855959445238">
        <ele>54.450000000000003</ele>
        <time>2024-09-17T07:45:38Z</time>
      </trkpt>
      <trkpt lat="52.858606958761811" lon="13.531743977218866">
        <ele>53.009999999999998</ele>
        <time>2024-09-17T07:45:48Z</time>
      </trkpt>
      <trkpt lat="52.858186019584537" lon="13.5315159894526">
        <ele>50.609999999999999</ele>
        <time>2024-09-17T07:45:56Z</time>
      </trkpt>
      <trkpt lat="52.858015028759837" lon="13.531422028318048">
        <ele>48.200000000000003</ele>
        <time>2024-09-17T07:46:01Z</time>
      </trkpt>
      <trkpt lat="52.858015028759837" lon="13.531422028318048">
        <ele>47.240000000000002</ele>
        <time>2024-09-17T07:46:03Z</time>
      </trkpt>
      <trkpt lat="52.8580860234797" lon="13.531461004167795">
        <ele>44.840000000000003</ele>
        <time>2024-09-17T07:46:07Z</time>
      </trkpt>
      <trkpt lat="52.858329014852643" lon="13.531595030799508">
        <ele>41.950000000000003</ele>
        <time>2024-09-17T07:46:12Z</time>
      </trkpt>
      <trkpt lat="52.858391962945461" lon="13.531629983335733">
        <ele>41.950000000000003</ele>
        <time>2024-09-17T07:46:13Z</time>
      </trkpt>
      <trkpt lat="52.858444014564157" lon="13.531658984720707">
        <ele>41.469999999999999</ele>
        <time>2024-09-17T07:46:14Z</time>
      </trkpt>
      <trkpt lat="52.858491959050298" lon="13.531683040782809">
        <ele>40.990000000000002</ele>
        <time>2024-09-17T07:46:15Z</time>
      </trkpt>
      <trkpt lat="52.858524983748794" lon="13.531869035214186">
        <ele>40.509999999999998</ele>
        <time>2024-09-17T07:46:16Z</time>
      </trkpt>
      <trkpt lat="52.858492964878678" lon="13.531969031319022">
        <ele>40.509999999999998</ele>
        <time>2024-09-17T07:46:17Z</time>
      </trkpt>
      <trkpt lat="52.85845298320055" lon="13.532089982181787">
        <ele>40.509999999999998</ele>
        <time>2024-09-17T07:46:18Z</time>
      </trkpt>
      <trkpt lat="52.858411995694041" lon="13.532218979671597">
        <ele>40.509999999999998</ele>
        <time>2024-09-17T07:46:19Z</time>
      </trkpt>
      <trkpt lat="52.85812902264297" lon="13.533054990693927">
        <ele>40.509999999999998</ele>
        <time>2024-09-17T07:46:27Z</time>
      </trkpt>
      <trkpt lat="52.857729038223624" lon="13.533009979873896">
        <ele>40.030000000000001</ele>
        <time>2024-09-17T07:46:35Z</time>
      </trkpt>
      <trkpt lat="52.85769802518189" lon="13.533121962100267">
        <ele>39.549999999999997</ele>
        <time>2024-09-17T07:46:37Z</time>
      </trkpt>
      <trkpt lat="52.857680004090071" lon="13.533269986510277">
        <ele>40.030000000000001</ele>
        <time>2024-09-17T07:46:47Z</time>
      </trkpt>
      <trkpt lat="52.857680004090071" lon="13.533269986510277">
        <ele>40.030000000000001</ele>
        <time>2024-09-17T07:47:02Z</time>
      </trkpt>
      <trkpt lat="52.857656031847" lon="13.533277027308941">
        <ele>37.630000000000003</ele>
        <time>2024-09-17T08:12:12Z</time>
      </trkpt>
      <trkpt lat="52.857683021575212" lon="13.533270992338657">
        <ele>36.670000000000002</ele>
        <time>2024-09-17T08:13:04Z</time>
      </trkpt>
      <trkpt lat="52.857684027403593" lon="13.533271998167038">
        <ele>36.670000000000002</ele>
        <time>2024-09-17T08:13:56Z</time>
      </trkpt>
      <trkpt lat="52.857683021575212" lon="13.533279038965702">
        <ele>36.670000000000002</ele>
        <time>2024-09-17T08:14:33Z</time>
      </trkpt>
      <trkpt lat="52.857676986604929" lon="13.533277027308941">
        <ele>36.670000000000002</ele>
        <time>2024-09-17T08:15:26Z</time>
      </trkpt>
      <trkpt lat="52.85767899826169" lon="13.53327501565218">
        <ele>36.670000000000002</ele>
        <time>2024-09-17T08:16:18Z</time>
      </trkpt>
      <trkpt lat="52.85767899826169" lon="13.53327501565218">
        <ele>36.670000000000002</ele>
        <time>2024-09-17T08:16:31Z</time>
      </trkpt>
      <trkpt lat="52.85804201848805" lon="13.533377023413777">
        <ele>35.710000000000001</ele>
        <time>2024-09-17T08:16:39Z</time>
      </trkpt>
      <trkpt lat="52.858059033751488" lon="13.533314997330308">
        <ele>35.710000000000001</ele>
        <time>2024-09-17T08:16:40Z</time>
      </trkpt>
      <trkpt lat="52.858080994337797" lon="13.53312598541379">
        <ele>34.740000000000002</ele>
        <time>2024-09-17T08:16:49Z</time>
      </trkpt>
      <trkpt lat="52.858080994337797" lon="13.53312598541379">
        <ele>34.740000000000002</ele>
        <time>2024-09-17T08:16:56Z</time>
      </trkpt>
      <trkpt lat="52.858015028759837" lon="13.533482970669866">
        <ele>35.229999999999997</ele>
        <time>2024-09-17T08:16:59Z</time>
      </trkpt>
      <trkpt lat="52.858015028759837" lon="13.533482970669866">
        <ele>35.229999999999997</ele>
        <time>2024-09-17T08:17:00Z</time>
      </trkpt>
      <trkpt lat="52.858015028759837" lon="13.533482970669866">
        <ele>35.229999999999997</ele>
        <time>2024-09-17T08:17:01Z</time>
      </trkpt>
      <trkpt lat="52.858008993789554" lon="13.53351297788322">
        <ele>35.229999999999997</ele>
        <time>2024-09-17T08:17:02Z</time>
      </trkpt>
      <trkpt lat="52.8579789865762" lon="13.533677011728287">
        <ele>35.229999999999997</ele>
        <time>2024-09-17T08:17:03Z</time>
      </trkpt>
      <trkpt lat="52.857675980776548" lon="13.535358002409339">
        <ele>35.229999999999997</ele>
        <time>2024-09-17T08:17:11Z</time>
      </trkpt>
      <trkpt lat="52.857534997165203" lon="13.537848014384508">
        <ele>36.189999999999998</ele>
        <time>2024-09-17T08:17:20Z</time>
      </trkpt>
      <trkpt lat="52.857427038252354" lon="13.541413005441427">
        <ele>38.590000000000003</ele>
        <time>2024-09-17T08:17:31Z</time>
      </trkpt>
      <trkpt lat="52.857301980257034" lon="13.545487029477954">
        <ele>39.549999999999997</ele>
        <time>2024-09-17T08:17:43Z</time>
      </trkpt>
      <trkpt lat="52.856972990557551" lon="13.549231979995966">
        <ele>39.07</ele>
        <time>2024-09-17T08:17:54Z</time>
      </trkpt>
      <trkpt lat="52.856262037530541" lon="13.553327964618802">
        <ele>40.509999999999998</ele>
        <time>2024-09-17T08:18:06Z</time>
      </trkpt>
      <trkpt lat="52.855625012889504" lon="13.556956993415952">
        <ele>43.880000000000003</ele>
        <time>2024-09-17T08:18:16Z</time>
      </trkpt>
      <trkpt lat="52.854987988248467" lon="13.560572024434805">
        <ele>42.439999999999998</ele>
        <time>2024-09-17T08:18:26Z</time>
      </trkpt>
      <trkpt lat="52.854215009137988" lon="13.564872024580836">
        <ele>42.439999999999998</ele>
        <time>2024-09-17T08:18:37Z</time>
      </trkpt>
      <trkpt lat="52.853314960375428" lon="13.569868979975581">
        <ele>42.920000000000002</ele>
        <time>2024-09-17T08:18:49Z</time>
      </trkpt>
      <trkpt lat="52.852486995980144" lon="13.574514985084534">
        <ele>43.399999999999999</ele>
        <time>2024-09-17T08:19:00Z</time>
      </trkpt>
      <trkpt lat="52.852004030719399" lon="13.57725603505969">
        <ele>41.950000000000003</ele>
        <time>2024-09-17T08:19:06Z</time>
      </trkpt>
      <trkpt lat="52.851334987208247" lon="13.580916998907924">
        <ele>40.030000000000001</ele>
        <time>2024-09-17T08:19:14Z</time>
      </trkpt>
      <trkpt lat="52.850659992545843" lon="13.584906030446291">
        <ele>39.07</ele>
        <time>2024-09-17T08:19:23Z</time>
      </trkpt>
      <trkpt lat="52.850570976734161" lon="13.587549012154341">
        <ele>39.07</ele>
        <time>2024-09-17T08:19:29Z</time>
      </trkpt>
      <trkpt lat="52.850842969492078" lon="13.590746959671378">
        <ele>40.030000000000001</ele>
        <time>2024-09-17T08:19:36Z</time>
      </trkpt>
      <trkpt lat="52.85129701718688" lon="13.595906021073461">
        <ele>40.030000000000001</ele>
        <time>2024-09-17T08:19:47Z</time>
      </trkpt>
      <trkpt lat="52.851803032681346" lon="13.60157897695899">
        <ele>37.149999999999999</ele>
        <time>2024-09-17T08:19:59Z</time>
      </trkpt>
      <trkpt lat="52.852201005443931" lon="13.606039993464947">
        <ele>35.710000000000001</ele>
        <time>2024-09-17T08:20:09Z</time>
      </trkpt>
      <trkpt lat="52.852451959624887" lon="13.608757993206382">
        <ele>34.259999999999998</ele>
        <time>2024-09-17T08:20:16Z</time>
      </trkpt>
      <trkpt lat="52.852787990123034" lon="13.611512035131454">
        <ele>28.5</ele>
        <time>2024-09-17T08:20:25Z</time>
      </trkpt>
      <trkpt lat="52.852937020361423" lon="13.612049985677004">
        <ele>27.050000000000001</ele>
        <time>2024-09-17T08:20:27Z</time>
      </trkpt>
      <trkpt lat="52.853040033951402" lon="13.61229901202023">
        <ele>26.09</ele>
        <time>2024-09-17T08:20:28Z</time>
      </trkpt>
      <trkpt lat="52.853147992864251" lon="13.61253404058516">
        <ele>25.609999999999999</ele>
        <time>2024-09-17T08:20:29Z</time>
      </trkpt>
      <trkpt lat="52.853269027546048" lon="13.612755993381143">
        <ele>25.129999999999999</ele>
        <time>2024-09-17T08:20:30Z</time>
      </trkpt>
      <trkpt lat="52.853400036692619" lon="13.612970989197493">
        <ele>24.649999999999999</ele>
        <time>2024-09-17T08:20:31Z</time>
      </trkpt>
      <trkpt lat="52.853549988940358" lon="13.613162012770772">
        <ele>24.170000000000002</ele>
        <time>2024-09-17T08:20:32Z</time>
      </trkpt>
      <trkpt lat="52.854728987440467" lon="13.614356014877558">
        <ele>20.32</ele>
        <time>2024-09-17T08:20:39Z</time>
      </trkpt>
      <trkpt lat="52.85638902336359" lon="13.61597103998065">
        <ele>18.399999999999999</ele>
        <time>2024-09-17T08:20:49Z</time>
      </trkpt>
      <trkpt lat="52.8571190033108" lon="13.617161018773913">
        <ele>18.879999999999999</ele>
        <time>2024-09-17T08:20:55Z</time>
      </trkpt>
      <trkpt lat="52.857295023277402" lon="13.61767197959125">
        <ele>19.359999999999999</ele>
        <time>2024-09-17T08:20:57Z</time>
      </trkpt>
      <trkpt lat="52.857353026047349" lon="13.61796903423965">
        <ele>19.84</ele>
        <time>2024-09-17T08:20:58Z</time>
      </trkpt>
      <trkpt lat="52.857881002128124" lon="13.620960032567382">
        <ele>18.879999999999999</ele>
        <time>2024-09-17T08:21:07Z</time>
      </trkpt>
      <trkpt lat="52.858036989346147" lon="13.621971979737282">
        <ele>16.960000000000001</ele>
        <time>2024-09-17T08:21:10Z</time>
      </trkpt>
      <trkpt lat="52.85804201848805" lon="13.622294012457132">
        <ele>16.960000000000001</ele>
        <time>2024-09-17T08:21:11Z</time>
      </trkpt>
      <trkpt lat="52.857941016554832" lon="13.624397031962872">
        <ele>16.960000000000001</ele>
        <time>2024-09-17T08:21:18Z</time>
      </trkpt>
      <trkpt lat="52.857648991048336" lon="13.626762991771102">
        <ele>19.359999999999999</ele>
        <time>2024-09-17T08:21:24Z</time>
      </trkpt>
      <trkpt lat="52.857113974168897" lon="13.630745988339186">
        <ele>25.609999999999999</ele>
        <time>2024-09-17T08:21:33Z</time>
      </trkpt>
      <trkpt lat="52.856837958097458" lon="13.632791005074978">
        <ele>28.02</ele>
        <time>2024-09-17T08:21:39Z</time>
      </trkpt>
      <trkpt lat="52.85647401586175" lon="13.635485032573342">
        <ele>31.379999999999999</ele>
        <time>2024-09-17T08:21:45Z</time>
      </trkpt>
      <trkpt lat="52.856119964271784" lon="13.638004967942834">
        <ele>33.299999999999997</ele>
        <time>2024-09-17T08:21:51Z</time>
      </trkpt>
      <trkpt lat="52.855751998722553" lon="13.640430020168424">
        <ele>38.109999999999999</ele>
        <time>2024-09-17T08:22:00Z</time>
      </trkpt>
      <trkpt lat="52.855259981006384" lon="13.64311097189784">
        <ele>44.840000000000003</ele>
        <time>2024-09-17T08:22:10Z</time>
      </trkpt>
      <trkpt lat="52.855225028470159" lon="13.64332496188581">
        <ele>45.32</ele>
        <time>2024-09-17T08:22:11Z</time>
      </trkpt>
      <trkpt lat="52.855235002934933" lon="13.643640037626028">
        <ele>45.799999999999997</ele>
        <time>2024-09-17T08:22:12Z</time>
      </trkpt>
      <trkpt lat="52.855242965742946" lon="13.643901972100139">
        <ele>45.799999999999997</ele>
        <time>2024-09-17T08:22:13Z</time>
      </trkpt>
      <trkpt lat="52.85527003929019" lon="13.644144041463733">
        <ele>46.280000000000001</ele>
        <time>2024-09-17T08:22:14Z</time>
      </trkpt>
      <trkpt lat="52.85531303845346" lon="13.644387032836676">
        <ele>46.759999999999998</ele>
        <time>2024-09-17T08:22:15Z</time>
      </trkpt>
      <trkpt lat="52.85570003092289" lon="13.646346973255277">
        <ele>46.759999999999998</ele>
        <time>2024-09-17T08:22:23Z</time>
      </trkpt>
      <trkpt lat="52.855987027287483" lon="13.647764017805457">
        <ele>46.759999999999998</ele>
        <time>2024-09-17T08:22:29Z</time>
      </trkpt>
      <trkpt lat="52.856021979823709" lon="13.6480070091784">
        <ele>46.280000000000001</ele>
        <time>2024-09-17T08:22:30Z</time>
      </trkpt>
      <trkpt lat="52.856035977602005" lon="13.648266009986401">
        <ele>46.280000000000001</ele>
        <time>2024-09-17T08:22:31Z</time>
      </trkpt>
      <trkpt lat="52.856028014793992" lon="13.648512018844485">
        <ele>45.799999999999997</ele>
        <time>2024-09-17T08:22:32Z</time>
      </trkpt>
      <trkpt lat="52.856017034500837" lon="13.648762973025441">
        <ele>45.799999999999997</ele>
        <time>2024-09-17T08:22:33Z</time>
      </trkpt>
      <trkpt lat="52.855975963175297" lon="13.648967994377017">
        <ele>45.799999999999997</ele>
        <time>2024-09-17T08:22:34Z</time>
      </trkpt>
      <trkpt lat="52.855891976505518" lon="13.649193970486522">
        <ele>45.32</ele>
        <time>2024-09-17T08:22:35Z</time>
      </trkpt>
      <trkpt lat="52.855813018977642" lon="13.64940301515162">
        <ele>45.32</ele>
        <time>2024-09-17T08:22:36Z</time>
      </trkpt>
      <trkpt lat="52.855734983459115" lon="13.649609964340925">
        <ele>45.32</ele>
        <time>2024-09-17T08:22:37Z</time>
      </trkpt>
      <trkpt lat="52.855640016496181" lon="13.649780033156276">
        <ele>45.32</ele>
        <time>2024-09-17T08:22:38Z</time>
      </trkpt>
      <trkpt lat="52.855539014562964" lon="13.64994197152555">
        <ele>45.799999999999997</ele>
        <time>2024-09-17T08:22:39Z</time>
      </trkpt>
      <trkpt lat="52.854632008820772" lon="13.65151097998023">
        <ele>44.359999999999999</ele>
        <time>2024-09-17T08:22:48Z</time>
      </trkpt>
      <trkpt lat="52.854537041857839" lon="13.651712983846664">
        <ele>43.880000000000003</ele>
        <time>2024-09-17T08:22:49Z</time>
      </trkpt>
      <trkpt lat="52.854461017996073" lon="13.651938959956169">
        <ele>43.399999999999999</ele>
        <time>2024-09-17T08:22:50Z</time>
      </trkpt>
      <trkpt lat="52.854401003569365" lon="13.652178011834621">
        <ele>42.920000000000002</ele>
        <time>2024-09-17T08:22:51Z</time>
      </trkpt>
      <trkpt lat="52.854343000799417" lon="13.652424020692706">
        <ele>42.439999999999998</ele>
        <time>2024-09-17T08:22:52Z</time>
      </trkpt>
      <trkpt lat="52.854319028556347" lon="13.652686960995197">
        <ele>41.950000000000003</ele>
        <time>2024-09-17T08:22:53Z</time>
      </trkpt>
      <trkpt lat="52.854100009426475" lon="13.655042024329305">
        <ele>35.229999999999997</ele>
        <time>2024-09-17T08:23:02Z</time>
      </trkpt>
      <trkpt lat="52.853827010840178" lon="13.65713900886476">
        <ele>33.780000000000001</ele>
        <time>2024-09-17T08:23:10Z</time>
      </trkpt>
      <trkpt lat="52.853315966203809" lon="13.659843010827899">
        <ele>34.740000000000002</ele>
        <time>2024-09-17T08:23:20Z</time>
      </trkpt>
      <trkpt lat="52.852975996211171" lon="13.661934966221452">
        <ele>32.82</ele>
        <time>2024-09-17T08:23:28Z</time>
      </trkpt>
      <trkpt lat="52.852619010955095" lon="13.664029017090797">
        <ele>32.340000000000003</ele>
        <time>2024-09-17T08:23:38Z</time>
      </trkpt>
      <trkpt lat="52.85256402567029" lon="13.664332022890449">
        <ele>32.340000000000003</ele>
        <time>2024-09-17T08:23:40Z</time>
      </trkpt>
      <trkpt lat="52.852542987093329" lon="13.664451967924833">
        <ele>32.82</ele>
        <time>2024-09-17T08:23:41Z</time>
      </trkpt>
      <trkpt lat="52.852455982938409" lon="13.66457199677825">
        <ele>32.82</ele>
        <time>2024-09-17T08:23:42Z</time>
      </trkpt>
      <trkpt lat="52.852396974340081" lon="13.664576020091772">
        <ele>32.82</ele>
        <time>2024-09-17T08:23:43Z</time>
      </trkpt>
      <trkpt lat="52.852322962135077" lon="13.664580965414643">
        <ele>32.82</ele>
        <time>2024-09-17T08:23:44Z</time>
      </trkpt>
      <trkpt lat="52.852235035970807" lon="13.664587000384927">
        <ele>32.82</ele>
        <time>2024-09-17T08:23:45Z</time>
      </trkpt>
      <trkpt lat="52.852132022380829" lon="13.66463603451848">
        <ele>32.340000000000003</ele>
        <time>2024-09-17T08:23:46Z</time>
      </trkpt>
      <trkpt lat="52.852022973820567" lon="13.664710968732834">
        <ele>32.82</ele>
        <time>2024-09-17T08:23:47Z</time>
      </trkpt>
      <trkpt lat="52.851354014128447" lon="13.66517398506403">
        <ele>31.859999999999999</ele>
        <time>2024-09-17T08:23:52Z</time>
      </trkpt>
      <trkpt lat="52.851192997768521" lon="13.665282027795911">
        <ele>30.899999999999999</ele>
        <time>2024-09-17T08:23:53Z</time>
      </trkpt>
      <trkpt lat="52.849905034527183" lon="13.666147040203214">
        <ele>28.5</ele>
        <time>2024-09-17T08:24:00Z</time>
      </trkpt>
      <trkpt lat="52.849719962105155" lon="13.666271008551121">
        <ele>28.5</ele>
        <time>2024-09-17T08:24:01Z</time>
      </trkpt>
      <trkpt lat="52.84953698515892" lon="13.666294980794191">
        <ele>28.02</ele>
        <time>2024-09-17T08:24:02Z</time>
      </trkpt>
      <trkpt lat="52.849348979070783" lon="13.666278971359134">
        <ele>28.02</ele>
        <time>2024-09-17T08:24:03Z</time>
      </trkpt>
      <trkpt lat="52.849152004346251" lon="13.666262039914727">
        <ele>28.5</ele>
        <time>2024-09-17T08:24:04Z</time>
      </trkpt>
      <trkpt lat="52.848916975781322" lon="13.666241001337767">
        <ele>28.5</ele>
        <time>2024-09-17T08:24:05Z</time>
      </trkpt>
      <trkpt lat="52.848728969693184" lon="13.66616296581924">
        <ele>28.5</ele>
        <time>2024-09-17T08:24:06Z</time>
      </trkpt>
      <trkpt lat="52.847060970962048" lon="13.665469028055668">
        <ele>31.859999999999999</ele>
        <time>2024-09-17T08:24:13Z</time>
      </trkpt>
      <trkpt lat="52.844349006190896" lon="13.664627987891436">
        <ele>36.189999999999998</ele>
        <time>2024-09-17T08:24:23Z</time>
      </trkpt>
      <trkpt lat="52.842195024713874" lon="13.663983000442386">
        <ele>36.670000000000002</ele>
        <time>2024-09-17T08:24:31Z</time>
      </trkpt>
      <trkpt lat="52.839052984490991" lon="13.66302796639502">
        <ele>38.590000000000003</ele>
        <time>2024-09-17T08:24:42Z</time>
      </trkpt>
      <trkpt lat="52.836829014122486" lon="13.662063041701913">
        <ele>38.109999999999999</ele>
        <time>2024-09-17T08:24:50Z</time>
      </trkpt>
      <trkpt lat="52.835185993462801" lon="13.661103984341025">
        <ele>33.780000000000001</ele>
        <time>2024-09-17T08:24:56Z</time>
      </trkpt>
      <trkpt lat="52.833308028057218" lon="13.659776961430907">
        <ele>27.530000000000001</ele>
        <time>2024-09-17T08:25:03Z</time>
      </trkpt>
      <trkpt lat="52.831022031605244" lon="13.657709984108806">
        <ele>16</ele>
        <time>2024-09-17T08:25:12Z</time>
      </trkpt>
      <trkpt lat="52.828515004366636" lon="13.655082006007433">
        <ele>9.75</ele>
        <time>2024-09-17T08:25:22Z</time>
      </trkpt>
      <trkpt lat="52.827033000066876" lon="13.653493970632553">
        <ele>5.42</ele>
        <time>2024-09-17T08:25:28Z</time>
      </trkpt>
      <trkpt lat="52.824564026668668" lon="13.65084202028811">
        <ele>1.1</ele>
        <time>2024-09-17T08:25:38Z</time>
      </trkpt>
      <trkpt lat="52.821312015876174" lon="13.64727501757443">
        <ele>3.98</ele>
        <time>2024-09-17T08:25:51Z</time>
      </trkpt>
      <trkpt lat="52.819124003872275" lon="13.644575038924813">
        <ele>7.35</ele>
        <time>2024-09-17T08:26:00Z</time>
      </trkpt>
      <trkpt lat="52.817519959062338" lon="13.642364982515574">
        <ele>5.91</ele>
        <time>2024-09-17T08:26:07Z</time>
      </trkpt>
      <trkpt lat="52.814668016508222" lon="13.637879993766546">
        <ele>6.87</ele>
        <time>2024-09-17T08:26:20Z</time>
      </trkpt>
      <trkpt lat="52.812657030299306" lon="13.634106041863561">
        <ele>12.15</ele>
        <time>2024-09-17T08:26:30Z</time>
      </trkpt>
      <trkpt lat="52.810778981074691" lon="13.630241984501481">
        <ele>16.48</ele>
        <time>2024-09-17T08:26:40Z</time>
      </trkpt>
      <trkpt lat="52.808360969647765" lon="13.625209992751479">
        <ele>19.84</ele>
        <time>2024-09-17T08:26:53Z</time>
      </trkpt>
      <trkpt lat="52.806874020025134" lon="13.622113969177008">
        <ele>21.77</ele>
        <time>2024-09-17T08:27:01Z</time>
      </trkpt>
      <trkpt lat="52.805196968838573" lon="13.618631958961487">
        <ele>23.690000000000001</ele>
        <time>2024-09-17T08:27:10Z</time>
      </trkpt>
      <trkpt lat="52.803704990074039" lon="13.615546999499202">
        <ele>24.170000000000002</ele>
        <time>2024-09-17T08:27:18Z</time>
      </trkpt>
      <trkpt lat="52.801282033324242" lon="13.61053504049778">
        <ele>27.530000000000001</ele>
        <time>2024-09-17T08:27:31Z</time>
      </trkpt>
      <trkpt lat="52.799431979656219" lon="13.606685986742377">
        <ele>30.899999999999999</ele>
        <time>2024-09-17T08:27:41Z</time>
      </trkpt>
      <trkpt lat="52.797575974836946" lon="13.602821007370949">
        <ele>34.259999999999998</ele>
        <time>2024-09-17T08:27:51Z</time>
      </trkpt>
      <trkpt lat="52.795271035283804" lon="13.59829000197351">
        <ele>38.590000000000003</ele>
        <time>2024-09-17T08:28:03Z</time>
      </trkpt>
      <trkpt lat="52.792975986376405" lon="13.59438001178205">
        <ele>36.189999999999998</ele>
        <time>2024-09-17T08:28:14Z</time>
      </trkpt>
      <trkpt lat="52.791037000715733" lon="13.591347020119429">
        <ele>35.229999999999997</ele>
        <time>2024-09-17T08:28:23Z</time>
      </trkpt>
      <trkpt lat="52.788843959569931" lon="13.587965006008744">
        <ele>39.549999999999997</ele>
        <time>2024-09-17T08:28:33Z</time>
      </trkpt>
      <trkpt lat="52.786458972841501" lon="13.584284009411931">
        <ele>38.109999999999999</ele>
        <time>2024-09-17T08:28:44Z</time>
      </trkpt>
      <trkpt lat="52.784290993586183" lon="13.580928985029459">
        <ele>43.880000000000003</ele>
        <time>2024-09-17T08:28:54Z</time>
      </trkpt>
      <trkpt lat="52.781006963923573" lon="13.575856005772948">
        <ele>52.049999999999997</ele>
        <time>2024-09-17T08:29:09Z</time>
      </trkpt>
      <trkpt lat="52.778396001085639" lon="13.571817018091679">
        <ele>53.490000000000002</ele>
        <time>2024-09-17T08:29:21Z</time>
      </trkpt>
      <trkpt lat="52.774908961728215" lon="13.566456958651543">
        <ele>51.090000000000003</ele>
        <time>2024-09-17T08:29:37Z</time>
      </trkpt>
      <trkpt lat="52.772103035822511" lon="13.562113959342241">
        <ele>53.969999999999999</ele>
        <time>2024-09-17T08:29:50Z</time>
      </trkpt>
      <trkpt lat="52.769243968650699" lon="13.557715974748135">
        <ele>59.259999999999998</ele>
        <time>2024-09-17T08:30:03Z</time>
      </trkpt>
      <trkpt lat="52.76662303134799" lon="13.553696013987064">
        <ele>57.82</ele>
        <time>2024-09-17T08:30:15Z</time>
      </trkpt>
      <trkpt lat="52.764058001339436" lon="13.550349036231637">
        <ele>52.530000000000001</ele>
        <time>2024-09-17T08:30:26Z</time>
      </trkpt>
      <trkpt lat="52.761536976322532" lon="13.547775959596038">
        <ele>48.68</ele>
        <time>2024-09-17T08:30:36Z</time>
      </trkpt>
      <trkpt lat="52.758576991036534" lon="13.545505972579122">
        <ele>49.649999999999999</ele>
        <time>2024-09-17T08:30:47Z</time>
      </trkpt>
      <trkpt lat="52.755743991583586" lon="13.543919026851654">
        <ele>51.57</ele>
        <time>2024-09-17T08:30:57Z</time>
      </trkpt>
      <trkpt lat="52.753705009818077" lon="13.543150993064046">
        <ele>52.530000000000001</ele>
        <time>2024-09-17T08:31:04Z</time>
      </trkpt>
      <trkpt lat="52.75104995816946" lon="13.542512040585279">
        <ele>53.009999999999998</ele>
        <time>2024-09-17T08:31:13Z</time>
      </trkpt>
      <trkpt lat="52.748666983097792" lon="13.54214902035892">
        <ele>55.890000000000001</ele>
        <time>2024-09-17T08:31:21Z</time>
      </trkpt>
      <trkpt lat="52.745695011690259" lon="13.541730009019375">
        <ele>64.069999999999993</ele>
        <time>2024-09-17T08:31:31Z</time>
      </trkpt>
      <trkpt lat="52.741819974035025" lon="13.541179988533258">
        <ele>67.430000000000007</ele>
        <time>2024-09-17T08:31:44Z</time>
      </trkpt>
      <trkpt lat="52.739426018670201" lon="13.540840018540621">
        <ele>65.030000000000001</ele>
        <time>2024-09-17T08:31:52Z</time>
      </trkpt>
      <trkpt lat="52.736748000606894" lon="13.540457971394062">
        <ele>63.100000000000001</ele>
        <time>2024-09-17T08:32:01Z</time>
      </trkpt>
      <trkpt lat="52.733484003692865" lon="13.540156977251172">
        <ele>64.549999999999997</ele>
        <time>2024-09-17T08:32:12Z</time>
      </trkpt>
      <trkpt lat="52.730202991515398" lon="13.54008799418807">
        <ele>65.989999999999995</ele>
        <time>2024-09-17T08:32:23Z</time>
      </trkpt>
      <trkpt lat="52.728110030293465" lon="13.540340960025787">
        <ele>67.909999999999997</ele>
        <time>2024-09-17T08:32:30Z</time>
      </trkpt>
      <trkpt lat="52.725447015836835" lon="13.540858961641788">
        <ele>69.349999999999994</ele>
        <time>2024-09-17T08:32:39Z</time>
      </trkpt>
      <trkpt lat="52.72163400426507" lon="13.542006025090814">
        <ele>70.790000000000006</ele>
        <time>2024-09-17T08:32:52Z</time>
      </trkpt>
      <trkpt lat="52.717890981584787" lon="13.543716017156839">
        <ele>70.310000000000002</ele>
        <time>2024-09-17T08:33:05Z</time>
      </trkpt>
      <trkpt lat="52.713917037472129" lon="13.545821970328689">
        <ele>70.790000000000006</ele>
        <time>2024-09-17T08:33:19Z</time>
      </trkpt>
      <trkpt lat="52.709947032853961" lon="13.547987015917897">
        <ele>66.950000000000003</ele>
        <time>2024-09-17T08:33:33Z</time>
      </trkpt>
      <trkpt lat="52.706277016550303" lon="13.549986016005278">
        <ele>61.18</ele>
        <time>2024-09-17T08:33:46Z</time>
      </trkpt>
      <trkpt lat="52.703150985762477" lon="13.551662983372808">
        <ele>63.579999999999998</ele>
        <time>2024-09-17T08:33:57Z</time>
      </trkpt>
      <trkpt lat="52.700013974681497" lon="13.553330982103944">
        <ele>65.030000000000001</ele>
        <time>2024-09-17T08:34:08Z</time>
      </trkpt>
      <trkpt lat="52.696887021884322" lon="13.554993029683828">
        <ele>66.469999999999999</ele>
        <time>2024-09-17T08:34:19Z</time>
      </trkpt>
      <trkpt lat="52.69290997646749" lon="13.557123960927129">
        <ele>65.989999999999995</ele>
        <time>2024-09-17T08:34:33Z</time>
      </trkpt>
      <trkpt lat="52.690355004742742" lon="13.558489037677646">
        <ele>65.510000000000005</ele>
        <time>2024-09-17T08:34:42Z</time>
      </trkpt>
      <trkpt lat="52.685821987688541" lon="13.560891039669514">
        <ele>70.790000000000006</ele>
        <time>2024-09-17T08:34:58Z</time>
      </trkpt>
      <trkpt lat="52.684717001393437" lon="13.561453968286514">
        <ele>71.269999999999996</ele>
        <time>2024-09-17T08:35:03Z</time>
      </trkpt>
      <trkpt lat="52.682469980791211" lon="13.562481002882123">
        <ele>69.829999999999998</ele>
        <time>2024-09-17T08:35:13Z</time>
      </trkpt>
      <trkpt lat="52.680539963766932" lon="13.563311984762549">
        <ele>68.870000000000005</ele>
        <time>2024-09-17T08:35:20Z</time>
      </trkpt>
      <trkpt lat="52.6788130402565" lon="13.564036013558507">
        <ele>69.349999999999994</ele>
        <time>2024-09-17T08:35:27Z</time>
      </trkpt>
      <trkpt lat="52.675869986414909" lon="13.565269997343421">
        <ele>65.989999999999995</ele>
        <time>2024-09-17T08:35:40Z</time>
      </trkpt>
      <trkpt lat="52.672554021701217" lon="13.566656028851867">
        <ele>65.989999999999995</ele>
        <time>2024-09-17T08:35:54Z</time>
      </trkpt>
      <trkpt lat="52.668919963762164" lon="13.568192012608051">
        <ele>70.790000000000006</ele>
        <time>2024-09-17T08:36:08Z</time>
      </trkpt>
      <trkpt lat="52.665833998471498" lon="13.569281995296478">
        <ele>65.989999999999995</ele>
        <time>2024-09-17T08:36:19Z</time>
      </trkpt>
      <trkpt lat="52.663241978734732" lon="13.569603022187948">
        <ele>60.700000000000003</ele>
        <time>2024-09-17T08:36:28Z</time>
      </trkpt>
      <trkpt lat="52.660410990938544" lon="13.569534961134195">
        <ele>56.859999999999999</ele>
        <time>2024-09-17T08:36:38Z</time>
      </trkpt>
      <trkpt lat="52.658168999478221" lon="13.569395989179611">
        <ele>57.82</ele>
        <time>2024-09-17T08:36:46Z</time>
      </trkpt>
      <trkpt lat="52.655523000285029" lon="13.569097006693482">
        <ele>59.740000000000002</ele>
        <time>2024-09-17T08:36:55Z</time>
      </trkpt>
      <trkpt lat="52.652255985885859" lon="13.56855402700603">
        <ele>60.219999999999999</ele>
        <time>2024-09-17T08:37:06Z</time>
      </trkpt>
      <trkpt lat="52.648675991222262" lon="13.567963019013405">
        <ele>58.299999999999997</ele>
        <time>2024-09-17T08:37:18Z</time>
      </trkpt>
      <trkpt lat="52.646874971687794" lon="13.567641992121935">
        <ele>58.299999999999997</ele>
        <time>2024-09-17T08:37:24Z</time>
      </trkpt>
      <trkpt lat="52.643636036664248" lon="13.567118039354682">
        <ele>60.700000000000003</ele>
        <time>2024-09-17T08:37:35Z</time>
      </trkpt>
      <trkpt lat="52.639480037614703" lon="13.566440027207136">
        <ele>61.18</ele>
        <time>2024-09-17T08:37:49Z</time>
      </trkpt>
      <trkpt lat="52.635914962738752" lon="13.565839966759086">
        <ele>60.700000000000003</ele>
        <time>2024-09-17T08:38:01Z</time>
      </trkpt>
      <trkpt lat="52.632353994995356" lon="13.565240995958447">
        <ele>57.82</ele>
        <time>2024-09-17T08:38:13Z</time>
      </trkpt>
      <trkpt lat="52.627628026530147" lon="13.564252015203238">
        <ele>58.299999999999997</ele>
        <time>2024-09-17T08:38:29Z</time>
      </trkpt>
      <trkpt lat="52.623792970553041" lon="13.563405023887753">
        <ele>62.140000000000001</ele>
        <time>2024-09-17T08:38:42Z</time>
      </trkpt>
      <trkpt lat="52.620579013600945" lon="13.562499023973942">
        <ele>63.579999999999998</ele>
        <time>2024-09-17T08:38:53Z</time>
      </trkpt>
      <trkpt lat="52.619326002895832" lon="13.561221035197377">
        <ele>62.619999999999997</ele>
        <time>2024-09-17T08:38:58Z</time>
      </trkpt>
      <trkpt lat="52.618703981861472" lon="13.560189977288246">
        <ele>60.219999999999999</ele>
        <time>2024-09-17T08:39:01Z</time>
      </trkpt>
      <trkpt lat="52.618524022400379" lon="13.559811031445861">
        <ele>59.740000000000002</ele>
        <time>2024-09-17T08:39:02Z</time>
      </trkpt>
      <trkpt lat="52.618350014090538" lon="13.559414986521006">
        <ele>58.780000000000001</ele>
        <time>2024-09-17T08:39:03Z</time>
      </trkpt>
      <trkpt lat="52.616877984255552" lon="13.555172989144921">
        <ele>58.299999999999997</ele>
        <time>2024-09-17T08:39:13Z</time>
      </trkpt>
      <trkpt lat="52.615507962182164" lon="13.549729026854038">
        <ele>56.369999999999997</ele>
        <time>2024-09-17T08:39:25Z</time>
      </trkpt>
      <trkpt lat="52.61515399441123" lon="13.546889992430806">
        <ele>54.93</ele>
        <time>2024-09-17T08:39:31Z</time>
      </trkpt>
      <trkpt lat="52.615259019657969" lon="13.54348199442029">
        <ele>55.409999999999997</ele>
        <time>2024-09-17T08:39:38Z</time>
      </trkpt>
      <trkpt lat="52.615685993805528" lon="13.536638002842665">
        <ele>55.409999999999997</ele>
        <time>2024-09-17T08:39:52Z</time>
      </trkpt>
      <trkpt lat="52.616167031228542" lon="13.528845012187958">
        <ele>56.859999999999999</ele>
        <time>2024-09-17T08:40:08Z</time>
      </trkpt>
      <trkpt lat="52.616855017840862" lon="13.521076999604702">
        <ele>55.409999999999997</ele>
        <time>2024-09-17T08:40:24Z</time>
      </trkpt>
      <trkpt lat="52.617511991411448" lon="13.516297973692417">
        <ele>53.009999999999998</ele>
        <time>2024-09-17T08:40:34Z</time>
      </trkpt>
      <trkpt lat="52.618474988266826" lon="13.511160034686327">
        <ele>51.090000000000003</ele>
        <time>2024-09-17T08:40:45Z</time>
      </trkpt>
      <trkpt lat="52.62003100477159" lon="13.504269020631909">
        <ele>49.649999999999999</ele>
        <time>2024-09-17T08:41:00Z</time>
      </trkpt>
      <trkpt lat="52.621483001857996" lon="13.498373022302985">
        <ele>51.090000000000003</ele>
        <time>2024-09-17T08:41:13Z</time>
      </trkpt>
      <trkpt lat="52.623439002782106" lon="13.490672986954451">
        <ele>51.57</ele>
        <time>2024-09-17T08:41:30Z</time>
      </trkpt>
      <trkpt lat="52.624696958810091" lon="13.486784035339952">
        <ele>45.799999999999997</ele>
        <time>2024-09-17T08:41:39Z</time>
      </trkpt>
      <trkpt lat="52.626808024942875" lon="13.481449037790298">
        <ele>41.469999999999999</ele>
        <time>2024-09-17T08:41:52Z</time>
      </trkpt>
      <trkpt lat="52.627650992944837" lon="13.478437000885606">
        <ele>41.950000000000003</ele>
        <time>2024-09-17T08:41:59Z</time>
      </trkpt>
      <trkpt lat="52.628334034234285" lon="13.47485700622201">
        <ele>42.439999999999998</ele>
        <time>2024-09-17T08:42:07Z</time>
      </trkpt>
      <trkpt lat="52.628935016691685" lon="13.470229022204876">
        <ele>45.799999999999997</ele>
        <time>2024-09-17T08:42:17Z</time>
      </trkpt>
      <trkpt lat="52.629653010517359" lon="13.464494040235877">
        <ele>46.759999999999998</ele>
        <time>2024-09-17T08:42:30Z</time>
      </trkpt>
      <trkpt lat="52.630434036254883" lon="13.459896985441446">
        <ele>45.32</ele>
        <time>2024-09-17T08:42:39Z</time>
      </trkpt>
      <trkpt lat="52.631924003362656" lon="13.453151984140277">
        <ele>49.159999999999997</ele>
        <time>2024-09-17T08:42:54Z</time>
      </trkpt>
      <trkpt lat="52.633254965767264" lon="13.448404977098107">
        <ele>52.049999999999997</ele>
        <time>2024-09-17T08:43:05Z</time>
      </trkpt>
      <trkpt lat="52.634933022782207" lon="13.44351002946496">
        <ele>52.049999999999997</ele>
        <time>2024-09-17T08:43:18Z</time>
      </trkpt>
      <trkpt lat="52.636263985186815" lon="13.440156010910869">
        <ele>51.090000000000003</ele>
        <time>2024-09-17T08:43:29Z</time>
      </trkpt>
      <trkpt lat="52.637740960344672" lon="13.437182027846575">
        <ele>47.240000000000002</ele>
        <time>2024-09-17T08:43:40Z</time>
      </trkpt>
      <trkpt lat="52.639414994046092" lon="13.434018027037382">
        <ele>48.68</ele>
        <time>2024-09-17T08:43:52Z</time>
      </trkpt>
      <trkpt lat="52.639735015109181" lon="13.432030007243156">
        <ele>50.609999999999999</ele>
        <time>2024-09-17T08:43:58Z</time>
      </trkpt>
      <trkpt lat="52.639551032334566" lon="13.429978033527732">
        <ele>52.049999999999997</ele>
        <time>2024-09-17T08:44:04Z</time>
      </trkpt>
      <trkpt lat="52.638885006308556" lon="13.428187994286418">
        <ele>52.530000000000001</ele>
        <time>2024-09-17T08:44:10Z</time>
      </trkpt>
      <trkpt lat="52.637809021398425" lon="13.42694797553122">
        <ele>53.490000000000002</ele>
        <time>2024-09-17T08:44:16Z</time>
      </trkpt>
      <trkpt lat="52.637380035594106" lon="13.42672904022038">
        <ele>53.009999999999998</ele>
        <time>2024-09-17T08:44:18Z</time>
      </trkpt>
      <trkpt lat="52.63715598732233" lon="13.426654022186995">
        <ele>52.530000000000001</ele>
        <time>2024-09-17T08:44:19Z</time>
      </trkpt>
      <trkpt lat="52.63715598732233" lon="13.426654022186995">
        <ele>51.57</ele>
        <time>2024-09-17T08:44:20Z</time>
      </trkpt>
      <trkpt lat="52.636719960719347" lon="13.426562994718552">
        <ele>51.090000000000003</ele>
        <time>2024-09-17T08:44:21Z</time>
      </trkpt>
      <trkpt lat="52.636493984609842" lon="13.426568023860455">
        <ele>50.609999999999999</ele>
        <time>2024-09-17T08:44:22Z</time>
      </trkpt>
      <trkpt lat="52.634773012250662" lon="13.426843034103513">
        <ele>43.880000000000003</ele>
        <time>2024-09-17T08:44:30Z</time>
      </trkpt>
      <trkpt lat="52.63285799883306" lon="13.427155008539557">
        <ele>44.840000000000003</ele>
        <time>2024-09-17T08:44:39Z</time>
      </trkpt>
      <trkpt lat="52.630014019086957" lon="13.427368998527527">
        <ele>47.240000000000002</ele>
        <time>2024-09-17T08:44:51Z</time>
      </trkpt>
      <trkpt lat="52.627169033512473" lon="13.427979033440351">
        <ele>45.799999999999997</ele>
        <time>2024-09-17T08:45:03Z</time>
      </trkpt>
      <trkpt lat="52.625169027596712" lon="13.429194996133447">
        <ele>42.439999999999998</ele>
        <time>2024-09-17T08:45:12Z</time>
      </trkpt>
      <trkpt lat="52.623140020295978" lon="13.431208999827504">
        <ele>40.990000000000002</ele>
        <time>2024-09-17T08:45:22Z</time>
      </trkpt>
      <trkpt lat="52.621043035760522" lon="13.434425974264741">
        <ele>42.439999999999998</ele>
        <time>2024-09-17T08:45:34Z</time>
      </trkpt>
      <trkpt lat="52.617783984169364" lon="13.439658964052796">
        <ele>41.950000000000003</ele>
        <time>2024-09-17T08:45:53Z</time>
      </trkpt>
      <trkpt lat="52.614699024707079" lon="13.444593977183104">
        <ele>41.950000000000003</ele>
        <time>2024-09-17T08:46:11Z</time>
      </trkpt>
      <trkpt lat="52.612970005720854" lon="13.446698002517223">
        <ele>40.990000000000002</ele>
        <time>2024-09-17T08:46:20Z</time>
      </trkpt>
      <trkpt lat="52.610799008980393" lon="13.448340017348528">
        <ele>40.030000000000001</ele>
        <time>2024-09-17T08:46:30Z</time>
      </trkpt>
      <trkpt lat="52.608694983646274" lon="13.449132023379207">
        <ele>39.549999999999997</ele>
        <time>2024-09-17T08:46:39Z</time>
      </trkpt>
      <trkpt lat="52.606543013826013" lon="13.44922598451376">
        <ele>38.590000000000003</ele>
        <time>2024-09-17T08:46:48Z</time>
      </trkpt>
      <trkpt lat="52.604672005400062" lon="13.448680993169546">
        <ele>38.109999999999999</ele>
        <time>2024-09-17T08:46:56Z</time>
      </trkpt>
      <trkpt lat="52.601672038435936" lon="13.447340978309512">
        <ele>35.229999999999997</ele>
        <time>2024-09-17T08:47:09Z</time>
      </trkpt>
      <trkpt lat="52.598914979025722" lon="13.446058966219425">
        <ele>32.82</ele>
        <time>2024-09-17T08:47:21Z</time>
      </trkpt>
      <trkpt lat="52.595723988488317" lon="13.444471014663577">
        <ele>32.82</ele>
        <time>2024-09-17T08:47:35Z</time>
      </trkpt>
      <trkpt lat="52.59381702169776" lon="13.442804021760821">
        <ele>34.740000000000002</ele>
        <time>2024-09-17T08:47:44Z</time>
      </trkpt>
      <trkpt lat="52.590814959257841" lon="13.439555028453469">
        <ele>41.469999999999999</ele>
        <time>2024-09-17T08:47:59Z</time>
      </trkpt>
      <trkpt lat="52.587219960987568" lon="13.435606984421611">
        <ele>41.950000000000003</ele>
        <time>2024-09-17T08:48:17Z</time>
      </trkpt>
      <trkpt lat="52.584446975961328" lon="13.432581033557653">
        <ele>35.229999999999997</ele>
        <time>2024-09-17T08:48:31Z</time>
      </trkpt>
      <trkpt lat="52.582419980317354" lon="13.43038396909833">
        <ele>35.229999999999997</ele>
        <time>2024-09-17T08:48:43Z</time>
      </trkpt>
      <trkpt lat="52.581207035109401" lon="13.429490961134434">
        <ele>36.670000000000002</ele>
        <time>2024-09-17T08:48:51Z</time>
      </trkpt>
      <trkpt lat="52.580037005245686" lon="13.429171023890376">
        <ele>39.07</ele>
        <time>2024-09-17T08:49:00Z</time>
      </trkpt>
      <trkpt lat="52.578534968197346" lon="13.429212011396885">
        <ele>41.469999999999999</ele>
        <time>2024-09-17T08:49:11Z</time>
      </trkpt>
      <trkpt lat="52.577054975554347" lon="13.429433964192867">
        <ele>44.359999999999999</ele>
        <time>2024-09-17T08:49:22Z</time>
      </trkpt>
      <trkpt lat="52.575238030403852" lon="13.429448967799544">
        <ele>43.399999999999999</ele>
        <time>2024-09-17T08:49:35Z</time>
      </trkpt>
      <trkpt lat="52.573873037472367" lon="13.42909399420023">
        <ele>44.359999999999999</ele>
        <time>2024-09-17T08:49:46Z</time>
      </trkpt>
      <trkpt lat="52.572766039520502" lon="13.428809009492397">
        <ele>43.880000000000003</ele>
        <time>2024-09-17T08:49:56Z</time>
      </trkpt>
      <trkpt lat="52.572377035394311" lon="13.428719993680716">
        <ele>42.920000000000002</ele>
        <time>2024-09-17T08:50:04Z</time>
      </trkpt>
      <trkpt lat="52.572331018745899" lon="13.428710019215941">
        <ele>42.439999999999998</ele>
        <time>2024-09-17T08:50:15Z</time>
      </trkpt>
      <trkpt lat="52.572073023766279" lon="13.428636007010937">
        <ele>41.950000000000003</ele>
        <time>2024-09-17T08:50:33Z</time>
      </trkpt>
      <trkpt lat="52.571070967242122" lon="13.428397960960865">
        <ele>41.469999999999999</ele>
        <time>2024-09-17T08:50:43Z</time>
      </trkpt>
      <trkpt lat="52.569788033142686" lon="13.428090009838343">
        <ele>39.549999999999997</ele>
        <time>2024-09-17T08:50:55Z</time>
      </trkpt>
      <trkpt lat="52.569084959104657" lon="13.427898986265063">
        <ele>37.149999999999999</ele>
        <time>2024-09-17T08:51:02Z</time>
      </trkpt>
      <trkpt lat="52.568989992141724" lon="13.427874008193612">
        <ele>36.670000000000002</ele>
        <time>2024-09-17T08:51:03Z</time>
      </trkpt>
      <trkpt lat="52.568386998027563" lon="13.427727995440364">
        <ele>34.740000000000002</ele>
        <time>2024-09-17T08:51:10Z</time>
      </trkpt>
      <trkpt lat="52.568038981407881" lon="13.427630010992289">
        <ele>36.189999999999998</ele>
        <time>2024-09-17T08:51:16Z</time>
      </trkpt>
      <trkpt lat="52.56797100417316" lon="13.427610984072089">
        <ele>36.670000000000002</ele>
        <time>2024-09-17T08:51:17Z</time>
      </trkpt>
      <trkpt lat="52.56797100417316" lon="13.427716009318829">
        <ele>37.630000000000003</ele>
        <time>2024-09-17T08:51:18Z</time>
      </trkpt>
      <trkpt lat="52.56797100417316" lon="13.427750039845705">
        <ele>38.109999999999999</ele>
        <time>2024-09-17T08:51:19Z</time>
      </trkpt>
      <trkpt lat="52.56797100417316" lon="13.427788009867072">
        <ele>38.109999999999999</ele>
        <time>2024-09-17T08:51:20Z</time>
      </trkpt>
      <trkpt lat="52.567998999729753" lon="13.427873002365232">
        <ele>38.109999999999999</ele>
        <time>2024-09-17T08:51:21Z</time>
      </trkpt>
      <trkpt lat="52.568106036633253" lon="13.42789001762867">
        <ele>38.109999999999999</ele>
        <time>2024-09-17T08:51:23Z</time>
      </trkpt>
      <trkpt lat="52.568628983572125" lon="13.428028989583254">
        <ele>37.630000000000003</ele>
        <time>2024-09-17T08:51:30Z</time>
      </trkpt>
      <trkpt lat="52.568681035190821" lon="13.428039969876409">
        <ele>37.630000000000003</ele>
        <time>2024-09-17T08:51:31Z</time>
      </trkpt>
      <trkpt lat="52.56872596219182" lon="13.428049022331834">
        <ele>37.149999999999999</ele>
        <time>2024-09-17T08:51:32Z</time>
      </trkpt>
      <trkpt lat="52.568768039345741" lon="13.428176008164883">
        <ele>37.149999999999999</ele>
        <time>2024-09-17T08:51:33Z</time>
      </trkpt>
      <trkpt lat="52.568758986890316" lon="13.428225964307785">
        <ele>37.149999999999999</ele>
        <time>2024-09-17T08:51:34Z</time>
      </trkpt>
      <trkpt lat="52.568750018253922" lon="13.428279021754861">
        <ele>37.149999999999999</ele>
        <time>2024-09-17T08:51:35Z</time>
      </trkpt>
      <trkpt lat="52.568741971626878" lon="13.428327972069383">
        <ele>37.149999999999999</ele>
        <time>2024-09-17T08:51:36Z</time>
      </trkpt>
      <trkpt lat="52.568735014647245" lon="13.428371977061033">
        <ele>36.670000000000002</ele>
        <time>2024-09-17T08:51:37Z</time>
      </trkpt>
      <trkpt lat="52.568729985505342" lon="13.428401984274387">
        <ele>36.189999999999998</ele>
        <time>2024-09-17T08:51:38Z</time>
      </trkpt>
      <trkpt lat="52.568725040182471" lon="13.428434003144503">
        <ele>35.229999999999997</ele>
        <time>2024-09-17T08:51:39Z</time>
      </trkpt>
      <trkpt lat="52.568725040182471" lon="13.428434003144503">
        <ele>34.740000000000002</ele>
        <time>2024-09-17T08:51:49Z</time>
      </trkpt>
      <trkpt lat="52.568733002990484" lon="13.428802974522114">
        <ele>50.609999999999999</ele>
        <time>2024-09-17T08:55:01Z</time>
      </trkpt>
      <trkpt lat="52.568782037124038" lon="13.428666014224291">
        <ele>17.440000000000001</ele>
        <time>2024-09-17T08:55:32Z</time>
      </trkpt>
      <trkpt lat="52.568813972175121" lon="13.428616980090737">
        <ele>25.609999999999999</ele>
        <time>2024-09-17T08:56:15Z</time>
      </trkpt>
      <trkpt lat="52.568855965510011" lon="13.428466022014618">
        <ele>32.82</ele>
        <time>2024-09-17T08:56:27Z</time>
      </trkpt>
      <trkpt lat="52.568700984120369" lon="13.428575992584229">
        <ele>33.299999999999997</ele>
        <time>2024-09-17T08:56:29Z</time>
      </trkpt>
      <trkpt lat="52.568752029910684" lon="13.428147006779909">
        <ele>34.740000000000002</ele>
        <time>2024-09-17T08:56:39Z</time>
      </trkpt>
      <trkpt lat="52.568759992718697" lon="13.428126974031329">
        <ele>36.670000000000002</ele>
        <time>2024-09-17T08:56:54Z</time>
      </trkpt>
      <trkpt lat="52.5687650218606" lon="13.428193023428321">
        <ele>36.670000000000002</ele>
        <time>2024-09-17T08:56:57Z</time>
      </trkpt>
      <trkpt lat="52.568757981061935" lon="13.428233005106449">
        <ele>37.149999999999999</ele>
        <time>2024-09-17T08:56:58Z</time>
      </trkpt>
      <trkpt lat="52.568750018253922" lon="13.428281033411622">
        <ele>37.149999999999999</ele>
        <time>2024-09-17T08:56:59Z</time>
      </trkpt>
      <trkpt lat="52.568741971626878" lon="13.428331995382905">
        <ele>37.149999999999999</ele>
        <time>2024-09-17T08:57:00Z</time>
      </trkpt>
      <trkpt lat="52.568700984120369" lon="13.428575992584229">
        <ele>37.149999999999999</ele>
        <time>2024-09-17T08:57:01Z</time>
      </trkpt>
      <trkpt lat="52.568700984120369" lon="13.428575992584229">
        <ele>36.670000000000002</ele>
        <time>2024-09-17T08:57:02Z</time>
      </trkpt>
      <trkpt lat="52.568700984120369" lon="13.428575992584229">
        <ele>36.189999999999998</ele>
        <time>2024-09-17T08:57:03Z</time>
      </trkpt>
      <trkpt lat="52.568700984120369" lon="13.428575992584229">
        <ele>36.189999999999998</ele>
        <time>2024-09-17T08:57:04Z</time>
      </trkpt>
      <trkpt lat="52.568963002413511" lon="13.428110964596272">
        <ele>35.710000000000001</ele>
        <time>2024-09-17T08:57:05Z</time>
      </trkpt>
      <trkpt lat="52.568996027112007" lon="13.428121022880077">
        <ele>35.229999999999997</ele>
        <time>2024-09-17T08:57:06Z</time>
      </trkpt>
      <trkpt lat="52.5690240226686" lon="13.428461998701096">
        <ele>35.229999999999997</ele>
        <time>2024-09-17T08:57:07Z</time>
      </trkpt>
      <trkpt lat="52.569030979648232" lon="13.42842604033649">
        <ele>35.229999999999997</ele>
        <time>2024-09-17T08:57:08Z</time>
      </trkpt>
      <trkpt lat="52.569053024053574" lon="13.428319003432989">
        <ele>35.229999999999997</ele>
        <time>2024-09-17T08:57:11Z</time>
      </trkpt>
      <trkpt lat="52.569053024053574" lon="13.428319003432989">
        <ele>35.710000000000001</ele>
        <time>2024-09-17T08:57:20Z</time>
      </trkpt>
      <trkpt lat="52.569059981033206" lon="13.428284972906113">
        <ele>36.189999999999998</ele>
        <time>2024-09-17T08:57:21Z</time>
      </trkpt>
      <trkpt lat="52.569066016003489" lon="13.428251026198268">
        <ele>36.189999999999998</ele>
        <time>2024-09-17T08:57:22Z</time>
      </trkpt>
      <trkpt lat="52.569141034036875" lon="13.428158992901444">
        <ele>36.189999999999998</ele>
        <time>2024-09-17T08:57:23Z</time>
      </trkpt>
      <trkpt lat="52.569187972694635" lon="13.428168967366219">
        <ele>36.189999999999998</ele>
        <time>2024-09-17T08:57:24Z</time>
      </trkpt>
      <trkpt lat="52.569254022091627" lon="13.428182965144515">
        <ele>35.710000000000001</ele>
        <time>2024-09-17T08:57:25Z</time>
      </trkpt>
      <trkpt lat="52.569338008761406" lon="13.428200986236334">
        <ele>35.229999999999997</ele>
        <time>2024-09-17T08:57:26Z</time>
      </trkpt>
      <trkpt lat="52.569440016523004" lon="13.428224036470056">
        <ele>35.229999999999997</ele>
        <time>2024-09-17T08:57:27Z</time>
      </trkpt>
      <trkpt lat="52.569663980975747" lon="13.428276004269719">
        <ele>34.740000000000002</ele>
        <time>2024-09-17T08:57:29Z</time>
      </trkpt>
      <trkpt lat="52.56977797485888" lon="13.428305005654693">
        <ele>34.259999999999998</ele>
        <time>2024-09-17T08:57:30Z</time>
      </trkpt>
      <trkpt lat="52.569892974570394" lon="13.428335012868047">
        <ele>34.740000000000002</ele>
        <time>2024-09-17T08:57:31Z</time>
      </trkpt>
      <trkpt lat="52.570006968453526" lon="13.428365020081401">
        <ele>34.740000000000002</ele>
        <time>2024-09-17T08:57:32Z</time>
      </trkpt>
      <trkpt lat="52.57011903449893" lon="13.428394021466374">
        <ele>34.740000000000002</ele>
        <time>2024-09-17T08:57:33Z</time>
      </trkpt>
      <trkpt lat="52.570231016725302" lon="13.428427968174219">
        <ele>34.740000000000002</ele>
        <time>2024-09-17T08:57:34Z</time>
      </trkpt>
      <trkpt lat="52.570946998894215" lon="13.42862200923264">
        <ele>32.340000000000003</ele>
        <time>2024-09-17T08:57:41Z</time>
      </trkpt>
      <trkpt lat="52.571030985563993" lon="13.428642963990569">
        <ele>31.859999999999999</ele>
        <time>2024-09-17T08:57:42Z</time>
      </trkpt>
      <trkpt lat="52.571110026910901" lon="13.428656039759517">
        <ele>31.859999999999999</ele>
        <time>2024-09-17T08:57:43Z</time>
      </trkpt>
      <trkpt lat="52.571299960836768" lon="13.428693003952503">
        <ele>30.899999999999999</ele>
        <time>2024-09-17T08:57:46Z</time>
      </trkpt>
      <trkpt lat="52.571343965828419" lon="13.428700966760516">
        <ele>30.899999999999999</ele>
        <time>2024-09-17T08:57:47Z</time>
      </trkpt>
      <trkpt lat="52.571371961385012" lon="13.42870800755918">
        <ele>30.899999999999999</ele>
        <time>2024-09-17T08:57:48Z</time>
      </trkpt>
      <trkpt lat="52.571371039375663" lon="13.428597031161189">
        <ele>30.899999999999999</ele>
        <time>2024-09-17T08:57:49Z</time>
      </trkpt>
      <trkpt lat="52.571375984698534" lon="13.428545985370874">
        <ele>30.899999999999999</ele>
        <time>2024-09-17T08:57:54Z</time>
      </trkpt>
      <trkpt lat="52.571343965828419" lon="13.428459987044334">
        <ele>30.899999999999999</ele>
        <time>2024-09-17T08:57:55Z</time>
      </trkpt>
      <trkpt lat="52.571276994422078" lon="13.428444983437657">
        <ele>30.899999999999999</ele>
        <time>2024-09-17T08:57:56Z</time>
      </trkpt>
      <trkpt lat="52.570474008098245" lon="13.428261000663042">
        <ele>30.420000000000002</ele>
        <time>2024-09-17T08:58:04Z</time>
      </trkpt>
      <trkpt lat="52.569386959075928" lon="13.427980961278081">
        <ele>29.460000000000001</ele>
        <time>2024-09-17T08:58:14Z</time>
      </trkpt>
      <trkpt lat="52.568103019148111" lon="13.427648032084107">
        <ele>31.859999999999999</ele>
        <time>2024-09-17T08:58:26Z</time>
      </trkpt>
      <trkpt lat="52.566773984581232" lon="13.42733102850616">
        <ele>33.780000000000001</ele>
        <time>2024-09-17T08:58:38Z</time>
      </trkpt>
      <trkpt lat="52.565267002210021" lon="13.426960967481136">
        <ele>33.299999999999997</ele>
        <time>2024-09-17T08:58:52Z</time>
      </trkpt>
      <trkpt lat="52.564670965075493" lon="13.426942024379969">
        <ele>33.299999999999997</ele>
        <time>2024-09-17T08:58:58Z</time>
      </trkpt>
      <trkpt lat="52.564314985647798" lon="13.427012013271451">
        <ele>33.299999999999997</ele>
        <time>2024-09-17T08:59:03Z</time>
      </trkpt>
      <trkpt lat="52.564240973442793" lon="13.42703003436327">
        <ele>33.780000000000001</ele>
        <time>2024-09-17T08:59:04Z</time>
      </trkpt>
      <trkpt lat="52.564011979848146" lon="13.427086025476456">
        <ele>35.229999999999997</ele>
        <time>2024-09-17T08:59:07Z</time>
      </trkpt>
      <trkpt lat="52.563935033977032" lon="13.427104968577623">
        <ele>35.710000000000001</ele>
        <time>2024-09-17T08:59:08Z</time>
      </trkpt>
      <trkpt lat="52.562870029360056" lon="13.42735399492085">
        <ele>38.109999999999999</ele>
        <time>2024-09-17T08:59:22Z</time>
      </trkpt>
      <trkpt lat="52.561926981434226" lon="13.427576031535864">
        <ele>40.030000000000001</ele>
        <time>2024-09-17T08:59:35Z</time>
      </trkpt>
      <trkpt lat="52.56113899871707" lon="13.427759008482099">
        <ele>40.509999999999998</ele>
        <time>2024-09-17T08:59:43Z</time>
      </trkpt>
      <trkpt lat="52.559751039370894" lon="13.428139965981245">
        <ele>40.030000000000001</ele>
        <time>2024-09-17T08:59:55Z</time>
      </trkpt>
      <trkpt lat="52.558509008958936" lon="13.428478008136153">
        <ele>36.189999999999998</ele>
        <time>2024-09-17T09:00:06Z</time>
      </trkpt>
      <trkpt lat="52.557243006303906" lon="13.428833987563848">
        <ele>33.299999999999997</ele>
        <time>2024-09-17T09:00:18Z</time>
      </trkpt>
      <trkpt lat="52.557162959128618" lon="13.42885603196919">
        <ele>33.780000000000001</ele>
        <time>2024-09-17T09:00:19Z</time>
      </trkpt>
      <trkpt lat="52.557099005207419" lon="13.428874975070357">
        <ele>33.780000000000001</ele>
        <time>2024-09-17T09:00:20Z</time>
      </trkpt>
      <trkpt lat="52.557044019922614" lon="13.428887967020273">
        <ele>33.299999999999997</ele>
        <time>2024-09-17T09:00:21Z</time>
      </trkpt>
      <trkpt lat="52.556999009102583" lon="13.428898025304079">
        <ele>33.299999999999997</ele>
        <time>2024-09-17T09:00:22Z</time>
      </trkpt>
      <trkpt lat="52.556951986625791" lon="13.428909005597234">
        <ele>33.299999999999997</ele>
        <time>2024-09-17T09:00:23Z</time>
      </trkpt>
      <trkpt lat="52.556899012997746" lon="13.428920991718769">
        <ele>32.82</ele>
        <time>2024-09-17T09:00:24Z</time>
      </trkpt>
      <trkpt lat="52.556789964437485" lon="13.428947981446981">
        <ele>33.299999999999997</ele>
        <time>2024-09-17T09:00:26Z</time>
      </trkpt>
      <trkpt lat="52.556734979152679" lon="13.4289660025388">
        <ele>33.299999999999997</ele>
        <time>2024-09-17T09:00:27Z</time>
      </trkpt>
      <trkpt lat="52.556683011353016" lon="13.428982011973858">
        <ele>33.299999999999997</ele>
        <time>2024-09-17T09:00:28Z</time>
      </trkpt>
      <trkpt lat="52.555801989510655" lon="13.42922299169004">
        <ele>33.299999999999997</ele>
        <time>2024-09-17T09:00:41Z</time>
      </trkpt>
      <trkpt lat="52.555536031723022" lon="13.429293986409903">
        <ele>34.259999999999998</ele>
        <time>2024-09-17T09:00:44Z</time>
      </trkpt>
      <trkpt lat="52.554602958261967" lon="13.429542006924748">
        <ele>38.109999999999999</ele>
        <time>2024-09-17T09:00:53Z</time>
      </trkpt>
      <trkpt lat="52.5542420335114" lon="13.429636973887682">
        <ele>39.549999999999997</ele>
        <time>2024-09-17T09:01:00Z</time>
      </trkpt>
      <trkpt lat="52.554119993001223" lon="13.429668992757797">
        <ele>40.990000000000002</ele>
        <time>2024-09-17T09:01:05Z</time>
      </trkpt>
      <trkpt lat="52.554102977737784" lon="13.4296740218997">
        <ele>41.469999999999999</ele>
        <time>2024-09-17T09:01:06Z</time>
      </trkpt>
      <trkpt lat="52.554102977737784" lon="13.4296740218997">
        <ele>42.439999999999998</ele>
        <time>2024-09-17T09:01:18Z</time>
      </trkpt>
      <trkpt lat="52.554057966917753" lon="13.429685002192855">
        <ele>42.439999999999998</ele>
        <time>2024-09-17T09:01:35Z</time>
      </trkpt>
      <trkpt lat="52.55400599911809" lon="13.429698999971151">
        <ele>42.920000000000002</ele>
        <time>2024-09-17T09:01:36Z</time>
      </trkpt>
      <trkpt lat="52.553938021883368" lon="13.42971702106297">
        <ele>42.920000000000002</ele>
        <time>2024-09-17T09:01:37Z</time>
      </trkpt>
      <trkpt lat="52.553131012246013" lon="13.42993201687932">
        <ele>42.439999999999998</ele>
        <time>2024-09-17T09:01:45Z</time>
      </trkpt>
      <trkpt lat="52.551870038732886" lon="13.430214989930391">
        <ele>42.920000000000002</ele>
        <time>2024-09-17T09:01:56Z</time>
      </trkpt>
      <trkpt lat="52.551798038184643" lon="13.430209960788488">
        <ele>42.439999999999998</ele>
        <time>2024-09-17T09:01:57Z</time>
      </trkpt>
      <trkpt lat="52.551742969080806" lon="13.430205015465617">
        <ele>41.469999999999999</ele>
        <time>2024-09-17T09:01:58Z</time>
      </trkpt>
      <trkpt lat="52.551698964089155" lon="13.43019001185894">
        <ele>40.990000000000002</ele>
        <time>2024-09-17T09:01:59Z</time>
      </trkpt>
      <trkpt lat="52.551671974360943" lon="13.430180959403515">
        <ele>40.509999999999998</ele>
        <time>2024-09-17T09:02:00Z</time>
      </trkpt>
      <trkpt lat="52.551655964925885" lon="13.430176014080644">
        <ele>40.030000000000001</ele>
        <time>2024-09-17T09:02:01Z</time>
      </trkpt>
      <trkpt lat="52.551655964925885" lon="13.430176014080644">
        <ele>39.07</ele>
        <time>2024-09-17T09:02:02Z</time>
      </trkpt>
      <trkpt lat="52.551650013774633" lon="13.430174002423882">
        <ele>37.149999999999999</ele>
        <time>2024-09-17T09:02:08Z</time>
      </trkpt>
      <trkpt lat="52.551616989076138" lon="13.430163022130728">
        <ele>37.149999999999999</ele>
        <time>2024-09-17T09:02:09Z</time>
      </trkpt>
      <trkpt lat="52.55155798047781" lon="13.430142989382148">
        <ele>37.149999999999999</ele>
        <time>2024-09-17T09:02:10Z</time>
      </trkpt>
      <trkpt lat="52.551239971071482" lon="13.430036958307028">
        <ele>39.07</ele>
        <time>2024-09-17T09:02:14Z</time>
      </trkpt>
      <trkpt lat="52.550341011956334" lon="13.42967301607132">
        <ele>39.07</ele>
        <time>2024-09-17T09:02:23Z</time>
      </trkpt>
      <trkpt lat="52.549133012071252" lon="13.429156020283699">
        <ele>39.549999999999997</ele>
        <time>2024-09-17T09:02:33Z</time>
      </trkpt>
      <trkpt lat="52.548401020467281" lon="13.428800040856004">
        <ele>38.109999999999999</ele>
        <time>2024-09-17T09:02:41Z</time>
      </trkpt>
      <trkpt lat="52.548280991613865" lon="13.428741032257676">
        <ele>37.630000000000003</ele>
        <time>2024-09-17T09:02:43Z</time>
      </trkpt>
      <trkpt lat="52.548231035470963" lon="13.428715970367193">
        <ele>37.630000000000003</ele>
        <time>2024-09-17T09:02:44Z</time>
      </trkpt>
      <trkpt lat="52.548134978860617" lon="13.428668025881052">
        <ele>37.630000000000003</ele>
        <time>2024-09-17T09:02:51Z</time>
      </trkpt>
      <trkpt lat="52.548111006617546" lon="13.428656039759517">
        <ele>37.630000000000003</ele>
        <time>2024-09-17T09:03:00Z</time>
      </trkpt>
      <trkpt lat="52.547787968069315" lon="13.428498962894082">
        <ele>37.149999999999999</ele>
        <time>2024-09-17T09:03:06Z</time>
      </trkpt>
      <trkpt lat="52.546677030622959" lon="13.428014991804957">
        <ele>35.710000000000001</ele>
        <time>2024-09-17T09:03:17Z</time>
      </trkpt>
      <trkpt lat="52.546490030363202" lon="13.427950032055378">
        <ele>35.710000000000001</ele>
        <time>2024-09-17T09:03:19Z</time>
      </trkpt>
      <trkpt lat="52.546414006501436" lon="13.427922958508134">
        <ele>36.189999999999998</ele>
        <time>2024-09-17T09:03:20Z</time>
      </trkpt>
      <trkpt lat="52.546105971559882" lon="13.427799995988607">
        <ele>37.149999999999999</ele>
        <time>2024-09-17T09:03:27Z</time>
      </trkpt>
      <trkpt lat="52.546105971559882" lon="13.427799995988607">
        <ele>37.630000000000003</ele>
        <time>2024-09-17T09:03:40Z</time>
      </trkpt>
      <trkpt lat="52.546091973781586" lon="13.427794966846704">
        <ele>37.630000000000003</ele>
        <time>2024-09-17T09:03:43Z</time>
      </trkpt>
      <trkpt lat="52.546064984053373" lon="13.427782980725169">
        <ele>37.630000000000003</ele>
        <time>2024-09-17T09:03:44Z</time>
      </trkpt>
      <trkpt lat="52.545580007135868" lon="13.427575025707483">
        <ele>40.030000000000001</ele>
        <time>2024-09-17T09:03:51Z</time>
      </trkpt>
      <trkpt lat="52.544584991410375" lon="13.427193984389305">
        <ele>44.359999999999999</ele>
        <time>2024-09-17T09:04:01Z</time>
      </trkpt>
      <trkpt lat="52.544034970924258" lon="13.426917968317866">
        <ele>44.359999999999999</ele>
        <time>2024-09-17T09:04:09Z</time>
      </trkpt>
      <trkpt lat="52.544009992852807" lon="13.42690397053957">
        <ele>44.359999999999999</ele>
        <time>2024-09-17T09:04:18Z</time>
      </trkpt>
      <trkpt lat="52.543780999258161" lon="13.42677203938365">
        <ele>44.359999999999999</ele>
        <time>2024-09-17T09:04:29Z</time>
      </trkpt>
      <trkpt lat="52.543176999315619" lon="13.426426034420729">
        <ele>44.840000000000003</ele>
        <time>2024-09-17T09:04:39Z</time>
      </trkpt>
      <trkpt lat="52.543176999315619" lon="13.426426034420729">
        <ele>44.359999999999999</ele>
        <time>2024-09-17T09:04:52Z</time>
      </trkpt>
      <trkpt lat="52.54315797239542" lon="13.426414970308542">
        <ele>45.32</ele>
        <time>2024-09-17T09:05:34Z</time>
      </trkpt>
      <trkpt lat="52.542792018502951" lon="13.426217995584011">
        <ele>45.799999999999997</ele>
        <time>2024-09-17T09:05:39Z</time>
      </trkpt>
      <trkpt lat="52.541711004450917" lon="13.425566973164678">
        <ele>45.32</ele>
        <time>2024-09-17T09:05:49Z</time>
      </trkpt>
      <trkpt lat="52.54083601757884" lon="13.425044026225805">
        <ele>44.840000000000003</ele>
        <time>2024-09-17T09:05:57Z</time>
      </trkpt>
      <trkpt lat="52.540730992332101" lon="13.424979988485575">
        <ele>44.359999999999999</ele>
        <time>2024-09-17T09:05:58Z</time>
      </trkpt>
      <trkpt lat="52.540622027590871" lon="13.424914022907615">
        <ele>44.359999999999999</ele>
        <time>2024-09-17T09:05:59Z</time>
      </trkpt>
      <trkpt lat="52.539414027705789" lon="13.424199968576431">
        <ele>44.840000000000003</ele>
        <time>2024-09-17T09:06:10Z</time>
      </trkpt>
      <trkpt lat="52.538533005863428" lon="13.423723038285971">
        <ele>44.840000000000003</ele>
        <time>2024-09-17T09:06:18Z</time>
      </trkpt>
      <trkpt lat="52.538423035293818" lon="13.423655983060598">
        <ele>44.840000000000003</ele>
        <time>2024-09-17T09:06:19Z</time>
      </trkpt>
      <trkpt lat="52.537012025713921" lon="13.42279901728034">
        <ele>46.280000000000001</ele>
        <time>2024-09-17T09:06:32Z</time>
      </trkpt>
      <trkpt lat="52.536905994638801" lon="13.42273497954011">
        <ele>45.799999999999997</ele>
        <time>2024-09-17T09:06:33Z</time>
      </trkpt>
      <trkpt lat="52.53668999299407" lon="13.42260698787868">
        <ele>45.799999999999997</ele>
        <time>2024-09-17T09:06:35Z</time>
      </trkpt>
      <trkpt lat="52.535372022539377" lon="13.421827973797917">
        <ele>44.840000000000003</ele>
        <time>2024-09-17T09:06:47Z</time>
      </trkpt>
      <trkpt lat="52.534393016248941" lon="13.421235037967563">
        <ele>43.399999999999999</ele>
        <time>2024-09-17T09:06:56Z</time>
      </trkpt>
      <trkpt lat="52.534285979345441" lon="13.421171000227332">
        <ele>43.399999999999999</ele>
        <time>2024-09-17T09:06:57Z</time>
      </trkpt>
      <trkpt lat="52.534178020432591" lon="13.421106040477753">
        <ele>43.399999999999999</ele>
        <time>2024-09-17T09:06:58Z</time>
      </trkpt>
      <trkpt lat="52.533083008602262" lon="13.420470021665096">
        <ele>43.399999999999999</ele>
        <time>2024-09-17T09:07:08Z</time>
      </trkpt>
      <trkpt lat="52.532973960042" lon="13.420405983924866">
        <ele>43.880000000000003</ele>
        <time>2024-09-17T09:07:09Z</time>
      </trkpt>
      <trkpt lat="52.531837038695812" lon="13.419736018404365">
        <ele>43.399999999999999</ele>
        <time>2024-09-17T09:07:20Z</time>
      </trkpt>
      <trkpt lat="52.531118961051106" lon="13.419244000688195">
        <ele>43.399999999999999</ele>
        <time>2024-09-17T09:07:30Z</time>
      </trkpt>
      <trkpt lat="52.530285967513919" lon="13.418628014624119">
        <ele>42.439999999999998</ele>
        <time>2024-09-17T09:07:43Z</time>
      </trkpt>
      <trkpt lat="52.530064014717937" lon="13.418442020192742">
        <ele>41.950000000000003</ele>
        <time>2024-09-17T09:07:49Z</time>
      </trkpt>
      <trkpt lat="52.529961001127958" lon="13.41835199855268">
        <ele>41.469999999999999</ele>
        <time>2024-09-17T09:07:52Z</time>
      </trkpt>
      <trkpt lat="52.529919007793069" lon="13.418316040188074">
        <ele>41.469999999999999</ele>
        <time>2024-09-17T09:07:53Z</time>
      </trkpt>
      <trkpt lat="52.529826974496245" lon="13.418239010497928">
        <ele>40.990000000000002</ele>
        <time>2024-09-17T09:07:55Z</time>
      </trkpt>
      <trkpt lat="52.529381979256868" lon="13.417806001380086">
        <ele>40.509999999999998</ele>
        <time>2024-09-17T09:08:07Z</time>
      </trkpt>
      <trkpt lat="52.529183998703957" lon="13.41760098002851">
        <ele>40.030000000000001</ele>
        <time>2024-09-17T09:08:18Z</time>
      </trkpt>
      <trkpt lat="52.529036980122328" lon="13.417451027780771">
        <ele>40.509999999999998</ele>
        <time>2024-09-17T09:08:44Z</time>
      </trkpt>
      <trkpt lat="52.528539011254907" lon="13.416952975094318">
        <ele>38.590000000000003</ele>
        <time>2024-09-17T09:08:52Z</time>
      </trkpt>
      <trkpt lat="52.527839038521051" lon="13.416242022067308">
        <ele>35.229999999999997</ele>
        <time>2024-09-17T09:09:01Z</time>
      </trkpt>
      <trkpt lat="52.527719009667635" lon="13.416135990992188">
        <ele>34.740000000000002</ele>
        <time>2024-09-17T09:09:03Z</time>
      </trkpt>
      <trkpt lat="52.527566961944103" lon="13.416001964360476">
        <ele>33.299999999999997</ele>
        <time>2024-09-17T09:09:06Z</time>
      </trkpt>
      <trkpt lat="52.527534021064639" lon="13.415972962975502">
        <ele>33.299999999999997</ele>
        <time>2024-09-17T09:09:07Z</time>
      </trkpt>
      <trkpt lat="52.527507031336427" lon="13.415947984904051">
        <ele>32.82</ele>
        <time>2024-09-17T09:09:08Z</time>
      </trkpt>
      <trkpt lat="52.527486998587847" lon="13.415929963812232">
        <ele>31.859999999999999</ele>
        <time>2024-09-17T09:09:16Z</time>
      </trkpt>
      <trkpt lat="52.527486998587847" lon="13.415929963812232">
        <ele>31.859999999999999</ele>
        <time>2024-09-17T09:09:54Z</time>
      </trkpt>
      <trkpt lat="52.527331011369824" lon="13.415786968544126">
        <ele>31.379999999999999</ele>
        <time>2024-09-17T09:10:11Z</time>
      </trkpt>
      <trkpt lat="52.527135964483023" lon="13.415600974112749">
        <ele>30.420000000000002</ele>
        <time>2024-09-17T09:10:21Z</time>
      </trkpt>
      <trkpt lat="52.526137009263039" lon="13.41454803943634">
        <ele>31.859999999999999</ele>
        <time>2024-09-17T09:10:32Z</time>
      </trkpt>
      <trkpt lat="52.525293035432696" lon="13.413527961820364">
        <ele>31.379999999999999</ele>
        <time>2024-09-17T09:10:41Z</time>
      </trkpt>
      <trkpt lat="52.525019031018019" lon="13.413171982392669">
        <ele>30.899999999999999</ele>
        <time>2024-09-17T09:10:44Z</time>
      </trkpt>
      <trkpt lat="52.524929009377956" lon="13.413054971024394">
        <ele>30.899999999999999</ele>
        <time>2024-09-17T09:10:45Z</time>
      </trkpt>
      <trkpt lat="52.524840999394655" lon="13.412941982969642">
        <ele>30.899999999999999</ele>
        <time>2024-09-17T09:10:46Z</time>
      </trkpt>
      <trkpt lat="52.524761036038399" lon="13.412838969379663">
        <ele>30.420000000000002</ele>
        <time>2024-09-17T09:10:47Z</time>
      </trkpt>
      <trkpt lat="52.524686018005013" lon="13.412750959396362">
        <ele>30.420000000000002</ele>
        <time>2024-09-17T09:10:48Z</time>
      </trkpt>
      <trkpt lat="52.524541011080146" lon="13.412590026855469">
        <ele>30.420000000000002</ele>
        <time>2024-09-17T09:10:49Z</time>
      </trkpt>
      <trkpt lat="52.524412013590336" lon="13.412396991625428">
        <ele>29.460000000000001</ele>
        <time>2024-09-17T09:10:52Z</time>
      </trkpt>
      <trkpt lat="52.524226019158959" lon="13.412181995809078">
        <ele>28.98</ele>
        <time>2024-09-17T09:10:56Z</time>
      </trkpt>
      <trkpt lat="52.524132980033755" lon="13.412074958905578">
        <ele>28.5</ele>
        <time>2024-09-17T09:10:57Z</time>
      </trkpt>
      <trkpt lat="52.524026026949286" lon="13.411945961415768">
        <ele>28.5</ele>
        <time>2024-09-17T09:10:58Z</time>
      </trkpt>
      <trkpt lat="52.523165959864855" lon="13.410632014274597">
        <ele>27.050000000000001</ele>
        <time>2024-09-17T09:11:10Z</time>
      </trkpt>
      <trkpt lat="52.522430028766394" lon="13.409385960549116">
        <ele>23.210000000000001</ele>
        <time>2024-09-17T09:11:20Z</time>
      </trkpt>
      <trkpt lat="52.522351993247867" lon="13.40924296528101">
        <ele>22.25</ele>
        <time>2024-09-17T09:11:21Z</time>
      </trkpt>
      <trkpt lat="52.522299019619823" lon="13.40913500636816">
        <ele>21.289999999999999</ele>
        <time>2024-09-17T09:11:22Z</time>
      </trkpt>
      <trkpt lat="52.522232970222831" lon="13.40900500304997">
        <ele>20.32</ele>
        <time>2024-09-17T09:11:23Z</time>
      </trkpt>
      <trkpt lat="52.52209902741015" lon="13.408733010292053">
        <ele>18.879999999999999</ele>
        <time>2024-09-17T09:11:25Z</time>
      </trkpt>
      <trkpt lat="52.521410034969449" lon="13.407364999875426">
        <ele>16.960000000000001</ele>
        <time>2024-09-17T09:11:36Z</time>
      </trkpt>
      <trkpt lat="52.521228985860944" lon="13.407010026276112">
        <ele>16</ele>
        <time>2024-09-17T09:11:40Z</time>
      </trkpt>
      <trkpt lat="52.521192021667957" lon="13.406938025727868">
        <ele>16</ele>
        <time>2024-09-17T09:11:41Z</time>
      </trkpt>
      <trkpt lat="52.521128989756107" lon="13.406812967732549">
        <ele>15.52</ele>
        <time>2024-09-17T09:11:43Z</time>
      </trkpt>
      <trkpt lat="52.520993035286665" lon="13.406543992459774">
        <ele>14.56</ele>
        <time>2024-09-17T09:11:47Z</time>
      </trkpt>
      <trkpt lat="52.520678965374827" lon="13.405894981697202">
        <ele>14.56</ele>
        <time>2024-09-17T09:11:54Z</time>
      </trkpt>
      <trkpt lat="52.520242016762495" lon="13.404986970126629">
        <ele>18.879999999999999</ele>
        <time>2024-09-17T09:12:06Z</time>
      </trkpt>
      <trkpt lat="52.520193988457322" lon="13.404897032305598">
        <ele>19.84</ele>
        <time>2024-09-17T09:12:08Z</time>
      </trkpt>
      <trkpt lat="52.519858963787556" lon="13.404309963807464">
        <ele>23.210000000000001</ele>
        <time>2024-09-17T09:12:15Z</time>
      </trkpt>
      <trkpt lat="52.519227974116802" lon="13.403302039951086">
        <ele>25.609999999999999</ele>
        <time>2024-09-17T09:12:24Z</time>
      </trkpt>
      <trkpt lat="52.518974002450705" lon="13.402767023071647">
        <ele>28.02</ele>
        <time>2024-09-17T09:12:31Z</time>
      </trkpt>
      <trkpt lat="52.518665967509151" lon="13.40197904035449">
        <ele>29.940000000000001</ele>
        <time>2024-09-17T09:12:41Z</time>
      </trkpt>
      <trkpt lat="52.518539987504482" lon="13.401640998199582">
        <ele>29.460000000000001</ele>
        <time>2024-09-17T09:12:48Z</time>
      </trkpt>
      <trkpt lat="52.518501011654735" lon="13.401553994044662">
        <ele>28.5</ele>
        <time>2024-09-17T09:13:02Z</time>
      </trkpt>
      <trkpt lat="52.518501011654735" lon="13.401553994044662">
        <ele>28.5</ele>
        <time>2024-09-17T09:13:22Z</time>
      </trkpt>
      <trkpt lat="52.51836103387177" lon="13.401239002123475">
        <ele>28.5</ele>
        <time>2024-09-17T09:13:30Z</time>
      </trkpt>
      <trkpt lat="52.517999019473791" lon="13.400210961699486">
        <ele>27.050000000000001</ele>
        <time>2024-09-17T09:13:40Z</time>
      </trkpt>
      <trkpt lat="52.517705988138914" lon="13.399209994822741">
        <ele>22.73</ele>
        <time>2024-09-17T09:13:48Z</time>
      </trkpt>
      <trkpt lat="52.517683021724224" lon="13.399076974019408">
        <ele>22.25</ele>
        <time>2024-09-17T09:13:49Z</time>
      </trkpt>
      <trkpt lat="52.517552012577653" lon="13.397462032735348">
        <ele>21.77</ele>
        <time>2024-09-17T09:14:00Z</time>
      </trkpt>
      <trkpt lat="52.517490992322564" lon="13.396463999524713">
        <ele>21.77</ele>
        <time>2024-09-17T09:14:06Z</time>
      </trkpt>
      <trkpt lat="52.517507001757622" lon="13.396040964871645">
        <ele>20.32</ele>
        <time>2024-09-17T09:14:12Z</time>
      </trkpt>
      <trkpt lat="52.517507001757622" lon="13.396040964871645">
        <ele>19.84</ele>
        <time>2024-09-17T09:14:29Z</time>
      </trkpt>
      <trkpt lat="52.517507001757622" lon="13.395659001544118">
        <ele>20.32</ele>
        <time>2024-09-17T09:14:36Z</time>
      </trkpt>
      <trkpt lat="52.517413040623069" lon="13.39456801302731">
        <ele>20.809999999999999</ele>
        <time>2024-09-17T09:14:46Z</time>
      </trkpt>
      <trkpt lat="52.517405999824405" lon="13.394485032185912">
        <ele>20.32</ele>
        <time>2024-09-17T09:14:54Z</time>
      </trkpt>
      <trkpt lat="52.517389990389347" lon="13.394308006390929">
        <ele>19.84</ele>
        <time>2024-09-17T09:15:24Z</time>
      </trkpt>
      <trkpt lat="52.517355959862471" lon="13.393280971795321">
        <ele>21.289999999999999</ele>
        <time>2024-09-17T09:15:34Z</time>
      </trkpt>
      <trkpt lat="52.517364006489515" lon="13.393212994560599">
        <ele>21.289999999999999</ele>
        <time>2024-09-17T09:15:35Z</time>
      </trkpt>
      <trkpt lat="52.517370963469148" lon="13.393152980133891">
        <ele>20.809999999999999</ele>
        <time>2024-09-17T09:15:36Z</time>
      </trkpt>
      <trkpt lat="52.517378004267812" lon="13.393029011785984">
        <ele>21.289999999999999</ele>
        <time>2024-09-17T09:15:45Z</time>
      </trkpt>
      <trkpt lat="52.517378004267812" lon="13.393029011785984">
        <ele>21.77</ele>
        <time>2024-09-17T09:16:30Z</time>
      </trkpt>
      <trkpt lat="52.517379010096192" lon="13.392413025721908">
        <ele>22.73</ele>
        <time>2024-09-17T09:16:38Z</time>
      </trkpt>
      <trkpt lat="52.517316984012723" lon="13.391648009419441">
        <ele>22.25</ele>
        <time>2024-09-17T09:16:47Z</time>
      </trkpt>
      <trkpt lat="52.517316984012723" lon="13.391648009419441">
        <ele>22.25</ele>
        <time>2024-09-17T09:17:06Z</time>
      </trkpt>
      <trkpt lat="52.517306003719568" lon="13.391480036079884">
        <ele>23.210000000000001</ele>
        <time>2024-09-17T09:17:42Z</time>
      </trkpt>
      <trkpt lat="52.517225034534931" lon="13.390316041186452">
        <ele>27.530000000000001</ele>
        <time>2024-09-17T09:17:54Z</time>
      </trkpt>
      <trkpt lat="52.517206007614732" lon="13.389980010688305">
        <ele>28.02</ele>
        <time>2024-09-17T09:17:58Z</time>
      </trkpt>
      <trkpt lat="52.51715999096632" lon="13.388793971389532">
        <ele>28.02</ele>
        <time>2024-09-17T09:18:07Z</time>
      </trkpt>
      <trkpt lat="52.517039040103555" lon="13.386878035962582">
        <ele>29.460000000000001</ele>
        <time>2024-09-17T09:18:20Z</time>
      </trkpt>
      <trkpt lat="52.516983970999718" lon="13.386005982756615">
        <ele>33.299999999999997</ele>
        <time>2024-09-17T09:18:29Z</time>
      </trkpt>
      <trkpt lat="52.516981037333608" lon="13.385959966108203">
        <ele>34.259999999999998</ele>
        <time>2024-09-17T09:18:37Z</time>
      </trkpt>
      <trkpt lat="52.516947006806731" lon="13.385512037202716">
        <ele>36.189999999999998</ele>
        <time>2024-09-17T09:19:09Z</time>
      </trkpt>
      <trkpt lat="52.516814991831779" lon="13.383575985208154">
        <ele>36.670000000000002</ele>
        <time>2024-09-17T09:19:21Z</time>
      </trkpt>
      <trkpt lat="52.516781967133284" lon="13.383078016340733">
        <ele>37.630000000000003</ele>
        <time>2024-09-17T09:19:24Z</time>
      </trkpt>
      <trkpt lat="52.516679037362337" lon="13.381613027304411">
        <ele>37.630000000000003</ele>
        <time>2024-09-17T09:19:34Z</time>
      </trkpt>
      <trkpt lat="52.516627991572022" lon="13.380836024880409">
        <ele>36.189999999999998</ele>
        <time>2024-09-17T09:19:44Z</time>
      </trkpt>
      <trkpt lat="52.51662296243012" lon="13.380767963826656">
        <ele>35.710000000000001</ele>
        <time>2024-09-17T09:19:55Z</time>
      </trkpt>
      <trkpt lat="52.516681971028447" lon="13.380748014897108">
        <ele>35.710000000000001</ele>
        <time>2024-09-17T09:19:56Z</time>
      </trkpt>
      <trkpt lat="52.51670996658504" lon="13.380738040432334">
        <ele>35.710000000000001</ele>
        <time>2024-09-17T09:19:57Z</time>
      </trkpt>
      <trkpt lat="52.516748020425439" lon="13.380723958835006">
        <ele>35.229999999999997</ele>
        <time>2024-09-17T09:19:58Z</time>
      </trkpt>
      <trkpt lat="52.51679303124547" lon="13.38070803321898">
        <ele>35.229999999999997</ele>
        <time>2024-09-17T09:19:59Z</time>
      </trkpt>
      <trkpt lat="52.516924040392041" lon="13.380661010742188">
        <ele>35.229999999999997</ele>
        <time>2024-09-17T09:20:00Z</time>
      </trkpt>
      <trkpt lat="52.517416980117559" lon="13.380553973838687">
        <ele>35.710000000000001</ele>
        <time>2024-09-17T09:20:08Z</time>
      </trkpt>
      <trkpt lat="52.517690984532237" lon="13.380518015474081">
        <ele>35.229999999999997</ele>
        <time>2024-09-17T09:20:17Z</time>
      </trkpt>
      <trkpt lat="52.517711017280817" lon="13.380513992160559">
        <ele>36.189999999999998</ele>
        <time>2024-09-17T09:20:32Z</time>
      </trkpt>
      <trkpt lat="52.517711017280817" lon="13.380513992160559">
        <ele>37.149999999999999</ele>
        <time>2024-09-17T09:21:04Z</time>
      </trkpt>
      <trkpt lat="52.517741024494171" lon="13.380508963018656">
        <ele>37.149999999999999</ele>
        <time>2024-09-17T09:21:18Z</time>
      </trkpt>
      <trkpt lat="52.518080994486809" lon="13.380412990227342">
        <ele>37.630000000000003</ele>
        <time>2024-09-17T09:21:19Z</time>
      </trkpt>
      <trkpt lat="52.518076971173286" lon="13.380346018821001">
        <ele>37.630000000000003</ele>
        <time>2024-09-17T09:21:20Z</time>
      </trkpt>
      <trkpt lat="52.51799700781703" lon="13.379224017262459">
        <ele>41.950000000000003</ele>
        <time>2024-09-17T09:21:30Z</time>
      </trkpt>
      <trkpt lat="52.517896005883813" lon="13.377923984080553">
        <ele>46.759999999999998</ele>
        <time>2024-09-17T09:21:41Z</time>
      </trkpt>
      <trkpt lat="52.517887037247419" lon="13.377816025167704">
        <ele>46.759999999999998</ele>
        <time>2024-09-17T09:21:42Z</time>
      </trkpt>
      <trkpt lat="52.517878990620375" lon="13.377708988264203">
        <ele>47.240000000000002</ele>
        <time>2024-09-17T09:21:43Z</time>
      </trkpt>
      <trkpt lat="52.517870021983981" lon="13.377602035179734">
        <ele>47.240000000000002</ele>
        <time>2024-09-17T09:21:44Z</time>
      </trkpt>
      <trkpt lat="52.517861975356936" lon="13.377493992447853">
        <ele>47.240000000000002</ele>
        <time>2024-09-17T09:21:45Z</time>
      </trkpt>
      <trkpt lat="52.517826016992331" lon="13.377198027446866">
        <ele>47.240000000000002</ele>
        <time>2024-09-17T09:21:48Z</time>
      </trkpt>
      <trkpt lat="52.517768014222383" lon="13.376602996140718">
        <ele>44.359999999999999</ele>
        <time>2024-09-17T09:21:53Z</time>
      </trkpt>
      <trkpt lat="52.51778201200068" lon="13.375546960160136">
        <ele>42.920000000000002</ele>
        <time>2024-09-17T09:22:02Z</time>
      </trkpt>
      <trkpt lat="52.51778201200068" lon="13.37544403038919">
        <ele>42.439999999999998</ele>
        <time>2024-09-17T09:22:03Z</time>
      </trkpt>
      <trkpt lat="52.51778201200068" lon="13.375348979607224">
        <ele>41.469999999999999</ele>
        <time>2024-09-17T09:22:04Z</time>
      </trkpt>
      <trkpt lat="52.51778201200068" lon="13.374386988580227">
        <ele>33.299999999999997</ele>
        <time>2024-09-17T09:22:15Z</time>
      </trkpt>
      <trkpt lat="52.51778201200068" lon="13.37417802773416">
        <ele>31.859999999999999</ele>
        <time>2024-09-17T09:22:17Z</time>
      </trkpt>
      <trkpt lat="52.51778201200068" lon="13.372660987079144">
        <ele>25.609999999999999</ele>
        <time>2024-09-17T09:22:31Z</time>
      </trkpt>
      <trkpt lat="52.51778201200068" lon="13.371454998850822">
        <ele>22.73</ele>
        <time>2024-09-17T09:22:42Z</time>
      </trkpt>
      <trkpt lat="52.51778201200068" lon="13.371112011373043">
        <ele>20.809999999999999</ele>
        <time>2024-09-17T09:22:51Z</time>
      </trkpt>
      <trkpt lat="52.517888965085149" lon="13.370833983644843">
        <ele>20.809999999999999</ele>
        <time>2024-09-17T09:22:58Z</time>
      </trkpt>
      <trkpt lat="52.517888965085149" lon="13.370833983644843">
        <ele>20.32</ele>
        <time>2024-09-17T09:22:59Z</time>
      </trkpt>
      <trkpt lat="52.517924001440406" lon="13.370833983644843">
        <ele>20.32</ele>
        <time>2024-09-17T09:23:00Z</time>
      </trkpt>
      <trkpt lat="52.518220972269773" lon="13.370838006958365">
        <ele>19.359999999999999</ele>
        <time>2024-09-17T09:23:05Z</time>
      </trkpt>
      <trkpt lat="52.51827604137361" lon="13.370839012786746">
        <ele>19.359999999999999</ele>
        <time>2024-09-17T09:23:06Z</time>
      </trkpt>
      <trkpt lat="52.518612993881106" lon="13.370843958109617">
        <ele>18.879999999999999</ele>
        <time>2024-09-17T09:23:16Z</time>
      </trkpt>
      <trkpt lat="52.521092025563121" lon="13.37411398999393">
        <ele>18.399999999999999</ele>
        <time>2024-09-17T09:30:28Z</time>
      </trkpt>
      <trkpt lat="52.521092025563121" lon="13.37411398999393">
        <ele>18.879999999999999</ele>
        <time>2024-09-17T09:31:04Z</time>
      </trkpt>
      <trkpt lat="52.521151034161448" lon="13.374201999977231">
        <ele>19.84</ele>
        <time>2024-09-17T09:31:07Z</time>
      </trkpt>
      <trkpt lat="52.521194033324718" lon="13.374298978596926">
        <ele>20.32</ele>
        <time>2024-09-17T09:31:08Z</time>
      </trkpt>
      <trkpt lat="52.521237032487988" lon="13.374396963045001">
        <ele>20.809999999999999</ele>
        <time>2024-09-17T09:31:09Z</time>
      </trkpt>
      <trkpt lat="52.521294029429555" lon="13.374508023262024">
        <ele>21.289999999999999</ele>
        <time>2024-09-17T09:31:10Z</time>
      </trkpt>
      <trkpt lat="52.521352032199502" lon="13.374620005488396">
        <ele>21.289999999999999</ele>
        <time>2024-09-17T09:31:11Z</time>
      </trkpt>
      <trkpt lat="52.521754028275609" lon="13.375485017895699">
        <ele>26.09</ele>
        <time>2024-09-17T09:31:20Z</time>
      </trkpt>
      <trkpt lat="52.521909009665251" lon="13.375902017578483">
        <ele>29.460000000000001</ele>
        <time>2024-09-17T09:31:30Z</time>
      </trkpt>
      <trkpt lat="52.522032978013158" lon="13.376282975077629">
        <ele>30.420000000000002</ele>
        <time>2024-09-17T09:31:40Z</time>
      </trkpt>
      <trkpt lat="52.52205896191299" lon="13.376414990052581">
        <ele>29.940000000000001</ele>
        <time>2024-09-17T09:31:44Z</time>
      </trkpt>
      <trkpt lat="52.522125011309981" lon="13.376453965902328">
        <ele>29.460000000000001</ele>
        <time>2024-09-17T09:31:45Z</time>
      </trkpt>
      <trkpt lat="52.522167004644871" lon="13.376418007537723">
        <ele>29.460000000000001</ele>
        <time>2024-09-17T09:31:46Z</time>
      </trkpt>
      <trkpt lat="52.522224001586437" lon="13.37636997923255">
        <ele>29.460000000000001</ele>
        <time>2024-09-17T09:31:47Z</time>
      </trkpt>
      <trkpt lat="52.522267000749707" lon="13.37632698006928">
        <ele>28.98</ele>
        <time>2024-09-17T09:31:48Z</time>
      </trkpt>
      <trkpt lat="52.522320980206132" lon="13.376250034198165">
        <ele>28.5</ele>
        <time>2024-09-17T09:31:49Z</time>
      </trkpt>
      <trkpt lat="52.522370014339685" lon="13.376180967316031">
        <ele>28.5</ele>
        <time>2024-09-17T09:31:50Z</time>
      </trkpt>
      <trkpt lat="52.522418964654207" lon="13.376110978424549">
        <ele>28.02</ele>
        <time>2024-09-17T09:31:51Z</time>
      </trkpt>
      <trkpt lat="52.522469004616141" lon="13.376039983704686">
        <ele>28.02</ele>
        <time>2024-09-17T09:31:52Z</time>
      </trkpt>
      <trkpt lat="52.522725993767381" lon="13.375575039535761">
        <ele>26.57</ele>
        <time>2024-09-17T09:31:58Z</time>
      </trkpt>
      <trkpt lat="52.522857002913952" lon="13.375321989879012">
        <ele>26.57</ele>
        <time>2024-09-17T09:32:01Z</time>
      </trkpt>
      <trkpt lat="52.52324097789824" lon="13.374390006065369">
        <ele>27.530000000000001</ele>
        <time>2024-09-17T09:32:08Z</time>
      </trkpt>
      <trkpt lat="52.523355977609754" lon="13.373937970027328">
        <ele>27.530000000000001</ele>
        <time>2024-09-17T09:32:11Z</time>
      </trkpt>
      <trkpt lat="52.523533003404737" lon="13.372802976518869">
        <ele>30.420000000000002</ele>
        <time>2024-09-17T09:32:20Z</time>
      </trkpt>
      <trkpt lat="52.523527974262834" lon="13.371525993570685">
        <ele>35.710000000000001</ele>
        <time>2024-09-17T09:32:30Z</time>
      </trkpt>
      <trkpt lat="52.523245001211762" lon="13.370005013421178">
        <ele>31.379999999999999</ele>
        <time>2024-09-17T09:32:43Z</time>
      </trkpt>
      <trkpt lat="52.522738985717297" lon="13.368796007707715">
        <ele>30.420000000000002</ele>
        <time>2024-09-17T09:32:55Z</time>
      </trkpt>
      <trkpt lat="52.522537987679243" lon="13.368433993309736">
        <ele>31.859999999999999</ele>
        <time>2024-09-17T09:33:03Z</time>
      </trkpt>
      <trkpt lat="52.522346964105964" lon="13.368152026087046">
        <ele>31.859999999999999</ele>
        <time>2024-09-17T09:33:14Z</time>
      </trkpt>
      <trkpt lat="52.522318968549371" lon="13.368111038580537">
        <ele>31.379999999999999</ele>
        <time>2024-09-17T09:33:15Z</time>
      </trkpt>
      <trkpt lat="52.522352999076247" lon="13.367902999743819">
        <ele>30.420000000000002</ele>
        <time>2024-09-17T09:33:16Z</time>
      </trkpt>
      <trkpt lat="52.522417036816478" lon="13.367743995040655">
        <ele>29.460000000000001</ele>
        <time>2024-09-17T09:33:17Z</time>
      </trkpt>
      <trkpt lat="52.522417036816478" lon="13.367743995040655">
        <ele>28.98</ele>
        <time>2024-09-17T09:33:18Z</time>
      </trkpt>
      <trkpt lat="52.522418964654207" lon="13.367728991433978">
        <ele>28.5</ele>
        <time>2024-09-17T09:33:19Z</time>
      </trkpt>
      <trkpt lat="52.522479984909296" lon="13.367240997031331">
        <ele>25.609999999999999</ele>
        <time>2024-09-17T09:33:24Z</time>
      </trkpt>
      <trkpt lat="52.522549973800778" lon="13.366730958223343">
        <ele>23.210000000000001</ele>
        <time>2024-09-17T09:33:28Z</time>
      </trkpt>
      <trkpt lat="52.522823978215456" lon="13.364654006436467">
        <ele>20.32</ele>
        <time>2024-09-17T09:33:42Z</time>
      </trkpt>
      <trkpt lat="52.522951969876885" lon="13.363885972648859">
        <ele>21.289999999999999</ele>
        <time>2024-09-17T09:33:47Z</time>
      </trkpt>
      <trkpt lat="52.523093959316611" lon="13.362982990220189">
        <ele>20.809999999999999</ele>
        <time>2024-09-17T09:33:52Z</time>
      </trkpt>
      <trkpt lat="52.523117009550333" lon="13.362795989960432">
        <ele>20.809999999999999</ele>
        <time>2024-09-17T09:33:53Z</time>
      </trkpt>
      <trkpt lat="52.523257993161678" lon="13.361623026430607">
        <ele>19.359999999999999</ele>
        <time>2024-09-17T09:34:00Z</time>
      </trkpt>
      <trkpt lat="52.523294035345316" lon="13.361323038116097">
        <ele>18.399999999999999</ele>
        <time>2024-09-17T09:34:05Z</time>
      </trkpt>
      <trkpt lat="52.523301998153329" lon="13.361253971233964">
        <ele>18.399999999999999</ele>
        <time>2024-09-17T09:34:17Z</time>
      </trkpt>
      <trkpt lat="52.52332697622478" lon="13.361047022044659">
        <ele>18.399999999999999</ele>
        <time>2024-09-17T09:35:01Z</time>
      </trkpt>
      <trkpt lat="52.523424038663507" lon="13.360243029892445">
        <ele>17.920000000000002</ele>
        <time>2024-09-17T09:35:07Z</time>
      </trkpt>
      <trkpt lat="52.523443987593055" lon="13.360074972733855">
        <ele>18.399999999999999</ele>
        <time>2024-09-17T09:35:08Z</time>
      </trkpt>
      <trkpt lat="52.523649008944631" lon="13.358134981244802">
        <ele>20.809999999999999</ele>
        <time>2024-09-17T09:35:21Z</time>
      </trkpt>
      <trkpt lat="52.523669963702559" lon="13.357861982658505">
        <ele>20.32</ele>
        <time>2024-09-17T09:35:23Z</time>
      </trkpt>
      <trkpt lat="52.523678010329604" lon="13.357727034017444">
        <ele>20.32</ele>
        <time>2024-09-17T09:35:24Z</time>
      </trkpt>
      <trkpt lat="52.523795021697879" lon="13.355983011424541">
        <ele>21.77</ele>
        <time>2024-09-17T09:35:35Z</time>
      </trkpt>
      <trkpt lat="52.523961989209056" lon="13.354388019070029">
        <ele>21.77</ele>
        <time>2024-09-17T09:35:45Z</time>
      </trkpt>
      <trkpt lat="52.524124011397362" lon="13.353002993389964">
        <ele>21.289999999999999</ele>
        <time>2024-09-17T09:35:55Z</time>
      </trkpt>
      <trkpt lat="52.524245968088508" lon="13.352140998467803">
        <ele>22.73</ele>
        <time>2024-09-17T09:36:03Z</time>
      </trkpt>
      <trkpt lat="52.524400027468801" lon="13.350896034389734">
        <ele>24.170000000000002</ele>
        <time>2024-09-17T09:36:14Z</time>
      </trkpt>
      <trkpt lat="52.524419976398349" lon="13.350710039958358">
        <ele>24.170000000000002</ele>
        <time>2024-09-17T09:36:16Z</time>
      </trkpt>
      <trkpt lat="52.524461969733238" lon="13.350338973104954">
        <ele>24.649999999999999</ele>
        <time>2024-09-17T09:36:21Z</time>
      </trkpt>
      <trkpt lat="52.524504968896508" lon="13.349987016990781">
        <ele>24.170000000000002</ele>
        <time>2024-09-17T09:36:31Z</time>
      </trkpt>
      <trkpt lat="52.524534976109862" lon="13.349579991772771">
        <ele>24.170000000000002</ele>
        <time>2024-09-17T09:36:50Z</time>
      </trkpt>
      <trkpt lat="52.524709990248084" lon="13.348361011594534">
        <ele>23.210000000000001</ele>
        <time>2024-09-17T09:37:01Z</time>
      </trkpt>
      <trkpt lat="52.524748966097832" lon="13.348026992753148">
        <ele>22.25</ele>
        <time>2024-09-17T09:37:04Z</time>
      </trkpt>
      <trkpt lat="52.524787019938231" lon="13.347695991396904">
        <ele>21.77</ele>
        <time>2024-09-17T09:37:07Z</time>
      </trkpt>
      <trkpt lat="52.524864971637726" lon="13.347016973420978">
        <ele>19.84</ele>
        <time>2024-09-17T09:37:13Z</time>
      </trkpt>
      <trkpt lat="52.524878969416022" lon="13.346889987587929">
        <ele>19.359999999999999</ele>
        <time>2024-09-17T09:37:14Z</time>
      </trkpt>
      <trkpt lat="52.524892967194319" lon="13.346769958734512">
        <ele>19.359999999999999</ele>
        <time>2024-09-17T09:37:15Z</time>
      </trkpt>
      <trkpt lat="52.524977959692478" lon="13.346028998494148">
        <ele>17.440000000000001</ele>
        <time>2024-09-17T09:37:21Z</time>
      </trkpt>
      <trkpt lat="52.525110980495811" lon="13.34500296972692">
        <ele>14.56</ele>
        <time>2024-09-17T09:37:30Z</time>
      </trkpt>
      <trkpt lat="52.525151968002319" lon="13.344669034704566">
        <ele>13.119999999999999</ele>
        <time>2024-09-17T09:37:33Z</time>
      </trkpt>
      <trkpt lat="52.525292029604316" lon="13.343710983172059">
        <ele>11.19</ele>
        <time>2024-09-17T09:37:43Z</time>
      </trkpt>
      <trkpt lat="52.525320025160909" lon="13.343504033982754">
        <ele>12.15</ele>
        <time>2024-09-17T09:37:53Z</time>
      </trkpt>
      <trkpt lat="52.525375010445714" lon="13.343128021806479">
        <ele>15.52</ele>
        <time>2024-09-17T09:38:23Z</time>
      </trkpt>
      <trkpt lat="52.525464026257396" lon="13.342400975525379">
        <ele>16</ele>
        <time>2024-09-17T09:38:29Z</time>
      </trkpt>
      <trkpt lat="52.525616995990276" lon="13.340838002040982">
        <ele>16</ele>
        <time>2024-09-17T09:38:40Z</time>
      </trkpt>
      <trkpt lat="52.525777006521821" lon="13.339506033807993">
        <ele>13.6</ele>
        <time>2024-09-17T09:38:51Z</time>
      </trkpt>
      <trkpt lat="52.525792010128498" lon="13.339388016611338">
        <ele>13.6</ele>
        <time>2024-09-17T09:38:52Z</time>
      </trkpt>
      <trkpt lat="52.525807013735175" lon="13.339266981929541">
        <ele>13.119999999999999</ele>
        <time>2024-09-17T09:38:53Z</time>
      </trkpt>
      <trkpt lat="52.52575202845037" lon="13.339037988334894">
        <ele>12.630000000000001</ele>
        <time>2024-09-17T09:38:55Z</time>
      </trkpt>
      <trkpt lat="52.525725038722157" lon="13.338925000280142">
        <ele>12.630000000000001</ele>
        <time>2024-09-17T09:38:56Z</time>
      </trkpt>
      <trkpt lat="52.525391019880772" lon="13.33752597682178">
        <ele>9.75</ele>
        <time>2024-09-17T09:39:08Z</time>
      </trkpt>
      <trkpt lat="52.52536503598094" lon="13.33741701208055">
        <ele>9.27</ele>
        <time>2024-09-17T09:39:09Z</time>
      </trkpt>
      <trkpt lat="52.525338968262076" lon="13.33730704151094">
        <ele>8.789999999999999</ele>
        <time>2024-09-17T09:39:10Z</time>
      </trkpt>
      <trkpt lat="52.525284988805652" lon="13.337077964097261">
        <ele>7.83</ele>
        <time>2024-09-17T09:39:12Z</time>
      </trkpt>
      <trkpt lat="52.525257999077439" lon="13.336962964385748">
        <ele>7.35</ele>
        <time>2024-09-17T09:39:13Z</time>
      </trkpt>
      <trkpt lat="52.525207037106156" lon="13.336744029074907">
        <ele>6.39</ele>
        <time>2024-09-17T09:39:15Z</time>
      </trkpt>
      <trkpt lat="52.525179963558912" lon="13.336630035191774">
        <ele>5.91</ele>
        <time>2024-09-17T09:39:16Z</time>
      </trkpt>
      <trkpt lat="52.524900007992983" lon="13.335465034469962">
        <ele>2.54</ele>
        <time>2024-09-17T09:39:26Z</time>
      </trkpt>
      <trkpt lat="52.524873018264771" lon="13.335350034758449">
        <ele>2.54</ele>
        <time>2024-09-17T09:39:27Z</time>
      </trkpt>
      <trkpt lat="52.524649975821376" lon="13.334692977368832">
        <ele>2.06</ele>
        <time>2024-09-17T09:39:33Z</time>
      </trkpt>
      <trkpt lat="52.524623991921544" lon="13.334578983485699">
        <ele>2.06</ele>
        <time>2024-09-17T09:39:34Z</time>
      </trkpt>
      <trkpt lat="52.524597002193332" lon="13.334461972117424">
        <ele>2.06</ele>
        <time>2024-09-17T09:39:35Z</time>
      </trkpt>
      <trkpt lat="52.524570012465119" lon="13.33434596657753">
        <ele>2.06</ele>
        <time>2024-09-17T09:39:36Z</time>
      </trkpt>
      <trkpt lat="52.524554003030062" lon="13.334231972694397">
        <ele>2.06</ele>
        <time>2024-09-17T09:39:37Z</time>
      </trkpt>
      <trkpt lat="52.524540005251765" lon="13.334114961326122">
        <ele>2.06</ele>
        <time>2024-09-17T09:39:38Z</time>
      </trkpt>
      <trkpt lat="52.524475967511535" lon="13.333778008818626">
        <ele>1.58</ele>
        <time>2024-09-17T09:39:41Z</time>
      </trkpt>
      <trkpt lat="52.524171033874154" lon="13.332144962623715">
        <ele>4.46</ele>
        <time>2024-09-17T09:39:55Z</time>
      </trkpt>
      <trkpt lat="52.523936005309224" lon="13.330593975260854">
        <ele>11.67</ele>
        <time>2024-09-17T09:40:10Z</time>
      </trkpt>
      <trkpt lat="52.523890994489193" lon="13.330330029129982">
        <ele>14.08</ele>
        <time>2024-09-17T09:40:20Z</time>
      </trkpt>
      <trkpt lat="52.523858975619078" lon="13.330147974193096">
        <ele>14.08</ele>
        <time>2024-09-17T09:40:28Z</time>
      </trkpt>
      <trkpt lat="52.523829974234104" lon="13.329473985359073">
        <ele>14.08</ele>
        <time>2024-09-17T09:40:35Z</time>
      </trkpt>
      <trkpt lat="52.523855036124587" lon="13.329355968162417">
        <ele>14.56</ele>
        <time>2024-09-17T09:40:36Z</time>
      </trkpt>
      <trkpt lat="52.523879008367658" lon="13.329262007027864">
        <ele>14.08</ele>
        <time>2024-09-17T09:40:37Z</time>
      </trkpt>
      <trkpt lat="52.524001970887184" lon="13.32878197543323">
        <ele>13.119999999999999</ele>
        <time>2024-09-17T09:40:42Z</time>
      </trkpt>
      <trkpt lat="52.524027032777667" lon="13.328686002641916">
        <ele>12.630000000000001</ele>
        <time>2024-09-17T09:40:43Z</time>
      </trkpt>
      <trkpt lat="52.52410096116364" lon="13.328417027369142">
        <ele>10.710000000000001</ele>
        <time>2024-09-17T09:40:51Z</time>
      </trkpt>
      <trkpt lat="52.52410096116364" lon="13.328417027369142">
        <ele>10.710000000000001</ele>
        <time>2024-09-17T09:41:14Z</time>
      </trkpt>
      <trkpt lat="52.524236999452114" lon="13.327932972460985">
        <ele>11.19</ele>
        <time>2024-09-17T09:41:26Z</time>
      </trkpt>
      <trkpt lat="52.524751983582973" lon="13.326332028955221">
        <ele>15.039999999999999</ele>
        <time>2024-09-17T09:41:37Z</time>
      </trkpt>
      <trkpt lat="52.524790037423372" lon="13.326216023415327">
        <ele>15.039999999999999</ele>
        <time>2024-09-17T09:41:38Z</time>
      </trkpt>
      <trkpt lat="52.524828007444739" lon="13.326100017875433">
        <ele>15.039999999999999</ele>
        <time>2024-09-17T09:41:39Z</time>
      </trkpt>
      <trkpt lat="52.524865977466106" lon="13.325985018163919">
        <ele>15.039999999999999</ele>
        <time>2024-09-17T09:41:40Z</time>
      </trkpt>
      <trkpt lat="52.524905037134886" lon="13.325867000967264">
        <ele>15.039999999999999</ele>
        <time>2024-09-17T09:41:41Z</time>
      </trkpt>
      <trkpt lat="52.524948036298156" lon="13.325734985992312">
        <ele>15.52</ele>
        <time>2024-09-17T09:41:42Z</time>
      </trkpt>
      <trkpt lat="52.524992041289806" lon="13.3256009593606">
        <ele>15.039999999999999</ele>
        <time>2024-09-17T09:41:43Z</time>
      </trkpt>
      <trkpt lat="52.525020036846399" lon="13.325486965477467">
        <ele>14.56</ele>
        <time>2024-09-17T09:41:44Z</time>
      </trkpt>
      <trkpt lat="52.525049038231373" lon="13.325370959937572">
        <ele>14.08</ele>
        <time>2024-09-17T09:41:45Z</time>
      </trkpt>
      <trkpt lat="52.52510997466743" lon="13.325126962736249">
        <ele>13.6</ele>
        <time>2024-09-17T09:41:47Z</time>
      </trkpt>
      <trkpt lat="52.525177029892802" lon="13.324857987463474">
        <ele>13.6</ele>
        <time>2024-09-17T09:41:49Z</time>
      </trkpt>
      <trkpt lat="52.525210976600647" lon="13.324721027165651">
        <ele>13.6</ele>
        <time>2024-09-17T09:41:50Z</time>
      </trkpt>
      <trkpt lat="52.525242995470762" lon="13.324594041332603">
        <ele>13.119999999999999</ele>
        <time>2024-09-17T09:41:51Z</time>
      </trkpt>
      <trkpt lat="52.525273002684116" lon="13.324475018307567">
        <ele>12.630000000000001</ele>
        <time>2024-09-17T09:41:52Z</time>
      </trkpt>
      <trkpt lat="52.525299992412329" lon="13.324368987232447">
        <ele>12.15</ele>
        <time>2024-09-17T09:41:53Z</time>
      </trkpt>
      <trkpt lat="52.525350032374263" lon="13.324165977537632">
        <ele>11.19</ele>
        <time>2024-09-17T09:41:55Z</time>
      </trkpt>
      <trkpt lat="52.525436030700803" lon="13.323803041130304">
        <ele>9.75</ele>
        <time>2024-09-17T09:41:58Z</time>
      </trkpt>
      <trkpt lat="52.525460002943873" lon="13.323683012276888">
        <ele>9.75</ele>
        <time>2024-09-17T09:41:59Z</time>
      </trkpt>
      <trkpt lat="52.525483975186944" lon="13.323555020615458">
        <ele>9.27</ele>
        <time>2024-09-17T09:42:00Z</time>
      </trkpt>
      <trkpt lat="52.525509037077427" lon="13.323426023125648">
        <ele>9.27</ele>
        <time>2024-09-17T09:42:01Z</time>
      </trkpt>
      <trkpt lat="52.525550024583936" lon="13.323218990117311">
        <ele>9.27</ele>
        <time>2024-09-17T09:42:02Z</time>
      </trkpt>
      <trkpt lat="52.525556981563568" lon="13.323165010660887">
        <ele>8.789999999999999</ele>
        <time>2024-09-17T09:42:03Z</time>
      </trkpt>
      <trkpt lat="52.525575002655387" lon="13.323026038706303">
        <ele>8.310000000000001</ele>
        <time>2024-09-17T09:42:04Z</time>
      </trkpt>
      <trkpt lat="52.525592017918825" lon="13.322898969054222">
        <ele>7.35</ele>
        <time>2024-09-17T09:42:05Z</time>
      </trkpt>
      <trkpt lat="52.525607021525502" lon="13.322787992656231">
        <ele>6.39</ele>
        <time>2024-09-17T09:42:06Z</time>
      </trkpt>
      <trkpt lat="52.525621019303799" lon="13.322681961581111">
        <ele>4.94</ele>
        <time>2024-09-17T09:42:07Z</time>
      </trkpt>
      <trkpt lat="52.525635017082095" lon="13.322576014325023">
        <ele>3.02</ele>
        <time>2024-09-17T09:42:08Z</time>
      </trkpt>
      <trkpt lat="52.525650020688772" lon="13.322465037927032">
        <ele>1.58</ele>
        <time>2024-09-17T09:42:09Z</time>
      </trkpt>
      <trkpt lat="52.525663012638688" lon="13.322365041822195">
        <ele>0.14</ele>
        <time>2024-09-17T09:42:10Z</time>
      </trkpt>
      <trkpt lat="52.525674998760223" lon="13.322279965505004">
        <ele>-1.3</ele>
        <time>2024-09-17T09:42:11Z</time>
      </trkpt>
      <trkpt lat="52.525686984881759" lon="13.322186004370451">
        <ele>-3.23</ele>
        <time>2024-09-17T09:42:12Z</time>
      </trkpt>
      <trkpt lat="52.525699976831675" lon="13.322089025750756">
        <ele>-4.67</ele>
        <time>2024-09-17T09:42:13Z</time>
      </trkpt>
      <trkpt lat="52.52571296878159" lon="13.32199196331203">
        <ele>-6.59</ele>
        <time>2024-09-17T09:42:14Z</time>
      </trkpt>
      <trkpt lat="52.525769965723157" lon="13.321565994992852">
        <ele>-12.84</ele>
        <time>2024-09-17T09:42:18Z</time>
      </trkpt>
      <trkpt lat="52.52581799402833" lon="13.321027960628271">
        <ele>-21.010000000000002</ele>
        <time>2024-09-17T09:42:23Z</time>
      </trkpt>
      <trkpt lat="52.52584096044302" lon="13.319554002955556">
        <ele>-22.93</ele>
        <time>2024-09-17T09:42:34Z</time>
      </trkpt>
      <trkpt lat="52.52583903260529" lon="13.319427017122507">
        <ele>-22.449999999999999</ele>
        <time>2024-09-17T09:42:35Z</time>
      </trkpt>
      <trkpt lat="52.525831991806626" lon="13.318841960281134">
        <ele>-19.57</ele>
        <time>2024-09-17T09:42:43Z</time>
      </trkpt>
      <trkpt lat="52.525831991806626" lon="13.318811031058431">
        <ele>-19.09</ele>
        <time>2024-09-17T09:42:55Z</time>
      </trkpt>
      <trkpt lat="52.525829980149865" lon="13.318708017468452">
        <ele>-18.129999999999999</ele>
        <time>2024-09-17T09:43:08Z</time>
      </trkpt>
      <trkpt lat="52.525807013735175" lon="13.318283976987004">
        <ele>-14.76</ele>
        <time>2024-09-17T09:43:12Z</time>
      </trkpt>
      <trkpt lat="52.525807013735175" lon="13.318104017525911">
        <ele>-14.279999999999999</ele>
        <time>2024-09-17T09:43:13Z</time>
      </trkpt>
      <trkpt lat="52.525807013735175" lon="13.317588027566671">
        <ele>-12.84</ele>
        <time>2024-09-17T09:43:17Z</time>
      </trkpt>
      <trkpt lat="52.525807013735175" lon="13.317127022892237">
        <ele>-10.92</ele>
        <time>2024-09-17T09:43:21Z</time>
      </trkpt>
      <trkpt lat="52.525807013735175" lon="13.316926024854183">
        <ele>-10.92</ele>
        <time>2024-09-17T09:43:23Z</time>
      </trkpt>
      <trkpt lat="52.525807013735175" lon="13.316827034577727">
        <ele>-10.92</ele>
        <time>2024-09-17T09:43:24Z</time>
      </trkpt>
      <trkpt lat="52.525807013735175" lon="13.31655403599143">
        <ele>-9.960000000000001</ele>
        <time>2024-09-17T09:43:28Z</time>
      </trkpt>
      <trkpt lat="52.525807013735175" lon="13.316503996029496">
        <ele>-9.48</ele>
        <time>2024-09-17T09:43:29Z</time>
      </trkpt>
      <trkpt lat="52.525807013735175" lon="13.31646703183651">
        <ele>-9</ele>
        <time>2024-09-17T09:43:30Z</time>
      </trkpt>
      <trkpt lat="52.525807013735175" lon="13.316451022401452">
        <ele>-8.51</ele>
        <time>2024-09-17T09:43:34Z</time>
      </trkpt>
      <trkpt lat="52.525807013735175" lon="13.316394025459886">
        <ele>-8.51</ele>
        <time>2024-09-17T09:43:35Z</time>
      </trkpt>
      <trkpt lat="52.525807013735175" lon="13.316304003819823">
        <ele>-8.029999999999999</ele>
        <time>2024-09-17T09:43:36Z</time>
      </trkpt>
      <trkpt lat="52.525785975158215" lon="13.315285015851259">
        <ele>-3.71</ele>
        <time>2024-09-17T09:43:43Z</time>
      </trkpt>
      <trkpt lat="52.525785975158215" lon="13.314941022545099">
        <ele>-1.3</ele>
        <time>2024-09-17T09:43:46Z</time>
      </trkpt>
      <trkpt lat="52.525785975158215" lon="13.314852006733418">
        <ele>-0.34</ele>
        <time>2024-09-17T09:43:47Z</time>
      </trkpt>
      <trkpt lat="52.525782035663724" lon="13.314542965963483">
        <ele>0.62</ele>
        <time>2024-09-17T09:43:52Z</time>
      </trkpt>
      <trkpt lat="52.525764014571905" lon="13.313841987401247">
        <ele>1.58</ele>
        <time>2024-09-17T09:43:58Z</time>
      </trkpt>
      <trkpt lat="52.525764014571905" lon="13.313768981024623">
        <ele>1.58</ele>
        <time>2024-09-17T09:43:59Z</time>
      </trkpt>
      <trkpt lat="52.525764014571905" lon="13.313541999086738">
        <ele>1.58</ele>
        <time>2024-09-17T09:44:00Z</time>
      </trkpt>
      <trkpt lat="52.525764014571905" lon="13.312367023900151">
        <ele>-0.34</ele>
        <time>2024-09-17T09:44:09Z</time>
      </trkpt>
      <trkpt lat="52.525764014571905" lon="13.312009032815695">
        <ele>-0.82</ele>
        <time>2024-09-17T09:44:11Z</time>
      </trkpt>
      <trkpt lat="52.525764014571905" lon="13.311836030334234">
        <ele>-1.3</ele>
        <time>2024-09-17T09:44:12Z</time>
      </trkpt>
      <trkpt lat="52.525764014571905" lon="13.311667973175645">
        <ele>-1.3</ele>
        <time>2024-09-17T09:44:13Z</time>
      </trkpt>
      <trkpt lat="52.525764014571905" lon="13.311321968212724">
        <ele>-1.79</ele>
        <time>2024-09-17T09:44:15Z</time>
      </trkpt>
      <trkpt lat="52.525764014571905" lon="13.31116103567183">
        <ele>-1.79</ele>
        <time>2024-09-17T09:44:16Z</time>
      </trkpt>
      <trkpt lat="52.525764014571905" lon="13.310770019888878">
        <ele>-3.23</ele>
        <time>2024-09-17T09:44:19Z</time>
      </trkpt>
      <trkpt lat="52.525757979601622" lon="13.310467014089227">
        <ele>-5.63</ele>
        <time>2024-09-17T09:44:26Z</time>
      </trkpt>
      <trkpt lat="52.525749010965228" lon="13.310103993862867">
        <ele>-6.59</ele>
        <time>2024-09-17T09:44:43Z</time>
      </trkpt>
      <trkpt lat="52.525729984045029" lon="13.308815024793148">
        <ele>-3.23</ele>
        <time>2024-09-17T09:44:52Z</time>
      </trkpt>
      <trkpt lat="52.525725960731506" lon="13.308657025918365">
        <ele>-3.23</ele>
        <time>2024-09-17T09:44:53Z</time>
      </trkpt>
      <trkpt lat="52.525721015408635" lon="13.307519014924765">
        <ele>-3.71</ele>
        <time>2024-09-17T09:45:01Z</time>
      </trkpt>
      <trkpt lat="52.525721015408635" lon="13.307386999949813">
        <ele>-3.71</ele>
        <time>2024-09-17T09:45:02Z</time>
      </trkpt>
      <trkpt lat="52.525721015408635" lon="13.307134034112096">
        <ele>-3.71</ele>
        <time>2024-09-17T09:45:04Z</time>
      </trkpt>
      <trkpt lat="52.525721015408635" lon="13.30701501108706">
        <ele>-3.71</ele>
        <time>2024-09-17T09:45:05Z</time>
      </trkpt>
      <trkpt lat="52.525721015408635" lon="13.305809022858739">
        <ele>-0.82</ele>
        <time>2024-09-17T09:45:14Z</time>
      </trkpt>
      <trkpt lat="52.525721015408635" lon="13.305676002055407">
        <ele>-0.34</ele>
        <time>2024-09-17T09:45:15Z</time>
      </trkpt>
      <trkpt lat="52.525721015408635" lon="13.304787017405033">
        <ele>6.87</ele>
        <time>2024-09-17T09:45:24Z</time>
      </trkpt>
      <trkpt lat="52.52571296878159" lon="13.30471602268517">
        <ele>7.83</ele>
        <time>2024-09-17T09:45:25Z</time>
      </trkpt>
      <trkpt lat="52.525705005973577" lon="13.304636981338263">
        <ele>8.789999999999999</ele>
        <time>2024-09-17T09:45:26Z</time>
      </trkpt>
      <trkpt lat="52.525696037337184" lon="13.304563974961638">
        <ele>9.27</ele>
        <time>2024-09-17T09:45:27Z</time>
      </trkpt>
      <trkpt lat="52.52568899653852" lon="13.304494991898537">
        <ele>10.23</ele>
        <time>2024-09-17T09:45:28Z</time>
      </trkpt>
      <trkpt lat="52.525680027902126" lon="13.304416034370661">
        <ele>10.710000000000001</ele>
        <time>2024-09-17T09:45:29Z</time>
      </trkpt>
      <trkpt lat="52.52566896378994" lon="13.304320983588696">
        <ele>11.19</ele>
        <time>2024-09-17T09:45:30Z</time>
      </trkpt>
      <trkpt lat="52.525655971840024" lon="13.30420296639204">
        <ele>11.67</ele>
        <time>2024-09-17T09:45:31Z</time>
      </trkpt>
      <trkpt lat="52.52562697045505" lon="13.303934996947646">
        <ele>12.630000000000001</ele>
        <time>2024-09-17T09:45:33Z</time>
      </trkpt>
      <trkpt lat="52.525613978505135" lon="13.303789990022779">
        <ele>12.630000000000001</ele>
        <time>2024-09-17T09:45:34Z</time>
      </trkpt>
      <trkpt lat="52.525613978505135" lon="13.303632996976376">
        <ele>12.630000000000001</ele>
        <time>2024-09-17T09:45:35Z</time>
      </trkpt>
      <trkpt lat="52.52562697045505" lon="13.30349201336503">
        <ele>12.630000000000001</ele>
        <time>2024-09-17T09:45:36Z</time>
      </trkpt>
      <trkpt lat="52.52564700320363" lon="13.303355975076556">
        <ele>13.119999999999999</ele>
        <time>2024-09-17T09:45:37Z</time>
      </trkpt>
      <trkpt lat="52.52566603012383" lon="13.303222032263875">
        <ele>12.630000000000001</ele>
        <time>2024-09-17T09:45:38Z</time>
      </trkpt>
      <trkpt lat="52.525684973224998" lon="13.303086999803782">
        <ele>12.630000000000001</ele>
        <time>2024-09-17T09:45:39Z</time>
      </trkpt>
      <trkpt lat="52.525740964338183" lon="13.30269799567759">
        <ele>12.630000000000001</ele>
        <time>2024-09-17T09:45:42Z</time>
      </trkpt>
      <trkpt lat="52.525792010128498" lon="13.302338998764753">
        <ele>12.630000000000001</ele>
        <time>2024-09-17T09:45:45Z</time>
      </trkpt>
      <trkpt lat="52.525826962664723" lon="13.302092989906669">
        <ele>12.15</ele>
        <time>2024-09-17T09:45:47Z</time>
      </trkpt>
      <trkpt lat="52.525843977928162" lon="13.301971033215523">
        <ele>11.67</ele>
        <time>2024-09-17T09:45:48Z</time>
      </trkpt>
      <trkpt lat="52.526038018986583" lon="13.300640992820263">
        <ele>7.35</ele>
        <time>2024-09-17T09:46:00Z</time>
      </trkpt>
      <trkpt lat="52.52605302259326" lon="13.300551977008581">
        <ele>6.87</ele>
        <time>2024-09-17T09:46:01Z</time>
      </trkpt>
      <trkpt lat="52.526070037856698" lon="13.300457010045648">
        <ele>6.39</ele>
        <time>2024-09-17T09:46:02Z</time>
      </trkpt>
      <trkpt lat="52.526087975129485" lon="13.300352990627289">
        <ele>6.39</ele>
        <time>2024-09-17T09:46:03Z</time>
      </trkpt>
      <trkpt lat="52.526128962635994" lon="13.300120979547501">
        <ele>5.91</ele>
        <time>2024-09-17T09:46:05Z</time>
      </trkpt>
      <trkpt lat="52.526150001212955" lon="13.300002962350845">
        <ele>5.42</ele>
        <time>2024-09-17T09:46:06Z</time>
      </trkpt>
      <trkpt lat="52.526193000376225" lon="13.299766005948186">
        <ele>3.98</ele>
        <time>2024-09-17T09:46:08Z</time>
      </trkpt>
      <trkpt lat="52.526210015639663" lon="13.299656035378575">
        <ele>3.5</ele>
        <time>2024-09-17T09:46:09Z</time>
      </trkpt>
      <trkpt lat="52.526415036991239" lon="13.298273021355271">
        <ele>0.62</ele>
        <time>2024-09-17T09:46:21Z</time>
      </trkpt>
      <trkpt lat="52.526502963155508" lon="13.297615963965654">
        <ele>1.1</ele>
        <time>2024-09-17T09:46:29Z</time>
      </trkpt>
      <trkpt lat="52.526516038924456" lon="13.297530971467495">
        <ele>0.62</ele>
        <time>2024-09-17T09:46:30Z</time>
      </trkpt>
      <trkpt lat="52.526611005887389" lon="13.297361992299557">
        <ele>0.62</ele>
        <time>2024-09-17T09:46:31Z</time>
      </trkpt>
      <trkpt lat="52.526672026142478" lon="13.297343971207738">
        <ele>0.14</ele>
        <time>2024-09-17T09:46:32Z</time>
      </trkpt>
      <trkpt lat="52.526740003377199" lon="13.29732402227819">
        <ele>0.14</ele>
        <time>2024-09-17T09:46:33Z</time>
      </trkpt>
      <trkpt lat="52.52755799330771" lon="13.297081030905247">
        <ele>-2.27</ele>
        <time>2024-09-17T09:46:42Z</time>
      </trkpt>
      <trkpt lat="52.52841898240149" lon="13.296824963763356">
        <ele>2.06</ele>
        <time>2024-09-17T09:46:51Z</time>
      </trkpt>
      <trkpt lat="52.528517972677946" lon="13.296796968206763">
        <ele>3.02</ele>
        <time>2024-09-17T09:46:52Z</time>
      </trkpt>
      <trkpt lat="52.528971014544368" lon="13.296602005138993">
        <ele>11.19</ele>
        <time>2024-09-17T09:46:59Z</time>
      </trkpt>
      <trkpt lat="52.529009990394115" lon="13.296582978218794">
        <ele>13.6</ele>
        <time>2024-09-17T09:47:01Z</time>
      </trkpt>
      <trkpt lat="52.529048966243863" lon="13.296564035117626">
        <ele>16.48</ele>
        <time>2024-09-17T09:47:16Z</time>
      </trkpt>
      <trkpt lat="52.529440987855196" lon="13.296363959088922">
        <ele>20.809999999999999</ele>
        <time>2024-09-17T09:47:22Z</time>
      </trkpt>
      <trkpt lat="52.529525980353355" lon="13.296332024037838">
        <ele>21.289999999999999</ele>
        <time>2024-09-17T09:47:23Z</time>
      </trkpt>
      <trkpt lat="52.530020009726286" lon="13.296128008514643">
        <ele>22.73</ele>
        <time>2024-09-17T09:47:29Z</time>
      </trkpt>
      <trkpt lat="52.530156970024109" lon="13.29608098603785">
        <ele>24.649999999999999</ele>
        <time>2024-09-17T09:47:31Z</time>
      </trkpt>
      <trkpt lat="52.530218996107578" lon="13.296059025451541">
        <ele>25.609999999999999</ele>
        <time>2024-09-17T09:47:32Z</time>
      </trkpt>
      <trkpt lat="52.530273981392384" lon="13.296038992702961">
        <ele>26.57</ele>
        <time>2024-09-17T09:47:33Z</time>
      </trkpt>
      <trkpt lat="52.531003961339593" lon="13.295754007995129">
        <ele>32.340000000000003</ele>
        <time>2024-09-17T09:47:41Z</time>
      </trkpt>
      <trkpt lat="52.531970981508493" lon="13.295174986124039">
        <ele>37.149999999999999</ele>
        <time>2024-09-17T09:47:50Z</time>
      </trkpt>
      <trkpt lat="52.532065026462078" lon="13.29511103220284">
        <ele>37.149999999999999</ele>
        <time>2024-09-17T09:47:51Z</time>
      </trkpt>
      <trkpt lat="52.532838005572557" lon="13.294594036415219">
        <ele>38.590000000000003</ele>
        <time>2024-09-17T09:48:00Z</time>
      </trkpt>
      <trkpt lat="52.533088037744164" lon="13.294453974813223">
        <ele>35.229999999999997</ele>
        <time>2024-09-17T09:48:09Z</time>
      </trkpt>
      <trkpt lat="52.533203037455678" lon="13.294379040598869">
        <ele>33.299999999999997</ele>
        <time>2024-09-17T09:48:19Z</time>
      </trkpt>
      <trkpt lat="52.533618025481701" lon="13.294121967628598">
        <ele>31.379999999999999</ele>
        <time>2024-09-17T09:48:28Z</time>
      </trkpt>
      <trkpt lat="52.53372497856617" lon="13.294078968465328">
        <ele>30.420000000000002</ele>
        <time>2024-09-17T09:48:31Z</time>
      </trkpt>
      <trkpt lat="52.533807959407568" lon="13.294051978737116">
        <ele>30.420000000000002</ele>
        <time>2024-09-17T09:48:32Z</time>
      </trkpt>
      <trkpt lat="52.533837966620922" lon="13.294042004272342">
        <ele>29.460000000000001</ele>
        <time>2024-09-17T09:48:40Z</time>
      </trkpt>
      <trkpt lat="52.533837966620922" lon="13.294042004272342">
        <ele>28.98</ele>
        <time>2024-09-17T09:49:24Z</time>
      </trkpt>
      <trkpt lat="52.533975010737777" lon="13.29399598762393">
        <ele>29.460000000000001</ele>
        <time>2024-09-17T09:49:43Z</time>
      </trkpt>
      <trkpt lat="52.534052040427923" lon="13.293975032866001">
        <ele>29.940000000000001</ele>
        <time>2024-09-17T09:49:44Z</time>
      </trkpt>
      <trkpt lat="52.534120017662644" lon="13.294008979573846">
        <ele>29.940000000000001</ele>
        <time>2024-09-17T09:49:45Z</time>
      </trkpt>
      <trkpt lat="52.534191012382507" lon="13.294092966243625">
        <ele>29.940000000000001</ele>
        <time>2024-09-17T09:49:46Z</time>
      </trkpt>
      <trkpt lat="52.534259995445609" lon="13.294179970398545">
        <ele>29.940000000000001</ele>
        <time>2024-09-17T09:49:47Z</time>
      </trkpt>
      <trkpt lat="52.534353034570813" lon="13.294207965955138">
        <ele>29.940000000000001</ele>
        <time>2024-09-17T09:49:48Z</time>
      </trkpt>
      <trkpt lat="52.534437021240592" lon="13.294207965955138">
        <ele>30.420000000000002</ele>
        <time>2024-09-17T09:49:49Z</time>
      </trkpt>
      <trkpt lat="52.534515978768468" lon="13.294173013418913">
        <ele>30.420000000000002</ele>
        <time>2024-09-17T09:49:50Z</time>
      </trkpt>
      <trkpt lat="52.534592002630234" lon="13.294106964021921">
        <ele>30.899999999999999</ele>
        <time>2024-09-17T09:49:51Z</time>
      </trkpt>
      <trkpt lat="52.534662997350097" lon="13.29401602037251">
        <ele>31.859999999999999</ele>
        <time>2024-09-17T09:49:52Z</time>
      </trkpt>
      <trkpt lat="52.534707002341747" lon="13.293894985690713">
        <ele>31.859999999999999</ele>
        <time>2024-09-17T09:49:53Z</time>
      </trkpt>
      <trkpt lat="52.534732986241579" lon="13.293765988200903">
        <ele>32.340000000000003</ele>
        <time>2024-09-17T09:49:54Z</time>
      </trkpt>
      <trkpt lat="52.534728962928057" lon="13.293625004589558">
        <ele>32.340000000000003</ele>
        <time>2024-09-17T09:49:55Z</time>
      </trkpt>
      <trkpt lat="52.534715970978141" lon="13.293474968522787">
        <ele>32.340000000000003</ele>
        <time>2024-09-17T09:49:56Z</time>
      </trkpt>
      <trkpt lat="52.53467196598649" lon="13.293335996568203">
        <ele>32.340000000000003</ele>
        <time>2024-09-17T09:49:57Z</time>
      </trkpt>
      <trkpt lat="52.53460499458015" lon="13.293263996019959">
        <ele>32.340000000000003</ele>
        <time>2024-09-17T09:49:58Z</time>
      </trkpt>
      <trkpt lat="52.534537017345428" lon="13.293095016852021">
        <ele>32.340000000000003</ele>
        <time>2024-09-17T09:49:59Z</time>
      </trkpt>
      <trkpt lat="52.534480020403862" lon="13.292951015755534">
        <ele>32.82</ele>
        <time>2024-09-17T09:50:00Z</time>
      </trkpt>
      <trkpt lat="52.534430986270308" lon="13.292811959981918">
        <ele>32.82</ele>
        <time>2024-09-17T09:50:01Z</time>
      </trkpt>
      <trkpt lat="52.534414976835251" lon="13.292639963328838">
        <ele>33.299999999999997</ele>
        <time>2024-09-17T09:50:02Z</time>
      </trkpt>
      <trkpt lat="52.534397039562464" lon="13.292453968897462">
        <ele>33.299999999999997</ele>
        <time>2024-09-17T09:50:03Z</time>
      </trkpt>
      <trkpt lat="52.534380024299026" lon="13.292261017486453">
        <ele>33.299999999999997</ele>
        <time>2024-09-17T09:50:04Z</time>
      </trkpt>
      <trkpt lat="52.534364014863968" lon="13.292068988084793">
        <ele>33.299999999999997</ele>
        <time>2024-09-17T09:50:05Z</time>
      </trkpt>
      <trkpt lat="52.53434800542891" lon="13.291873019188643">
        <ele>32.82</ele>
        <time>2024-09-17T09:50:06Z</time>
      </trkpt>
      <trkpt lat="52.534329984337091" lon="13.291672021150589">
        <ele>32.82</ele>
        <time>2024-09-17T09:50:07Z</time>
      </trkpt>
      <trkpt lat="52.534311963245273" lon="13.291477980092168">
        <ele>32.340000000000003</ele>
        <time>2024-09-17T09:50:08Z</time>
      </trkpt>
      <trkpt lat="52.534150024875998" lon="13.28965600579977">
        <ele>29.460000000000001</ele>
        <time>2024-09-17T09:50:18Z</time>
      </trkpt>
      <trkpt lat="52.533994037657976" lon="13.287905026227236">
        <ele>27.530000000000001</ele>
        <time>2024-09-17T09:50:27Z</time>
      </trkpt>
      <trkpt lat="52.533848024904728" lon="13.286162009462714">
        <ele>24.170000000000002</ele>
        <time>2024-09-17T09:50:36Z</time>
      </trkpt>
      <trkpt lat="52.533802008256316" lon="13.283793032169342">
        <ele>22.73</ele>
        <time>2024-09-17T09:50:48Z</time>
      </trkpt>
      <trkpt lat="52.533866968005896" lon="13.282858030870557">
        <ele>22.25</ele>
        <time>2024-09-17T09:50:55Z</time>
      </trkpt>
      <trkpt lat="52.533882977440953" lon="13.282688967883587">
        <ele>22.73</ele>
        <time>2024-09-17T09:51:04Z</time>
      </trkpt>
      <trkpt lat="52.533938968554139" lon="13.282284960150719">
        <ele>23.210000000000001</ele>
        <time>2024-09-17T09:51:22Z</time>
      </trkpt>
      <trkpt lat="52.534185983240604" lon="13.280881997197866">
        <ele>23.210000000000001</ele>
        <time>2024-09-17T09:51:30Z</time>
      </trkpt>
      <trkpt lat="52.534843040630221" lon="13.278546966612339">
        <ele>20.32</ele>
        <time>2024-09-17T09:51:43Z</time>
      </trkpt>
      <trkpt lat="52.535364981740713" lon="13.27674200758338">
        <ele>19.359999999999999</ele>
        <time>2024-09-17T09:51:53Z</time>
      </trkpt>
      <trkpt lat="52.535530021414161" lon="13.276199027895927">
        <ele>18.879999999999999</ele>
        <time>2024-09-17T09:51:56Z</time>
      </trkpt>
      <trkpt lat="52.535586012527347" lon="13.276013033464551">
        <ele>18.399999999999999</ele>
        <time>2024-09-17T09:51:57Z</time>
      </trkpt>
      <trkpt lat="52.536084987223148" lon="13.274289965629578">
        <ele>15.52</ele>
        <time>2024-09-17T09:52:08Z</time>
      </trkpt>
      <trkpt lat="52.536320015788078" lon="13.273494020104408">
        <ele>15.039999999999999</ele>
        <time>2024-09-17T09:52:17Z</time>
      </trkpt>
      <trkpt lat="52.536351028829813" lon="13.273373991250992">
        <ele>16</ele>
        <time>2024-09-17T09:52:18Z</time>
      </trkpt>
      <trkpt lat="52.536425963044167" lon="13.273091018199921">
        <ele>17.440000000000001</ele>
        <time>2024-09-17T09:52:20Z</time>
      </trkpt>
      <trkpt lat="52.536685969680548" lon="13.271348001435399">
        <ele>22.73</ele>
        <time>2024-09-17T09:52:30Z</time>
      </trkpt>
      <trkpt lat="52.536728968843818" lon="13.269087988883257">
        <ele>23.210000000000001</ele>
        <time>2024-09-17T09:52:43Z</time>
      </trkpt>
      <trkpt lat="52.536759981885552" lon="13.267820980399847">
        <ele>22.73</ele>
        <time>2024-09-17T09:52:53Z</time>
      </trkpt>
      <trkpt lat="52.536785965785384" lon="13.266315003857017">
        <ele>21.289999999999999</ele>
        <time>2024-09-17T09:53:05Z</time>
      </trkpt>
      <trkpt lat="52.536801975220442" lon="13.265974028035998">
        <ele>20.809999999999999</ele>
        <time>2024-09-17T09:53:12Z</time>
      </trkpt>
      <trkpt lat="52.536805998533964" lon="13.265894986689091">
        <ele>19.84</ele>
        <time>2024-09-17T09:53:21Z</time>
      </trkpt>
      <trkpt lat="52.536822007969022" lon="13.265529032796621">
        <ele>19.84</ele>
        <time>2024-09-17T09:53:31Z</time>
      </trkpt>
      <trkpt lat="52.536874981597066" lon="13.264187006279826">
        <ele>22.25</ele>
        <time>2024-09-17T09:53:41Z</time>
      </trkpt>
      <trkpt lat="52.537040021270514" lon="13.262208960950375">
        <ele>23.210000000000001</ele>
        <time>2024-09-17T09:53:52Z</time>
      </trkpt>
      <trkpt lat="52.537197014316916" lon="13.26028598472476">
        <ele>19.84</ele>
        <time>2024-09-17T09:54:03Z</time>
      </trkpt>
      <trkpt lat="52.537345960736275" lon="13.258485971018672">
        <ele>24.170000000000002</ele>
        <time>2024-09-17T09:54:13Z</time>
      </trkpt>
      <trkpt lat="52.537423996254802" lon="13.257575025781989">
        <ele>23.210000000000001</ele>
        <time>2024-09-17T09:54:21Z</time>
      </trkpt>
      <trkpt lat="52.537435982376337" lon="13.257433958351612">
        <ele>22.73</ele>
        <time>2024-09-17T09:54:23Z</time>
      </trkpt>
      <trkpt lat="52.537452997639775" lon="13.257242012768984">
        <ele>22.25</ele>
        <time>2024-09-17T09:54:25Z</time>
      </trkpt>
      <trkpt lat="52.537462972104549" lon="13.257131036370993">
        <ele>22.25</ele>
        <time>2024-09-17T09:54:26Z</time>
      </trkpt>
      <trkpt lat="52.537473030388355" lon="13.257005978375673">
        <ele>22.73</ele>
        <time>2024-09-17T09:54:27Z</time>
      </trkpt>
      <trkpt lat="52.537612002342939" lon="13.255228009074926">
        <ele>24.170000000000002</ele>
        <time>2024-09-17T09:54:38Z</time>
      </trkpt>
      <trkpt lat="52.537818029522896" lon="13.253121972084045">
        <ele>26.09</ele>
        <time>2024-09-17T09:54:50Z</time>
      </trkpt>
      <trkpt lat="52.537964964285493" lon="13.251152979210019">
        <ele>26.57</ele>
        <time>2024-09-17T09:55:01Z</time>
      </trkpt>
      <trkpt lat="52.538146013393998" lon="13.249269984662533">
        <ele>27.530000000000001</ele>
        <time>2024-09-17T09:55:12Z</time>
      </trkpt>
      <trkpt lat="52.53821600228548" lon="13.248523995280266">
        <ele>27.530000000000001</ele>
        <time>2024-09-17T09:55:19Z</time>
      </trkpt>
      <trkpt lat="52.538240980356932" lon="13.248110013082623">
        <ele>26.57</ele>
        <time>2024-09-17T09:55:28Z</time>
      </trkpt>
      <trkpt lat="52.538245003670454" lon="13.248077994212508">
        <ele>26.57</ele>
        <time>2024-09-17T09:55:53Z</time>
      </trkpt>
      <trkpt lat="52.53827903419733" lon="13.247831985354424">
        <ele>28.02</ele>
        <time>2024-09-17T09:56:01Z</time>
      </trkpt>
      <trkpt lat="52.538328990340233" lon="13.247256986796856">
        <ele>28.98</ele>
        <time>2024-09-17T09:56:07Z</time>
      </trkpt>
      <trkpt lat="52.538434015586972" lon="13.245316995307803">
        <ele>30.420000000000002</ele>
        <time>2024-09-17T09:56:18Z</time>
      </trkpt>
      <trkpt lat="52.538458993658423" lon="13.244925979524851">
        <ele>30.899999999999999</ele>
        <time>2024-09-17T09:56:20Z</time>
      </trkpt>
      <trkpt lat="52.538673989474773" lon="13.242798987776041">
        <ele>32.82</ele>
        <time>2024-09-17T09:56:31Z</time>
      </trkpt>
      <trkpt lat="52.538697039708495" lon="13.242610981687903">
        <ele>33.299999999999997</ele>
        <time>2024-09-17T09:56:32Z</time>
      </trkpt>
      <trkpt lat="52.538976995274425" lon="13.240276034921408">
        <ele>34.259999999999998</ele>
        <time>2024-09-17T09:56:44Z</time>
      </trkpt>
      <trkpt lat="52.539202971383929" lon="13.238531006500125">
        <ele>32.82</ele>
        <time>2024-09-17T09:56:53Z</time>
      </trkpt>
      <trkpt lat="52.539250999689102" lon="13.238152982667089">
        <ele>31.859999999999999</ele>
        <time>2024-09-17T09:56:55Z</time>
      </trkpt>
      <trkpt lat="52.539470018818974" lon="13.236421030014753">
        <ele>27.530000000000001</ele>
        <time>2024-09-17T09:57:04Z</time>
      </trkpt>
      <trkpt lat="52.539603961631656" lon="13.234468968585134">
        <ele>22.25</ele>
        <time>2024-09-17T09:57:14Z</time>
      </trkpt>
      <trkpt lat="52.539592981338501" lon="13.234074013307691">
        <ele>21.289999999999999</ele>
        <time>2024-09-17T09:57:16Z</time>
      </trkpt>
      <trkpt lat="52.539574960246682" lon="13.233887013047934">
        <ele>20.809999999999999</ele>
        <time>2024-09-17T09:57:17Z</time>
      </trkpt>
      <trkpt lat="52.539558028802276" lon="13.233715016394854">
        <ele>20.32</ele>
        <time>2024-09-17T09:57:18Z</time>
      </trkpt>
      <trkpt lat="52.5395049713552" lon="13.233286030590534">
        <ele>19.84</ele>
        <time>2024-09-17T09:57:21Z</time>
      </trkpt>
      <trkpt lat="52.539473958313465" lon="13.23304002173245">
        <ele>19.359999999999999</ele>
        <time>2024-09-17T09:57:23Z</time>
      </trkpt>
      <trkpt lat="52.539458032697439" lon="13.23291496373713">
        <ele>19.359999999999999</ele>
        <time>2024-09-17T09:57:24Z</time>
      </trkpt>
      <trkpt lat="52.539443029090762" lon="13.232794012874365">
        <ele>18.879999999999999</ele>
        <time>2024-09-17T09:57:25Z</time>
      </trkpt>
      <trkpt lat="52.539277989417315" lon="13.232076019048691">
        <ele>16.960000000000001</ele>
        <time>2024-09-17T09:57:31Z</time>
      </trkpt>
      <trkpt lat="52.539182016626" lon="13.231848031282425">
        <ele>16.960000000000001</ele>
        <time>2024-09-17T09:57:33Z</time>
      </trkpt>
      <trkpt lat="52.538928966969252" lon="13.231393983587623">
        <ele>16.960000000000001</ele>
        <time>2024-09-17T09:57:38Z</time>
      </trkpt>
      <trkpt lat="52.538824025541544" lon="13.231249982491136">
        <ele>16.960000000000001</ele>
        <time>2024-09-17T09:57:40Z</time>
      </trkpt>
      <trkpt lat="52.538769962266088" lon="13.231175970286131">
        <ele>16.960000000000001</ele>
        <time>2024-09-17T09:57:41Z</time>
      </trkpt>
      <trkpt lat="52.538713971152902" lon="13.231100030243397">
        <ele>16.960000000000001</ele>
        <time>2024-09-17T09:57:42Z</time>
      </trkpt>
      <trkpt lat="52.538369977846742" lon="13.230484966188669">
        <ele>18.399999999999999</ele>
        <time>2024-09-17T09:57:48Z</time>
      </trkpt>
      <trkpt lat="52.538251960650086" lon="13.230237029492855">
        <ele>18.399999999999999</ele>
        <time>2024-09-17T09:57:50Z</time>
      </trkpt>
      <trkpt lat="52.538227988407016" lon="13.230096967890859">
        <ele>18.879999999999999</ele>
        <time>2024-09-17T09:57:51Z</time>
      </trkpt>
      <trkpt lat="52.538206027820706" lon="13.229961013421416">
        <ele>18.879999999999999</ele>
        <time>2024-09-17T09:57:52Z</time>
      </trkpt>
      <trkpt lat="52.538183983415365" lon="13.229834027588367">
        <ele>18.879999999999999</ele>
        <time>2024-09-17T09:57:53Z</time>
      </trkpt>
      <trkpt lat="52.538164034485817" lon="13.229713998734951">
        <ele>18.879999999999999</ele>
        <time>2024-09-17T09:57:54Z</time>
      </trkpt>
      <trkpt lat="52.538141990080476" lon="13.229591958224773">
        <ele>18.399999999999999</ele>
        <time>2024-09-17T09:57:55Z</time>
      </trkpt>
      <trkpt lat="52.538078036159277" lon="13.228993993252516">
        <ele>19.84</ele>
        <time>2024-09-17T09:58:03Z</time>
      </trkpt>
      <trkpt lat="52.537590963765979" lon="13.222795994952321">
        <ele>35.229999999999997</ele>
        <time>2024-09-17T11:06:43Z</time>
      </trkpt>
      <trkpt lat="52.537686014547944" lon="13.222605977207422">
        <ele>35.710000000000001</ele>
        <time>2024-09-17T11:07:09Z</time>
      </trkpt>
      <trkpt lat="52.537645027041435" lon="13.222690969705582">
        <ele>35.229999999999997</ele>
        <time>2024-09-17T11:07:24Z</time>
      </trkpt>
      <trkpt lat="52.537618959322572" lon="13.222757019102573">
        <ele>35.710000000000001</ele>
        <time>2024-09-17T11:07:31Z</time>
      </trkpt>
      <trkpt lat="52.537608984857798" lon="13.22305197827518">
        <ele>33.299999999999997</ele>
        <time>2024-09-17T11:07:37Z</time>
      </trkpt>
      <trkpt lat="52.537571014836431" lon="13.223171001300216">
        <ele>32.340000000000003</ele>
        <time>2024-09-17T11:07:40Z</time>
      </trkpt>
      <trkpt lat="52.537544025108218" lon="13.223182987421751">
        <ele>31.379999999999999</ele>
        <time>2024-09-17T11:07:51Z</time>
      </trkpt>
      <trkpt lat="52.537246970459819" lon="13.223135964944959">
        <ele>34.259999999999998</ele>
        <time>2024-09-17T11:08:31Z</time>
      </trkpt>
      <trkpt lat="52.537241019308567" lon="13.223096989095211">
        <ele>34.259999999999998</ele>
        <time>2024-09-17T11:08:32Z</time>
      </trkpt>
      <trkpt lat="52.537230961024761" lon="13.223034963011742">
        <ele>34.259999999999998</ele>
        <time>2024-09-17T11:08:33Z</time>
      </trkpt>
      <trkpt lat="52.537216963246465" lon="13.222947036847472">
        <ele>34.259999999999998</ele>
        <time>2024-09-17T11:08:34Z</time>
      </trkpt>
      <trkpt lat="52.537199025973678" lon="13.222834970802069">
        <ele>34.259999999999998</ele>
        <time>2024-09-17T11:08:35Z</time>
      </trkpt>
      <trkpt lat="52.537069022655487" lon="13.222013963386416">
        <ele>32.82</ele>
        <time>2024-09-17T11:08:41Z</time>
      </trkpt>
      <trkpt lat="52.537031974643469" lon="13.221672987565398">
        <ele>33.780000000000001</ele>
        <time>2024-09-17T11:08:43Z</time>
      </trkpt>
      <trkpt lat="52.536983024328947" lon="13.221142999827862">
        <ele>33.780000000000001</ele>
        <time>2024-09-17T11:08:46Z</time>
      </trkpt>
      <trkpt lat="52.536965003237128" lon="13.220587028190494">
        <ele>33.780000000000001</ele>
        <time>2024-09-17T11:08:49Z</time>
      </trkpt>
      <trkpt lat="52.53711998462677" lon="13.21939998306334">
        <ele>31.379999999999999</ele>
        <time>2024-09-17T11:08:57Z</time>
      </trkpt>
      <trkpt lat="52.537132976576686" lon="13.219327982515097">
        <ele>31.379999999999999</ele>
        <time>2024-09-17T11:08:58Z</time>
      </trkpt>
      <trkpt lat="52.537179999053478" lon="13.219084991142154">
        <ele>30.420000000000002</ele>
        <time>2024-09-17T11:09:02Z</time>
      </trkpt>
      <trkpt lat="52.537115039303899" lon="13.219036040827632">
        <ele>29.940000000000001</ele>
        <time>2024-09-17T11:09:05Z</time>
      </trkpt>
      <trkpt lat="52.537100035697222" lon="13.219025982543826">
        <ele>29.460000000000001</ele>
        <time>2024-09-17T11:09:06Z</time>
      </trkpt>
      <trkpt lat="52.537086959928274" lon="13.21905598975718">
        <ele>28.98</ele>
        <time>2024-09-17T11:09:07Z</time>
      </trkpt>
      <trkpt lat="52.537078997120261" lon="13.219093959778547">
        <ele>28.5</ele>
        <time>2024-09-17T11:09:08Z</time>
      </trkpt>
      <trkpt lat="52.537064999341965" lon="13.219163026660681">
        <ele>28.02</ele>
        <time>2024-09-17T11:09:09Z</time>
      </trkpt>
      <trkpt lat="52.537046978250146" lon="13.219253970310092">
        <ele>28.02</ele>
        <time>2024-09-17T11:09:10Z</time>
      </trkpt>
      <trkpt lat="52.537020994350314" lon="13.219386991113424">
        <ele>27.530000000000001</ele>
        <time>2024-09-17T11:09:11Z</time>
      </trkpt>
      <trkpt lat="52.536842040717602" lon="13.220891961827874">
        <ele>25.129999999999999</ele>
        <time>2024-09-17T11:09:19Z</time>
      </trkpt>
      <trkpt lat="52.537044966593385" lon="13.222646964713931">
        <ele>25.129999999999999</ele>
        <time>2024-09-17T11:09:28Z</time>
      </trkpt>
      <trkpt lat="52.537353001534939" lon="13.224814021959901">
        <ele>28.5</ele>
        <time>2024-09-17T11:09:39Z</time>
      </trkpt>
      <trkpt lat="52.537512006238103" lon="13.22592998854816">
        <ele>29.460000000000001</ele>
        <time>2024-09-17T11:09:45Z</time>
      </trkpt>
      <trkpt lat="52.537536984309554" lon="13.226100979372859">
        <ele>29.460000000000001</ele>
        <time>2024-09-17T11:09:46Z</time>
      </trkpt>
      <trkpt lat="52.537682997062802" lon="13.22713203728199">
        <ele>29.460000000000001</ele>
        <time>2024-09-17T11:09:54Z</time>
      </trkpt>
      <trkpt lat="52.537698000669479" lon="13.227234967052937">
        <ele>29.460000000000001</ele>
        <time>2024-09-17T11:09:55Z</time>
      </trkpt>
      <trkpt lat="52.537728007882833" lon="13.227447029203176">
        <ele>29.940000000000001</ele>
        <time>2024-09-17T11:09:57Z</time>
      </trkpt>
      <trkpt lat="52.537744017317891" lon="13.227559011429548">
        <ele>29.940000000000001</ele>
        <time>2024-09-17T11:09:58Z</time>
      </trkpt>
      <trkpt lat="52.537760026752949" lon="13.22767099365592">
        <ele>29.940000000000001</ele>
        <time>2024-09-17T11:09:59Z</time>
      </trkpt>
      <trkpt lat="52.537776036188006" lon="13.227781970053911">
        <ele>29.940000000000001</ele>
        <time>2024-09-17T11:10:00Z</time>
      </trkpt>
      <trkpt lat="52.537791961804032" lon="13.227892024442554">
        <ele>29.940000000000001</ele>
        <time>2024-09-17T11:10:01Z</time>
      </trkpt>
      <trkpt lat="52.53780797123909" lon="13.228007024154067">
        <ele>29.940000000000001</ele>
        <time>2024-09-17T11:10:02Z</time>
      </trkpt>
      <trkpt lat="52.537974016740918" lon="13.229245031252503">
        <ele>27.530000000000001</ele>
        <time>2024-09-17T11:10:09Z</time>
      </trkpt>
      <trkpt lat="52.538168979808688" lon="13.230847986415029">
        <ele>26.57</ele>
        <time>2024-09-17T11:10:18Z</time>
      </trkpt>
      <trkpt lat="52.538183983415365" lon="13.2309599686414">
        <ele>26.57</ele>
        <time>2024-09-17T11:10:19Z</time>
      </trkpt>
      <trkpt lat="52.538260007277131" lon="13.231510994955897">
        <ele>28.98</ele>
        <time>2024-09-17T11:10:28Z</time>
      </trkpt>
      <trkpt lat="52.538260007277131" lon="13.231510994955897">
        <ele>28.98</ele>
        <time>2024-09-17T11:10:49Z</time>
      </trkpt>
      <trkpt lat="52.538327984511852" lon="13.231934029608965">
        <ele>33.780000000000001</ele>
        <time>2024-09-17T11:10:56Z</time>
      </trkpt>
      <trkpt lat="52.538492018356919" lon="13.233102969825268">
        <ele>33.780000000000001</ele>
        <time>2024-09-17T11:11:03Z</time>
      </trkpt>
      <trkpt lat="52.538804998621345" lon="13.23529701679945">
        <ele>34.259999999999998</ele>
        <time>2024-09-17T11:11:15Z</time>
      </trkpt>
      <trkpt lat="52.538981018587947" lon="13.237046990543604">
        <ele>35.229999999999997</ele>
        <time>2024-09-17T11:11:24Z</time>
      </trkpt>
      <trkpt lat="52.538982024416327" lon="13.237624000757933">
        <ele>35.710000000000001</ele>
        <time>2024-09-17T11:11:27Z</time>
      </trkpt>
      <trkpt lat="52.538982024416327" lon="13.237818963825703">
        <ele>35.710000000000001</ele>
        <time>2024-09-17T11:11:28Z</time>
      </trkpt>
      <trkpt lat="52.538836011663079" lon="13.239539014175534">
        <ele>38.109999999999999</ele>
        <time>2024-09-17T11:11:37Z</time>
      </trkpt>
      <trkpt lat="52.538499981164932" lon="13.241835990920663">
        <ele>41.950000000000003</ele>
        <time>2024-09-17T11:11:49Z</time>
      </trkpt>
      <trkpt lat="52.538325972855091" lon="13.243302991613746">
        <ele>40.030000000000001</ele>
        <time>2024-09-17T11:11:55Z</time>
      </trkpt>
      <trkpt lat="52.538155987858772" lon="13.245457978919148">
        <ele>35.229999999999997</ele>
        <time>2024-09-17T11:12:05Z</time>
      </trkpt>
      <trkpt lat="52.538111982867122" lon="13.246399015188217">
        <ele>33.299999999999997</ele>
        <time>2024-09-17T11:12:12Z</time>
      </trkpt>
      <trkpt lat="52.538104020059109" lon="13.246665978804231">
        <ele>33.780000000000001</ele>
        <time>2024-09-17T11:12:15Z</time>
      </trkpt>
      <trkpt lat="52.538102008402348" lon="13.246840992942452">
        <ele>33.780000000000001</ele>
        <time>2024-09-17T11:12:23Z</time>
      </trkpt>
      <trkpt lat="52.538102008402348" lon="13.246840992942452">
        <ele>33.780000000000001</ele>
        <time>2024-09-17T11:12:27Z</time>
      </trkpt>
      <trkpt lat="52.538102008402348" lon="13.246897989884019">
        <ele>33.780000000000001</ele>
        <time>2024-09-17T11:12:28Z</time>
      </trkpt>
      <trkpt lat="52.538102008402348" lon="13.24696303345263">
        <ele>33.780000000000001</ele>
        <time>2024-09-17T11:12:29Z</time>
      </trkpt>
      <trkpt lat="52.538098990917206" lon="13.247054982930422">
        <ele>33.780000000000001</ele>
        <time>2024-09-17T11:12:30Z</time>
      </trkpt>
      <trkpt lat="52.538093039765954" lon="13.247151039540768">
        <ele>33.780000000000001</ele>
        <time>2024-09-17T11:12:31Z</time>
      </trkpt>
      <trkpt lat="52.538088010624051" lon="13.247242989018559">
        <ele>33.299999999999997</ele>
        <time>2024-09-17T11:12:32Z</time>
      </trkpt>
      <trkpt lat="52.538018021732569" lon="13.248432967811823">
        <ele>32.82</ele>
        <time>2024-09-17T11:12:43Z</time>
      </trkpt>
      <trkpt lat="52.537864968180656" lon="13.250088980421424">
        <ele>33.299999999999997</ele>
        <time>2024-09-17T11:12:53Z</time>
      </trkpt>
      <trkpt lat="52.537775030359626" lon="13.251157002523541">
        <ele>33.299999999999997</ele>
        <time>2024-09-17T11:12:58Z</time>
      </trkpt>
      <trkpt lat="52.537759020924568" lon="13.251367975026369">
        <ele>32.82</ele>
        <time>2024-09-17T11:12:59Z</time>
      </trkpt>
      <trkpt lat="52.537522986531258" lon="13.2542709633708">
        <ele>31.859999999999999</ele>
        <time>2024-09-17T11:13:13Z</time>
      </trkpt>
      <trkpt lat="52.537310002371669" lon="13.256950993090868">
        <ele>31.379999999999999</ele>
        <time>2024-09-17T11:13:26Z</time>
      </trkpt>
      <trkpt lat="52.537146974354982" lon="13.259303038939834">
        <ele>32.340000000000003</ele>
        <time>2024-09-17T11:13:38Z</time>
      </trkpt>
      <trkpt lat="52.537070028483868" lon="13.260244997218251">
        <ele>32.82</ele>
        <time>2024-09-17T11:13:46Z</time>
      </trkpt>
      <trkpt lat="52.536954022943974" lon="13.261502031236887">
        <ele>33.299999999999997</ele>
        <time>2024-09-17T11:13:57Z</time>
      </trkpt>
      <trkpt lat="52.536888979375362" lon="13.262217007577419">
        <ele>32.82</ele>
        <time>2024-09-17T11:14:03Z</time>
      </trkpt>
      <trkpt lat="52.536879004910588" lon="13.262333013117313">
        <ele>32.340000000000003</ele>
        <time>2024-09-17T11:14:04Z</time>
      </trkpt>
      <trkpt lat="52.536792000755668" lon="13.263419978320599">
        <ele>31.379999999999999</ele>
        <time>2024-09-17T11:14:13Z</time>
      </trkpt>
      <trkpt lat="52.536770040169358" lon="13.26372398994863">
        <ele>31.379999999999999</ele>
        <time>2024-09-17T11:14:21Z</time>
      </trkpt>
      <trkpt lat="52.536762999370694" lon="13.263864973559976">
        <ele>31.379999999999999</ele>
        <time>2024-09-17T11:14:53Z</time>
      </trkpt>
      <trkpt lat="52.536758976057172" lon="13.263953989371657">
        <ele>31.379999999999999</ele>
        <time>2024-09-17T11:14:54Z</time>
      </trkpt>
      <trkpt lat="52.536726035177708" lon="13.264375012367964">
        <ele>31.379999999999999</ele>
        <time>2024-09-17T11:14:58Z</time>
      </trkpt>
      <trkpt lat="52.536665014922619" lon="13.265632968395948">
        <ele>31.379999999999999</ele>
        <time>2024-09-17T11:15:06Z</time>
      </trkpt>
      <trkpt lat="52.536622015759349" lon="13.266899976879358">
        <ele>30.899999999999999</ele>
        <time>2024-09-17T11:15:14Z</time>
      </trkpt>
      <trkpt lat="52.536622015759349" lon="13.267515040934086">
        <ele>29.940000000000001</ele>
        <time>2024-09-17T11:15:21Z</time>
      </trkpt>
      <trkpt lat="52.536616986617446" lon="13.267629034817219">
        <ele>29.940000000000001</ele>
        <time>2024-09-17T11:15:31Z</time>
      </trkpt>
      <trkpt lat="52.536613969132304" lon="13.267704974859953">
        <ele>29.940000000000001</ele>
        <time>2024-09-17T11:15:32Z</time>
      </trkpt>
      <trkpt lat="52.536612041294575" lon="13.267774963751435">
        <ele>29.460000000000001</ele>
        <time>2024-09-17T11:15:33Z</time>
      </trkpt>
      <trkpt lat="52.536610029637814" lon="13.267825003713369">
        <ele>29.460000000000001</ele>
        <time>2024-09-17T11:15:34Z</time>
      </trkpt>
      <trkpt lat="52.536610029637814" lon="13.267825003713369">
        <ele>29.460000000000001</ele>
        <time>2024-09-17T11:15:35Z</time>
      </trkpt>
      <trkpt lat="52.536607012152672" lon="13.267901027575135">
        <ele>29.460000000000001</ele>
        <time>2024-09-17T11:15:43Z</time>
      </trkpt>
      <trkpt lat="52.536599971354008" lon="13.268160028383136">
        <ele>29.940000000000001</ele>
        <time>2024-09-17T11:15:46Z</time>
      </trkpt>
      <trkpt lat="52.536571975797415" lon="13.269542036578059">
        <ele>30.420000000000002</ele>
        <time>2024-09-17T11:15:55Z</time>
      </trkpt>
      <trkpt lat="52.536556972190738" lon="13.27081298455596">
        <ele>30.420000000000002</ele>
        <time>2024-09-17T11:16:06Z</time>
      </trkpt>
      <trkpt lat="52.536556972190738" lon="13.271050024777651">
        <ele>29.940000000000001</ele>
        <time>2024-09-17T11:16:15Z</time>
      </trkpt>
      <trkpt lat="52.536556972190738" lon="13.271364010870457">
        <ele>29.940000000000001</ele>
        <time>2024-09-17T11:16:19Z</time>
      </trkpt>
      <trkpt lat="52.536407019942999" lon="13.272707965224981">
        <ele>29.460000000000001</ele>
        <time>2024-09-17T11:16:28Z</time>
      </trkpt>
      <trkpt lat="52.535843001678586" lon="13.274552989751101">
        <ele>29.940000000000001</ele>
        <time>2024-09-17T11:16:40Z</time>
      </trkpt>
      <trkpt lat="52.535304967314005" lon="13.276359038427472">
        <ele>29.940000000000001</ele>
        <time>2024-09-17T11:16:50Z</time>
      </trkpt>
      <trkpt lat="52.534741032868624" lon="13.278457028791308">
        <ele>29.460000000000001</ele>
        <time>2024-09-17T11:17:02Z</time>
      </trkpt>
      <trkpt lat="52.534169973805547" lon="13.280415963381529">
        <ele>25.609999999999999</ele>
        <time>2024-09-17T11:17:14Z</time>
      </trkpt>
      <trkpt lat="52.533910972997546" lon="13.281474011018872">
        <ele>25.129999999999999</ele>
        <time>2024-09-17T11:17:22Z</time>
      </trkpt>
      <trkpt lat="52.533898986876011" lon="13.281550034880638">
        <ele>24.649999999999999</ele>
        <time>2024-09-17T11:17:23Z</time>
      </trkpt>
      <trkpt lat="52.533893035724759" lon="13.281586999073625">
        <ele>24.170000000000002</ele>
        <time>2024-09-17T11:17:24Z</time>
      </trkpt>
      <trkpt lat="52.533893035724759" lon="13.281586999073625">
        <ele>24.649999999999999</ele>
        <time>2024-09-17T11:17:40Z</time>
      </trkpt>
      <trkpt lat="52.533842995762825" lon="13.281901990994811">
        <ele>25.609999999999999</ele>
        <time>2024-09-17T11:17:48Z</time>
      </trkpt>
      <trkpt lat="52.533717015758157" lon="13.28284596092999">
        <ele>26.57</ele>
        <time>2024-09-17T11:17:54Z</time>
      </trkpt>
      <trkpt lat="52.533646021038294" lon="13.284539021551609">
        <ele>28.02</ele>
        <time>2024-09-17T11:18:03Z</time>
      </trkpt>
      <trkpt lat="52.533651972189546" lon="13.285631015896797">
        <ele>27.530000000000001</ele>
        <time>2024-09-17T11:18:09Z</time>
      </trkpt>
      <trkpt lat="52.533758003264666" lon="13.286995002999902">
        <ele>26.09</ele>
        <time>2024-09-17T11:18:16Z</time>
      </trkpt>
      <trkpt lat="52.533869985491037" lon="13.288285983726382">
        <ele>26.57</ele>
        <time>2024-09-17T11:18:24Z</time>
      </trkpt>
      <trkpt lat="52.533882977440953" lon="13.288426967337728">
        <ele>27.050000000000001</ele>
        <time>2024-09-17T11:18:25Z</time>
      </trkpt>
      <trkpt lat="52.534036030992866" lon="13.29002003185451">
        <ele>29.460000000000001</ele>
        <time>2024-09-17T11:18:35Z</time>
      </trkpt>
      <trkpt lat="52.534119011834264" lon="13.290943969041109">
        <ele>29.940000000000001</ele>
        <time>2024-09-17T11:18:40Z</time>
      </trkpt>
      <trkpt lat="52.53413200378418" lon="13.291125018149614">
        <ele>30.420000000000002</ele>
        <time>2024-09-17T11:18:41Z</time>
      </trkpt>
      <trkpt lat="52.53419897519052" lon="13.291892968118191">
        <ele>31.379999999999999</ele>
        <time>2024-09-17T11:18:46Z</time>
      </trkpt>
      <trkpt lat="52.534210039302707" lon="13.292001010850072">
        <ele>31.859999999999999</ele>
        <time>2024-09-17T11:18:47Z</time>
      </trkpt>
      <trkpt lat="52.534221019595861" lon="13.292097989469767">
        <ele>31.859999999999999</ele>
        <time>2024-09-17T11:18:48Z</time>
      </trkpt>
      <trkpt lat="52.534230994060636" lon="13.292193962261081">
        <ele>31.379999999999999</ele>
        <time>2024-09-17T11:18:49Z</time>
      </trkpt>
      <trkpt lat="52.534239962697029" lon="13.292277026921511">
        <ele>31.859999999999999</ele>
        <time>2024-09-17T11:18:50Z</time>
      </trkpt>
      <trkpt lat="52.534248009324074" lon="13.292382974177599">
        <ele>32.340000000000003</ele>
        <time>2024-09-17T11:18:51Z</time>
      </trkpt>
      <trkpt lat="52.534252032637596" lon="13.292438965290785">
        <ele>32.340000000000003</ele>
        <time>2024-09-17T11:18:52Z</time>
      </trkpt>
      <trkpt lat="52.534254966303706" lon="13.292471989989281">
        <ele>32.82</ele>
        <time>2024-09-17T11:18:53Z</time>
      </trkpt>
      <trkpt lat="52.534270975738764" lon="13.292681034654379">
        <ele>33.299999999999997</ele>
        <time>2024-09-17T11:19:02Z</time>
      </trkpt>
      <trkpt lat="52.534282961860299" lon="13.29283501021564">
        <ele>32.82</ele>
        <time>2024-09-17T11:19:03Z</time>
      </trkpt>
      <trkpt lat="52.534258989617229" lon="13.292985968291759">
        <ele>32.82</ele>
        <time>2024-09-17T11:19:04Z</time>
      </trkpt>
      <trkpt lat="52.534231999889016" lon="13.293159976601601">
        <ele>32.82</ele>
        <time>2024-09-17T11:19:05Z</time>
      </trkpt>
      <trkpt lat="52.534110965207219" lon="13.293392993509769">
        <ele>32.340000000000003</ele>
        <time>2024-09-17T11:19:06Z</time>
      </trkpt>
      <trkpt lat="52.534083975479007" lon="13.293474968522787">
        <ele>32.340000000000003</ele>
        <time>2024-09-17T11:19:07Z</time>
      </trkpt>
      <trkpt lat="52.534005017951131" lon="13.293627016246319">
        <ele>31.859999999999999</ele>
        <time>2024-09-17T11:19:08Z</time>
      </trkpt>
      <trkpt lat="52.533923964947462" lon="13.293708991259336">
        <ele>31.379999999999999</ele>
        <time>2024-09-17T11:19:09Z</time>
      </trkpt>
      <trkpt lat="52.533846013247967" lon="13.293786020949483">
        <ele>31.379999999999999</ele>
        <time>2024-09-17T11:19:10Z</time>
      </trkpt>
      <trkpt lat="52.533764960244298" lon="13.293833965435624">
        <ele>30.899999999999999</ele>
        <time>2024-09-17T11:19:11Z</time>
      </trkpt>
      <trkpt lat="52.53370301797986" lon="13.293864978477359">
        <ele>30.420000000000002</ele>
        <time>2024-09-17T11:19:12Z</time>
      </trkpt>
      <trkpt lat="52.533618025481701" lon="13.293907977640629">
        <ele>28.5</ele>
        <time>2024-09-17T11:19:19Z</time>
      </trkpt>
      <trkpt lat="52.533539989963174" lon="13.293946031481028">
        <ele>28.02</ele>
        <time>2024-09-17T11:19:20Z</time>
      </trkpt>
      <trkpt lat="52.533521968871355" lon="13.293955000117421">
        <ele>27.530000000000001</ele>
        <time>2024-09-17T11:19:21Z</time>
      </trkpt>
      <trkpt lat="52.533427001908422" lon="13.294003028422594">
        <ele>27.530000000000001</ele>
        <time>2024-09-17T11:19:24Z</time>
      </trkpt>
      <trkpt lat="52.533334968611598" lon="13.294060025364161">
        <ele>28.02</ele>
        <time>2024-09-17T11:19:25Z</time>
      </trkpt>
      <trkpt lat="52.532402984797955" lon="13.294675005599856">
        <ele>30.899999999999999</ele>
        <time>2024-09-17T11:19:34Z</time>
      </trkpt>
      <trkpt lat="52.531299004331231" lon="13.295342037454247">
        <ele>27.050000000000001</ele>
        <time>2024-09-17T11:19:43Z</time>
      </trkpt>
      <trkpt lat="52.529905010014772" lon="13.295844029635191">
        <ele>22.73</ele>
        <time>2024-09-17T11:19:55Z</time>
      </trkpt>
      <trkpt lat="52.529795961454511" lon="13.295889962464571">
        <ele>22.25</ele>
        <time>2024-09-17T11:19:56Z</time>
      </trkpt>
      <trkpt lat="52.529668975621462" lon="13.295946037396789">
        <ele>21.77</ele>
        <time>2024-09-17T11:19:57Z</time>
      </trkpt>
      <trkpt lat="52.529656989499927" lon="13.29595198854804">
        <ele>21.289999999999999</ele>
        <time>2024-09-17T11:19:58Z</time>
      </trkpt>
      <trkpt lat="52.529633017256856" lon="13.295963974669576">
        <ele>20.809999999999999</ele>
        <time>2024-09-17T11:19:59Z</time>
      </trkpt>
      <trkpt lat="52.529559005051851" lon="13.296001022681594">
        <ele>19.359999999999999</ele>
        <time>2024-09-17T11:20:02Z</time>
      </trkpt>
      <trkpt lat="52.529559005051851" lon="13.296001022681594">
        <ele>19.359999999999999</ele>
        <time>2024-09-17T11:20:17Z</time>
      </trkpt>
      <trkpt lat="52.529279971495271" lon="13.29614301212132">
        <ele>20.32</ele>
        <time>2024-09-17T11:20:26Z</time>
      </trkpt>
      <trkpt lat="52.528728023171425" lon="13.296538973227143">
        <ele>21.77</ele>
        <time>2024-09-17T11:20:32Z</time>
      </trkpt>
      <trkpt lat="52.528617968782783" lon="13.296590019017458">
        <ele>21.77</ele>
        <time>2024-09-17T11:20:33Z</time>
      </trkpt>
      <trkpt lat="52.527823029085994" lon="13.296824041754007">
        <ele>23.210000000000001</ele>
        <time>2024-09-17T11:20:40Z</time>
      </trkpt>
      <trkpt lat="52.5277070235461" lon="13.296858994290233">
        <ele>23.690000000000001</ele>
        <time>2024-09-17T11:20:41Z</time>
      </trkpt>
      <trkpt lat="52.527598980814219" lon="13.296891013160348">
        <ele>24.170000000000002</ele>
        <time>2024-09-17T11:20:42Z</time>
      </trkpt>
      <trkpt lat="52.526760958135128" lon="13.297134004533291">
        <ele>26.57</ele>
        <time>2024-09-17T11:20:51Z</time>
      </trkpt>
      <trkpt lat="52.52663598395884" lon="13.297166023403406">
        <ele>27.050000000000001</ele>
        <time>2024-09-17T11:20:53Z</time>
      </trkpt>
      <trkpt lat="52.526590973138809" lon="13.297177003696561">
        <ele>27.050000000000001</ele>
        <time>2024-09-17T11:20:54Z</time>
      </trkpt>
      <trkpt lat="52.526565995067358" lon="13.297183038666844">
        <ele>27.530000000000001</ele>
        <time>2024-09-17T11:20:55Z</time>
      </trkpt>
      <trkpt lat="52.526565995067358" lon="13.297183038666844">
        <ele>28.02</ele>
        <time>2024-09-17T11:21:06Z</time>
      </trkpt>
      <trkpt lat="52.526536993682384" lon="13.297191001474857">
        <ele>28.02</ele>
        <time>2024-09-17T11:21:17Z</time>
      </trkpt>
      <trkpt lat="52.526530958712101" lon="13.297193013131618">
        <ele>28.02</ele>
        <time>2024-09-17T11:21:18Z</time>
      </trkpt>
      <trkpt lat="52.526536993682384" lon="13.297263002023101">
        <ele>28.5</ele>
        <time>2024-09-17T11:21:19Z</time>
      </trkpt>
      <trkpt lat="52.526536993682384" lon="13.297384036704898">
        <ele>28.5</ele>
        <time>2024-09-17T11:21:20Z</time>
      </trkpt>
      <trkpt lat="52.526519978418946" lon="13.29749702475965">
        <ele>28.5</ele>
        <time>2024-09-17T11:21:21Z</time>
      </trkpt>
      <trkpt lat="52.526502963155508" lon="13.297618981450796">
        <ele>28.5</ele>
        <time>2024-09-17T11:21:22Z</time>
      </trkpt>
      <trkpt lat="52.526300959289074" lon="13.299079025164247">
        <ele>29.460000000000001</ele>
        <time>2024-09-17T11:21:31Z</time>
      </trkpt>
      <trkpt lat="52.526214038953185" lon="13.299629967659712">
        <ele>29.460000000000001</ele>
        <time>2024-09-17T11:21:35Z</time>
      </trkpt>
      <trkpt lat="52.526189982891083" lon="13.299783021211624">
        <ele>29.460000000000001</ele>
        <time>2024-09-17T11:21:37Z</time>
      </trkpt>
      <trkpt lat="52.526177996769547" lon="13.299849992617965">
        <ele>29.460000000000001</ele>
        <time>2024-09-17T11:21:38Z</time>
      </trkpt>
      <trkpt lat="52.526166010648012" lon="13.299918975681067">
        <ele>29.460000000000001</ele>
        <time>2024-09-17T11:21:39Z</time>
      </trkpt>
      <trkpt lat="52.526151007041335" lon="13.300001034513116">
        <ele>29.460000000000001</ele>
        <time>2024-09-17T11:21:40Z</time>
      </trkpt>
      <trkpt lat="52.526132985949516" lon="13.300099018961191">
        <ele>29.460000000000001</ele>
        <time>2024-09-17T11:21:41Z</time>
      </trkpt>
      <trkpt lat="52.526107002049685" lon="13.300237990915775">
        <ele>28.98</ele>
        <time>2024-09-17T11:21:42Z</time>
      </trkpt>
      <trkpt lat="52.526085963472724" lon="13.300362965092063">
        <ele>29.460000000000001</ele>
        <time>2024-09-17T11:21:43Z</time>
      </trkpt>
      <trkpt lat="52.526061991229653" lon="13.300502020865679">
        <ele>29.460000000000001</ele>
        <time>2024-09-17T11:21:44Z</time>
      </trkpt>
      <trkpt lat="52.526037013158202" lon="13.300648033618927">
        <ele>29.940000000000001</ele>
        <time>2024-09-17T11:21:45Z</time>
      </trkpt>
      <trkpt lat="52.525805002078414" lon="13.30224797129631">
        <ele>30.899999999999999</ele>
        <time>2024-09-17T11:21:54Z</time>
      </trkpt>
      <trkpt lat="52.525785975158215" lon="13.302383003756404">
        <ele>30.420000000000002</ele>
        <time>2024-09-17T11:21:55Z</time>
      </trkpt>
      <trkpt lat="52.525767032057047" lon="13.302512001246214">
        <ele>30.420000000000002</ele>
        <time>2024-09-17T11:21:56Z</time>
      </trkpt>
      <trkpt lat="52.525613978505135" lon="13.303635008633137">
        <ele>28.02</ele>
        <time>2024-09-17T11:22:03Z</time>
      </trkpt>
      <trkpt lat="52.525613978505135" lon="13.303821003064513">
        <ele>28.02</ele>
        <time>2024-09-17T11:22:04Z</time>
      </trkpt>
      <trkpt lat="52.525627976283431" lon="13.303948994725943">
        <ele>28.02</ele>
        <time>2024-09-17T11:22:05Z</time>
      </trkpt>
      <trkpt lat="52.525664018467069" lon="13.304271027445793">
        <ele>28.5</ele>
        <time>2024-09-17T11:22:07Z</time>
      </trkpt>
      <trkpt lat="52.525682039558887" lon="13.304432965815067">
        <ele>28.5</ele>
        <time>2024-09-17T11:22:08Z</time>
      </trkpt>
      <trkpt lat="52.525721015408635" lon="13.304882990196347">
        <ele>28.5</ele>
        <time>2024-09-17T11:22:11Z</time>
      </trkpt>
      <trkpt lat="52.525721015408635" lon="13.305004024878144">
        <ele>28.98</ele>
        <time>2024-09-17T11:22:12Z</time>
      </trkpt>
      <trkpt lat="52.525721015408635" lon="13.305106032639742">
        <ele>28.98</ele>
        <time>2024-09-17T11:22:13Z</time>
      </trkpt>
      <trkpt lat="52.525721015408635" lon="13.305191025137901">
        <ele>28.98</ele>
        <time>2024-09-17T11:22:14Z</time>
      </trkpt>
      <trkpt lat="52.525721015408635" lon="13.305266965180635">
        <ele>29.460000000000001</ele>
        <time>2024-09-17T11:22:15Z</time>
      </trkpt>
      <trkpt lat="52.525721015408635" lon="13.306320989504457">
        <ele>29.940000000000001</ele>
        <time>2024-09-17T11:22:24Z</time>
      </trkpt>
      <trkpt lat="52.525721015408635" lon="13.306744024157524">
        <ele>29.940000000000001</ele>
        <time>2024-09-17T11:22:27Z</time>
      </trkpt>
      <trkpt lat="52.525721015408635" lon="13.308285037055612">
        <ele>27.530000000000001</ele>
        <time>2024-09-17T11:22:38Z</time>
      </trkpt>
      <trkpt lat="52.525721015408635" lon="13.308437000960112">
        <ele>27.050000000000001</ele>
        <time>2024-09-17T11:22:39Z</time>
      </trkpt>
      <trkpt lat="52.525724032893777" lon="13.308598017320037">
        <ele>26.57</ele>
        <time>2024-09-17T11:22:40Z</time>
      </trkpt>
      <trkpt lat="52.52573199570179" lon="13.308913009241223">
        <ele>25.129999999999999</ele>
        <time>2024-09-17T11:22:42Z</time>
      </trkpt>
      <trkpt lat="52.525742975994945" lon="13.309588003903627">
        <ele>23.690000000000001</ele>
        <time>2024-09-17T11:22:46Z</time>
      </trkpt>
      <trkpt lat="52.525743981823325" lon="13.30993702635169">
        <ele>22.73</ele>
        <time>2024-09-17T11:22:48Z</time>
      </trkpt>
      <trkpt lat="52.525748005136847" lon="13.310089996084571">
        <ele>22.73</ele>
        <time>2024-09-17T11:22:49Z</time>
      </trkpt>
      <trkpt lat="52.52575202845037" lon="13.310250006616116">
        <ele>22.73</ele>
        <time>2024-09-17T11:22:50Z</time>
      </trkpt>
      <trkpt lat="52.525760997086763" lon="13.310590982437134">
        <ele>22.25</ele>
        <time>2024-09-17T11:22:52Z</time>
      </trkpt>
      <trkpt lat="52.525764014571905" lon="13.310769014060497">
        <ele>22.25</ele>
        <time>2024-09-17T11:22:53Z</time>
      </trkpt>
      <trkpt lat="52.525764014571905" lon="13.310946961864829">
        <ele>22.25</ele>
        <time>2024-09-17T11:22:54Z</time>
      </trkpt>
      <trkpt lat="52.525764014571905" lon="13.311433028429747">
        <ele>21.77</ele>
        <time>2024-09-17T11:22:57Z</time>
      </trkpt>
      <trkpt lat="52.525764014571905" lon="13.311582980677485">
        <ele>21.289999999999999</ele>
        <time>2024-09-17T11:22:58Z</time>
      </trkpt>
      <trkpt lat="52.525764014571905" lon="13.311721030622721">
        <ele>21.289999999999999</ele>
        <time>2024-09-17T11:22:59Z</time>
      </trkpt>
      <trkpt lat="52.525764014571905" lon="13.311857990920544">
        <ele>20.809999999999999</ele>
        <time>2024-09-17T11:23:00Z</time>
      </trkpt>
      <trkpt lat="52.525764014571905" lon="13.312009032815695">
        <ele>20.809999999999999</ele>
        <time>2024-09-17T11:23:01Z</time>
      </trkpt>
      <trkpt lat="52.525764014571905" lon="13.312179017812014">
        <ele>20.32</ele>
        <time>2024-09-17T11:23:02Z</time>
      </trkpt>
      <trkpt lat="52.525767032057047" lon="13.313942989334464">
        <ele>20.32</ele>
        <time>2024-09-17T11:23:12Z</time>
      </trkpt>
      <trkpt lat="52.525769965723157" lon="13.314086990430951">
        <ele>20.809999999999999</ele>
        <time>2024-09-17T11:23:13Z</time>
      </trkpt>
      <trkpt lat="52.525785975158215" lon="13.314699959009886">
        <ele>22.25</ele>
        <time>2024-09-17T11:23:17Z</time>
      </trkpt>
      <trkpt lat="52.525785975158215" lon="13.315065996721387">
        <ele>24.649999999999999</ele>
        <time>2024-09-17T11:23:22Z</time>
      </trkpt>
      <trkpt lat="52.525785975158215" lon="13.315142020583153">
        <ele>24.649999999999999</ele>
        <time>2024-09-17T11:23:23Z</time>
      </trkpt>
      <trkpt lat="52.525785975158215" lon="13.315211003646255">
        <ele>25.129999999999999</ele>
        <time>2024-09-17T11:23:24Z</time>
      </trkpt>
      <trkpt lat="52.525785975158215" lon="13.315275041386485">
        <ele>25.129999999999999</ele>
        <time>2024-09-17T11:23:25Z</time>
      </trkpt>
      <trkpt lat="52.525785975158215" lon="13.315331032499671">
        <ele>25.609999999999999</ele>
        <time>2024-09-17T11:23:26Z</time>
      </trkpt>
      <trkpt lat="52.525785975158215" lon="13.315453995019197">
        <ele>25.609999999999999</ele>
        <time>2024-09-17T11:23:36Z</time>
      </trkpt>
      <trkpt lat="52.525802990421653" lon="13.315907958894968">
        <ele>25.129999999999999</ele>
        <time>2024-09-17T11:23:43Z</time>
      </trkpt>
      <trkpt lat="52.525807013735175" lon="13.316171988844872">
        <ele>24.649999999999999</ele>
        <time>2024-09-17T11:23:45Z</time>
      </trkpt>
      <trkpt lat="52.525807013735175" lon="13.316652020439506">
        <ele>25.609999999999999</ele>
        <time>2024-09-17T11:23:49Z</time>
      </trkpt>
      <trkpt lat="52.525807013735175" lon="13.317551985383034">
        <ele>29.940000000000001</ele>
        <time>2024-09-17T11:24:00Z</time>
      </trkpt>
      <trkpt lat="52.525807013735175" lon="13.317630020901561">
        <ele>30.899999999999999</ele>
        <time>2024-09-17T11:24:02Z</time>
      </trkpt>
      <trkpt lat="52.525807013735175" lon="13.317661033943295">
        <ele>31.379999999999999</ele>
        <time>2024-09-17T11:24:03Z</time>
      </trkpt>
      <trkpt lat="52.525807013735175" lon="13.317689029499888">
        <ele>32.340000000000003</ele>
        <time>2024-09-17T11:24:04Z</time>
      </trkpt>
      <trkpt lat="52.525807013735175" lon="13.317833030596375">
        <ele>33.780000000000001</ele>
        <time>2024-09-17T11:24:13Z</time>
      </trkpt>
      <trkpt lat="52.525807013735175" lon="13.317935038357973">
        <ele>34.259999999999998</ele>
        <time>2024-09-17T11:24:14Z</time>
      </trkpt>
      <trkpt lat="52.525807013735175" lon="13.318054983392358">
        <ele>34.259999999999998</ele>
        <time>2024-09-17T11:24:15Z</time>
      </trkpt>
      <trkpt lat="52.525829980149865" lon="13.318673986941576">
        <ele>34.259999999999998</ele>
        <time>2024-09-17T11:24:20Z</time>
      </trkpt>
      <trkpt lat="52.525846995413303" lon="13.320029005408287">
        <ele>34.740000000000002</ele>
        <time>2024-09-17T11:24:31Z</time>
      </trkpt>
      <trkpt lat="52.525811037048697" lon="13.321198029443622">
        <ele>34.259999999999998</ele>
        <time>2024-09-17T11:24:41Z</time>
      </trkpt>
      <trkpt lat="52.525802990421653" lon="13.321315962821245">
        <ele>33.780000000000001</ele>
        <time>2024-09-17T11:24:42Z</time>
      </trkpt>
      <trkpt lat="52.525787986814976" lon="13.32143004052341">
        <ele>33.299999999999997</ele>
        <time>2024-09-17T11:24:43Z</time>
      </trkpt>
      <trkpt lat="52.525772983208299" lon="13.321543028578162">
        <ele>32.82</ele>
        <time>2024-09-17T11:24:44Z</time>
      </trkpt>
      <trkpt lat="52.52575596794486" lon="13.321666996926069">
        <ele>32.340000000000003</ele>
        <time>2024-09-17T11:24:45Z</time>
      </trkpt>
      <trkpt lat="52.525739036500454" lon="13.321801023557782">
        <ele>31.859999999999999</ele>
        <time>2024-09-17T11:24:46Z</time>
      </trkpt>
      <trkpt lat="52.525719003751874" lon="13.32194603048265">
        <ele>31.859999999999999</ele>
        <time>2024-09-17T11:24:47Z</time>
      </trkpt>
      <trkpt lat="52.525697965174913" lon="13.322103023529053">
        <ele>31.379999999999999</ele>
        <time>2024-09-17T11:24:48Z</time>
      </trkpt>
      <trkpt lat="52.525606015697122" lon="13.322798972949386">
        <ele>29.940000000000001</ele>
        <time>2024-09-17T11:24:52Z</time>
      </trkpt>
      <trkpt lat="52.525579025968909" lon="13.322997959330678">
        <ele>28.98</ele>
        <time>2024-09-17T11:24:53Z</time>
      </trkpt>
      <trkpt lat="52.525208964943886" lon="13.324731001630425">
        <ele>25.129999999999999</ele>
        <time>2024-09-17T11:25:02Z</time>
      </trkpt>
      <trkpt lat="52.524916017428041" lon="13.325832970440388">
        <ele>24.170000000000002</ele>
        <time>2024-09-17T11:25:08Z</time>
      </trkpt>
      <trkpt lat="52.524717031046748" lon="13.326440993696451">
        <ele>25.609999999999999</ele>
        <time>2024-09-17T11:25:13Z</time>
      </trkpt>
      <trkpt lat="52.524688029661775" lon="13.326529003679752">
        <ele>26.09</ele>
        <time>2024-09-17T11:25:14Z</time>
      </trkpt>
      <trkpt lat="52.524661039933562" lon="13.32661097869277">
        <ele>26.57</ele>
        <time>2024-09-17T11:25:15Z</time>
      </trkpt>
      <trkpt lat="52.524632960557938" lon="13.326697982847691">
        <ele>26.57</ele>
        <time>2024-09-17T11:25:16Z</time>
      </trkpt>
      <trkpt lat="52.524597002193332" lon="13.326805019751191">
        <ele>27.050000000000001</ele>
        <time>2024-09-17T11:25:17Z</time>
      </trkpt>
      <trkpt lat="52.524560960009694" lon="13.326909961178899">
        <ele>27.050000000000001</ele>
        <time>2024-09-17T11:25:18Z</time>
      </trkpt>
      <trkpt lat="52.524526007473469" lon="13.327011968940496">
        <ele>27.050000000000001</ele>
        <time>2024-09-17T11:25:19Z</time>
      </trkpt>
      <trkpt lat="52.524450989440084" lon="13.327228976413608">
        <ele>27.050000000000001</ele>
        <time>2024-09-17T11:25:21Z</time>
      </trkpt>
      <trkpt lat="52.524369014427066" lon="13.32746802829206">
        <ele>27.050000000000001</ele>
        <time>2024-09-17T11:25:22Z</time>
      </trkpt>
      <trkpt lat="52.524311011657119" lon="13.327673971652985">
        <ele>26.09</ele>
        <time>2024-09-17T11:25:25Z</time>
      </trkpt>
      <trkpt lat="52.524279998615384" lon="13.327782014384866">
        <ele>26.09</ele>
        <time>2024-09-17T11:25:26Z</time>
      </trkpt>
      <trkpt lat="52.524250997230411" lon="13.327885027974844">
        <ele>26.09</ele>
        <time>2024-09-17T11:25:27Z</time>
      </trkpt>
      <trkpt lat="52.524219984188676" lon="13.327993992716074">
        <ele>26.09</ele>
        <time>2024-09-17T11:25:28Z</time>
      </trkpt>
      <trkpt lat="52.52418695949018" lon="13.328109998255968">
        <ele>25.609999999999999</ele>
        <time>2024-09-17T11:25:29Z</time>
      </trkpt>
      <trkpt lat="52.524154018610716" lon="13.328229021281004">
        <ele>25.609999999999999</ele>
        <time>2024-09-17T11:25:30Z</time>
      </trkpt>
      <trkpt lat="52.524124011397362" lon="13.328335974365473">
        <ele>25.609999999999999</ele>
        <time>2024-09-17T11:25:31Z</time>
      </trkpt>
      <trkpt lat="52.524099033325911" lon="13.328422978520393">
        <ele>25.609999999999999</ele>
        <time>2024-09-17T11:25:32Z</time>
      </trkpt>
      <trkpt lat="52.524071959778666" lon="13.328517023473978">
        <ele>25.129999999999999</ele>
        <time>2024-09-17T11:25:33Z</time>
      </trkpt>
      <trkpt lat="52.524044970050454" lon="13.328612996265292">
        <ele>25.129999999999999</ele>
        <time>2024-09-17T11:25:34Z</time>
      </trkpt>
      <trkpt lat="52.524019991979003" lon="13.328712992370129">
        <ele>25.129999999999999</ele>
        <time>2024-09-17T11:25:35Z</time>
      </trkpt>
      <trkpt lat="52.523940028622746" lon="13.329023960977793">
        <ele>24.649999999999999</ele>
        <time>2024-09-17T11:25:42Z</time>
      </trkpt>
      <trkpt lat="52.523940028622746" lon="13.329023960977793">
        <ele>24.649999999999999</ele>
        <time>2024-09-17T11:25:58Z</time>
      </trkpt>
      <trkpt lat="52.523899963125587" lon="13.329180032014847">
        <ele>24.649999999999999</ele>
        <time>2024-09-17T11:26:15Z</time>
      </trkpt>
      <trkpt lat="52.523890994489193" lon="13.329214984551072">
        <ele>24.649999999999999</ele>
        <time>2024-09-17T11:26:16Z</time>
      </trkpt>
      <trkpt lat="52.523882025852799" lon="13.32925102673471">
        <ele>24.649999999999999</ele>
        <time>2024-09-17T11:26:17Z</time>
      </trkpt>
      <trkpt lat="52.523872973397374" lon="13.329285979270935">
        <ele>24.170000000000002</ele>
        <time>2024-09-17T11:26:18Z</time>
      </trkpt>
      <trkpt lat="52.523866016417742" lon="13.329313974827528">
        <ele>23.690000000000001</ele>
        <time>2024-09-17T11:26:19Z</time>
      </trkpt>
      <trkpt lat="52.523832991719246" lon="13.329441966488957">
        <ele>21.77</ele>
        <time>2024-09-17T11:26:25Z</time>
      </trkpt>
      <trkpt lat="52.523818993940949" lon="13.32946702837944">
        <ele>21.77</ele>
        <time>2024-09-17T11:26:26Z</time>
      </trkpt>
      <trkpt lat="52.523697037249804" lon="13.329630978405476">
        <ele>21.289999999999999</ele>
        <time>2024-09-17T11:26:27Z</time>
      </trkpt>
      <trkpt lat="52.523642973974347" lon="13.329625027254224">
        <ele>21.289999999999999</ele>
        <time>2024-09-17T11:26:28Z</time>
      </trkpt>
      <trkpt lat="52.523591006174684" lon="13.32961798645556">
        <ele>21.289999999999999</ele>
        <time>2024-09-17T11:26:29Z</time>
      </trkpt>
      <trkpt lat="52.523537026718259" lon="13.329611029475927">
        <ele>20.809999999999999</ele>
        <time>2024-09-17T11:26:30Z</time>
      </trkpt>
      <trkpt lat="52.523343991488218" lon="13.329586973413825">
        <ele>22.25</ele>
        <time>2024-09-17T11:26:35Z</time>
      </trkpt>
      <trkpt lat="52.523325970396399" lon="13.329584961757064">
        <ele>22.73</ele>
        <time>2024-09-17T11:26:36Z</time>
      </trkpt>
      <trkpt lat="52.523309960961342" lon="13.329583033919334">
        <ele>23.690000000000001</ele>
        <time>2024-09-17T11:26:37Z</time>
      </trkpt>
      <trkpt lat="52.523297974839807" lon="13.329581022262573">
        <ele>24.170000000000002</ele>
        <time>2024-09-17T11:26:38Z</time>
      </trkpt>
      <trkpt lat="52.523297974839807" lon="13.329581022262573">
        <ele>25.609999999999999</ele>
        <time>2024-09-17T11:26:56Z</time>
      </trkpt>
      <trkpt lat="52.52328297123313" lon="13.329580016434193">
        <ele>25.609999999999999</ele>
        <time>2024-09-17T11:27:02Z</time>
      </trkpt>
      <trkpt lat="52.523242989555001" lon="13.32957498729229">
        <ele>27.050000000000001</ele>
        <time>2024-09-17T11:27:03Z</time>
      </trkpt>
      <trkpt lat="52.523181969299912" lon="13.329567024484277">
        <ele>28.02</ele>
        <time>2024-09-17T11:27:04Z</time>
      </trkpt>
      <trkpt lat="52.523106029257178" lon="13.329556966200471">
        <ele>29.460000000000001</ele>
        <time>2024-09-17T11:27:05Z</time>
      </trkpt>
      <trkpt lat="52.523103011772037" lon="13.329556966200471">
        <ele>30.420000000000002</ele>
        <time>2024-09-17T11:27:06Z</time>
      </trkpt>
      <trkpt lat="52.522955993190408" lon="13.32959502004087">
        <ele>31.379999999999999</ele>
        <time>2024-09-17T11:27:07Z</time>
      </trkpt>
      <trkpt lat="52.522846022620797" lon="13.329656040295959">
        <ele>32.340000000000003</ele>
        <time>2024-09-17T11:27:08Z</time>
      </trkpt>
      <trkpt lat="52.522823978215456" lon="13.329713959246874">
        <ele>33.299999999999997</ele>
        <time>2024-09-17T11:27:09Z</time>
      </trkpt>
      <trkpt lat="52.522782990708947" lon="13.329825019463897">
        <ele>34.259999999999998</ele>
        <time>2024-09-17T11:27:11Z</time>
      </trkpt>
      <trkpt lat="52.522692969068885" lon="13.330062981694937">
        <ele>34.740000000000002</ele>
        <time>2024-09-17T11:27:12Z</time>
      </trkpt>
      <trkpt lat="52.522648964077234" lon="13.330180998891592">
        <ele>34.740000000000002</ele>
        <time>2024-09-17T11:27:13Z</time>
      </trkpt>
      <trkpt lat="52.522566989064217" lon="13.330386020243168">
        <ele>34.740000000000002</ele>
        <time>2024-09-17T11:27:14Z</time>
      </trkpt>
      <trkpt lat="52.522562965750694" lon="13.330395994707942">
        <ele>34.740000000000002</ele>
        <time>2024-09-17T11:27:15Z</time>
      </trkpt>
      <trkpt lat="52.522091986611485" lon="13.331540962681174">
        <ele>34.259999999999998</ele>
        <time>2024-09-17T11:27:27Z</time>
      </trkpt>
      <trkpt lat="52.521894006058574" lon="13.332047984004021">
        <ele>34.259999999999998</ele>
        <time>2024-09-17T11:27:33Z</time>
      </trkpt>
      <trkpt lat="52.521816976368427" lon="13.332243030890822">
        <ele>33.780000000000001</ele>
        <time>2024-09-17T11:27:35Z</time>
      </trkpt>
      <trkpt lat="52.521531991660595" lon="13.33296999335289">
        <ele>32.340000000000003</ele>
        <time>2024-09-17T11:27:43Z</time>
      </trkpt>
      <trkpt lat="52.521503996104002" lon="13.333040988072753">
        <ele>31.859999999999999</ele>
        <time>2024-09-17T11:27:44Z</time>
      </trkpt>
      <trkpt lat="52.52147801220417" lon="13.333108965307474">
        <ele>31.379999999999999</ele>
        <time>2024-09-17T11:27:45Z</time>
      </trkpt>
      <trkpt lat="52.5214540399611" lon="13.333167973905802">
        <ele>30.899999999999999</ele>
        <time>2024-09-17T11:27:46Z</time>
      </trkpt>
      <trkpt lat="52.521436018869281" lon="13.333216002210975">
        <ele>30.420000000000002</ele>
        <time>2024-09-17T11:27:47Z</time>
      </trkpt>
      <trkpt lat="52.521416991949081" lon="13.333263024687767">
        <ele>30.420000000000002</ele>
        <time>2024-09-17T11:27:48Z</time>
      </trkpt>
      <trkpt lat="52.521401988342404" lon="13.333302000537515">
        <ele>30.420000000000002</ele>
        <time>2024-09-17T11:27:49Z</time>
      </trkpt>
      <trkpt lat="52.52139100804925" lon="13.333329996094108">
        <ele>30.899999999999999</ele>
        <time>2024-09-17T11:27:50Z</time>
      </trkpt>
      <trkpt lat="52.521380027756095" lon="13.33335698582232">
        <ele>31.379999999999999</ele>
        <time>2024-09-17T11:27:51Z</time>
      </trkpt>
      <trkpt lat="52.521365024149418" lon="13.333396967500448">
        <ele>31.379999999999999</ele>
        <time>2024-09-17T11:27:52Z</time>
      </trkpt>
      <trkpt lat="52.521343985572457" lon="13.333450024947524">
        <ele>31.379999999999999</ele>
        <time>2024-09-17T11:27:53Z</time>
      </trkpt>
      <trkpt lat="52.521056989207864" lon="13.334190985187888">
        <ele>32.340000000000003</ele>
        <time>2024-09-17T11:28:00Z</time>
      </trkpt>
      <trkpt lat="52.521010972559452" lon="13.334311014041305">
        <ele>32.340000000000003</ele>
        <time>2024-09-17T11:28:01Z</time>
      </trkpt>
      <trkpt lat="52.520883986726403" lon="13.334642015397549">
        <ele>32.340000000000003</ele>
        <time>2024-09-17T11:28:04Z</time>
      </trkpt>
      <trkpt lat="52.520847022533417" lon="13.334737988188863">
        <ele>32.340000000000003</ele>
        <time>2024-09-17T11:28:05Z</time>
      </trkpt>
      <trkpt lat="52.520686006173491" lon="13.335154987871647">
        <ele>33.299999999999997</ele>
        <time>2024-09-17T11:28:09Z</time>
      </trkpt>
      <trkpt lat="52.520604031160474" lon="13.335367972031236">
        <ele>33.780000000000001</ele>
        <time>2024-09-17T11:28:11Z</time>
      </trkpt>
      <trkpt lat="52.520563965663314" lon="13.335471991449594">
        <ele>34.259999999999998</ele>
        <time>2024-09-17T11:28:12Z</time>
      </trkpt>
      <trkpt lat="52.520521972328424" lon="13.335582967847586">
        <ele>34.740000000000002</ele>
        <time>2024-09-17T11:28:13Z</time>
      </trkpt>
      <trkpt lat="52.520363973453641" lon="13.335983958095312">
        <ele>37.149999999999999</ele>
        <time>2024-09-17T11:28:17Z</time>
      </trkpt>
      <trkpt lat="52.520047975704074" lon="13.336789039894938">
        <ele>39.07</ele>
        <time>2024-09-17T11:28:25Z</time>
      </trkpt>
      <trkpt lat="52.520001959055662" lon="13.336904961615801">
        <ele>39.07</ele>
        <time>2024-09-17T11:28:26Z</time>
      </trkpt>
      <trkpt lat="52.519958037883043" lon="13.337020967155695">
        <ele>38.590000000000003</ele>
        <time>2024-09-17T11:28:27Z</time>
      </trkpt>
      <trkpt lat="52.51952201128006" lon="13.33827598951757">
        <ele>37.630000000000003</ele>
        <time>2024-09-17T11:28:38Z</time>
      </trkpt>
      <trkpt lat="52.519145999103785" lon="13.339174026623368">
        <ele>35.710000000000001</ele>
        <time>2024-09-17T11:28:48Z</time>
      </trkpt>
      <trkpt lat="52.519120015203953" lon="13.339239992201328">
        <ele>35.710000000000001</ele>
        <time>2024-09-17T11:28:49Z</time>
      </trkpt>
      <trkpt lat="52.519077016040683" lon="13.339345017448068">
        <ele>35.229999999999997</ele>
        <time>2024-09-17T11:28:51Z</time>
      </trkpt>
      <trkpt lat="52.519025970250368" lon="13.339467979967594">
        <ele>34.740000000000002</ele>
        <time>2024-09-17T11:29:00Z</time>
      </trkpt>
      <trkpt lat="52.518854979425669" lon="13.339763022959232">
        <ele>35.710000000000001</ele>
        <time>2024-09-17T11:29:30Z</time>
      </trkpt>
      <trkpt lat="52.518402021378279" lon="13.340850993990898">
        <ele>36.670000000000002</ele>
        <time>2024-09-17T11:29:38Z</time>
      </trkpt>
      <trkpt lat="52.517634993419051" lon="13.342625023797154">
        <ele>38.590000000000003</ele>
        <time>2024-09-17T11:29:49Z</time>
      </trkpt>
      <trkpt lat="52.516771992668509" lon="13.344671968370676">
        <ele>36.189999999999998</ele>
        <time>2024-09-17T11:30:02Z</time>
      </trkpt>
      <trkpt lat="52.516058022156358" lon="13.34626997821033">
        <ele>33.299999999999997</ele>
        <time>2024-09-17T11:30:14Z</time>
      </trkpt>
      <trkpt lat="52.515540020540357" lon="13.347459034994245">
        <ele>29.460000000000001</ele>
        <time>2024-09-17T11:30:24Z</time>
      </trkpt>
      <trkpt lat="52.515437006950378" lon="13.347716024145484">
        <ele>27.050000000000001</ele>
        <time>2024-09-17T11:30:27Z</time>
      </trkpt>
      <trkpt lat="52.515406999737024" lon="13.347788024693727">
        <ele>26.57</ele>
        <time>2024-09-17T11:30:28Z</time>
      </trkpt>
      <trkpt lat="52.515377998352051" lon="13.34785901941359">
        <ele>26.09</ele>
        <time>2024-09-17T11:30:29Z</time>
      </trkpt>
      <trkpt lat="52.51524799503386" lon="13.348176022991538">
        <ele>22.25</ele>
        <time>2024-09-17T11:30:36Z</time>
      </trkpt>
      <trkpt lat="52.51524799503386" lon="13.348176022991538">
        <ele>22.25</ele>
        <time>2024-09-17T11:30:47Z</time>
      </trkpt>
      <trkpt lat="52.515210025012493" lon="13.34826897829771">
        <ele>24.170000000000002</ele>
        <time>2024-09-17T11:31:10Z</time>
      </trkpt>
      <trkpt lat="52.514982959255576" lon="13.348830984905362">
        <ele>30.420000000000002</ele>
        <time>2024-09-17T11:31:17Z</time>
      </trkpt>
      <trkpt lat="52.514933003112674" lon="13.348916983231902">
        <ele>30.420000000000002</ele>
        <time>2024-09-17T11:31:18Z</time>
      </trkpt>
      <trkpt lat="52.514870977029204" lon="13.348966017365456">
        <ele>30.420000000000002</ele>
        <time>2024-09-17T11:31:19Z</time>
      </trkpt>
      <trkpt lat="52.514802999794483" lon="13.349021002650261">
        <ele>30.899999999999999</ele>
        <time>2024-09-17T11:31:20Z</time>
      </trkpt>
      <trkpt lat="52.514735022559762" lon="13.349074982106686">
        <ele>30.899999999999999</ele>
        <time>2024-09-17T11:31:21Z</time>
      </trkpt>
      <trkpt lat="52.514263037592173" lon="13.34912502206862">
        <ele>31.859999999999999</ele>
        <time>2024-09-17T11:31:26Z</time>
      </trkpt>
      <trkpt lat="52.514154994860291" lon="13.34919199347496">
        <ele>31.859999999999999</ele>
        <time>2024-09-17T11:31:27Z</time>
      </trkpt>
      <trkpt lat="52.51408601179719" lon="13.349288972094655">
        <ele>32.340000000000003</ele>
        <time>2024-09-17T11:31:28Z</time>
      </trkpt>
      <trkpt lat="52.514017028734088" lon="13.349386034533381">
        <ele>32.340000000000003</ele>
        <time>2024-09-17T11:31:29Z</time>
      </trkpt>
      <trkpt lat="52.513946034014225" lon="13.349524000659585">
        <ele>32.82</ele>
        <time>2024-09-17T11:31:30Z</time>
      </trkpt>
      <trkpt lat="52.513908986002207" lon="13.34966397844255">
        <ele>32.82</ele>
        <time>2024-09-17T11:31:31Z</time>
      </trkpt>
      <trkpt lat="52.51387101598084" lon="13.349808985367417">
        <ele>33.299999999999997</ele>
        <time>2024-09-17T11:31:32Z</time>
      </trkpt>
      <trkpt lat="52.513855006545782" lon="13.349993973970413">
        <ele>33.780000000000001</ele>
        <time>2024-09-17T11:31:33Z</time>
      </trkpt>
      <trkpt lat="52.513874033465981" lon="13.350160019472241">
        <ele>34.259999999999998</ele>
        <time>2024-09-17T11:31:34Z</time>
      </trkpt>
      <trkpt lat="52.513896999880672" lon="13.350321035832167">
        <ele>34.259999999999998</ele>
        <time>2024-09-17T11:31:35Z</time>
      </trkpt>
      <trkpt lat="52.513918960466981" lon="13.350483980029821">
        <ele>34.259999999999998</ele>
        <time>2024-09-17T11:31:36Z</time>
      </trkpt>
      <trkpt lat="52.513941004872322" lon="13.350641978904605">
        <ele>34.740000000000002</ele>
        <time>2024-09-17T11:31:37Z</time>
      </trkpt>
      <trkpt lat="52.514004958793521" lon="13.350770976394415">
        <ele>34.740000000000002</ele>
        <time>2024-09-17T11:31:38Z</time>
      </trkpt>
      <trkpt lat="52.514084000140429" lon="13.35088899359107">
        <ele>34.740000000000002</ele>
        <time>2024-09-17T11:31:39Z</time>
      </trkpt>
      <trkpt lat="52.514134040102363" lon="13.350964011624455">
        <ele>34.740000000000002</ele>
        <time>2024-09-17T11:31:40Z</time>
      </trkpt>
      <trkpt lat="52.514245016500354" lon="13.351041963323951">
        <ele>34.740000000000002</ele>
        <time>2024-09-17T11:31:41Z</time>
      </trkpt>
      <trkpt lat="52.514350041747093" lon="13.351201973855495">
        <ele>34.740000000000002</ele>
        <time>2024-09-17T11:31:42Z</time>
      </trkpt>
      <trkpt lat="52.514411984011531" lon="13.351327031850815">
        <ele>34.740000000000002</ele>
        <time>2024-09-17T11:31:43Z</time>
      </trkpt>
      <trkpt lat="52.514475015923381" lon="13.351453011855483">
        <ele>34.259999999999998</ele>
        <time>2024-09-17T11:31:44Z</time>
      </trkpt>
      <trkpt lat="52.514509968459606" lon="13.35161997936666">
        <ele>34.259999999999998</ele>
        <time>2024-09-17T11:31:45Z</time>
      </trkpt>
      <trkpt lat="52.514541987329721" lon="13.351778984069824">
        <ele>34.259999999999998</ele>
        <time>2024-09-17T11:31:46Z</time>
      </trkpt>
      <trkpt lat="52.514565959572792" lon="13.351950980722904">
        <ele>33.780000000000001</ele>
        <time>2024-09-17T11:31:47Z</time>
      </trkpt>
      <trkpt lat="52.514588003978133" lon="13.352125994861126">
        <ele>33.780000000000001</ele>
        <time>2024-09-17T11:31:48Z</time>
      </trkpt>
      <trkpt lat="52.514627985656261" lon="13.352685989812016">
        <ele>33.299999999999997</ele>
        <time>2024-09-17T11:31:51Z</time>
      </trkpt>
      <trkpt lat="52.514717001467943" lon="13.353922991082072">
        <ele>33.299999999999997</ele>
        <time>2024-09-17T11:31:57Z</time>
      </trkpt>
      <trkpt lat="52.514733010903001" lon="13.35413102991879">
        <ele>33.299999999999997</ele>
        <time>2024-09-17T11:31:58Z</time>
      </trkpt>
      <trkpt lat="52.514878017827868" lon="13.356589023023844">
        <ele>33.299999999999997</ele>
        <time>2024-09-17T11:32:10Z</time>
      </trkpt>
      <trkpt lat="52.515006009489298" lon="13.358629010617733">
        <ele>34.259999999999998</ele>
        <time>2024-09-17T11:32:20Z</time>
      </trkpt>
      <trkpt lat="52.515140036121011" lon="13.360660029575229">
        <ele>35.229999999999997</ele>
        <time>2024-09-17T11:32:30Z</time>
      </trkpt>
      <trkpt lat="52.51524698920548" lon="13.362424001097679">
        <ele>35.710000000000001</ele>
        <time>2024-09-17T11:32:39Z</time>
      </trkpt>
      <trkpt lat="52.515308009460568" lon="13.363577015697956">
        <ele>34.259999999999998</ele>
        <time>2024-09-17T11:32:45Z</time>
      </trkpt>
      <trkpt lat="52.515372969210148" lon="13.364515034481883">
        <ele>33.780000000000001</ele>
        <time>2024-09-17T11:32:50Z</time>
      </trkpt>
      <trkpt lat="52.515528034418821" lon="13.366619981825352">
        <ele>33.299999999999997</ele>
        <time>2024-09-17T11:33:01Z</time>
      </trkpt>
      <trkpt lat="52.515604980289936" lon="13.368062004446983">
        <ele>34.259999999999998</ele>
        <time>2024-09-17T11:33:10Z</time>
      </trkpt>
      <trkpt lat="52.5156120210886" lon="13.368168035522103">
        <ele>34.259999999999998</ele>
        <time>2024-09-17T11:33:11Z</time>
      </trkpt>
      <trkpt lat="52.515650996938348" lon="13.368717972189188">
        <ele>34.740000000000002</ele>
        <time>2024-09-17T11:33:16Z</time>
      </trkpt>
      <trkpt lat="52.515688966959715" lon="13.369315015152097">
        <ele>34.259999999999998</ele>
        <time>2024-09-17T11:33:25Z</time>
      </trkpt>
      <trkpt lat="52.515688966959715" lon="13.369315015152097">
        <ele>33.780000000000001</ele>
        <time>2024-09-17T11:33:40Z</time>
      </trkpt>
      <trkpt lat="52.515699025243521" lon="13.369421968236566">
        <ele>33.780000000000001</ele>
        <time>2024-09-17T11:33:47Z</time>
      </trkpt>
      <trkpt lat="52.515706988051534" lon="13.369510984048247">
        <ele>34.259999999999998</ele>
        <time>2024-09-17T11:33:48Z</time>
      </trkpt>
      <trkpt lat="52.515768008306623" lon="13.370599038898945">
        <ele>35.229999999999997</ele>
        <time>2024-09-17T11:33:56Z</time>
      </trkpt>
      <trkpt lat="52.515816958621144" lon="13.371402025222778">
        <ele>34.740000000000002</ele>
        <time>2024-09-17T11:34:01Z</time>
      </trkpt>
      <trkpt lat="52.515919972211123" lon="13.373163985088468">
        <ele>36.189999999999998</ele>
        <time>2024-09-17T11:34:10Z</time>
      </trkpt>
      <trkpt lat="52.516018962487578" lon="13.374568037688732">
        <ele>36.670000000000002</ele>
        <time>2024-09-17T11:34:18Z</time>
      </trkpt>
      <trkpt lat="52.516053998842835" lon="13.37505997158587">
        <ele>36.670000000000002</ele>
        <time>2024-09-17T11:34:22Z</time>
      </trkpt>
      <trkpt lat="52.5160610396415" lon="13.375154016539454">
        <ele>36.670000000000002</ele>
        <time>2024-09-17T11:34:23Z</time>
      </trkpt>
      <trkpt lat="52.51610403880477" lon="13.375718034803867">
        <ele>35.710000000000001</ele>
        <time>2024-09-17T11:34:31Z</time>
      </trkpt>
      <trkpt lat="52.516117030754685" lon="13.37587796151638">
        <ele>35.710000000000001</ele>
        <time>2024-09-17T11:34:34Z</time>
      </trkpt>
      <trkpt lat="52.516118958592415" lon="13.375916015356779">
        <ele>36.189999999999998</ele>
        <time>2024-09-17T11:34:35Z</time>
      </trkpt>
      <trkpt lat="52.516118958592415" lon="13.375916015356779">
        <ele>36.670000000000002</ele>
        <time>2024-09-17T11:34:46Z</time>
      </trkpt>
      <trkpt lat="52.516123987734318" lon="13.375975023955107">
        <ele>36.670000000000002</ele>
        <time>2024-09-17T11:35:10Z</time>
      </trkpt>
      <trkpt lat="52.51612801104784" lon="13.37602699175477">
        <ele>36.670000000000002</ele>
        <time>2024-09-17T11:35:11Z</time>
      </trkpt>
      <trkpt lat="52.516131028532982" lon="13.376097986474633">
        <ele>37.149999999999999</ele>
        <time>2024-09-17T11:35:12Z</time>
      </trkpt>
      <trkpt lat="52.516147959977388" lon="13.3767110388726">
        <ele>37.149999999999999</ele>
        <time>2024-09-17T11:35:18Z</time>
      </trkpt>
      <trkpt lat="52.516118036583066" lon="13.376859985291958">
        <ele>37.149999999999999</ele>
        <time>2024-09-17T11:35:19Z</time>
      </trkpt>
      <trkpt lat="52.51606397330761" lon="13.37692704051733">
        <ele>37.149999999999999</ele>
        <time>2024-09-17T11:35:20Z</time>
      </trkpt>
      <trkpt lat="52.516004964709282" lon="13.376999041065574">
        <ele>37.630000000000003</ele>
        <time>2024-09-17T11:35:21Z</time>
      </trkpt>
      <trkpt lat="52.515949979424477" lon="13.377071963623166">
        <ele>37.630000000000003</ele>
        <time>2024-09-17T11:35:22Z</time>
      </trkpt>
      <trkpt lat="52.515901029109955" lon="13.377168020233512">
        <ele>37.630000000000003</ele>
        <time>2024-09-17T11:35:23Z</time>
      </trkpt>
      <trkpt lat="52.515847971662879" lon="13.377263993024826">
        <ele>37.630000000000003</ele>
        <time>2024-09-17T11:35:24Z</time>
      </trkpt>
      <trkpt lat="52.515796003863215" lon="13.37735895998776">
        <ele>37.149999999999999</ele>
        <time>2024-09-17T11:35:25Z</time>
      </trkpt>
      <trkpt lat="52.515731966122985" lon="13.377414029091597">
        <ele>37.149999999999999</ele>
        <time>2024-09-17T11:35:26Z</time>
      </trkpt>
      <trkpt lat="52.515669018030167" lon="13.377456022426486">
        <ele>37.149999999999999</ele>
        <time>2024-09-17T11:35:27Z</time>
      </trkpt>
      <trkpt lat="52.515592994168401" lon="13.377506984397769">
        <ele>37.149999999999999</ele>
        <time>2024-09-17T11:35:28Z</time>
      </trkpt>
      <trkpt lat="52.515519987791777" lon="13.377506984397769">
        <ele>37.149999999999999</ele>
        <time>2024-09-17T11:35:29Z</time>
      </trkpt>
      <trkpt lat="52.515443963930011" lon="13.377506984397769">
        <ele>36.670000000000002</ele>
        <time>2024-09-17T11:35:30Z</time>
      </trkpt>
      <trkpt lat="52.515366012230515" lon="13.377502961084247">
        <ele>36.670000000000002</ele>
        <time>2024-09-17T11:35:31Z</time>
      </trkpt>
      <trkpt lat="52.51475396566093" lon="13.377411011606455">
        <ele>35.710000000000001</ele>
        <time>2024-09-17T11:35:39Z</time>
      </trkpt>
      <trkpt lat="52.514691017568111" lon="13.3774000313133">
        <ele>35.229999999999997</ele>
        <time>2024-09-17T11:35:40Z</time>
      </trkpt>
      <trkpt lat="52.514639971777797" lon="13.377391984686255">
        <ele>35.229999999999997</ele>
        <time>2024-09-17T11:35:41Z</time>
      </trkpt>
      <trkpt lat="52.514566965401173" lon="13.377488041296601">
        <ele>34.740000000000002</ele>
        <time>2024-09-17T11:35:42Z</time>
      </trkpt>
      <trkpt lat="52.514569982886314" lon="13.37757202796638">
        <ele>34.740000000000002</ele>
        <time>2024-09-17T11:35:43Z</time>
      </trkpt>
      <trkpt lat="52.514573000371456" lon="13.37767998687923">
        <ele>34.740000000000002</ele>
        <time>2024-09-17T11:35:44Z</time>
      </trkpt>
      <trkpt lat="52.514577023684978" lon="13.377801021561027">
        <ele>34.259999999999998</ele>
        <time>2024-09-17T11:35:45Z</time>
      </trkpt>
      <trkpt lat="52.514580963179469" lon="13.377928007394075">
        <ele>34.259999999999998</ele>
        <time>2024-09-17T11:35:46Z</time>
      </trkpt>
      <trkpt lat="52.514589009806514" lon="13.378064967691898">
        <ele>33.780000000000001</ele>
        <time>2024-09-17T11:35:47Z</time>
      </trkpt>
      <trkpt lat="52.514778021723032" lon="13.379567004740238">
        <ele>32.340000000000003</ele>
        <time>2024-09-17T11:35:56Z</time>
      </trkpt>
      <trkpt lat="52.514798976480961" lon="13.379674041643739">
        <ele>32.340000000000003</ele>
        <time>2024-09-17T11:35:57Z</time>
      </trkpt>
      <trkpt lat="52.514820015057921" lon="13.379805972799659">
        <ele>32.340000000000003</ele>
        <time>2024-09-17T11:35:58Z</time>
      </trkpt>
      <trkpt lat="52.514920011162758" lon="13.380386000499129">
        <ele>31.859999999999999</ele>
        <time>2024-09-17T11:36:02Z</time>
      </trkpt>
      <trkpt lat="52.514970973134041" lon="13.380639972165227">
        <ele>31.859999999999999</ele>
        <time>2024-09-17T11:36:03Z</time>
      </trkpt>
      <trkpt lat="52.515056971460581" lon="13.381046997383237">
        <ele>30.899999999999999</ele>
        <time>2024-09-17T11:36:06Z</time>
      </trkpt>
      <trkpt lat="52.5150749925524" lon="13.381142970174551">
        <ele>30.899999999999999</ele>
        <time>2024-09-17T11:36:07Z</time>
      </trkpt>
      <trkpt lat="52.515238020569086" lon="13.38266302831471">
        <ele>30.420000000000002</ele>
        <time>2024-09-17T11:36:17Z</time>
      </trkpt>
      <trkpt lat="52.515250006690621" lon="13.382827984169126">
        <ele>30.420000000000002</ele>
        <time>2024-09-17T11:36:18Z</time>
      </trkpt>
      <trkpt lat="52.515261992812157" lon="13.382992018014193">
        <ele>29.460000000000001</ele>
        <time>2024-09-17T11:36:20Z</time>
      </trkpt>
      <trkpt lat="52.515279008075595" lon="13.383215982466936">
        <ele>28.98</ele>
        <time>2024-09-17T11:36:22Z</time>
      </trkpt>
      <trkpt lat="52.515288982540369" lon="13.383328970521688">
        <ele>28.5</ele>
        <time>2024-09-17T11:36:23Z</time>
      </trkpt>
      <trkpt lat="52.515299040824175" lon="13.383442964404821">
        <ele>28.02</ele>
        <time>2024-09-17T11:36:24Z</time>
      </trkpt>
      <trkpt lat="52.51531002111733" lon="13.383565004914999">
        <ele>28.02</ele>
        <time>2024-09-17T11:36:25Z</time>
      </trkpt>
      <trkpt lat="52.515321001410484" lon="13.383689979091287">
        <ele>28.02</ele>
        <time>2024-09-17T11:36:26Z</time>
      </trkpt>
      <trkpt lat="52.515388978645205" lon="13.384652975946665">
        <ele>27.050000000000001</ele>
        <time>2024-09-17T11:36:36Z</time>
      </trkpt>
      <trkpt lat="52.515388978645205" lon="13.384652975946665">
        <ele>27.050000000000001</ele>
        <time>2024-09-17T11:36:37Z</time>
      </trkpt>
      <trkpt lat="52.515389984473586" lon="13.384674014523625">
        <ele>27.050000000000001</ele>
        <time>2024-09-17T11:36:42Z</time>
      </trkpt>
      <trkpt lat="52.515391996130347" lon="13.384709972888231">
        <ele>27.050000000000001</ele>
        <time>2024-09-17T11:36:43Z</time>
      </trkpt>
      <trkpt lat="52.51539601944387" lon="13.384764036163688">
        <ele>27.050000000000001</ele>
        <time>2024-09-17T11:36:44Z</time>
      </trkpt>
      <trkpt lat="52.515422003343701" lon="13.385145999491215">
        <ele>26.09</ele>
        <time>2024-09-17T11:36:47Z</time>
      </trkpt>
      <trkpt lat="52.515422003343701" lon="13.385145999491215">
        <ele>25.129999999999999</ele>
        <time>2024-09-17T11:36:55Z</time>
      </trkpt>
      <trkpt lat="52.515429966151714" lon="13.385373987257481">
        <ele>25.129999999999999</ele>
        <time>2024-09-17T11:37:11Z</time>
      </trkpt>
      <trkpt lat="52.515457039698958" lon="13.385939011350274">
        <ele>28.02</ele>
        <time>2024-09-17T11:37:17Z</time>
      </trkpt>
      <trkpt lat="52.515473971143365" lon="13.386135986074805">
        <ele>28.5</ele>
        <time>2024-09-17T11:37:19Z</time>
      </trkpt>
      <trkpt lat="52.515496015548706" lon="13.386330027133226">
        <ele>28.02</ele>
        <time>2024-09-17T11:37:21Z</time>
      </trkpt>
      <trkpt lat="52.515506995841861" lon="13.386433040723205">
        <ele>28.02</ele>
        <time>2024-09-17T11:37:22Z</time>
      </trkpt>
      <trkpt lat="52.515514036640525" lon="13.386547034606338">
        <ele>28.02</ele>
        <time>2024-09-17T11:37:23Z</time>
      </trkpt>
      <trkpt lat="52.515589976683259" lon="13.387924013659358">
        <ele>25.609999999999999</ele>
        <time>2024-09-17T11:37:34Z</time>
      </trkpt>
      <trkpt lat="52.515602968633175" lon="13.388133980333805">
        <ele>25.609999999999999</ele>
        <time>2024-09-17T11:37:36Z</time>
      </trkpt>
      <trkpt lat="52.515635993331671" lon="13.388621974736452">
        <ele>24.649999999999999</ele>
        <time>2024-09-17T11:37:44Z</time>
      </trkpt>
      <trkpt lat="52.515635993331671" lon="13.388621974736452">
        <ele>25.129999999999999</ele>
        <time>2024-09-17T11:37:59Z</time>
      </trkpt>
      <trkpt lat="52.515644961968064" lon="13.388806041330099">
        <ele>25.129999999999999</ele>
        <time>2024-09-17T11:38:12Z</time>
      </trkpt>
      <trkpt lat="52.515658037737012" lon="13.389050960540771">
        <ele>24.649999999999999</ele>
        <time>2024-09-17T11:38:20Z</time>
      </trkpt>
      <trkpt lat="52.515658037737012" lon="13.389050960540771">
        <ele>25.129999999999999</ele>
        <time>2024-09-17T11:38:35Z</time>
      </trkpt>
      <trkpt lat="52.515658959746361" lon="13.389081973582506">
        <ele>25.609999999999999</ele>
        <time>2024-09-17T11:38:43Z</time>
      </trkpt>
      <trkpt lat="52.515695001929998" lon="13.389044003561139">
        <ele>26.09</ele>
        <time>2024-09-17T11:38:44Z</time>
      </trkpt>
      <trkpt lat="52.515730960294604" lon="13.389036040753126">
        <ele>25.609999999999999</ele>
        <time>2024-09-17T11:38:45Z</time>
      </trkpt>
      <trkpt lat="52.5161939766258" lon="13.388944007456303">
        <ele>24.649999999999999</ele>
        <time>2024-09-17T11:38:51Z</time>
      </trkpt>
      <trkpt lat="52.516461024060845" lon="13.388904025778174">
        <ele>23.690000000000001</ele>
        <time>2024-09-17T11:38:59Z</time>
      </trkpt>
      <trkpt lat="52.516478039324284" lon="13.388901008293033">
        <ele>23.690000000000001</ele>
        <time>2024-09-17T11:39:12Z</time>
      </trkpt>
      <trkpt lat="52.516523972153664" lon="13.388893967494369">
        <ele>23.690000000000001</ele>
        <time>2024-09-17T11:39:38Z</time>
      </trkpt>
      <trkpt lat="52.516631009057164" lon="13.388878041878343">
        <ele>25.129999999999999</ele>
        <time>2024-09-17T11:39:44Z</time>
      </trkpt>
      <trkpt lat="52.516706027090549" lon="13.388865971937776">
        <ele>25.609999999999999</ele>
        <time>2024-09-17T11:39:54Z</time>
      </trkpt>
      <trkpt lat="52.516910964623094" lon="13.388968985527754">
        <ele>25.129999999999999</ele>
        <time>2024-09-17T11:39:57Z</time>
      </trkpt>
      <trkpt lat="52.516924040392041" lon="13.389157997444272">
        <ele>25.129999999999999</ele>
        <time>2024-09-17T11:39:58Z</time>
      </trkpt>
      <trkpt lat="52.516924040392041" lon="13.389157997444272">
        <ele>24.649999999999999</ele>
        <time>2024-09-17T11:39:59Z</time>
      </trkpt>
      <trkpt lat="52.516926974058151" lon="13.389222035184503">
        <ele>24.649999999999999</ele>
        <time>2024-09-17T11:40:00Z</time>
      </trkpt>
      <trkpt lat="52.516932003200054" lon="13.389299986883998">
        <ele>24.649999999999999</ele>
        <time>2024-09-17T11:40:01Z</time>
      </trkpt>
      <trkpt lat="52.51694499514997" lon="13.389523029327393">
        <ele>24.170000000000002</ele>
        <time>2024-09-17T11:40:02Z</time>
      </trkpt>
      <trkpt lat="52.516948012635112" lon="13.389564016833901">
        <ele>23.210000000000001</ele>
        <time>2024-09-17T11:40:12Z</time>
      </trkpt>
      <trkpt lat="52.516972990706563" lon="13.389921002089977">
        <ele>23.210000000000001</ele>
        <time>2024-09-17T11:40:32Z</time>
      </trkpt>
      <trkpt lat="52.517016995698214" lon="13.390831025317311">
        <ele>24.170000000000002</ele>
        <time>2024-09-17T11:40:38Z</time>
      </trkpt>
      <trkpt lat="52.517025964334607" lon="13.390973014757037">
        <ele>24.170000000000002</ele>
        <time>2024-09-17T11:40:39Z</time>
      </trkpt>
      <trkpt lat="52.517035016790032" lon="13.39110997505486">
        <ele>24.649999999999999</ele>
        <time>2024-09-17T11:40:40Z</time>
      </trkpt>
      <trkpt lat="52.51711699180305" lon="13.392616035416722">
        <ele>22.73</ele>
        <time>2024-09-17T11:40:51Z</time>
      </trkpt>
      <trkpt lat="52.517255963757634" lon="13.393757985904813">
        <ele>23.690000000000001</ele>
        <time>2024-09-17T11:41:01Z</time>
      </trkpt>
      <trkpt lat="52.517271973192692" lon="13.39392302557826">
        <ele>24.170000000000002</ele>
        <time>2024-09-17T11:41:10Z</time>
      </trkpt>
      <trkpt lat="52.517296029254794" lon="13.39428897947073">
        <ele>24.170000000000002</ele>
        <time>2024-09-17T11:41:19Z</time>
      </trkpt>
      <trkpt lat="52.517354032024741" lon="13.395406035706401">
        <ele>25.129999999999999</ele>
        <time>2024-09-17T11:41:29Z</time>
      </trkpt>
      <trkpt lat="52.517396025359631" lon="13.395959995687008">
        <ele>25.129999999999999</ele>
        <time>2024-09-17T11:41:33Z</time>
      </trkpt>
      <trkpt lat="52.517491998150945" lon="13.396496018394828">
        <ele>25.129999999999999</ele>
        <time>2024-09-17T11:41:40Z</time>
      </trkpt>
      <trkpt lat="52.517513958737254" lon="13.396883010864258">
        <ele>26.09</ele>
        <time>2024-09-17T11:41:54Z</time>
      </trkpt>
      <trkpt lat="52.517533991485834" lon="13.397208983078599">
        <ele>26.57</ele>
        <time>2024-09-17T11:42:06Z</time>
      </trkpt>
      <trkpt lat="52.517540026456118" lon="13.397305961698294">
        <ele>27.530000000000001</ele>
        <time>2024-09-17T11:42:17Z</time>
      </trkpt>
      <trkpt lat="52.517581013962626" lon="13.397740982472897">
        <ele>28.5</ele>
        <time>2024-09-17T11:42:24Z</time>
      </trkpt>
      <trkpt lat="52.517604986205697" lon="13.397966036573052">
        <ele>29.460000000000001</ele>
        <time>2024-09-17T11:42:34Z</time>
      </trkpt>
      <trkpt lat="52.517644967883825" lon="13.398755025118589">
        <ele>30.420000000000002</ele>
        <time>2024-09-17T11:42:45Z</time>
      </trkpt>
      <trkpt lat="52.517738007009029" lon="13.399388026446104">
        <ele>31.379999999999999</ele>
        <time>2024-09-17T11:42:56Z</time>
      </trkpt>
      <trkpt lat="52.517743036150932" lon="13.399415016174316">
        <ele>31.379999999999999</ele>
        <time>2024-09-17T11:43:08Z</time>
      </trkpt>
      <trkpt lat="52.517840014770627" lon="13.399798991158605">
        <ele>32.340000000000003</ele>
        <time>2024-09-17T11:43:35Z</time>
      </trkpt>
      <trkpt lat="52.51827503554523" lon="13.400959968566895">
        <ele>33.299999999999997</ele>
        <time>2024-09-17T11:43:46Z</time>
      </trkpt>
      <trkpt lat="52.518689017742872" lon="13.402037965133786">
        <ele>34.259999999999998</ele>
        <time>2024-09-17T11:43:57Z</time>
      </trkpt>
      <trkpt lat="52.51902999356389" lon="13.402893003076315">
        <ele>34.740000000000002</ele>
        <time>2024-09-17T11:44:07Z</time>
      </trkpt>
      <trkpt lat="52.519192015752196" lon="13.403236996382475">
        <ele>34.740000000000002</ele>
        <time>2024-09-17T11:44:13Z</time>
      </trkpt>
      <trkpt lat="52.519212970510125" lon="13.403273960575461">
        <ele>34.259999999999998</ele>
        <time>2024-09-17T11:44:26Z</time>
      </trkpt>
      <trkpt lat="52.519299974665046" lon="13.403433971107006">
        <ele>33.780000000000001</ele>
        <time>2024-09-17T11:44:38Z</time>
      </trkpt>
      <trkpt lat="52.519299974665046" lon="13.403433971107006">
        <ele>33.780000000000001</ele>
        <time>2024-09-17T11:44:45Z</time>
      </trkpt>
      <trkpt lat="52.519355965778232" lon="13.403538996353745">
        <ele>34.259999999999998</ele>
        <time>2024-09-17T11:44:53Z</time>
      </trkpt>
      <trkpt lat="52.519434001296759" lon="13.403685009106994">
        <ele>33.780000000000001</ele>
        <time>2024-09-17T11:45:00Z</time>
      </trkpt>
      <trkpt lat="52.519477000460029" lon="13.403920959681273">
        <ele>33.299999999999997</ele>
        <time>2024-09-17T11:45:11Z</time>
      </trkpt>
      <trkpt lat="52.519477000460029" lon="13.403920959681273">
        <ele>33.780000000000001</ele>
        <time>2024-09-17T11:45:59Z</time>
      </trkpt>
      <trkpt lat="52.519579008221626" lon="13.404099997133017">
        <ele>33.299999999999997</ele>
        <time>2024-09-17T11:46:19Z</time>
      </trkpt>
      <trkpt lat="52.519627958536148" lon="13.404185995459557">
        <ele>32.82</ele>
        <time>2024-09-17T11:46:30Z</time>
      </trkpt>
      <trkpt lat="52.519666012376547" lon="13.404251039028168">
        <ele>31.859999999999999</ele>
        <time>2024-09-17T11:46:39Z</time>
      </trkpt>
      <trkpt lat="52.519734995439649" lon="13.404371989890933">
        <ele>31.379999999999999</ele>
        <time>2024-09-17T11:47:34Z</time>
      </trkpt>
      <trkpt lat="52.519869022071362" lon="13.404620010405779">
        <ele>33.299999999999997</ele>
        <time>2024-09-17T11:47:42Z</time>
      </trkpt>
      <trkpt lat="52.519885031506419" lon="13.404651023447514">
        <ele>34.259999999999998</ele>
        <time>2024-09-17T11:47:52Z</time>
      </trkpt>
      <trkpt lat="52.519885031506419" lon="13.404651023447514">
        <ele>34.259999999999998</ele>
        <time>2024-09-17T11:47:58Z</time>
      </trkpt>
      <trkpt lat="52.519860975444317" lon="13.404916981235147">
        <ele>34.740000000000002</ele>
        <time>2024-09-17T11:48:02Z</time>
      </trkpt>
      <trkpt lat="52.519472977146506" lon="13.405656013637781">
        <ele>35.710000000000001</ele>
        <time>2024-09-17T11:48:09Z</time>
      </trkpt>
      <trkpt lat="52.51887802965939" lon="13.406480960547924">
        <ele>36.670000000000002</ele>
        <time>2024-09-17T11:48:17Z</time>
      </trkpt>
      <trkpt lat="52.518357010558248" lon="13.407215969637036">
        <ele>36.670000000000002</ele>
        <time>2024-09-17T11:48:27Z</time>
      </trkpt>
      <trkpt lat="52.51818903721869" lon="13.407432977110147">
        <ele>36.670000000000002</ele>
        <time>2024-09-17T11:48:30Z</time>
      </trkpt>
      <trkpt lat="52.517685033380985" lon="13.408151976764202">
        <ele>38.590000000000003</ele>
        <time>2024-09-17T11:48:40Z</time>
      </trkpt>
      <trkpt lat="52.517588976770639" lon="13.408298995345831">
        <ele>38.590000000000003</ele>
        <time>2024-09-17T11:48:50Z</time>
      </trkpt>
      <trkpt lat="52.517588976770639" lon="13.408298995345831">
        <ele>39.07</ele>
        <time>2024-09-17T11:49:35Z</time>
      </trkpt>
      <trkpt lat="52.51752401702106" lon="13.408406032249331">
        <ele>39.549999999999997</ele>
        <time>2024-09-17T11:49:52Z</time>
      </trkpt>
      <trkpt lat="52.51748101785779" lon="13.408449031412601">
        <ele>39.549999999999997</ele>
        <time>2024-09-17T11:49:53Z</time>
      </trkpt>
      <trkpt lat="52.51748101785779" lon="13.408449031412601">
        <ele>39.549999999999997</ele>
        <time>2024-09-17T11:49:54Z</time>
      </trkpt>
      <trkpt lat="52.517470959573984" lon="13.408480966463685">
        <ele>39.549999999999997</ele>
        <time>2024-09-17T11:49:55Z</time>
      </trkpt>
      <trkpt lat="52.517410023137927" lon="13.408754970878363">
        <ele>39.07</ele>
        <time>2024-09-17T11:49:56Z</time>
      </trkpt>
      <trkpt lat="52.517457967624068" lon="13.408839963376522">
        <ele>39.07</ele>
        <time>2024-09-17T11:49:57Z</time>
      </trkpt>
      <trkpt lat="52.517513958737254" lon="13.4089429769665">
        <ele>39.07</ele>
        <time>2024-09-17T11:49:58Z</time>
      </trkpt>
      <trkpt lat="52.517583025619388" lon="13.409067029133439">
        <ele>39.07</ele>
        <time>2024-09-17T11:49:59Z</time>
      </trkpt>
      <trkpt lat="52.518142014741898" lon="13.410244015976787">
        <ele>39.549999999999997</ele>
        <time>2024-09-17T11:50:08Z</time>
      </trkpt>
      <trkpt lat="52.518504029139876" lon="13.411064017564058">
        <ele>39.549999999999997</ele>
        <time>2024-09-17T11:50:15Z</time>
      </trkpt>
      <trkpt lat="52.518935026600957" lon="13.412132039666176">
        <ele>40.509999999999998</ele>
        <time>2024-09-17T11:50:23Z</time>
      </trkpt>
      <trkpt lat="52.519204001873732" lon="13.412451976910233">
        <ele>40.990000000000002</ele>
        <time>2024-09-17T11:50:26Z</time>
      </trkpt>
      <trkpt lat="52.519260998815298" lon="13.412565970793366">
        <ele>41.469999999999999</ele>
        <time>2024-09-17T11:50:27Z</time>
      </trkpt>
      <trkpt lat="52.519375998526812" lon="13.412794964388013">
        <ele>41.469999999999999</ele>
        <time>2024-09-17T11:50:29Z</time>
      </trkpt>
      <trkpt lat="52.519787969067693" lon="13.413835996761918">
        <ele>40.990000000000002</ele>
        <time>2024-09-17T11:50:37Z</time>
      </trkpt>
      <trkpt lat="52.519894000142813" lon="13.414045041427016">
        <ele>41.950000000000003</ele>
        <time>2024-09-17T11:50:39Z</time>
      </trkpt>
      <trkpt lat="52.519943034276366" lon="13.414133973419666">
        <ele>42.439999999999998</ele>
        <time>2024-09-17T11:50:40Z</time>
      </trkpt>
      <trkpt lat="52.520235981792212" lon="13.414535969495773">
        <ele>45.799999999999997</ele>
        <time>2024-09-17T11:50:49Z</time>
      </trkpt>
      <trkpt lat="52.520235981792212" lon="13.414535969495773">
        <ele>45.32</ele>
        <time>2024-09-17T11:51:10Z</time>
      </trkpt>
      <trkpt lat="52.520250985398889" lon="13.414553990587592">
        <ele>45.32</ele>
        <time>2024-09-17T11:51:15Z</time>
      </trkpt>
      <trkpt lat="52.52023397013545" lon="13.414663961157203">
        <ele>46.280000000000001</ele>
        <time>2024-09-17T11:51:16Z</time>
      </trkpt>
      <trkpt lat="52.520357016474009" lon="13.414821960031986">
        <ele>47.719999999999999</ele>
        <time>2024-09-17T11:51:19Z</time>
      </trkpt>
      <trkpt lat="52.520437985658646" lon="13.414918016642332">
        <ele>47.719999999999999</ele>
        <time>2024-09-17T11:51:20Z</time>
      </trkpt>
      <trkpt lat="52.520505962893367" lon="13.414998985826969">
        <ele>47.719999999999999</ele>
        <time>2024-09-17T11:51:21Z</time>
      </trkpt>
      <trkpt lat="52.52137198112905" lon="13.416042029857635">
        <ele>50.609999999999999</ele>
        <time>2024-09-17T11:51:31Z</time>
      </trkpt>
      <trkpt lat="52.521794009953737" lon="13.416474033147097">
        <ele>55.409999999999997</ele>
        <time>2024-09-17T11:51:38Z</time>
      </trkpt>
      <trkpt lat="52.521769031882286" lon="13.416449977084994">
        <ele>56.369999999999997</ele>
        <time>2024-09-17T11:51:50Z</time>
      </trkpt>
      <trkpt lat="52.521837009117007" lon="13.416516026481986">
        <ele>57.82</ele>
        <time>2024-09-17T11:52:38Z</time>
      </trkpt>
      <trkpt lat="52.521877996623516" lon="13.416557013988495">
        <ele>58.299999999999997</ele>
        <time>2024-09-17T11:52:39Z</time>
      </trkpt>
      <trkpt lat="52.521848995238543" lon="13.416745020076632">
        <ele>58.299999999999997</ele>
        <time>2024-09-17T11:52:40Z</time>
      </trkpt>
      <trkpt lat="52.52182200551033" lon="13.416830012574792">
        <ele>58.299999999999997</ele>
        <time>2024-09-17T11:52:41Z</time>
      </trkpt>
      <trkpt lat="52.521785041317344" lon="13.416945012286305">
        <ele>58.780000000000001</ele>
        <time>2024-09-17T11:52:42Z</time>
      </trkpt>
      <trkpt lat="52.521739024668932" lon="13.417089013382792">
        <ele>58.780000000000001</ele>
        <time>2024-09-17T11:52:43Z</time>
      </trkpt>
      <trkpt lat="52.521689990535378" lon="13.417253969237208">
        <ele>59.259999999999998</ele>
        <time>2024-09-17T11:52:44Z</time>
      </trkpt>
      <trkpt lat="52.521357983350754" lon="13.418375970795751">
        <ele>58.299999999999997</ele>
        <time>2024-09-17T11:52:50Z</time>
      </trkpt>
      <trkpt lat="52.520709978416562" lon="13.420459041371942">
        <ele>59.740000000000002</ele>
        <time>2024-09-17T11:53:02Z</time>
      </trkpt>
      <trkpt lat="52.520326003432274" lon="13.421757984906435">
        <ele>57.82</ele>
        <time>2024-09-17T11:53:11Z</time>
      </trkpt>
      <trkpt lat="52.520265989005566" lon="13.421946996822953">
        <ele>55.409999999999997</ele>
        <time>2024-09-17T11:53:19Z</time>
      </trkpt>
      <trkpt lat="52.52016800455749" lon="13.422268023714423">
        <ele>54.450000000000003</ele>
        <time>2024-09-17T11:53:35Z</time>
      </trkpt>
      <trkpt lat="52.51969501376152" lon="13.423780035227537">
        <ele>50.609999999999999</ele>
        <time>2024-09-17T11:53:45Z</time>
      </trkpt>
      <trkpt lat="52.519167037680745" lon="13.425556998699903">
        <ele>48.68</ele>
        <time>2024-09-17T11:53:55Z</time>
      </trkpt>
      <trkpt lat="52.518946006894112" lon="13.426337018609047">
        <ele>48.68</ele>
        <time>2024-09-17T11:54:02Z</time>
      </trkpt>
      <trkpt lat="52.518787002190948" lon="13.42692500911653">
        <ele>48.200000000000003</ele>
        <time>2024-09-17T11:54:11Z</time>
      </trkpt>
      <trkpt lat="52.518778033554554" lon="13.426955016329885">
        <ele>48.68</ele>
        <time>2024-09-17T11:54:21Z</time>
      </trkpt>
      <trkpt lat="52.518713995814323" lon="13.427107986062765">
        <ele>49.159999999999997</ele>
        <time>2024-09-17T11:54:38Z</time>
      </trkpt>
      <trkpt lat="52.518669990822673" lon="13.427206976339221">
        <ele>49.649999999999999</ele>
        <time>2024-09-17T11:54:39Z</time>
      </trkpt>
      <trkpt lat="52.518281992524862" lon="13.42789001762867">
        <ele>51.090000000000003</ele>
        <time>2024-09-17T11:54:45Z</time>
      </trkpt>
      <trkpt lat="52.518235975876451" lon="13.428027983754873">
        <ele>51.090000000000003</ele>
        <time>2024-09-17T11:54:46Z</time>
      </trkpt>
      <trkpt lat="52.518189959228039" lon="13.428167961537838">
        <ele>50.609999999999999</ele>
        <time>2024-09-17T11:54:47Z</time>
      </trkpt>
      <trkpt lat="52.518178978934884" lon="13.428306011483073">
        <ele>50.609999999999999</ele>
        <time>2024-09-17T11:54:48Z</time>
      </trkpt>
      <trkpt lat="52.518167998641729" lon="13.428473984822631">
        <ele>50.130000000000003</ele>
        <time>2024-09-17T11:54:49Z</time>
      </trkpt>
      <trkpt lat="52.518167998641729" lon="13.428661990910769">
        <ele>50.130000000000003</ele>
        <time>2024-09-17T11:54:50Z</time>
      </trkpt>
      <trkpt lat="52.518179984763265" lon="13.428846979513764">
        <ele>49.649999999999999</ele>
        <time>2024-09-17T11:54:51Z</time>
      </trkpt>
      <trkpt lat="52.518210997804999" lon="13.429388031363487">
        <ele>50.130000000000003</ele>
        <time>2024-09-17T11:54:54Z</time>
      </trkpt>
      <trkpt lat="52.518032966181636" lon="13.431468000635505">
        <ele>49.649999999999999</ele>
        <time>2024-09-17T11:55:05Z</time>
      </trkpt>
      <trkpt lat="52.517797015607357" lon="13.43375600874424">
        <ele>47.719999999999999</ele>
        <time>2024-09-17T11:55:17Z</time>
      </trkpt>
      <trkpt lat="52.517634993419051" lon="13.435342032462358">
        <ele>47.719999999999999</ele>
        <time>2024-09-17T11:55:25Z</time>
      </trkpt>
      <trkpt lat="52.517423015087843" lon="13.437285041436553">
        <ele>47.240000000000002</ele>
        <time>2024-09-17T11:55:35Z</time>
      </trkpt>
      <trkpt lat="52.517243977636099" lon="13.439116990193725">
        <ele>46.759999999999998</ele>
        <time>2024-09-17T11:55:45Z</time>
      </trkpt>
      <trkpt lat="52.517095031216741" lon="13.440549960359931">
        <ele>46.280000000000001</ele>
        <time>2024-09-17T11:55:53Z</time>
      </trkpt>
      <trkpt lat="52.516909958794713" lon="13.442552983760834">
        <ele>46.759999999999998</ele>
        <time>2024-09-17T11:56:05Z</time>
      </trkpt>
      <trkpt lat="52.516837958246469" lon="13.443282963708043">
        <ele>46.759999999999998</ele>
        <time>2024-09-17T11:56:09Z</time>
      </trkpt>
      <trkpt lat="52.516678031533957" lon="13.444786006584764">
        <ele>46.759999999999998</ele>
        <time>2024-09-17T11:56:17Z</time>
      </trkpt>
      <trkpt lat="52.516657998785377" lon="13.444973006844521">
        <ele>46.759999999999998</ele>
        <time>2024-09-17T11:56:18Z</time>
      </trkpt>
      <trkpt lat="52.51645096577704" lon="13.447107039391994">
        <ele>46.280000000000001</ele>
        <time>2024-09-17T11:56:30Z</time>
      </trkpt>
      <trkpt lat="52.516344012692571" lon="13.448102977126837">
        <ele>46.759999999999998</ele>
        <time>2024-09-17T11:56:35Z</time>
      </trkpt>
      <trkpt lat="52.516338983550668" lon="13.448154022917151">
        <ele>47.240000000000002</ele>
        <time>2024-09-17T11:56:36Z</time>
      </trkpt>
      <trkpt lat="52.516157012432814" lon="13.450003992766142">
        <ele>48.200000000000003</ele>
        <time>2024-09-17T11:56:46Z</time>
      </trkpt>
      <trkpt lat="52.516062967479229" lon="13.451058017089963">
        <ele>49.649999999999999</ele>
        <time>2024-09-17T11:56:52Z</time>
      </trkpt>
      <trkpt lat="52.516044024378061" lon="13.451234959065914">
        <ele>49.649999999999999</ele>
        <time>2024-09-17T11:56:53Z</time>
      </trkpt>
      <trkpt lat="52.516033966094255" lon="13.451335960999131">
        <ele>49.649999999999999</ele>
        <time>2024-09-17T11:56:54Z</time>
      </trkpt>
      <trkpt lat="52.516019968315959" lon="13.451471999287605">
        <ele>50.130000000000003</ele>
        <time>2024-09-17T11:56:55Z</time>
      </trkpt>
      <trkpt lat="52.516005970537663" lon="13.451613988727331">
        <ele>50.130000000000003</ele>
        <time>2024-09-17T11:56:56Z</time>
      </trkpt>
      <trkpt lat="52.515991972759366" lon="13.451756983995438">
        <ele>50.130000000000003</ele>
        <time>2024-09-17T11:56:57Z</time>
      </trkpt>
      <trkpt lat="52.51597797498107" lon="13.451892016455531">
        <ele>50.130000000000003</ele>
        <time>2024-09-17T11:56:58Z</time>
      </trkpt>
      <trkpt lat="52.515965988859534" lon="13.452016990631819">
        <ele>50.130000000000003</ele>
        <time>2024-09-17T11:56:59Z</time>
      </trkpt>
      <trkpt lat="52.515954002737999" lon="13.452130984514952">
        <ele>50.130000000000003</ele>
        <time>2024-09-17T11:57:00Z</time>
      </trkpt>
      <trkpt lat="52.515944028273225" lon="13.452238021418452">
        <ele>50.130000000000003</ele>
        <time>2024-09-17T11:57:01Z</time>
      </trkpt>
      <trkpt lat="52.515931958332658" lon="13.452350003644824">
        <ele>50.130000000000003</ele>
        <time>2024-09-17T11:57:02Z</time>
      </trkpt>
      <trkpt lat="52.51591200940311" lon="13.452546978369355">
        <ele>50.130000000000003</ele>
        <time>2024-09-17T11:57:04Z</time>
      </trkpt>
      <trkpt lat="52.51589298248291" lon="13.452710006386042">
        <ele>49.649999999999999</ele>
        <time>2024-09-17T11:57:06Z</time>
      </trkpt>
      <trkpt lat="52.515850989148021" lon="13.452931037172675">
        <ele>49.649999999999999</ele>
        <time>2024-09-17T11:57:08Z</time>
      </trkpt>
      <trkpt lat="52.515845037996769" lon="13.452999014407396">
        <ele>49.159999999999997</ele>
        <time>2024-09-17T11:57:09Z</time>
      </trkpt>
      <trkpt lat="52.515836991369724" lon="13.453106973320246">
        <ele>49.159999999999997</ele>
        <time>2024-09-17T11:57:10Z</time>
      </trkpt>
      <trkpt lat="52.515829028561711" lon="13.453205041587353">
        <ele>49.159999999999997</ele>
        <time>2024-09-17T11:57:11Z</time>
      </trkpt>
      <trkpt lat="52.515821987763047" lon="13.453290034085512">
        <ele>49.649999999999999</ele>
        <time>2024-09-17T11:57:12Z</time>
      </trkpt>
      <trkpt lat="52.515812013298273" lon="13.453426994383335">
        <ele>49.159999999999997</ele>
        <time>2024-09-17T11:57:15Z</time>
      </trkpt>
      <trkpt lat="52.515812013298273" lon="13.453426994383335">
        <ele>49.159999999999997</ele>
        <time>2024-09-17T11:57:29Z</time>
      </trkpt>
      <trkpt lat="52.515775971114635" lon="13.453857991844416">
        <ele>48.200000000000003</ele>
        <time>2024-09-17T11:57:49Z</time>
      </trkpt>
      <trkpt lat="52.515610009431839" lon="13.455314012244344">
        <ele>47.719999999999999</ele>
        <time>2024-09-17T11:57:58Z</time>
      </trkpt>
      <trkpt lat="52.515582013875246" lon="13.455603020265698">
        <ele>48.200000000000003</ele>
        <time>2024-09-17T11:58:00Z</time>
      </trkpt>
      <trkpt lat="52.51556902192533" lon="13.455739980563521">
        <ele>48.68</ele>
        <time>2024-09-17T11:58:01Z</time>
      </trkpt>
      <trkpt lat="52.515537003055215" lon="13.456081040203571">
        <ele>49.649999999999999</ele>
        <time>2024-09-17T11:58:04Z</time>
      </trkpt>
      <trkpt lat="52.515527028590441" lon="13.456200985237956">
        <ele>50.130000000000003</ele>
        <time>2024-09-17T11:58:05Z</time>
      </trkpt>
      <trkpt lat="52.515486963093281" lon="13.456641035154462">
        <ele>51.57</ele>
        <time>2024-09-17T11:58:09Z</time>
      </trkpt>
      <trkpt lat="52.515471959486604" lon="13.4568100143224">
        <ele>52.049999999999997</ele>
        <time>2024-09-17T11:58:11Z</time>
      </trkpt>
      <trkpt lat="52.515466008335352" lon="13.456884026527405">
        <ele>51.57</ele>
        <time>2024-09-17T11:58:12Z</time>
      </trkpt>
      <trkpt lat="52.515460979193449" lon="13.456938005983829">
        <ele>51.57</ele>
        <time>2024-09-17T11:58:13Z</time>
      </trkpt>
      <trkpt lat="52.515457039698958" lon="13.456981005147099">
        <ele>52.049999999999997</ele>
        <time>2024-09-17T11:58:14Z</time>
      </trkpt>
      <trkpt lat="52.515457039698958" lon="13.456981005147099">
        <ele>52.049999999999997</ele>
        <time>2024-09-17T11:58:15Z</time>
      </trkpt>
      <trkpt lat="52.515457039698958" lon="13.456981005147099">
        <ele>52.049999999999997</ele>
        <time>2024-09-17T11:58:32Z</time>
      </trkpt>
      <trkpt lat="52.515444969758391" lon="13.457119977101684">
        <ele>52.530000000000001</ele>
        <time>2024-09-17T11:58:48Z</time>
      </trkpt>
      <trkpt lat="52.515438012778759" lon="13.457194995135069">
        <ele>53.009999999999998</ele>
        <time>2024-09-17T11:58:49Z</time>
      </trkpt>
      <trkpt lat="52.515379004180431" lon="13.457801006734371">
        <ele>53.969999999999999</ele>
        <time>2024-09-17T11:58:57Z</time>
      </trkpt>
      <trkpt lat="52.515357965603471" lon="13.457993036136031">
        <ele>54.450000000000003</ele>
        <time>2024-09-17T11:59:00Z</time>
      </trkpt>
      <trkpt lat="52.515347991138697" lon="13.458094960078597">
        <ele>54.93</ele>
        <time>2024-09-17T11:59:01Z</time>
      </trkpt>
      <trkpt lat="52.515336005017161" lon="13.458204008638859">
        <ele>54.93</ele>
        <time>2024-09-17T11:59:02Z</time>
      </trkpt>
      <trkpt lat="52.515325024724007" lon="13.458312973380089">
        <ele>54.93</ele>
        <time>2024-09-17T11:59:03Z</time>
      </trkpt>
      <trkpt lat="52.51531396061182" lon="13.458417998626828">
        <ele>54.93</ele>
        <time>2024-09-17T11:59:04Z</time>
      </trkpt>
      <trkpt lat="52.515250006690621" lon="13.459025016054511">
        <ele>52.530000000000001</ele>
        <time>2024-09-17T11:59:10Z</time>
      </trkpt>
      <trkpt lat="52.515250006690621" lon="13.459025016054511">
        <ele>52.049999999999997</ele>
        <time>2024-09-17T11:59:11Z</time>
      </trkpt>
      <trkpt lat="52.51524698920548" lon="13.459050999954343">
        <ele>51.57</ele>
        <time>2024-09-17T11:59:12Z</time>
      </trkpt>
      <trkpt lat="52.51522796228528" lon="13.45921796746552">
        <ele>51.57</ele>
        <time>2024-09-17T11:59:13Z</time>
      </trkpt>
      <trkpt lat="52.51522796228528" lon="13.45921796746552">
        <ele>51.57</ele>
        <time>2024-09-17T11:59:14Z</time>
      </trkpt>
      <trkpt lat="52.51522502861917" lon="13.459250992164016">
        <ele>51.090000000000003</ele>
        <time>2024-09-17T11:59:15Z</time>
      </trkpt>
      <trkpt lat="52.515211030840874" lon="13.459373032674193">
        <ele>50.609999999999999</ele>
        <time>2024-09-17T11:59:18Z</time>
      </trkpt>
      <trkpt lat="52.515208013355732" lon="13.459400022402406">
        <ele>50.609999999999999</ele>
        <time>2024-09-17T11:59:19Z</time>
      </trkpt>
      <trkpt lat="52.515208013355732" lon="13.459400022402406">
        <ele>51.090000000000003</ele>
        <time>2024-09-17T11:59:30Z</time>
      </trkpt>
      <trkpt lat="52.515195021405816" lon="13.45951703377068">
        <ele>50.130000000000003</ele>
        <time>2024-09-17T11:59:41Z</time>
      </trkpt>
      <trkpt lat="52.515189992263913" lon="13.459565984085202">
        <ele>49.159999999999997</ele>
        <time>2024-09-17T11:59:42Z</time>
      </trkpt>
      <trkpt lat="52.515106005594134" lon="13.460251037031412">
        <ele>48.68</ele>
        <time>2024-09-17T11:59:49Z</time>
      </trkpt>
      <trkpt lat="52.515035010874271" lon="13.460878003388643">
        <ele>49.159999999999997</ele>
        <time>2024-09-17T11:59:54Z</time>
      </trkpt>
      <trkpt lat="52.515011038631201" lon="13.46108797006309">
        <ele>49.159999999999997</ele>
        <time>2024-09-17T11:59:56Z</time>
      </trkpt>
      <trkpt lat="52.514958987012506" lon="13.461516033858061">
        <ele>48.200000000000003</ele>
        <time>2024-09-17T12:00:04Z</time>
      </trkpt>
      <trkpt lat="52.514936020597816" lon="13.461798001080751">
        <ele>47.719999999999999</ele>
        <time>2024-09-17T12:00:19Z</time>
      </trkpt>
      <trkpt lat="52.514884974807501" lon="13.462436031550169">
        <ele>45.799999999999997</ele>
        <time>2024-09-17T12:00:33Z</time>
      </trkpt>
      <trkpt lat="52.514871982857585" lon="13.462532004341483">
        <ele>45.799999999999997</ele>
        <time>2024-09-17T12:00:35Z</time>
      </trkpt>
      <trkpt lat="52.514862008392811" lon="13.462606016546488">
        <ele>45.799999999999997</ele>
        <time>2024-09-17T12:00:36Z</time>
      </trkpt>
      <trkpt lat="52.514749020338058" lon="13.463657023385167">
        <ele>45.799999999999997</ele>
        <time>2024-09-17T12:00:44Z</time>
      </trkpt>
      <trkpt lat="52.514718007296324" lon="13.464013002812862">
        <ele>45.32</ele>
        <time>2024-09-17T12:00:47Z</time>
      </trkpt>
      <trkpt lat="52.514713983982801" lon="13.464064970612526">
        <ele>45.32</ele>
        <time>2024-09-17T12:00:48Z</time>
      </trkpt>
      <trkpt lat="52.514709960669279" lon="13.464103024452925">
        <ele>45.32</ele>
        <time>2024-09-17T12:00:49Z</time>
      </trkpt>
      <trkpt lat="52.514706021174788" lon="13.464152980595827">
        <ele>44.840000000000003</ele>
        <time>2024-09-17T12:01:02Z</time>
      </trkpt>
      <trkpt lat="52.514675008133054" lon="13.4644790366292">
        <ele>44.359999999999999</ele>
        <time>2024-09-17T12:01:24Z</time>
      </trkpt>
      <trkpt lat="52.514543998986483" lon="13.465712014585733">
        <ele>43.399999999999999</ele>
        <time>2024-09-17T12:01:33Z</time>
      </trkpt>
      <trkpt lat="52.514459006488323" lon="13.466680962592363">
        <ele>42.439999999999998</ele>
        <time>2024-09-17T12:01:42Z</time>
      </trkpt>
      <trkpt lat="52.514412989839911" lon="13.467203993350267">
        <ele>41.469999999999999</ele>
        <time>2024-09-17T12:01:46Z</time>
      </trkpt>
      <trkpt lat="52.514373008161783" lon="13.467625016346574">
        <ele>40.509999999999998</ele>
        <time>2024-09-17T12:01:51Z</time>
      </trkpt>
      <trkpt lat="52.514365967363119" lon="13.467687964439392">
        <ele>40.030000000000001</ele>
        <time>2024-09-17T12:01:52Z</time>
      </trkpt>
      <trkpt lat="52.514359010383487" lon="13.467750996351242">
        <ele>40.030000000000001</ele>
        <time>2024-09-17T12:01:53Z</time>
      </trkpt>
      <trkpt lat="52.514351969584823" lon="13.46781101077795">
        <ele>39.549999999999997</ele>
        <time>2024-09-17T12:01:54Z</time>
      </trkpt>
      <trkpt lat="52.514347024261951" lon="13.467860966920853">
        <ele>39.549999999999997</ele>
        <time>2024-09-17T12:01:55Z</time>
      </trkpt>
      <trkpt lat="52.514341995120049" lon="13.467905977740884">
        <ele>39.07</ele>
        <time>2024-09-17T12:01:56Z</time>
      </trkpt>
      <trkpt lat="52.514336965978146" lon="13.467950988560915">
        <ele>39.07</ele>
        <time>2024-09-17T12:01:57Z</time>
      </trkpt>
      <trkpt lat="52.514331014826894" lon="13.46800597384572">
        <ele>39.07</ele>
        <time>2024-09-17T12:01:58Z</time>
      </trkpt>
      <trkpt lat="52.514232024550438" lon="13.468891019001603">
        <ele>38.590000000000003</ele>
        <time>2024-09-17T12:02:05Z</time>
      </trkpt>
      <trkpt lat="52.514048041775823" lon="13.470739983022213">
        <ele>41.469999999999999</ele>
        <time>2024-09-17T12:02:15Z</time>
      </trkpt>
      <trkpt lat="52.514031026512384" lon="13.470930000767112">
        <ele>41.950000000000003</ele>
        <time>2024-09-17T12:02:17Z</time>
      </trkpt>
      <trkpt lat="52.513918038457632" lon="13.472091984003782">
        <ele>44.840000000000003</ele>
        <time>2024-09-17T12:02:23Z</time>
      </trkpt>
      <trkpt lat="52.513845032081008" lon="13.472869992256165">
        <ele>45.799999999999997</ele>
        <time>2024-09-17T12:02:27Z</time>
      </trkpt>
      <trkpt lat="52.513736989349127" lon="13.473780015483499">
        <ele>44.359999999999999</ele>
        <time>2024-09-17T12:02:32Z</time>
      </trkpt>
      <trkpt lat="52.513637999072671" lon="13.474581995978951">
        <ele>43.399999999999999</ele>
        <time>2024-09-17T12:02:37Z</time>
      </trkpt>
      <trkpt lat="52.513618972152472" lon="13.474903022870421">
        <ele>43.399999999999999</ele>
        <time>2024-09-17T12:02:38Z</time>
      </trkpt>
      <trkpt lat="52.513598017394543" lon="13.47505297511816">
        <ele>42.439999999999998</ele>
        <time>2024-09-17T12:02:46Z</time>
      </trkpt>
      <trkpt lat="52.513598017394543" lon="13.4751389734447">
        <ele>41.950000000000003</ele>
        <time>2024-09-17T12:02:55Z</time>
      </trkpt>
      <trkpt lat="52.513596005737782" lon="13.47517903894186">
        <ele>41.950000000000003</ele>
        <time>2024-09-17T12:02:56Z</time>
      </trkpt>
      <trkpt lat="52.513575972989202" lon="13.47539696842432">
        <ele>41.950000000000003</ele>
        <time>2024-09-17T12:02:57Z</time>
      </trkpt>
      <trkpt lat="52.513575972989202" lon="13.47539696842432">
        <ele>41.950000000000003</ele>
        <time>2024-09-17T12:02:58Z</time>
      </trkpt>
      <trkpt lat="52.51357002183795" lon="13.47543996758759">
        <ele>41.950000000000003</ele>
        <time>2024-09-17T12:02:59Z</time>
      </trkpt>
      <trkpt lat="52.513466002419591" lon="13.476493991911411">
        <ele>41.469999999999999</ele>
        <time>2024-09-17T12:03:05Z</time>
      </trkpt>
      <trkpt lat="52.513238014653325" lon="13.478872021660209">
        <ele>42.439999999999998</ele>
        <time>2024-09-17T12:03:17Z</time>
      </trkpt>
      <trkpt lat="52.513174982741475" lon="13.479439979419112">
        <ele>42.920000000000002</ele>
        <time>2024-09-17T12:03:20Z</time>
      </trkpt>
      <trkpt lat="52.513002986088395" lon="13.481133040040731">
        <ele>43.880000000000003</ele>
        <time>2024-09-17T12:03:29Z</time>
      </trkpt>
      <trkpt lat="52.512744991108775" lon="13.483746014535427">
        <ele>36.670000000000002</ele>
        <time>2024-09-17T12:03:43Z</time>
      </trkpt>
      <trkpt lat="52.51262697391212" lon="13.484831973910332">
        <ele>34.259999999999998</ele>
        <time>2024-09-17T12:03:49Z</time>
      </trkpt>
      <trkpt lat="52.512592021375895" lon="13.485190970823169">
        <ele>34.259999999999998</ele>
        <time>2024-09-17T12:03:51Z</time>
      </trkpt>
      <trkpt lat="52.512574000284076" lon="13.485367996618152">
        <ele>34.259999999999998</ele>
        <time>2024-09-17T12:03:52Z</time>
      </trkpt>
      <trkpt lat="52.512321034446359" lon="13.487910982221365">
        <ele>36.189999999999998</ele>
        <time>2024-09-17T12:04:06Z</time>
      </trkpt>
      <trkpt lat="52.512090029194951" lon="13.489714013412595">
        <ele>37.630000000000003</ele>
        <time>2024-09-17T12:04:17Z</time>
      </trkpt>
      <trkpt lat="52.511976035311818" lon="13.490748004987836">
        <ele>37.630000000000003</ele>
        <time>2024-09-17T12:04:27Z</time>
      </trkpt>
      <trkpt lat="52.511965977028012" lon="13.490856969729066">
        <ele>38.590000000000003</ele>
        <time>2024-09-17T12:04:35Z</time>
      </trkpt>
      <trkpt lat="52.511911997571588" lon="13.491281010210514">
        <ele>38.109999999999999</ele>
        <time>2024-09-17T12:04:57Z</time>
      </trkpt>
      <trkpt lat="52.511790040880442" lon="13.492565033957362">
        <ele>39.07</ele>
        <time>2024-09-17T12:05:05Z</time>
      </trkpt>
      <trkpt lat="52.511631958186626" lon="13.494565039873123">
        <ele>40.990000000000002</ele>
        <time>2024-09-17T12:05:15Z</time>
      </trkpt>
      <trkpt lat="52.511433977633715" lon="13.496837960556149">
        <ele>45.799999999999997</ele>
        <time>2024-09-17T12:05:26Z</time>
      </trkpt>
      <trkpt lat="52.511170031502843" lon="13.499668026342988">
        <ele>51.57</ele>
        <time>2024-09-17T12:05:40Z</time>
      </trkpt>
      <trkpt lat="52.510926034301519" lon="13.501796023920178">
        <ele>49.649999999999999</ele>
        <time>2024-09-17T12:05:51Z</time>
      </trkpt>
      <trkpt lat="52.510903989896178" lon="13.501984030008316">
        <ele>48.68</ele>
        <time>2024-09-17T12:05:52Z</time>
      </trkpt>
      <trkpt lat="52.510689999908209" lon="13.504140023142099">
        <ele>41.950000000000003</ele>
        <time>2024-09-17T12:06:03Z</time>
      </trkpt>
      <trkpt lat="52.510538036003709" lon="13.506044978275895">
        <ele>40.509999999999998</ele>
        <time>2024-09-17T12:06:13Z</time>
      </trkpt>
      <trkpt lat="52.510469974949956" lon="13.507391028106213">
        <ele>39.549999999999997</ele>
        <time>2024-09-17T12:06:20Z</time>
      </trkpt>
      <trkpt lat="52.510461006313562" lon="13.507572999224067">
        <ele>39.07</ele>
        <time>2024-09-17T12:06:21Z</time>
      </trkpt>
      <trkpt lat="52.510404009371996" lon="13.508661976084113">
        <ele>38.590000000000003</ele>
        <time>2024-09-17T12:06:27Z</time>
      </trkpt>
      <trkpt lat="52.51039101742208" lon="13.508851993829012">
        <ele>39.07</ele>
        <time>2024-09-17T12:06:28Z</time>
      </trkpt>
      <trkpt lat="52.510378025472164" lon="13.509052991867065">
        <ele>39.549999999999997</ele>
        <time>2024-09-17T12:06:29Z</time>
      </trkpt>
      <trkpt lat="52.510278029367328" lon="13.510597022250295">
        <ele>41.950000000000003</ele>
        <time>2024-09-17T12:06:36Z</time>
      </trkpt>
      <trkpt lat="52.510164035484195" lon="13.51230600848794">
        <ele>41.950000000000003</ele>
        <time>2024-09-17T12:06:45Z</time>
      </trkpt>
      <trkpt lat="52.510150037705898" lon="13.512484962120652">
        <ele>40.990000000000002</ele>
        <time>2024-09-17T12:06:46Z</time>
      </trkpt>
      <trkpt lat="52.510054986923933" lon="13.513665972277522">
        <ele>38.590000000000003</ele>
        <time>2024-09-17T12:06:54Z</time>
      </trkpt>
      <trkpt lat="52.509988015517592" lon="13.514445992186666">
        <ele>37.630000000000003</ele>
        <time>2024-09-17T12:07:04Z</time>
      </trkpt>
      <trkpt lat="52.509968988597393" lon="13.514672974124551">
        <ele>38.109999999999999</ele>
        <time>2024-09-17T12:07:10Z</time>
      </trkpt>
      <trkpt lat="52.509863963350654" lon="13.51514101959765">
        <ele>38.109999999999999</ele>
        <time>2024-09-17T12:07:19Z</time>
      </trkpt>
      <trkpt lat="52.50970596447587" lon="13.516535013914108">
        <ele>39.07</ele>
        <time>2024-09-17T12:07:27Z</time>
      </trkpt>
      <trkpt lat="52.509589036926627" lon="13.51765600964427">
        <ele>40.509999999999998</ele>
        <time>2024-09-17T12:07:36Z</time>
      </trkpt>
      <trkpt lat="52.509399019181728" lon="13.518210975453258">
        <ele>43.880000000000003</ele>
        <time>2024-09-17T12:07:44Z</time>
      </trkpt>
      <trkpt lat="52.509399019181728" lon="13.518210975453258">
        <ele>43.880000000000003</ele>
        <time>2024-09-17T12:08:10Z</time>
      </trkpt>
      <trkpt lat="52.50929499976337" lon="13.518423037603498">
        <ele>44.840000000000003</ele>
        <time>2024-09-17T12:08:44Z</time>
      </trkpt>
      <trkpt lat="52.509244037792087" lon="13.518512975424528">
        <ele>44.840000000000003</ele>
        <time>2024-09-17T12:08:45Z</time>
      </trkpt>
      <trkpt lat="52.509176982566714" lon="13.518610037863255">
        <ele>44.840000000000003</ele>
        <time>2024-09-17T12:08:46Z</time>
      </trkpt>
      <trkpt lat="52.509095007553697" lon="13.518681032583117">
        <ele>45.32</ele>
        <time>2024-09-17T12:08:47Z</time>
      </trkpt>
      <trkpt lat="52.509005991742015" lon="13.518757978454232">
        <ele>45.32</ele>
        <time>2024-09-17T12:08:48Z</time>
      </trkpt>
      <trkpt lat="52.508910018950701" lon="13.51884095929563">
        <ele>45.32</ele>
        <time>2024-09-17T12:08:49Z</time>
      </trkpt>
      <trkpt lat="52.508789990097284" lon="13.518901979550719">
        <ele>45.32</ele>
        <time>2024-09-17T12:08:50Z</time>
      </trkpt>
      <trkpt lat="52.50792296603322" lon="13.519219988957047">
        <ele>44.359999999999999</ele>
        <time>2024-09-17T12:08:59Z</time>
      </trkpt>
      <trkpt lat="52.507864041253924" lon="13.519233986735344">
        <ele>43.880000000000003</ele>
        <time>2024-09-17T12:09:00Z</time>
      </trkpt>
      <trkpt lat="52.507708976045251" lon="13.519269023090601">
        <ele>43.399999999999999</ele>
        <time>2024-09-17T12:09:03Z</time>
      </trkpt>
      <trkpt lat="52.507650973275304" lon="13.519282015040517">
        <ele>42.920000000000002</ele>
        <time>2024-09-17T12:09:06Z</time>
      </trkpt>
      <trkpt lat="52.507453998550773" lon="13.519327025860548">
        <ele>42.439999999999998</ele>
        <time>2024-09-17T12:09:15Z</time>
      </trkpt>
      <trkpt lat="52.506449008360505" lon="13.519535986706614">
        <ele>40.990000000000002</ele>
        <time>2024-09-17T12:09:27Z</time>
      </trkpt>
      <trkpt lat="52.506365021690726" lon="13.519551996141672">
        <ele>40.990000000000002</ele>
        <time>2024-09-17T12:09:28Z</time>
      </trkpt>
      <trkpt lat="52.506239963695407" lon="13.519575968384743">
        <ele>40.990000000000002</ele>
        <time>2024-09-17T12:09:30Z</time>
      </trkpt>
      <trkpt lat="52.506196964532137" lon="13.519585020840168">
        <ele>40.990000000000002</ele>
        <time>2024-09-17T12:09:31Z</time>
      </trkpt>
      <trkpt lat="52.506118007004261" lon="13.519600024446845">
        <ele>39.549999999999997</ele>
        <time>2024-09-17T12:09:40Z</time>
      </trkpt>
      <trkpt lat="52.50588096678257" lon="13.519646041095257">
        <ele>39.549999999999997</ele>
        <time>2024-09-17T12:10:09Z</time>
      </trkpt>
      <trkpt lat="52.504985025152564" lon="13.519959021359682">
        <ele>38.590000000000003</ele>
        <time>2024-09-17T12:10:17Z</time>
      </trkpt>
      <trkpt lat="52.503699995577335" lon="13.52058095857501">
        <ele>37.149999999999999</ele>
        <time>2024-09-17T12:10:28Z</time>
      </trkpt>
      <trkpt lat="52.502360986545682" lon="13.521012961864471">
        <ele>34.740000000000002</ele>
        <time>2024-09-17T12:10:38Z</time>
      </trkpt>
      <trkpt lat="52.501287013292313" lon="13.521390985697508">
        <ele>34.259999999999998</ele>
        <time>2024-09-17T12:10:48Z</time>
      </trkpt>
      <trkpt lat="52.501213001087308" lon="13.521419987082481">
        <ele>34.259999999999998</ele>
        <time>2024-09-17T12:10:54Z</time>
      </trkpt>
      <trkpt lat="52.501213001087308" lon="13.521419987082481">
        <ele>34.259999999999998</ele>
        <time>2024-09-17T12:11:21Z</time>
      </trkpt>
      <trkpt lat="52.501104958355427" lon="13.521463992074132">
        <ele>33.780000000000001</ele>
        <time>2024-09-17T12:11:32Z</time>
      </trkpt>
      <trkpt lat="52.50106799416244" lon="13.521477989852428">
        <ele>33.780000000000001</ele>
        <time>2024-09-17T12:11:33Z</time>
      </trkpt>
      <trkpt lat="52.501060031354427" lon="13.521578991785645">
        <ele>33.780000000000001</ele>
        <time>2024-09-17T12:11:34Z</time>
      </trkpt>
      <trkpt lat="52.501070005819201" lon="13.521636994555593">
        <ele>33.780000000000001</ele>
        <time>2024-09-17T12:11:35Z</time>
      </trkpt>
      <trkpt lat="52.501107975840569" lon="13.52173900231719">
        <ele>33.780000000000001</ele>
        <time>2024-09-17T12:11:36Z</time>
      </trkpt>
      <trkpt lat="52.501162961125374" lon="13.521719975396991">
        <ele>33.299999999999997</ele>
        <time>2024-09-17T12:11:37Z</time>
      </trkpt>
      <trkpt lat="52.501235967501998" lon="13.52169600315392">
        <ele>33.299999999999997</ele>
        <time>2024-09-17T12:11:38Z</time>
      </trkpt>
      <trkpt lat="52.501317020505667" lon="13.521669013425708">
        <ele>32.82</ele>
        <time>2024-09-17T12:11:39Z</time>
      </trkpt>
      <trkpt lat="52.501409975811839" lon="13.521638000383973">
        <ele>32.82</ele>
        <time>2024-09-17T12:11:40Z</time>
      </trkpt>
      <trkpt lat="52.50240096822381" lon="13.521198034286499">
        <ele>31.859999999999999</ele>
        <time>2024-09-17T12:11:48Z</time>
      </trkpt>
      <trkpt lat="52.503477958962321" lon="13.520810035988688">
        <ele>33.299999999999997</ele>
        <time>2024-09-17T12:11:57Z</time>
      </trkpt>
      <trkpt lat="52.504569031298161" lon="13.520434023812413">
        <ele>31.859999999999999</ele>
        <time>2024-09-17T12:12:07Z</time>
      </trkpt>
      <trkpt lat="52.504643965512514" lon="13.520395969972014">
        <ele>31.379999999999999</ele>
        <time>2024-09-17T12:12:08Z</time>
      </trkpt>
      <trkpt lat="52.504711020737886" lon="13.52036302909255">
        <ele>31.379999999999999</ele>
        <time>2024-09-17T12:12:09Z</time>
      </trkpt>
      <trkpt lat="52.505226004868746" lon="13.520106039941311">
        <ele>29.940000000000001</ele>
        <time>2024-09-17T12:12:17Z</time>
      </trkpt>
      <trkpt lat="52.505419040098786" lon="13.520008977502584">
        <ele>29.460000000000001</ele>
        <time>2024-09-17T12:12:19Z</time>
      </trkpt>
      <trkpt lat="52.505520964041352" lon="13.519961033016443">
        <ele>28.98</ele>
        <time>2024-09-17T12:12:20Z</time>
      </trkpt>
      <trkpt lat="52.506018010899425" lon="13.519834969192743">
        <ele>28.5</ele>
        <time>2024-09-17T12:12:25Z</time>
      </trkpt>
      <trkpt lat="52.5060969684273" lon="13.519817031919956">
        <ele>28.02</ele>
        <time>2024-09-17T12:12:26Z</time>
      </trkpt>
      <trkpt lat="52.506683031097054" lon="13.519680993631482">
        <ele>24.170000000000002</ele>
        <time>2024-09-17T12:12:32Z</time>
      </trkpt>
      <trkpt lat="52.506789984181523" lon="13.519656015560031">
        <ele>24.170000000000002</ele>
        <time>2024-09-17T12:12:33Z</time>
      </trkpt>
      <trkpt lat="52.506897021085024" lon="13.51963103748858">
        <ele>23.690000000000001</ele>
        <time>2024-09-17T12:12:34Z</time>
      </trkpt>
      <trkpt lat="52.507625995203853" lon="13.519475972279906">
        <ele>20.809999999999999</ele>
        <time>2024-09-17T12:12:42Z</time>
      </trkpt>
      <trkpt lat="52.507694978266954" lon="13.51946197450161">
        <ele>20.32</ele>
        <time>2024-09-17T12:12:43Z</time>
      </trkpt>
      <trkpt lat="52.508111977949739" lon="13.519374970346689">
        <ele>18.879999999999999</ele>
        <time>2024-09-17T12:12:50Z</time>
      </trkpt>
      <trkpt lat="52.508674990385771" lon="13.519284026697278">
        <ele>23.210000000000001</ele>
        <time>2024-09-17T12:13:01Z</time>
      </trkpt>
      <trkpt lat="52.508855033665895" lon="13.519252007827163">
        <ele>26.57</ele>
        <time>2024-09-17T12:13:04Z</time>
      </trkpt>
      <trkpt lat="52.508904989808798" lon="13.51931101642549">
        <ele>27.050000000000001</ele>
        <time>2024-09-17T12:13:05Z</time>
      </trkpt>
      <trkpt lat="52.508957041427493" lon="13.519343035295606">
        <ele>29.460000000000001</ele>
        <time>2024-09-17T12:13:12Z</time>
      </trkpt>
      <trkpt lat="52.509041028097272" lon="13.519401038065553">
        <ele>29.940000000000001</ele>
        <time>2024-09-17T12:13:23Z</time>
      </trkpt>
      <trkpt lat="52.509092995896935" lon="13.519457029178739">
        <ele>30.420000000000002</ele>
        <time>2024-09-17T12:13:24Z</time>
      </trkpt>
      <trkpt lat="52.509148987010121" lon="13.519518971443176">
        <ele>30.420000000000002</ele>
        <time>2024-09-17T12:13:25Z</time>
      </trkpt>
      <trkpt lat="52.509213024750352" lon="13.519588960334659">
        <ele>30.899999999999999</ele>
        <time>2024-09-17T12:13:26Z</time>
      </trkpt>
      <trkpt lat="52.509279996156693" lon="13.519716029986739">
        <ele>30.899999999999999</ele>
        <time>2024-09-17T12:13:27Z</time>
      </trkpt>
      <trkpt lat="52.509322995319963" lon="13.519823988899589">
        <ele>31.379999999999999</ele>
        <time>2024-09-17T12:13:28Z</time>
      </trkpt>
      <trkpt lat="52.509369011968374" lon="13.519939994439483">
        <ele>31.859999999999999</ele>
        <time>2024-09-17T12:13:29Z</time>
      </trkpt>
      <trkpt lat="52.509407987818122" lon="13.520035967230797">
        <ele>32.340000000000003</ele>
        <time>2024-09-17T12:13:30Z</time>
      </trkpt>
      <trkpt lat="52.509439000859857" lon="13.520114002749324">
        <ele>33.780000000000001</ele>
        <time>2024-09-17T12:13:31Z</time>
      </trkpt>
      <trkpt lat="52.509456016123295" lon="13.520157001912594">
        <ele>34.740000000000002</ele>
        <time>2024-09-17T12:13:32Z</time>
      </trkpt>
      <trkpt lat="52.509460961446166" lon="13.520347019657493">
        <ele>35.229999999999997</ele>
        <time>2024-09-17T12:13:33Z</time>
      </trkpt>
      <trkpt lat="52.509474037215114" lon="13.520862003788352">
        <ele>39.549999999999997</ele>
        <time>2024-09-17T12:13:37Z</time>
      </trkpt>
      <trkpt lat="52.509480994194746" lon="13.521107006818056">
        <ele>41.950000000000003</ele>
        <time>2024-09-17T12:13:39Z</time>
      </trkpt>
      <trkpt lat="52.509494991973042" lon="13.52154697291553">
        <ele>46.280000000000001</ele>
        <time>2024-09-17T12:13:42Z</time>
      </trkpt>
      <trkpt lat="52.509604040533304" lon="13.523036018013954">
        <ele>51.090000000000003</ele>
        <time>2024-09-17T12:13:50Z</time>
      </trkpt>
      <trkpt lat="52.509621977806091" lon="13.523201979696751">
        <ele>51.090000000000003</ele>
        <time>2024-09-17T12:13:51Z</time>
      </trkpt>
      <trkpt lat="52.509661037474871" lon="13.523533986881375">
        <ele>50.609999999999999</ele>
        <time>2024-09-17T12:13:53Z</time>
      </trkpt>
      <trkpt lat="52.5096819922328" lon="13.523712018504739">
        <ele>50.609999999999999</ele>
        <time>2024-09-17T12:13:54Z</time>
      </trkpt>
      <trkpt lat="52.509888019412756" lon="13.524829996749759">
        <ele>48.200000000000003</ele>
        <time>2024-09-17T12:14:01Z</time>
      </trkpt>
      <trkpt lat="52.510113995522261" lon="13.52674501016736">
        <ele>45.799999999999997</ele>
        <time>2024-09-17T12:14:12Z</time>
      </trkpt>
      <trkpt lat="52.510240981355309" lon="13.528697993606329">
        <ele>44.840000000000003</ele>
        <time>2024-09-17T12:14:21Z</time>
      </trkpt>
      <trkpt lat="52.51026201993227" lon="13.531409036368132">
        <ele>45.799999999999997</ele>
        <time>2024-09-17T12:14:33Z</time>
      </trkpt>
      <trkpt lat="52.510154983028769" lon="13.533840961754322">
        <ele>46.280000000000001</ele>
        <time>2024-09-17T12:14:43Z</time>
      </trkpt>
      <trkpt lat="52.510060016065836" lon="13.536170963197947">
        <ele>46.759999999999998</ele>
        <time>2024-09-17T12:14:53Z</time>
      </trkpt>
      <trkpt lat="52.509949039667845" lon="13.538458971306682">
        <ele>45.32</ele>
        <time>2024-09-17T12:15:03Z</time>
      </trkpt>
      <trkpt lat="52.509911991655827" lon="13.539435965940356">
        <ele>44.840000000000003</ele>
        <time>2024-09-17T12:15:07Z</time>
      </trkpt>
      <trkpt lat="52.509895982220769" lon="13.539876015856862">
        <ele>44.359999999999999</ele>
        <time>2024-09-17T12:15:09Z</time>
      </trkpt>
      <trkpt lat="52.509816018864512" lon="13.542236024513841">
        <ele>37.149999999999999</ele>
        <time>2024-09-17T12:15:20Z</time>
      </trkpt>
      <trkpt lat="52.509761033579707" lon="13.543575033545494">
        <ele>34.740000000000002</ele>
        <time>2024-09-17T12:15:26Z</time>
      </trkpt>
      <trkpt lat="52.509742006659508" lon="13.543791035190225">
        <ele>34.740000000000002</ele>
        <time>2024-09-17T12:15:27Z</time>
      </trkpt>
      <trkpt lat="52.509729014709592" lon="13.544027991592884">
        <ele>34.259999999999998</ele>
        <time>2024-09-17T12:15:28Z</time>
      </trkpt>
      <trkpt lat="52.509623989462852" lon="13.546084994450212">
        <ele>32.340000000000003</ele>
        <time>2024-09-17T12:15:38Z</time>
      </trkpt>
      <trkpt lat="52.509584007784724" lon="13.546734005212784">
        <ele>32.82</ele>
        <time>2024-09-17T12:15:41Z</time>
      </trkpt>
      <trkpt lat="52.509391978383064" lon="13.548865020275116">
        <ele>29.940000000000001</ele>
        <time>2024-09-17T12:15:51Z</time>
      </trkpt>
      <trkpt lat="52.509255018085241" lon="13.550777016207576">
        <ele>32.82</ele>
        <time>2024-09-17T12:16:01Z</time>
      </trkpt>
      <trkpt lat="52.509095007553697" lon="13.55242196470499">
        <ele>34.259999999999998</ele>
        <time>2024-09-17T12:16:11Z</time>
      </trkpt>
      <trkpt lat="52.509067011997104" lon="13.552732011303306">
        <ele>33.780000000000001</ele>
        <time>2024-09-17T12:16:16Z</time>
      </trkpt>
      <trkpt lat="52.509067011997104" lon="13.552732011303306">
        <ele>33.299999999999997</ele>
        <time>2024-09-17T12:16:34Z</time>
      </trkpt>
      <trkpt lat="52.509058965370059" lon="13.552822032943368">
        <ele>33.299999999999997</ele>
        <time>2024-09-17T12:16:42Z</time>
      </trkpt>
      <trkpt lat="52.508999034762383" lon="13.553524017333984">
        <ele>33.299999999999997</ele>
        <time>2024-09-17T12:16:47Z</time>
      </trkpt>
      <trkpt lat="52.50886500813067" lon="13.555674981325865">
        <ele>37.630000000000003</ele>
        <time>2024-09-17T12:16:58Z</time>
      </trkpt>
      <trkpt lat="52.508741961792111" lon="13.557930970564485">
        <ele>40.509999999999998</ele>
        <time>2024-09-17T12:17:10Z</time>
      </trkpt>
      <trkpt lat="52.508689993992448" lon="13.558937972411513">
        <ele>42.439999999999998</ele>
        <time>2024-09-17T12:17:19Z</time>
      </trkpt>
      <trkpt lat="52.508686976507306" lon="13.559007039293647">
        <ele>42.920000000000002</ele>
        <time>2024-09-17T12:17:20Z</time>
      </trkpt>
      <trkpt lat="52.508683959022164" lon="13.559060012921691">
        <ele>42.920000000000002</ele>
        <time>2024-09-17T12:17:21Z</time>
      </trkpt>
      <trkpt lat="52.508683959022164" lon="13.559141987934709">
        <ele>42.920000000000002</ele>
        <time>2024-09-17T12:17:22Z</time>
      </trkpt>
      <trkpt lat="52.508682031184435" lon="13.559200996533036">
        <ele>43.399999999999999</ele>
        <time>2024-09-17T12:17:23Z</time>
      </trkpt>
      <trkpt lat="52.508678007870913" lon="13.55925003066659">
        <ele>43.399999999999999</ele>
        <time>2024-09-17T12:17:24Z</time>
      </trkpt>
      <trkpt lat="52.508675996214151" lon="13.559289006516337">
        <ele>43.399999999999999</ele>
        <time>2024-09-17T12:17:25Z</time>
      </trkpt>
      <trkpt lat="52.50867398455739" lon="13.559321025386453">
        <ele>43.399999999999999</ele>
        <time>2024-09-17T12:17:26Z</time>
      </trkpt>
      <trkpt lat="52.508670967072248" lon="13.559352960437536">
        <ele>43.880000000000003</ele>
        <time>2024-09-17T12:17:27Z</time>
      </trkpt>
      <trkpt lat="52.508670967072248" lon="13.559352960437536">
        <ele>43.880000000000003</ele>
        <time>2024-09-17T12:17:38Z</time>
      </trkpt>
      <trkpt lat="52.508661998435855" lon="13.559866016730666">
        <ele>44.359999999999999</ele>
        <time>2024-09-17T12:17:44Z</time>
      </trkpt>
      <trkpt lat="52.508617993444204" lon="13.561063958331943">
        <ele>43.880000000000003</ele>
        <time>2024-09-17T12:17:52Z</time>
      </trkpt>
      <trkpt lat="52.508423030376434" lon="13.562057968229055">
        <ele>41.950000000000003</ele>
        <time>2024-09-17T12:18:00Z</time>
      </trkpt>
      <trkpt lat="52.508276011794806" lon="13.562541017308831">
        <ele>40.990000000000002</ele>
        <time>2024-09-17T12:18:06Z</time>
      </trkpt>
      <trkpt lat="52.507960014045238" lon="13.563406029716134">
        <ele>39.07</ele>
        <time>2024-09-17T12:18:13Z</time>
      </trkpt>
      <trkpt lat="52.507906034588814" lon="13.563545001670718">
        <ele>38.590000000000003</ele>
        <time>2024-09-17T12:18:14Z</time>
      </trkpt>
      <trkpt lat="52.507403958588839" lon="13.565062964335084">
        <ele>36.670000000000002</ele>
        <time>2024-09-17T12:18:23Z</time>
      </trkpt>
      <trkpt lat="52.506811022758484" lon="13.567142011597753">
        <ele>36.670000000000002</ele>
        <time>2024-09-17T12:18:33Z</time>
      </trkpt>
      <trkpt lat="52.506601978093386" lon="13.567900992929935">
        <ele>36.670000000000002</ele>
        <time>2024-09-17T12:18:37Z</time>
      </trkpt>
      <trkpt lat="52.506560990586877" lon="13.568043988198042">
        <ele>36.670000000000002</ele>
        <time>2024-09-17T12:18:38Z</time>
      </trkpt>
      <trkpt lat="52.506522014737129" lon="13.568176003172994">
        <ele>36.189999999999998</ele>
        <time>2024-09-17T12:18:39Z</time>
      </trkpt>
      <trkpt lat="52.506488990038633" lon="13.568288991227746">
        <ele>36.670000000000002</ele>
        <time>2024-09-17T12:18:40Z</time>
      </trkpt>
      <trkpt lat="52.506462000310421" lon="13.56838203035295">
        <ele>36.670000000000002</ele>
        <time>2024-09-17T12:18:41Z</time>
      </trkpt>
      <trkpt lat="52.50644096173346" lon="13.568453025072813">
        <ele>36.670000000000002</ele>
        <time>2024-09-17T12:18:42Z</time>
      </trkpt>
      <trkpt lat="52.506412966176867" lon="13.568550003692508">
        <ele>35.229999999999997</ele>
        <time>2024-09-17T12:18:49Z</time>
      </trkpt>
      <trkpt lat="52.506296038627625" lon="13.568954011425376">
        <ele>32.340000000000003</ele>
        <time>2024-09-17T12:19:13Z</time>
      </trkpt>
      <trkpt lat="52.506090011447668" lon="13.569703018292785">
        <ele>28.02</ele>
        <time>2024-09-17T12:19:17Z</time>
      </trkpt>
      <trkpt lat="52.506037037819624" lon="13.569897981360555">
        <ele>27.530000000000001</ele>
        <time>2024-09-17T12:19:18Z</time>
      </trkpt>
      <trkpt lat="52.505634035915136" lon="13.57149800285697">
        <ele>24.170000000000002</ele>
        <time>2024-09-17T12:19:28Z</time>
      </trkpt>
      <trkpt lat="52.505607968196273" lon="13.57160503976047">
        <ele>24.170000000000002</ele>
        <time>2024-09-17T12:19:29Z</time>
      </trkpt>
      <trkpt lat="52.505586007609963" lon="13.571699000895023">
        <ele>25.129999999999999</ele>
        <time>2024-09-17T12:19:30Z</time>
      </trkpt>
      <trkpt lat="52.505504032596946" lon="13.572016004472971">
        <ele>28.02</ele>
        <time>2024-09-17T12:19:38Z</time>
      </trkpt>
      <trkpt lat="52.505434965714812" lon="13.572262013331056">
        <ele>29.460000000000001</ele>
        <time>2024-09-17T12:19:52Z</time>
      </trkpt>
      <trkpt lat="52.505244025960565" lon="13.573480993509293">
        <ele>33.780000000000001</ele>
        <time>2024-09-17T12:20:00Z</time>
      </trkpt>
      <trkpt lat="52.505207983776927" lon="13.575645033270121">
        <ele>40.030000000000001</ele>
        <time>2024-09-17T12:20:11Z</time>
      </trkpt>
      <trkpt lat="52.505143024027348" lon="13.57847903855145">
        <ele>40.509999999999998</ele>
        <time>2024-09-17T12:20:25Z</time>
      </trkpt>
      <trkpt lat="52.505083009600639" lon="13.5803949739784">
        <ele>40.990000000000002</ele>
        <time>2024-09-17T12:20:35Z</time>
      </trkpt>
      <trkpt lat="52.505088960751891" lon="13.582861013710499">
        <ele>41.950000000000003</ele>
        <time>2024-09-17T12:20:47Z</time>
      </trkpt>
      <trkpt lat="52.505057025700808" lon="13.585252035409212">
        <ele>47.719999999999999</ele>
        <time>2024-09-17T12:20:59Z</time>
      </trkpt>
      <trkpt lat="52.504992987960577" lon="13.587731989100575">
        <ele>50.609999999999999</ele>
        <time>2024-09-17T12:21:11Z</time>
      </trkpt>
      <trkpt lat="52.504972033202648" lon="13.590387962758541">
        <ele>53.490000000000002</ele>
        <time>2024-09-17T12:21:24Z</time>
      </trkpt>
      <trkpt lat="52.504957029595971" lon="13.592745959758759">
        <ele>55.409999999999997</ele>
        <time>2024-09-17T12:21:34Z</time>
      </trkpt>
      <trkpt lat="52.504924004897475" lon="13.594846967607737">
        <ele>56.859999999999999</ele>
        <time>2024-09-17T12:21:43Z</time>
      </trkpt>
      <trkpt lat="52.504897015169263" lon="13.597275959327817">
        <ele>57.340000000000003</ele>
        <time>2024-09-17T12:21:54Z</time>
      </trkpt>
      <trkpt lat="52.504863990470767" lon="13.599934028461576">
        <ele>57.82</ele>
        <time>2024-09-17T12:22:05Z</time>
      </trkpt>
      <trkpt lat="52.504850998520851" lon="13.603166006505489">
        <ele>56.369999999999997</ele>
        <time>2024-09-17T12:22:19Z</time>
      </trkpt>
      <trkpt lat="52.504832977429032" lon="13.605823991820216">
        <ele>55.409999999999997</ele>
        <time>2024-09-17T12:22:31Z</time>
      </trkpt>
      <trkpt lat="52.504820991307497" lon="13.608250971883535">
        <ele>53.969999999999999</ele>
        <time>2024-09-17T12:22:43Z</time>
      </trkpt>
      <trkpt lat="52.504814034327865" lon="13.608723962679505">
        <ele>53.969999999999999</ele>
        <time>2024-09-17T12:22:47Z</time>
      </trkpt>
      <trkpt lat="52.504807999357581" lon="13.608938036486506">
        <ele>53.969999999999999</ele>
        <time>2024-09-17T12:22:54Z</time>
      </trkpt>
      <trkpt lat="52.504800036549568" lon="13.609426030889153">
        <ele>53.490000000000002</ele>
        <time>2024-09-17T12:23:02Z</time>
      </trkpt>
      <trkpt lat="52.504800036549568" lon="13.61055901274085">
        <ele>53.969999999999999</ele>
        <time>2024-09-17T12:23:10Z</time>
      </trkpt>
      <trkpt lat="52.504789978265762" lon="13.612030958756804">
        <ele>53.009999999999998</ele>
        <time>2024-09-17T12:23:18Z</time>
      </trkpt>
      <trkpt lat="52.504774974659085" lon="13.614049991592765">
        <ele>52.049999999999997</ele>
        <time>2024-09-17T12:23:28Z</time>
      </trkpt>
      <trkpt lat="52.504665004089475" lon="13.61610297113657">
        <ele>51.57</ele>
        <time>2024-09-17T12:23:40Z</time>
      </trkpt>
      <trkpt lat="52.504619993269444" lon="13.616882991045713">
        <ele>52.530000000000001</ele>
        <time>2024-09-17T12:23:44Z</time>
      </trkpt>
      <trkpt lat="52.504599960520864" lon="13.617097986862063">
        <ele>53.009999999999998</ele>
        <time>2024-09-17T12:23:45Z</time>
      </trkpt>
      <trkpt lat="52.504370966926217" lon="13.619292033836246">
        <ele>54.93</ele>
        <time>2024-09-17T12:23:56Z</time>
      </trkpt>
      <trkpt lat="52.504274994134903" lon="13.620128966867924">
        <ele>57.82</ele>
        <time>2024-09-17T12:24:04Z</time>
      </trkpt>
      <trkpt lat="52.504269964993" lon="13.620173977687955">
        <ele>58.780000000000001</ele>
        <time>2024-09-17T12:24:13Z</time>
      </trkpt>
      <trkpt lat="52.504243981093168" lon="13.620425015687943">
        <ele>59.740000000000002</ele>
        <time>2024-09-17T12:24:45Z</time>
      </trkpt>
      <trkpt lat="52.504087993875146" lon="13.621792020276189">
        <ele>61.18</ele>
        <time>2024-09-17T12:24:53Z</time>
      </trkpt>
      <trkpt lat="52.503714999184012" lon="13.624935988336802">
        <ele>57.82</ele>
        <time>2024-09-17T12:25:07Z</time>
      </trkpt>
      <trkpt lat="52.503351978957653" lon="13.627994963899255">
        <ele>55.409999999999997</ele>
        <time>2024-09-17T12:25:19Z</time>
      </trkpt>
      <trkpt lat="52.502943025901914" lon="13.63137798383832">
        <ele>49.159999999999997</ele>
        <time>2024-09-17T12:25:31Z</time>
      </trkpt>
      <trkpt lat="52.502474980428815" lon="13.635267019271851">
        <ele>50.609999999999999</ele>
        <time>2024-09-17T12:25:45Z</time>
      </trkpt>
      <trkpt lat="52.502224026247859" lon="13.63732703961432">
        <ele>49.649999999999999</ele>
        <time>2024-09-17T12:25:54Z</time>
      </trkpt>
      <trkpt lat="52.501805014908314" lon="13.64010295830667">
        <ele>50.130000000000003</ele>
        <time>2024-09-17T12:26:06Z</time>
      </trkpt>
      <trkpt lat="52.501516006886959" lon="13.640975011512637">
        <ele>49.649999999999999</ele>
        <time>2024-09-17T12:26:12Z</time>
      </trkpt>
      <trkpt lat="52.501493962481618" lon="13.641038965433836">
        <ele>49.159999999999997</ele>
        <time>2024-09-17T12:26:13Z</time>
      </trkpt>
      <trkpt lat="52.50147501938045" lon="13.641096968203783">
        <ele>49.159999999999997</ele>
        <time>2024-09-17T12:26:14Z</time>
      </trkpt>
      <trkpt lat="52.501458004117012" lon="13.641144996508956">
        <ele>48.68</ele>
        <time>2024-09-17T12:26:15Z</time>
      </trkpt>
      <trkpt lat="52.501405030488968" lon="13.641300983726978">
        <ele>47.719999999999999</ele>
        <time>2024-09-17T12:26:25Z</time>
      </trkpt>
      <trkpt lat="52.501245019957423" lon="13.64167096093297">
        <ele>47.240000000000002</ele>
        <time>2024-09-17T12:26:45Z</time>
      </trkpt>
      <trkpt lat="52.500762976706028" lon="13.642529016360641">
        <ele>46.759999999999998</ele>
        <time>2024-09-17T12:26:52Z</time>
      </trkpt>
      <trkpt lat="52.499986980110407" lon="13.643875988200307">
        <ele>45.32</ele>
        <time>2024-09-17T12:27:01Z</time>
      </trkpt>
      <trkpt lat="52.499371999874711" lon="13.64517099224031">
        <ele>41.950000000000003</ele>
        <time>2024-09-17T12:27:11Z</time>
      </trkpt>
      <trkpt lat="52.499153986573219" lon="13.645874988287687">
        <ele>40.509999999999998</ele>
        <time>2024-09-17T12:27:16Z</time>
      </trkpt>
      <trkpt lat="52.499124985188246" lon="13.645976996049285">
        <ele>40.509999999999998</ele>
        <time>2024-09-17T12:27:17Z</time>
      </trkpt>
      <trkpt lat="52.49896103516221" lon="13.646143041551113">
        <ele>40.509999999999998</ele>
        <time>2024-09-17T12:27:18Z</time>
      </trkpt>
      <trkpt lat="52.498916024342179" lon="13.646093001589179">
        <ele>40.509999999999998</ele>
        <time>2024-09-17T12:27:19Z</time>
      </trkpt>
      <trkpt lat="52.498856009915471" lon="13.646026030182838">
        <ele>40.509999999999998</ele>
        <time>2024-09-17T12:27:20Z</time>
      </trkpt>
      <trkpt lat="52.498785015195608" lon="13.64594497717917">
        <ele>40.509999999999998</ele>
        <time>2024-09-17T12:27:21Z</time>
      </trkpt>
      <trkpt lat="52.498703962191939" lon="13.645854033529758">
        <ele>40.509999999999998</ele>
        <time>2024-09-17T12:27:22Z</time>
      </trkpt>
      <trkpt lat="52.49861704185605" lon="13.645752025768161">
        <ele>40.030000000000001</ele>
        <time>2024-09-17T12:27:23Z</time>
      </trkpt>
      <trkpt lat="52.497811960056424" lon="13.644771007820964">
        <ele>38.109999999999999</ele>
        <time>2024-09-17T12:27:33Z</time>
      </trkpt>
      <trkpt lat="52.497725039720535" lon="13.644708981737494">
        <ele>38.109999999999999</ele>
        <time>2024-09-17T12:27:34Z</time>
      </trkpt>
      <trkpt lat="52.497611967846751" lon="13.64463304169476">
        <ele>37.630000000000003</ele>
        <time>2024-09-17T12:27:35Z</time>
      </trkpt>
      <trkpt lat="52.497529992833734" lon="13.644651984795928">
        <ele>37.149999999999999</ele>
        <time>2024-09-17T12:27:36Z</time>
      </trkpt>
      <trkpt lat="52.497423039749265" lon="13.644676962867379">
        <ele>36.670000000000002</ele>
        <time>2024-09-17T12:27:37Z</time>
      </trkpt>
      <trkpt lat="52.49730602838099" lon="13.644703030586243">
        <ele>36.189999999999998</ele>
        <time>2024-09-17T12:27:38Z</time>
      </trkpt>
      <trkpt lat="52.496358035132289" lon="13.644944010302424">
        <ele>35.229999999999997</ele>
        <time>2024-09-17T12:27:45Z</time>
      </trkpt>
      <trkpt lat="52.495039980858564" lon="13.645261013880372">
        <ele>38.109999999999999</ele>
        <time>2024-09-17T12:27:53Z</time>
      </trkpt>
      <trkpt lat="52.494878964498639" lon="13.645303007215261">
        <ele>38.590000000000003</ele>
        <time>2024-09-17T12:27:54Z</time>
      </trkpt>
      <trkpt lat="52.493232004344463" lon="13.645725036039948">
        <ele>44.840000000000003</ele>
        <time>2024-09-17T12:28:04Z</time>
      </trkpt>
      <trkpt lat="52.491932976990938" lon="13.645985964685678">
        <ele>52.049999999999997</ele>
        <time>2024-09-17T12:28:12Z</time>
      </trkpt>
      <trkpt lat="52.491610022261739" lon="13.645958974957466">
        <ele>54.450000000000003</ele>
        <time>2024-09-17T12:28:14Z</time>
      </trkpt>
      <trkpt lat="52.491451017558575" lon="13.645917987450957">
        <ele>55.409999999999997</ele>
        <time>2024-09-17T12:28:15Z</time>
      </trkpt>
      <trkpt lat="52.491111969575286" lon="13.645827965810895">
        <ele>58.299999999999997</ele>
        <time>2024-09-17T12:28:17Z</time>
      </trkpt>
      <trkpt lat="52.490948019549251" lon="13.645762000232935">
        <ele>59.740000000000002</ele>
        <time>2024-09-17T12:28:18Z</time>
      </trkpt>
      <trkpt lat="52.490782979875803" lon="13.645696034654975">
        <ele>60.700000000000003</ele>
        <time>2024-09-17T12:28:19Z</time>
      </trkpt>
      <trkpt lat="52.4896140396595" lon="13.645189013332129">
        <ele>69.829999999999998</ele>
        <time>2024-09-17T12:28:26Z</time>
      </trkpt>
      <trkpt lat="52.489462997764349" lon="13.64510502666235">
        <ele>70.790000000000006</ele>
        <time>2024-09-17T12:28:27Z</time>
      </trkpt>
      <trkpt lat="52.488251980394125" lon="13.644492980092764">
        <ele>76.560000000000002</ele>
        <time>2024-09-17T12:28:35Z</time>
      </trkpt>
      <trkpt lat="52.48811200261116" lon="13.644458027556539">
        <ele>77.040000000000006</ele>
        <time>2024-09-17T12:28:36Z</time>
      </trkpt>
      <trkpt lat="52.48800496570766" lon="13.6444600392133">
        <ele>77.040000000000006</ele>
        <time>2024-09-17T12:28:37Z</time>
      </trkpt>
      <trkpt lat="52.487872028723359" lon="13.644532961770892">
        <ele>76.560000000000002</ele>
        <time>2024-09-17T12:28:38Z</time>
      </trkpt>
      <trkpt lat="52.487749988213181" lon="13.644616026431322">
        <ele>76.079999999999998</ele>
        <time>2024-09-17T12:28:39Z</time>
      </trkpt>
      <trkpt lat="52.48761897906661" lon="13.644727002829313">
        <ele>75.599999999999994</ele>
        <time>2024-09-17T12:28:40Z</time>
      </trkpt>
      <trkpt lat="52.48748897574842" lon="13.644837979227304">
        <ele>75.120000000000005</ele>
        <time>2024-09-17T12:28:41Z</time>
      </trkpt>
      <trkpt lat="52.487362995743752" lon="13.644944010302424">
        <ele>74.640000000000001</ele>
        <time>2024-09-17T12:28:42Z</time>
      </trkpt>
      <trkpt lat="52.486102022230625" lon="13.645754037424922">
        <ele>70.790000000000006</ele>
        <time>2024-09-17T12:28:51Z</time>
      </trkpt>
      <trkpt lat="52.485127961263061" lon="13.646296011283994">
        <ele>68.390000000000001</ele>
        <time>2024-09-17T12:28:58Z</time>
      </trkpt>
      <trkpt lat="52.484647007659078" lon="13.646449986845255">
        <ele>66.469999999999999</ele>
        <time>2024-09-17T12:29:02Z</time>
      </trkpt>
      <trkpt lat="52.484533013775945" lon="13.64641897380352">
        <ele>65.510000000000005</ele>
        <time>2024-09-17T12:29:03Z</time>
      </trkpt>
      <trkpt lat="52.484431006014347" lon="13.646389972418547">
        <ele>65.510000000000005</ele>
        <time>2024-09-17T12:29:04Z</time>
      </trkpt>
      <trkpt lat="52.484357999637723" lon="13.646345967426896">
        <ele>65.030000000000001</ele>
        <time>2024-09-17T12:29:05Z</time>
      </trkpt>
      <trkpt lat="52.484306031838059" lon="13.646315960213542">
        <ele>64.549999999999997</ele>
        <time>2024-09-17T12:29:06Z</time>
      </trkpt>
      <trkpt lat="52.484195977449417" lon="13.646252006292343">
        <ele>61.659999999999997</ele>
        <time>2024-09-17T12:29:13Z</time>
      </trkpt>
      <trkpt lat="52.484128000214696" lon="13.646214036270976">
        <ele>60.700000000000003</ele>
        <time>2024-09-17T12:29:23Z</time>
      </trkpt>
      <trkpt lat="52.484168987721205" lon="13.64633004181087">
        <ele>60.219999999999999</ele>
        <time>2024-09-17T12:29:24Z</time>
      </trkpt>
      <trkpt lat="52.484157001599669" lon="13.646432971581817">
        <ele>59.740000000000002</ele>
        <time>2024-09-17T12:29:25Z</time>
      </trkpt>
      <trkpt lat="52.484135963022709" lon="13.646607985720038">
        <ele>58.780000000000001</ele>
        <time>2024-09-17T12:29:26Z</time>
      </trkpt>
      <trkpt lat="52.484146021306515" lon="13.64665400236845">
        <ele>58.780000000000001</ele>
        <time>2024-09-17T12:29:27Z</time>
      </trkpt>
      <trkpt lat="52.48418097384274" lon="13.646818036213517">
        <ele>58.299999999999997</ele>
        <time>2024-09-17T12:29:28Z</time>
      </trkpt>
      <trkpt lat="52.484495965763927" lon="13.64820197224617">
        <ele>58.780000000000001</ele>
        <time>2024-09-17T12:29:34Z</time>
      </trkpt>
      <trkpt lat="52.484624041244388" lon="13.648765990510583">
        <ele>59.259999999999998</ele>
        <time>2024-09-17T12:29:36Z</time>
      </trkpt>
      <trkpt lat="52.484692018479109" lon="13.649063967168331">
        <ele>59.740000000000002</ele>
        <time>2024-09-17T12:29:37Z</time>
      </trkpt>
      <trkpt lat="52.485260982066393" lon="13.651559008285403">
        <ele>64.069999999999993</ele>
        <time>2024-09-17T12:29:45Z</time>
      </trkpt>
      <trkpt lat="52.485783006995916" lon="13.653848022222519">
        <ele>68.390000000000001</ele>
        <time>2024-09-17T12:29:53Z</time>
      </trkpt>
      <trkpt lat="52.486188020557165" lon="13.655798994004726">
        <ele>74.159999999999997</ele>
        <time>2024-09-17T12:30:00Z</time>
      </trkpt>
      <trkpt lat="52.486603008583188" lon="13.657806040719151">
        <ele>80.890000000000001</ele>
        <time>2024-09-17T12:30:07Z</time>
      </trkpt>
      <trkpt lat="52.486998969689012" lon="13.659790959209204">
        <ele>86.180000000000007</ele>
        <time>2024-09-17T12:30:14Z</time>
      </trkpt>
      <trkpt lat="52.487470032647252" lon="13.662196984514594">
        <ele>83.290000000000006</ele>
        <time>2024-09-17T12:30:22Z</time>
      </trkpt>
      <trkpt lat="52.48800303786993" lon="13.664921019226313">
        <ele>79.450000000000003</ele>
        <time>2024-09-17T12:30:31Z</time>
      </trkpt>
      <trkpt lat="52.488477034494281" lon="13.668071022257209">
        <ele>73.200000000000003</ele>
        <time>2024-09-17T12:30:41Z</time>
      </trkpt>
      <trkpt lat="52.488590022549033" lon="13.668862022459507">
        <ele>71.760000000000005</ele>
        <time>2024-09-17T12:30:44Z</time>
      </trkpt>
      <trkpt lat="52.488620029762387" lon="13.669066959992051">
        <ele>71.269999999999996</ele>
        <time>2024-09-17T12:30:45Z</time>
      </trkpt>
      <trkpt lat="52.488739974796772" lon="13.669742960482836">
        <ele>70.790000000000006</ele>
        <time>2024-09-17T12:30:49Z</time>
      </trkpt>
      <trkpt lat="52.488846005871892" lon="13.670102963224053">
        <ele>71.760000000000005</ele>
        <time>2024-09-17T12:30:52Z</time>
      </trkpt>
      <trkpt lat="52.488880958408117" lon="13.670215029269457">
        <ele>72.239999999999995</ele>
        <time>2024-09-17T12:30:53Z</time>
      </trkpt>
      <trkpt lat="52.489021020010114" lon="13.670656001195312">
        <ele>72.719999999999999</ele>
        <time>2024-09-17T12:30:57Z</time>
      </trkpt>
      <trkpt lat="52.489138031378388" lon="13.670937968418002">
        <ele>72.719999999999999</ele>
        <time>2024-09-17T12:31:00Z</time>
      </trkpt>
      <trkpt lat="52.489168960601091" lon="13.671006029471755">
        <ele>72.719999999999999</ele>
        <time>2024-09-17T12:31:01Z</time>
      </trkpt>
      <trkpt lat="52.489093020558357" lon="13.671111976727843">
        <ele>72.239999999999995</ele>
        <time>2024-09-17T12:31:02Z</time>
      </trkpt>
      <trkpt lat="52.489059995859861" lon="13.671145001426339">
        <ele>71.760000000000005</ele>
        <time>2024-09-17T12:31:03Z</time>
      </trkpt>
      <trkpt lat="52.489022025838494" lon="13.671182971447706">
        <ele>72.239999999999995</ele>
        <time>2024-09-17T12:31:04Z</time>
      </trkpt>
      <trkpt lat="52.488942984491587" lon="13.671262012794614">
        <ele>72.239999999999995</ele>
        <time>2024-09-17T12:31:05Z</time>
      </trkpt>
      <trkpt lat="52.488912977278233" lon="13.671270981431007">
        <ele>72.239999999999995</ele>
        <time>2024-09-17T12:31:06Z</time>
      </trkpt>
      <trkpt lat="52.488852962851524" lon="13.671287996694446">
        <ele>72.239999999999995</ele>
        <time>2024-09-17T12:31:07Z</time>
      </trkpt>
      <trkpt lat="52.488580970093608" lon="13.671367960050702">
        <ele>71.760000000000005</ele>
        <time>2024-09-17T12:31:11Z</time>
      </trkpt>
      <trkpt lat="52.487440025433898" lon="13.671707008033991">
        <ele>66.950000000000003</ele>
        <time>2024-09-17T12:31:24Z</time>
      </trkpt>
      <trkpt lat="52.487315973266959" lon="13.671745983883739">
        <ele>65.989999999999995</ele>
        <time>2024-09-17T12:31:26Z</time>
      </trkpt>
      <trkpt lat="52.487262999638915" lon="13.671761993318796">
        <ele>65.030000000000001</ele>
        <time>2024-09-17T12:31:27Z</time>
      </trkpt>
      <trkpt lat="52.487211031839252" lon="13.671779008582234">
        <ele>64.549999999999997</ele>
        <time>2024-09-17T12:31:28Z</time>
      </trkpt>
      <trkpt lat="52.48714598827064" lon="13.671799041330814">
        <ele>64.069999999999993</ele>
        <time>2024-09-17T12:31:29Z</time>
      </trkpt>
      <trkpt lat="52.487064013257623" lon="13.671825025230646">
        <ele>63.579999999999998</ele>
        <time>2024-09-17T12:31:30Z</time>
      </trkpt>
      <trkpt lat="52.486982960253954" lon="13.671850003302097">
        <ele>63.100000000000001</ele>
        <time>2024-09-17T12:31:31Z</time>
      </trkpt>
      <trkpt lat="52.486910037696362" lon="13.671872969716787">
        <ele>62.619999999999997</ele>
        <time>2024-09-17T12:31:32Z</time>
      </trkpt>
      <trkpt lat="52.486593034118414" lon="13.671971959993243">
        <ele>60.219999999999999</ele>
        <time>2024-09-17T12:31:37Z</time>
      </trkpt>
      <trkpt lat="52.486551962792873" lon="13.671985035762191">
        <ele>59.740000000000002</ele>
        <time>2024-09-17T12:31:38Z</time>
      </trkpt>
      <trkpt lat="52.486511981114745" lon="13.671997021883726">
        <ele>59.259999999999998</ele>
        <time>2024-09-17T12:31:39Z</time>
      </trkpt>
      <trkpt lat="52.486481973901391" lon="13.67200599052012">
        <ele>58.780000000000001</ele>
        <time>2024-09-17T12:31:40Z</time>
      </trkpt>
      <trkpt lat="52.486614994704723" lon="13.672186033800244">
        <ele>57.82</ele>
        <time>2024-09-17T12:31:41Z</time>
      </trkpt>
      <trkpt lat="52.48660602606833" lon="13.672227021306753">
        <ele>57.340000000000003</ele>
        <time>2024-09-17T12:31:42Z</time>
      </trkpt>
      <trkpt lat="52.486594039946795" lon="13.672278989106417">
        <ele>56.859999999999999</ele>
        <time>2024-09-17T12:31:43Z</time>
      </trkpt>
      <trkpt lat="52.486575013026595" lon="13.672359958291054">
        <ele>56.369999999999997</ele>
        <time>2024-09-17T12:31:44Z</time>
      </trkpt>
      <trkpt lat="52.486547017470002" lon="13.672485016286373">
        <ele>55.409999999999997</ele>
        <time>2024-09-17T12:31:45Z</time>
      </trkpt>
      <trkpt lat="52.486518016085029" lon="13.672614013776183">
        <ele>53.969999999999999</ele>
        <time>2024-09-17T12:31:46Z</time>
      </trkpt>
      <trkpt lat="52.486244011670351" lon="13.673436027020216">
        <ele>50.130000000000003</ele>
        <time>2024-09-17T12:31:52Z</time>
      </trkpt>
      <trkpt lat="52.485563987866044" lon="13.675582967698574">
        <ele>47.240000000000002</ele>
        <time>2024-09-17T12:32:03Z</time>
      </trkpt>
      <trkpt lat="52.485338011756539" lon="13.676713015884161">
        <ele>47.240000000000002</ele>
        <time>2024-09-17T12:32:08Z</time>
      </trkpt>
      <trkpt lat="52.485254025086761" lon="13.676846036687493">
        <ele>47.240000000000002</ele>
        <time>2024-09-17T12:32:09Z</time>
      </trkpt>
      <trkpt lat="52.485165009275079" lon="13.6769890319556">
        <ele>47.240000000000002</ele>
        <time>2024-09-17T12:32:10Z</time>
      </trkpt>
      <trkpt lat="52.48478296212852" lon="13.677612980827689">
        <ele>47.719999999999999</ele>
        <time>2024-09-17T12:32:14Z</time>
      </trkpt>
      <trkpt lat="52.484209975227714" lon="13.679242003709078">
        <ele>49.649999999999999</ele>
        <time>2024-09-17T12:32:22Z</time>
      </trkpt>
      <trkpt lat="52.483430039137602" lon="13.681859001517296">
        <ele>49.159999999999997</ele>
        <time>2024-09-17T12:32:34Z</time>
      </trkpt>
      <trkpt lat="52.482469975948334" lon="13.684427971020341">
        <ele>46.280000000000001</ele>
        <time>2024-09-17T12:32:46Z</time>
      </trkpt>
      <trkpt lat="52.482086000964046" lon="13.686108039692044">
        <ele>42.439999999999998</ele>
        <time>2024-09-17T12:32:54Z</time>
      </trkpt>
      <trkpt lat="52.482060017064214" lon="13.686309037730098">
        <ele>41.950000000000003</ele>
        <time>2024-09-17T12:32:55Z</time>
      </trkpt>
      <trkpt lat="52.481905035674572" lon="13.687527012079954">
        <ele>39.549999999999997</ele>
        <time>2024-09-17T12:33:02Z</time>
      </trkpt>
      <trkpt lat="52.481876034289598" lon="13.687671013176441">
        <ele>39.07</ele>
        <time>2024-09-17T12:33:03Z</time>
      </trkpt>
      <trkpt lat="52.481847032904625" lon="13.687810990959406">
        <ele>38.590000000000003</ele>
        <time>2024-09-17T12:33:04Z</time>
      </trkpt>
      <trkpt lat="52.481546960771084" lon="13.68930104188621">
        <ele>35.229999999999997</ele>
        <time>2024-09-17T12:33:14Z</time>
      </trkpt>
      <trkpt lat="52.48127899132669" lon="13.690606020390987">
        <ele>35.710000000000001</ele>
        <time>2024-09-17T12:33:23Z</time>
      </trkpt>
      <trkpt lat="52.480981014668941" lon="13.692013006657362">
        <ele>40.030000000000001</ele>
        <time>2024-09-17T12:33:33Z</time>
      </trkpt>
      <trkpt lat="52.48095503076911" lon="13.692134041339159">
        <ele>40.030000000000001</ele>
        <time>2024-09-17T12:33:34Z</time>
      </trkpt>
      <trkpt lat="52.480930974707007" lon="13.69224501773715">
        <ele>39.549999999999997</ele>
        <time>2024-09-17T12:33:35Z</time>
      </trkpt>
      <trkpt lat="52.480682032182813" lon="13.693414963781834">
        <ele>38.590000000000003</ele>
        <time>2024-09-17T12:33:45Z</time>
      </trkpt>
      <trkpt lat="52.480584969744086" lon="13.69377002120018">
        <ele>38.109999999999999</ele>
        <time>2024-09-17T12:33:49Z</time>
      </trkpt>
      <trkpt lat="52.480560997501016" lon="13.69385601952672">
        <ele>38.590000000000003</ele>
        <time>2024-09-17T12:33:50Z</time>
      </trkpt>
      <trkpt lat="52.480538031086326" lon="13.693939000368118">
        <ele>38.590000000000003</ele>
        <time>2024-09-17T12:33:51Z</time>
      </trkpt>
      <trkpt lat="52.480514980852604" lon="13.694022987037897">
        <ele>38.590000000000003</ele>
        <time>2024-09-17T12:33:52Z</time>
      </trkpt>
      <trkpt lat="52.480488996952772" lon="13.694118037819862">
        <ele>38.109999999999999</ele>
        <time>2024-09-17T12:33:53Z</time>
      </trkpt>
      <trkpt lat="52.480459995567799" lon="13.694223985075951">
        <ele>38.109999999999999</ele>
        <time>2024-09-17T12:33:54Z</time>
      </trkpt>
      <trkpt lat="52.480494026094675" lon="13.694463036954403">
        <ele>38.109999999999999</ele>
        <time>2024-09-17T12:33:55Z</time>
      </trkpt>
      <trkpt lat="52.480418002232909" lon="13.694533025845885">
        <ele>37.630000000000003</ele>
        <time>2024-09-17T12:33:56Z</time>
      </trkpt>
      <trkpt lat="52.480348013341427" lon="13.694603014737368">
        <ele>37.630000000000003</ele>
        <time>2024-09-17T12:33:57Z</time>
      </trkpt>
      <trkpt lat="52.480275006964803" lon="13.694697981700301">
        <ele>37.630000000000003</ele>
        <time>2024-09-17T12:33:58Z</time>
      </trkpt>
      <trkpt lat="52.479835962876678" lon="13.695280021056533">
        <ele>36.670000000000002</ele>
        <time>2024-09-17T12:34:05Z</time>
      </trkpt>
      <trkpt lat="52.479789024218917" lon="13.695341963320971">
        <ele>36.189999999999998</ele>
        <time>2024-09-17T12:34:06Z</time>
      </trkpt>
      <trkpt lat="52.479739990085363" lon="13.695408012717962">
        <ele>36.189999999999998</ele>
        <time>2024-09-17T12:34:07Z</time>
      </trkpt>
      <trkpt lat="52.479686010628939" lon="13.695479007437825">
        <ele>35.710000000000001</ele>
        <time>2024-09-17T12:34:08Z</time>
      </trkpt>
      <trkpt lat="52.479544021189213" lon="13.695487976074219">
        <ele>35.710000000000001</ele>
        <time>2024-09-17T12:34:09Z</time>
      </trkpt>
      <trkpt lat="52.479541003704071" lon="13.695488981902599">
        <ele>35.710000000000001</ele>
        <time>2024-09-17T12:34:10Z</time>
      </trkpt>
      <trkpt lat="52.479481995105743" lon="13.695513037964702">
        <ele>35.229999999999997</ele>
        <time>2024-09-17T12:34:11Z</time>
      </trkpt>
      <trkpt lat="52.479429021477699" lon="13.695572968572378">
        <ele>35.229999999999997</ele>
        <time>2024-09-17T12:34:12Z</time>
      </trkpt>
      <trkpt lat="52.47941100038588" lon="13.695659972727299">
        <ele>35.229999999999997</ele>
        <time>2024-09-17T12:34:13Z</time>
      </trkpt>
      <trkpt lat="52.479393985122442" lon="13.695745971053839">
        <ele>35.229999999999997</ele>
        <time>2024-09-17T12:34:14Z</time>
      </trkpt>
      <trkpt lat="52.479393985122442" lon="13.695745971053839">
        <ele>35.229999999999997</ele>
        <time>2024-09-17T12:34:15Z</time>
      </trkpt>
      <trkpt lat="52.479427009820938" lon="13.6960260104388">
        <ele>34.740000000000002</ele>
        <time>2024-09-17T12:34:16Z</time>
      </trkpt>
      <trkpt lat="52.479383004829288" lon="13.696117037907243">
        <ele>34.259999999999998</ele>
        <time>2024-09-17T12:34:17Z</time>
      </trkpt>
      <trkpt lat="52.479333970695734" lon="13.696218961849809">
        <ele>33.780000000000001</ele>
        <time>2024-09-17T12:34:18Z</time>
      </trkpt>
      <trkpt lat="52.479283008724451" lon="13.696322981268167">
        <ele>32.82</ele>
        <time>2024-09-17T12:34:19Z</time>
      </trkpt>
      <trkpt lat="52.479231962934136" lon="13.696429012343287">
        <ele>32.340000000000003</ele>
        <time>2024-09-17T12:34:20Z</time>
      </trkpt>
      <trkpt lat="52.479178989306092" lon="13.696537977084517">
        <ele>31.859999999999999</ele>
        <time>2024-09-17T12:34:21Z</time>
      </trkpt>
      <trkpt lat="52.478977991268039" lon="13.697382034733891">
        <ele>31.379999999999999</ele>
        <time>2024-09-17T12:34:27Z</time>
      </trkpt>
      <trkpt lat="52.478955024853349" lon="13.697535004466772">
        <ele>31.379999999999999</ele>
        <time>2024-09-17T12:34:28Z</time>
      </trkpt>
      <trkpt lat="52.478947984054685" lon="13.697700966149569">
        <ele>31.379999999999999</ele>
        <time>2024-09-17T12:34:29Z</time>
      </trkpt>
      <trkpt lat="52.478994000703096" lon="13.698503030464053">
        <ele>30.420000000000002</ele>
        <time>2024-09-17T12:34:34Z</time>
      </trkpt>
      <trkpt lat="52.47900296933949" lon="13.698662035167217">
        <ele>30.420000000000002</ele>
        <time>2024-09-17T12:34:35Z</time>
      </trkpt>
      <trkpt lat="52.478999029844999" lon="13.69882196187973">
        <ele>30.420000000000002</ele>
        <time>2024-09-17T12:34:36Z</time>
      </trkpt>
      <trkpt lat="52.478886963799596" lon="13.700058963149786">
        <ele>32.340000000000003</ele>
        <time>2024-09-17T12:34:46Z</time>
      </trkpt>
      <trkpt lat="52.478796020150185" lon="13.700618036091328">
        <ele>34.259999999999998</ele>
        <time>2024-09-17T12:34:55Z</time>
      </trkpt>
      <trkpt lat="52.478773975744843" lon="13.700751978904009">
        <ele>34.259999999999998</ele>
        <time>2024-09-17T12:34:57Z</time>
      </trkpt>
      <trkpt lat="52.478760983794928" lon="13.700829008594155">
        <ele>34.259999999999998</ele>
        <time>2024-09-17T12:34:58Z</time>
      </trkpt>
      <trkpt lat="52.478747991845012" lon="13.700911989435554">
        <ele>34.259999999999998</ele>
        <time>2024-09-17T12:34:59Z</time>
      </trkpt>
      <trkpt lat="52.478721002116799" lon="13.701090021058917">
        <ele>33.780000000000001</ele>
        <time>2024-09-17T12:35:01Z</time>
      </trkpt>
      <trkpt lat="52.478522015735507" lon="13.702389970421791">
        <ele>36.670000000000002</ele>
        <time>2024-09-17T12:35:12Z</time>
      </trkpt>
      <trkpt lat="52.478242982178926" lon="13.704284029081464">
        <ele>37.630000000000003</ele>
        <time>2024-09-17T12:35:23Z</time>
      </trkpt>
      <trkpt lat="52.477917009964585" lon="13.706645965576172">
        <ele>38.109999999999999</ele>
        <time>2024-09-17T12:35:36Z</time>
      </trkpt>
      <trkpt lat="52.477677036076784" lon="13.708286974579096">
        <ele>37.630000000000003</ele>
        <time>2024-09-17T12:35:45Z</time>
      </trkpt>
      <trkpt lat="52.477611992508173" lon="13.70844597928226">
        <ele>37.630000000000003</ele>
        <time>2024-09-17T12:35:46Z</time>
      </trkpt>
      <trkpt lat="52.477546026930213" lon="13.708608001470566">
        <ele>37.630000000000003</ele>
        <time>2024-09-17T12:35:47Z</time>
      </trkpt>
      <trkpt lat="52.477464973926544" lon="13.708760971203446">
        <ele>37.630000000000003</ele>
        <time>2024-09-17T12:35:48Z</time>
      </trkpt>
      <trkpt lat="52.477373024448752" lon="13.708887035027146">
        <ele>37.630000000000003</ele>
        <time>2024-09-17T12:35:49Z</time>
      </trkpt>
      <trkpt lat="52.477279985323548" lon="13.709012009203434">
        <ele>37.630000000000003</ele>
        <time>2024-09-17T12:35:50Z</time>
      </trkpt>
      <trkpt lat="52.476267032325268" lon="13.710386976599693">
        <ele>36.670000000000002</ele>
        <time>2024-09-17T12:36:01Z</time>
      </trkpt>
      <trkpt lat="52.475532023236156" lon="13.711365982890129">
        <ele>34.740000000000002</ele>
        <time>2024-09-17T12:36:09Z</time>
      </trkpt>
      <trkpt lat="52.47459702193737" lon="13.71259099803865">
        <ele>33.780000000000001</ele>
        <time>2024-09-17T12:36:20Z</time>
      </trkpt>
      <trkpt lat="52.474556034430861" lon="13.712644977495074">
        <ele>33.299999999999997</ele>
        <time>2024-09-17T12:36:21Z</time>
      </trkpt>
      <trkpt lat="52.474392000585794" lon="13.712857961654663">
        <ele>30.420000000000002</ele>
        <time>2024-09-17T12:36:30Z</time>
      </trkpt>
      <trkpt lat="52.474314970895648" lon="13.712958041578531">
        <ele>30.420000000000002</ele>
        <time>2024-09-17T12:37:04Z</time>
      </trkpt>
      <trkpt lat="52.473937030881643" lon="13.713490040972829">
        <ele>32.82</ele>
        <time>2024-09-17T12:37:12Z</time>
      </trkpt>
      <trkpt lat="52.473752964287996" lon="13.713796986266971">
        <ele>33.299999999999997</ele>
        <time>2024-09-17T12:37:15Z</time>
      </trkpt>
      <trkpt lat="52.47369697317481" lon="13.713922966271639">
        <ele>33.299999999999997</ele>
        <time>2024-09-17T12:37:16Z</time>
      </trkpt>
      <trkpt lat="52.473637964576483" lon="13.714054981246591">
        <ele>33.299999999999997</ele>
        <time>2024-09-17T12:37:17Z</time>
      </trkpt>
      <trkpt lat="52.473604017868638" lon="13.714194959029555">
        <ele>33.780000000000001</ele>
        <time>2024-09-17T12:37:18Z</time>
      </trkpt>
      <trkpt lat="52.473575016483665" lon="13.714367039501667">
        <ele>33.780000000000001</ele>
        <time>2024-09-17T12:37:19Z</time>
      </trkpt>
      <trkpt lat="52.47354400344193" lon="13.714541969820857">
        <ele>34.259999999999998</ele>
        <time>2024-09-17T12:37:20Z</time>
      </trkpt>
      <trkpt lat="52.473515002056956" lon="13.714713966473937">
        <ele>34.259999999999998</ele>
        <time>2024-09-17T12:37:21Z</time>
      </trkpt>
      <trkpt lat="52.473507039248943" lon="13.714885041117668">
        <ele>34.740000000000002</ele>
        <time>2024-09-17T12:37:22Z</time>
      </trkpt>
      <trkpt lat="52.473422968760133" lon="13.716855961829424">
        <ele>36.670000000000002</ele>
        <time>2024-09-17T12:37:33Z</time>
      </trkpt>
      <trkpt lat="52.47333001345396" lon="13.718975996598601">
        <ele>38.109999999999999</ele>
        <time>2024-09-17T12:37:43Z</time>
      </trkpt>
      <trkpt lat="52.473196992650628" lon="13.721413034945726">
        <ele>39.549999999999997</ele>
        <time>2024-09-17T12:37:54Z</time>
      </trkpt>
      <trkpt lat="52.473024995997548" lon="13.725034017115831">
        <ele>42.920000000000002</ele>
        <time>2024-09-17T12:38:09Z</time>
      </trkpt>
      <trkpt lat="52.472861967980862" lon="13.728447966277599">
        <ele>42.439999999999998</ele>
        <time>2024-09-17T12:38:23Z</time>
      </trkpt>
      <trkpt lat="52.472739005461335" lon="13.731352966278791">
        <ele>43.880000000000003</ele>
        <time>2024-09-17T12:38:36Z</time>
      </trkpt>
      <trkpt lat="52.472571032121778" lon="13.734424011781812">
        <ele>44.840000000000003</ele>
        <time>2024-09-17T12:38:49Z</time>
      </trkpt>
      <trkpt lat="52.472395012155175" lon="13.737100018188357">
        <ele>45.32</ele>
        <time>2024-09-17T12:39:01Z</time>
      </trkpt>
      <trkpt lat="52.472224021330476" lon="13.739665970206261">
        <ele>45.32</ele>
        <time>2024-09-17T12:39:12Z</time>
      </trkpt>
      <trkpt lat="52.472141040489078" lon="13.741053007543087">
        <ele>44.840000000000003</ele>
        <time>2024-09-17T12:39:17Z</time>
      </trkpt>
      <trkpt lat="52.472153026610613" lon="13.743834039196372">
        <ele>46.759999999999998</ele>
        <time>2024-09-17T12:39:27Z</time>
      </trkpt>
      <trkpt lat="52.472160989418626" lon="13.745124014094472">
        <ele>48.200000000000003</ele>
        <time>2024-09-17T12:39:33Z</time>
      </trkpt>
      <trkpt lat="52.472161995247006" lon="13.745280001312494">
        <ele>48.200000000000003</ele>
        <time>2024-09-17T12:39:34Z</time>
      </trkpt>
      <trkpt lat="52.472195019945502" lon="13.745805965736508">
        <ele>48.200000000000003</ele>
        <time>2024-09-17T12:39:38Z</time>
      </trkpt>
      <trkpt lat="52.472248999401927" lon="13.746450031176209">
        <ele>48.200000000000003</ele>
        <time>2024-09-17T12:39:44Z</time>
      </trkpt>
      <trkpt lat="52.472248999401927" lon="13.746450031176209">
        <ele>48.200000000000003</ele>
        <time>2024-09-17T12:39:45Z</time>
      </trkpt>
      <trkpt lat="52.472248999401927" lon="13.746450031176209">
        <ele>48.200000000000003</ele>
        <time>2024-09-17T12:39:46Z</time>
      </trkpt>
      <trkpt lat="52.472153026610613" lon="13.746606018394232">
        <ele>48.200000000000003</ele>
        <time>2024-09-17T12:39:47Z</time>
      </trkpt>
      <trkpt lat="52.472075996920466" lon="13.746612975373864">
        <ele>48.200000000000003</ele>
        <time>2024-09-17T12:39:48Z</time>
      </trkpt>
      <trkpt lat="52.471983041614294" lon="13.746620016172528">
        <ele>48.200000000000003</ele>
        <time>2024-09-17T12:39:49Z</time>
      </trkpt>
      <trkpt lat="52.471882039681077" lon="13.746627978980541">
        <ele>48.200000000000003</ele>
        <time>2024-09-17T12:39:50Z</time>
      </trkpt>
      <trkpt lat="52.471771985292435" lon="13.746637031435966">
        <ele>48.200000000000003</ele>
        <time>2024-09-17T12:39:51Z</time>
      </trkpt>
      <trkpt lat="52.470752997323871" lon="13.746720012277365">
        <ele>49.159999999999997</ele>
        <time>2024-09-17T12:39:58Z</time>
      </trkpt>
      <trkpt lat="52.469241991639137" lon="13.746874993667006">
        <ele>49.159999999999997</ele>
        <time>2024-09-17T12:40:06Z</time>
      </trkpt>
      <trkpt lat="52.467328989878297" lon="13.747209012508392">
        <ele>46.759999999999998</ele>
        <time>2024-09-17T12:40:16Z</time>
      </trkpt>
      <trkpt lat="52.466865973547101" lon="13.747280007228255">
        <ele>46.759999999999998</ele>
        <time>2024-09-17T12:40:19Z</time>
      </trkpt>
      <trkpt lat="52.466642009094357" lon="13.747191997244954">
        <ele>47.240000000000002</ele>
        <time>2024-09-17T12:40:21Z</time>
      </trkpt>
      <trkpt lat="52.466558022424579" lon="13.747158972546458">
        <ele>47.719999999999999</ele>
        <time>2024-09-17T12:40:22Z</time>
      </trkpt>
      <trkpt lat="52.466487027704716" lon="13.747130976989865">
        <ele>47.719999999999999</ele>
        <time>2024-09-17T12:40:23Z</time>
      </trkpt>
      <trkpt lat="52.466419972479343" lon="13.747104993090034">
        <ele>47.719999999999999</ele>
        <time>2024-09-17T12:40:24Z</time>
      </trkpt>
      <trkpt lat="52.4663479719311" lon="13.74707599170506">
        <ele>47.719999999999999</ele>
        <time>2024-09-17T12:40:25Z</time>
      </trkpt>
      <trkpt lat="52.466279994696379" lon="13.747051013633609">
        <ele>47.719999999999999</ele>
        <time>2024-09-17T12:40:26Z</time>
      </trkpt>
      <trkpt lat="52.466205982491374" lon="13.747066017240286">
        <ele>48.200000000000003</ele>
        <time>2024-09-17T12:40:27Z</time>
      </trkpt>
      <trkpt lat="52.466128030791879" lon="13.747080015018582">
        <ele>48.200000000000003</ele>
        <time>2024-09-17T12:40:28Z</time>
      </trkpt>
      <trkpt lat="52.465958967804909" lon="13.747113039717078">
        <ele>48.200000000000003</ele>
        <time>2024-09-17T12:40:30Z</time>
      </trkpt>
      <trkpt lat="52.465585973113775" lon="13.74718202278018">
        <ele>48.200000000000003</ele>
        <time>2024-09-17T12:40:34Z</time>
      </trkpt>
      <trkpt lat="52.465307023376226" lon="13.747233990579844">
        <ele>48.200000000000003</ele>
        <time>2024-09-17T12:40:37Z</time>
      </trkpt>
      <trkpt lat="52.464749962091446" lon="13.747337004169822">
        <ele>48.68</ele>
        <time>2024-09-17T12:40:43Z</time>
      </trkpt>
      <trkpt lat="52.464321982115507" lon="13.747510006651282">
        <ele>49.159999999999997</ele>
        <time>2024-09-17T12:40:49Z</time>
      </trkpt>
      <trkpt lat="52.464245036244392" lon="13.747544037178159">
        <ele>49.649999999999999</ele>
        <time>2024-09-17T12:40:50Z</time>
      </trkpt>
      <trkpt lat="52.464245036244392" lon="13.747544037178159">
        <ele>49.649999999999999</ele>
        <time>2024-09-17T12:40:51Z</time>
      </trkpt>
      <trkpt lat="52.464245036244392" lon="13.747544037178159">
        <ele>49.649999999999999</ele>
        <time>2024-09-17T12:40:52Z</time>
      </trkpt>
      <trkpt lat="52.464073039591312" lon="13.747516041621566">
        <ele>49.649999999999999</ele>
        <time>2024-09-17T12:40:53Z</time>
      </trkpt>
      <trkpt lat="52.464052001014352" lon="13.747565997764468">
        <ele>49.649999999999999</ele>
        <time>2024-09-17T12:40:54Z</time>
      </trkpt>
      <trkpt lat="52.463974971324205" lon="13.747692983597517">
        <ele>49.649999999999999</ele>
        <time>2024-09-17T12:40:55Z</time>
      </trkpt>
      <trkpt lat="52.463903976604342" lon="13.747730031609535">
        <ele>49.649999999999999</ele>
        <time>2024-09-17T12:40:56Z</time>
      </trkpt>
      <trkpt lat="52.463839016854763" lon="13.747764984145761">
        <ele>49.649999999999999</ele>
        <time>2024-09-17T12:40:57Z</time>
      </trkpt>
      <trkpt lat="52.463776990771294" lon="13.747798008844256">
        <ele>49.649999999999999</ele>
        <time>2024-09-17T12:40:58Z</time>
      </trkpt>
      <trkpt lat="52.463000994175673" lon="13.748209979385138">
        <ele>47.719999999999999</ele>
        <time>2024-09-17T12:41:08Z</time>
      </trkpt>
      <trkpt lat="52.462209993973374" lon="13.748612981289625">
        <ele>49.159999999999997</ele>
        <time>2024-09-17T12:41:17Z</time>
      </trkpt>
      <trkpt lat="52.46151203289628" lon="13.748964015394449">
        <ele>49.649999999999999</ele>
        <time>2024-09-17T12:41:25Z</time>
      </trkpt>
      <trkpt lat="52.460299003869295" lon="13.749555023387074">
        <ele>48.68</ele>
        <time>2024-09-17T12:41:36Z</time>
      </trkpt>
      <trkpt lat="52.458901992067695" lon="13.750227000564337">
        <ele>48.68</ele>
        <time>2024-09-17T12:41:48Z</time>
      </trkpt>
      <trkpt lat="52.457950981333852" lon="13.75068599358201">
        <ele>48.200000000000003</ele>
        <time>2024-09-17T12:41:57Z</time>
      </trkpt>
      <trkpt lat="52.457688963040709" lon="13.750842986628413">
        <ele>47.719999999999999</ele>
        <time>2024-09-17T12:42:01Z</time>
      </trkpt>
      <trkpt lat="52.457622997462749" lon="13.750881962478161">
        <ele>47.240000000000002</ele>
        <time>2024-09-17T12:42:02Z</time>
      </trkpt>
      <trkpt lat="52.457543034106493" lon="13.750779032707214">
        <ele>47.240000000000002</ele>
        <time>2024-09-17T12:42:03Z</time>
      </trkpt>
      <trkpt lat="52.457419987767935" lon="13.750678030773997">
        <ele>47.240000000000002</ele>
        <time>2024-09-17T12:42:04Z</time>
      </trkpt>
      <trkpt lat="52.457351004704833" lon="13.750719018280506">
        <ele>47.240000000000002</ele>
        <time>2024-09-17T12:42:05Z</time>
      </trkpt>
      <trkpt lat="52.457289984449744" lon="13.750886991620064">
        <ele>47.240000000000002</ele>
        <time>2024-09-17T12:42:06Z</time>
      </trkpt>
      <trkpt lat="52.457271041348577" lon="13.750998973846436">
        <ele>47.240000000000002</ele>
        <time>2024-09-17T12:42:07Z</time>
      </trkpt>
      <trkpt lat="52.457184959203005" lon="13.751037027686834">
        <ele>47.240000000000002</ele>
        <time>2024-09-17T12:42:08Z</time>
      </trkpt>
      <trkpt lat="52.457092003896832" lon="13.751078015193343">
        <ele>47.240000000000002</ele>
        <time>2024-09-17T12:42:09Z</time>
      </trkpt>
      <trkpt lat="52.456991001963615" lon="13.751123026013374">
        <ele>47.240000000000002</ele>
        <time>2024-09-17T12:42:10Z</time>
      </trkpt>
      <trkpt lat="52.45689201168716" lon="13.751167031005025">
        <ele>47.240000000000002</ele>
        <time>2024-09-17T12:42:11Z</time>
      </trkpt>
      <trkpt lat="52.456729989498854" lon="13.751238025724888">
        <ele>46.280000000000001</ele>
        <time>2024-09-17T12:42:13Z</time>
      </trkpt>
      <trkpt lat="52.456123977899551" lon="13.751505995169282">
        <ele>44.359999999999999</ele>
        <time>2024-09-17T12:42:21Z</time>
      </trkpt>
      <trkpt lat="52.456048037856817" lon="13.751540025696158">
        <ele>44.359999999999999</ele>
        <time>2024-09-17T12:42:22Z</time>
      </trkpt>
      <trkpt lat="52.455204986035824" lon="13.751917965710163">
        <ele>42.439999999999998</ele>
        <time>2024-09-17T12:42:33Z</time>
      </trkpt>
      <trkpt lat="52.454697964712977" lon="13.752247039228678">
        <ele>40.990000000000002</ele>
        <time>2024-09-17T12:42:41Z</time>
      </trkpt>
      <trkpt lat="52.454635016620159" lon="13.752288026735187">
        <ele>40.509999999999998</ele>
        <time>2024-09-17T12:42:42Z</time>
      </trkpt>
      <trkpt lat="52.45450702495873" lon="13.752371007576585">
        <ele>40.509999999999998</ele>
        <time>2024-09-17T12:42:44Z</time>
      </trkpt>
      <trkpt lat="52.454438963904977" lon="13.752415012568235">
        <ele>40.509999999999998</ele>
        <time>2024-09-17T12:42:45Z</time>
      </trkpt>
      <trkpt lat="52.454365035519004" lon="13.75244602560997">
        <ele>40.990000000000002</ele>
        <time>2024-09-17T12:42:46Z</time>
      </trkpt>
      <trkpt lat="52.453833036124706" lon="13.752713995054364">
        <ele>42.439999999999998</ele>
        <time>2024-09-17T12:42:54Z</time>
      </trkpt>
      <trkpt lat="52.453789031133056" lon="13.752737967297435">
        <ele>42.439999999999998</ele>
        <time>2024-09-17T12:42:55Z</time>
      </trkpt>
      <trkpt lat="52.453742008656263" lon="13.752764035016298">
        <ele>42.920000000000002</ele>
        <time>2024-09-17T12:42:56Z</time>
      </trkpt>
      <trkpt lat="52.453684005886316" lon="13.752795970067382">
        <ele>42.920000000000002</ele>
        <time>2024-09-17T12:42:57Z</time>
      </trkpt>
      <trkpt lat="52.453617034479976" lon="13.7528330180794">
        <ele>43.399999999999999</ele>
        <time>2024-09-17T12:42:58Z</time>
      </trkpt>
      <trkpt lat="52.453552996739745" lon="13.752867970615625">
        <ele>43.399999999999999</ele>
        <time>2024-09-17T12:42:59Z</time>
      </trkpt>
      <trkpt lat="52.453483007848263" lon="13.752906024456024">
        <ele>43.880000000000003</ele>
        <time>2024-09-17T12:43:00Z</time>
      </trkpt>
      <trkpt lat="52.453358033671975" lon="13.752975007519126">
        <ele>44.359999999999999</ele>
        <time>2024-09-17T12:43:02Z</time>
      </trkpt>
      <trkpt lat="52.453293995931745" lon="13.753009960055351">
        <ele>44.359999999999999</ele>
        <time>2024-09-17T12:43:03Z</time>
      </trkpt>
      <trkpt lat="52.45291898958385" lon="13.753127977252007">
        <ele>45.32</ele>
        <time>2024-09-17T12:43:09Z</time>
      </trkpt>
      <trkpt lat="52.452640039846301" lon="13.753208024427295">
        <ele>46.280000000000001</ele>
        <time>2024-09-17T12:43:14Z</time>
      </trkpt>
      <trkpt lat="52.452568039298058" lon="13.753212969750166">
        <ele>46.759999999999998</ele>
        <time>2024-09-17T12:43:15Z</time>
      </trkpt>
      <trkpt lat="52.452217005193233" lon="13.753230990841985">
        <ele>47.240000000000002</ele>
        <time>2024-09-17T12:43:20Z</time>
      </trkpt>
      <trkpt lat="52.452154979109764" lon="13.753235014155507">
        <ele>47.240000000000002</ele>
        <time>2024-09-17T12:43:21Z</time>
      </trkpt>
      <trkpt lat="52.452092031016946" lon="13.753238031640649">
        <ele>47.719999999999999</ele>
        <time>2024-09-17T12:43:22Z</time>
      </trkpt>
      <trkpt lat="52.452021036297083" lon="13.753241971135139">
        <ele>48.200000000000003</ele>
        <time>2024-09-17T12:43:23Z</time>
      </trkpt>
      <trkpt lat="52.45195004157722" lon="13.753244988620281">
        <ele>48.200000000000003</ele>
        <time>2024-09-17T12:43:24Z</time>
      </trkpt>
      <trkpt lat="52.451883992180228" lon="13.753249011933804">
        <ele>48.200000000000003</ele>
        <time>2024-09-17T12:43:25Z</time>
      </trkpt>
      <trkpt lat="52.451817020773888" lon="13.753252029418945">
        <ele>48.68</ele>
        <time>2024-09-17T12:43:26Z</time>
      </trkpt>
      <trkpt lat="52.451747031882405" lon="13.753257980570197">
        <ele>48.68</ele>
        <time>2024-09-17T12:43:27Z</time>
      </trkpt>
      <trkpt lat="52.451681988313794" lon="13.7532630097121">
        <ele>48.68</ele>
        <time>2024-09-17T12:43:28Z</time>
      </trkpt>
      <trkpt lat="52.451360961422324" lon="13.753288993611932">
        <ele>48.200000000000003</ele>
        <time>2024-09-17T12:43:33Z</time>
      </trkpt>
      <trkpt lat="52.451304970309138" lon="13.753294022753835">
        <ele>48.200000000000003</ele>
        <time>2024-09-17T12:43:34Z</time>
      </trkpt>
      <trkpt lat="52.45111302472651" lon="13.753310032188892">
        <ele>47.719999999999999</ele>
        <time>2024-09-17T12:43:38Z</time>
      </trkpt>
      <trkpt lat="52.451059967279434" lon="13.753313971683383">
        <ele>47.719999999999999</ele>
        <time>2024-09-17T12:43:39Z</time>
      </trkpt>
      <trkpt lat="52.450889982283115" lon="13.753316989168525">
        <ele>47.240000000000002</ele>
        <time>2024-09-17T12:43:42Z</time>
      </trkpt>
      <trkpt lat="52.450822005048394" lon="13.753316989168525">
        <ele>46.759999999999998</ele>
        <time>2024-09-17T12:43:43Z</time>
      </trkpt>
      <trkpt lat="52.450635004788637" lon="13.753316989168525">
        <ele>46.280000000000001</ele>
        <time>2024-09-17T12:43:46Z</time>
      </trkpt>
      <trkpt lat="52.450578007847071" lon="13.753316989168525">
        <ele>46.280000000000001</ele>
        <time>2024-09-17T12:43:47Z</time>
      </trkpt>
      <trkpt lat="52.450526962056756" lon="13.753316989168525">
        <ele>45.799999999999997</ele>
        <time>2024-09-17T12:43:48Z</time>
      </trkpt>
      <trkpt lat="52.450444987043738" lon="13.753316989168525">
        <ele>45.32</ele>
        <time>2024-09-17T12:43:55Z</time>
      </trkpt>
      <trkpt lat="52.450368041172624" lon="13.753316989168525">
        <ele>44.840000000000003</ele>
        <time>2024-09-17T12:43:58Z</time>
      </trkpt>
      <trkpt lat="52.45029604062438" lon="13.753323024138808">
        <ele>44.840000000000003</ele>
        <time>2024-09-17T12:43:59Z</time>
      </trkpt>
      <trkpt lat="52.450273996219039" lon="13.753410028293729">
        <ele>44.840000000000003</ele>
        <time>2024-09-17T12:44:00Z</time>
      </trkpt>
      <trkpt lat="52.450250023975968" lon="13.753508012741804">
        <ele>44.840000000000003</ele>
        <time>2024-09-17T12:44:01Z</time>
      </trkpt>
      <trkpt lat="52.450224040076137" lon="13.753610020503402">
        <ele>44.840000000000003</ele>
        <time>2024-09-17T12:44:02Z</time>
      </trkpt>
      <trkpt lat="52.450049025937915" lon="13.754433039575815">
        <ele>43.399999999999999</ele>
        <time>2024-09-17T12:44:09Z</time>
      </trkpt>
      <trkpt lat="52.449927991256118" lon="13.75532696954906">
        <ele>42.439999999999998</ele>
        <time>2024-09-17T12:44:16Z</time>
      </trkpt>
      <trkpt lat="52.449921034276485" lon="13.75545303337276">
        <ele>42.439999999999998</ele>
        <time>2024-09-17T12:44:17Z</time>
      </trkpt>
      <trkpt lat="52.449912987649441" lon="13.755575995892286">
        <ele>41.950000000000003</ele>
        <time>2024-09-17T12:44:18Z</time>
      </trkpt>
      <trkpt lat="52.449985994026065" lon="13.756075976416469">
        <ele>39.549999999999997</ele>
        <time>2024-09-17T12:44:22Z</time>
      </trkpt>
      <trkpt lat="52.45006101205945" lon="13.756542010232806">
        <ele>37.630000000000003</ele>
        <time>2024-09-17T12:44:25Z</time>
      </trkpt>
      <trkpt lat="52.450078027322888" lon="13.756648041307926">
        <ele>37.630000000000003</ele>
        <time>2024-09-17T12:44:26Z</time>
      </trkpt>
      <trkpt lat="52.449998985975981" lon="13.756835963577032">
        <ele>37.630000000000003</ele>
        <time>2024-09-17T12:44:27Z</time>
      </trkpt>
      <trkpt lat="52.449950035661459" lon="13.756847027689219">
        <ele>37.630000000000003</ele>
        <time>2024-09-17T12:44:28Z</time>
      </trkpt>
      <trkpt lat="52.449874011799693" lon="13.756863037124276">
        <ele>37.149999999999999</ele>
        <time>2024-09-17T12:44:29Z</time>
      </trkpt>
      <trkpt lat="52.449773009866476" lon="13.756883991882205">
        <ele>37.149999999999999</ele>
        <time>2024-09-17T12:44:30Z</time>
      </trkpt>
      <trkpt lat="52.449651975184679" lon="13.756898995488882">
        <ele>37.149999999999999</ele>
        <time>2024-09-17T12:44:31Z</time>
      </trkpt>
      <trkpt lat="52.448874972760677" lon="13.756879968568683">
        <ele>36.189999999999998</ele>
        <time>2024-09-17T12:44:39Z</time>
      </trkpt>
      <trkpt lat="52.448349008336663" lon="13.756819032132626">
        <ele>36.189999999999998</ele>
        <time>2024-09-17T12:44:45Z</time>
      </trkpt>
      <trkpt lat="52.44825697503984" lon="13.756806962192059">
        <ele>36.189999999999998</ele>
        <time>2024-09-17T12:44:46Z</time>
      </trkpt>
      <trkpt lat="52.447923962026834" lon="13.756779972463846">
        <ele>35.229999999999997</ele>
        <time>2024-09-17T12:44:50Z</time>
      </trkpt>
      <trkpt lat="52.44784701615572" lon="13.756776032969356">
        <ele>34.740000000000002</ele>
        <time>2024-09-17T12:44:51Z</time>
      </trkpt>
      <trkpt lat="52.446638010442257" lon="13.756791958585382">
        <ele>32.82</ele>
        <time>2024-09-17T12:45:05Z</time>
      </trkpt>
      <trkpt lat="52.446555029600859" lon="13.756753988564014">
        <ele>32.82</ele>
        <time>2024-09-17T12:45:06Z</time>
      </trkpt>
      <trkpt lat="52.446476994082332" lon="13.756713001057506">
        <ele>33.299999999999997</ele>
        <time>2024-09-17T12:45:07Z</time>
      </trkpt>
      <trkpt lat="52.446398958563805" lon="13.756672013550997">
        <ele>33.299999999999997</ele>
        <time>2024-09-17T12:45:08Z</time>
      </trkpt>
      <trkpt lat="52.446315977722406" lon="13.756629014387727">
        <ele>33.299999999999997</ele>
        <time>2024-09-17T12:45:09Z</time>
      </trkpt>
      <trkpt lat="52.446153033524752" lon="13.756556008011103">
        <ele>33.299999999999997</ele>
        <time>2024-09-17T12:45:11Z</time>
      </trkpt>
      <trkpt lat="52.446066029369831" lon="13.756527006626129">
        <ele>33.299999999999997</ele>
        <time>2024-09-17T12:45:12Z</time>
      </trkpt>
      <trkpt lat="52.445977013558149" lon="13.756496999412775">
        <ele>33.299999999999997</ele>
        <time>2024-09-17T12:45:13Z</time>
      </trkpt>
      <trkpt lat="52.445889003574848" lon="13.756471015512943">
        <ele>32.82</ele>
        <time>2024-09-17T12:45:14Z</time>
      </trkpt>
      <trkpt lat="52.445794958621264" lon="13.756471015512943">
        <ele>32.82</ele>
        <time>2024-09-17T12:45:15Z</time>
      </trkpt>
      <trkpt lat="52.445696974173188" lon="13.756471015512943">
        <ele>32.340000000000003</ele>
        <time>2024-09-17T12:45:16Z</time>
      </trkpt>
      <trkpt lat="52.444553012028337" lon="13.756716018542647">
        <ele>28.98</ele>
        <time>2024-09-17T12:45:26Z</time>
      </trkpt>
      <trkpt lat="52.443317016586661" lon="13.756931014358997">
        <ele>30.420000000000002</ele>
        <time>2024-09-17T12:45:37Z</time>
      </trkpt>
      <trkpt lat="52.442536996677518" lon="13.756796987727284">
        <ele>30.420000000000002</ele>
        <time>2024-09-17T12:45:45Z</time>
      </trkpt>
      <trkpt lat="52.441524965688586" lon="13.7563990149647">
        <ele>28.98</ele>
        <time>2024-09-17T12:45:54Z</time>
      </trkpt>
      <trkpt lat="52.440504971891642" lon="13.755984026938677">
        <ele>28.02</ele>
        <time>2024-09-17T12:46:03Z</time>
      </trkpt>
      <trkpt lat="52.439925028011203" lon="13.755768025293946">
        <ele>28.02</ele>
        <time>2024-09-17T12:46:08Z</time>
      </trkpt>
      <trkpt lat="52.438762960955501" lon="13.755336022004485">
        <ele>32.82</ele>
        <time>2024-09-17T12:46:18Z</time>
      </trkpt>
      <trkpt lat="52.437694016844034" lon="13.754934025928378">
        <ele>39.549999999999997</ele>
        <time>2024-09-17T12:46:27Z</time>
      </trkpt>
      <trkpt lat="52.436835961416364" lon="13.754634037613869">
        <ele>38.590000000000003</ele>
        <time>2024-09-17T12:46:36Z</time>
      </trkpt>
      <trkpt lat="52.436587018892169" lon="13.754544015973806">
        <ele>38.109999999999999</ele>
        <time>2024-09-17T12:46:39Z</time>
      </trkpt>
      <trkpt lat="52.435630979016423" lon="13.754198011010885">
        <ele>37.149999999999999</ele>
        <time>2024-09-17T12:46:48Z</time>
      </trkpt>
      <trkpt lat="52.434488022699952" lon="13.753771958872676">
        <ele>36.189999999999998</ele>
        <time>2024-09-17T12:46:58Z</time>
      </trkpt>
      <trkpt lat="52.433473980054259" lon="13.753372980281711">
        <ele>37.149999999999999</ele>
        <time>2024-09-17T12:47:07Z</time>
      </trkpt>
      <trkpt lat="52.432460021227598" lon="13.7529849819839">
        <ele>37.149999999999999</ele>
        <time>2024-09-17T12:47:16Z</time>
      </trkpt>
      <trkpt lat="52.431198041886091" lon="13.752535963431001">
        <ele>36.189999999999998</ele>
        <time>2024-09-17T12:47:27Z</time>
      </trkpt>
      <trkpt lat="52.430369993671775" lon="13.75227402895689">
        <ele>36.189999999999998</ele>
        <time>2024-09-17T12:47:36Z</time>
      </trkpt>
      <trkpt lat="52.430285001173615" lon="13.75225399620831">
        <ele>36.189999999999998</ele>
        <time>2024-09-17T12:47:37Z</time>
      </trkpt>
      <trkpt lat="52.430202020332217" lon="13.752236980944872">
        <ele>36.189999999999998</ele>
        <time>2024-09-17T12:47:38Z</time>
      </trkpt>
      <trkpt lat="52.430119961500168" lon="13.752222983166575">
        <ele>36.189999999999998</ele>
        <time>2024-09-17T12:47:39Z</time>
      </trkpt>
      <trkpt lat="52.430034969002008" lon="13.752229018136859">
        <ele>36.189999999999998</ele>
        <time>2024-09-17T12:47:40Z</time>
      </trkpt>
      <trkpt lat="52.429955005645752" lon="13.75223396345973">
        <ele>35.710000000000001</ele>
        <time>2024-09-17T12:47:41Z</time>
      </trkpt>
      <trkpt lat="52.428996032103896" lon="13.75249195843935">
        <ele>32.340000000000003</ele>
        <time>2024-09-17T12:47:53Z</time>
      </trkpt>
      <trkpt lat="52.428247025236487" lon="13.752670995891094">
        <ele>28.98</ele>
        <time>2024-09-17T12:48:02Z</time>
      </trkpt>
      <trkpt lat="52.428177036345005" lon="13.752635959535837">
        <ele>28.98</ele>
        <time>2024-09-17T12:48:03Z</time>
      </trkpt>
      <trkpt lat="52.428120039403439" lon="13.752583991736174">
        <ele>28.5</ele>
        <time>2024-09-17T12:48:04Z</time>
      </trkpt>
      <trkpt lat="52.428067987784743" lon="13.752536969259381">
        <ele>28.02</ele>
        <time>2024-09-17T12:48:05Z</time>
      </trkpt>
      <trkpt lat="52.428027000278234" lon="13.752500005066395">
        <ele>27.530000000000001</ele>
        <time>2024-09-17T12:48:06Z</time>
      </trkpt>
      <trkpt lat="52.427999004721642" lon="13.752474021166563">
        <ele>27.050000000000001</ele>
        <time>2024-09-17T12:48:07Z</time>
      </trkpt>
      <trkpt lat="52.427904037758708" lon="13.752356003969908">
        <ele>24.649999999999999</ele>
        <time>2024-09-17T12:48:15Z</time>
      </trkpt>
      <trkpt lat="52.427788032218814" lon="13.752201022580266">
        <ele>21.77</ele>
        <time>2024-09-17T12:48:25Z</time>
      </trkpt>
      <trkpt lat="52.427788032218814" lon="13.752201022580266">
        <ele>21.77</ele>
        <time>2024-09-17T12:48:43Z</time>
      </trkpt>
      <trkpt lat="52.427660040557384" lon="13.752029025927186">
        <ele>19.84</ele>
        <time>2024-09-17T12:49:01Z</time>
      </trkpt>
      <trkpt lat="52.427548980340362" lon="13.751882007345557">
        <ele>21.289999999999999</ele>
        <time>2024-09-17T12:49:10Z</time>
      </trkpt>
      <trkpt lat="52.427385030314326" lon="13.751667011529207">
        <ele>26.57</ele>
        <time>2024-09-17T12:49:21Z</time>
      </trkpt>
      <trkpt lat="52.427299031987786" lon="13.751557040959597">
        <ele>28.5</ele>
        <time>2024-09-17T12:49:36Z</time>
      </trkpt>
      <trkpt lat="52.42707003839314" lon="13.751261997967958">
        <ele>32.340000000000003</ele>
        <time>2024-09-17T12:49:47Z</time>
      </trkpt>
      <trkpt lat="52.426894018426538" lon="13.750994028523564">
        <ele>32.82</ele>
        <time>2024-09-17T12:49:54Z</time>
      </trkpt>
      <trkpt lat="52.426869040355086" lon="13.750953041017056">
        <ele>32.82</ele>
        <time>2024-09-17T12:49:55Z</time>
      </trkpt>
      <trkpt lat="52.426850013434887" lon="13.750922027975321">
        <ele>32.82</ele>
        <time>2024-09-17T12:49:56Z</time>
      </trkpt>
      <trkpt lat="52.426866022869945" lon="13.750720024108887">
        <ele>33.780000000000001</ele>
        <time>2024-09-17T12:50:00Z</time>
      </trkpt>
      <trkpt lat="52.426877003163099" lon="13.75068599358201">
        <ele>33.780000000000001</ele>
        <time>2024-09-17T12:50:01Z</time>
      </trkpt>
      <trkpt lat="52.426898963749409" lon="13.750621033832431">
        <ele>33.780000000000001</ele>
        <time>2024-09-17T12:50:02Z</time>
      </trkpt>
      <trkpt lat="52.426891000941396" lon="13.75053402967751">
        <ele>33.780000000000001</ele>
        <time>2024-09-17T12:50:03Z</time>
      </trkpt>
      <trkpt lat="52.426870968192816" lon="13.750465968623757">
        <ele>34.259999999999998</ele>
        <time>2024-09-17T12:50:04Z</time>
      </trkpt>
      <trkpt lat="52.426848001778126" lon="13.750390028581023">
        <ele>34.259999999999998</ele>
        <time>2024-09-17T12:50:05Z</time>
      </trkpt>
      <trkpt lat="52.426785975694656" lon="13.750369995832443">
        <ele>34.259999999999998</ele>
        <time>2024-09-17T12:50:06Z</time>
      </trkpt>
      <trkpt lat="52.42672897875309" lon="13.75036203302443">
        <ele>34.259999999999998</ele>
        <time>2024-09-17T12:50:07Z</time>
      </trkpt>
      <trkpt lat="52.426674999296665" lon="13.750355998054147">
        <ele>34.259999999999998</ele>
        <time>2024-09-17T12:50:08Z</time>
      </trkpt>
      <trkpt lat="52.426652032881975" lon="13.750416012480855">
        <ele>34.259999999999998</ele>
        <time>2024-09-17T12:50:09Z</time>
      </trkpt>
      <trkpt lat="52.426634011790156" lon="13.75047099776566">
        <ele>34.259999999999998</ele>
        <time>2024-09-17T12:50:10Z</time>
      </trkpt>
      <trkpt lat="52.426561005413532" lon="13.750553978607059">
        <ele>34.259999999999998</ele>
        <time>2024-09-17T12:50:11Z</time>
      </trkpt>
      <trkpt lat="52.426512977108359" lon="13.750559007748961">
        <ele>34.259999999999998</ele>
        <time>2024-09-17T12:50:12Z</time>
      </trkpt>
      <trkpt lat="52.426452040672302" lon="13.750565964728594">
        <ele>33.780000000000001</ele>
        <time>2024-09-17T12:50:13Z</time>
      </trkpt>
      <trkpt lat="52.426380962133408" lon="13.750574011355639">
        <ele>33.780000000000001</ele>
        <time>2024-09-17T12:50:14Z</time>
      </trkpt>
      <trkpt lat="52.426303010433912" lon="13.750581974163651">
        <ele>33.780000000000001</ele>
        <time>2024-09-17T12:50:15Z</time>
      </trkpt>
      <trkpt lat="52.426226986572146" lon="13.750591026619077">
        <ele>33.299999999999997</ele>
        <time>2024-09-17T12:50:16Z</time>
      </trkpt>
      <trkpt lat="52.426164038479328" lon="13.750633019953966">
        <ele>33.780000000000001</ele>
        <time>2024-09-17T12:50:17Z</time>
      </trkpt>
      <trkpt lat="52.426098994910717" lon="13.750679036602378">
        <ele>33.780000000000001</ele>
        <time>2024-09-17T12:50:18Z</time>
      </trkpt>
      <trkpt lat="52.426037974655628" lon="13.750729998573661">
        <ele>34.259999999999998</ele>
        <time>2024-09-17T12:50:19Z</time>
      </trkpt>
      <trkpt lat="52.425354011356831" lon="13.751443969085813">
        <ele>35.710000000000001</ele>
        <time>2024-09-17T12:50:30Z</time>
      </trkpt>
      <trkpt lat="52.425232976675034" lon="13.751582019031048">
        <ele>35.710000000000001</ele>
        <time>2024-09-17T12:50:32Z</time>
      </trkpt>
      <trkpt lat="52.425173968076706" lon="13.751648990437388">
        <ele>35.229999999999997</ele>
        <time>2024-09-17T12:50:33Z</time>
      </trkpt>
      <trkpt lat="52.425112025812268" lon="13.751718979328871">
        <ele>34.740000000000002</ele>
        <time>2024-09-17T12:50:34Z</time>
      </trkpt>
      <trkpt lat="52.425051005557179" lon="13.751784022897482">
        <ele>34.259999999999998</ele>
        <time>2024-09-17T12:50:35Z</time>
      </trkpt>
      <trkpt lat="52.424989985302091" lon="13.751844959333539">
        <ele>33.780000000000001</ele>
        <time>2024-09-17T12:50:36Z</time>
      </trkpt>
      <trkpt lat="52.424533003941178" lon="13.752247961238027">
        <ele>30.420000000000002</ele>
        <time>2024-09-17T12:50:44Z</time>
      </trkpt>
      <trkpt lat="52.424483969807625" lon="13.752287020906806">
        <ele>30.420000000000002</ele>
        <time>2024-09-17T12:50:45Z</time>
      </trkpt>
      <trkpt lat="52.424415992572904" lon="13.75231702812016">
        <ele>29.940000000000001</ele>
        <time>2024-09-17T12:50:46Z</time>
      </trkpt>
      <trkpt lat="52.424217006191611" lon="13.752405038103461">
        <ele>29.460000000000001</ele>
        <time>2024-09-17T12:50:49Z</time>
      </trkpt>
      <trkpt lat="52.424156991764903" lon="13.752432027831674">
        <ele>28.98</ele>
        <time>2024-09-17T12:50:50Z</time>
      </trkpt>
      <trkpt lat="52.424096977338195" lon="13.752459017559886">
        <ele>28.98</ele>
        <time>2024-09-17T12:50:51Z</time>
      </trkpt>
      <trkpt lat="52.423872007057071" lon="13.752545015886426">
        <ele>28.5</ele>
        <time>2024-09-17T12:50:55Z</time>
      </trkpt>
      <trkpt lat="52.423819033429027" lon="13.752565970644355">
        <ele>28.5</ele>
        <time>2024-09-17T12:50:56Z</time>
      </trkpt>
      <trkpt lat="52.423580987378955" lon="13.75266102142632">
        <ele>28.02</ele>
        <time>2024-09-17T12:51:01Z</time>
      </trkpt>
      <trkpt lat="52.423306982964277" lon="13.752773003652692">
        <ele>27.050000000000001</ele>
        <time>2024-09-17T12:51:07Z</time>
      </trkpt>
      <trkpt lat="52.423157030716538" lon="13.752837963402271">
        <ele>28.02</ele>
        <time>2024-09-17T12:51:13Z</time>
      </trkpt>
      <trkpt lat="52.42311897687614" lon="13.752854978665709">
        <ele>27.530000000000001</ele>
        <time>2024-09-17T12:51:14Z</time>
      </trkpt>
      <trkpt lat="52.423067009076476" lon="13.752877023071051">
        <ele>27.530000000000001</ele>
        <time>2024-09-17T12:51:22Z</time>
      </trkpt>
      <trkpt lat="52.422768026590347" lon="13.753007026389241">
        <ele>26.09</ele>
        <time>2024-09-17T12:51:29Z</time>
      </trkpt>
      <trkpt lat="52.422422021627426" lon="13.75315697863698">
        <ele>27.530000000000001</ele>
        <time>2024-09-17T12:51:38Z</time>
      </trkpt>
      <trkpt lat="52.422371981665492" lon="13.753179023042321">
        <ele>28.02</ele>
        <time>2024-09-17T12:51:39Z</time>
      </trkpt>
      <trkpt lat="52.422319008037448" lon="13.753201989457011">
        <ele>28.02</ele>
        <time>2024-09-17T12:51:40Z</time>
      </trkpt>
      <trkpt lat="52.421996975317597" lon="13.753332998603582">
        <ele>29.940000000000001</ele>
        <time>2024-09-17T12:51:50Z</time>
      </trkpt>
      <trkpt lat="52.421862026676536" lon="13.753391001373529">
        <ele>30.899999999999999</ele>
        <time>2024-09-17T12:51:59Z</time>
      </trkpt>
      <trkpt lat="52.421798994764686" lon="13.753420002758503">
        <ele>30.420000000000002</ele>
        <time>2024-09-17T12:52:00Z</time>
      </trkpt>
      <trkpt lat="52.421048982068896" lon="13.753745974972844">
        <ele>31.859999999999999</ele>
        <time>2024-09-17T12:52:11Z</time>
      </trkpt>
      <trkpt lat="52.420988967642188" lon="13.753768019378185">
        <ele>32.340000000000003</ele>
        <time>2024-09-17T12:52:12Z</time>
      </trkpt>
      <trkpt lat="52.42092702537775" lon="13.753789979964495">
        <ele>32.82</ele>
        <time>2024-09-17T12:52:13Z</time>
      </trkpt>
      <trkpt lat="52.420795010402799" lon="13.753840019926429">
        <ele>33.299999999999997</ele>
        <time>2024-09-17T12:52:15Z</time>
      </trkpt>
      <trkpt lat="52.420013984665275" lon="13.754160040989518">
        <ele>32.340000000000003</ele>
        <time>2024-09-17T12:52:25Z</time>
      </trkpt>
      <trkpt lat="52.419951036572456" lon="13.754193987697363">
        <ele>31.859999999999999</ele>
        <time>2024-09-17T12:52:26Z</time>
      </trkpt>
      <trkpt lat="52.41989403963089" lon="13.754223994910717">
        <ele>31.379999999999999</ele>
        <time>2024-09-17T12:52:27Z</time>
      </trkpt>
      <trkpt lat="52.419841988012195" lon="13.75425199046731">
        <ele>30.899999999999999</ele>
        <time>2024-09-17T12:52:28Z</time>
      </trkpt>
      <trkpt lat="52.419792031869292" lon="13.754277974367142">
        <ele>29.940000000000001</ele>
        <time>2024-09-17T12:52:29Z</time>
      </trkpt>
      <trkpt lat="52.419698992744088" lon="13.754110001027584">
        <ele>29.460000000000001</ele>
        <time>2024-09-17T12:52:30Z</time>
      </trkpt>
      <trkpt lat="52.419669991359115" lon="13.754104971885681">
        <ele>28.98</ele>
        <time>2024-09-17T12:52:31Z</time>
      </trkpt>
      <trkpt lat="52.419605031609535" lon="13.754091979935765">
        <ele>28.5</ele>
        <time>2024-09-17T12:52:32Z</time>
      </trkpt>
      <trkpt lat="52.419475028291345" lon="13.754065996035933">
        <ele>27.530000000000001</ele>
        <time>2024-09-17T12:52:34Z</time>
      </trkpt>
      <trkpt lat="52.419408978894353" lon="13.754053004086018">
        <ele>26.57</ele>
        <time>2024-09-17T12:52:35Z</time>
      </trkpt>
      <trkpt lat="52.419327003881335" lon="13.754145037382841">
        <ele>26.09</ele>
        <time>2024-09-17T12:52:36Z</time>
      </trkpt>
      <trkpt lat="52.419302025809884" lon="13.754195999354124">
        <ele>25.129999999999999</ele>
        <time>2024-09-17T12:52:38Z</time>
      </trkpt>
      <trkpt lat="52.419290961697698" lon="13.754217959940434">
        <ele>24.649999999999999</ele>
        <time>2024-09-17T12:52:41Z</time>
      </trkpt>
      <trkpt lat="52.419241005554795" lon="13.754228018224239">
        <ele>24.649999999999999</ele>
        <time>2024-09-17T12:52:42Z</time>
      </trkpt>
      <trkpt lat="52.419191971421242" lon="13.754237992689013">
        <ele>24.649999999999999</ele>
        <time>2024-09-17T12:52:43Z</time>
      </trkpt>
      <trkpt lat="52.419125000014901" lon="13.754233969375491">
        <ele>24.649999999999999</ele>
        <time>2024-09-17T12:52:44Z</time>
      </trkpt>
      <trkpt lat="52.419051993638277" lon="13.754227012395859">
        <ele>24.649999999999999</ele>
        <time>2024-09-17T12:52:45Z</time>
      </trkpt>
      <trkpt lat="52.418978987261653" lon="13.754220977425575">
        <ele>24.170000000000002</ele>
        <time>2024-09-17T12:52:46Z</time>
      </trkpt>
      <trkpt lat="52.418243978172541" lon="13.754177978262305">
        <ele>25.609999999999999</ele>
        <time>2024-09-17T12:52:56Z</time>
      </trkpt>
      <trkpt lat="52.417760007083416" lon="13.754236986860633">
        <ele>27.530000000000001</ele>
        <time>2024-09-17T12:53:03Z</time>
      </trkpt>
      <trkpt lat="52.417691024020314" lon="13.754244027659297">
        <ele>28.02</ele>
        <time>2024-09-17T12:53:04Z</time>
      </trkpt>
      <trkpt lat="52.417479967698455" lon="13.754260959103703">
        <ele>29.940000000000001</ele>
        <time>2024-09-17T12:53:08Z</time>
      </trkpt>
      <trkpt lat="52.417318029329181" lon="13.754291972145438">
        <ele>30.899999999999999</ele>
        <time>2024-09-17T12:53:12Z</time>
      </trkpt>
      <trkpt lat="52.417272012680769" lon="13.754316028207541">
        <ele>31.379999999999999</ele>
        <time>2024-09-17T12:53:13Z</time>
      </trkpt>
      <trkpt lat="52.416944028809667" lon="13.754433961585164">
        <ele>32.82</ele>
        <time>2024-09-17T12:53:19Z</time>
      </trkpt>
      <trkpt lat="52.416892983019352" lon="13.75444401986897">
        <ele>32.82</ele>
        <time>2024-09-17T12:53:20Z</time>
      </trkpt>
      <trkpt lat="52.416776977479458" lon="13.754431027919054">
        <ele>32.82</ele>
        <time>2024-09-17T12:53:22Z</time>
      </trkpt>
      <trkpt lat="52.416595006361604" lon="13.754355004057288">
        <ele>32.82</ele>
        <time>2024-09-17T12:53:25Z</time>
      </trkpt>
      <trkpt lat="52.416318990290165" lon="13.754228018224239">
        <ele>32.340000000000003</ele>
        <time>2024-09-17T12:53:29Z</time>
      </trkpt>
      <trkpt lat="52.416251013055444" lon="13.754195999354124">
        <ele>32.340000000000003</ele>
        <time>2024-09-17T12:53:30Z</time>
      </trkpt>
      <trkpt lat="52.415858991444111" lon="13.754006987437606">
        <ele>32.340000000000003</ele>
        <time>2024-09-17T12:53:35Z</time>
      </trkpt>
      <trkpt lat="52.415781961753964" lon="13.753970023244619">
        <ele>32.340000000000003</ele>
        <time>2024-09-17T12:53:36Z</time>
      </trkpt>
      <trkpt lat="52.414990039542317" lon="13.753574984148145">
        <ele>30.420000000000002</ele>
        <time>2024-09-17T12:53:46Z</time>
      </trkpt>
      <trkpt lat="52.41491099819541" lon="13.753533996641636">
        <ele>30.420000000000002</ele>
        <time>2024-09-17T12:53:47Z</time>
      </trkpt>
      <trkpt lat="52.414837991818786" lon="13.753496026620269">
        <ele>29.940000000000001</ele>
        <time>2024-09-17T12:53:48Z</time>
      </trkpt>
      <trkpt lat="52.414770014584064" lon="13.753460990265012">
        <ele>29.460000000000001</ele>
        <time>2024-09-17T12:53:49Z</time>
      </trkpt>
      <trkpt lat="52.414699019864202" lon="13.753424026072025">
        <ele>28.5</ele>
        <time>2024-09-17T12:53:50Z</time>
      </trkpt>
      <trkpt lat="52.414634982123971" lon="13.753389995545149">
        <ele>28.02</ele>
        <time>2024-09-17T12:53:51Z</time>
      </trkpt>
      <trkpt lat="52.414560969918966" lon="13.753353031352162">
        <ele>27.530000000000001</ele>
        <time>2024-09-17T12:53:52Z</time>
      </trkpt>
      <trkpt lat="52.413932997733355" lon="13.753029992803931">
        <ele>24.649999999999999</ele>
        <time>2024-09-17T12:54:00Z</time>
      </trkpt>
      <trkpt lat="52.413843981921673" lon="13.7529849819839">
        <ele>25.129999999999999</ele>
        <time>2024-09-17T12:54:01Z</time>
      </trkpt>
      <trkpt lat="52.412922978401184" lon="13.752549961209297">
        <ele>28.5</ele>
        <time>2024-09-17T12:54:10Z</time>
      </trkpt>
      <trkpt lat="52.411823021247983" lon="13.752002036198974">
        <ele>29.460000000000001</ele>
        <time>2024-09-17T12:54:19Z</time>
      </trkpt>
      <trkpt lat="52.410810990259051" lon="13.751475987955928">
        <ele>31.859999999999999</ele>
        <time>2024-09-17T12:54:28Z</time>
      </trkpt>
      <trkpt lat="52.409688988700509" lon="13.750915993005037">
        <ele>29.460000000000001</ele>
        <time>2024-09-17T12:54:38Z</time>
      </trkpt>
      <trkpt lat="52.408354002982378" lon="13.750262036919594">
        <ele>27.050000000000001</ele>
        <time>2024-09-17T12:54:50Z</time>
      </trkpt>
      <trkpt lat="52.407340966165066" lon="13.749786028638482">
        <ele>28.02</ele>
        <time>2024-09-17T12:54:59Z</time>
      </trkpt>
      <trkpt lat="52.407233007252216" lon="13.74973900616169">
        <ele>27.530000000000001</ele>
        <time>2024-09-17T12:55:00Z</time>
      </trkpt>
      <trkpt lat="52.40683302283287" lon="13.749563992023468">
        <ele>27.050000000000001</ele>
        <time>2024-09-17T12:55:07Z</time>
      </trkpt>
      <trkpt lat="52.406803015619516" lon="13.749551000073552">
        <ele>27.050000000000001</ele>
        <time>2024-09-17T12:55:14Z</time>
      </trkpt>
      <trkpt lat="52.406772002577782" lon="13.749537002295256">
        <ele>26.57</ele>
        <time>2024-09-17T12:55:15Z</time>
      </trkpt>
      <trkpt lat="52.406669994816184" lon="13.749492997303605">
        <ele>26.57</ele>
        <time>2024-09-17T12:55:17Z</time>
      </trkpt>
      <trkpt lat="52.406606962904334" lon="13.749465001747012">
        <ele>26.57</ele>
        <time>2024-09-17T12:55:18Z</time>
      </trkpt>
      <trkpt lat="52.4065310228616" lon="13.749432982876897">
        <ele>26.57</ele>
        <time>2024-09-17T12:55:19Z</time>
      </trkpt>
      <trkpt lat="52.405662992969155" lon="13.749057976529002">
        <ele>26.57</ele>
        <time>2024-09-17T12:55:27Z</time>
      </trkpt>
      <trkpt lat="52.404391961172223" lon="13.748512985184789">
        <ele>26.57</ele>
        <time>2024-09-17T12:55:35Z</time>
      </trkpt>
      <trkpt lat="52.402908029034734" lon="13.747879983857274">
        <ele>26.57</ele>
        <time>2024-09-17T12:55:44Z</time>
      </trkpt>
      <trkpt lat="52.402561018243432" lon="13.747733971104026">
        <ele>26.09</ele>
        <time>2024-09-17T12:55:46Z</time>
      </trkpt>
      <trkpt lat="52.402390027418733" lon="13.747663982212543">
        <ele>25.129999999999999</ele>
        <time>2024-09-17T12:55:47Z</time>
      </trkpt>
      <trkpt lat="52.402221970260143" lon="13.747598016634583">
        <ele>24.649999999999999</ele>
        <time>2024-09-17T12:55:48Z</time>
      </trkpt>
      <trkpt lat="52.401060992851853" lon="13.747195014730096">
        <ele>20.809999999999999</ele>
        <time>2024-09-17T12:55:55Z</time>
      </trkpt>
      <trkpt lat="52.400737032294273" lon="13.747228039428592">
        <ele>19.84</ele>
        <time>2024-09-17T12:55:57Z</time>
      </trkpt>
      <trkpt lat="52.39959298633039" lon="13.747535990551114">
        <ele>17.440000000000001</ele>
        <time>2024-09-17T12:56:04Z</time>
      </trkpt>
      <trkpt lat="52.399001978337765" lon="13.747712010517716">
        <ele>16.960000000000001</ele>
        <time>2024-09-17T12:56:08Z</time>
      </trkpt>
      <trkpt lat="52.398852026090026" lon="13.747757021337748">
        <ele>16</ele>
        <time>2024-09-17T12:56:09Z</time>
      </trkpt>
      <trkpt lat="52.397564984858036" lon="13.747924994677305">
        <ele>16</ele>
        <time>2024-09-17T12:56:18Z</time>
      </trkpt>
      <trkpt lat="52.397115966305137" lon="13.747950978577137">
        <ele>15.52</ele>
        <time>2024-09-17T12:56:21Z</time>
      </trkpt>
      <trkpt lat="52.396636018529534" lon="13.747977968305349">
        <ele>15.039999999999999</ele>
        <time>2024-09-17T12:56:24Z</time>
      </trkpt>
      <trkpt lat="52.396466033533216" lon="13.747987020760775">
        <ele>15.039999999999999</ele>
        <time>2024-09-17T12:56:25Z</time>
      </trkpt>
      <trkpt lat="52.395824985578656" lon="13.747873026877642">
        <ele>15.039999999999999</ele>
        <time>2024-09-17T12:56:29Z</time>
      </trkpt>
      <trkpt lat="52.395661035552621" lon="13.747804965823889">
        <ele>15.039999999999999</ele>
        <time>2024-09-17T12:56:30Z</time>
      </trkpt>
      <trkpt lat="52.395512005314231" lon="13.747690971940756">
        <ele>14.56</ele>
        <time>2024-09-17T12:56:31Z</time>
      </trkpt>
      <trkpt lat="52.39536196924746" lon="13.747541019693017">
        <ele>14.56</ele>
        <time>2024-09-17T12:56:32Z</time>
      </trkpt>
      <trkpt lat="52.39520899951458" lon="13.747387966141105">
        <ele>14.08</ele>
        <time>2024-09-17T12:56:33Z</time>
      </trkpt>
      <trkpt lat="52.39506097510457" lon="13.747208006680012">
        <ele>13.6</ele>
        <time>2024-09-17T12:56:34Z</time>
      </trkpt>
      <trkpt lat="52.394261006265879" lon="13.746037976816297">
        <ele>14.08</ele>
        <time>2024-09-17T12:56:40Z</time>
      </trkpt>
      <trkpt lat="52.39392003044486" lon="13.745566997677088">
        <ele>15.039999999999999</ele>
        <time>2024-09-17T12:56:43Z</time>
      </trkpt>
      <trkpt lat="52.39379002712667" lon="13.745450992137194">
        <ele>15.52</ele>
        <time>2024-09-17T12:56:44Z</time>
      </trkpt>
      <trkpt lat="52.393272025510669" lon="13.745116973295808">
        <ele>17.440000000000001</ele>
        <time>2024-09-17T12:56:48Z</time>
      </trkpt>
      <trkpt lat="52.393134981393814" lon="13.745060982182622">
        <ele>17.920000000000002</ele>
        <time>2024-09-17T12:56:49Z</time>
      </trkpt>
      <trkpt lat="52.392881009727716" lon="13.744944976642728">
        <ele>18.879999999999999</ele>
        <time>2024-09-17T12:56:51Z</time>
      </trkpt>
      <trkpt lat="52.392662996426225" lon="13.744802987203002">
        <ele>19.84</ele>
        <time>2024-09-17T12:56:53Z</time>
      </trkpt>
      <trkpt lat="52.392581021413207" lon="13.744686981663108">
        <ele>20.32</ele>
        <time>2024-09-17T12:56:54Z</time>
      </trkpt>
      <trkpt lat="52.392497034743428" lon="13.744567958638072">
        <ele>21.289999999999999</ele>
        <time>2024-09-17T12:56:55Z</time>
      </trkpt>
      <trkpt lat="52.392415981739759" lon="13.744434015825391">
        <ele>21.77</ele>
        <time>2024-09-17T12:56:56Z</time>
      </trkpt>
      <trkpt lat="52.392340963706374" lon="13.74428397975862">
        <ele>22.25</ele>
        <time>2024-09-17T12:56:57Z</time>
      </trkpt>
      <trkpt lat="52.391940979287028" lon="13.743513012304902">
        <ele>25.129999999999999</ele>
        <time>2024-09-17T12:57:02Z</time>
      </trkpt>
      <trkpt lat="52.391856992617249" lon="13.743376974016428">
        <ele>25.129999999999999</ele>
        <time>2024-09-17T12:57:03Z</time>
      </trkpt>
      <trkpt lat="52.391758002340794" lon="13.743339003995061">
        <ele>25.609999999999999</ele>
        <time>2024-09-17T12:57:04Z</time>
      </trkpt>
      <trkpt lat="52.391651971265674" lon="13.74331402592361">
        <ele>26.09</ele>
        <time>2024-09-17T12:57:05Z</time>
      </trkpt>
      <trkpt lat="52.391537977382541" lon="13.743287036195397">
        <ele>26.57</ele>
        <time>2024-09-17T12:57:06Z</time>
      </trkpt>
      <trkpt lat="52.391418032348156" lon="13.743258034810424">
        <ele>27.050000000000001</ele>
        <time>2024-09-17T12:57:07Z</time>
      </trkpt>
      <trkpt lat="52.39129900932312" lon="13.743230039253831">
        <ele>27.530000000000001</ele>
        <time>2024-09-17T12:57:08Z</time>
      </trkpt>
      <trkpt lat="52.391068004071712" lon="13.743175975978374">
        <ele>28.02</ele>
        <time>2024-09-17T12:57:10Z</time>
      </trkpt>
      <trkpt lat="52.390600964426994" lon="13.742939019575715">
        <ele>28.02</ele>
        <time>2024-09-17T12:57:16Z</time>
      </trkpt>
      <trkpt lat="52.390555031597614" lon="13.742911024019122">
        <ele>28.02</ele>
        <time>2024-09-17T12:57:17Z</time>
      </trkpt>
      <trkpt lat="52.390388986095786" lon="13.742811027914286">
        <ele>28.5</ele>
        <time>2024-09-17T12:57:26Z</time>
      </trkpt>
      <trkpt lat="52.390211960300803" lon="13.742706002667546">
        <ele>29.940000000000001</ele>
        <time>2024-09-17T12:57:38Z</time>
      </trkpt>
      <trkpt lat="52.390023032203317" lon="13.742592008784413">
        <ele>31.379999999999999</ele>
        <time>2024-09-17T12:57:52Z</time>
      </trkpt>
      <trkpt lat="52.390006016939878" lon="13.742582034319639">
        <ele>31.379999999999999</ele>
        <time>2024-09-17T12:58:02Z</time>
      </trkpt>
      <trkpt lat="52.389984978362918" lon="13.742568958550692">
        <ele>31.379999999999999</ele>
        <time>2024-09-17T12:58:03Z</time>
      </trkpt>
      <trkpt lat="52.389948014169931" lon="13.742546997964382">
        <ele>31.379999999999999</ele>
        <time>2024-09-17T12:58:04Z</time>
      </trkpt>
      <trkpt lat="52.389410985633731" lon="13.74224298633635">
        <ele>31.379999999999999</ele>
        <time>2024-09-17T12:58:14Z</time>
      </trkpt>
      <trkpt lat="52.389023993164301" lon="13.742012986913323">
        <ele>30.420000000000002</ele>
        <time>2024-09-17T12:58:25Z</time>
      </trkpt>
      <trkpt lat="52.38899901509285" lon="13.741998989135027">
        <ele>30.420000000000002</ele>
        <time>2024-09-17T12:58:59Z</time>
      </trkpt>
      <trkpt lat="52.388745965436101" lon="13.741767983883619">
        <ele>32.340000000000003</ele>
        <time>2024-09-17T12:59:06Z</time>
      </trkpt>
      <trkpt lat="52.388705983757973" lon="13.741723978891969">
        <ele>32.340000000000003</ele>
        <time>2024-09-17T12:59:08Z</time>
      </trkpt>
      <trkpt lat="52.388653010129929" lon="13.741739988327026">
        <ele>32.340000000000003</ele>
        <time>2024-09-17T12:59:09Z</time>
      </trkpt>
      <trkpt lat="52.388631971552968" lon="13.741806037724018">
        <ele>32.340000000000003</ele>
        <time>2024-09-17T12:59:10Z</time>
      </trkpt>
      <trkpt lat="52.388603975996375" lon="13.741891030222178">
        <ele>32.340000000000003</ele>
        <time>2024-09-17T12:59:11Z</time>
      </trkpt>
      <trkpt lat="52.388572040945292" lon="13.741989014670253">
        <ele>31.859999999999999</ele>
        <time>2024-09-17T12:59:12Z</time>
      </trkpt>
      <trkpt lat="52.388500040397048" lon="13.742208033800125">
        <ele>31.379999999999999</ele>
        <time>2024-09-17T12:59:14Z</time>
      </trkpt>
      <trkpt lat="52.38805403932929" lon="13.743564980104566">
        <ele>28.5</ele>
        <time>2024-09-17T12:59:25Z</time>
      </trkpt>
      <trkpt lat="52.387950019910932" lon="13.743881983682513">
        <ele>28.02</ele>
        <time>2024-09-17T12:59:28Z</time>
      </trkpt>
      <trkpt lat="52.387880031019449" lon="13.744093962013721">
        <ele>27.530000000000001</ele>
        <time>2024-09-17T12:59:30Z</time>
      </trkpt>
      <trkpt lat="52.387468982487917" lon="13.74531302601099">
        <ele>25.129999999999999</ele>
        <time>2024-09-17T12:59:40Z</time>
      </trkpt>
      <trkpt lat="52.387448027729988" lon="13.745451997965574">
        <ele>25.609999999999999</ele>
        <time>2024-09-17T12:59:41Z</time>
      </trkpt>
      <trkpt lat="52.387422965839505" lon="13.745611002668738">
        <ele>25.609999999999999</ele>
        <time>2024-09-17T12:59:42Z</time>
      </trkpt>
      <trkpt lat="52.387399999424815" lon="13.745761960744858">
        <ele>25.129999999999999</ele>
        <time>2024-09-17T12:59:43Z</time>
      </trkpt>
      <trkpt lat="52.387383989989758" lon="13.74587100930512">
        <ele>25.129999999999999</ele>
        <time>2024-09-17T12:59:44Z</time>
      </trkpt>
      <trkpt lat="52.387312995269895" lon="13.745983997359872">
        <ele>25.129999999999999</ele>
        <time>2024-09-17T12:59:45Z</time>
      </trkpt>
      <trkpt lat="52.387253986671567" lon="13.746078964322805">
        <ele>25.129999999999999</ele>
        <time>2024-09-17T12:59:46Z</time>
      </trkpt>
      <trkpt lat="52.387191038578749" lon="13.746178038418293">
        <ele>25.129999999999999</ele>
        <time>2024-09-17T12:59:47Z</time>
      </trkpt>
      <trkpt lat="52.387139992788434" lon="13.746295971795917">
        <ele>25.129999999999999</ele>
        <time>2024-09-17T12:59:48Z</time>
      </trkpt>
      <trkpt lat="52.386642023921013" lon="13.747717039659619">
        <ele>27.530000000000001</ele>
        <time>2024-09-17T12:59:57Z</time>
      </trkpt>
      <trkpt lat="52.386010028421879" lon="13.749560974538326">
        <ele>32.340000000000003</ele>
        <time>2024-09-17T13:00:08Z</time>
      </trkpt>
      <trkpt lat="52.386010028421879" lon="13.749721990898252">
        <ele>33.299999999999997</ele>
        <time>2024-09-17T13:00:09Z</time>
      </trkpt>
      <trkpt lat="52.385967029258609" lon="13.751047002151608">
        <ele>34.259999999999998</ele>
        <time>2024-09-17T13:00:16Z</time>
      </trkpt>
      <trkpt lat="52.385592022910714" lon="13.753060000017285">
        <ele>33.780000000000001</ele>
        <time>2024-09-17T13:00:27Z</time>
      </trkpt>
      <trkpt lat="52.385456990450621" lon="13.754966966807842">
        <ele>32.340000000000003</ele>
        <time>2024-09-17T13:00:37Z</time>
      </trkpt>
      <trkpt lat="52.385356994345784" lon="13.756932020187378">
        <ele>31.379999999999999</ele>
        <time>2024-09-17T13:00:46Z</time>
      </trkpt>
      <trkpt lat="52.385207964107394" lon="13.759884964674711">
        <ele>30.899999999999999</ele>
        <time>2024-09-17T13:00:57Z</time>
      </trkpt>
      <trkpt lat="52.385131018236279" lon="13.762850984930992">
        <ele>30.899999999999999</ele>
        <time>2024-09-17T13:01:09Z</time>
      </trkpt>
      <trkpt lat="52.385085001587868" lon="13.76398497261107">
        <ele>30.420000000000002</ele>
        <time>2024-09-17T13:01:14Z</time>
      </trkpt>
      <trkpt lat="52.385045019909739" lon="13.764173984527588">
        <ele>30.420000000000002</ele>
        <time>2024-09-17T13:01:15Z</time>
      </trkpt>
      <trkpt lat="52.384967990219593" lon="13.764356039464474">
        <ele>30.420000000000002</ele>
        <time>2024-09-17T13:01:16Z</time>
      </trkpt>
      <trkpt lat="52.38429500721395" lon="13.765941979363561">
        <ele>30.899999999999999</ele>
        <time>2024-09-17T13:01:26Z</time>
      </trkpt>
      <trkpt lat="52.384189981967211" lon="13.76617600210011">
        <ele>30.899999999999999</ele>
        <time>2024-09-17T13:01:28Z</time>
      </trkpt>
      <trkpt lat="52.38414497114718" lon="13.766278009861708">
        <ele>31.379999999999999</ele>
        <time>2024-09-17T13:01:29Z</time>
      </trkpt>
      <trkpt lat="52.384099960327148" lon="13.766379011794925">
        <ele>31.379999999999999</ele>
        <time>2024-09-17T13:01:30Z</time>
      </trkpt>
      <trkpt lat="52.383661000058055" lon="13.767362963408232">
        <ele>32.82</ele>
        <time>2024-09-17T13:01:39Z</time>
      </trkpt>
      <trkpt lat="52.383609032258391" lon="13.767480980604887">
        <ele>33.299999999999997</ele>
        <time>2024-09-17T13:01:40Z</time>
      </trkpt>
      <trkpt lat="52.383555974811316" lon="13.767598997801542">
        <ele>33.299999999999997</ele>
        <time>2024-09-17T13:01:41Z</time>
      </trkpt>
      <trkpt lat="52.38352102227509" lon="13.767742998898029">
        <ele>33.780000000000001</ele>
        <time>2024-09-17T13:01:42Z</time>
      </trkpt>
      <trkpt lat="52.383494032546878" lon="13.767885994166136">
        <ele>33.780000000000001</ele>
        <time>2024-09-17T13:01:43Z</time>
      </trkpt>
      <trkpt lat="52.383466036990285" lon="13.768033012747765">
        <ele>34.259999999999998</ele>
        <time>2024-09-17T13:01:44Z</time>
      </trkpt>
      <trkpt lat="52.383438041433692" lon="13.768180031329393">
        <ele>34.740000000000002</ele>
        <time>2024-09-17T13:01:45Z</time>
      </trkpt>
      <trkpt lat="52.383249029517174" lon="13.769175969064236">
        <ele>36.670000000000002</ele>
        <time>2024-09-17T13:01:52Z</time>
      </trkpt>
      <trkpt lat="52.38322296179831" lon="13.76931301318109">
        <ele>36.670000000000002</ele>
        <time>2024-09-17T13:01:53Z</time>
      </trkpt>
      <trkpt lat="52.383173005655408" lon="13.769574025645852">
        <ele>36.670000000000002</ele>
        <time>2024-09-17T13:01:55Z</time>
      </trkpt>
      <trkpt lat="52.383152972906828" lon="13.769680978730321">
        <ele>36.670000000000002</ele>
        <time>2024-09-17T13:01:56Z</time>
      </trkpt>
      <trkpt lat="52.383064962923527" lon="13.769747028127313">
        <ele>36.670000000000002</ele>
        <time>2024-09-17T13:01:57Z</time>
      </trkpt>
      <trkpt lat="52.382996985688806" lon="13.76971903257072">
        <ele>36.670000000000002</ele>
        <time>2024-09-17T13:01:58Z</time>
      </trkpt>
      <trkpt lat="52.38291802816093" lon="13.769687013700604">
        <ele>36.670000000000002</ele>
        <time>2024-09-17T13:01:59Z</time>
      </trkpt>
      <trkpt lat="52.3828349635005" lon="13.769653989002109">
        <ele>36.670000000000002</ele>
        <time>2024-09-17T13:02:00Z</time>
      </trkpt>
      <trkpt lat="52.382578980177641" lon="13.76955097541213">
        <ele>36.189999999999998</ele>
        <time>2024-09-17T13:02:03Z</time>
      </trkpt>
      <trkpt lat="52.382492981851101" lon="13.769516022875905">
        <ele>35.710000000000001</ele>
        <time>2024-09-17T13:02:04Z</time>
      </trkpt>
      <trkpt lat="52.381564015522599" lon="13.769142022356391">
        <ele>33.780000000000001</ele>
        <time>2024-09-17T13:02:15Z</time>
      </trkpt>
      <trkpt lat="52.380850967019796" lon="13.76884002238512">
        <ele>34.740000000000002</ele>
        <time>2024-09-17T13:02:23Z</time>
      </trkpt>
      <trkpt lat="52.380761029198766" lon="13.768800040706992">
        <ele>34.740000000000002</ele>
        <time>2024-09-17T13:02:24Z</time>
      </trkpt>
      <trkpt lat="52.380670001730323" lon="13.768910011276603">
        <ele>34.259999999999998</ele>
        <time>2024-09-17T13:02:25Z</time>
      </trkpt>
      <trkpt lat="52.380603030323982" lon="13.769044959917665">
        <ele>33.780000000000001</ele>
        <time>2024-09-17T13:02:26Z</time>
      </trkpt>
      <trkpt lat="52.380524994805455" lon="13.769201030954719">
        <ele>33.780000000000001</ele>
        <time>2024-09-17T13:02:27Z</time>
      </trkpt>
      <trkpt lat="52.380437990650535" lon="13.76937503926456">
        <ele>33.299999999999997</ele>
        <time>2024-09-17T13:02:28Z</time>
      </trkpt>
      <trkpt lat="52.380346041172743" lon="13.769558016210794">
        <ele>32.82</ele>
        <time>2024-09-17T13:02:29Z</time>
      </trkpt>
      <trkpt lat="52.380250990390778" lon="13.769749961793423">
        <ele>32.340000000000003</ele>
        <time>2024-09-17T13:02:30Z</time>
      </trkpt>
      <trkpt lat="52.380149988457561" lon="13.769951965659857">
        <ele>31.859999999999999</ele>
        <time>2024-09-17T13:02:31Z</time>
      </trkpt>
      <trkpt lat="52.379254968836904" lon="13.771722977980971">
        <ele>26.09</ele>
        <time>2024-09-17T13:02:39Z</time>
      </trkpt>
      <trkpt lat="52.378405965864658" lon="13.772683041170239">
        <ele>21.77</ele>
        <time>2024-09-17T13:02:46Z</time>
      </trkpt>
      <trkpt lat="52.377663999795914" lon="13.773402962833643">
        <ele>19.359999999999999</ele>
        <time>2024-09-17T13:02:52Z</time>
      </trkpt>
      <trkpt lat="52.376479972153902" lon="13.775290986523032">
        <ele>26.09</ele>
        <time>2024-09-17T13:03:03Z</time>
      </trkpt>
      <trkpt lat="52.37638802267611" lon="13.775517968460917">
        <ele>26.09</ele>
        <time>2024-09-17T13:03:04Z</time>
      </trkpt>
      <trkpt lat="52.375931041315198" lon="13.776749018579721">
        <ele>23.690000000000001</ele>
        <time>2024-09-17T13:03:10Z</time>
      </trkpt>
      <trkpt lat="52.375689977779984" lon="13.777495007961988">
        <ele>21.289999999999999</ele>
        <time>2024-09-17T13:03:15Z</time>
      </trkpt>
      <trkpt lat="52.375170970335603" lon="13.779120007529855">
        <ele>16.48</ele>
        <time>2024-09-17T13:03:25Z</time>
      </trkpt>
      <trkpt lat="52.375039039179683" lon="13.779557961970568">
        <ele>15.039999999999999</ele>
        <time>2024-09-17T13:03:28Z</time>
      </trkpt>
      <trkpt lat="52.374993022531271" lon="13.779713027179241">
        <ele>14.56</ele>
        <time>2024-09-17T13:03:29Z</time>
      </trkpt>
      <trkpt lat="52.374942982569337" lon="13.779881000518799">
        <ele>14.08</ele>
        <time>2024-09-17T13:03:30Z</time>
      </trkpt>
      <trkpt lat="52.374891014769673" lon="13.780052997171879">
        <ele>13.6</ele>
        <time>2024-09-17T13:03:31Z</time>
      </trkpt>
      <trkpt lat="52.374838041141629" lon="13.780229017138481">
        <ele>13.119999999999999</ele>
        <time>2024-09-17T13:03:32Z</time>
      </trkpt>
      <trkpt lat="52.374630002304912" lon="13.780921027064323">
        <ele>10.710000000000001</ele>
        <time>2024-09-17T13:03:36Z</time>
      </trkpt>
      <trkpt lat="52.374585997313261" lon="13.781104004010558">
        <ele>10.710000000000001</ele>
        <time>2024-09-17T13:03:37Z</time>
      </trkpt>
      <trkpt lat="52.374558001756668" lon="13.78130198456347">
        <ele>10.23</ele>
        <time>2024-09-17T13:03:38Z</time>
      </trkpt>
      <trkpt lat="52.374531012028456" lon="13.78149401396513">
        <ele>10.23</ele>
        <time>2024-09-17T13:03:39Z</time>
      </trkpt>
      <trkpt lat="52.374503016471863" lon="13.7816889770329">
        <ele>9.75</ele>
        <time>2024-09-17T13:03:40Z</time>
      </trkpt>
      <trkpt lat="52.374136978760362" lon="13.783266032114625">
        <ele>7.35</ele>
        <time>2024-09-17T13:03:48Z</time>
      </trkpt>
      <trkpt lat="52.373412027955055" lon="13.785363016650081">
        <ele>2.54</ele>
        <time>2024-09-17T13:03:58Z</time>
      </trkpt>
      <trkpt lat="52.373282024636865" lon="13.785758977755904">
        <ele>1.58</ele>
        <time>2024-09-17T13:04:00Z</time>
      </trkpt>
      <trkpt lat="52.373167024925351" lon="13.786112023517489">
        <ele>0.62</ele>
        <time>2024-09-17T13:04:02Z</time>
      </trkpt>
      <trkpt lat="52.373113967478275" lon="13.786275973543525">
        <ele>0.14</ele>
        <time>2024-09-17T13:04:03Z</time>
      </trkpt>
      <trkpt lat="52.373102987185121" lon="13.786475965753198">
        <ele>-0.34</ele>
        <time>2024-09-17T13:04:04Z</time>
      </trkpt>
      <trkpt lat="52.373093012720346" lon="13.786661960184574">
        <ele>-0.34</ele>
        <time>2024-09-17T13:04:05Z</time>
      </trkpt>
      <trkpt lat="52.373126037418842" lon="13.786859018728137">
        <ele>-0.34</ele>
        <time>2024-09-17T13:04:06Z</time>
      </trkpt>
      <trkpt lat="52.373160989955068" lon="13.787061022594571">
        <ele>0.62</ele>
        <time>2024-09-17T13:04:07Z</time>
      </trkpt>
      <trkpt lat="52.373226033523679" lon="13.787264032289386">
        <ele>1.58</ele>
        <time>2024-09-17T13:04:08Z</time>
      </trkpt>
      <trkpt lat="52.373615959659219" lon="13.788484018296003">
        <ele>5.42</ele>
        <time>2024-09-17T13:04:14Z</time>
      </trkpt>
      <trkpt lat="52.373650996014476" lon="13.788711000233889">
        <ele>3.98</ele>
        <time>2024-09-17T13:04:16Z</time>
      </trkpt>
      <trkpt lat="52.373580001294613" lon="13.78877897746861">
        <ele>3.5</ele>
        <time>2024-09-17T13:04:17Z</time>
      </trkpt>
      <trkpt lat="52.373523004353046" lon="13.788790041580796">
        <ele>3.5</ele>
        <time>2024-09-17T13:04:18Z</time>
      </trkpt>
      <trkpt lat="52.373436000198126" lon="13.788807978853583">
        <ele>3.02</ele>
        <time>2024-09-17T13:04:19Z</time>
      </trkpt>
      <trkpt lat="52.373408004641533" lon="13.788793981075287">
        <ele>2.54</ele>
        <time>2024-09-17T13:04:20Z</time>
      </trkpt>
      <trkpt lat="52.373326029628515" lon="13.788755005225539">
        <ele>2.06</ele>
        <time>2024-09-17T13:04:21Z</time>
      </trkpt>
      <trkpt lat="52.372539974749088" lon="13.788376981392503">
        <ele>0.14</ele>
        <time>2024-09-17T13:04:27Z</time>
      </trkpt>
      <trkpt lat="52.371713016182184" lon="13.788100965321064">
        <ele>-4.67</ele>
        <time>2024-09-17T13:04:33Z</time>
      </trkpt>
      <trkpt lat="52.371483016759157" lon="13.788056960329413">
        <ele>-5.63</ele>
        <time>2024-09-17T13:04:34Z</time>
      </trkpt>
      <trkpt lat="52.370950011536479" lon="13.788258964195848">
        <ele>-8.029999999999999</ele>
        <time>2024-09-17T13:04:38Z</time>
      </trkpt>
      <trkpt lat="52.37080299295485" lon="13.788350997492671">
        <ele>-8.51</ele>
        <time>2024-09-17T13:04:39Z</time>
      </trkpt>
      <trkpt lat="52.370249032974243" lon="13.788681998848915">
        <ele>-10.44</ele>
        <time>2024-09-17T13:04:43Z</time>
      </trkpt>
      <trkpt lat="52.370118023827672" lon="13.788752993568778">
        <ele>-10.44</ele>
        <time>2024-09-17T13:04:44Z</time>
      </trkpt>
      <trkpt lat="52.369982991367579" lon="13.788825999945402">
        <ele>-10.44</ele>
        <time>2024-09-17T13:04:45Z</time>
      </trkpt>
      <trkpt lat="52.369458032771945" lon="13.788905963301659">
        <ele>-10.92</ele>
        <time>2024-09-17T13:04:49Z</time>
      </trkpt>
      <trkpt lat="52.369381003081799" lon="13.788915015757084">
        <ele>-11.4</ele>
        <time>2024-09-17T13:04:50Z</time>
      </trkpt>
      <trkpt lat="52.369210012257099" lon="13.788836980238557">
        <ele>-11.880000000000001</ele>
        <time>2024-09-17T13:04:51Z</time>
      </trkpt>
      <trkpt lat="52.367889024317265" lon="13.788356026634574">
        <ele>-16.690000000000001</ele>
        <time>2024-09-17T13:04:59Z</time>
      </trkpt>
      <trkpt lat="52.366383969783783" lon="13.788000969216228">
        <ele>-26.300000000000001</ele>
        <time>2024-09-17T13:05:08Z</time>
      </trkpt>
      <trkpt lat="52.365255011245608" lon="13.78763903863728">
        <ele>-36.390000000000001</ele>
        <time>2024-09-17T13:05:15Z</time>
      </trkpt>
      <trkpt lat="52.364853015169501" lon="13.787583969533443">
        <ele>-39.759999999999998</ele>
        <time>2024-09-17T13:05:17Z</time>
      </trkpt>
      <trkpt lat="52.36444397829473" lon="13.78766200505197">
        <ele>-45.039999999999999</ele>
        <time>2024-09-17T13:05:20Z</time>
      </trkpt>
      <trkpt lat="52.36431104131043" lon="13.787738028913736">
        <ele>-46.490000000000002</ele>
        <time>2024-09-17T13:05:21Z</time>
      </trkpt>
      <trkpt lat="52.364173997193575" lon="13.787815980613232">
        <ele>-47.450000000000003</ele>
        <time>2024-09-17T13:05:22Z</time>
      </trkpt>
      <trkpt lat="52.364037036895752" lon="13.787894016131759">
        <ele>-48.409999999999997</ele>
        <time>2024-09-17T13:05:23Z</time>
      </trkpt>
      <trkpt lat="52.363890018314123" lon="13.787976996973157">
        <ele>-49.850000000000001</ele>
        <time>2024-09-17T13:05:24Z</time>
      </trkpt>
      <trkpt lat="52.362513961270452" lon="13.788786018267274">
        <ele>-55.619999999999997</ele>
        <time>2024-09-17T13:05:33Z</time>
      </trkpt>
      <trkpt lat="52.362374989315867" lon="13.788938988000154">
        <ele>-55.619999999999997</ele>
        <time>2024-09-17T13:05:34Z</time>
      </trkpt>
      <trkpt lat="52.362246997654438" lon="13.7890799716115">
        <ele>-55.140000000000001</ele>
        <time>2024-09-17T13:05:35Z</time>
      </trkpt>
      <trkpt lat="52.362119005993009" lon="13.789221039041877">
        <ele>-55.140000000000001</ele>
        <time>2024-09-17T13:05:36Z</time>
      </trkpt>
      <trkpt lat="52.361420039087534" lon="13.790545966476202">
        <ele>-55.140000000000001</ele>
        <time>2024-09-17T13:05:43Z</time>
      </trkpt>
      <trkpt lat="52.361319037154317" lon="13.791001019999385">
        <ele>-56.579999999999998</ele>
        <time>2024-09-17T13:05:45Z</time>
      </trkpt>
      <trkpt lat="52.36115500330925" lon="13.791740974411368">
        <ele>-59.460000000000001</ele>
        <time>2024-09-17T13:05:48Z</time>
      </trkpt>
      <trkpt lat="52.360922992229462" lon="13.792788041755557">
        <ele>-62.829999999999998</ele>
        <time>2024-09-17T13:05:53Z</time>
      </trkpt>
      <trkpt lat="52.36087697558105" lon="13.792994990944862">
        <ele>-63.310000000000002</ele>
        <time>2024-09-17T13:05:54Z</time>
      </trkpt>
      <trkpt lat="52.360672038048506" lon="13.793922029435635">
        <ele>-67.150000000000006</ele>
        <time>2024-09-17T13:06:00Z</time>
      </trkpt>
      <trkpt lat="52.360576987266541" lon="13.794264011085033">
        <ele>-68.120000000000005</ele>
        <time>2024-09-17T13:06:02Z</time>
      </trkpt>
      <trkpt lat="52.360525019466877" lon="13.79445000551641">
        <ele>-68.599999999999994</ele>
        <time>2024-09-17T13:06:03Z</time>
      </trkpt>
      <trkpt lat="52.360465005040169" lon="13.79466500133276">
        <ele>-68.599999999999994</ele>
        <time>2024-09-17T13:06:04Z</time>
      </trkpt>
      <trkpt lat="52.360369032248855" lon="13.79492400214076">
        <ele>-69.079999999999998</ele>
        <time>2024-09-17T13:06:05Z</time>
      </trkpt>
      <trkpt lat="52.360259983688593" lon="13.795089963823557">
        <ele>-69.079999999999998</ele>
        <time>2024-09-17T13:06:06Z</time>
      </trkpt>
      <trkpt lat="52.360144983977079" lon="13.79526799544692">
        <ele>-69.560000000000002</ele>
        <time>2024-09-17T13:06:07Z</time>
      </trkpt>
      <trkpt lat="52.359766960144043" lon="13.79584701731801">
        <ele>-69.079999999999998</ele>
        <time>2024-09-17T13:06:10Z</time>
      </trkpt>
      <trkpt lat="52.359661012887955" lon="13.79601901397109">
        <ele>-69.079999999999998</ele>
        <time>2024-09-17T13:06:11Z</time>
      </trkpt>
      <trkpt lat="52.359554981812835" lon="13.79619101062417">
        <ele>-69.079999999999998</ele>
        <time>2024-09-17T13:06:12Z</time>
      </trkpt>
      <trkpt lat="52.359448028728366" lon="13.796364013105631">
        <ele>-68.599999999999994</ele>
        <time>2024-09-17T13:06:13Z</time>
      </trkpt>
      <trkpt lat="52.359338980168104" lon="13.796541038900614">
        <ele>-68.120000000000005</ele>
        <time>2024-09-17T13:06:14Z</time>
      </trkpt>
      <trkpt lat="52.358387969434261" lon="13.79808297380805">
        <ele>-68.120000000000005</ele>
        <time>2024-09-17T13:06:23Z</time>
      </trkpt>
      <trkpt lat="52.358288979157805" lon="13.79829403012991">
        <ele>-68.120000000000005</ele>
        <time>2024-09-17T13:06:24Z</time>
      </trkpt>
      <trkpt lat="52.358201975002885" lon="13.798507014289498">
        <ele>-67.640000000000001</ele>
        <time>2024-09-17T13:06:25Z</time>
      </trkpt>
      <trkpt lat="52.358055040240288" lon="13.798863999545574">
        <ele>-68.120000000000005</ele>
        <time>2024-09-17T13:06:27Z</time>
      </trkpt>
      <trkpt lat="52.357988990843296" lon="13.799025015905499">
        <ele>-68.120000000000005</ele>
        <time>2024-09-17T13:06:28Z</time>
      </trkpt>
      <trkpt lat="52.357500996440649" lon="13.800426973029971">
        <ele>-67.640000000000001</ele>
        <time>2024-09-17T13:06:36Z</time>
      </trkpt>
      <trkpt lat="52.357428995892406" lon="13.800652027130127">
        <ele>-67.150000000000006</ele>
        <time>2024-09-17T13:06:37Z</time>
      </trkpt>
      <trkpt lat="52.357405023649335" lon="13.800840033218265">
        <ele>-66.670000000000002</ele>
        <time>2024-09-17T13:06:38Z</time>
      </trkpt>
      <trkpt lat="52.357377028092742" lon="13.80117597989738">
        <ele>-64.269999999999996</ele>
        <time>2024-09-17T13:06:40Z</time>
      </trkpt>
      <trkpt lat="52.357363030314445" lon="13.802288006991148">
        <ele>-56.579999999999998</ele>
        <time>2024-09-17T13:06:46Z</time>
      </trkpt>
      <trkpt lat="52.357369987294078" lon="13.802412981167436">
        <ele>-55.140000000000001</ele>
        <time>2024-09-17T13:06:47Z</time>
      </trkpt>
      <trkpt lat="52.357377028092742" lon="13.802544996142387">
        <ele>-53.700000000000003</ele>
        <time>2024-09-17T13:06:48Z</time>
      </trkpt>
      <trkpt lat="52.357434025034308" lon="13.802957972511649">
        <ele>-53.219999999999999</ele>
        <time>2024-09-17T13:06:49Z</time>
      </trkpt>
      <trkpt lat="52.357350960373878" lon="13.803078001365066">
        <ele>-51.289999999999999</ele>
        <time>2024-09-17T13:06:50Z</time>
      </trkpt>
      <trkpt lat="52.356746038421988" lon="13.804154992103577">
        <ele>-44.079999999999998</ele>
        <time>2024-09-17T13:06:56Z</time>
      </trkpt>
      <trkpt lat="52.356030978262424" lon="13.805955005809665">
        <ele>-40.240000000000002</ele>
        <time>2024-09-17T13:07:03Z</time>
      </trkpt>
      <trkpt lat="52.355946991592646" lon="13.806187016889453">
        <ele>-40.240000000000002</ele>
        <time>2024-09-17T13:07:04Z</time>
      </trkpt>
      <trkpt lat="52.355739958584309" lon="13.806758997961879">
        <ele>-40.240000000000002</ele>
        <time>2024-09-17T13:07:07Z</time>
      </trkpt>
      <trkpt lat="52.355685979127884" lon="13.806950021535158">
        <ele>-39.759999999999998</ele>
        <time>2024-09-17T13:07:08Z</time>
      </trkpt>
      <trkpt lat="52.355668041855097" lon="13.807166023179889">
        <ele>-39.759999999999998</ele>
        <time>2024-09-17T13:07:09Z</time>
      </trkpt>
      <trkpt lat="52.355498978868127" lon="13.809196036309004">
        <ele>-31.59</ele>
        <time>2024-09-17T13:07:17Z</time>
      </trkpt>
      <trkpt lat="52.355374004691839" lon="13.810994038358331">
        <ele>-22.449999999999999</ele>
        <time>2024-09-17T13:07:26Z</time>
      </trkpt>
      <trkpt lat="52.355316001921892" lon="13.812716016545892">
        <ele>-13.32</ele>
        <time>2024-09-17T13:07:34Z</time>
      </trkpt>
      <trkpt lat="52.355265039950609" lon="13.814272033050656">
        <ele>-5.63</ele>
        <time>2024-09-17T13:07:41Z</time>
      </trkpt>
      <trkpt lat="52.355223968625069" lon="13.817018028348684">
        <ele>5.91</ele>
        <time>2024-09-17T13:07:51Z</time>
      </trkpt>
      <trkpt lat="52.355189016088843" lon="13.818829022347927">
        <ele>9.75</ele>
        <time>2024-09-17T13:07:56Z</time>
      </trkpt>
      <trkpt lat="52.355119027197361" lon="13.821677025407553">
        <ele>15.039999999999999</ele>
        <time>2024-09-17T13:08:06Z</time>
      </trkpt>
      <trkpt lat="52.354910988360643" lon="13.824467025697231">
        <ele>16</ele>
        <time>2024-09-17T13:08:16Z</time>
      </trkpt>
      <trkpt lat="52.354879975318909" lon="13.824749998748302">
        <ele>16</ele>
        <time>2024-09-17T13:08:17Z</time>
      </trkpt>
      <trkpt lat="52.354764975607395" lon="13.827704032883048">
        <ele>13.6</ele>
        <time>2024-09-17T13:08:27Z</time>
      </trkpt>
      <trkpt lat="52.35464695841074" lon="13.829016974195838">
        <ele>15.039999999999999</ele>
        <time>2024-09-17T13:08:33Z</time>
      </trkpt>
      <trkpt lat="52.354620974510908" lon="13.829197017475963">
        <ele>15.52</ele>
        <time>2024-09-17T13:08:34Z</time>
      </trkpt>
      <trkpt lat="52.354587027803063" lon="13.82936398498714">
        <ele>15.52</ele>
        <time>2024-09-17T13:08:35Z</time>
      </trkpt>
      <trkpt lat="52.354528019204736" lon="13.829577974975109">
        <ele>15.52</ele>
        <time>2024-09-17T13:08:36Z</time>
      </trkpt>
      <trkpt lat="52.354449983686209" lon="13.829714013263583">
        <ele>15.52</ele>
        <time>2024-09-17T13:08:37Z</time>
      </trkpt>
      <trkpt lat="52.354143960401416" lon="13.830228997394443">
        <ele>16</ele>
        <time>2024-09-17T13:08:41Z</time>
      </trkpt>
      <trkpt lat="52.353819999843836" lon="13.83073702454567">
        <ele>15.52</ele>
        <time>2024-09-17T13:08:45Z</time>
      </trkpt>
      <trkpt lat="52.353727966547012" lon="13.830872979015112">
        <ele>15.52</ele>
        <time>2024-09-17T13:08:46Z</time>
      </trkpt>
      <trkpt lat="52.353544989600778" lon="13.831031983718276">
        <ele>16</ele>
        <time>2024-09-17T13:08:48Z</time>
      </trkpt>
      <trkpt lat="52.353451028466225" lon="13.831113036721945">
        <ele>16.48</ele>
        <time>2024-09-17T13:08:49Z</time>
      </trkpt>
      <trkpt lat="52.353337034583092" lon="13.831180008128285">
        <ele>16.48</ele>
        <time>2024-09-17T13:08:50Z</time>
      </trkpt>
      <trkpt lat="52.353233015164733" lon="13.831228958442807">
        <ele>16.960000000000001</ele>
        <time>2024-09-17T13:08:51Z</time>
      </trkpt>
      <trkpt lat="52.353126984089613" lon="13.831277992576361">
        <ele>17.440000000000001</ele>
        <time>2024-09-17T13:08:52Z</time>
      </trkpt>
      <trkpt lat="52.352316034957767" lon="13.831416964530945">
        <ele>19.359999999999999</ele>
        <time>2024-09-17T13:09:00Z</time>
      </trkpt>
      <trkpt lat="52.351235020905733" lon="13.831171961501241">
        <ele>20.32</ele>
        <time>2024-09-17T13:09:09Z</time>
      </trkpt>
      <trkpt lat="52.350104972720146" lon="13.830899968743324">
        <ele>19.84</ele>
        <time>2024-09-17T13:09:19Z</time>
      </trkpt>
      <trkpt lat="52.349912021309137" lon="13.830854035913944">
        <ele>20.32</ele>
        <time>2024-09-17T13:09:21Z</time>
      </trkpt>
      <trkpt lat="52.349731978029013" lon="13.830811036750674">
        <ele>21.289999999999999</ele>
        <time>2024-09-17T13:09:23Z</time>
      </trkpt>
      <trkpt lat="52.349653020501137" lon="13.830792009830475">
        <ele>21.77</ele>
        <time>2024-09-17T13:09:24Z</time>
      </trkpt>
      <trkpt lat="52.349584037438035" lon="13.830774994567037">
        <ele>22.25</ele>
        <time>2024-09-17T13:09:25Z</time>
      </trkpt>
      <trkpt lat="52.34946602024138" lon="13.830856969580054">
        <ele>22.73</ele>
        <time>2024-09-17T13:09:26Z</time>
      </trkpt>
      <trkpt lat="52.349414974451065" lon="13.830969035625458">
        <ele>23.210000000000001</ele>
        <time>2024-09-17T13:09:27Z</time>
      </trkpt>
      <trkpt lat="52.349346997216344" lon="13.831045981496572">
        <ele>23.690000000000001</ele>
        <time>2024-09-17T13:09:28Z</time>
      </trkpt>
      <trkpt lat="52.349244989454746" lon="13.831142038106918">
        <ele>23.690000000000001</ele>
        <time>2024-09-17T13:09:29Z</time>
      </trkpt>
      <trkpt lat="52.349137030541897" lon="13.831243040040135">
        <ele>23.210000000000001</ele>
        <time>2024-09-17T13:09:30Z</time>
      </trkpt>
      <trkpt lat="52.349022030830383" lon="13.831369020044804">
        <ele>23.210000000000001</ele>
        <time>2024-09-17T13:09:31Z</time>
      </trkpt>
      <trkpt lat="52.348041012883186" lon="13.832766031846404">
        <ele>19.359999999999999</ele>
        <time>2024-09-17T13:09:41Z</time>
      </trkpt>
      <trkpt lat="52.347599035128951" lon="13.833388974890113">
        <ele>18.399999999999999</ele>
        <time>2024-09-17T13:09:45Z</time>
      </trkpt>
      <trkpt lat="52.347043985500932" lon="13.834191961213946">
        <ele>15.52</ele>
        <time>2024-09-17T13:09:51Z</time>
      </trkpt>
      <trkpt lat="52.346956981346011" lon="13.834320036694407">
        <ele>15.52</ele>
        <time>2024-09-17T13:09:52Z</time>
      </trkpt>
      <trkpt lat="52.346865031868219" lon="13.834454985335469">
        <ele>15.039999999999999</ele>
        <time>2024-09-17T13:09:53Z</time>
      </trkpt>
      <trkpt lat="52.346767969429493" lon="13.834597980603576">
        <ele>15.039999999999999</ele>
        <time>2024-09-17T13:09:54Z</time>
      </trkpt>
      <trkpt lat="52.346665961667895" lon="13.834748016670346">
        <ele>14.56</ele>
        <time>2024-09-17T13:09:55Z</time>
      </trkpt>
      <trkpt lat="52.346048969775438" lon="13.83565803989768">
        <ele>13.6</ele>
        <time>2024-09-17T13:10:02Z</time>
      </trkpt>
      <trkpt lat="52.34512603841722" lon="13.83690400980413">
        <ele>9.27</ele>
        <time>2024-09-17T13:10:11Z</time>
      </trkpt>
      <trkpt lat="52.344876006245613" lon="13.837238028645515">
        <ele>7.83</ele>
        <time>2024-09-17T13:10:13Z</time>
      </trkpt>
      <trkpt lat="52.344819009304047" lon="13.837402984499931">
        <ele>6.87</ele>
        <time>2024-09-17T13:10:14Z</time>
      </trkpt>
      <trkpt lat="52.344750026240945" lon="13.837601970881224">
        <ele>6.39</ele>
        <time>2024-09-17T13:10:15Z</time>
      </trkpt>
      <trkpt lat="52.344677019864321" lon="13.837815038859844">
        <ele>5.91</ele>
        <time>2024-09-17T13:10:16Z</time>
      </trkpt>
      <trkpt lat="52.344619017094374" lon="13.838071022182703">
        <ele>4.94</ele>
        <time>2024-09-17T13:10:17Z</time>
      </trkpt>
      <trkpt lat="52.344565959647298" lon="13.838329017162323">
        <ele>3.98</ele>
        <time>2024-09-17T13:10:18Z</time>
      </trkpt>
      <trkpt lat="52.344463029876351" lon="13.838836038485169">
        <ele>2.06</ele>
        <time>2024-09-17T13:10:20Z</time>
      </trkpt>
      <trkpt lat="52.344296984374523" lon="13.839655034244061">
        <ele>-1.79</ele>
        <time>2024-09-17T13:10:23Z</time>
      </trkpt>
      <trkpt lat="52.344148959964514" lon="13.840387025848031">
        <ele>-5.15</ele>
        <time>2024-09-17T13:10:26Z</time>
      </trkpt>
      <trkpt lat="52.34409699216485" lon="13.840642003342509">
        <ele>-6.59</ele>
        <time>2024-09-17T13:10:27Z</time>
      </trkpt>
      <trkpt lat="52.343887025490403" lon="13.843251960352063">
        <ele>-14.76</ele>
        <time>2024-09-17T13:10:37Z</time>
      </trkpt>
      <trkpt lat="52.343699019402266" lon="13.845608029514551">
        <ele>-14.76</ele>
        <time>2024-09-17T13:10:46Z</time>
      </trkpt>
      <trkpt lat="52.343510007485747" lon="13.847742984071374">
        <ele>-11.880000000000001</ele>
        <time>2024-09-17T13:10:55Z</time>
      </trkpt>
      <trkpt lat="52.343489974737167" lon="13.847977006807923">
        <ele>-11.4</ele>
        <time>2024-09-17T13:10:56Z</time>
      </trkpt>
      <trkpt lat="52.343469019979239" lon="13.848209017887712">
        <ele>-10.44</ele>
        <time>2024-09-17T13:10:57Z</time>
      </trkpt>
      <trkpt lat="52.34342903830111" lon="13.848664993420243">
        <ele>-9</ele>
        <time>2024-09-17T13:10:59Z</time>
      </trkpt>
      <trkpt lat="52.343421997502446" lon="13.848903039470315">
        <ele>-8.51</ele>
        <time>2024-09-17T13:11:00Z</time>
      </trkpt>
      <trkpt lat="52.34343197196722" lon="13.849116023629904">
        <ele>-7.55</ele>
        <time>2024-09-17T13:11:01Z</time>
      </trkpt>
      <trkpt lat="52.3434520047158" lon="13.849331019446254">
        <ele>-6.59</ele>
        <time>2024-09-17T13:11:02Z</time>
      </trkpt>
      <trkpt lat="52.343485029414296" lon="13.849521037191153">
        <ele>-5.63</ele>
        <time>2024-09-17T13:11:03Z</time>
      </trkpt>
      <trkpt lat="52.34351797029376" lon="13.849705019965768">
        <ele>-5.15</ele>
        <time>2024-09-17T13:11:04Z</time>
      </trkpt>
      <trkpt lat="52.343546971678734" lon="13.849872993305326">
        <ele>-3.71</ele>
        <time>2024-09-17T13:11:05Z</time>
      </trkpt>
      <trkpt lat="52.343613021075726" lon="13.850068962201476">
        <ele>-2.75</ele>
        <time>2024-09-17T13:11:06Z</time>
      </trkpt>
      <trkpt lat="52.343688039109111" lon="13.850212041288614">
        <ele>-1.79</ele>
        <time>2024-09-17T13:11:07Z</time>
      </trkpt>
      <trkpt lat="52.343789041042328" lon="13.850383032113314">
        <ele>-0.82</ele>
        <time>2024-09-17T13:11:08Z</time>
      </trkpt>
      <trkpt lat="52.343891970813274" lon="13.850509012117982">
        <ele>0.14</ele>
        <time>2024-09-17T13:11:09Z</time>
      </trkpt>
      <trkpt lat="52.344990000128746" lon="13.851861013099551">
        <ele>10.710000000000001</ele>
        <time>2024-09-17T13:11:19Z</time>
      </trkpt>
      <trkpt lat="52.346349041908979" lon="13.853583997115493">
        <ele>16.48</ele>
        <time>2024-09-17T13:11:31Z</time>
      </trkpt>
      <trkpt lat="52.347328970208764" lon="13.855064995586872">
        <ele>19.359999999999999</ele>
        <time>2024-09-17T13:11:40Z</time>
      </trkpt>
      <trkpt lat="52.348320968449116" lon="13.856565020978451">
        <ele>21.289999999999999</ele>
        <time>2024-09-17T13:11:49Z</time>
      </trkpt>
      <trkpt lat="52.34860997647047" lon="13.857000041753054">
        <ele>21.289999999999999</ele>
        <time>2024-09-17T13:11:51Z</time>
      </trkpt>
      <trkpt lat="52.349330987781286" lon="13.858092036098242">
        <ele>19.84</ele>
        <time>2024-09-17T13:11:58Z</time>
      </trkpt>
      <trkpt lat="52.35043304041028" lon="13.859770009294152">
        <ele>17.920000000000002</ele>
        <time>2024-09-17T13:12:08Z</time>
      </trkpt>
      <trkpt lat="52.351081967353821" lon="13.8607760053128">
        <ele>21.289999999999999</ele>
        <time>2024-09-17T13:12:16Z</time>
      </trkpt>
      <trkpt lat="52.351127984002233" lon="13.860847000032663">
        <ele>21.77</ele>
        <time>2024-09-17T13:12:17Z</time>
      </trkpt>
      <trkpt lat="52.351170983165503" lon="13.860912965610623">
        <ele>22.25</ele>
        <time>2024-09-17T13:12:18Z</time>
      </trkpt>
      <trkpt lat="52.351236026734114" lon="13.861084040254354">
        <ele>22.25</ele>
        <time>2024-09-17T13:12:19Z</time>
      </trkpt>
      <trkpt lat="52.35120995901525" lon="13.861180013045669">
        <ele>22.25</ele>
        <time>2024-09-17T13:12:20Z</time>
      </trkpt>
      <trkpt lat="52.351171988993883" lon="13.861326025798917">
        <ele>22.73</ele>
        <time>2024-09-17T13:12:21Z</time>
      </trkpt>
      <trkpt lat="52.351129995658994" lon="13.861512020230293">
        <ele>22.73</ele>
        <time>2024-09-17T13:12:22Z</time>
      </trkpt>
      <trkpt lat="52.350829001516104" lon="13.863569023087621">
        <ele>23.690000000000001</ele>
        <time>2024-09-17T13:12:30Z</time>
      </trkpt>
      <trkpt lat="52.350418958812952" lon="13.866821033880115">
        <ele>22.73</ele>
        <time>2024-09-17T13:12:41Z</time>
      </trkpt>
      <trkpt lat="52.350218966603279" lon="13.868436980992556">
        <ele>20.809999999999999</ele>
        <time>2024-09-17T13:12:48Z</time>
      </trkpt>
      <trkpt lat="52.350059961900115" lon="13.869362007826567">
        <ele>19.359999999999999</ele>
        <time>2024-09-17T13:12:53Z</time>
      </trkpt>
      <trkpt lat="52.349992990493774" lon="13.869553031399846">
        <ele>19.359999999999999</ele>
        <time>2024-09-17T13:12:54Z</time>
      </trkpt>
      <trkpt lat="52.349914032965899" lon="13.869772972539067">
        <ele>19.359999999999999</ele>
        <time>2024-09-17T13:12:55Z</time>
      </trkpt>
      <trkpt lat="52.349808001890779" lon="13.869902975857258">
        <ele>19.84</ele>
        <time>2024-09-17T13:12:56Z</time>
      </trkpt>
      <trkpt lat="52.34972502104938" lon="13.870002971962094">
        <ele>20.32</ele>
        <time>2024-09-17T13:12:57Z</time>
      </trkpt>
      <trkpt lat="52.349586971104145" lon="13.870126018300653">
        <ele>20.809999999999999</ele>
        <time>2024-09-17T13:12:58Z</time>
      </trkpt>
      <trkpt lat="52.349478006362915" lon="13.870224002748728">
        <ele>21.289999999999999</ele>
        <time>2024-09-17T13:12:59Z</time>
      </trkpt>
      <trkpt lat="52.349372981116176" lon="13.870317041873932">
        <ele>21.77</ele>
        <time>2024-09-17T13:13:00Z</time>
      </trkpt>
      <trkpt lat="52.34927399083972" lon="13.87039901688695">
        <ele>22.25</ele>
        <time>2024-09-17T13:13:01Z</time>
      </trkpt>
      <trkpt lat="52.349182041361928" lon="13.870472023263574">
        <ele>22.73</ele>
        <time>2024-09-17T13:13:02Z</time>
      </trkpt>
      <trkpt lat="52.349089002236724" lon="13.870544023811817">
        <ele>23.690000000000001</ele>
        <time>2024-09-17T13:13:03Z</time>
      </trkpt>
      <trkpt lat="52.34848097898066" lon="13.871011985465884">
        <ele>27.050000000000001</ele>
        <time>2024-09-17T13:13:09Z</time>
      </trkpt>
      <trkpt lat="52.347499961033463" lon="13.871808014810085">
        <ele>28.5</ele>
        <time>2024-09-17T13:13:19Z</time>
      </trkpt>
      <trkpt lat="52.347191004082561" lon="13.872051006183028">
        <ele>29.940000000000001</ele>
        <time>2024-09-17T13:13:22Z</time>
      </trkpt>
      <trkpt lat="52.345499033108354" lon="13.873371994122863">
        <ele>33.780000000000001</ele>
        <time>2024-09-17T13:13:38Z</time>
      </trkpt>
      <trkpt lat="52.34433202072978" lon="13.874258967116475">
        <ele>39.549999999999997</ele>
        <time>2024-09-17T13:13:49Z</time>
      </trkpt>
      <trkpt lat="52.344005964696407" lon="13.874490978196263">
        <ele>40.509999999999998</ele>
        <time>2024-09-17T13:13:52Z</time>
      </trkpt>
      <trkpt lat="52.343789963051677" lon="13.874555015936494">
        <ele>40.509999999999998</ele>
        <time>2024-09-17T13:13:54Z</time>
      </trkpt>
      <trkpt lat="52.343653002753854" lon="13.874594997614622">
        <ele>40.509999999999998</ele>
        <time>2024-09-17T13:13:55Z</time>
      </trkpt>
      <trkpt lat="52.343543032184243" lon="13.874603966251016">
        <ele>40.509999999999998</ele>
        <time>2024-09-17T13:13:56Z</time>
      </trkpt>
      <trkpt lat="52.34342903830111" lon="13.874613018706441">
        <ele>40.030000000000001</ele>
        <time>2024-09-17T13:13:57Z</time>
      </trkpt>
      <trkpt lat="52.343311021104455" lon="13.874621987342834">
        <ele>39.549999999999997</ele>
        <time>2024-09-17T13:13:58Z</time>
      </trkpt>
      <trkpt lat="52.34319400973618" lon="13.87463103979826">
        <ele>39.549999999999997</ele>
        <time>2024-09-17T13:13:59Z</time>
      </trkpt>
      <trkpt lat="52.342724036425352" lon="13.874668003991246">
        <ele>39.07</ele>
        <time>2024-09-17T13:14:03Z</time>
      </trkpt>
      <trkpt lat="52.342611970379949" lon="13.874675966799259">
        <ele>38.590000000000003</ele>
        <time>2024-09-17T13:14:04Z</time>
      </trkpt>
      <trkpt lat="52.341793980449438" lon="13.874820973724127">
        <ele>37.630000000000003</ele>
        <time>2024-09-17T13:14:11Z</time>
      </trkpt>
      <trkpt lat="52.341570015996695" lon="13.874957012012601">
        <ele>37.630000000000003</ele>
        <time>2024-09-17T13:14:13Z</time>
      </trkpt>
      <trkpt lat="52.341465996578336" lon="13.875053990632296">
        <ele>37.630000000000003</ele>
        <time>2024-09-17T13:14:14Z</time>
      </trkpt>
      <trkpt lat="52.341362982988358" lon="13.875149041414261">
        <ele>38.109999999999999</ele>
        <time>2024-09-17T13:14:15Z</time>
      </trkpt>
      <trkpt lat="52.341275978833437" lon="13.875288013368845">
        <ele>37.630000000000003</ele>
        <time>2024-09-17T13:14:16Z</time>
      </trkpt>
      <trkpt lat="52.341199032962322" lon="13.875433020293713">
        <ele>37.630000000000003</ele>
        <time>2024-09-17T13:14:17Z</time>
      </trkpt>
      <trkpt lat="52.341120997443795" lon="13.875581966713071">
        <ele>37.630000000000003</ele>
        <time>2024-09-17T13:14:18Z</time>
      </trkpt>
      <trkpt lat="52.341060983017087" lon="13.875751029700041">
        <ele>37.630000000000003</ele>
        <time>2024-09-17T13:14:19Z</time>
      </trkpt>
      <trkpt lat="52.341001974418759" lon="13.875917997211218">
        <ele>37.630000000000003</ele>
        <time>2024-09-17T13:14:20Z</time>
      </trkpt>
      <trkpt lat="52.340970039367676" lon="13.876100974157453">
        <ele>37.630000000000003</ele>
        <time>2024-09-17T13:14:21Z</time>
      </trkpt>
      <trkpt lat="52.340941959992051" lon="13.876286968588829">
        <ele>38.109999999999999</ele>
        <time>2024-09-17T13:14:22Z</time>
      </trkpt>
      <trkpt lat="52.340914970263839" lon="13.876471035182476">
        <ele>38.109999999999999</ele>
        <time>2024-09-17T13:14:23Z</time>
      </trkpt>
      <trkpt lat="52.340887980535626" lon="13.876658035442233">
        <ele>38.109999999999999</ele>
        <time>2024-09-17T13:14:24Z</time>
      </trkpt>
      <trkpt lat="52.340866019949317" lon="13.876855010166764">
        <ele>38.109999999999999</ele>
        <time>2024-09-17T13:14:25Z</time>
      </trkpt>
      <trkpt lat="52.341133989393711" lon="13.878497024998069">
        <ele>38.109999999999999</ele>
        <time>2024-09-17T13:14:34Z</time>
      </trkpt>
      <trkpt lat="52.341441018506885" lon="13.879949022084475">
        <ele>38.590000000000003</ele>
        <time>2024-09-17T13:14:42Z</time>
      </trkpt>
      <trkpt lat="52.341477982699871" lon="13.880124036222696">
        <ele>38.590000000000003</ele>
        <time>2024-09-17T13:14:43Z</time>
      </trkpt>
      <trkpt lat="52.34162600710988" lon="13.881037998944521">
        <ele>40.030000000000001</ele>
        <time>2024-09-17T13:14:48Z</time>
      </trkpt>
      <trkpt lat="52.3419030290097" lon="13.883087961003184">
        <ele>39.549999999999997</ele>
        <time>2024-09-17T13:14:59Z</time>
      </trkpt>
      <trkpt lat="52.341929012909532" lon="13.88346497900784">
        <ele>39.549999999999997</ele>
        <time>2024-09-17T13:15:01Z</time>
      </trkpt>
      <trkpt lat="52.341905040666461" lon="13.883844008669257">
        <ele>40.030000000000001</ele>
        <time>2024-09-17T13:15:03Z</time>
      </trkpt>
      <trkpt lat="52.341877967119217" lon="13.884024973958731">
        <ele>40.030000000000001</ele>
        <time>2024-09-17T13:15:04Z</time>
      </trkpt>
      <trkpt lat="52.34183999709785" lon="13.884205017238855">
        <ele>39.549999999999997</ele>
        <time>2024-09-17T13:15:05Z</time>
      </trkpt>
      <trkpt lat="52.341383015736938" lon="13.885719040408731">
        <ele>37.630000000000003</ele>
        <time>2024-09-17T13:15:14Z</time>
      </trkpt>
      <trkpt lat="52.340815979987383" lon="13.887016978114843">
        <ele>35.229999999999997</ele>
        <time>2024-09-17T13:15:23Z</time>
      </trkpt>
      <trkpt lat="52.340774992480874" lon="13.887081015855074">
        <ele>35.229999999999997</ele>
        <time>2024-09-17T13:15:24Z</time>
      </trkpt>
      <trkpt lat="52.340692011639476" lon="13.887212025001645">
        <ele>35.229999999999997</ele>
        <time>2024-09-17T13:15:25Z</time>
      </trkpt>
      <trkpt lat="52.340698968619108" lon="13.887287965044379">
        <ele>34.740000000000002</ele>
        <time>2024-09-17T13:15:26Z</time>
      </trkpt>
      <trkpt lat="52.340707015246153" lon="13.887377986684442">
        <ele>34.740000000000002</ele>
        <time>2024-09-17T13:15:27Z</time>
      </trkpt>
      <trkpt lat="52.340716989710927" lon="13.887474965304136">
        <ele>34.740000000000002</ele>
        <time>2024-09-17T13:15:28Z</time>
      </trkpt>
      <trkpt lat="52.340725958347321" lon="13.887570016086102">
        <ele>34.259999999999998</ele>
        <time>2024-09-17T13:15:29Z</time>
      </trkpt>
      <trkpt lat="52.340732999145985" lon="13.887646961957216">
        <ele>34.259999999999998</ele>
        <time>2024-09-17T13:15:30Z</time>
      </trkpt>
      <trkpt lat="52.340724030509591" lon="13.887679986655712">
        <ele>34.259999999999998</ele>
        <time>2024-09-17T13:15:31Z</time>
      </trkpt>
      <trkpt lat="52.340682037174702" lon="13.887743018567562">
        <ele>33.780000000000001</ele>
        <time>2024-09-17T13:15:32Z</time>
      </trkpt>
      <trkpt lat="52.340630991384387" lon="13.887820970267057">
        <ele>33.780000000000001</ele>
        <time>2024-09-17T13:15:33Z</time>
      </trkpt>
      <trkpt lat="52.340577011927962" lon="13.887904034927487">
        <ele>33.780000000000001</ele>
        <time>2024-09-17T13:15:34Z</time>
      </trkpt>
      <trkpt lat="52.340422030538321" lon="13.888141997158527">
        <ele>32.82</ele>
        <time>2024-09-17T13:15:37Z</time>
      </trkpt>
      <trkpt lat="52.340381965041161" lon="13.888202011585236">
        <ele>32.82</ele>
        <time>2024-09-17T13:15:38Z</time>
      </trkpt>
      <trkpt lat="52.340393029153347" lon="13.88831801712513">
        <ele>32.340000000000003</ele>
        <time>2024-09-17T13:15:39Z</time>
      </trkpt>
      <trkpt lat="52.340417001396418" lon="13.888417007401586">
        <ele>31.859999999999999</ele>
        <time>2024-09-17T13:15:40Z</time>
      </trkpt>
      <trkpt lat="52.340441979467869" lon="13.888523960486054">
        <ele>31.379999999999999</ele>
        <time>2024-09-17T13:15:41Z</time>
      </trkpt>
      <trkpt lat="52.340477015823126" lon="13.888671984896064">
        <ele>31.379999999999999</ele>
        <time>2024-09-17T13:15:42Z</time>
      </trkpt>
      <trkpt lat="52.340492019429803" lon="13.888816991820931">
        <ele>30.899999999999999</ele>
        <time>2024-09-17T13:15:43Z</time>
      </trkpt>
      <trkpt lat="52.340509034693241" lon="13.888992005959153">
        <ele>30.420000000000002</ele>
        <time>2024-09-17T13:15:44Z</time>
      </trkpt>
      <trkpt lat="52.340524960309267" lon="13.889182023704052">
        <ele>29.940000000000001</ele>
        <time>2024-09-17T13:15:45Z</time>
      </trkpt>
      <trkpt lat="52.340567959472537" lon="13.889937987551093">
        <ele>28.5</ele>
        <time>2024-09-17T13:15:49Z</time>
      </trkpt>
      <trkpt lat="52.340579023584723" lon="13.890116019174457">
        <ele>28.5</ele>
        <time>2024-09-17T13:15:50Z</time>
      </trkpt>
      <trkpt lat="52.340674996376038" lon="13.891782006248832">
        <ele>28.5</ele>
        <time>2024-09-17T13:15:58Z</time>
      </trkpt>
      <trkpt lat="52.340829977765679" lon="13.894480979070067">
        <ele>28.98</ele>
        <time>2024-09-17T13:16:08Z</time>
      </trkpt>
      <trkpt lat="52.340939026325941" lon="13.896366991102695">
        <ele>29.940000000000001</ele>
        <time>2024-09-17T13:16:16Z</time>
      </trkpt>
      <trkpt lat="52.340953024104238" lon="13.896609982475638">
        <ele>29.940000000000001</ele>
        <time>2024-09-17T13:16:17Z</time>
      </trkpt>
      <trkpt lat="52.340968027710915" lon="13.896864037960768">
        <ele>29.940000000000001</ele>
        <time>2024-09-17T13:16:18Z</time>
      </trkpt>
      <trkpt lat="52.341071041300893" lon="13.898633038625121">
        <ele>30.420000000000002</ele>
        <time>2024-09-17T13:16:26Z</time>
      </trkpt>
      <trkpt lat="52.341182017698884" lon="13.90052399598062">
        <ele>30.420000000000002</ele>
        <time>2024-09-17T13:16:34Z</time>
      </trkpt>
      <trkpt lat="52.341317972168326" lon="13.903446011245251">
        <ele>31.379999999999999</ele>
        <time>2024-09-17T13:16:45Z</time>
      </trkpt>
      <trkpt lat="52.341401958838105" lon="13.905425984412432">
        <ele>29.460000000000001</ele>
        <time>2024-09-17T13:16:53Z</time>
      </trkpt>
      <trkpt lat="52.341548977419734" lon="13.90797802247107">
        <ele>27.050000000000001</ele>
        <time>2024-09-17T13:17:03Z</time>
      </trkpt>
      <trkpt lat="52.341658025979996" lon="13.909768983721733">
        <ele>24.649999999999999</ele>
        <time>2024-09-17T13:17:11Z</time>
      </trkpt>
      <trkpt lat="52.341794986277819" lon="13.911995971575379">
        <ele>20.809999999999999</ele>
        <time>2024-09-17T13:17:20Z</time>
      </trkpt>
      <trkpt lat="52.341933036223054" lon="13.914232011884451">
        <ele>17.440000000000001</ele>
        <time>2024-09-17T13:17:27Z</time>
      </trkpt>
      <trkpt lat="52.342038983479142" lon="13.916304018348455">
        <ele>16.48</ele>
        <time>2024-09-17T13:17:33Z</time>
      </trkpt>
      <trkpt lat="52.342211985960603" lon="13.918983964249492">
        <ele>16.48</ele>
        <time>2024-09-17T13:17:41Z</time>
      </trkpt>
      <trkpt lat="52.342392029240727" lon="13.921772036701441">
        <ele>16</ele>
        <time>2024-09-17T13:17:49Z</time>
      </trkpt>
      <trkpt lat="52.342494959011674" lon="13.923646984621882">
        <ele>17.440000000000001</ele>
        <time>2024-09-17T13:17:55Z</time>
      </trkpt>
      <trkpt lat="52.342509962618351" lon="13.923940015956759">
        <ele>17.440000000000001</ele>
        <time>2024-09-17T13:17:56Z</time>
      </trkpt>
      <trkpt lat="52.342671984806657" lon="13.926699003204703">
        <ele>18.399999999999999</ele>
        <time>2024-09-17T13:18:05Z</time>
      </trkpt>
      <trkpt lat="52.342821015045047" lon="13.929208964109421">
        <ele>18.879999999999999</ele>
        <time>2024-09-17T13:18:13Z</time>
      </trkpt>
      <trkpt lat="52.342985970899463" lon="13.931969041004777">
        <ele>18.879999999999999</ele>
        <time>2024-09-17T13:18:22Z</time>
      </trkpt>
      <trkpt lat="52.343104993924499" lon="13.93397499807179">
        <ele>17.440000000000001</ele>
        <time>2024-09-17T13:18:29Z</time>
      </trkpt>
      <trkpt lat="52.343118991702795" lon="13.93421002663672">
        <ele>17.440000000000001</ele>
        <time>2024-09-17T13:18:30Z</time>
      </trkpt>
      <trkpt lat="52.343131983652711" lon="13.934418987482786">
        <ele>16.960000000000001</ele>
        <time>2024-09-17T13:18:31Z</time>
      </trkpt>
      <trkpt lat="52.3431739769876" lon="13.935121977701783">
        <ele>16.48</ele>
        <time>2024-09-17T13:18:35Z</time>
      </trkpt>
      <trkpt lat="52.343181017786264" lon="13.935238989070058">
        <ele>16</ele>
        <time>2024-09-17T13:18:36Z</time>
      </trkpt>
      <trkpt lat="52.343191998079419" lon="13.935430012643337">
        <ele>15.039999999999999</ele>
        <time>2024-09-17T13:18:38Z</time>
      </trkpt>
      <trkpt lat="52.343157967552543" lon="13.93560896627605">
        <ele>14.56</ele>
        <time>2024-09-17T13:18:39Z</time>
      </trkpt>
      <trkpt lat="52.343092001974583" lon="13.935623969882727">
        <ele>14.08</ele>
        <time>2024-09-17T13:18:40Z</time>
      </trkpt>
      <trkpt lat="52.342998962849379" lon="13.935645008459687">
        <ele>14.08</ele>
        <time>2024-09-17T13:18:41Z</time>
      </trkpt>
      <trkpt lat="52.342884968966246" lon="13.935669986531138">
        <ele>13.119999999999999</ele>
        <time>2024-09-17T13:18:42Z</time>
      </trkpt>
      <trkpt lat="52.342753037810326" lon="13.935699993744493">
        <ele>12.630000000000001</ele>
        <time>2024-09-17T13:18:43Z</time>
      </trkpt>
      <trkpt lat="52.34261498786509" lon="13.935731006786227">
        <ele>11.67</ele>
        <time>2024-09-17T13:18:44Z</time>
      </trkpt>
      <trkpt lat="52.34130397439003" lon="13.936023032292724">
        <ele>-0.34</ele>
        <time>2024-09-17T13:18:53Z</time>
      </trkpt>
      <trkpt lat="52.341146981343627" lon="13.936078017577529">
        <ele>-1.79</ele>
        <time>2024-09-17T13:18:54Z</time>
      </trkpt>
      <trkpt lat="52.341007003560662" lon="13.936179019510746">
        <ele>-3.23</ele>
        <time>2024-09-17T13:18:55Z</time>
      </trkpt>
      <trkpt lat="52.339894976466894" lon="13.937039002776146">
        <ele>-13.800000000000001</ele>
        <time>2024-09-17T13:19:03Z</time>
      </trkpt>
      <trkpt lat="52.339684003964067" lon="13.937204964458942">
        <ele>-16.210000000000001</ele>
        <time>2024-09-17T13:19:05Z</time>
      </trkpt>
      <trkpt lat="52.339569004252553" lon="13.937355000525713">
        <ele>-17.170000000000002</ele>
        <time>2024-09-17T13:19:06Z</time>
      </trkpt>
      <trkpt lat="52.339529022574425" lon="13.937470000237226">
        <ele>-17.649999999999999</ele>
        <time>2024-09-17T13:19:07Z</time>
      </trkpt>
      <trkpt lat="52.339494992047548" lon="13.937566978856921">
        <ele>-17.170000000000002</ele>
        <time>2024-09-17T13:19:08Z</time>
      </trkpt>
      <trkpt lat="52.339454004541039" lon="13.937686001881957">
        <ele>-16.690000000000001</ele>
        <time>2024-09-17T13:19:09Z</time>
      </trkpt>
      <trkpt lat="52.339426008984447" lon="13.937828997150064">
        <ele>-16.690000000000001</ele>
        <time>2024-09-17T13:19:10Z</time>
      </trkpt>
      <trkpt lat="52.339426008984447" lon="13.938046004623175">
        <ele>-15.720000000000001</ele>
        <time>2024-09-17T13:19:11Z</time>
      </trkpt>
      <trkpt lat="52.339387033134699" lon="13.938226969912648">
        <ele>-15.24</ele>
        <time>2024-09-17T13:19:12Z</time>
      </trkpt>
      <trkpt lat="52.339316960424185" lon="13.938430985435843">
        <ele>-15.24</ele>
        <time>2024-09-17T13:19:13Z</time>
      </trkpt>
      <trkpt lat="52.339239008724689" lon="13.938582027330995">
        <ele>-14.76</ele>
        <time>2024-09-17T13:19:14Z</time>
      </trkpt>
      <trkpt lat="52.339164996519685" lon="13.93872401677072">
        <ele>-14.279999999999999</ele>
        <time>2024-09-17T13:19:15Z</time>
      </trkpt>
      <trkpt lat="52.339082015678287" lon="13.938883021473885">
        <ele>-14.76</ele>
        <time>2024-09-17T13:19:16Z</time>
      </trkpt>
      <trkpt lat="52.339082015678287" lon="13.93898201175034">
        <ele>-14.76</ele>
        <time>2024-09-17T13:19:17Z</time>
      </trkpt>
      <trkpt lat="52.339092995971441" lon="13.939150990918279">
        <ele>-14.279999999999999</ele>
        <time>2024-09-17T13:19:18Z</time>
      </trkpt>
      <trkpt lat="52.339144963771105" lon="13.939313013106585">
        <ele>-14.76</ele>
        <time>2024-09-17T13:19:19Z</time>
      </trkpt>
      <trkpt lat="52.339198021218181" lon="13.93947696313262">
        <ele>-14.76</ele>
        <time>2024-09-17T13:19:20Z</time>
      </trkpt>
      <trkpt lat="52.339253006502986" lon="13.93964602611959">
        <ele>-14.76</ele>
        <time>2024-09-17T13:19:21Z</time>
      </trkpt>
      <trkpt lat="52.339502032846212" lon="13.94042001105845">
        <ele>-14.76</ele>
        <time>2024-09-17T13:19:26Z</time>
      </trkpt>
      <trkpt lat="52.33954100869596" lon="13.940540961921215">
        <ele>-14.279999999999999</ele>
        <time>2024-09-17T13:19:27Z</time>
      </trkpt>
      <trkpt lat="52.339573027566075" lon="13.940641041845083">
        <ele>-13.800000000000001</ele>
        <time>2024-09-17T13:19:28Z</time>
      </trkpt>
      <trkpt lat="52.339603034779429" lon="13.940731985494494">
        <ele>-13.32</ele>
        <time>2024-09-17T13:19:29Z</time>
      </trkpt>
      <trkpt lat="52.339632036164403" lon="13.940824018791318">
        <ele>-12.359999999999999</ele>
        <time>2024-09-17T13:19:30Z</time>
      </trkpt>
      <trkpt lat="52.339666988700628" lon="13.940931977704167">
        <ele>-11.4</ele>
        <time>2024-09-17T13:19:31Z</time>
      </trkpt>
      <trkpt lat="52.339702025055885" lon="13.941040020436049">
        <ele>-9.960000000000001</ele>
        <time>2024-09-17T13:19:32Z</time>
      </trkpt>
      <trkpt lat="52.339731026440859" lon="13.941176980733871">
        <ele>-7.55</ele>
        <time>2024-09-17T13:19:33Z</time>
      </trkpt>
      <trkpt lat="52.339742006734014" lon="13.941315030679107">
        <ele>-5.15</ele>
        <time>2024-09-17T13:19:34Z</time>
      </trkpt>
      <trkpt lat="52.339751981198788" lon="13.941457020118833">
        <ele>-1.79</ele>
        <time>2024-09-17T13:19:35Z</time>
      </trkpt>
      <trkpt lat="52.339762961491942" lon="13.941598003730178">
        <ele>0.62</ele>
        <time>2024-09-17T13:19:36Z</time>
      </trkpt>
      <trkpt lat="52.339773019775748" lon="13.941729012876749">
        <ele>2.06</ele>
        <time>2024-09-17T13:19:37Z</time>
      </trkpt>
      <trkpt lat="52.33971300534904" lon="13.942047022283077">
        <ele>3.98</ele>
        <time>2024-09-17T13:19:38Z</time>
      </trkpt>
      <trkpt lat="52.339637987315655" lon="13.942137965932488">
        <ele>5.42</ele>
        <time>2024-09-17T13:19:39Z</time>
      </trkpt>
      <trkpt lat="52.339474959298968" lon="13.942367965355515">
        <ele>7.83</ele>
        <time>2024-09-17T13:19:41Z</time>
      </trkpt>
      <trkpt lat="52.338697034865618" lon="13.943942002952099">
        <ele>14.56</ele>
        <time>2024-09-17T13:19:50Z</time>
      </trkpt>
      <trkpt lat="52.338054981082678" lon="13.945525009185076">
        <ele>19.84</ele>
        <time>2024-09-17T13:20:00Z</time>
      </trkpt>
      <trkpt lat="52.338004019111395" lon="13.945653000846505">
        <ele>20.809999999999999</ele>
        <time>2024-09-17T13:20:01Z</time>
      </trkpt>
      <trkpt lat="52.337878961116076" lon="13.945904038846493">
        <ele>21.77</ele>
        <time>2024-09-17T13:20:03Z</time>
      </trkpt>
      <trkpt lat="52.337809978052974" lon="13.946040999144316">
        <ele>22.73</ele>
        <time>2024-09-17T13:20:04Z</time>
      </trkpt>
      <trkpt lat="52.336863996461034" lon="13.947375984862447">
        <ele>24.649999999999999</ele>
        <time>2024-09-17T13:20:16Z</time>
      </trkpt>
      <trkpt lat="52.336144996806979" lon="13.948491029441357">
        <ele>29.460000000000001</ele>
        <time>2024-09-17T13:20:27Z</time>
      </trkpt>
      <trkpt lat="52.33567301183939" lon="13.9495749771595">
        <ele>29.460000000000001</ele>
        <time>2024-09-17T13:20:37Z</time>
      </trkpt>
      <trkpt lat="52.335574021562934" lon="13.949801959097385">
        <ele>28.98</ele>
        <time>2024-09-17T13:20:41Z</time>
      </trkpt>
      <trkpt lat="52.335324995219707" lon="13.950373018160462">
        <ele>28.5</ele>
        <time>2024-09-17T13:20:47Z</time>
      </trkpt>
      <trkpt lat="52.335251988843083" lon="13.950538979843259">
        <ele>28.5</ele>
        <time>2024-09-17T13:20:48Z</time>
      </trkpt>
      <trkpt lat="52.334757037460804" lon="13.951760977506638">
        <ele>30.899999999999999</ele>
        <time>2024-09-17T13:20:56Z</time>
      </trkpt>
      <trkpt lat="52.334527960047126" lon="13.952318038791418">
        <ele>32.340000000000003</ele>
        <time>2024-09-17T13:21:01Z</time>
      </trkpt>
      <trkpt lat="52.334395023062825" lon="13.952563041821122">
        <ele>34.259999999999998</ele>
        <time>2024-09-17T13:21:07Z</time>
      </trkpt>
      <trkpt lat="52.334180027246475" lon="13.9529890101403">
        <ele>38.109999999999999</ele>
        <time>2024-09-17T13:21:21Z</time>
      </trkpt>
      <trkpt lat="52.334209028631449" lon="13.95301298238337">
        <ele>38.109999999999999</ele>
        <time>2024-09-17T13:21:22Z</time>
      </trkpt>
      <trkpt lat="52.334264013916254" lon="13.95305598154664">
        <ele>38.109999999999999</ele>
        <time>2024-09-17T13:21:23Z</time>
      </trkpt>
      <trkpt lat="52.334574982523918" lon="13.953343983739614">
        <ele>37.630000000000003</ele>
        <time>2024-09-17T13:21:27Z</time>
      </trkpt>
      <trkpt lat="52.334645977243781" lon="13.953431993722916">
        <ele>37.630000000000003</ele>
        <time>2024-09-17T13:21:28Z</time>
      </trkpt>
      <trkpt lat="52.334669027477503" lon="13.953626034781337">
        <ele>37.630000000000003</ele>
        <time>2024-09-17T13:21:29Z</time>
      </trkpt>
      <trkpt lat="52.334676990285516" lon="13.953796019777656">
        <ele>37.630000000000003</ele>
        <time>2024-09-17T13:21:30Z</time>
      </trkpt>
      <trkpt lat="52.33468503691256" lon="13.953984025865793">
        <ele>37.630000000000003</ele>
        <time>2024-09-17T13:21:31Z</time>
      </trkpt>
      <trkpt lat="52.334786038845778" lon="13.95483797416091">
        <ele>37.630000000000003</ele>
        <time>2024-09-17T13:21:35Z</time>
      </trkpt>
      <trkpt lat="52.33483700081706" lon="13.95507400855422">
        <ele>37.630000000000003</ele>
        <time>2024-09-17T13:21:36Z</time>
      </trkpt>
      <trkpt lat="52.335246037691832" lon="13.956876033917069">
        <ele>36.670000000000002</ele>
        <time>2024-09-17T13:21:43Z</time>
      </trkpt>
      <trkpt lat="52.335749035701156" lon="13.959246017038822">
        <ele>36.670000000000002</ele>
        <time>2024-09-17T13:21:50Z</time>
      </trkpt>
      <trkpt lat="52.336354963481426" lon="13.962274985387921">
        <ele>38.590000000000003</ele>
        <time>2024-09-17T13:21:58Z</time>
      </trkpt>
      <trkpt lat="52.337162978947163" lon="13.965808041393757">
        <ele>41.950000000000003</ele>
        <time>2024-09-17T13:22:07Z</time>
      </trkpt>
      <trkpt lat="52.338051963597536" lon="13.968810020014644">
        <ele>45.32</ele>
        <time>2024-09-17T13:22:15Z</time>
      </trkpt>
      <trkpt lat="52.33902501873672" lon="13.972091032192111">
        <ele>48.200000000000003</ele>
        <time>2024-09-17T13:22:24Z</time>
      </trkpt>
      <trkpt lat="52.339775031432509" lon="13.974451962858438">
        <ele>50.130000000000003</ele>
        <time>2024-09-17T13:22:32Z</time>
      </trkpt>
      <trkpt lat="52.340494031086564" lon="13.976745000109076">
        <ele>50.609999999999999</ele>
        <time>2024-09-17T13:22:39Z</time>
      </trkpt>
      <trkpt lat="52.341438001021743" lon="13.979839012026787">
        <ele>49.159999999999997</ele>
        <time>2024-09-17T13:22:47Z</time>
      </trkpt>
      <trkpt lat="52.342086005955935" lon="13.981963992118835">
        <ele>49.159999999999997</ele>
        <time>2024-09-17T13:22:53Z</time>
      </trkpt>
      <trkpt lat="52.34287298284471" lon="13.984543019905686">
        <ele>49.159999999999997</ele>
        <time>2024-09-17T13:23:00Z</time>
      </trkpt>
      <trkpt lat="52.343649985268712" lon="13.987089022994041">
        <ele>47.240000000000002</ele>
        <time>2024-09-17T13:23:07Z</time>
      </trkpt>
      <trkpt lat="52.344334032386541" lon="13.989333026111126">
        <ele>44.840000000000003</ele>
        <time>2024-09-17T13:23:13Z</time>
      </trkpt>
      <trkpt lat="52.345337010920048" lon="13.992617977783084">
        <ele>42.439999999999998</ele>
        <time>2024-09-17T13:23:22Z</time>
      </trkpt>
      <trkpt lat="52.346406038850546" lon="13.996138041839004">
        <ele>40.990000000000002</ele>
        <time>2024-09-17T13:23:32Z</time>
      </trkpt>
      <trkpt lat="52.347065024077892" lon="13.998327981680632">
        <ele>38.590000000000003</ele>
        <time>2024-09-17T13:23:38Z</time>
      </trkpt>
      <trkpt lat="52.347768014296889" lon="14.000327987596393">
        <ele>37.149999999999999</ele>
        <time>2024-09-17T13:23:45Z</time>
      </trkpt>
      <trkpt lat="52.347916960716248" lon="14.00057902559638">
        <ele>36.670000000000002</ele>
        <time>2024-09-17T13:23:46Z</time>
      </trkpt>
      <trkpt lat="52.349287988618016" lon="14.002424972131848">
        <ele>34.740000000000002</ele>
        <time>2024-09-17T13:23:54Z</time>
      </trkpt>
      <trkpt lat="52.34963801689446" lon="14.002816993743181">
        <ele>33.780000000000001</ele>
        <time>2024-09-17T13:23:56Z</time>
      </trkpt>
      <trkpt lat="52.350058034062386" lon="14.003070965409279">
        <ele>32.82</ele>
        <time>2024-09-17T13:23:58Z</time>
      </trkpt>
      <trkpt lat="52.351326970383525" lon="14.003949975594878">
        <ele>30.899999999999999</ele>
        <time>2024-09-17T13:24:04Z</time>
      </trkpt>
      <trkpt lat="52.351522017270327" lon="14.004183998331428">
        <ele>30.420000000000002</ele>
        <time>2024-09-17T13:24:05Z</time>
      </trkpt>
      <trkpt lat="52.35187103971839" lon="14.004714991897345">
        <ele>29.940000000000001</ele>
        <time>2024-09-17T13:24:07Z</time>
      </trkpt>
      <trkpt lat="52.352021997794509" lon="14.005015986040235">
        <ele>29.460000000000001</ele>
        <time>2024-09-17T13:24:08Z</time>
      </trkpt>
      <trkpt lat="52.352163987234235" lon="14.005299964919686">
        <ele>29.460000000000001</ele>
        <time>2024-09-17T13:24:09Z</time>
      </trkpt>
      <trkpt lat="52.352263983339071" lon="14.005612023174763">
        <ele>28.98</ele>
        <time>2024-09-17T13:24:10Z</time>
      </trkpt>
      <trkpt lat="52.352357022464275" lon="14.00590798817575">
        <ele>28.98</ele>
        <time>2024-09-17T13:24:11Z</time>
      </trkpt>
      <trkpt lat="52.352426005527377" lon="14.006203031167388">
        <ele>28.98</ele>
        <time>2024-09-17T13:24:12Z</time>
      </trkpt>
      <trkpt lat="52.352721970528364" lon="14.007557965815067">
        <ele>28.98</ele>
        <time>2024-09-17T13:24:17Z</time>
      </trkpt>
      <trkpt lat="52.353251036256552" lon="14.010005984455347">
        <ele>27.530000000000001</ele>
        <time>2024-09-17T13:24:25Z</time>
      </trkpt>
      <trkpt lat="52.353866016492248" lon="14.012672016397119">
        <ele>26.09</ele>
        <time>2024-09-17T13:24:33Z</time>
      </trkpt>
      <trkpt lat="52.354616029188037" lon="14.014876959845424">
        <ele>24.649999999999999</ele>
        <time>2024-09-17T13:24:40Z</time>
      </trkpt>
      <trkpt lat="52.355035962536931" lon="14.016015976667404">
        <ele>22.73</ele>
        <time>2024-09-17T13:24:46Z</time>
      </trkpt>
      <trkpt lat="52.355360006913543" lon="14.016898004338145">
        <ele>21.77</ele>
        <time>2024-09-17T13:24:52Z</time>
      </trkpt>
      <trkpt lat="52.35541901551187" lon="14.017059020698071">
        <ele>21.77</ele>
        <time>2024-09-17T13:24:53Z</time>
      </trkpt>
      <trkpt lat="52.356015974655747" lon="14.018684020265937">
        <ele>23.690000000000001</ele>
        <time>2024-09-17T13:25:03Z</time>
      </trkpt>
      <trkpt lat="52.356073977425694" lon="14.01884201914072">
        <ele>23.690000000000001</ele>
        <time>2024-09-17T13:25:04Z</time>
      </trkpt>
      <trkpt lat="52.356902025640011" lon="14.020946966484189">
        <ele>28.98</ele>
        <time>2024-09-17T13:25:17Z</time>
      </trkpt>
      <trkpt lat="52.357682967558503" lon="14.022466018795967">
        <ele>28.98</ele>
        <time>2024-09-17T13:25:27Z</time>
      </trkpt>
      <trkpt lat="52.358387969434261" lon="14.023792035877705">
        <ele>27.530000000000001</ele>
        <time>2024-09-17T13:25:36Z</time>
      </trkpt>
      <trkpt lat="52.358980989083648" lon="14.024967011064291">
        <ele>25.129999999999999</ele>
        <time>2024-09-17T13:25:42Z</time>
      </trkpt>
      <trkpt lat="52.359088025987148" lon="14.025230035185814">
        <ele>24.649999999999999</ele>
        <time>2024-09-17T13:25:43Z</time>
      </trkpt>
      <trkpt lat="52.359173018485308" lon="14.025522982701659">
        <ele>24.170000000000002</ele>
        <time>2024-09-17T13:25:44Z</time>
      </trkpt>
      <trkpt lat="52.359261028468609" lon="14.02582498267293">
        <ele>23.690000000000001</ele>
        <time>2024-09-17T13:25:45Z</time>
      </trkpt>
      <trkpt lat="52.359344009310007" lon="14.026148021221161">
        <ele>23.210000000000001</ele>
        <time>2024-09-17T13:25:46Z</time>
      </trkpt>
      <trkpt lat="52.359391031786799" lon="14.02649100869894">
        <ele>22.73</ele>
        <time>2024-09-17T13:25:47Z</time>
      </trkpt>
      <trkpt lat="52.359427995979786" lon="14.0268540289253">
        <ele>22.73</ele>
        <time>2024-09-17T13:25:48Z</time>
      </trkpt>
      <trkpt lat="52.35943797044456" lon="14.027219982817769">
        <ele>22.25</ele>
        <time>2024-09-17T13:25:49Z</time>
      </trkpt>
      <trkpt lat="52.359363036230206" lon="14.029919039458036">
        <ele>21.289999999999999</ele>
        <time>2024-09-17T13:25:56Z</time>
      </trkpt>
      <trkpt lat="52.35926304012537" lon="14.032821021974087">
        <ele>21.77</ele>
        <time>2024-09-17T13:26:04Z</time>
      </trkpt>
      <trkpt lat="52.35917997546494" lon="14.035388985648751">
        <ele>22.25</ele>
        <time>2024-09-17T13:26:12Z</time>
      </trkpt>
      <trkpt lat="52.359106969088316" lon="14.037753017619252">
        <ele>22.25</ele>
        <time>2024-09-17T13:26:20Z</time>
      </trkpt>
      <trkpt lat="52.359100012108684" lon="14.03798796236515">
        <ele>22.25</ele>
        <time>2024-09-17T13:26:21Z</time>
      </trkpt>
      <trkpt lat="52.359059024602175" lon="14.039376005530357">
        <ele>22.73</ele>
        <time>2024-09-17T13:26:28Z</time>
      </trkpt>
      <trkpt lat="52.359051983803511" lon="14.039698960259557">
        <ele>23.210000000000001</ele>
        <time>2024-09-17T13:26:35Z</time>
      </trkpt>
      <trkpt lat="52.359051983803511" lon="14.039698960259557">
        <ele>24.170000000000002</ele>
        <time>2024-09-17T13:26:53Z</time>
      </trkpt>
      <trkpt lat="52.358513027429581" lon="14.03860897757113">
        <ele>92.420000000000002</ele>
        <time>2024-09-17T13:29:01Z</time>
      </trkpt>
      <trkpt lat="52.359036980196834" lon="14.040002971887589">
        <ele>53.969999999999999</ele>
        <time>2024-09-17T13:29:18Z</time>
      </trkpt>
      <trkpt lat="52.359033040702343" lon="14.040071032941341">
        <ele>53.490000000000002</ele>
        <time>2024-09-17T13:29:19Z</time>
      </trkpt>
      <trkpt lat="52.35902801156044" lon="14.040162982419133">
        <ele>52.530000000000001</ele>
        <time>2024-09-17T13:29:20Z</time>
      </trkpt>
      <trkpt lat="52.358980989083648" lon="14.041333012282848">
        <ele>45.799999999999997</ele>
        <time>2024-09-17T13:29:27Z</time>
      </trkpt>
      <trkpt lat="52.358924997970462" lon="14.04342002235353">
        <ele>41.469999999999999</ele>
        <time>2024-09-17T13:29:36Z</time>
      </trkpt>
      <trkpt lat="52.358870012685657" lon="14.045147029682994">
        <ele>39.549999999999997</ele>
        <time>2024-09-17T13:29:44Z</time>
      </trkpt>
      <trkpt lat="52.358788959681988" lon="14.046462988480926">
        <ele>39.07</ele>
        <time>2024-09-17T13:29:50Z</time>
      </trkpt>
      <trkpt lat="52.358766999095678" lon="14.046690976247191">
        <ele>39.07</ele>
        <time>2024-09-17T13:29:51Z</time>
      </trkpt>
      <trkpt lat="52.358674965798855" lon="14.047108981758356">
        <ele>38.590000000000003</ele>
        <time>2024-09-17T13:29:53Z</time>
      </trkpt>
      <trkpt lat="52.358439015224576" lon="14.048051023855805">
        <ele>38.109999999999999</ele>
        <time>2024-09-17T13:29:58Z</time>
      </trkpt>
      <trkpt lat="52.358392998576164" lon="14.048236012458801">
        <ele>38.109999999999999</ele>
        <time>2024-09-17T13:29:59Z</time>
      </trkpt>
      <trkpt lat="52.358001982793212" lon="14.049373017624021">
        <ele>38.109999999999999</ele>
        <time>2024-09-17T13:30:06Z</time>
      </trkpt>
      <trkpt lat="52.357349032536149" lon="14.051036993041635">
        <ele>35.710000000000001</ele>
        <time>2024-09-17T13:30:16Z</time>
      </trkpt>
      <trkpt lat="52.356675965711474" lon="14.052867013961077">
        <ele>34.259999999999998</ele>
        <time>2024-09-17T13:30:27Z</time>
      </trkpt>
      <trkpt lat="52.35655702650547" lon="14.053333969786763">
        <ele>32.82</ele>
        <time>2024-09-17T13:30:31Z</time>
      </trkpt>
      <trkpt lat="52.356442026793957" lon="14.053788017481565">
        <ele>31.859999999999999</ele>
        <time>2024-09-17T13:30:34Z</time>
      </trkpt>
      <trkpt lat="52.356378994882107" lon="14.053929001092911">
        <ele>31.859999999999999</ele>
        <time>2024-09-17T13:30:35Z</time>
      </trkpt>
      <trkpt lat="52.356335995718837" lon="14.054025979712605">
        <ele>32.340000000000003</ele>
        <time>2024-09-17T13:30:36Z</time>
      </trkpt>
      <trkpt lat="52.356270030140877" lon="14.054175009950995">
        <ele>32.340000000000003</ele>
        <time>2024-09-17T13:30:37Z</time>
      </trkpt>
      <trkpt lat="52.356196017935872" lon="14.054223960265517">
        <ele>32.340000000000003</ele>
        <time>2024-09-17T13:30:38Z</time>
      </trkpt>
      <trkpt lat="52.356076994910836" lon="14.054303001612425">
        <ele>32.340000000000003</ele>
        <time>2024-09-17T13:30:39Z</time>
      </trkpt>
      <trkpt lat="52.355984961614013" lon="14.054337032139301">
        <ele>32.340000000000003</ele>
        <time>2024-09-17T13:30:40Z</time>
      </trkpt>
      <trkpt lat="52.355886977165937" lon="14.054372990503907">
        <ele>32.340000000000003</ele>
        <time>2024-09-17T13:30:41Z</time>
      </trkpt>
      <trkpt lat="52.355789998546243" lon="14.054408026859164">
        <ele>32.340000000000003</ele>
        <time>2024-09-17T13:30:42Z</time>
      </trkpt>
      <trkpt lat="52.355701988562942" lon="14.054439961910248">
        <ele>32.340000000000003</ele>
        <time>2024-09-17T13:30:43Z</time>
      </trkpt>
      <trkpt lat="52.355509037151933" lon="14.054511040449142">
        <ele>33.299999999999997</ele>
        <time>2024-09-17T13:30:45Z</time>
      </trkpt>
      <trkpt lat="52.355406023561954" lon="14.054548004642129">
        <ele>33.780000000000001</ele>
        <time>2024-09-17T13:30:46Z</time>
      </trkpt>
      <trkpt lat="52.35445300117135" lon="14.054912030696869">
        <ele>36.189999999999998</ele>
        <time>2024-09-17T13:30:56Z</time>
      </trkpt>
      <trkpt lat="52.353393025696278" lon="14.055328024551272">
        <ele>36.670000000000002</ele>
        <time>2024-09-17T13:31:06Z</time>
      </trkpt>
      <trkpt lat="52.352667991071939" lon="14.05560496263206">
        <ele>39.07</ele>
        <time>2024-09-17T13:31:13Z</time>
      </trkpt>
      <trkpt lat="52.351697031408548" lon="14.055995978415012">
        <ele>40.509999999999998</ele>
        <time>2024-09-17T13:31:22Z</time>
      </trkpt>
      <trkpt lat="52.351290006190538" lon="14.056162023916841">
        <ele>40.030000000000001</ele>
        <time>2024-09-17T13:31:26Z</time>
      </trkpt>
      <trkpt lat="52.351239966228604" lon="14.056181972846389">
        <ele>40.030000000000001</ele>
        <time>2024-09-17T13:31:27Z</time>
      </trkpt>
      <trkpt lat="52.351192021742463" lon="14.056200999766588">
        <ele>40.509999999999998</ele>
        <time>2024-09-17T13:31:34Z</time>
      </trkpt>
      <trkpt lat="52.351089008152485" lon="14.056242993101478">
        <ele>40.030000000000001</ele>
        <time>2024-09-17T13:32:10Z</time>
      </trkpt>
      <trkpt lat="52.351042991504073" lon="14.056261014193296">
        <ele>40.030000000000001</ele>
        <time>2024-09-17T13:32:11Z</time>
      </trkpt>
      <trkpt lat="52.3509949631989" lon="14.056280041113496">
        <ele>40.030000000000001</ele>
        <time>2024-09-17T13:32:12Z</time>
      </trkpt>
      <trkpt lat="52.350911982357502" lon="14.056191025301814">
        <ele>40.030000000000001</ele>
        <time>2024-09-17T13:32:13Z</time>
      </trkpt>
      <trkpt lat="52.350882980972528" lon="14.056101003661752">
        <ele>40.030000000000001</ele>
        <time>2024-09-17T13:32:14Z</time>
      </trkpt>
      <trkpt lat="52.350844005122781" lon="14.055984998121858">
        <ele>40.509999999999998</ele>
        <time>2024-09-17T13:32:15Z</time>
      </trkpt>
      <trkpt lat="52.350803017616272" lon="14.055863963440061">
        <ele>40.509999999999998</ele>
        <time>2024-09-17T13:32:16Z</time>
      </trkpt>
      <trkpt lat="52.350761024281383" lon="14.055736977607012">
        <ele>40.509999999999998</ele>
        <time>2024-09-17T13:32:17Z</time>
      </trkpt>
      <trkpt lat="52.350582992658019" lon="14.055220987647772">
        <ele>38.590000000000003</ele>
        <time>2024-09-17T13:32:21Z</time>
      </trkpt>
      <trkpt lat="52.350539993494749" lon="14.055098025128245">
        <ele>38.109999999999999</ele>
        <time>2024-09-17T13:32:22Z</time>
      </trkpt>
      <trkpt lat="52.349910009652376" lon="14.053320977836847">
        <ele>36.189999999999998</ele>
        <time>2024-09-17T13:32:36Z</time>
      </trkpt>
      <trkpt lat="52.349427966400981" lon="14.052138961851597">
        <ele>36.189999999999998</ele>
        <time>2024-09-17T13:32:45Z</time>
      </trkpt>
      <trkpt lat="52.349356971681118" lon="14.052019016817212">
        <ele>35.710000000000001</ele>
        <time>2024-09-17T13:32:46Z</time>
      </trkpt>
      <trkpt lat="52.349285976961255" lon="14.051898987963796">
        <ele>35.710000000000001</ele>
        <time>2024-09-17T13:32:47Z</time>
      </trkpt>
      <trkpt lat="52.349210036918521" lon="14.051770996302366">
        <ele>35.710000000000001</ele>
        <time>2024-09-17T13:32:48Z</time>
      </trkpt>
      <trkpt lat="52.349138036370277" lon="14.051678963005543">
        <ele>35.710000000000001</ele>
        <time>2024-09-17T13:32:49Z</time>
      </trkpt>
      <trkpt lat="52.348704021424055" lon="14.051128020510077">
        <ele>35.229999999999997</ele>
        <time>2024-09-17T13:32:55Z</time>
      </trkpt>
      <trkpt lat="52.348568988963962" lon="14.050956023856997">
        <ele>34.740000000000002</ele>
        <time>2024-09-17T13:32:57Z</time>
      </trkpt>
      <trkpt lat="52.347610015422106" lon="14.049745006486773">
        <ele>34.259999999999998</ele>
        <time>2024-09-17T13:33:09Z</time>
      </trkpt>
      <trkpt lat="52.346585998311639" lon="14.048445979133248">
        <ele>33.780000000000001</ele>
        <time>2024-09-17T13:33:18Z</time>
      </trkpt>
      <trkpt lat="52.345615038648248" lon="14.047179976478219">
        <ele>34.259999999999998</ele>
        <time>2024-09-17T13:33:25Z</time>
      </trkpt>
      <trkpt lat="52.344681965187192" lon="14.045797968283296">
        <ele>38.590000000000003</ele>
        <time>2024-09-17T13:33:31Z</time>
      </trkpt>
      <trkpt lat="52.343282019719481" lon="14.043664019554853">
        <ele>46.280000000000001</ele>
        <time>2024-09-17T13:33:40Z</time>
      </trkpt>
      <trkpt lat="52.342172004282475" lon="14.041983028873801">
        <ele>53.969999999999999</ele>
        <time>2024-09-17T13:33:48Z</time>
      </trkpt>
      <trkpt lat="52.340152971446514" lon="14.038921035826206">
        <ele>59.740000000000002</ele>
        <time>2024-09-17T13:34:01Z</time>
      </trkpt>
      <trkpt lat="52.338297972455621" lon="14.036132041364908">
        <ele>61.18</ele>
        <time>2024-09-17T13:34:14Z</time>
      </trkpt>
      <trkpt lat="52.337015038356185" lon="14.034195989370346">
        <ele>61.659999999999997</ele>
        <time>2024-09-17T13:34:24Z</time>
      </trkpt>
      <trkpt lat="52.335680974647403" lon="14.032158013433218">
        <ele>63.579999999999998</ele>
        <time>2024-09-17T13:34:36Z</time>
      </trkpt>
      <trkpt lat="52.335142018273473" lon="14.031037017703056">
        <ele>65.030000000000001</ele>
        <time>2024-09-17T13:34:44Z</time>
      </trkpt>
      <trkpt lat="52.334351018071175" lon="14.029113035649061">
        <ele>63.579999999999998</ele>
        <time>2024-09-17T13:34:58Z</time>
      </trkpt>
      <trkpt lat="52.333810972049832" lon="14.028026992455125">
        <ele>62.140000000000001</ele>
        <time>2024-09-17T13:35:06Z</time>
      </trkpt>
      <trkpt lat="52.333721034228802" lon="14.02794904075563">
        <ele>62.140000000000001</ele>
        <time>2024-09-17T13:35:07Z</time>
      </trkpt>
      <trkpt lat="52.333627995103598" lon="14.027888020500541">
        <ele>61.659999999999997</ele>
        <time>2024-09-17T13:35:08Z</time>
      </trkpt>
      <trkpt lat="52.332552010193467" lon="14.027363983914256">
        <ele>59.259999999999998</ele>
        <time>2024-09-17T13:35:18Z</time>
      </trkpt>
      <trkpt lat="52.332111960276961" lon="14.027148988097906">
        <ele>59.259999999999998</ele>
        <time>2024-09-17T13:35:22Z</time>
      </trkpt>
      <trkpt lat="52.332010036334395" lon="14.027106994763017">
        <ele>59.259999999999998</ele>
        <time>2024-09-17T13:35:23Z</time>
      </trkpt>
      <trkpt lat="52.331807026639581" lon="14.027046980336308">
        <ele>59.740000000000002</ele>
        <time>2024-09-17T13:35:25Z</time>
      </trkpt>
      <trkpt lat="52.331519024446607" lon="14.02696299366653">
        <ele>60.219999999999999</ele>
        <time>2024-09-17T13:35:28Z</time>
      </trkpt>
      <trkpt lat="52.331427996978164" lon="14.026937009766698">
        <ele>60.219999999999999</ele>
        <time>2024-09-17T13:35:29Z</time>
      </trkpt>
      <trkpt lat="52.331344010308385" lon="14.026912031695247">
        <ele>60.700000000000003</ele>
        <time>2024-09-17T13:35:30Z</time>
      </trkpt>
      <trkpt lat="52.331264968961477" lon="14.026888981461525">
        <ele>60.700000000000003</ele>
        <time>2024-09-17T13:35:31Z</time>
      </trkpt>
      <trkpt lat="52.331181988120079" lon="14.026865009218454">
        <ele>61.18</ele>
        <time>2024-09-17T13:35:32Z</time>
      </trkpt>
      <trkpt lat="52.330769011750817" lon="14.026743974536657">
        <ele>61.18</ele>
        <time>2024-09-17T13:35:38Z</time>
      </trkpt>
      <trkpt lat="52.330719977617264" lon="14.026729976758361">
        <ele>61.18</ele>
        <time>2024-09-17T13:35:39Z</time>
      </trkpt>
      <trkpt lat="52.33060397207737" lon="14.026696030050516">
        <ele>61.18</ele>
        <time>2024-09-17T13:35:46Z</time>
      </trkpt>
      <trkpt lat="52.330545969307423" lon="14.026679014787078">
        <ele>61.659999999999997</ele>
        <time>2024-09-17T13:35:49Z</time>
      </trkpt>
      <trkpt lat="52.330545969307423" lon="14.026679014787078">
        <ele>62.140000000000001</ele>
        <time>2024-09-17T13:36:02Z</time>
      </trkpt>
      <trkpt lat="52.330503975972533" lon="14.026909014210105">
        <ele>67.909999999999997</ele>
        <time>2024-09-17T14:11:26Z</time>
      </trkpt>
      <trkpt lat="52.330505987629294" lon="14.026903985068202">
        <ele>68.390000000000001</ele>
        <time>2024-09-17T14:12:11Z</time>
      </trkpt>
      <trkpt lat="52.330519985407591" lon="14.026881018653512">
        <ele>67.909999999999997</ele>
        <time>2024-09-17T14:13:00Z</time>
      </trkpt>
      <trkpt lat="52.33051797375083" lon="14.02687699533999">
        <ele>68.390000000000001</ele>
        <time>2024-09-17T14:13:44Z</time>
      </trkpt>
      <trkpt lat="52.33051504008472" lon="14.02687699533999">
        <ele>68.870000000000005</ele>
        <time>2024-09-17T14:14:30Z</time>
      </trkpt>
      <trkpt lat="52.33051897957921" lon="14.026867020875216">
        <ele>68.390000000000001</ele>
        <time>2024-09-17T14:15:17Z</time>
      </trkpt>
      <trkpt lat="52.330525014549494" lon="14.026860985904932">
        <ele>68.390000000000001</ele>
        <time>2024-09-17T14:15:40Z</time>
      </trkpt>
      <trkpt lat="52.330525014549494" lon="14.026860985904932">
        <ele>68.390000000000001</ele>
        <time>2024-09-17T14:15:43Z</time>
      </trkpt>
      <trkpt lat="52.330469023436308" lon="14.026656970381737">
        <ele>67.430000000000007</ele>
        <time>2024-09-17T14:15:57Z</time>
      </trkpt>
      <trkpt lat="52.330399034544826" lon="14.026636015623808">
        <ele>66.950000000000003</ele>
        <time>2024-09-17T14:15:58Z</time>
      </trkpt>
      <trkpt lat="52.330322004854679" lon="14.026613971218467">
        <ele>66.950000000000003</ele>
        <time>2024-09-17T14:15:59Z</time>
      </trkpt>
      <trkpt lat="52.330027967691422" lon="14.026527972891927">
        <ele>66.950000000000003</ele>
        <time>2024-09-17T14:16:03Z</time>
      </trkpt>
      <trkpt lat="52.329948004335165" lon="14.026504000648856">
        <ele>66.950000000000003</ele>
        <time>2024-09-17T14:16:04Z</time>
      </trkpt>
      <trkpt lat="52.329868962988257" lon="14.026481034234166">
        <ele>67.430000000000007</ele>
        <time>2024-09-17T14:16:05Z</time>
      </trkpt>
      <trkpt lat="52.329788999632001" lon="14.026457984000444">
        <ele>67.430000000000007</ele>
        <time>2024-09-17T14:16:06Z</time>
      </trkpt>
      <trkpt lat="52.329708030447364" lon="14.026434011757374">
        <ele>67.909999999999997</ele>
        <time>2024-09-17T14:16:07Z</time>
      </trkpt>
      <trkpt lat="52.329623037949204" lon="14.026410039514303">
        <ele>68.390000000000001</ele>
        <time>2024-09-17T14:16:08Z</time>
      </trkpt>
      <trkpt lat="52.329040998592973" lon="14.026219015941024">
        <ele>71.760000000000005</ele>
        <time>2024-09-17T14:16:14Z</time>
      </trkpt>
      <trkpt lat="52.328941002488136" lon="14.026156989857554">
        <ele>72.239999999999995</ele>
        <time>2024-09-17T14:16:15Z</time>
      </trkpt>
      <trkpt lat="52.328838994726539" lon="14.026094041764736">
        <ele>71.760000000000005</ele>
        <time>2024-09-17T14:16:16Z</time>
      </trkpt>
      <trkpt lat="52.328546969220042" lon="14.025915004312992">
        <ele>71.760000000000005</ele>
        <time>2024-09-17T14:16:19Z</time>
      </trkpt>
      <trkpt lat="52.328275982290506" lon="14.025665977969766">
        <ele>71.269999999999996</ele>
        <time>2024-09-17T14:16:22Z</time>
      </trkpt>
      <trkpt lat="52.328180009499192" lon="14.025555001571774">
        <ele>71.269999999999996</ele>
        <time>2024-09-17T14:16:23Z</time>
      </trkpt>
      <trkpt lat="52.328094011172652" lon="14.025440001860261">
        <ele>71.269999999999996</ele>
        <time>2024-09-17T14:16:24Z</time>
      </trkpt>
      <trkpt lat="52.327304016798735" lon="14.024095041677356">
        <ele>72.239999999999995</ele>
        <time>2024-09-17T14:16:34Z</time>
      </trkpt>
      <trkpt lat="52.326787021011114" lon="14.022811017930508">
        <ele>72.239999999999995</ele>
        <time>2024-09-17T14:16:42Z</time>
      </trkpt>
      <trkpt lat="52.326018987223506" lon="14.021052997559309">
        <ele>66.469999999999999</ele>
        <time>2024-09-17T14:16:53Z</time>
      </trkpt>
      <trkpt lat="52.32551003806293" lon="14.019869975745678">
        <ele>63.100000000000001</ele>
        <time>2024-09-17T14:16:59Z</time>
      </trkpt>
      <trkpt lat="52.324657011777163" lon="14.01791900396347">
        <ele>57.340000000000003</ele>
        <time>2024-09-17T14:17:06Z</time>
      </trkpt>
      <trkpt lat="52.32452399097383" lon="14.017614992335439">
        <ele>56.859999999999999</ele>
        <time>2024-09-17T14:17:07Z</time>
      </trkpt>
      <trkpt lat="52.323373993858695" lon="14.014986008405685">
        <ele>51.090000000000003</ele>
        <time>2024-09-17T14:17:15Z</time>
      </trkpt>
      <trkpt lat="52.322346959263086" lon="14.012791961431503">
        <ele>44.359999999999999</ele>
        <time>2024-09-17T14:17:22Z</time>
      </trkpt>
      <trkpt lat="52.322163982316852" lon="14.01254897005856">
        <ele>43.399999999999999</ele>
        <time>2024-09-17T14:17:23Z</time>
      </trkpt>
      <trkpt lat="52.321972958743572" lon="14.012302961200476">
        <ele>42.920000000000002</ele>
        <time>2024-09-17T14:17:24Z</time>
      </trkpt>
      <trkpt lat="52.320716008543968" lon="14.011046011000872">
        <ele>41.469999999999999</ele>
        <time>2024-09-17T14:17:30Z</time>
      </trkpt>
      <trkpt lat="52.319459980353713" lon="14.010022999718785">
        <ele>43.399999999999999</ele>
        <time>2024-09-17T14:17:37Z</time>
      </trkpt>
      <trkpt lat="52.317642029374838" lon="14.00852800346911">
        <ele>43.880000000000003</ele>
        <time>2024-09-17T14:17:47Z</time>
      </trkpt>
      <trkpt lat="52.315846960991621" lon="14.006797978654504">
        <ele>44.359999999999999</ele>
        <time>2024-09-17T14:17:57Z</time>
      </trkpt>
      <trkpt lat="52.314134035259485" lon="14.005144983530045">
        <ele>42.920000000000002</ele>
        <time>2024-09-17T14:18:06Z</time>
      </trkpt>
      <trkpt lat="52.311817025765777" lon="14.002910032868385">
        <ele>40.509999999999998</ele>
        <time>2024-09-17T14:18:18Z</time>
      </trkpt>
      <trkpt lat="52.310328986495733" lon="14.001474967226386">
        <ele>37.630000000000003</ele>
        <time>2024-09-17T14:18:24Z</time>
      </trkpt>
      <trkpt lat="52.307476960122585" lon="13.998718997463584">
        <ele>34.740000000000002</ele>
        <time>2024-09-17T14:18:36Z</time>
      </trkpt>
      <trkpt lat="52.305001029744744" lon="13.996343985199928">
        <ele>31.379999999999999</ele>
        <time>2024-09-17T14:18:48Z</time>
      </trkpt>
      <trkpt lat="52.302463995292783" lon="13.99389898404479">
        <ele>27.050000000000001</ele>
        <time>2024-09-17T14:19:01Z</time>
      </trkpt>
      <trkpt lat="52.301278039813042" lon="13.992756027728319">
        <ele>26.09</ele>
        <time>2024-09-17T14:19:07Z</time>
      </trkpt>
      <trkpt lat="52.299782037734985" lon="13.991315010935068">
        <ele>26.09</ele>
        <time>2024-09-17T14:19:15Z</time>
      </trkpt>
      <trkpt lat="52.29841997846961" lon="13.990001985803246">
        <ele>26.57</ele>
        <time>2024-09-17T14:19:21Z</time>
      </trkpt>
      <trkpt lat="52.297101002186537" lon="13.98874000646174">
        <ele>26.57</ele>
        <time>2024-09-17T14:19:27Z</time>
      </trkpt>
      <trkpt lat="52.296117972582579" lon="13.987800981849432">
        <ele>27.050000000000001</ele>
        <time>2024-09-17T14:19:33Z</time>
      </trkpt>
      <trkpt lat="52.295223036780953" lon="13.987157000228763">
        <ele>27.530000000000001</ele>
        <time>2024-09-17T14:19:41Z</time>
      </trkpt>
      <trkpt lat="52.293489994481206" lon="13.986349990591407">
        <ele>28.02</ele>
        <time>2024-09-17T14:19:56Z</time>
      </trkpt>
      <trkpt lat="52.292072027921677" lon="13.985935002565384">
        <ele>29.940000000000001</ele>
        <time>2024-09-17T14:20:08Z</time>
      </trkpt>
      <trkpt lat="52.291267029941082" lon="13.985619004815817">
        <ele>30.899999999999999</ele>
        <time>2024-09-17T14:20:16Z</time>
      </trkpt>
      <trkpt lat="52.291167033836246" lon="13.985553039237857">
        <ele>31.379999999999999</ele>
        <time>2024-09-17T14:20:18Z</time>
      </trkpt>
      <trkpt lat="52.291139038279653" lon="13.985653035342693">
        <ele>31.859999999999999</ele>
        <time>2024-09-17T14:20:19Z</time>
      </trkpt>
      <trkpt lat="52.29111498221755" lon="13.985735010355711">
        <ele>33.299999999999997</ele>
        <time>2024-09-17T14:20:20Z</time>
      </trkpt>
      <trkpt lat="52.291088998317719" lon="13.985826037824154">
        <ele>33.780000000000001</ele>
        <time>2024-09-17T14:20:21Z</time>
      </trkpt>
      <trkpt lat="52.291062008589506" lon="13.985923016443849">
        <ele>34.740000000000002</ele>
        <time>2024-09-17T14:20:22Z</time>
      </trkpt>
      <trkpt lat="52.291038958355784" lon="13.986003985628486">
        <ele>35.229999999999997</ele>
        <time>2024-09-17T14:20:23Z</time>
      </trkpt>
      <trkpt lat="52.290970981121063" lon="13.986110016703606">
        <ele>35.710000000000001</ele>
        <time>2024-09-17T14:20:24Z</time>
      </trkpt>
      <trkpt lat="52.290928987786174" lon="13.986176988109946">
        <ele>36.189999999999998</ele>
        <time>2024-09-17T14:20:25Z</time>
      </trkpt>
      <trkpt lat="52.290882971137762" lon="13.986245971173048">
        <ele>36.189999999999998</ele>
        <time>2024-09-17T14:20:26Z</time>
      </trkpt>
      <trkpt lat="52.290628999471664" lon="13.986604968085885">
        <ele>37.630000000000003</ele>
        <time>2024-09-17T14:20:31Z</time>
      </trkpt>
      <trkpt lat="52.290590023621917" lon="13.986713010817766">
        <ele>37.630000000000003</ele>
        <time>2024-09-17T14:20:32Z</time>
      </trkpt>
      <trkpt lat="52.290549036115408" lon="13.986823987215757">
        <ele>38.109999999999999</ele>
        <time>2024-09-17T14:20:33Z</time>
      </trkpt>
      <trkpt lat="52.290506958961487" lon="13.986939992755651">
        <ele>38.109999999999999</ele>
        <time>2024-09-17T14:20:34Z</time>
      </trkpt>
      <trkpt lat="52.290480975061655" lon="13.987011993303895">
        <ele>38.109999999999999</ele>
        <time>2024-09-17T14:20:35Z</time>
      </trkpt>
      <trkpt lat="52.290453985333443" lon="13.987217014655471">
        <ele>38.590000000000003</ele>
        <time>2024-09-17T14:20:36Z</time>
      </trkpt>
      <trkpt lat="52.290405035018921" lon="13.987352969124913">
        <ele>38.590000000000003</ele>
        <time>2024-09-17T14:20:37Z</time>
      </trkpt>
      <trkpt lat="52.290345020592213" lon="13.987492024898529">
        <ele>38.590000000000003</ele>
        <time>2024-09-17T14:20:38Z</time>
      </trkpt>
      <trkpt lat="52.29027695953846" lon="13.987614987418056">
        <ele>38.109999999999999</ele>
        <time>2024-09-17T14:20:39Z</time>
      </trkpt>
      <trkpt lat="52.290204958990216" lon="13.987743984907866">
        <ele>38.590000000000003</ele>
        <time>2024-09-17T14:20:40Z</time>
      </trkpt>
      <trkpt lat="52.289673965424299" lon="13.988473964855075">
        <ele>38.109999999999999</ele>
        <time>2024-09-17T14:20:46Z</time>
      </trkpt>
      <trkpt lat="52.289572041481733" lon="13.98856800980866">
        <ele>38.109999999999999</ele>
        <time>2024-09-17T14:20:47Z</time>
      </trkpt>
      <trkpt lat="52.28945997543633" lon="13.988600028678775">
        <ele>38.109999999999999</ele>
        <time>2024-09-17T14:20:48Z</time>
      </trkpt>
      <trkpt lat="52.28935201652348" lon="13.988600028678775">
        <ele>38.109999999999999</ele>
        <time>2024-09-17T14:20:49Z</time>
      </trkpt>
      <trkpt lat="52.289214972406626" lon="13.988600028678775">
        <ele>38.109999999999999</ele>
        <time>2024-09-17T14:20:50Z</time>
      </trkpt>
      <trkpt lat="52.289121011272073" lon="13.98856901563704">
        <ele>37.630000000000003</ele>
        <time>2024-09-17T14:20:51Z</time>
      </trkpt>
      <trkpt lat="52.288997964933515" lon="13.988528028130531">
        <ele>37.630000000000003</ele>
        <time>2024-09-17T14:20:52Z</time>
      </trkpt>
      <trkpt lat="52.288754973560572" lon="13.988446975126863">
        <ele>37.630000000000003</ele>
        <time>2024-09-17T14:20:54Z</time>
      </trkpt>
      <trkpt lat="52.288637040182948" lon="13.988407999277115">
        <ele>37.630000000000003</ele>
        <time>2024-09-17T14:20:55Z</time>
      </trkpt>
      <trkpt lat="52.288282988592982" lon="13.988288976252079">
        <ele>37.149999999999999</ele>
        <time>2024-09-17T14:20:58Z</time>
      </trkpt>
      <trkpt lat="52.288146028295159" lon="13.988241031765938">
        <ele>37.149999999999999</ele>
        <time>2024-09-17T14:20:59Z</time>
      </trkpt>
      <trkpt lat="52.286900980398059" lon="13.987801987677813">
        <ele>38.590000000000003</ele>
        <time>2024-09-17T14:21:06Z</time>
      </trkpt>
      <trkpt lat="52.286336962133646" lon="13.987619010731578">
        <ele>38.590000000000003</ele>
        <time>2024-09-17T14:21:09Z</time>
      </trkpt>
      <trkpt lat="52.286153985187411" lon="13.987659998238087">
        <ele>38.590000000000003</ele>
        <time>2024-09-17T14:21:10Z</time>
      </trkpt>
      <trkpt lat="52.285962039604783" lon="13.987715989351273">
        <ele>38.590000000000003</ele>
        <time>2024-09-17T14:21:11Z</time>
      </trkpt>
      <trkpt lat="52.284205025061965" lon="13.988454015925527">
        <ele>37.630000000000003</ele>
        <time>2024-09-17T14:21:19Z</time>
      </trkpt>
      <trkpt lat="52.282744981348515" lon="13.989102020859718">
        <ele>35.710000000000001</ele>
        <time>2024-09-17T14:21:26Z</time>
      </trkpt>
      <trkpt lat="52.280905991792679" lon="13.989914981648326">
        <ele>36.189999999999998</ele>
        <time>2024-09-17T14:21:34Z</time>
      </trkpt>
      <trkpt lat="52.278231997042894" lon="13.991291960701346">
        <ele>40.030000000000001</ele>
        <time>2024-09-17T14:21:45Z</time>
      </trkpt>
      <trkpt lat="52.275734022259712" lon="13.992658965289593">
        <ele>45.32</ele>
        <time>2024-09-17T14:21:55Z</time>
      </trkpt>
      <trkpt lat="52.273378958925605" lon="13.994165025651455">
        <ele>51.090000000000003</ele>
        <time>2024-09-17T14:22:05Z</time>
      </trkpt>
      <trkpt lat="52.271796958521008" lon="13.995499005541205">
        <ele>52.530000000000001</ele>
        <time>2024-09-17T14:22:13Z</time>
      </trkpt>
      <trkpt lat="52.270678980275989" lon="13.996482035145164">
        <ele>55.409999999999997</ele>
        <time>2024-09-17T14:22:21Z</time>
      </trkpt>
      <trkpt lat="52.269792007282376" lon="13.997408989816904">
        <ele>55.890000000000001</ele>
        <time>2024-09-17T14:22:30Z</time>
      </trkpt>
      <trkpt lat="52.269489001482725" lon="13.997747031971812">
        <ele>56.369999999999997</ele>
        <time>2024-09-17T14:22:33Z</time>
      </trkpt>
      <trkpt lat="52.269376013427973" lon="13.997834036126733">
        <ele>56.859999999999999</ele>
        <time>2024-09-17T14:22:34Z</time>
      </trkpt>
      <trkpt lat="52.26926302537322" lon="13.997900001704693">
        <ele>56.859999999999999</ele>
        <time>2024-09-17T14:22:35Z</time>
      </trkpt>
      <trkpt lat="52.269146014004946" lon="13.997926991432905">
        <ele>57.340000000000003</ele>
        <time>2024-09-17T14:22:36Z</time>
      </trkpt>
      <trkpt lat="52.26902699097991" lon="13.997953981161118">
        <ele>57.340000000000003</ele>
        <time>2024-09-17T14:22:37Z</time>
      </trkpt>
      <trkpt lat="52.268907967954874" lon="13.99798097088933">
        <ele>57.340000000000003</ele>
        <time>2024-09-17T14:22:38Z</time>
      </trkpt>
      <trkpt lat="52.267597960308194" lon="13.998168976977468">
        <ele>58.299999999999997</ele>
        <time>2024-09-17T14:22:49Z</time>
      </trkpt>
      <trkpt lat="52.267482960596681" lon="13.998133018612862">
        <ele>58.299999999999997</ele>
        <time>2024-09-17T14:22:50Z</time>
      </trkpt>
      <trkpt lat="52.267005024477839" lon="13.998040985316038">
        <ele>58.780000000000001</ele>
        <time>2024-09-17T14:22:54Z</time>
      </trkpt>
      <trkpt lat="52.266898993402719" lon="13.998040985316038">
        <ele>58.780000000000001</ele>
        <time>2024-09-17T14:22:55Z</time>
      </trkpt>
      <trkpt lat="52.266648961231112" lon="13.998030005022883">
        <ele>58.780000000000001</ele>
        <time>2024-09-17T14:22:57Z</time>
      </trkpt>
      <trkpt lat="52.266528010368347" lon="13.998008966445923">
        <ele>58.780000000000001</ele>
        <time>2024-09-17T14:22:58Z</time>
      </trkpt>
      <trkpt lat="52.265200987458229" lon="13.998010978102684">
        <ele>59.740000000000002</ele>
        <time>2024-09-17T14:23:09Z</time>
      </trkpt>
      <trkpt lat="52.264981968328357" lon="13.998028999194503">
        <ele>60.219999999999999</ele>
        <time>2024-09-17T14:23:11Z</time>
      </trkpt>
      <trkpt lat="52.264891024678946" lon="13.998036962002516">
        <ele>60.219999999999999</ele>
        <time>2024-09-17T14:23:12Z</time>
      </trkpt>
      <trkpt lat="52.264803014695644" lon="13.998020030558109">
        <ele>60.700000000000003</ele>
        <time>2024-09-17T14:23:13Z</time>
      </trkpt>
      <trkpt lat="52.26475196890533" lon="13.997989017516375">
        <ele>60.700000000000003</ele>
        <time>2024-09-17T14:23:14Z</time>
      </trkpt>
      <trkpt lat="52.264704024419188" lon="13.997877035290003">
        <ele>60.700000000000003</ele>
        <time>2024-09-17T14:23:15Z</time>
      </trkpt>
      <trkpt lat="52.26466697640717" lon="13.997740997001529">
        <ele>60.700000000000003</ele>
        <time>2024-09-17T14:23:16Z</time>
      </trkpt>
      <trkpt lat="52.264669993892312" lon="13.997629014775157">
        <ele>61.18</ele>
        <time>2024-09-17T14:23:17Z</time>
      </trkpt>
      <trkpt lat="52.264673011377454" lon="13.997490964829922">
        <ele>61.659999999999997</ele>
        <time>2024-09-17T14:23:18Z</time>
      </trkpt>
      <trkpt lat="52.264676028862596" lon="13.997346963733435">
        <ele>62.140000000000001</ele>
        <time>2024-09-17T14:23:19Z</time>
      </trkpt>
      <trkpt lat="52.264696983620524" lon="13.996376004070044">
        <ele>63.100000000000001</ele>
        <time>2024-09-17T14:23:25Z</time>
      </trkpt>
      <trkpt lat="52.26470704190433" lon="13.995953975245357">
        <ele>62.140000000000001</ele>
        <time>2024-09-17T14:23:31Z</time>
      </trkpt>
      <trkpt lat="52.26470896974206" lon="13.995867976918817">
        <ele>62.140000000000001</ele>
        <time>2024-09-17T14:23:40Z</time>
      </trkpt>
      <trkpt lat="52.26466697640717" lon="13.995821038261056">
        <ele>61.659999999999997</ele>
        <time>2024-09-17T14:23:41Z</time>
      </trkpt>
      <trkpt lat="52.264606039971113" lon="13.995837969705462">
        <ele>61.659999999999997</ele>
        <time>2024-09-17T14:23:42Z</time>
      </trkpt>
      <trkpt lat="52.264535967260599" lon="13.995856996625662">
        <ele>61.18</ele>
        <time>2024-09-17T14:23:43Z</time>
      </trkpt>
      <trkpt lat="52.264462038874626" lon="13.995877029374242">
        <ele>61.659999999999997</ele>
        <time>2024-09-17T14:23:44Z</time>
      </trkpt>
      <trkpt lat="52.264380985870957" lon="13.995899995788932">
        <ele>61.659999999999997</ele>
        <time>2024-09-17T14:23:45Z</time>
      </trkpt>
      <trkpt lat="52.26352896541357" lon="13.996133012697101">
        <ele>63.579999999999998</ele>
        <time>2024-09-17T14:23:54Z</time>
      </trkpt>
      <trkpt lat="52.263438021764159" lon="13.996157990768552">
        <ele>64.069999999999993</ele>
        <time>2024-09-17T14:23:55Z</time>
      </trkpt>
      <trkpt lat="52.262511989101768" lon="13.996434006839991">
        <ele>65.030000000000001</ele>
        <time>2024-09-17T14:24:04Z</time>
      </trkpt>
      <trkpt lat="52.262420961633325" lon="13.996469965204597">
        <ele>65.030000000000001</ele>
        <time>2024-09-17T14:24:05Z</time>
      </trkpt>
      <trkpt lat="52.262333035469055" lon="13.996503995731473">
        <ele>65.030000000000001</ele>
        <time>2024-09-17T14:24:06Z</time>
      </trkpt>
      <trkpt lat="52.262242008000612" lon="13.99653903208673">
        <ele>65.030000000000001</ele>
        <time>2024-09-17T14:24:07Z</time>
      </trkpt>
      <trkpt lat="52.262128014117479" lon="13.996555963531137">
        <ele>65.030000000000001</ele>
        <time>2024-09-17T14:24:08Z</time>
      </trkpt>
      <trkpt lat="52.262016031891108" lon="13.996570967137814">
        <ele>65.030000000000001</ele>
        <time>2024-09-17T14:24:09Z</time>
      </trkpt>
      <trkpt lat="52.26069001480937" lon="13.996922001242638">
        <ele>66.950000000000003</ele>
        <time>2024-09-17T14:24:19Z</time>
      </trkpt>
      <trkpt lat="52.25931404158473" lon="13.997286027297378">
        <ele>66.469999999999999</ele>
        <time>2024-09-17T14:24:26Z</time>
      </trkpt>
      <trkpt lat="52.257162993773818" lon="13.997849961742759">
        <ele>65.030000000000001</ele>
        <time>2024-09-17T14:24:35Z</time>
      </trkpt>
      <trkpt lat="52.253808975219727" lon="13.998783035203815">
        <ele>67.430000000000007</ele>
        <time>2024-09-17T14:24:49Z</time>
      </trkpt>
      <trkpt lat="52.251944001764059" lon="13.99935501627624">
        <ele>68.390000000000001</ele>
        <time>2024-09-17T14:24:57Z</time>
      </trkpt>
      <trkpt lat="52.251579975709319" lon="13.999402038753033">
        <ele>69.349999999999994</ele>
        <time>2024-09-17T14:24:59Z</time>
      </trkpt>
      <trkpt lat="52.251421976834536" lon="13.999359039589763">
        <ele>69.349999999999994</ele>
        <time>2024-09-17T14:25:00Z</time>
      </trkpt>
      <trkpt lat="52.251263977959752" lon="13.999246973544359">
        <ele>69.829999999999998</ele>
        <time>2024-09-17T14:25:01Z</time>
      </trkpt>
      <trkpt lat="52.250215988606215" lon="13.998509030789137">
        <ele>71.269999999999996</ele>
        <time>2024-09-17T14:25:06Z</time>
      </trkpt>
      <trkpt lat="52.247828990221024" lon="13.996659982949495">
        <ele>73.680000000000007</ele>
        <time>2024-09-17T14:25:17Z</time>
      </trkpt>
      <trkpt lat="52.246433990076184" lon="13.995249979197979">
        <ele>73.680000000000007</ele>
        <time>2024-09-17T14:25:24Z</time>
      </trkpt>
      <trkpt lat="52.245885981246829" lon="13.994781011715531">
        <ele>73.200000000000003</ele>
        <time>2024-09-17T14:25:27Z</time>
      </trkpt>
      <trkpt lat="52.245705015957355" lon="13.994704987853765">
        <ele>73.200000000000003</ele>
        <time>2024-09-17T14:25:28Z</time>
      </trkpt>
      <trkpt lat="52.245516004040837" lon="13.994687972590327">
        <ele>73.200000000000003</ele>
        <time>2024-09-17T14:25:29Z</time>
      </trkpt>
      <trkpt lat="52.244166014716029" lon="13.994527962058783">
        <ele>73.200000000000003</ele>
        <time>2024-09-17T14:25:35Z</time>
      </trkpt>
      <trkpt lat="52.243939032778144" lon="13.994447998702526">
        <ele>73.680000000000007</ele>
        <time>2024-09-17T14:25:36Z</time>
      </trkpt>
      <trkpt lat="52.24371800199151" lon="13.99437096901238">
        <ele>73.680000000000007</ele>
        <time>2024-09-17T14:25:37Z</time>
      </trkpt>
      <trkpt lat="52.243496971204877" lon="13.994340961799026">
        <ele>74.159999999999997</ele>
        <time>2024-09-17T14:25:38Z</time>
      </trkpt>
      <trkpt lat="52.243272000923753" lon="13.994336016476154">
        <ele>74.640000000000001</ele>
        <time>2024-09-17T14:25:39Z</time>
      </trkpt>
      <trkpt lat="52.243037978187203" lon="13.99437096901238">
        <ele>75.120000000000005</ele>
        <time>2024-09-17T14:25:40Z</time>
      </trkpt>
      <trkpt lat="52.242165002971888" lon="13.994412962347269">
        <ele>77.040000000000006</ele>
        <time>2024-09-17T14:25:44Z</time>
      </trkpt>
      <trkpt lat="52.241955958306789" lon="13.994381027296185">
        <ele>78</ele>
        <time>2024-09-17T14:25:45Z</time>
      </trkpt>
      <trkpt lat="52.241571983322501" lon="13.994187992066145">
        <ele>78.969999999999999</ele>
        <time>2024-09-17T14:25:47Z</time>
      </trkpt>
      <trkpt lat="52.241383977234364" lon="13.994082966819406">
        <ele>79.930000000000007</ele>
        <time>2024-09-17T14:25:48Z</time>
      </trkpt>
      <trkpt lat="52.241226984187961" lon="13.993885992094874">
        <ele>80.409999999999997</ele>
        <time>2024-09-17T14:25:49Z</time>
      </trkpt>
      <trkpt lat="52.241087006404996" lon="13.993697986006737">
        <ele>80.890000000000001</ele>
        <time>2024-09-17T14:25:50Z</time>
      </trkpt>
      <trkpt lat="52.240969995036721" lon="13.993539987131953">
        <ele>81.370000000000005</ele>
        <time>2024-09-17T14:25:51Z</time>
      </trkpt>
      <trkpt lat="52.240871004760265" lon="13.99340596050024">
        <ele>82.329999999999998</ele>
        <time>2024-09-17T14:25:52Z</time>
      </trkpt>
      <trkpt lat="52.240713005885482" lon="13.993426999077201">
        <ele>82.810000000000002</ele>
        <time>2024-09-17T14:25:53Z</time>
      </trkpt>
      <trkpt lat="52.240567998960614" lon="13.993447031825781">
        <ele>82.810000000000002</ele>
        <time>2024-09-17T14:25:54Z</time>
      </trkpt>
      <trkpt lat="52.239453038200736" lon="13.993619028478861">
        <ele>79.930000000000007</ele>
        <time>2024-09-17T14:26:01Z</time>
      </trkpt>
      <trkpt lat="52.238401025533676" lon="13.993807034566998">
        <ele>74.159999999999997</ele>
        <time>2024-09-17T14:26:10Z</time>
      </trkpt>
      <trkpt lat="52.238284014165401" lon="13.993827989324927">
        <ele>73.680000000000007</ele>
        <time>2024-09-17T14:26:11Z</time>
      </trkpt>
      <trkpt lat="52.238165996968746" lon="13.993849027901888">
        <ele>73.200000000000003</ele>
        <time>2024-09-17T14:26:12Z</time>
      </trkpt>
      <trkpt lat="52.237564008682966" lon="13.993956986814737">
        <ele>70.790000000000006</ele>
        <time>2024-09-17T14:26:17Z</time>
      </trkpt>
      <trkpt lat="52.237448003143072" lon="13.993978025391698">
        <ele>70.310000000000002</ele>
        <time>2024-09-17T14:26:18Z</time>
      </trkpt>
      <trkpt lat="52.23613397218287" lon="13.99422001093626">
        <ele>65.030000000000001</ele>
        <time>2024-09-17T14:26:29Z</time>
      </trkpt>
      <trkpt lat="52.235033009201288" lon="13.994576996192336">
        <ele>61.659999999999997</ele>
        <time>2024-09-17T14:26:38Z</time>
      </trkpt>
      <trkpt lat="52.23392098210752" lon="13.994914032518864">
        <ele>59.740000000000002</ele>
        <time>2024-09-17T14:26:44Z</time>
      </trkpt>
      <trkpt lat="52.232683980837464" lon="13.995289038866758">
        <ele>59.259999999999998</ele>
        <time>2024-09-17T14:26:50Z</time>
      </trkpt>
      <trkpt lat="52.23093300126493" lon="13.995748031884432">
        <ele>58.780000000000001</ele>
        <time>2024-09-17T14:26:57Z</time>
      </trkpt>
      <trkpt lat="52.230292959138751" lon="13.995931008830667">
        <ele>58.299999999999997</ele>
        <time>2024-09-17T14:27:00Z</time>
      </trkpt>
      <trkpt lat="52.230115011334419" lon="13.996063023805618">
        <ele>58.299999999999997</ele>
        <time>2024-09-17T14:27:01Z</time>
      </trkpt>
      <trkpt lat="52.229948965832591" lon="13.996195960789919">
        <ele>57.82</ele>
        <time>2024-09-17T14:27:02Z</time>
      </trkpt>
      <trkpt lat="52.229763977229595" lon="13.996400982141495">
        <ele>57.82</ele>
        <time>2024-09-17T14:27:03Z</time>
      </trkpt>
      <trkpt lat="52.229582006111741" lon="13.996602986007929">
        <ele>57.82</ele>
        <time>2024-09-17T14:27:04Z</time>
      </trkpt>
      <trkpt lat="52.228291025385261" lon="13.998170988634229">
        <ele>57.82</ele>
        <time>2024-09-17T14:27:11Z</time>
      </trkpt>
      <trkpt lat="52.227841001003981" lon="13.99886199273169">
        <ele>58.299999999999997</ele>
        <time>2024-09-17T14:27:14Z</time>
      </trkpt>
      <trkpt lat="52.227683002129197" lon="13.999018985778093">
        <ele>58.299999999999997</ele>
        <time>2024-09-17T14:27:15Z</time>
      </trkpt>
      <trkpt lat="52.227507987990975" lon="13.999113030731678">
        <ele>58.299999999999997</ele>
        <time>2024-09-17T14:27:16Z</time>
      </trkpt>
      <trkpt lat="52.227315036579967" lon="13.999177990481257">
        <ele>58.299999999999997</ele>
        <time>2024-09-17T14:27:17Z</time>
      </trkpt>
      <trkpt lat="52.227105991914868" lon="13.99924898520112">
        <ele>58.299999999999997</ele>
        <time>2024-09-17T14:27:18Z</time>
      </trkpt>
      <trkpt lat="52.226888984441757" lon="13.999321991577744">
        <ele>58.780000000000001</ele>
        <time>2024-09-17T14:27:19Z</time>
      </trkpt>
      <trkpt lat="52.225337997078896" lon="13.999603036791086">
        <ele>58.299999999999997</ele>
        <time>2024-09-17T14:27:26Z</time>
      </trkpt>
      <trkpt lat="52.224040981382132" lon="13.999340012669563">
        <ele>56.859999999999999</ele>
        <time>2024-09-17T14:27:32Z</time>
      </trkpt>
      <trkpt lat="52.223251992836595" lon="13.999444032087922">
        <ele>55.890000000000001</ele>
        <time>2024-09-17T14:27:37Z</time>
      </trkpt>
      <trkpt lat="52.22221196629107" lon="13.999716024845839">
        <ele>53.490000000000002</ele>
        <time>2024-09-17T14:27:45Z</time>
      </trkpt>
      <trkpt lat="52.221976015716791" lon="13.999796994030476">
        <ele>53.009999999999998</ele>
        <time>2024-09-17T14:27:47Z</time>
      </trkpt>
      <trkpt lat="52.221447033807635" lon="14.000247018411756">
        <ele>54.450000000000003</ele>
        <time>2024-09-17T14:27:52Z</time>
      </trkpt>
      <trkpt lat="52.221360029652715" lon="14.000359000638127">
        <ele>54.450000000000003</ele>
        <time>2024-09-17T14:27:53Z</time>
      </trkpt>
      <trkpt lat="52.220928026363254" lon="14.001145977526903">
        <ele>53.969999999999999</ele>
        <time>2024-09-17T14:27:59Z</time>
      </trkpt>
      <trkpt lat="52.220128979533911" lon="14.002611972391605">
        <ele>51.57</ele>
        <time>2024-09-17T14:28:09Z</time>
      </trkpt>
      <trkpt lat="52.219188027083874" lon="14.004146028310061">
        <ele>51.090000000000003</ele>
        <time>2024-09-17T14:28:20Z</time>
      </trkpt>
      <trkpt lat="52.218165015801787" lon="14.005502974614501">
        <ele>49.159999999999997</ele>
        <time>2024-09-17T14:28:31Z</time>
      </trkpt>
      <trkpt lat="52.218060996383429" lon="14.005572963505983">
        <ele>49.159999999999997</ele>
        <time>2024-09-17T14:28:32Z</time>
      </trkpt>
      <trkpt lat="52.217942979186773" lon="14.005631972104311">
        <ele>49.159999999999997</ele>
        <time>2024-09-17T14:28:33Z</time>
      </trkpt>
      <trkpt lat="52.21735599450767" lon="14.005818972364068">
        <ele>49.159999999999997</ele>
        <time>2024-09-17T14:28:38Z</time>
      </trkpt>
      <trkpt lat="52.217237977311015" lon="14.005829030647874">
        <ele>49.159999999999997</ele>
        <time>2024-09-17T14:28:39Z</time>
      </trkpt>
      <trkpt lat="52.216519983485341" lon="14.005804974585772">
        <ele>49.649999999999999</ele>
        <time>2024-09-17T14:28:46Z</time>
      </trkpt>
      <trkpt lat="52.216446977108717" lon="14.005790976807475">
        <ele>49.159999999999997</ele>
        <time>2024-09-17T14:28:47Z</time>
      </trkpt>
      <trkpt lat="52.216244973242283" lon="14.005748983472586">
        <ele>48.68</ele>
        <time>2024-09-17T14:28:50Z</time>
      </trkpt>
      <trkpt lat="52.216185964643955" lon="14.00573699735105">
        <ele>48.200000000000003</ele>
        <time>2024-09-17T14:28:51Z</time>
      </trkpt>
      <trkpt lat="52.215957976877689" lon="14.005689974874258">
        <ele>46.759999999999998</ele>
        <time>2024-09-17T14:28:54Z</time>
      </trkpt>
      <trkpt lat="52.215535026043653" lon="14.005555026233196">
        <ele>45.799999999999997</ele>
        <time>2024-09-17T14:28:59Z</time>
      </trkpt>
      <trkpt lat="52.215456990525126" lon="14.005490988492966">
        <ele>45.799999999999997</ele>
        <time>2024-09-17T14:29:00Z</time>
      </trkpt>
      <trkpt lat="52.215390019118786" lon="14.005401972681284">
        <ele>46.280000000000001</ele>
        <time>2024-09-17T14:29:01Z</time>
      </trkpt>
      <trkpt lat="52.215254986658692" lon="14.005216984078288">
        <ele>45.799999999999997</ele>
        <time>2024-09-17T14:29:03Z</time>
      </trkpt>
      <trkpt lat="52.215191032737494" lon="14.005128974094987">
        <ele>46.280000000000001</ele>
        <time>2024-09-17T14:29:04Z</time>
      </trkpt>
      <trkpt lat="52.214923985302448" lon="14.004776012152433">
        <ele>45.799999999999997</ele>
        <time>2024-09-17T14:29:08Z</time>
      </trkpt>
      <trkpt lat="52.21484100446105" lon="14.004721026867628">
        <ele>45.799999999999997</ele>
        <time>2024-09-17T14:29:09Z</time>
      </trkpt>
      <trkpt lat="52.214760035276413" lon="14.004697976633906">
        <ele>45.32</ele>
        <time>2024-09-17T14:29:10Z</time>
      </trkpt>
      <trkpt lat="52.214670013636351" lon="14.004709040746093">
        <ele>45.32</ele>
        <time>2024-09-17T14:29:11Z</time>
      </trkpt>
      <trkpt lat="52.214574962854385" lon="14.004721026867628">
        <ele>45.32</ele>
        <time>2024-09-17T14:29:12Z</time>
      </trkpt>
      <trkpt lat="52.213585982099175" lon="14.004871984943748">
        <ele>45.32</ele>
        <time>2024-09-17T14:29:23Z</time>
      </trkpt>
      <trkpt lat="52.212900007143617" lon="14.005066026002169">
        <ele>43.880000000000003</ele>
        <time>2024-09-17T14:29:31Z</time>
      </trkpt>
      <trkpt lat="52.212153011932969" lon="14.005559971556067">
        <ele>42.439999999999998</ele>
        <time>2024-09-17T14:29:41Z</time>
      </trkpt>
      <trkpt lat="52.211223961785436" lon="14.00595098733902">
        <ele>41.950000000000003</ele>
        <time>2024-09-17T14:29:53Z</time>
      </trkpt>
      <trkpt lat="52.210541004315019" lon="14.006218034774065">
        <ele>42.439999999999998</ele>
        <time>2024-09-17T14:30:01Z</time>
      </trkpt>
      <trkpt lat="52.209842959418893" lon="14.006431018933654">
        <ele>42.920000000000002</ele>
        <time>2024-09-17T14:30:07Z</time>
      </trkpt>
      <trkpt lat="52.209727959707379" lon="14.006405035033822">
        <ele>43.399999999999999</ele>
        <time>2024-09-17T14:30:08Z</time>
      </trkpt>
      <trkpt lat="52.209611032158136" lon="14.00635801255703">
        <ele>43.399999999999999</ele>
        <time>2024-09-17T14:30:09Z</time>
      </trkpt>
      <trkpt lat="52.209379021078348" lon="14.006228009238839">
        <ele>44.359999999999999</ele>
        <time>2024-09-17T14:30:11Z</time>
      </trkpt>
      <trkpt lat="52.20925597473979" lon="14.006160032004118">
        <ele>44.359999999999999</ele>
        <time>2024-09-17T14:30:12Z</time>
      </trkpt>
      <trkpt lat="52.208096003159881" lon="14.005338018760085">
        <ele>45.32</ele>
        <time>2024-09-17T14:30:22Z</time>
      </trkpt>
      <trkpt lat="52.207717979326844" lon="14.005083963274956">
        <ele>46.280000000000001</ele>
        <time>2024-09-17T14:30:28Z</time>
      </trkpt>
      <trkpt lat="52.207650002092123" lon="14.00504800491035">
        <ele>46.280000000000001</ele>
        <time>2024-09-17T14:30:34Z</time>
      </trkpt>
      <trkpt lat="52.20762100070715" lon="14.005125034600496">
        <ele>46.280000000000001</ele>
        <time>2024-09-17T14:30:35Z</time>
      </trkpt>
      <trkpt lat="52.20757800154388" lon="14.00524003431201">
        <ele>46.280000000000001</ele>
        <time>2024-09-17T14:30:36Z</time>
      </trkpt>
      <trkpt lat="52.207523016259074" lon="14.005385041236877">
        <ele>46.280000000000001</ele>
        <time>2024-09-17T14:30:37Z</time>
      </trkpt>
      <trkpt lat="52.207457972690463" lon="14.005552008748055">
        <ele>46.280000000000001</ele>
        <time>2024-09-17T14:30:38Z</time>
      </trkpt>
      <trkpt lat="52.206855984404683" lon="14.007098972797394">
        <ele>46.280000000000001</ele>
        <time>2024-09-17T14:30:45Z</time>
      </trkpt>
      <trkpt lat="52.205887036398053" lon="14.009563000872731">
        <ele>45.799999999999997</ele>
        <time>2024-09-17T14:30:56Z</time>
      </trkpt>
      <trkpt lat="52.204868970438838" lon="14.011671971529722">
        <ele>43.399999999999999</ele>
        <time>2024-09-17T14:31:06Z</time>
      </trkpt>
      <trkpt lat="52.203615959733725" lon="14.014220992103219">
        <ele>40.990000000000002</ele>
        <time>2024-09-17T14:31:17Z</time>
      </trkpt>
      <trkpt lat="52.202815990895033" lon="14.015955962240696">
        <ele>40.030000000000001</ele>
        <time>2024-09-17T14:31:26Z</time>
      </trkpt>
      <trkpt lat="52.202652040868998" lon="14.016447979956865">
        <ele>39.549999999999997</ele>
        <time>2024-09-17T14:31:29Z</time>
      </trkpt>
      <trkpt lat="52.202604012563825" lon="14.016619976609945">
        <ele>39.549999999999997</ele>
        <time>2024-09-17T14:31:30Z</time>
      </trkpt>
      <trkpt lat="52.202574005350471" lon="14.017973989248276">
        <ele>40.030000000000001</ele>
        <time>2024-09-17T14:31:37Z</time>
      </trkpt>
      <trkpt lat="52.202598983421922" lon="14.018163001164794">
        <ele>40.030000000000001</ele>
        <time>2024-09-17T14:31:38Z</time>
      </trkpt>
      <trkpt lat="52.202639970928431" lon="14.01834899559617">
        <ele>40.509999999999998</ele>
        <time>2024-09-17T14:31:39Z</time>
      </trkpt>
      <trkpt lat="52.202781960368156" lon="14.019306963309646">
        <ele>41.950000000000003</ele>
        <time>2024-09-17T14:31:45Z</time>
      </trkpt>
      <trkpt lat="52.202733010053635" lon="14.019354991614819">
        <ele>42.439999999999998</ele>
        <time>2024-09-17T14:31:46Z</time>
      </trkpt>
      <trkpt lat="52.202665032818913" lon="14.01942397467792">
        <ele>42.439999999999998</ele>
        <time>2024-09-17T14:31:47Z</time>
      </trkpt>
      <trkpt lat="52.202579034492373" lon="14.01950997300446">
        <ele>42.920000000000002</ele>
        <time>2024-09-17T14:31:48Z</time>
      </trkpt>
      <trkpt lat="52.202491024509072" lon="14.019597982987761">
        <ele>43.399999999999999</ele>
        <time>2024-09-17T14:31:49Z</time>
      </trkpt>
      <trkpt lat="52.201629029586911" lon="14.020339027047157">
        <ele>44.840000000000003</ele>
        <time>2024-09-17T14:31:57Z</time>
      </trkpt>
      <trkpt lat="52.201415961608291" lon="14.020520998165011">
        <ele>44.840000000000003</ele>
        <time>2024-09-17T14:31:59Z</time>
      </trkpt>
      <trkpt lat="52.201098036020994" lon="14.020825009793043">
        <ele>45.799999999999997</ele>
        <time>2024-09-17T14:32:02Z</time>
      </trkpt>
      <trkpt lat="52.201022012159228" lon="14.020965993404388">
        <ele>46.280000000000001</ele>
        <time>2024-09-17T14:32:03Z</time>
      </trkpt>
      <trkpt lat="52.200944982469082" lon="14.021106977015734">
        <ele>46.759999999999998</ele>
        <time>2024-09-17T14:32:04Z</time>
      </trkpt>
      <trkpt lat="52.200868958607316" lon="14.021247960627079">
        <ele>47.719999999999999</ele>
        <time>2024-09-17T14:32:05Z</time>
      </trkpt>
      <trkpt lat="52.200791006907821" lon="14.021390033885837">
        <ele>48.200000000000003</ele>
        <time>2024-09-17T14:32:06Z</time>
      </trkpt>
      <trkpt lat="52.200020039454103" lon="14.023137995973229">
        <ele>52.530000000000001</ele>
        <time>2024-09-17T14:32:17Z</time>
      </trkpt>
      <trkpt lat="52.199461972340941" lon="14.024402992799878">
        <ele>51.090000000000003</ele>
        <time>2024-09-17T14:32:25Z</time>
      </trkpt>
      <trkpt lat="52.19872897490859" lon="14.025970995426178">
        <ele>51.090000000000003</ele>
        <time>2024-09-17T14:32:35Z</time>
      </trkpt>
      <trkpt lat="52.197840996086597" lon="14.027604963630438">
        <ele>53.969999999999999</ele>
        <time>2024-09-17T14:32:46Z</time>
      </trkpt>
      <trkpt lat="52.197681991383433" lon="14.027893971651793">
        <ele>54.450000000000003</ele>
        <time>2024-09-17T14:32:48Z</time>
      </trkpt>
      <trkpt lat="52.197601022198796" lon="14.028040990233421">
        <ele>54.450000000000003</ele>
        <time>2024-09-17T14:32:49Z</time>
      </trkpt>
      <trkpt lat="52.196861989796162" lon="14.029349992051721">
        <ele>55.890000000000001</ele>
        <time>2024-09-17T14:32:58Z</time>
      </trkpt>
      <trkpt lat="52.196776997298002" lon="14.029500028118491">
        <ele>55.890000000000001</ele>
        <time>2024-09-17T14:32:59Z</time>
      </trkpt>
      <trkpt lat="52.19629998318851" lon="14.030342996120453">
        <ele>55.409999999999997</ele>
        <time>2024-09-17T14:33:05Z</time>
      </trkpt>
      <trkpt lat="52.196221025660634" lon="14.030482973903418">
        <ele>55.409999999999997</ele>
        <time>2024-09-17T14:33:06Z</time>
      </trkpt>
      <trkpt lat="52.195480987429619" lon="14.03175501152873">
        <ele>52.530000000000001</ele>
        <time>2024-09-17T14:33:15Z</time>
      </trkpt>
      <trkpt lat="52.194538023322821" lon="14.033402977511287">
        <ele>50.609999999999999</ele>
        <time>2024-09-17T14:33:26Z</time>
      </trkpt>
      <trkpt lat="52.193537978455424" lon="14.035165021196008">
        <ele>53.969999999999999</ele>
        <time>2024-09-17T14:33:34Z</time>
      </trkpt>
      <trkpt lat="52.191709969192743" lon="14.038395993411541">
        <ele>60.219999999999999</ele>
        <time>2024-09-17T14:33:47Z</time>
      </trkpt>
      <trkpt lat="52.189785987138748" lon="14.041798040270805">
        <ele>62.619999999999997</ele>
        <time>2024-09-17T14:34:01Z</time>
      </trkpt>
      <trkpt lat="52.187814982607961" lon="14.045298993587494">
        <ele>61.18</ele>
        <time>2024-09-17T14:34:16Z</time>
      </trkpt>
      <trkpt lat="52.186797000467777" lon="14.047142006456852">
        <ele>60.700000000000003</ele>
        <time>2024-09-17T14:34:26Z</time>
      </trkpt>
      <trkpt lat="52.186628021299839" lon="14.047448029741645">
        <ele>60.219999999999999</ele>
        <time>2024-09-17T14:34:28Z</time>
      </trkpt>
      <trkpt lat="52.186491983011365" lon="14.047735026106238">
        <ele>60.219999999999999</ele>
        <time>2024-09-17T14:34:30Z</time>
      </trkpt>
      <trkpt lat="52.186134997755289" lon="14.049075040966272">
        <ele>59.740000000000002</ele>
        <time>2024-09-17T14:34:38Z</time>
      </trkpt>
      <trkpt lat="52.18598403967917" lon="14.049593964591622">
        <ele>59.259999999999998</ele>
        <time>2024-09-17T14:34:41Z</time>
      </trkpt>
      <trkpt lat="52.185596963390708" lon="14.050581017509103">
        <ele>57.340000000000003</ele>
        <time>2024-09-17T14:34:47Z</time>
      </trkpt>
      <trkpt lat="52.185561005026102" lon="14.050752008333802">
        <ele>57.340000000000003</ele>
        <time>2024-09-17T14:34:48Z</time>
      </trkpt>
      <trkpt lat="52.185059012845159" lon="14.052353035658598">
        <ele>56.859999999999999</ele>
        <time>2024-09-17T14:34:59Z</time>
      </trkpt>
      <trkpt lat="52.184477979317307" lon="14.05395096167922">
        <ele>56.369999999999997</ele>
        <time>2024-09-17T14:35:09Z</time>
      </trkpt>
      <trkpt lat="52.183705000206828" lon="14.055921966210008">
        <ele>57.82</ele>
        <time>2024-09-17T14:35:17Z</time>
      </trkpt>
      <trkpt lat="52.182317040860653" lon="14.058193964883685">
        <ele>59.259999999999998</ele>
        <time>2024-09-17T14:35:26Z</time>
      </trkpt>
      <trkpt lat="52.180879041552544" lon="14.060517009347677">
        <ele>59.740000000000002</ele>
        <time>2024-09-17T14:35:36Z</time>
      </trkpt>
      <trkpt lat="52.180000031366944" lon="14.062533024698496">
        <ele>58.780000000000001</ele>
        <time>2024-09-17T14:35:44Z</time>
      </trkpt>
      <trkpt lat="52.178782979026437" lon="14.065578002482653">
        <ele>61.18</ele>
        <time>2024-09-17T14:35:56Z</time>
      </trkpt>
      <trkpt lat="52.177041973918676" lon="14.069936005398631">
        <ele>61.659999999999997</ele>
        <time>2024-09-17T14:36:12Z</time>
      </trkpt>
      <trkpt lat="52.176000019535422" lon="14.073066981509328">
        <ele>61.18</ele>
        <time>2024-09-17T14:36:23Z</time>
      </trkpt>
      <trkpt lat="52.175575979053974" lon="14.074544040486217">
        <ele>62.619999999999997</ele>
        <time>2024-09-17T14:36:30Z</time>
      </trkpt>
      <trkpt lat="52.175304992124438" lon="14.075737036764622">
        <ele>63.100000000000001</ele>
        <time>2024-09-17T14:36:37Z</time>
      </trkpt>
      <trkpt lat="52.175117991864681" lon="14.076701961457729">
        <ele>63.100000000000001</ele>
        <time>2024-09-17T14:36:43Z</time>
      </trkpt>
      <trkpt lat="52.175103994086385" lon="14.076776979491115">
        <ele>63.100000000000001</ele>
        <time>2024-09-17T14:36:44Z</time>
      </trkpt>
      <trkpt lat="52.175008021295071" lon="14.076845040544868">
        <ele>63.100000000000001</ele>
        <time>2024-09-17T14:36:47Z</time>
      </trkpt>
      <trkpt lat="52.174956975504756" lon="14.076807992532849">
        <ele>63.100000000000001</ele>
        <time>2024-09-17T14:36:48Z</time>
      </trkpt>
      <trkpt lat="52.174887992441654" lon="14.076757030561566">
        <ele>62.619999999999997</ele>
        <time>2024-09-17T14:36:49Z</time>
      </trkpt>
      <trkpt lat="52.174059022217989" lon="14.076119000092149">
        <ele>60.700000000000003</ele>
        <time>2024-09-17T14:36:58Z</time>
      </trkpt>
      <trkpt lat="52.17316098511219" lon="14.075121972709894">
        <ele>58.780000000000001</ele>
        <time>2024-09-17T14:37:07Z</time>
      </trkpt>
      <trkpt lat="52.17249495908618" lon="14.074280010536313">
        <ele>58.780000000000001</ele>
        <time>2024-09-17T14:37:14Z</time>
      </trkpt>
      <trkpt lat="52.172381971031427" lon="14.074203986674547">
        <ele>58.780000000000001</ele>
        <time>2024-09-17T14:37:15Z</time>
      </trkpt>
      <trkpt lat="52.171713011339307" lon="14.073768965899944">
        <ele>58.299999999999997</ele>
        <time>2024-09-17T14:37:21Z</time>
      </trkpt>
      <trkpt lat="52.171602034941316" lon="14.07369595952332">
        <ele>58.299999999999997</ele>
        <time>2024-09-17T14:37:22Z</time>
      </trkpt>
      <trkpt lat="52.171518970280886" lon="14.07356696203351">
        <ele>58.299999999999997</ele>
        <time>2024-09-17T14:37:23Z</time>
      </trkpt>
      <trkpt lat="52.171432971954346" lon="14.073433019220829">
        <ele>58.299999999999997</ele>
        <time>2024-09-17T14:37:24Z</time>
      </trkpt>
      <trkpt lat="52.171352002769709" lon="14.073268985375762">
        <ele>57.82</ele>
        <time>2024-09-17T14:37:25Z</time>
      </trkpt>
      <trkpt lat="52.170586986467242" lon="14.071537032723427">
        <ele>57.340000000000003</ele>
        <time>2024-09-17T14:37:33Z</time>
      </trkpt>
      <trkpt lat="52.169301034882665" lon="14.068606970831752">
        <ele>54.93</ele>
        <time>2024-09-17T14:37:43Z</time>
      </trkpt>
      <trkpt lat="52.168671973049641" lon="14.066504035145044">
        <ele>52.530000000000001</ele>
        <time>2024-09-17T14:37:49Z</time>
      </trkpt>
      <trkpt lat="52.167791035026312" lon="14.06213304027915">
        <ele>53.490000000000002</ele>
        <time>2024-09-17T14:38:01Z</time>
      </trkpt>
      <trkpt lat="52.167321983724833" lon="14.060002025216818">
        <ele>53.969999999999999</ele>
        <time>2024-09-17T14:38:07Z</time>
      </trkpt>
      <trkpt lat="52.166206017136574" lon="14.055639998987317">
        <ele>51.090000000000003</ele>
        <time>2024-09-17T14:38:19Z</time>
      </trkpt>
      <trkpt lat="52.165533034130931" lon="14.052823008969426">
        <ele>47.719999999999999</ele>
        <time>2024-09-17T14:38:27Z</time>
      </trkpt>
      <trkpt lat="52.165507972240448" lon="14.052536012604833">
        <ele>47.240000000000002</ele>
        <time>2024-09-17T14:38:28Z</time>
      </trkpt>
      <trkpt lat="52.16525299474597" lon="14.049581978470087">
        <ele>44.359999999999999</ele>
        <time>2024-09-17T14:38:36Z</time>
      </trkpt>
      <trkpt lat="52.164961975067854" lon="14.046311024576426">
        <ele>41.469999999999999</ele>
        <time>2024-09-17T14:38:45Z</time>
      </trkpt>
      <trkpt lat="52.164624016731977" lon="14.043842973187566">
        <ele>41.469999999999999</ele>
        <time>2024-09-17T14:38:52Z</time>
      </trkpt>
      <trkpt lat="52.163764033466578" lon="14.040481997653842">
        <ele>42.439999999999998</ele>
        <time>2024-09-17T14:39:02Z</time>
      </trkpt>
      <trkpt lat="52.163676023483276" lon="14.040150996297598">
        <ele>42.920000000000002</ele>
        <time>2024-09-17T14:39:03Z</time>
      </trkpt>
      <trkpt lat="52.162944031879306" lon="14.037473984062672">
        <ele>45.32</ele>
        <time>2024-09-17T14:39:11Z</time>
      </trkpt>
      <trkpt lat="52.161961002275348" lon="14.034357005730271">
        <ele>45.799999999999997</ele>
        <time>2024-09-17T14:39:21Z</time>
      </trkpt>
      <trkpt lat="52.161383992061019" lon="14.032523967325687">
        <ele>44.359999999999999</ele>
        <time>2024-09-17T14:39:27Z</time>
      </trkpt>
      <trkpt lat="52.160534989088774" lon="14.029836980625987">
        <ele>41.950000000000003</ele>
        <time>2024-09-17T14:39:36Z</time>
      </trkpt>
      <trkpt lat="52.159699983894825" lon="14.027205985039473">
        <ele>48.200000000000003</ele>
        <time>2024-09-17T14:39:45Z</time>
      </trkpt>
      <trkpt lat="52.158857015892863" lon="14.024549005553126">
        <ele>53.009999999999998</ele>
        <time>2024-09-17T14:39:54Z</time>
      </trkpt>
      <trkpt lat="52.158427024260163" lon="14.022778999060392">
        <ele>53.969999999999999</ele>
        <time>2024-09-17T14:40:00Z</time>
      </trkpt>
      <trkpt lat="52.158402968198061" lon="14.022484039887786">
        <ele>53.969999999999999</ele>
        <time>2024-09-17T14:40:01Z</time>
      </trkpt>
      <trkpt lat="52.158383019268513" lon="14.022225961089134">
        <ele>53.490000000000002</ele>
        <time>2024-09-17T14:40:02Z</time>
      </trkpt>
      <trkpt lat="52.158396011218429" lon="14.02174199000001">
        <ele>53.969999999999999</ele>
        <time>2024-09-17T14:40:04Z</time>
      </trkpt>
      <trkpt lat="52.15842098928988" lon="14.021514002233744">
        <ele>54.450000000000003</ele>
        <time>2024-09-17T14:40:05Z</time>
      </trkpt>
      <trkpt lat="52.158459965139627" lon="14.021308980882168">
        <ele>54.450000000000003</ele>
        <time>2024-09-17T14:40:06Z</time>
      </trkpt>
      <trkpt lat="52.15850698761642" lon="14.021121980622411">
        <ele>54.450000000000003</ele>
        <time>2024-09-17T14:40:07Z</time>
      </trkpt>
      <trkpt lat="52.158558033406734" lon="14.020942021161318">
        <ele>54.450000000000003</ele>
        <time>2024-09-17T14:40:08Z</time>
      </trkpt>
      <trkpt lat="52.15861402451992" lon="14.02077698148787">
        <ele>54.450000000000003</ele>
        <time>2024-09-17T14:40:09Z</time>
      </trkpt>
      <trkpt lat="52.159192962571979" lon="14.01907897554338">
        <ele>53.490000000000002</ele>
        <time>2024-09-17T14:40:19Z</time>
      </trkpt>
      <trkpt lat="52.159695960581303" lon="14.017106965184212">
        <ele>53.969999999999999</ele>
        <time>2024-09-17T14:40:30Z</time>
      </trkpt>
      <trkpt lat="52.159695960581303" lon="14.016912002116442">
        <ele>54.450000000000003</ele>
        <time>2024-09-17T14:40:31Z</time>
      </trkpt>
      <trkpt lat="52.159695960581303" lon="14.016717039048672">
        <ele>54.93</ele>
        <time>2024-09-17T14:40:32Z</time>
      </trkpt>
      <trkpt lat="52.159546008333564" lon="14.014981985092163">
        <ele>57.82</ele>
        <time>2024-09-17T14:40:41Z</time>
      </trkpt>
      <trkpt lat="52.159557994455099" lon="14.013003017753363">
        <ele>60.700000000000003</ele>
        <time>2024-09-17T14:40:51Z</time>
      </trkpt>
      <trkpt lat="52.159561011940241" lon="14.01080503128469">
        <ele>62.140000000000001</ele>
        <time>2024-09-17T14:40:59Z</time>
      </trkpt>
      <trkpt lat="52.159529998898506" lon="14.008349971845746">
        <ele>64.069999999999993</ele>
        <time>2024-09-17T14:41:06Z</time>
      </trkpt>
      <trkpt lat="52.159486999735236" lon="14.004694037139416">
        <ele>67.430000000000007</ele>
        <time>2024-09-17T14:41:16Z</time>
      </trkpt>
      <trkpt lat="52.159457998350263" lon="14.001300958916545">
        <ele>66.469999999999999</ele>
        <time>2024-09-17T14:41:27Z</time>
      </trkpt>
      <trkpt lat="52.15945296920836" lon="14.001016980037093">
        <ele>66.469999999999999</ele>
        <time>2024-09-17T14:41:28Z</time>
      </trkpt>
      <trkpt lat="52.159448023885489" lon="14.000739958137274">
        <ele>65.989999999999995</ele>
        <time>2024-09-17T14:41:29Z</time>
      </trkpt>
      <trkpt lat="52.15943100862205" lon="14.00019496679306">
        <ele>66.469999999999999</ele>
        <time>2024-09-17T14:41:31Z</time>
      </trkpt>
      <trkpt lat="52.159265968948603" lon="13.999432967975736">
        <ele>65.989999999999995</ele>
        <time>2024-09-17T14:41:34Z</time>
      </trkpt>
      <trkpt lat="52.159032030031085" lon="13.998800972476602">
        <ele>65.030000000000001</ele>
        <time>2024-09-17T14:41:37Z</time>
      </trkpt>
      <trkpt lat="52.158797001466155" lon="13.998094964772463">
        <ele>63.579999999999998</ele>
        <time>2024-09-17T14:41:40Z</time>
      </trkpt>
      <trkpt lat="52.158741010352969" lon="13.997843004763126">
        <ele>63.100000000000001</ele>
        <time>2024-09-17T14:41:41Z</time>
      </trkpt>
      <trkpt lat="52.158705973997712" lon="13.997596995905042">
        <ele>62.619999999999997</ele>
        <time>2024-09-17T14:41:42Z</time>
      </trkpt>
      <trkpt lat="52.15869901701808" lon="13.996761990711093">
        <ele>60.700000000000003</ele>
        <time>2024-09-17T14:41:45Z</time>
      </trkpt>
      <trkpt lat="52.158775040879846" lon="13.994340039789677">
        <ele>57.82</ele>
        <time>2024-09-17T14:41:54Z</time>
      </trkpt>
      <trkpt lat="52.158755008131266" lon="13.994089001789689">
        <ele>57.82</ele>
        <time>2024-09-17T14:41:55Z</time>
      </trkpt>
      <trkpt lat="52.158731035888195" lon="13.993793036788702">
        <ele>57.340000000000003</ele>
        <time>2024-09-17T14:41:56Z</time>
      </trkpt>
      <trkpt lat="52.158680995926261" lon="13.993593966588378">
        <ele>56.859999999999999</ele>
        <time>2024-09-17T14:41:57Z</time>
      </trkpt>
      <trkpt lat="52.158604972064495" lon="13.993357010185719">
        <ele>56.369999999999997</ele>
        <time>2024-09-17T14:41:58Z</time>
      </trkpt>
      <trkpt lat="52.158514028415084" lon="13.99314402602613">
        <ele>55.890000000000001</ele>
        <time>2024-09-17T14:41:59Z</time>
      </trkpt>
      <trkpt lat="52.158415038138628" lon="13.992936993017793">
        <ele>55.409999999999997</ele>
        <time>2024-09-17T14:42:00Z</time>
      </trkpt>
      <trkpt lat="52.158298026770353" lon="13.992743035778403">
        <ele>54.450000000000003</ele>
        <time>2024-09-17T14:42:01Z</time>
      </trkpt>
      <trkpt lat="52.157216006889939" lon="13.991072019562125">
        <ele>49.159999999999997</ele>
        <time>2024-09-17T14:42:10Z</time>
      </trkpt>
      <trkpt lat="52.157065970823169" lon="13.990917960181832">
        <ele>49.159999999999997</ele>
        <time>2024-09-17T14:42:11Z</time>
      </trkpt>
      <trkpt lat="52.156917024403811" lon="13.990765996277332">
        <ele>48.68</ele>
        <time>2024-09-17T14:42:12Z</time>
      </trkpt>
      <trkpt lat="52.156493989750743" lon="13.990312032401562">
        <ele>46.759999999999998</ele>
        <time>2024-09-17T14:42:15Z</time>
      </trkpt>
      <trkpt lat="52.155189011245966" lon="13.988426020368934">
        <ele>43.399999999999999</ele>
        <time>2024-09-17T14:42:25Z</time>
      </trkpt>
      <trkpt lat="52.15429600328207" lon="13.986478988081217">
        <ele>42.439999999999998</ele>
        <time>2024-09-17T14:42:34Z</time>
      </trkpt>
      <trkpt lat="52.153325965628028" lon="13.984335986897349">
        <ele>40.509999999999998</ele>
        <time>2024-09-17T14:42:44Z</time>
      </trkpt>
      <trkpt lat="52.153129996731877" lon="13.983900966122746">
        <ele>40.030000000000001</ele>
        <time>2024-09-17T14:42:46Z</time>
      </trkpt>
      <trkpt lat="52.153041986748576" lon="13.983706003054976">
        <ele>40.030000000000001</ele>
        <time>2024-09-17T14:42:47Z</time>
      </trkpt>
      <trkpt lat="52.152866972610354" lon="13.983321022242308">
        <ele>39.549999999999997</ele>
        <time>2024-09-17T14:42:49Z</time>
      </trkpt>
      <trkpt lat="52.152783991768956" lon="13.983134021982551">
        <ele>39.07</ele>
        <time>2024-09-17T14:42:50Z</time>
      </trkpt>
      <trkpt lat="52.15270696207881" lon="13.982947021722794">
        <ele>39.07</ele>
        <time>2024-09-17T14:42:51Z</time>
      </trkpt>
      <trkpt lat="52.152560027316213" lon="13.982592970132828">
        <ele>38.109999999999999</ele>
        <time>2024-09-17T14:42:53Z</time>
      </trkpt>
      <trkpt lat="52.152293985709548" lon="13.981360998004675">
        <ele>32.340000000000003</ele>
        <time>2024-09-17T14:43:00Z</time>
      </trkpt>
      <trkpt lat="52.152265990152955" lon="13.98117802105844">
        <ele>31.379999999999999</ele>
        <time>2024-09-17T14:43:01Z</time>
      </trkpt>
      <trkpt lat="52.152237994596362" lon="13.980997977778316">
        <ele>30.420000000000002</ele>
        <time>2024-09-17T14:43:02Z</time>
      </trkpt>
      <trkpt lat="52.151917973533273" lon="13.97890199907124">
        <ele>28.98</ele>
        <time>2024-09-17T14:43:14Z</time>
      </trkpt>
      <trkpt lat="52.151759974658489" lon="13.978108987212181">
        <ele>31.859999999999999</ele>
        <time>2024-09-17T14:43:19Z</time>
      </trkpt>
      <trkpt lat="52.151599964126945" lon="13.977736998349428">
        <ele>34.259999999999998</ele>
        <time>2024-09-17T14:43:22Z</time>
      </trkpt>
      <trkpt lat="52.151314979419112" lon="13.977255960926414">
        <ele>34.740000000000002</ele>
        <time>2024-09-17T14:43:26Z</time>
      </trkpt>
      <trkpt lat="52.151229986920953" lon="13.977122018113732">
        <ele>35.229999999999997</ele>
        <time>2024-09-17T14:43:27Z</time>
      </trkpt>
      <trkpt lat="52.150624981150031" lon="13.976124990731478">
        <ele>34.740000000000002</ele>
        <time>2024-09-17T14:43:33Z</time>
      </trkpt>
      <trkpt lat="52.149571040645242" lon="13.974398989230394">
        <ele>30.899999999999999</ele>
        <time>2024-09-17T14:43:40Z</time>
      </trkpt>
      <trkpt lat="52.148247035220265" lon="13.972674999386072">
        <ele>28.02</ele>
        <time>2024-09-17T14:43:48Z</time>
      </trkpt>
      <trkpt lat="52.146663023158908" lon="13.970853025093675">
        <ele>25.129999999999999</ele>
        <time>2024-09-17T14:43:57Z</time>
      </trkpt>
      <trkpt lat="52.144639967009425" lon="13.96860801614821">
        <ele>14.56</ele>
        <time>2024-09-17T14:44:08Z</time>
      </trkpt>
      <trkpt lat="52.142567038536072" lon="13.9673219807446">
        <ele>1.1</ele>
        <time>2024-09-17T14:44:18Z</time>
      </trkpt>
      <trkpt lat="52.140905996784568" lon="13.966558976098895">
        <ele>-4.67</ele>
        <time>2024-09-17T14:44:26Z</time>
      </trkpt>
      <trkpt lat="52.139228023588657" lon="13.965878030285239">
        <ele>-7.55</ele>
        <time>2024-09-17T14:44:34Z</time>
      </trkpt>
      <trkpt lat="52.137160040438175" lon="13.964521000161767">
        <ele>-9.48</ele>
        <time>2024-09-17T14:44:44Z</time>
      </trkpt>
      <trkpt lat="52.135578040033579" lon="13.963473010808229">
        <ele>-9</ele>
        <time>2024-09-17T14:44:51Z</time>
      </trkpt>
      <trkpt lat="52.134288987144828" lon="13.962388979271054">
        <ele>-9</ele>
        <time>2024-09-17T14:44:57Z</time>
      </trkpt>
      <trkpt lat="52.134092012420297" lon="13.96214297041297">
        <ele>-8.51</ele>
        <time>2024-09-17T14:44:58Z</time>
      </trkpt>
      <trkpt lat="52.13199301622808" lon="13.959504012018442">
        <ele>-5.63</ele>
        <time>2024-09-17T14:45:09Z</time>
      </trkpt>
      <trkpt lat="52.130216974765062" lon="13.95713796839118">
        <ele>-1.3</ele>
        <time>2024-09-17T14:45:19Z</time>
      </trkpt>
      <trkpt lat="52.128424001857638" lon="13.954443018883467">
        <ele>6.39</ele>
        <time>2024-09-17T14:45:30Z</time>
      </trkpt>
      <trkpt lat="52.127173002809286" lon="13.952973000705242">
        <ele>8.310000000000001</ele>
        <time>2024-09-17T14:45:37Z</time>
      </trkpt>
      <trkpt lat="52.125575998798013" lon="13.951517986133695">
        <ele>6.39</ele>
        <time>2024-09-17T14:45:45Z</time>
      </trkpt>
      <trkpt lat="52.124889018014073" lon="13.950934018939734">
        <ele>3.98</ele>
        <time>2024-09-17T14:45:50Z</time>
      </trkpt>
      <trkpt lat="52.123992992565036" lon="13.950356002897024">
        <ele>14.56</ele>
        <time>2024-09-17T14:45:58Z</time>
      </trkpt>
      <trkpt lat="52.122595980763435" lon="13.949734987691045">
        <ele>25.609999999999999</ele>
        <time>2024-09-17T14:46:10Z</time>
      </trkpt>
      <trkpt lat="52.122256010770798" lon="13.949649995192885">
        <ele>27.050000000000001</ele>
        <time>2024-09-17T14:46:13Z</time>
      </trkpt>
      <trkpt lat="52.122142016887665" lon="13.949620993807912">
        <ele>27.530000000000001</ele>
        <time>2024-09-17T14:46:14Z</time>
      </trkpt>
      <trkpt lat="52.12105798535049" lon="13.949417984113097">
        <ele>32.340000000000003</ele>
        <time>2024-09-17T14:46:23Z</time>
      </trkpt>
      <trkpt lat="52.120943991467357" lon="13.94944597966969">
        <ele>32.340000000000003</ele>
        <time>2024-09-17T14:46:24Z</time>
      </trkpt>
      <trkpt lat="52.120708040893078" lon="13.949526026844978">
        <ele>32.82</ele>
        <time>2024-09-17T14:46:26Z</time>
      </trkpt>
      <trkpt lat="52.120602009817958" lon="13.949599033221602">
        <ele>32.82</ele>
        <time>2024-09-17T14:46:27Z</time>
      </trkpt>
      <trkpt lat="52.119956016540527" lon="13.95004696212709">
        <ele>32.82</ele>
        <time>2024-09-17T14:46:33Z</time>
      </trkpt>
      <trkpt lat="52.119845962151885" lon="13.950105970725417">
        <ele>32.82</ele>
        <time>2024-09-17T14:46:34Z</time>
      </trkpt>
      <trkpt lat="52.1197260171175" lon="13.950126003473997">
        <ele>32.82</ele>
        <time>2024-09-17T14:46:35Z</time>
      </trkpt>
      <trkpt lat="52.119603976607323" lon="13.950123991817236">
        <ele>32.82</ele>
        <time>2024-09-17T14:46:36Z</time>
      </trkpt>
      <trkpt lat="52.119477996602654" lon="13.950117034837604">
        <ele>33.299999999999997</ele>
        <time>2024-09-17T14:46:37Z</time>
      </trkpt>
      <trkpt lat="52.117656022310257" lon="13.949957024306059">
        <ele>37.630000000000003</ele>
        <time>2024-09-17T14:46:52Z</time>
      </trkpt>
      <trkpt lat="52.117055039852858" lon="13.949873959645629">
        <ele>35.710000000000001</ele>
        <time>2024-09-17T14:46:57Z</time>
      </trkpt>
      <trkpt lat="52.116948002949357" lon="13.949790978804231">
        <ele>35.229999999999997</ele>
        <time>2024-09-17T14:46:58Z</time>
      </trkpt>
      <trkpt lat="52.116854963824153" lon="13.949685031548142">
        <ele>34.259999999999998</ele>
        <time>2024-09-17T14:46:59Z</time>
      </trkpt>
      <trkpt lat="52.1167610026896" lon="13.949579000473022">
        <ele>33.780000000000001</ele>
        <time>2024-09-17T14:47:00Z</time>
      </trkpt>
      <trkpt lat="52.116673998534679" lon="13.949467018246651">
        <ele>33.299999999999997</ele>
        <time>2024-09-17T14:47:01Z</time>
      </trkpt>
      <trkpt lat="52.115878975018859" lon="13.947970010340214">
        <ele>32.82</ele>
        <time>2024-09-17T14:47:10Z</time>
      </trkpt>
      <trkpt lat="52.11484900675714" lon="13.946111993864179">
        <ele>32.82</ele>
        <time>2024-09-17T14:47:18Z</time>
      </trkpt>
      <trkpt lat="52.114538960158825" lon="13.945645038038492">
        <ele>32.340000000000003</ele>
        <time>2024-09-17T14:47:20Z</time>
      </trkpt>
      <trkpt lat="52.114381967112422" lon="13.945409003645182">
        <ele>32.340000000000003</ele>
        <time>2024-09-17T14:47:21Z</time>
      </trkpt>
      <trkpt lat="52.11317103356123" lon="13.943588035181165">
        <ele>30.899999999999999</ele>
        <time>2024-09-17T14:47:28Z</time>
      </trkpt>
      <trkpt lat="52.111872006207705" lon="13.941446961835027">
        <ele>28.5</ele>
        <time>2024-09-17T14:47:36Z</time>
      </trkpt>
      <trkpt lat="52.110497038811445" lon="13.938770033419132">
        <ele>22.73</ele>
        <time>2024-09-17T14:47:45Z</time>
      </trkpt>
      <trkpt lat="52.109442008659244" lon="13.936714958399534">
        <ele>18.879999999999999</ele>
        <time>2024-09-17T14:47:52Z</time>
      </trkpt>
      <trkpt lat="52.109338995069265" lon="13.936377000063658">
        <ele>18.399999999999999</ele>
        <time>2024-09-17T14:47:53Z</time>
      </trkpt>
      <trkpt lat="52.109234975650907" lon="13.936039041727781">
        <ele>18.399999999999999</ele>
        <time>2024-09-17T14:47:54Z</time>
      </trkpt>
      <trkpt lat="52.108501978218555" lon="13.93335398286581">
        <ele>17.440000000000001</ele>
        <time>2024-09-17T14:48:02Z</time>
      </trkpt>
      <trkpt lat="52.108221016824245" lon="13.93199997022748">
        <ele>17.920000000000002</ele>
        <time>2024-09-17T14:48:06Z</time>
      </trkpt>
      <trkpt lat="52.107770992442966" lon="13.929927041754127">
        <ele>16</ele>
        <time>2024-09-17T14:48:12Z</time>
      </trkpt>
      <trkpt lat="52.107036989182234" lon="13.927798038348556">
        <ele>14.56</ele>
        <time>2024-09-17T14:48:19Z</time>
      </trkpt>
      <trkpt lat="52.105973996222019" lon="13.924903012812138">
        <ele>10.710000000000001</ele>
        <time>2024-09-17T14:48:28Z</time>
      </trkpt>
      <trkpt lat="52.10488099604845" lon="13.921925006434321">
        <ele>4.94</ele>
        <time>2024-09-17T14:48:37Z</time>
      </trkpt>
      <trkpt lat="52.103598983958364" lon="13.918430004268885">
        <ele>1.1</ele>
        <time>2024-09-17T14:48:48Z</time>
      </trkpt>
      <trkpt lat="52.102544959634542" lon="13.915652995929122">
        <ele>0.14</ele>
        <time>2024-09-17T14:48:57Z</time>
      </trkpt>
      <trkpt lat="52.101331008598208" lon="13.913293993100524">
        <ele>3.98</ele>
        <time>2024-09-17T14:49:05Z</time>
      </trkpt>
      <trkpt lat="52.099881023168564" lon="13.910582028329372">
        <ele>3.98</ele>
        <time>2024-09-17T14:49:14Z</time>
      </trkpt>
      <trkpt lat="52.098549976944923" lon="13.908036025241017">
        <ele>4.94</ele>
        <time>2024-09-17T14:49:23Z</time>
      </trkpt>
      <trkpt lat="52.097827959805727" lon="13.906719982624054">
        <ele>11.67</ele>
        <time>2024-09-17T14:49:29Z</time>
      </trkpt>
      <trkpt lat="52.097712960094213" lon="13.906574975699186">
        <ele>12.630000000000001</ele>
        <time>2024-09-17T14:49:30Z</time>
      </trkpt>
      <trkpt lat="52.097612963989377" lon="13.90647497959435">
        <ele>13.6</ele>
        <time>2024-09-17T14:49:31Z</time>
      </trkpt>
      <trkpt lat="52.097510034218431" lon="13.906382024288177">
        <ele>14.08</ele>
        <time>2024-09-17T14:49:32Z</time>
      </trkpt>
      <trkpt lat="52.097420012578368" lon="13.906327039003372">
        <ele>14.08</ele>
        <time>2024-09-17T14:49:33Z</time>
      </trkpt>
      <trkpt lat="52.097336025908589" lon="13.906274987384677">
        <ele>14.08</ele>
        <time>2024-09-17T14:49:34Z</time>
      </trkpt>
      <trkpt lat="52.097247010096908" lon="13.906222013756633">
        <ele>14.08</ele>
        <time>2024-09-17T14:49:35Z</time>
      </trkpt>
      <trkpt lat="52.096848031505942" lon="13.905990002676845">
        <ele>15.039999999999999</ele>
        <time>2024-09-17T14:49:39Z</time>
      </trkpt>
      <trkpt lat="52.09675800986588" lon="13.905940968543291">
        <ele>16</ele>
        <time>2024-09-17T14:49:40Z</time>
      </trkpt>
      <trkpt lat="52.096665976569057" lon="13.905892018228769">
        <ele>16.48</ele>
        <time>2024-09-17T14:49:41Z</time>
      </trkpt>
      <trkpt lat="52.096576038748026" lon="13.905841978266835">
        <ele>16.960000000000001</ele>
        <time>2024-09-17T14:49:42Z</time>
      </trkpt>
      <trkpt lat="52.096505966037512" lon="13.905732007697225">
        <ele>17.440000000000001</ele>
        <time>2024-09-17T14:49:43Z</time>
      </trkpt>
      <trkpt lat="52.096432037651539" lon="13.905605021864176">
        <ele>18.399999999999999</ele>
        <time>2024-09-17T14:49:44Z</time>
      </trkpt>
      <trkpt lat="52.096367999911308" lon="13.905453979969025">
        <ele>18.879999999999999</ele>
        <time>2024-09-17T14:49:45Z</time>
      </trkpt>
      <trkpt lat="52.096303040161729" lon="13.90529103577137">
        <ele>19.84</ele>
        <time>2024-09-17T14:49:46Z</time>
      </trkpt>
      <trkpt lat="52.095999028533697" lon="13.904516967013478">
        <ele>22.73</ele>
        <time>2024-09-17T14:49:51Z</time>
      </trkpt>
      <trkpt lat="52.095486978068948" lon="13.903238978236914">
        <ele>25.609999999999999</ele>
        <time>2024-09-17T14:49:59Z</time>
      </trkpt>
      <trkpt lat="52.094833021983504" lon="13.901809025555849">
        <ele>27.050000000000001</ele>
        <time>2024-09-17T14:50:08Z</time>
      </trkpt>
      <trkpt lat="52.094162972643971" lon="13.900346970185637">
        <ele>28.5</ele>
        <time>2024-09-17T14:50:16Z</time>
      </trkpt>
      <trkpt lat="52.093196036294103" lon="13.897842960432172">
        <ele>28.98</ele>
        <time>2024-09-17T14:50:26Z</time>
      </trkpt>
      <trkpt lat="52.092029023915529" lon="13.894735034555197">
        <ele>29.940000000000001</ele>
        <time>2024-09-17T14:50:38Z</time>
      </trkpt>
      <trkpt lat="52.091082958504558" lon="13.892361028119922">
        <ele>32.340000000000003</ele>
        <time>2024-09-17T14:50:48Z</time>
      </trkpt>
      <trkpt lat="52.090967958793044" lon="13.892240999266505">
        <ele>32.82</ele>
        <time>2024-09-17T14:50:49Z</time>
      </trkpt>
      <trkpt lat="52.090838961303234" lon="13.892168998718262">
        <ele>32.82</ele>
        <time>2024-09-17T14:50:50Z</time>
      </trkpt>
      <trkpt lat="52.090680040419102" lon="13.892152989283204">
        <ele>32.82</ele>
        <time>2024-09-17T14:50:51Z</time>
      </trkpt>
      <trkpt lat="52.090519024059176" lon="13.892168998718262">
        <ele>32.82</ele>
        <time>2024-09-17T14:50:52Z</time>
      </trkpt>
      <trkpt lat="52.090338980779052" lon="13.892205040901899">
        <ele>32.82</ele>
        <time>2024-09-17T14:50:53Z</time>
      </trkpt>
      <trkpt lat="52.090149968862534" lon="13.892243010923266">
        <ele>33.299999999999997</ele>
        <time>2024-09-17T14:50:54Z</time>
      </trkpt>
      <trkpt lat="52.089955005794764" lon="13.892280980944633">
        <ele>33.299999999999997</ele>
        <time>2024-09-17T14:50:55Z</time>
      </trkpt>
      <trkpt lat="52.087238011881709" lon="13.892870983108878">
        <ele>37.630000000000003</ele>
        <time>2024-09-17T14:51:08Z</time>
      </trkpt>
      <trkpt lat="52.085890034213662" lon="13.893164014443755">
        <ele>38.109999999999999</ele>
        <time>2024-09-17T14:51:16Z</time>
      </trkpt>
      <trkpt lat="52.084927959367633" lon="13.893350008875132">
        <ele>36.670000000000002</ele>
        <time>2024-09-17T14:51:24Z</time>
      </trkpt>
      <trkpt lat="52.083485014736652" lon="13.893601968884468">
        <ele>38.590000000000003</ele>
        <time>2024-09-17T14:51:36Z</time>
      </trkpt>
      <trkpt lat="52.082162015140057" lon="13.893834985792637">
        <ele>41.950000000000003</ele>
        <time>2024-09-17T14:51:47Z</time>
      </trkpt>
      <trkpt lat="52.079998981207609" lon="13.89424704015255">
        <ele>48.68</ele>
        <time>2024-09-17T14:52:05Z</time>
      </trkpt>
      <trkpt lat="52.079900996759534" lon="13.894241005182266">
        <ele>48.68</ele>
        <time>2024-09-17T14:52:06Z</time>
      </trkpt>
      <trkpt lat="52.07982799038291" lon="13.894231030717492">
        <ele>48.200000000000003</ele>
        <time>2024-09-17T14:52:07Z</time>
      </trkpt>
      <trkpt lat="52.079781973734498" lon="13.894179984927177">
        <ele>48.68</ele>
        <time>2024-09-17T14:52:08Z</time>
      </trkpt>
      <trkpt lat="52.07976303063333" lon="13.894146960228682">
        <ele>48.68</ele>
        <time>2024-09-17T14:52:09Z</time>
      </trkpt>
      <trkpt lat="52.079737968742847" lon="13.894100021570921">
        <ele>48.68</ele>
        <time>2024-09-17T14:52:19Z</time>
      </trkpt>
      <trkpt lat="52.079664040356874" lon="13.894095998257399">
        <ele>48.68</ele>
        <time>2024-09-17T14:52:20Z</time>
      </trkpt>
      <trkpt lat="52.079622969031334" lon="13.894160035997629">
        <ele>48.68</ele>
        <time>2024-09-17T14:52:21Z</time>
      </trkpt>
      <trkpt lat="52.079567983746529" lon="13.89424704015255">
        <ele>48.200000000000003</ele>
        <time>2024-09-17T14:52:22Z</time>
      </trkpt>
      <trkpt lat="52.079478967934847" lon="13.89431401155889">
        <ele>48.200000000000003</ele>
        <time>2024-09-17T14:52:23Z</time>
      </trkpt>
      <trkpt lat="52.079393975436687" lon="13.894363967701793">
        <ele>48.200000000000003</ele>
        <time>2024-09-17T14:52:24Z</time>
      </trkpt>
      <trkpt lat="52.079315017908812" lon="13.894409984350204">
        <ele>48.200000000000003</ele>
        <time>2024-09-17T14:52:25Z</time>
      </trkpt>
      <trkpt lat="52.079243017360568" lon="13.894432028755546">
        <ele>48.200000000000003</ele>
        <time>2024-09-17T14:52:26Z</time>
      </trkpt>
      <trkpt lat="52.079179985448718" lon="13.894444014877081">
        <ele>48.200000000000003</ele>
        <time>2024-09-17T14:52:27Z</time>
      </trkpt>
      <trkpt lat="52.079117959365249" lon="13.894454995170236">
        <ele>47.719999999999999</ele>
        <time>2024-09-17T14:52:28Z</time>
      </trkpt>
      <trkpt lat="52.079051993787289" lon="13.894467987120152">
        <ele>47.719999999999999</ele>
        <time>2024-09-17T14:52:29Z</time>
      </trkpt>
      <trkpt lat="52.078287983313203" lon="13.894610982388258">
        <ele>46.280000000000001</ele>
        <time>2024-09-17T14:52:39Z</time>
      </trkpt>
      <trkpt lat="52.07808799110353" lon="13.894646018743515">
        <ele>46.280000000000001</ele>
        <time>2024-09-17T14:52:41Z</time>
      </trkpt>
      <trkpt lat="52.077989000827074" lon="13.894664039835334">
        <ele>45.799999999999997</ele>
        <time>2024-09-17T14:52:42Z</time>
      </trkpt>
      <trkpt lat="52.076824000105262" lon="13.894860008731484">
        <ele>43.399999999999999</ele>
        <time>2024-09-17T14:52:53Z</time>
      </trkpt>
      <trkpt lat="52.076221005991101" lon="13.894896972924471">
        <ele>41.950000000000003</ele>
        <time>2024-09-17T14:52:58Z</time>
      </trkpt>
      <trkpt lat="52.075196988880634" lon="13.894605031237006">
        <ele>42.920000000000002</ele>
        <time>2024-09-17T14:53:07Z</time>
      </trkpt>
      <trkpt lat="52.074209013953805" lon="13.8943359721452">
        <ele>42.439999999999998</ele>
        <time>2024-09-17T14:53:17Z</time>
      </trkpt>
      <trkpt lat="52.072967989370227" lon="13.89407797716558">
        <ele>44.359999999999999</ele>
        <time>2024-09-17T14:53:30Z</time>
      </trkpt>
      <trkpt lat="52.071999041363597" lon="13.894258020445704">
        <ele>45.32</ele>
        <time>2024-09-17T14:53:39Z</time>
      </trkpt>
      <trkpt lat="52.071681031957269" lon="13.89450897462666">
        <ele>45.799999999999997</ele>
        <time>2024-09-17T14:53:42Z</time>
      </trkpt>
      <trkpt lat="52.071596961468458" lon="13.89463797211647">
        <ele>45.32</ele>
        <time>2024-09-17T14:53:43Z</time>
      </trkpt>
      <trkpt lat="52.071519009768963" lon="13.894784990698099">
        <ele>45.32</ele>
        <time>2024-09-17T14:53:44Z</time>
      </trkpt>
      <trkpt lat="52.071451032534242" lon="13.89493896625936">
        <ele>45.32</ele>
        <time>2024-09-17T14:53:45Z</time>
      </trkpt>
      <trkpt lat="52.071386994794011" lon="13.895113980397582">
        <ele>45.32</ele>
        <time>2024-09-17T14:53:46Z</time>
      </trkpt>
      <trkpt lat="52.071321029216051" lon="13.895294023677707">
        <ele>45.32</ele>
        <time>2024-09-17T14:53:47Z</time>
      </trkpt>
      <trkpt lat="52.070851977914572" lon="13.896639989688993">
        <ele>45.32</ele>
        <time>2024-09-17T14:53:55Z</time>
      </trkpt>
      <trkpt lat="52.070752987638116" lon="13.896724982187152">
        <ele>44.840000000000003</ele>
        <time>2024-09-17T14:53:56Z</time>
      </trkpt>
      <trkpt lat="52.070666989311576" lon="13.896706961095333">
        <ele>44.359999999999999</ele>
        <time>2024-09-17T14:53:57Z</time>
      </trkpt>
      <trkpt lat="52.070558024570346" lon="13.896682988852262">
        <ele>43.880000000000003</ele>
        <time>2024-09-17T14:53:58Z</time>
      </trkpt>
      <trkpt lat="52.070426009595394" lon="13.896653987467289">
        <ele>43.880000000000003</ele>
        <time>2024-09-17T14:53:59Z</time>
      </trkpt>
      <trkpt lat="52.070278991013765" lon="13.896622974425554">
        <ele>43.399999999999999</ele>
        <time>2024-09-17T14:54:00Z</time>
      </trkpt>
      <trkpt lat="52.068724986165762" lon="13.896301025524735">
        <ele>40.990000000000002</ele>
        <time>2024-09-17T14:54:11Z</time>
      </trkpt>
      <trkpt lat="52.067137034609914" lon="13.895972035825253">
        <ele>37.149999999999999</ele>
        <time>2024-09-17T14:54:23Z</time>
      </trkpt>
      <trkpt lat="52.065559979528189" lon="13.895647991448641">
        <ele>36.670000000000002</ele>
        <time>2024-09-17T14:54:35Z</time>
      </trkpt>
      <trkpt lat="52.064264975488186" lon="13.895459985360503">
        <ele>37.630000000000003</ele>
        <time>2024-09-17T14:54:45Z</time>
      </trkpt>
      <trkpt lat="52.063618982210755" lon="13.895522011443973">
        <ele>37.149999999999999</ele>
        <time>2024-09-17T14:54:50Z</time>
      </trkpt>
      <trkpt lat="52.063497025519609" lon="13.895599963143468">
        <ele>37.630000000000003</ele>
        <time>2024-09-17T14:54:51Z</time>
      </trkpt>
      <trkpt lat="52.063375990837812" lon="13.895677998661995">
        <ele>37.630000000000003</ele>
        <time>2024-09-17T14:54:52Z</time>
      </trkpt>
      <trkpt lat="52.062237979844213" lon="13.896556003019214">
        <ele>38.109999999999999</ele>
        <time>2024-09-17T14:55:01Z</time>
      </trkpt>
      <trkpt lat="52.061981996521354" lon="13.89676203019917">
        <ele>38.109999999999999</ele>
        <time>2024-09-17T14:55:03Z</time>
      </trkpt>
      <trkpt lat="52.061855010688305" lon="13.896863032132387">
        <ele>38.590000000000003</ele>
        <time>2024-09-17T14:55:04Z</time>
      </trkpt>
      <trkpt lat="52.061721989884973" lon="13.896966967731714">
        <ele>38.590000000000003</ele>
        <time>2024-09-17T14:55:05Z</time>
      </trkpt>
      <trkpt lat="52.061009025201201" lon="13.897276008501649">
        <ele>39.549999999999997</ele>
        <time>2024-09-17T14:55:10Z</time>
      </trkpt>
      <trkpt lat="52.060861000791192" lon="13.897276008501649">
        <ele>39.549999999999997</ele>
        <time>2024-09-17T14:55:11Z</time>
      </trkpt>
      <trkpt lat="52.060720017179847" lon="13.897205013781786">
        <ele>39.07</ele>
        <time>2024-09-17T14:55:12Z</time>
      </trkpt>
      <trkpt lat="52.059514028951526" lon="13.89622500166297">
        <ele>40.990000000000002</ele>
        <time>2024-09-17T14:55:21Z</time>
      </trkpt>
      <trkpt lat="52.058754041790962" lon="13.895634999498725">
        <ele>41.469999999999999</ele>
        <time>2024-09-17T14:55:27Z</time>
      </trkpt>
      <trkpt lat="52.058614986017346" lon="13.895582025870681">
        <ele>41.469999999999999</ele>
        <time>2024-09-17T14:55:28Z</time>
      </trkpt>
      <trkpt lat="52.058468973264098" lon="13.895586971193552">
        <ele>40.990000000000002</ele>
        <time>2024-09-17T14:55:29Z</time>
      </trkpt>
      <trkpt lat="52.05832296051085" lon="13.895592000335455">
        <ele>40.990000000000002</ele>
        <time>2024-09-17T14:55:30Z</time>
      </trkpt>
      <trkpt lat="52.058178037405014" lon="13.895597029477358">
        <ele>41.469999999999999</ele>
        <time>2024-09-17T14:55:31Z</time>
      </trkpt>
      <trkpt lat="52.058030012995005" lon="13.895601974800229">
        <ele>41.469999999999999</ele>
        <time>2024-09-17T14:55:32Z</time>
      </trkpt>
      <trkpt lat="52.057893974706531" lon="13.895650003105402">
        <ele>41.469999999999999</ele>
        <time>2024-09-17T14:55:33Z</time>
      </trkpt>
      <trkpt lat="52.057100962847471" lon="13.895928030833602">
        <ele>39.549999999999997</ele>
        <time>2024-09-17T14:55:39Z</time>
      </trkpt>
      <trkpt lat="52.055720966309309" lon="13.896413007751107">
        <ele>33.780000000000001</ele>
        <time>2024-09-17T14:55:50Z</time>
      </trkpt>
      <trkpt lat="52.054241979494691" lon="13.896936038509011">
        <ele>32.82</ele>
        <time>2024-09-17T14:56:01Z</time>
      </trkpt>
      <trkpt lat="52.052834993228316" lon="13.897466026246548">
        <ele>33.299999999999997</ele>
        <time>2024-09-17T14:56:11Z</time>
      </trkpt>
      <trkpt lat="52.051014024764299" lon="13.89813800342381">
        <ele>30.420000000000002</ele>
        <time>2024-09-17T14:56:24Z</time>
      </trkpt>
      <trkpt lat="52.050134008750319" lon="13.898346964269876">
        <ele>31.379999999999999</ele>
        <time>2024-09-17T14:56:30Z</time>
      </trkpt>
      <trkpt lat="52.048961967229843" lon="13.897957960143685">
        <ele>32.340000000000003</ele>
        <time>2024-09-17T14:56:36Z</time>
      </trkpt>
      <trkpt lat="52.046970007941127" lon="13.897230997681618">
        <ele>36.670000000000002</ele>
        <time>2024-09-17T14:56:46Z</time>
      </trkpt>
      <trkpt lat="52.045207964256406" lon="13.896597996354103">
        <ele>40.509999999999998</ele>
        <time>2024-09-17T14:56:55Z</time>
      </trkpt>
      <trkpt lat="52.043339973315597" lon="13.895928030833602">
        <ele>40.990000000000002</ele>
        <time>2024-09-17T14:57:04Z</time>
      </trkpt>
      <trkpt lat="52.0410689804703" lon="13.895165026187897">
        <ele>42.439999999999998</ele>
        <time>2024-09-17T14:57:15Z</time>
      </trkpt>
      <trkpt lat="52.038848027586937" lon="13.894438985735178">
        <ele>44.359999999999999</ele>
        <time>2024-09-17T14:57:26Z</time>
      </trkpt>
      <trkpt lat="52.038645017892122" lon="13.894439991563559">
        <ele>43.880000000000003</ele>
        <time>2024-09-17T14:57:27Z</time>
      </trkpt>
      <trkpt lat="52.038442008197308" lon="13.894491037353873">
        <ele>43.880000000000003</ele>
        <time>2024-09-17T14:57:28Z</time>
      </trkpt>
      <trkpt lat="52.036999985575676" lon="13.895041979849339">
        <ele>42.920000000000002</ele>
        <time>2024-09-17T14:57:35Z</time>
      </trkpt>
      <trkpt lat="52.034648023545742" lon="13.895972035825253">
        <ele>43.880000000000003</ele>
        <time>2024-09-17T14:57:46Z</time>
      </trkpt>
      <trkpt lat="52.032725969329476" lon="13.896731017157435">
        <ele>47.719999999999999</ele>
        <time>2024-09-17T14:57:55Z</time>
      </trkpt>
      <trkpt lat="52.031578989699483" lon="13.897182969376445">
        <ele>51.090000000000003</ele>
        <time>2024-09-17T14:58:02Z</time>
      </trkpt>
      <trkpt lat="52.030784972012043" lon="13.897506007924676">
        <ele>50.609999999999999</ele>
        <time>2024-09-17T14:58:09Z</time>
      </trkpt>
      <trkpt lat="52.030324973165989" lon="13.897626036778092">
        <ele>50.130000000000003</ele>
        <time>2024-09-17T14:58:13Z</time>
      </trkpt>
      <trkpt lat="52.030244003981352" lon="13.897543977946043">
        <ele>49.649999999999999</ele>
        <time>2024-09-17T14:58:14Z</time>
      </trkpt>
      <trkpt lat="52.030180972069502" lon="13.897425038740039">
        <ele>48.68</ele>
        <time>2024-09-17T14:58:15Z</time>
      </trkpt>
      <trkpt lat="52.030108971521258" lon="13.897293023765087">
        <ele>48.200000000000003</ele>
        <time>2024-09-17T14:58:16Z</time>
      </trkpt>
      <trkpt lat="52.030033031478524" lon="13.897150028496981">
        <ele>47.719999999999999</ele>
        <time>2024-09-17T14:58:17Z</time>
      </trkpt>
      <trkpt lat="52.029000967741013" lon="13.895342973992229">
        <ele>45.32</ele>
        <time>2024-09-17T14:58:30Z</time>
      </trkpt>
      <trkpt lat="52.028654040768743" lon="13.89483000151813">
        <ele>44.359999999999999</ele>
        <time>2024-09-17T14:58:36Z</time>
      </trkpt>
      <trkpt lat="52.028551027178764" lon="13.89478599652648">
        <ele>43.880000000000003</ele>
        <time>2024-09-17T14:58:37Z</time>
      </trkpt>
      <trkpt lat="52.028504004701972" lon="13.8947659637779">
        <ele>43.880000000000003</ele>
        <time>2024-09-17T14:58:38Z</time>
      </trkpt>
      <trkpt lat="52.028481038287282" lon="13.894816003739834">
        <ele>43.880000000000003</ele>
        <time>2024-09-17T14:58:39Z</time>
      </trkpt>
      <trkpt lat="52.028443990275264" lon="13.894899990409613">
        <ele>43.880000000000003</ele>
        <time>2024-09-17T14:58:40Z</time>
      </trkpt>
      <trkpt lat="52.028403002768755" lon="13.894994035363197">
        <ele>43.399999999999999</ele>
        <time>2024-09-17T14:58:41Z</time>
      </trkpt>
      <trkpt lat="52.028353968635201" lon="13.895103000104427">
        <ele>42.920000000000002</ele>
        <time>2024-09-17T14:58:42Z</time>
      </trkpt>
      <trkpt lat="52.028238968923688" lon="13.895498961210251">
        <ele>42.439999999999998</ele>
        <time>2024-09-17T14:58:45Z</time>
      </trkpt>
      <trkpt lat="52.028202004730701" lon="13.895638016983867">
        <ele>42.439999999999998</ele>
        <time>2024-09-17T14:58:46Z</time>
      </trkpt>
      <trkpt lat="52.028123969212174" lon="13.895926019176841">
        <ele>41.950000000000003</ele>
        <time>2024-09-17T14:58:48Z</time>
      </trkpt>
      <trkpt lat="52.028079964220524" lon="13.896089969202876">
        <ele>41.950000000000003</ele>
        <time>2024-09-17T14:58:49Z</time>
      </trkpt>
      <trkpt lat="52.028034031391144" lon="13.896262971684337">
        <ele>41.950000000000003</ele>
        <time>2024-09-17T14:58:50Z</time>
      </trkpt>
      <trkpt lat="52.027992038056254" lon="13.896418958902359">
        <ele>41.469999999999999</ele>
        <time>2024-09-17T14:58:51Z</time>
      </trkpt>
      <trkpt lat="52.027952978387475" lon="13.896562037989497">
        <ele>40.990000000000002</ele>
        <time>2024-09-17T14:58:52Z</time>
      </trkpt>
      <trkpt lat="52.027911990880966" lon="13.896714001893997">
        <ele>40.990000000000002</ele>
        <time>2024-09-17T14:58:53Z</time>
      </trkpt>
      <trkpt lat="52.027788022533059" lon="13.89717098325491">
        <ele>39.549999999999997</ele>
        <time>2024-09-17T14:58:56Z</time>
      </trkpt>
      <trkpt lat="52.027739994227886" lon="13.897315990179777">
        <ele>39.07</ele>
        <time>2024-09-17T14:58:57Z</time>
      </trkpt>
      <trkpt lat="52.027694983407855" lon="13.897444987669587">
        <ele>38.590000000000003</ele>
        <time>2024-09-17T14:58:58Z</time>
      </trkpt>
      <trkpt lat="52.02738200314343" lon="13.898260965943336">
        <ele>35.229999999999997</ele>
        <time>2024-09-17T14:59:04Z</time>
      </trkpt>
      <trkpt lat="52.027173964306712" lon="13.899015001952648">
        <ele>33.299999999999997</ele>
        <time>2024-09-17T14:59:11Z</time>
      </trkpt>
      <trkpt lat="52.026938013732433" lon="13.900794982910156">
        <ele>33.780000000000001</ele>
        <time>2024-09-17T14:59:24Z</time>
      </trkpt>
      <trkpt lat="52.026857966557145" lon="13.901367969810963">
        <ele>34.259999999999998</ele>
        <time>2024-09-17T14:59:28Z</time>
      </trkpt>
      <trkpt lat="52.026839023455977" lon="13.90150903724134">
        <ele>34.740000000000002</ele>
        <time>2024-09-17T14:59:29Z</time>
      </trkpt>
      <trkpt lat="52.026679012924433" lon="13.902663979679346">
        <ele>35.710000000000001</ele>
        <time>2024-09-17T14:59:37Z</time>
      </trkpt>
      <trkpt lat="52.026658980175853" lon="13.902812004089355">
        <ele>36.189999999999998</ele>
        <time>2024-09-17T14:59:38Z</time>
      </trkpt>
      <trkpt lat="52.026554038748145" lon="13.904631966724992">
        <ele>39.549999999999997</ele>
        <time>2024-09-17T14:59:50Z</time>
      </trkpt>
      <trkpt lat="52.026367038488388" lon="13.906528959050775">
        <ele>40.990000000000002</ele>
        <time>2024-09-17T15:00:01Z</time>
      </trkpt>
      <trkpt lat="52.026196969673038" lon="13.907802002504468">
        <ele>40.990000000000002</ele>
        <time>2024-09-17T15:00:08Z</time>
      </trkpt>
      <trkpt lat="52.026155982166529" lon="13.907995959743857">
        <ele>40.990000000000002</ele>
        <time>2024-09-17T15:00:09Z</time>
      </trkpt>
      <trkpt lat="52.026109965518117" lon="13.908180026337504">
        <ele>40.990000000000002</ele>
        <time>2024-09-17T15:00:10Z</time>
      </trkpt>
      <trkpt lat="52.026036037132144" lon="13.908327966928482">
        <ele>40.990000000000002</ele>
        <time>2024-09-17T15:00:11Z</time>
      </trkpt>
      <trkpt lat="52.025937968865037" lon="13.908445984125137">
        <ele>40.990000000000002</ele>
        <time>2024-09-17T15:00:12Z</time>
      </trkpt>
      <trkpt lat="52.025837972760201" lon="13.908546986058354">
        <ele>40.990000000000002</ele>
        <time>2024-09-17T15:00:13Z</time>
      </trkpt>
      <trkpt lat="52.025735964998603" lon="13.908647987991571">
        <ele>41.469999999999999</ele>
        <time>2024-09-17T15:00:14Z</time>
      </trkpt>
      <trkpt lat="52.024701973423362" lon="13.909621965140104">
        <ele>40.509999999999998</ele>
        <time>2024-09-17T15:00:23Z</time>
      </trkpt>
      <trkpt lat="52.023174036294222" lon="13.911030041053891">
        <ele>40.030000000000001</ele>
        <time>2024-09-17T15:00:32Z</time>
      </trkpt>
      <trkpt lat="52.02151601202786" lon="13.912592008709908">
        <ele>40.030000000000001</ele>
        <time>2024-09-17T15:00:41Z</time>
      </trkpt>
      <trkpt lat="52.02025000937283" lon="13.9140809699893">
        <ele>39.07</ele>
        <time>2024-09-17T15:00:49Z</time>
      </trkpt>
      <trkpt lat="52.018691981211305" lon="13.915758021175861">
        <ele>37.149999999999999</ele>
        <time>2024-09-17T15:00:58Z</time>
      </trkpt>
      <trkpt lat="52.016148995608091" lon="13.917477987706661">
        <ele>37.630000000000003</ele>
        <time>2024-09-17T15:01:10Z</time>
      </trkpt>
      <trkpt lat="52.014275975525379" lon="13.917920971289277">
        <ele>38.590000000000003</ele>
        <time>2024-09-17T15:01:18Z</time>
      </trkpt>
      <trkpt lat="52.011571973562241" lon="13.918251972645521">
        <ele>40.509999999999998</ele>
        <time>2024-09-17T15:01:30Z</time>
      </trkpt>
      <trkpt lat="52.008900996297598" lon="13.918814985081553">
        <ele>40.990000000000002</ele>
        <time>2024-09-17T15:01:42Z</time>
      </trkpt>
      <trkpt lat="52.00630503706634" lon="13.919886024668813">
        <ele>40.990000000000002</ele>
        <time>2024-09-17T15:01:54Z</time>
      </trkpt>
      <trkpt lat="52.004014011472464" lon="13.920970978215337">
        <ele>40.990000000000002</ele>
        <time>2024-09-17T15:02:05Z</time>
      </trkpt>
      <trkpt lat="52.002370990812778" lon="13.921430977061391">
        <ele>41.950000000000003</ele>
        <time>2024-09-17T15:02:13Z</time>
      </trkpt>
      <trkpt lat="52.000534012913704" lon="13.921945039182901">
        <ele>44.840000000000003</ele>
        <time>2024-09-17T15:02:21Z</time>
      </trkpt>
      <trkpt lat="51.998473992571235" lon="13.922521965578198">
        <ele>47.719999999999999</ele>
        <time>2024-09-17T15:02:30Z</time>
      </trkpt>
      <trkpt lat="51.996232001110911" lon="13.923172987997532">
        <ele>50.609999999999999</ele>
        <time>2024-09-17T15:02:40Z</time>
      </trkpt>
      <trkpt lat="51.994742034003139" lon="13.923570960760117">
        <ele>51.57</ele>
        <time>2024-09-17T15:02:48Z</time>
      </trkpt>
      <trkpt lat="51.994478004053235" lon="13.923641033470631">
        <ele>51.090000000000003</ele>
        <time>2024-09-17T15:02:50Z</time>
      </trkpt>
      <trkpt lat="51.993147963657975" lon="13.924021990969777">
        <ele>51.090000000000003</ele>
        <time>2024-09-17T15:03:01Z</time>
      </trkpt>
      <trkpt lat="51.992111960425973" lon="13.924313010647893">
        <ele>49.159999999999997</ele>
        <time>2024-09-17T15:03:07Z</time>
      </trkpt>
      <trkpt lat="51.990313036367297" lon="13.924808967858553">
        <ele>46.759999999999998</ele>
        <time>2024-09-17T15:03:15Z</time>
      </trkpt>
      <trkpt lat="51.988360974937677" lon="13.925361000001431">
        <ele>42.439999999999998</ele>
        <time>2024-09-17T15:03:23Z</time>
      </trkpt>
      <trkpt lat="51.986448979005218" lon="13.925899034366012">
        <ele>38.109999999999999</ele>
        <time>2024-09-17T15:03:31Z</time>
      </trkpt>
      <trkpt lat="51.983575997874141" lon="13.926704032346606">
        <ele>38.590000000000003</ele>
        <time>2024-09-17T15:03:43Z</time>
      </trkpt>
      <trkpt lat="51.981478007510304" lon="13.927291017025709">
        <ele>37.149999999999999</ele>
        <time>2024-09-17T15:03:52Z</time>
      </trkpt>
      <trkpt lat="51.979451011866331" lon="13.927854029461741">
        <ele>34.740000000000002</ele>
        <time>2024-09-17T15:04:01Z</time>
      </trkpt>
      <trkpt lat="51.976876007393003" lon="13.928580991923809">
        <ele>33.299999999999997</ele>
        <time>2024-09-17T15:04:12Z</time>
      </trkpt>
      <trkpt lat="51.974499989300966" lon="13.929251963272691">
        <ele>31.859999999999999</ele>
        <time>2024-09-17T15:04:22Z</time>
      </trkpt>
      <trkpt lat="51.97186597622931" lon="13.929996024817228">
        <ele>29.460000000000001</ele>
        <time>2024-09-17T15:04:33Z</time>
      </trkpt>
      <trkpt lat="51.969496998935938" lon="13.930663978680968">
        <ele>28.5</ele>
        <time>2024-09-17T15:04:43Z</time>
      </trkpt>
      <trkpt lat="51.967220976948738" lon="13.931313995271921">
        <ele>28.98</ele>
        <time>2024-09-17T15:04:53Z</time>
      </trkpt>
      <trkpt lat="51.965769985690713" lon="13.93173904158175">
        <ele>28.5</ele>
        <time>2024-09-17T15:05:01Z</time>
      </trkpt>
      <trkpt lat="51.964877983555198" lon="13.932088986039162">
        <ele>28.98</ele>
        <time>2024-09-17T15:05:08Z</time>
      </trkpt>
      <trkpt lat="51.964768012985587" lon="13.932135002687573">
        <ele>28.98</ele>
        <time>2024-09-17T15:05:09Z</time>
      </trkpt>
      <trkpt lat="51.963691022247076" lon="13.932447982951999">
        <ele>31.859999999999999</ele>
        <time>2024-09-17T15:05:18Z</time>
      </trkpt>
      <trkpt lat="51.96316204033792" lon="13.932466004043818">
        <ele>33.780000000000001</ele>
        <time>2024-09-17T15:05:22Z</time>
      </trkpt>
      <trkpt lat="51.962870014831424" lon="13.932370031252503">
        <ele>33.780000000000001</ele>
        <time>2024-09-17T15:05:24Z</time>
      </trkpt>
      <trkpt lat="51.961767040193081" lon="13.931681038811803">
        <ele>33.780000000000001</ele>
        <time>2024-09-17T15:05:31Z</time>
      </trkpt>
      <trkpt lat="51.961586996912956" lon="13.931586993858218">
        <ele>33.780000000000001</ele>
        <time>2024-09-17T15:05:32Z</time>
      </trkpt>
      <trkpt lat="51.961407037451863" lon="13.931493032723665">
        <ele>33.780000000000001</ele>
        <time>2024-09-17T15:05:33Z</time>
      </trkpt>
      <trkpt lat="51.95955497212708" lon="13.93105398863554">
        <ele>35.229999999999997</ele>
        <time>2024-09-17T15:05:42Z</time>
      </trkpt>
      <trkpt lat="51.958086965605617" lon="13.930702032521367">
        <ele>35.229999999999997</ele>
        <time>2024-09-17T15:05:50Z</time>
      </trkpt>
      <trkpt lat="51.957200998440385" lon="13.930508997291327">
        <ele>35.710000000000001</ele>
        <time>2024-09-17T15:05:57Z</time>
      </trkpt>
      <trkpt lat="51.956858010962605" lon="13.930461974814534">
        <ele>36.189999999999998</ele>
        <time>2024-09-17T15:06:02Z</time>
      </trkpt>
      <trkpt lat="51.956756003201008" lon="13.930414030328393">
        <ele>36.670000000000002</ele>
        <time>2024-09-17T15:06:03Z</time>
      </trkpt>
      <trkpt lat="51.956711998209357" lon="13.930313028395176">
        <ele>36.670000000000002</ele>
        <time>2024-09-17T15:06:04Z</time>
      </trkpt>
      <trkpt lat="51.956661958247423" lon="13.930197022855282">
        <ele>37.149999999999999</ele>
        <time>2024-09-17T15:06:05Z</time>
      </trkpt>
      <trkpt lat="51.956604961305857" lon="13.93006500788033">
        <ele>37.149999999999999</ele>
        <time>2024-09-17T15:06:06Z</time>
      </trkpt>
      <trkpt lat="51.956120990216732" lon="13.928940994665027">
        <ele>37.149999999999999</ele>
        <time>2024-09-17T15:06:12Z</time>
      </trkpt>
      <trkpt lat="51.955215996131301" lon="13.926863959059119">
        <ele>37.630000000000003</ele>
        <time>2024-09-17T15:06:20Z</time>
      </trkpt>
      <trkpt lat="51.953863995149732" lon="13.924103965982795">
        <ele>38.590000000000003</ele>
        <time>2024-09-17T15:06:30Z</time>
      </trkpt>
      <trkpt lat="51.952603021636605" lon="13.922634031623602">
        <ele>38.590000000000003</ele>
        <time>2024-09-17T15:06:37Z</time>
      </trkpt>
      <trkpt lat="51.95119796320796" lon="13.921251017600298">
        <ele>38.109999999999999</ele>
        <time>2024-09-17T15:06:45Z</time>
      </trkpt>
      <trkpt lat="51.950345020741224" lon="13.920391034334898">
        <ele>39.07</ele>
        <time>2024-09-17T15:06:52Z</time>
      </trkpt>
      <trkpt lat="51.949426028877497" lon="13.919478999450803">
        <ele>43.399999999999999</ele>
        <time>2024-09-17T15:07:01Z</time>
      </trkpt>
      <trkpt lat="51.948400000110269" lon="13.918451964855194">
        <ele>45.32</ele>
        <time>2024-09-17T15:07:11Z</time>
      </trkpt>
      <trkpt lat="51.947472039610147" lon="13.917534984648228">
        <ele>47.719999999999999</ele>
        <time>2024-09-17T15:07:20Z</time>
      </trkpt>
      <trkpt lat="51.947371959686279" lon="13.917439011856914">
        <ele>47.719999999999999</ele>
        <time>2024-09-17T15:07:21Z</time>
      </trkpt>
      <trkpt lat="51.946023982018232" lon="13.916124980896711">
        <ele>49.649999999999999</ele>
        <time>2024-09-17T15:07:34Z</time>
      </trkpt>
      <trkpt lat="51.944455979391932" lon="13.914608024060726">
        <ele>49.159999999999997</ele>
        <time>2024-09-17T15:07:49Z</time>
      </trkpt>
      <trkpt lat="51.94393596611917" lon="13.914138972759247">
        <ele>48.68</ele>
        <time>2024-09-17T15:07:54Z</time>
      </trkpt>
      <trkpt lat="51.943832030519843" lon="13.914034031331539">
        <ele>48.68</ele>
        <time>2024-09-17T15:07:55Z</time>
      </trkpt>
      <trkpt lat="51.943527013063431" lon="13.913729013875127">
        <ele>47.719999999999999</ele>
        <time>2024-09-17T15:07:58Z</time>
      </trkpt>
      <trkpt lat="51.94313800893724" lon="13.913235990330577">
        <ele>46.280000000000001</ele>
        <time>2024-09-17T15:08:05Z</time>
      </trkpt>
      <trkpt lat="51.943094003945589" lon="13.913162983953953">
        <ele>45.32</ele>
        <time>2024-09-17T15:08:14Z</time>
      </trkpt>
      <trkpt lat="51.943071959540248" lon="13.913126019760966">
        <ele>45.32</ele>
        <time>2024-09-17T15:08:15Z</time>
      </trkpt>
      <trkpt lat="51.942979004234076" lon="13.9132019598037">
        <ele>45.32</ele>
        <time>2024-09-17T15:08:16Z</time>
      </trkpt>
      <trkpt lat="51.942940028384328" lon="13.913289969787002">
        <ele>45.32</ele>
        <time>2024-09-17T15:08:17Z</time>
      </trkpt>
      <trkpt lat="51.942893005907536" lon="13.913396000862122">
        <ele>45.32</ele>
        <time>2024-09-17T15:08:18Z</time>
      </trkpt>
      <trkpt lat="51.942835003137589" lon="13.913524998351932">
        <ele>45.32</ele>
        <time>2024-09-17T15:08:19Z</time>
      </trkpt>
      <trkpt lat="51.942766020074487" lon="13.913675034418702">
        <ele>44.840000000000003</ele>
        <time>2024-09-17T15:08:20Z</time>
      </trkpt>
      <trkpt lat="51.942119020968676" lon="13.914634007960558">
        <ele>45.799999999999997</ele>
        <time>2024-09-17T15:08:27Z</time>
      </trkpt>
      <trkpt lat="51.941926991567016" lon="13.91485302709043">
        <ele>46.280000000000001</ele>
        <time>2024-09-17T15:08:29Z</time>
      </trkpt>
      <trkpt lat="51.941139008849859" lon="13.916564024984837">
        <ele>46.759999999999998</ele>
        <time>2024-09-17T15:08:40Z</time>
      </trkpt>
      <trkpt lat="51.941052004694939" lon="13.916932996362448">
        <ele>46.280000000000001</ele>
        <time>2024-09-17T15:08:42Z</time>
      </trkpt>
      <trkpt lat="51.941038006916642" lon="13.917126031592488">
        <ele>46.280000000000001</ele>
        <time>2024-09-17T15:08:43Z</time>
      </trkpt>
      <trkpt lat="51.941030966117978" lon="13.917317977175117">
        <ele>46.280000000000001</ele>
        <time>2024-09-17T15:08:44Z</time>
      </trkpt>
      <trkpt lat="51.941025014966726" lon="13.917511012405157">
        <ele>45.799999999999997</ele>
        <time>2024-09-17T15:08:45Z</time>
      </trkpt>
      <trkpt lat="51.941028032451868" lon="13.917707987129688">
        <ele>46.280000000000001</ele>
        <time>2024-09-17T15:08:46Z</time>
      </trkpt>
      <trkpt lat="51.941049993038177" lon="13.917902028188109">
        <ele>46.280000000000001</ele>
        <time>2024-09-17T15:08:47Z</time>
      </trkpt>
      <trkpt lat="51.941343024373055" lon="13.920603012666106">
        <ele>46.280000000000001</ele>
        <time>2024-09-17T15:09:01Z</time>
      </trkpt>
      <trkpt lat="51.94163697771728" lon="13.92329796217382">
        <ele>49.649999999999999</ele>
        <time>2024-09-17T15:09:15Z</time>
      </trkpt>
      <trkpt lat="51.941858008503914" lon="13.925403999164701">
        <ele>50.609999999999999</ele>
        <time>2024-09-17T15:09:26Z</time>
      </trkpt>
      <trkpt lat="51.942170988768339" lon="13.928146976977587">
        <ele>50.609999999999999</ele>
        <time>2024-09-17T15:09:39Z</time>
      </trkpt>
      <trkpt lat="51.942401994019747" lon="13.930402966216207">
        <ele>49.159999999999997</ele>
        <time>2024-09-17T15:09:48Z</time>
      </trkpt>
      <trkpt lat="51.942701982334256" lon="13.933149967342615">
        <ele>49.159999999999997</ele>
        <time>2024-09-17T15:09:57Z</time>
      </trkpt>
      <trkpt lat="51.942983027547598" lon="13.936154041439295">
        <ele>48.200000000000003</ele>
        <time>2024-09-17T15:10:06Z</time>
      </trkpt>
      <trkpt lat="51.943269018083811" lon="13.93921704031527">
        <ele>46.759999999999998</ele>
        <time>2024-09-17T15:10:15Z</time>
      </trkpt>
      <trkpt lat="51.943648969754577" lon="13.94329902715981">
        <ele>43.880000000000003</ele>
        <time>2024-09-17T15:10:27Z</time>
      </trkpt>
      <trkpt lat="51.943909982219338" lon="13.946109982207417">
        <ele>42.920000000000002</ele>
        <time>2024-09-17T15:10:36Z</time>
      </trkpt>
      <trkpt lat="51.944261016324162" lon="13.949777986854315">
        <ele>42.439999999999998</ele>
        <time>2024-09-17T15:10:48Z</time>
      </trkpt>
      <trkpt lat="51.944527979940176" lon="13.95245298743248">
        <ele>40.030000000000001</ele>
        <time>2024-09-17T15:10:57Z</time>
      </trkpt>
      <trkpt lat="51.944803996011615" lon="13.955212980508804">
        <ele>39.549999999999997</ele>
        <time>2024-09-17T15:11:06Z</time>
      </trkpt>
      <trkpt lat="51.945037012919784" lon="13.957984959706664">
        <ele>38.590000000000003</ele>
        <time>2024-09-17T15:11:15Z</time>
      </trkpt>
      <trkpt lat="51.944911032915115" lon="13.961119959130883">
        <ele>37.630000000000003</ele>
        <time>2024-09-17T15:11:25Z</time>
      </trkpt>
      <trkpt lat="51.944712968543172" lon="13.963202023878694">
        <ele>38.590000000000003</ele>
        <time>2024-09-17T15:11:32Z</time>
      </trkpt>
      <trkpt lat="51.944562010467052" lon="13.96478503011167">
        <ele>39.549999999999997</ele>
        <time>2024-09-17T15:11:39Z</time>
      </trkpt>
      <trkpt lat="51.944529991596937" lon="13.965130029246211">
        <ele>40.030000000000001</ele>
        <time>2024-09-17T15:11:42Z</time>
      </trkpt>
      <trkpt lat="51.94449101574719" lon="13.965533031150699">
        <ele>41.469999999999999</ele>
        <time>2024-09-17T15:11:48Z</time>
      </trkpt>
      <trkpt lat="51.944369981065392" lon="13.966809008270502">
        <ele>41.950000000000003</ele>
        <time>2024-09-17T15:11:56Z</time>
      </trkpt>
      <trkpt lat="51.944136964157224" lon="13.969076983630657">
        <ele>41.469999999999999</ele>
        <time>2024-09-17T15:12:06Z</time>
      </trkpt>
      <trkpt lat="51.943963039666414" lon="13.970770966261625">
        <ele>40.509999999999998</ele>
        <time>2024-09-17T15:12:13Z</time>
      </trkpt>
      <trkpt lat="51.944023976102471" lon="13.972377022728324">
        <ele>40.509999999999998</ele>
        <time>2024-09-17T15:12:19Z</time>
      </trkpt>
      <trkpt lat="51.944381967186928" lon="13.975195018574595">
        <ele>40.990000000000002</ele>
        <time>2024-09-17T15:12:29Z</time>
      </trkpt>
      <trkpt lat="51.944816987961531" lon="13.97844803519547">
        <ele>38.590000000000003</ele>
        <time>2024-09-17T15:12:41Z</time>
      </trkpt>
      <trkpt lat="51.94507397711277" lon="13.981222026050091">
        <ele>40.990000000000002</ele>
        <time>2024-09-17T15:12:51Z</time>
      </trkpt>
      <trkpt lat="51.944788992404938" lon="13.984067011624575">
        <ele>41.950000000000003</ele>
        <time>2024-09-17T15:13:00Z</time>
      </trkpt>
      <trkpt lat="51.944156996905804" lon="13.986633969470859">
        <ele>44.840000000000003</ele>
        <time>2024-09-17T15:13:09Z</time>
      </trkpt>
      <trkpt lat="51.943727005273104" lon="13.988207001239061">
        <ele>46.280000000000001</ele>
        <time>2024-09-17T15:13:17Z</time>
      </trkpt>
      <trkpt lat="51.943273963406682" lon="13.989995028823614">
        <ele>46.759999999999998</ele>
        <time>2024-09-17T15:13:27Z</time>
      </trkpt>
      <trkpt lat="51.943187965080142" lon="13.990534991025925">
        <ele>47.719999999999999</ele>
        <time>2024-09-17T15:13:30Z</time>
      </trkpt>
      <trkpt lat="51.943187965080142" lon="13.990930030122399">
        <ele>47.240000000000002</ele>
        <time>2024-09-17T15:13:32Z</time>
      </trkpt>
      <trkpt lat="51.94341897033155" lon="13.992550000548363">
        <ele>45.799999999999997</ele>
        <time>2024-09-17T15:13:39Z</time>
      </trkpt>
      <trkpt lat="51.943845022469759" lon="13.995199017226696">
        <ele>42.920000000000002</ele>
        <time>2024-09-17T15:13:47Z</time>
      </trkpt>
      <trkpt lat="51.944438964128494" lon="13.998899962753057">
        <ele>40.509999999999998</ele>
        <time>2024-09-17T15:13:56Z</time>
      </trkpt>
      <trkpt lat="51.944957971572876" lon="14.002197990193963">
        <ele>40.509999999999998</ele>
        <time>2024-09-17T15:14:05Z</time>
      </trkpt>
      <trkpt lat="51.945239016786218" lon="14.003980988636613">
        <ele>39.549999999999997</ele>
        <time>2024-09-17T15:14:11Z</time>
      </trkpt>
      <trkpt lat="51.945662973448634" lon="14.006799990311265">
        <ele>38.109999999999999</ele>
        <time>2024-09-17T15:14:20Z</time>
      </trkpt>
      <trkpt lat="51.945742014795542" lon="14.00792601518333">
        <ele>37.630000000000003</ele>
        <time>2024-09-17T15:14:23Z</time>
      </trkpt>
      <trkpt lat="51.945504974573851" lon="14.010735964402556">
        <ele>37.149999999999999</ele>
        <time>2024-09-17T15:14:30Z</time>
      </trkpt>
      <trkpt lat="51.944993007928133" lon="14.015397978946567">
        <ele>38.109999999999999</ele>
        <time>2024-09-17T15:14:41Z</time>
      </trkpt>
      <trkpt lat="51.944498978555202" lon="14.019909035414457">
        <ele>40.030000000000001</ele>
        <time>2024-09-17T15:14:51Z</time>
      </trkpt>
      <trkpt lat="51.94384996779263" lon="14.025801010429859">
        <ele>41.950000000000003</ele>
        <time>2024-09-17T15:15:04Z</time>
      </trkpt>
      <trkpt lat="51.943407990038395" lon="14.029792975634336">
        <ele>42.920000000000002</ele>
        <time>2024-09-17T15:15:13Z</time>
      </trkpt>
      <trkpt lat="51.942995013669133" lon="14.033575979992747">
        <ele>44.840000000000003</ele>
        <time>2024-09-17T15:15:22Z</time>
      </trkpt>
      <trkpt lat="51.94245002232492" lon="14.038717020303011">
        <ele>47.719999999999999</ele>
        <time>2024-09-17T15:15:34Z</time>
      </trkpt>
      <trkpt lat="51.941905030980706" lon="14.042850974947214">
        <ele>47.719999999999999</ele>
        <time>2024-09-17T15:15:44Z</time>
      </trkpt>
      <trkpt lat="51.941217966377735" lon="14.045704007148743">
        <ele>47.240000000000002</ele>
        <time>2024-09-17T15:15:52Z</time>
      </trkpt>
      <trkpt lat="51.940722009167075" lon="14.047775007784367">
        <ele>44.840000000000003</ele>
        <time>2024-09-17T15:15:59Z</time>
      </trkpt>
      <trkpt lat="51.940048020333052" lon="14.050513962283731">
        <ele>44.840000000000003</ele>
        <time>2024-09-17T15:16:09Z</time>
      </trkpt>
      <trkpt lat="51.939518032595515" lon="14.05270298011601">
        <ele>46.280000000000001</ele>
        <time>2024-09-17T15:16:16Z</time>
      </trkpt>
      <trkpt lat="51.939006987959146" lon="14.054804993793368">
        <ele>47.719999999999999</ele>
        <time>2024-09-17T15:16:23Z</time>
      </trkpt>
      <trkpt lat="51.938366023823619" lon="14.057442024350166">
        <ele>49.649999999999999</ele>
        <time>2024-09-17T15:16:32Z</time>
      </trkpt>
      <trkpt lat="51.937537975609303" lon="14.060847004875541">
        <ele>51.090000000000003</ele>
        <time>2024-09-17T15:16:43Z</time>
      </trkpt>
      <trkpt lat="51.93708099424839" lon="14.062725976109505">
        <ele>49.649999999999999</ele>
        <time>2024-09-17T15:16:49Z</time>
      </trkpt>
      <trkpt lat="51.936566010117531" lon="14.06484299339354">
        <ele>46.280000000000001</ele>
        <time>2024-09-17T15:16:56Z</time>
      </trkpt>
      <trkpt lat="51.935814991593361" lon="14.067905992269516">
        <ele>42.920000000000002</ele>
        <time>2024-09-17T15:17:05Z</time>
      </trkpt>
      <trkpt lat="51.934965988621116" lon="14.071254981681705">
        <ele>44.359999999999999</ele>
        <time>2024-09-17T15:17:14Z</time>
      </trkpt>
      <trkpt lat="51.933886986225843" lon="14.07560502178967">
        <ele>49.649999999999999</ele>
        <time>2024-09-17T15:17:25Z</time>
      </trkpt>
      <trkpt lat="51.933191036805511" lon="14.078408014029264">
        <ele>51.090000000000003</ele>
        <time>2024-09-17T15:17:32Z</time>
      </trkpt>
      <trkpt lat="51.932723997160792" lon="14.080292014405131">
        <ele>50.130000000000003</ele>
        <time>2024-09-17T15:17:38Z</time>
      </trkpt>
      <trkpt lat="51.93228998221457" lon="14.082048023119569">
        <ele>49.649999999999999</ele>
        <time>2024-09-17T15:17:46Z</time>
      </trkpt>
      <trkpt lat="51.931744990870357" lon="14.084595032036304">
        <ele>47.719999999999999</ele>
        <time>2024-09-17T15:18:00Z</time>
      </trkpt>
      <trkpt lat="51.931618005037308" lon="14.084914969280362">
        <ele>47.719999999999999</ele>
        <time>2024-09-17T15:18:02Z</time>
      </trkpt>
      <trkpt lat="51.931552961468697" lon="14.085076991468668">
        <ele>47.719999999999999</ele>
        <time>2024-09-17T15:18:03Z</time>
      </trkpt>
      <trkpt lat="51.930989027023315" lon="14.086244003847241">
        <ele>46.759999999999998</ele>
        <time>2024-09-17T15:18:11Z</time>
      </trkpt>
      <trkpt lat="51.930593987926841" lon="14.087088983505964">
        <ele>45.799999999999997</ele>
        <time>2024-09-17T15:18:20Z</time>
      </trkpt>
      <trkpt lat="51.93050597794354" lon="14.087277995422482">
        <ele>45.32</ele>
        <time>2024-09-17T15:18:22Z</time>
      </trkpt>
      <trkpt lat="51.930177994072437" lon="14.087979979813099">
        <ele>45.799999999999997</ele>
        <time>2024-09-17T15:18:29Z</time>
      </trkpt>
      <trkpt lat="51.929987976327538" lon="14.088385999202728">
        <ele>45.32</ele>
        <time>2024-09-17T15:18:33Z</time>
      </trkpt>
      <trkpt lat="51.929606013000011" lon="14.089204994961619">
        <ele>44.840000000000003</ele>
        <time>2024-09-17T15:18:41Z</time>
      </trkpt>
      <trkpt lat="51.929504005238414" lon="14.089390989392996">
        <ele>44.840000000000003</ele>
        <time>2024-09-17T15:18:43Z</time>
      </trkpt>
      <trkpt lat="51.92943200469017" lon="14.089482016861439">
        <ele>44.840000000000003</ele>
        <time>2024-09-17T15:18:44Z</time>
      </trkpt>
      <trkpt lat="51.928939986974001" lon="14.090104037895799">
        <ele>44.840000000000003</ele>
        <time>2024-09-17T15:18:51Z</time>
      </trkpt>
      <trkpt lat="51.928868992254138" lon="14.090193975716829">
        <ele>44.840000000000003</ele>
        <time>2024-09-17T15:18:52Z</time>
      </trkpt>
      <trkpt lat="51.928804032504559" lon="14.09028097987175">
        <ele>44.840000000000003</ele>
        <time>2024-09-17T15:18:53Z</time>
      </trkpt>
      <trkpt lat="51.928746029734612" lon="14.090391034260392">
        <ele>44.840000000000003</ele>
        <time>2024-09-17T15:18:54Z</time>
      </trkpt>
      <trkpt lat="51.928684003651142" lon="14.090508967638016">
        <ele>44.840000000000003</ele>
        <time>2024-09-17T15:18:55Z</time>
      </trkpt>
      <trkpt lat="51.928413016721606" lon="14.09096703864634">
        <ele>43.399999999999999</ele>
        <time>2024-09-17T15:18:59Z</time>
      </trkpt>
      <trkpt lat="51.92833699285984" lon="14.091083966195583">
        <ele>43.399999999999999</ele>
        <time>2024-09-17T15:19:00Z</time>
      </trkpt>
      <trkpt lat="51.928254012018442" lon="14.091211035847664">
        <ele>42.920000000000002</ele>
        <time>2024-09-17T15:19:01Z</time>
      </trkpt>
      <trkpt lat="51.928157033398747" lon="14.091284964233637">
        <ele>42.920000000000002</ele>
        <time>2024-09-17T15:19:02Z</time>
      </trkpt>
      <trkpt lat="51.928052008152008" lon="14.091366017237306">
        <ele>42.439999999999998</ele>
        <time>2024-09-17T15:19:03Z</time>
      </trkpt>
      <trkpt lat="51.927939020097256" lon="14.091432988643646">
        <ele>42.920000000000002</ele>
        <time>2024-09-17T15:19:04Z</time>
      </trkpt>
      <trkpt lat="51.927815973758698" lon="14.091458972543478">
        <ele>42.920000000000002</ele>
        <time>2024-09-17T15:19:05Z</time>
      </trkpt>
      <trkpt lat="51.92745697684586" lon="14.091536002233624">
        <ele>44.359999999999999</ele>
        <time>2024-09-17T15:19:08Z</time>
      </trkpt>
      <trkpt lat="51.927340971305966" lon="14.091574978083372">
        <ele>44.840000000000003</ele>
        <time>2024-09-17T15:19:09Z</time>
      </trkpt>
      <trkpt lat="51.927234018221498" lon="14.091643961146474">
        <ele>44.840000000000003</ele>
        <time>2024-09-17T15:19:10Z</time>
      </trkpt>
      <trkpt lat="51.927123963832855" lon="14.091714033856988">
        <ele>44.840000000000003</ele>
        <time>2024-09-17T15:19:11Z</time>
      </trkpt>
      <trkpt lat="51.927022039890289" lon="14.091811012476683">
        <ele>44.840000000000003</ele>
        <time>2024-09-17T15:19:12Z</time>
      </trkpt>
      <trkpt lat="51.926925983279943" lon="14.091930035501719">
        <ele>45.32</ele>
        <time>2024-09-17T15:19:13Z</time>
      </trkpt>
      <trkpt lat="51.925725024193525" lon="14.09324599429965">
        <ele>44.840000000000003</ele>
        <time>2024-09-17T15:19:25Z</time>
      </trkpt>
      <trkpt lat="51.925624022260308" lon="14.093345990404487">
        <ele>44.840000000000003</ele>
        <time>2024-09-17T15:19:26Z</time>
      </trkpt>
      <trkpt lat="51.92552100867033" lon="14.093442969024181">
        <ele>45.32</ele>
        <time>2024-09-17T15:19:27Z</time>
      </trkpt>
      <trkpt lat="51.924485005438328" lon="14.094372019171715">
        <ele>47.240000000000002</ele>
        <time>2024-09-17T15:19:36Z</time>
      </trkpt>
      <trkpt lat="51.92317902110517" lon="14.095569960772991">
        <ele>48.200000000000003</ele>
        <time>2024-09-17T15:19:45Z</time>
      </trkpt>
      <trkpt lat="51.921842023730278" lon="14.09679296426475">
        <ele>49.649999999999999</ele>
        <time>2024-09-17T15:19:55Z</time>
      </trkpt>
      <trkpt lat="51.920603010803461" lon="14.09792703576386">
        <ele>50.130000000000003</ele>
        <time>2024-09-17T15:20:05Z</time>
      </trkpt>
      <trkpt lat="51.919414959847927" lon="14.099012995138764">
        <ele>49.649999999999999</ele>
        <time>2024-09-17T15:20:15Z</time>
      </trkpt>
      <trkpt lat="51.918579032644629" lon="14.099834002554417">
        <ele>47.240000000000002</ele>
        <time>2024-09-17T15:20:22Z</time>
      </trkpt>
      <trkpt lat="51.91847300156951" lon="14.099975991994143">
        <ele>46.759999999999998</ele>
        <time>2024-09-17T15:20:23Z</time>
      </trkpt>
      <trkpt lat="51.917510004714131" lon="14.101347019895911">
        <ele>44.359999999999999</ele>
        <time>2024-09-17T15:20:32Z</time>
      </trkpt>
      <trkpt lat="51.916658990085125" lon="14.103041002526879">
        <ele>42.920000000000002</ele>
        <time>2024-09-17T15:20:39Z</time>
      </trkpt>
      <trkpt lat="51.915670009329915" lon="14.105008989572525">
        <ele>42.439999999999998</ele>
        <time>2024-09-17T15:20:46Z</time>
      </trkpt>
      <trkpt lat="51.914815977215767" lon="14.106713030487299">
        <ele>40.990000000000002</ele>
        <time>2024-09-17T15:20:53Z</time>
      </trkpt>
      <trkpt lat="51.914331000298262" lon="14.107721960172057">
        <ele>40.509999999999998</ele>
        <time>2024-09-17T15:20:59Z</time>
      </trkpt>
      <trkpt lat="51.914255982264876" lon="14.107865039259195">
        <ele>40.509999999999998</ele>
        <time>2024-09-17T15:21:00Z</time>
      </trkpt>
      <trkpt lat="51.914052972570062" lon="14.108308022841811">
        <ele>40.990000000000002</ele>
        <time>2024-09-17T15:21:03Z</time>
      </trkpt>
      <trkpt lat="51.913992958143353" lon="14.10845504142344">
        <ele>40.990000000000002</ele>
        <time>2024-09-17T15:21:04Z</time>
      </trkpt>
      <trkpt lat="51.913944007828832" lon="14.108616979792714">
        <ele>40.990000000000002</ele>
        <time>2024-09-17T15:21:05Z</time>
      </trkpt>
      <trkpt lat="51.913604037836194" lon="14.110280033200979">
        <ele>43.880000000000003</ele>
        <time>2024-09-17T15:21:14Z</time>
      </trkpt>
      <trkpt lat="51.913164993748069" lon="14.112919997423887">
        <ele>47.240000000000002</ele>
        <time>2024-09-17T15:21:28Z</time>
      </trkpt>
      <trkpt lat="51.912963995710015" lon="14.114854037761688">
        <ele>48.68</ele>
        <time>2024-09-17T15:21:38Z</time>
      </trkpt>
      <trkpt lat="51.91290901042521" lon="14.115023016929626">
        <ele>48.68</ele>
        <time>2024-09-17T15:21:39Z</time>
      </trkpt>
      <trkpt lat="51.912289001047611" lon="14.116935012862086">
        <ele>51.090000000000003</ele>
        <time>2024-09-17T15:21:50Z</time>
      </trkpt>
      <trkpt lat="51.911889016628265" lon="14.118344010785222">
        <ele>51.57</ele>
        <time>2024-09-17T15:21:58Z</time>
      </trkpt>
      <trkpt lat="51.911851968616247" lon="14.118526987731457">
        <ele>51.57</ele>
        <time>2024-09-17T15:21:59Z</time>
      </trkpt>
      <trkpt lat="51.911831013858318" lon="14.118703007698059">
        <ele>52.049999999999997</ele>
        <time>2024-09-17T15:22:00Z</time>
      </trkpt>
      <trkpt lat="51.911817016080022" lon="14.118911968544126">
        <ele>52.049999999999997</ele>
        <time>2024-09-17T15:22:01Z</time>
      </trkpt>
      <trkpt lat="51.911847023293376" lon="14.119077008217573">
        <ele>52.049999999999997</ele>
        <time>2024-09-17T15:22:02Z</time>
      </trkpt>
      <trkpt lat="51.91187996417284" lon="14.119258979335427">
        <ele>52.049999999999997</ele>
        <time>2024-09-17T15:22:03Z</time>
      </trkpt>
      <trkpt lat="51.912051038816571" lon="14.119826015084982">
        <ele>52.530000000000001</ele>
        <time>2024-09-17T15:22:07Z</time>
      </trkpt>
      <trkpt lat="51.912118010222912" lon="14.120049979537725">
        <ele>52.530000000000001</ele>
        <time>2024-09-17T15:22:08Z</time>
      </trkpt>
      <trkpt lat="51.912089008837938" lon="14.120205966755748">
        <ele>53.009999999999998</ele>
        <time>2024-09-17T15:22:09Z</time>
      </trkpt>
      <trkpt lat="51.912060007452965" lon="14.120365977287292">
        <ele>53.009999999999998</ele>
        <time>2024-09-17T15:22:10Z</time>
      </trkpt>
      <trkpt lat="51.91202899441123" lon="14.120532022789121">
        <ele>53.009999999999998</ele>
        <time>2024-09-17T15:22:11Z</time>
      </trkpt>
      <trkpt lat="51.911935033276677" lon="14.121041977778077">
        <ele>53.969999999999999</ele>
        <time>2024-09-17T15:22:14Z</time>
      </trkpt>
      <trkpt lat="51.91187996417284" lon="14.121202994138002">
        <ele>53.969999999999999</ele>
        <time>2024-09-17T15:22:15Z</time>
      </trkpt>
      <trkpt lat="51.911811986938119" lon="14.121355963870883">
        <ele>54.450000000000003</ele>
        <time>2024-09-17T15:22:16Z</time>
      </trkpt>
      <trkpt lat="51.911271018907428" lon="14.123075008392334">
        <ele>55.409999999999997</ele>
        <time>2024-09-17T15:22:26Z</time>
      </trkpt>
      <trkpt lat="51.910794004797935" lon="14.12504299543798">
        <ele>53.009999999999998</ele>
        <time>2024-09-17T15:22:37Z</time>
      </trkpt>
      <trkpt lat="51.910413969308138" lon="14.126455010846257">
        <ele>50.609999999999999</ele>
        <time>2024-09-17T15:22:45Z</time>
      </trkpt>
      <trkpt lat="51.910336017608643" lon="14.126593982800841">
        <ele>50.609999999999999</ele>
        <time>2024-09-17T15:22:46Z</time>
      </trkpt>
      <trkpt lat="51.909549040719867" lon="14.127995017915964">
        <ele>48.68</ele>
        <time>2024-09-17T15:22:55Z</time>
      </trkpt>
      <trkpt lat="51.909172022715211" lon="14.128750981763005">
        <ele>47.240000000000002</ele>
        <time>2024-09-17T15:22:59Z</time>
      </trkpt>
      <trkpt lat="51.908942023292184" lon="14.129437040537596">
        <ele>46.280000000000001</ele>
        <time>2024-09-17T15:23:02Z</time>
      </trkpt>
      <trkpt lat="51.90887002274394" lon="14.129695035517216">
        <ele>45.799999999999997</ele>
        <time>2024-09-17T15:23:03Z</time>
      </trkpt>
      <trkpt lat="51.908226041123271" lon="14.132112041115761">
        <ele>43.880000000000003</ele>
        <time>2024-09-17T15:23:11Z</time>
      </trkpt>
      <trkpt lat="51.907657999545336" lon="14.135402021929622">
        <ele>42.920000000000002</ele>
        <time>2024-09-17T15:23:20Z</time>
      </trkpt>
      <trkpt lat="51.907018963247538" lon="14.139344030991197">
        <ele>41.950000000000003</ele>
        <time>2024-09-17T15:23:30Z</time>
      </trkpt>
      <trkpt lat="51.906583020463586" lon="14.141886010766029">
        <ele>40.509999999999998</ele>
        <time>2024-09-17T15:23:37Z</time>
      </trkpt>
      <trkpt lat="51.906389985233545" lon="14.142521023750305">
        <ele>39.549999999999997</ele>
        <time>2024-09-17T15:23:39Z</time>
      </trkpt>
      <trkpt lat="51.906261993572116" lon="14.142801985144615">
        <ele>39.07</ele>
        <time>2024-09-17T15:23:40Z</time>
      </trkpt>
      <trkpt lat="51.906109023839235" lon="14.143052017316222">
        <ele>38.590000000000003</ele>
        <time>2024-09-17T15:23:41Z</time>
      </trkpt>
      <trkpt lat="51.905928980559111" lon="14.143271036446095">
        <ele>38.109999999999999</ele>
        <time>2024-09-17T15:23:42Z</time>
      </trkpt>
      <trkpt lat="51.905741980299354" lon="14.143497012555599">
        <ele>37.630000000000003</ele>
        <time>2024-09-17T15:23:43Z</time>
      </trkpt>
      <trkpt lat="51.905541988089681" lon="14.143674038350582">
        <ele>37.149999999999999</ele>
        <time>2024-09-17T15:23:44Z</time>
      </trkpt>
      <trkpt lat="51.90532498061657" lon="14.143847040832043">
        <ele>36.189999999999998</ele>
        <time>2024-09-17T15:23:45Z</time>
      </trkpt>
      <trkpt lat="51.903868960216641" lon="14.144995026290417">
        <ele>32.82</ele>
        <time>2024-09-17T15:23:52Z</time>
      </trkpt>
      <trkpt lat="51.903280969709158" lon="14.145408002659678">
        <ele>32.82</ele>
        <time>2024-09-17T15:23:55Z</time>
      </trkpt>
      <trkpt lat="51.903075026348233" lon="14.145529959350824">
        <ele>32.82</ele>
        <time>2024-09-17T15:23:56Z</time>
      </trkpt>
      <trkpt lat="51.901347013190389" lon="14.146248959004879">
        <ele>35.710000000000001</ele>
        <time>2024-09-17T15:24:04Z</time>
      </trkpt>
      <trkpt lat="51.899621011689305" lon="14.147397028282285">
        <ele>39.07</ele>
        <time>2024-09-17T15:24:13Z</time>
      </trkpt>
      <trkpt lat="51.898714005947113" lon="14.148089038208127">
        <ele>40.990000000000002</ele>
        <time>2024-09-17T15:24:18Z</time>
      </trkpt>
      <trkpt lat="51.898130960762501" lon="14.148290036246181">
        <ele>41.469999999999999</ele>
        <time>2024-09-17T15:24:21Z</time>
      </trkpt>
      <trkpt lat="51.897927029058337" lon="14.148304034024477">
        <ele>41.950000000000003</ele>
        <time>2024-09-17T15:24:22Z</time>
      </trkpt>
      <trkpt lat="51.897715972736478" lon="14.148294981569052">
        <ele>41.950000000000003</ele>
        <time>2024-09-17T15:24:23Z</time>
      </trkpt>
      <trkpt lat="51.896018972620368" lon="14.148431019857526">
        <ele>43.399999999999999</ele>
        <time>2024-09-17T15:24:31Z</time>
      </trkpt>
      <trkpt lat="51.894506961107254" lon="14.149334002286196">
        <ele>43.399999999999999</ele>
        <time>2024-09-17T15:24:38Z</time>
      </trkpt>
      <trkpt lat="51.894296994432807" lon="14.149470962584019">
        <ele>43.399999999999999</ele>
        <time>2024-09-17T15:24:39Z</time>
      </trkpt>
      <trkpt lat="51.892488012090325" lon="14.150644009932876">
        <ele>41.469999999999999</ele>
        <time>2024-09-17T15:24:48Z</time>
      </trkpt>
      <trkpt lat="51.891285041347146" lon="14.151613963767886">
        <ele>38.590000000000003</ele>
        <time>2024-09-17T15:24:57Z</time>
      </trkpt>
      <trkpt lat="51.891217986121774" lon="14.151678001508117">
        <ele>38.109999999999999</ele>
        <time>2024-09-17T15:24:58Z</time>
      </trkpt>
      <trkpt lat="51.891160989180207" lon="14.151762994006276">
        <ele>37.630000000000003</ele>
        <time>2024-09-17T15:24:59Z</time>
      </trkpt>
      <trkpt lat="51.891054036095738" lon="14.151828037574887">
        <ele>37.149999999999999</ele>
        <time>2024-09-17T15:25:00Z</time>
      </trkpt>
      <trkpt lat="51.891009025275707" lon="14.15177196264267">
        <ele>37.149999999999999</ele>
        <time>2024-09-17T15:25:01Z</time>
      </trkpt>
      <trkpt lat="51.890916991978884" lon="14.151656962931156">
        <ele>37.149999999999999</ele>
        <time>2024-09-17T15:25:02Z</time>
      </trkpt>
      <trkpt lat="51.890883967280388" lon="14.151571970432997">
        <ele>36.670000000000002</ele>
        <time>2024-09-17T15:25:03Z</time>
      </trkpt>
      <trkpt lat="51.890835016965866" lon="14.15144800208509">
        <ele>37.149999999999999</ele>
        <time>2024-09-17T15:25:04Z</time>
      </trkpt>
      <trkpt lat="51.890711970627308" lon="14.151137033477426">
        <ele>36.670000000000002</ele>
        <time>2024-09-17T15:25:07Z</time>
      </trkpt>
      <trkpt lat="51.890676012262702" lon="14.151046006008983">
        <ele>36.670000000000002</ele>
        <time>2024-09-17T15:25:08Z</time>
      </trkpt>
      <trkpt lat="51.890636030584574" lon="14.150946009904146">
        <ele>37.149999999999999</ele>
        <time>2024-09-17T15:25:09Z</time>
      </trkpt>
      <trkpt lat="51.890596970915794" lon="14.15084601379931">
        <ele>37.630000000000003</ele>
        <time>2024-09-17T15:25:10Z</time>
      </trkpt>
      <trkpt lat="51.890552965924144" lon="14.150734031572938">
        <ele>37.630000000000003</ele>
        <time>2024-09-17T15:25:11Z</time>
      </trkpt>
      <trkpt lat="51.890494041144848" lon="14.150658007711172">
        <ele>38.109999999999999</ele>
        <time>2024-09-17T15:25:12Z</time>
      </trkpt>
      <trkpt lat="51.890428997576237" lon="14.150573015213013">
        <ele>38.109999999999999</ele>
        <time>2024-09-17T15:25:13Z</time>
      </trkpt>
      <trkpt lat="51.890362026169896" lon="14.150486011058092">
        <ele>38.109999999999999</ele>
        <time>2024-09-17T15:25:14Z</time>
      </trkpt>
      <trkpt lat="51.890293965116143" lon="14.15039699524641">
        <ele>38.109999999999999</ele>
        <time>2024-09-17T15:25:15Z</time>
      </trkpt>
      <trkpt lat="51.890225987881422" lon="14.150306973606348">
        <ele>38.109999999999999</ele>
        <time>2024-09-17T15:25:16Z</time>
      </trkpt>
      <trkpt lat="51.890086010098457" lon="14.150125002488494">
        <ele>38.590000000000003</ele>
        <time>2024-09-17T15:25:18Z</time>
      </trkpt>
      <trkpt lat="51.890015015378594" lon="14.15003196336329">
        <ele>38.109999999999999</ele>
        <time>2024-09-17T15:25:19Z</time>
      </trkpt>
      <trkpt lat="51.889495002105832" lon="14.149354035034776">
        <ele>39.549999999999997</ele>
        <time>2024-09-17T15:25:26Z</time>
      </trkpt>
      <trkpt lat="51.889414032921195" lon="14.149248003959656">
        <ele>40.509999999999998</ele>
        <time>2024-09-17T15:25:27Z</time>
      </trkpt>
      <trkpt lat="51.888661002740264" lon="14.148315014317632">
        <ele>45.32</ele>
        <time>2024-09-17T15:25:36Z</time>
      </trkpt>
      <trkpt lat="51.888570981100202" lon="14.148209989070892">
        <ele>46.280000000000001</ele>
        <time>2024-09-17T15:25:37Z</time>
      </trkpt>
      <trkpt lat="51.887795990332961" lon="14.147365009412169">
        <ele>50.609999999999999</ele>
        <time>2024-09-17T15:25:44Z</time>
      </trkpt>
      <trkpt lat="51.886831987649202" lon="14.146408969536424">
        <ele>51.57</ele>
        <time>2024-09-17T15:25:51Z</time>
      </trkpt>
      <trkpt lat="51.885716021060944" lon="14.145822990685701">
        <ele>51.090000000000003</ele>
        <time>2024-09-17T15:25:59Z</time>
      </trkpt>
      <trkpt lat="51.885142028331757" lon="14.145556027069688">
        <ele>52.530000000000001</ele>
        <time>2024-09-17T15:26:07Z</time>
      </trkpt>
      <trkpt lat="51.885070027783513" lon="14.145571030676365">
        <ele>52.530000000000001</ele>
        <time>2024-09-17T15:26:08Z</time>
      </trkpt>
      <trkpt lat="51.88499903306365" lon="14.145586034283042">
        <ele>52.530000000000001</ele>
        <time>2024-09-17T15:26:09Z</time>
      </trkpt>
      <trkpt lat="51.88442001119256" lon="14.145834976807237">
        <ele>51.57</ele>
        <time>2024-09-17T15:26:17Z</time>
      </trkpt>
      <trkpt lat="51.884354967623949" lon="14.145864984020591">
        <ele>51.57</ele>
        <time>2024-09-17T15:26:18Z</time>
      </trkpt>
      <trkpt lat="51.88429101370275" lon="14.145895997062325">
        <ele>51.57</ele>
        <time>2024-09-17T15:26:19Z</time>
      </trkpt>
      <trkpt lat="51.884223036468029" lon="14.145928015932441">
        <ele>51.090000000000003</ele>
        <time>2024-09-17T15:26:20Z</time>
      </trkpt>
      <trkpt lat="51.88416201621294" lon="14.145947964861989">
        <ele>51.090000000000003</ele>
        <time>2024-09-17T15:26:21Z</time>
      </trkpt>
      <trkpt lat="51.884035030379891" lon="14.145989958196878">
        <ele>50.609999999999999</ele>
        <time>2024-09-17T15:26:23Z</time>
      </trkpt>
      <trkpt lat="51.883976021781564" lon="14.146009990945458">
        <ele>51.090000000000003</ele>
        <time>2024-09-17T15:26:24Z</time>
      </trkpt>
      <trkpt lat="51.883910978212953" lon="14.146031029522419">
        <ele>51.090000000000003</ele>
        <time>2024-09-17T15:26:25Z</time>
      </trkpt>
      <trkpt lat="51.883835960179567" lon="14.14605600759387">
        <ele>51.090000000000003</ele>
        <time>2024-09-17T15:26:26Z</time>
      </trkpt>
      <trkpt lat="51.88379698432982" lon="14.14609900675714">
        <ele>51.090000000000003</ele>
        <time>2024-09-17T15:26:27Z</time>
      </trkpt>
      <trkpt lat="51.883743004873395" lon="14.146159021183848">
        <ele>51.090000000000003</ele>
        <time>2024-09-17T15:26:28Z</time>
      </trkpt>
      <trkpt lat="51.88368902541697" lon="14.146219035610557">
        <ele>51.090000000000003</ele>
        <time>2024-09-17T15:26:29Z</time>
      </trkpt>
      <trkpt lat="51.883632028475404" lon="14.146281983703375">
        <ele>51.090000000000003</ele>
        <time>2024-09-17T15:26:30Z</time>
      </trkpt>
      <trkpt lat="51.883554998785257" lon="14.146280977874994">
        <ele>50.609999999999999</ele>
        <time>2024-09-17T15:26:31Z</time>
      </trkpt>
      <trkpt lat="51.883482998237014" lon="14.146268991753459">
        <ele>50.130000000000003</ele>
        <time>2024-09-17T15:26:32Z</time>
      </trkpt>
      <trkpt lat="51.883404040709138" lon="14.146255999803543">
        <ele>50.130000000000003</ele>
        <time>2024-09-17T15:26:33Z</time>
      </trkpt>
      <trkpt lat="51.88332399353385" lon="14.146243007853627">
        <ele>50.130000000000003</ele>
        <time>2024-09-17T15:26:34Z</time>
      </trkpt>
      <trkpt lat="51.883240006864071" lon="14.146229010075331">
        <ele>50.130000000000003</ele>
        <time>2024-09-17T15:26:35Z</time>
      </trkpt>
      <trkpt lat="51.883069016039371" lon="14.146200008690357">
        <ele>49.649999999999999</ele>
        <time>2024-09-17T15:26:37Z</time>
      </trkpt>
      <trkpt lat="51.88291504047811" lon="14.146205959841609">
        <ele>49.159999999999997</ele>
        <time>2024-09-17T15:26:39Z</time>
      </trkpt>
      <trkpt lat="51.882833987474442" lon="14.146233033388853">
        <ele>48.68</ele>
        <time>2024-09-17T15:26:40Z</time>
      </trkpt>
      <trkpt lat="51.882772967219353" lon="14.146274020895362">
        <ele>48.200000000000003</ele>
        <time>2024-09-17T15:26:41Z</time>
      </trkpt>
      <trkpt lat="51.882728040218353" lon="14.146363036707044">
        <ele>47.719999999999999</ele>
        <time>2024-09-17T15:26:42Z</time>
      </trkpt>
      <trkpt lat="51.882683029398322" lon="14.146453980356455">
        <ele>47.240000000000002</ele>
        <time>2024-09-17T15:26:43Z</time>
      </trkpt>
      <trkpt lat="51.882632989436388" lon="14.146552970632911">
        <ele>46.759999999999998</ele>
        <time>2024-09-17T15:26:44Z</time>
      </trkpt>
      <trkpt lat="51.882549002766609" lon="14.146722033619881">
        <ele>46.280000000000001</ele>
        <time>2024-09-17T15:26:45Z</time>
      </trkpt>
      <trkpt lat="51.882535004988313" lon="14.146846001967788">
        <ele>45.799999999999997</ele>
        <time>2024-09-17T15:26:46Z</time>
      </trkpt>
      <trkpt lat="51.882515978068113" lon="14.147021016106009">
        <ele>45.32</ele>
        <time>2024-09-17T15:26:47Z</time>
      </trkpt>
      <trkpt lat="51.882495023310184" lon="14.147204998880625">
        <ele>45.32</ele>
        <time>2024-09-17T15:26:48Z</time>
      </trkpt>
      <trkpt lat="51.882456969469786" lon="14.147545974701643">
        <ele>44.840000000000003</ele>
        <time>2024-09-17T15:26:50Z</time>
      </trkpt>
      <trkpt lat="51.882436014711857" lon="14.147696010768414">
        <ele>44.840000000000003</ele>
        <time>2024-09-17T15:26:51Z</time>
      </trkpt>
      <trkpt lat="51.882371976971626" lon="14.147808998823166">
        <ele>44.840000000000003</ele>
        <time>2024-09-17T15:26:52Z</time>
      </trkpt>
      <trkpt lat="51.882295031100512" lon="14.147888962179422">
        <ele>44.359999999999999</ele>
        <time>2024-09-17T15:26:53Z</time>
      </trkpt>
      <trkpt lat="51.88220601528883" lon="14.147965991869569">
        <ele>44.359999999999999</ele>
        <time>2024-09-17T15:26:54Z</time>
      </trkpt>
      <trkpt lat="51.882098978385329" lon="14.148017959669232">
        <ele>43.880000000000003</ele>
        <time>2024-09-17T15:26:55Z</time>
      </trkpt>
      <trkpt lat="51.880970019847155" lon="14.148564962670207">
        <ele>42.920000000000002</ele>
        <time>2024-09-17T15:27:04Z</time>
      </trkpt>
      <trkpt lat="51.880859965458512" lon="14.148618020117283">
        <ele>42.920000000000002</ele>
        <time>2024-09-17T15:27:05Z</time>
      </trkpt>
      <trkpt lat="51.880728034302592" lon="14.148586001247168">
        <ele>42.920000000000002</ele>
        <time>2024-09-17T15:27:06Z</time>
      </trkpt>
      <trkpt lat="51.880645975470543" lon="14.148497991263866">
        <ele>42.920000000000002</ele>
        <time>2024-09-17T15:27:07Z</time>
      </trkpt>
      <trkpt lat="51.880550002679229" lon="14.148393971845508">
        <ele>43.399999999999999</ele>
        <time>2024-09-17T15:27:08Z</time>
      </trkpt>
      <trkpt lat="51.880435002967715" lon="14.148301016539335">
        <ele>43.399999999999999</ele>
        <time>2024-09-17T15:27:09Z</time>
      </trkpt>
      <trkpt lat="51.880322014912963" lon="14.148223986849189">
        <ele>44.359999999999999</ele>
        <time>2024-09-17T15:27:10Z</time>
      </trkpt>
      <trkpt lat="51.880110036581755" lon="14.148079985752702">
        <ele>44.840000000000003</ele>
        <time>2024-09-17T15:27:12Z</time>
      </trkpt>
      <trkpt lat="51.879967963322997" lon="14.148030029609799">
        <ele>44.359999999999999</ele>
        <time>2024-09-17T15:27:13Z</time>
      </trkpt>
      <trkpt lat="51.879521040245891" lon="14.148006979376078">
        <ele>43.880000000000003</ele>
        <time>2024-09-17T15:27:16Z</time>
      </trkpt>
      <trkpt lat="51.879383996129036" lon="14.147935984656215">
        <ele>43.880000000000003</ele>
        <time>2024-09-17T15:27:17Z</time>
      </trkpt>
      <trkpt lat="51.879262961447239" lon="14.147873036563396">
        <ele>43.399999999999999</ele>
        <time>2024-09-17T15:27:18Z</time>
      </trkpt>
      <trkpt lat="51.879164976999164" lon="14.147821990773082">
        <ele>43.880000000000003</ele>
        <time>2024-09-17T15:27:19Z</time>
      </trkpt>
      <trkpt lat="51.879083001986146" lon="14.147778991609812">
        <ele>43.880000000000003</ele>
        <time>2024-09-17T15:27:20Z</time>
      </trkpt>
      <trkpt lat="51.879004966467619" lon="14.14773004129529">
        <ele>43.880000000000003</ele>
        <time>2024-09-17T15:27:21Z</time>
      </trkpt>
      <trkpt lat="51.878926008939743" lon="14.147663991898298">
        <ele>43.880000000000003</ele>
        <time>2024-09-17T15:27:22Z</time>
      </trkpt>
      <trkpt lat="51.878857025876641" lon="14.147604983299971">
        <ele>43.880000000000003</ele>
        <time>2024-09-17T15:27:23Z</time>
      </trkpt>
      <trkpt lat="51.878750994801521" lon="14.147514961659908">
        <ele>43.880000000000003</ele>
        <time>2024-09-17T15:27:24Z</time>
      </trkpt>
      <trkpt lat="51.878678994253278" lon="14.14753801189363">
        <ele>43.880000000000003</ele>
        <time>2024-09-17T15:27:25Z</time>
      </trkpt>
      <trkpt lat="51.878580003976822" lon="14.147569024935365">
        <ele>43.399999999999999</ele>
        <time>2024-09-17T15:27:26Z</time>
      </trkpt>
      <trkpt lat="51.87846802175045" lon="14.14760397747159">
        <ele>43.399999999999999</ele>
        <time>2024-09-17T15:27:27Z</time>
      </trkpt>
      <trkpt lat="51.878345981240273" lon="14.147643037140369">
        <ele>43.399999999999999</ele>
        <time>2024-09-17T15:27:28Z</time>
      </trkpt>
      <trkpt lat="51.877085007727146" lon="14.148041009902954">
        <ele>41.950000000000003</ele>
        <time>2024-09-17T15:27:36Z</time>
      </trkpt>
      <trkpt lat="51.875886982306838" lon="14.148363964632154">
        <ele>38.590000000000003</ele>
        <time>2024-09-17T15:27:44Z</time>
      </trkpt>
      <trkpt lat="51.875638961791992" lon="14.148258017376065">
        <ele>38.109999999999999</ele>
        <time>2024-09-17T15:27:46Z</time>
      </trkpt>
      <trkpt lat="51.875494038686156" lon="14.148195991292596">
        <ele>38.109999999999999</ele>
        <time>2024-09-17T15:27:47Z</time>
      </trkpt>
      <trkpt lat="51.874128961935639" lon="14.147615041583776">
        <ele>36.189999999999998</ele>
        <time>2024-09-17T15:27:55Z</time>
      </trkpt>
      <trkpt lat="51.873064963147044" lon="14.147300971671939">
        <ele>36.189999999999998</ele>
        <time>2024-09-17T15:28:01Z</time>
      </trkpt>
      <trkpt lat="51.872917022556067" lon="14.147188989445567">
        <ele>36.189999999999998</ele>
        <time>2024-09-17T15:28:02Z</time>
      </trkpt>
      <trkpt lat="51.872663972899318" lon="14.146996038034558">
        <ele>36.189999999999998</ele>
        <time>2024-09-17T15:28:04Z</time>
      </trkpt>
      <trkpt lat="51.872614016756415" lon="14.14695798419416">
        <ele>36.189999999999998</ele>
        <time>2024-09-17T15:28:05Z</time>
      </trkpt>
      <trkpt lat="51.872059972956777" lon="14.146530004218221">
        <ele>40.990000000000002</ele>
        <time>2024-09-17T15:28:14Z</time>
      </trkpt>
      <trkpt lat="51.872056033462286" lon="14.146530004218221">
        <ele>40.990000000000002</ele>
        <time>2024-09-17T15:28:15Z</time>
      </trkpt>
      <trkpt lat="51.8720449693501" lon="14.146567974239588">
        <ele>40.990000000000002</ele>
        <time>2024-09-17T15:28:16Z</time>
      </trkpt>
      <trkpt lat="51.872036000713706" lon="14.146598987281322">
        <ele>40.990000000000002</ele>
        <time>2024-09-17T15:28:17Z</time>
      </trkpt>
      <trkpt lat="51.872036000713706" lon="14.146598987281322">
        <ele>40.990000000000002</ele>
        <time>2024-09-17T15:28:28Z</time>
      </trkpt>
      <trkpt lat="51.872036000713706" lon="14.146598987281322">
        <ele>41.950000000000003</ele>
        <time>2024-09-17T15:28:48Z</time>
      </trkpt>
      <trkpt lat="51.872036000713706" lon="14.146598987281322">
        <ele>41.950000000000003</ele>
        <time>2024-09-17T15:28:49Z</time>
      </trkpt>
      <trkpt lat="51.872016973793507" lon="14.146493040025234">
        <ele>41.950000000000003</ele>
        <time>2024-09-17T15:28:50Z</time>
      </trkpt>
      <trkpt lat="51.872056033462286" lon="14.14652799256146">
        <ele>41.950000000000003</ele>
        <time>2024-09-17T15:28:51Z</time>
      </trkpt>
      <trkpt lat="51.872056033462286" lon="14.14652799256146">
        <ele>42.439999999999998</ele>
        <time>2024-09-17T15:28:52Z</time>
      </trkpt>
      <trkpt lat="51.872056033462286" lon="14.14652799256146">
        <ele>42.920000000000002</ele>
        <time>2024-09-17T15:28:53Z</time>
      </trkpt>
      <trkpt lat="51.872012028470635" lon="14.146489016711712">
        <ele>43.399999999999999</ele>
        <time>2024-09-17T15:28:54Z</time>
      </trkpt>
      <trkpt lat="51.871971040964127" lon="14.146452974528074">
        <ele>43.880000000000003</ele>
        <time>2024-09-17T15:28:55Z</time>
      </trkpt>
      <trkpt lat="51.871911026537418" lon="14.14639899507165">
        <ele>43.880000000000003</ele>
        <time>2024-09-17T15:28:56Z</time>
      </trkpt>
      <trkpt lat="51.871514981612563" lon="14.146046033129096">
        <ele>42.920000000000002</ele>
        <time>2024-09-17T15:29:01Z</time>
      </trkpt>
      <trkpt lat="51.871441975235939" lon="14.145980989560485">
        <ele>42.439999999999998</ele>
        <time>2024-09-17T15:29:02Z</time>
      </trkpt>
      <trkpt lat="51.871372992172837" lon="14.145919969305396">
        <ele>42.439999999999998</ele>
        <time>2024-09-17T15:29:03Z</time>
      </trkpt>
      <trkpt lat="51.871299985796213" lon="14.145855009555817">
        <ele>42.439999999999998</ele>
        <time>2024-09-17T15:29:04Z</time>
      </trkpt>
      <trkpt lat="51.871221028268337" lon="14.145784014835954">
        <ele>41.950000000000003</ele>
        <time>2024-09-17T15:29:05Z</time>
      </trkpt>
      <trkpt lat="51.870300024747849" lon="14.145113965496421">
        <ele>42.920000000000002</ele>
        <time>2024-09-17T15:29:15Z</time>
      </trkpt>
      <trkpt lat="51.870115036144853" lon="14.145037019625306">
        <ele>43.399999999999999</ele>
        <time>2024-09-17T15:29:17Z</time>
      </trkpt>
      <trkpt lat="51.870029959827662" lon="14.14500298909843">
        <ele>43.880000000000003</ele>
        <time>2024-09-17T15:29:18Z</time>
      </trkpt>
      <trkpt lat="51.869642967358232" lon="14.144950015470386">
        <ele>43.880000000000003</ele>
        <time>2024-09-17T15:29:22Z</time>
      </trkpt>
      <trkpt lat="51.86953098513186" lon="14.144985973834991">
        <ele>43.880000000000003</ele>
        <time>2024-09-17T15:29:23Z</time>
      </trkpt>
      <trkpt lat="51.869023041799664" lon="14.145094016566873">
        <ele>43.880000000000003</ele>
        <time>2024-09-17T15:29:27Z</time>
      </trkpt>
      <trkpt lat="51.868912987411022" lon="14.145078007131815">
        <ele>44.359999999999999</ele>
        <time>2024-09-17T15:29:28Z</time>
      </trkpt>
      <trkpt lat="51.868798993527889" lon="14.145007012411952">
        <ele>44.359999999999999</ele>
        <time>2024-09-17T15:29:29Z</time>
      </trkpt>
      <trkpt lat="51.868696985766292" lon="14.144899975508451">
        <ele>44.359999999999999</ele>
        <time>2024-09-17T15:29:30Z</time>
      </trkpt>
      <trkpt lat="51.868580980226398" lon="14.144779024645686">
        <ele>44.840000000000003</ele>
        <time>2024-09-17T15:29:31Z</time>
      </trkpt>
      <trkpt lat="51.86845701187849" lon="14.144649021327496">
        <ele>44.840000000000003</ele>
        <time>2024-09-17T15:29:32Z</time>
      </trkpt>
      <trkpt lat="51.868015034124255" lon="14.144188016653061">
        <ele>46.280000000000001</ele>
        <time>2024-09-17T15:29:37Z</time>
      </trkpt>
      <trkpt lat="51.867973962798715" lon="14.144145017489791">
        <ele>46.280000000000001</ele>
        <time>2024-09-17T15:29:38Z</time>
      </trkpt>
      <trkpt lat="51.867856029421091" lon="14.144139988347888">
        <ele>46.759999999999998</ele>
        <time>2024-09-17T15:29:39Z</time>
      </trkpt>
      <trkpt lat="51.867827028036118" lon="14.144202014431357">
        <ele>46.759999999999998</ele>
        <time>2024-09-17T15:29:40Z</time>
      </trkpt>
      <trkpt lat="51.867792997509241" lon="14.144274014979601">
        <ele>46.759999999999998</ele>
        <time>2024-09-17T15:29:41Z</time>
      </trkpt>
      <trkpt lat="51.867753015831113" lon="14.144360013306141">
        <ele>47.240000000000002</ele>
        <time>2024-09-17T15:29:42Z</time>
      </trkpt>
      <trkpt lat="51.867705993354321" lon="14.144461015239358">
        <ele>47.240000000000002</ele>
        <time>2024-09-17T15:29:43Z</time>
      </trkpt>
      <trkpt lat="51.867651008069515" lon="14.144578026607633">
        <ele>47.719999999999999</ele>
        <time>2024-09-17T15:29:44Z</time>
      </trkpt>
      <trkpt lat="51.867018006742001" lon="14.145929021760821">
        <ele>47.240000000000002</ele>
        <time>2024-09-17T15:29:52Z</time>
      </trkpt>
      <trkpt lat="51.866578040644526" lon="14.146949015557766">
        <ele>47.719999999999999</ele>
        <time>2024-09-17T15:29:57Z</time>
      </trkpt>
      <trkpt lat="51.866524983197451" lon="14.147212961688638">
        <ele>47.719999999999999</ele>
        <time>2024-09-17T15:29:58Z</time>
      </trkpt>
      <trkpt lat="51.866469997912645" lon="14.147486966103315">
        <ele>47.240000000000002</ele>
        <time>2024-09-17T15:29:59Z</time>
      </trkpt>
      <trkpt lat="51.866247039288282" lon="14.148970982059836">
        <ele>47.719999999999999</ele>
        <time>2024-09-17T15:30:05Z</time>
      </trkpt>
      <trkpt lat="51.866259025409818" lon="14.14915001951158">
        <ele>47.719999999999999</ele>
        <time>2024-09-17T15:30:06Z</time>
      </trkpt>
      <trkpt lat="51.866281991824508" lon="14.149475991725922">
        <ele>47.719999999999999</ele>
        <time>2024-09-17T15:30:08Z</time>
      </trkpt>
      <trkpt lat="51.866247961297631" lon="14.14962301030755">
        <ele>47.719999999999999</ele>
        <time>2024-09-17T15:30:09Z</time>
      </trkpt>
      <trkpt lat="51.866189036518335" lon="14.149807998910546">
        <ele>47.719999999999999</ele>
        <time>2024-09-17T15:30:10Z</time>
      </trkpt>
      <trkpt lat="51.86566298827529" lon="14.151454959064722">
        <ele>45.32</ele>
        <time>2024-09-17T15:30:17Z</time>
      </trkpt>
      <trkpt lat="51.865225033834577" lon="14.152825986966491">
        <ele>43.399999999999999</ele>
        <time>2024-09-17T15:30:23Z</time>
      </trkpt>
      <trkpt lat="51.865171976387501" lon="14.152990020811558">
        <ele>42.920000000000002</ele>
        <time>2024-09-17T15:30:24Z</time>
      </trkpt>
      <trkpt lat="51.86512403190136" lon="14.153158999979496">
        <ele>42.439999999999998</ele>
        <time>2024-09-17T15:30:25Z</time>
      </trkpt>
      <trkpt lat="51.865114979445934" lon="14.153330996632576">
        <ele>41.950000000000003</ele>
        <time>2024-09-17T15:30:26Z</time>
      </trkpt>
      <trkpt lat="51.86510399915278" lon="14.15353199467063">
        <ele>41.469999999999999</ele>
        <time>2024-09-17T15:30:27Z</time>
      </trkpt>
      <trkpt lat="51.86497500166297" lon="14.155889991670847">
        <ele>40.030000000000001</ele>
        <time>2024-09-17T15:30:36Z</time>
      </trkpt>
      <trkpt lat="51.864815996959805" lon="14.158348990604281">
        <ele>38.590000000000003</ele>
        <time>2024-09-17T15:30:45Z</time>
      </trkpt>
      <trkpt lat="51.864655986428261" lon="14.158900016918778">
        <ele>38.109999999999999</ele>
        <time>2024-09-17T15:30:48Z</time>
      </trkpt>
      <trkpt lat="51.864609969779849" lon="14.159060027450323">
        <ele>38.109999999999999</ele>
        <time>2024-09-17T15:30:49Z</time>
      </trkpt>
      <trkpt lat="51.864324985072017" lon="14.159683976322412">
        <ele>36.670000000000002</ele>
        <time>2024-09-17T15:30:54Z</time>
      </trkpt>
      <trkpt lat="51.864308975636959" lon="14.15972001850605">
        <ele>36.189999999999998</ele>
        <time>2024-09-17T15:30:55Z</time>
      </trkpt>
      <trkpt lat="51.864225994795561" lon="14.159767962992191">
        <ele>34.259999999999998</ele>
        <time>2024-09-17T15:31:02Z</time>
      </trkpt>
      <trkpt lat="51.864182995632291" lon="14.159723035991192">
        <ele>34.259999999999998</ele>
        <time>2024-09-17T15:31:03Z</time>
      </trkpt>
      <trkpt lat="51.864117030054331" lon="14.159654974937439">
        <ele>33.780000000000001</ele>
        <time>2024-09-17T15:31:04Z</time>
      </trkpt>
      <trkpt lat="51.863433988764882" lon="14.159024991095066">
        <ele>31.379999999999999</ele>
        <time>2024-09-17T15:31:10Z</time>
      </trkpt>
      <trkpt lat="51.862158011645079" lon="14.158085966482759">
        <ele>30.420000000000002</ele>
        <time>2024-09-17T15:31:18Z</time>
      </trkpt>
      <trkpt lat="51.860279040411115" lon="14.156910991296172">
        <ele>37.149999999999999</ele>
        <time>2024-09-17T15:31:30Z</time>
      </trkpt>
      <trkpt lat="51.859471024945378" lon="14.156428026035428">
        <ele>38.109999999999999</ele>
        <time>2024-09-17T15:31:37Z</time>
      </trkpt>
      <trkpt lat="51.858375007286668" lon="14.155600983649492">
        <ele>39.07</ele>
        <time>2024-09-17T15:31:45Z</time>
      </trkpt>
      <trkpt lat="51.856696028262377" lon="14.154308997094631">
        <ele>41.950000000000003</ele>
        <time>2024-09-17T15:31:55Z</time>
      </trkpt>
      <trkpt lat="51.854595020413399" lon="14.15245701558888">
        <ele>46.280000000000001</ele>
        <time>2024-09-17T15:32:07Z</time>
      </trkpt>
      <trkpt lat="51.852826019749045" lon="14.150608973577619">
        <ele>47.719999999999999</ele>
        <time>2024-09-17T15:32:18Z</time>
      </trkpt>
      <trkpt lat="51.852533994242549" lon="14.150368999689817">
        <ele>48.68</ele>
        <time>2024-09-17T15:32:20Z</time>
      </trkpt>
      <trkpt lat="51.852371972054243" lon="14.150285013020039">
        <ele>49.159999999999997</ele>
        <time>2024-09-17T15:32:21Z</time>
      </trkpt>
      <trkpt lat="51.852202992886305" lon="14.150195997208357">
        <ele>49.649999999999999</ele>
        <time>2024-09-17T15:32:22Z</time>
      </trkpt>
      <trkpt lat="51.852025967091322" lon="14.150146963074803">
        <ele>50.130000000000003</ele>
        <time>2024-09-17T15:32:23Z</time>
      </trkpt>
      <trkpt lat="51.851843995973468" lon="14.150108993053436">
        <ele>50.609999999999999</ele>
        <time>2024-09-17T15:32:24Z</time>
      </trkpt>
      <trkpt lat="51.851668981835246" lon="14.150098012760282">
        <ele>50.609999999999999</ele>
        <time>2024-09-17T15:32:25Z</time>
      </trkpt>
      <trkpt lat="51.851500002667308" lon="14.150112010538578">
        <ele>51.090000000000003</ele>
        <time>2024-09-17T15:32:26Z</time>
      </trkpt>
      <trkpt lat="51.851314008235931" lon="14.150198008865118">
        <ele>51.090000000000003</ele>
        <time>2024-09-17T15:32:27Z</time>
      </trkpt>
      <trkpt lat="51.851126002147794" lon="14.150286018848419">
        <ele>51.57</ele>
        <time>2024-09-17T15:32:28Z</time>
      </trkpt>
      <trkpt lat="51.85004398226738" lon="14.151087999343872">
        <ele>53.009999999999998</ele>
        <time>2024-09-17T15:32:34Z</time>
      </trkpt>
      <trkpt lat="51.849901992827654" lon="14.151311963796616">
        <ele>53.490000000000002</ele>
        <time>2024-09-17T15:32:35Z</time>
      </trkpt>
      <trkpt lat="51.84976302087307" lon="14.151531988754869">
        <ele>53.490000000000002</ele>
        <time>2024-09-17T15:32:36Z</time>
      </trkpt>
      <trkpt lat="51.849650032818317" lon="14.151753019541502">
        <ele>53.969999999999999</ele>
        <time>2024-09-17T15:32:37Z</time>
      </trkpt>
      <trkpt lat="51.849552970379591" lon="14.151997016742826">
        <ele>53.969999999999999</ele>
        <time>2024-09-17T15:32:38Z</time>
      </trkpt>
      <trkpt lat="51.849456997588277" lon="14.152236990630627">
        <ele>54.450000000000003</ele>
        <time>2024-09-17T15:32:39Z</time>
      </trkpt>
      <trkpt lat="51.849383991211653" lon="14.152495991438627">
        <ele>54.450000000000003</ele>
        <time>2024-09-17T15:32:40Z</time>
      </trkpt>
      <trkpt lat="51.84931299649179" lon="14.152774019166827">
        <ele>54.450000000000003</ele>
        <time>2024-09-17T15:32:41Z</time>
      </trkpt>
      <trkpt lat="51.849245019257069" lon="14.153041988611221">
        <ele>54.450000000000003</ele>
        <time>2024-09-17T15:32:42Z</time>
      </trkpt>
      <trkpt lat="51.849180981516838" lon="14.153292020782828">
        <ele>54.450000000000003</ele>
        <time>2024-09-17T15:32:43Z</time>
      </trkpt>
      <trkpt lat="51.848953999578953" lon="14.154182011261582">
        <ele>55.409999999999997</ele>
        <time>2024-09-17T15:32:47Z</time>
      </trkpt>
      <trkpt lat="51.848893985152245" lon="14.154401030391455">
        <ele>55.409999999999997</ele>
        <time>2024-09-17T15:32:48Z</time>
      </trkpt>
      <trkpt lat="51.848792983219028" lon="14.154614014551044">
        <ele>55.409999999999997</ele>
        <time>2024-09-17T15:32:49Z</time>
      </trkpt>
      <trkpt lat="51.848689969629049" lon="14.154826998710632">
        <ele>55.409999999999997</ele>
        <time>2024-09-17T15:32:50Z</time>
      </trkpt>
      <trkpt lat="51.848574969917536" lon="14.154977034777403">
        <ele>55.409999999999997</ele>
        <time>2024-09-17T15:32:51Z</time>
      </trkpt>
      <trkpt lat="51.848456030711532" lon="14.155107038095593">
        <ele>55.890000000000001</ele>
        <time>2024-09-17T15:32:52Z</time>
      </trkpt>
      <trkpt lat="51.848344970494509" lon="14.155184989795089">
        <ele>55.890000000000001</ele>
        <time>2024-09-17T15:32:53Z</time>
      </trkpt>
      <trkpt lat="51.848232988268137" lon="14.155262019485235">
        <ele>55.409999999999997</ele>
        <time>2024-09-17T15:32:54Z</time>
      </trkpt>
      <trkpt lat="51.84813198633492" lon="14.155331002548337">
        <ele>55.409999999999997</ele>
        <time>2024-09-17T15:32:55Z</time>
      </trkpt>
      <trkpt lat="51.848044982179999" lon="14.155390011146665">
        <ele>55.890000000000001</ele>
        <time>2024-09-17T15:32:56Z</time>
      </trkpt>
      <trkpt lat="51.847928976640105" lon="14.155410965904593">
        <ele>55.409999999999997</ele>
        <time>2024-09-17T15:32:57Z</time>
      </trkpt>
      <trkpt lat="51.846980983391404" lon="14.155482966452837">
        <ele>56.369999999999997</ele>
        <time>2024-09-17T15:33:05Z</time>
      </trkpt>
      <trkpt lat="51.845821011811495" lon="14.155371990054846">
        <ele>56.369999999999997</ele>
        <time>2024-09-17T15:33:17Z</time>
      </trkpt>
      <trkpt lat="51.845394037663937" lon="14.155264031141996">
        <ele>55.890000000000001</ele>
        <time>2024-09-17T15:33:23Z</time>
      </trkpt>
      <trkpt lat="51.845383979380131" lon="14.155262019485235">
        <ele>55.890000000000001</ele>
        <time>2024-09-17T15:33:24Z</time>
      </trkpt>
      <trkpt lat="51.845356989651918" lon="14.155384982004762">
        <ele>55.890000000000001</ele>
        <time>2024-09-17T15:33:25Z</time>
      </trkpt>
      <trkpt lat="51.845335029065609" lon="14.155486989766359">
        <ele>55.890000000000001</ele>
        <time>2024-09-17T15:33:26Z</time>
      </trkpt>
      <trkpt lat="51.845308961346745" lon="14.155608024448156">
        <ele>55.890000000000001</ele>
        <time>2024-09-17T15:33:27Z</time>
      </trkpt>
      <trkpt lat="51.845277026295662" lon="14.155754959210753">
        <ele>55.890000000000001</ele>
        <time>2024-09-17T15:33:28Z</time>
      </trkpt>
      <trkpt lat="51.845181975513697" lon="14.157533012330532">
        <ele>53.490000000000002</ele>
        <time>2024-09-17T15:33:37Z</time>
      </trkpt>
      <trkpt lat="51.845189016312361" lon="14.158012960106134">
        <ele>53.009999999999998</ele>
        <time>2024-09-17T15:33:39Z</time>
      </trkpt>
      <trkpt lat="51.845220029354095" lon="14.15825704112649">
        <ele>52.530000000000001</ele>
        <time>2024-09-17T15:33:40Z</time>
      </trkpt>
      <trkpt lat="51.84529303573072" lon="14.158489974215627">
        <ele>52.530000000000001</ele>
        <time>2024-09-17T15:33:41Z</time>
      </trkpt>
      <trkpt lat="51.845394959673285" lon="14.158696001395583">
        <ele>52.049999999999997</ele>
        <time>2024-09-17T15:33:42Z</time>
      </trkpt>
      <trkpt lat="51.845504008233547" lon="14.158912003040314">
        <ele>52.049999999999997</ele>
        <time>2024-09-17T15:33:43Z</time>
      </trkpt>
      <trkpt lat="51.846431968733668" lon="14.160862974822521">
        <ele>51.090000000000003</ele>
        <time>2024-09-17T15:33:52Z</time>
      </trkpt>
      <trkpt lat="51.846485026180744" lon="14.16109599173069">
        <ele>51.090000000000003</ele>
        <time>2024-09-17T15:33:53Z</time>
      </trkpt>
      <trkpt lat="51.846479997038841" lon="14.161318028345704">
        <ele>51.090000000000003</ele>
        <time>2024-09-17T15:33:54Z</time>
      </trkpt>
      <trkpt lat="51.846448983997107" lon="14.161560013890266">
        <ele>51.090000000000003</ele>
        <time>2024-09-17T15:33:55Z</time>
      </trkpt>
      <trkpt lat="51.846416965126991" lon="14.161817003041506">
        <ele>51.090000000000003</ele>
        <time>2024-09-17T15:33:56Z</time>
      </trkpt>
      <trkpt lat="51.846382012590766" lon="14.162087989971042">
        <ele>51.090000000000003</ele>
        <time>2024-09-17T15:33:57Z</time>
      </trkpt>
      <trkpt lat="51.846222002059221" lon="14.163314010947943">
        <ele>50.609999999999999</ele>
        <time>2024-09-17T15:34:01Z</time>
      </trkpt>
      <trkpt lat="51.846252009272575" lon="14.166056988760829">
        <ele>49.159999999999997</ele>
        <time>2024-09-17T15:34:09Z</time>
      </trkpt>
      <trkpt lat="51.846306994557381" lon="14.169319979846478">
        <ele>48.200000000000003</ele>
        <time>2024-09-17T15:34:19Z</time>
      </trkpt>
      <trkpt lat="51.84613399207592" lon="14.171502962708473">
        <ele>48.200000000000003</ele>
        <time>2024-09-17T15:34:26Z</time>
      </trkpt>
      <trkpt lat="51.845975993201137" lon="14.174493961036205">
        <ele>48.200000000000003</ele>
        <time>2024-09-17T15:34:35Z</time>
      </trkpt>
      <trkpt lat="51.845870967954397" lon="14.177719987928867">
        <ele>49.649999999999999</ele>
        <time>2024-09-17T15:34:44Z</time>
      </trkpt>
      <trkpt lat="51.845483975484967" lon="14.179810015484691">
        <ele>49.649999999999999</ele>
        <time>2024-09-17T15:34:50Z</time>
      </trkpt>
      <trkpt lat="51.845481041818857" lon="14.180174963548779">
        <ele>50.130000000000003</ele>
        <time>2024-09-17T15:34:51Z</time>
      </trkpt>
      <trkpt lat="51.845495039597154" lon="14.180548964068294">
        <ele>50.130000000000003</ele>
        <time>2024-09-17T15:34:52Z</time>
      </trkpt>
      <trkpt lat="51.84563803486526" lon="14.183710031211376">
        <ele>49.649999999999999</ele>
        <time>2024-09-17T15:35:00Z</time>
      </trkpt>
      <trkpt lat="51.845671981573105" lon="14.184011025354266">
        <ele>49.649999999999999</ele>
        <time>2024-09-17T15:35:01Z</time>
      </trkpt>
      <trkpt lat="51.845728978514671" lon="14.184263991191983">
        <ele>49.159999999999997</ele>
        <time>2024-09-17T15:35:02Z</time>
      </trkpt>
      <trkpt lat="51.846325015649199" lon="14.186173975467682">
        <ele>49.159999999999997</ele>
        <time>2024-09-17T15:35:08Z</time>
      </trkpt>
      <trkpt lat="51.847595041617751" lon="14.19014398008585">
        <ele>48.200000000000003</ele>
        <time>2024-09-17T15:35:19Z</time>
      </trkpt>
      <trkpt lat="51.848084963858128" lon="14.191696979105473">
        <ele>48.68</ele>
        <time>2024-09-17T15:35:24Z</time>
      </trkpt>
      <trkpt lat="51.848146989941597" lon="14.191981041803956">
        <ele>48.68</ele>
        <time>2024-09-17T15:35:25Z</time>
      </trkpt>
      <trkpt lat="51.848149001598358" lon="14.192299973219633">
        <ele>48.68</ele>
        <time>2024-09-17T15:35:26Z</time>
      </trkpt>
      <trkpt lat="51.84810901992023" lon="14.192623011767864">
        <ele>48.68</ele>
        <time>2024-09-17T15:35:27Z</time>
      </trkpt>
      <trkpt lat="51.84806602075696" lon="14.19295703060925">
        <ele>48.68</ele>
        <time>2024-09-17T15:35:28Z</time>
      </trkpt>
      <trkpt lat="51.847571991384029" lon="14.196944972500205">
        <ele>47.719999999999999</ele>
        <time>2024-09-17T15:35:39Z</time>
      </trkpt>
      <trkpt lat="51.847528992220759" lon="14.197302041575313">
        <ele>47.719999999999999</ele>
        <time>2024-09-17T15:35:40Z</time>
      </trkpt>
      <trkpt lat="51.847508959472179" lon="14.197652991861105">
        <ele>47.240000000000002</ele>
        <time>2024-09-17T15:35:41Z</time>
      </trkpt>
      <trkpt lat="51.847519017755985" lon="14.198002014309168">
        <ele>47.719999999999999</ele>
        <time>2024-09-17T15:35:42Z</time>
      </trkpt>
      <trkpt lat="51.847551036626101" lon="14.198326980695128">
        <ele>47.719999999999999</ele>
        <time>2024-09-17T15:35:43Z</time>
      </trkpt>
      <trkpt lat="51.847628988325596" lon="14.198649013414979">
        <ele>48.68</ele>
        <time>2024-09-17T15:35:44Z</time>
      </trkpt>
      <trkpt lat="51.847709035500884" lon="14.19895201921463">
        <ele>49.649999999999999</ele>
        <time>2024-09-17T15:35:45Z</time>
      </trkpt>
      <trkpt lat="51.847807019948959" lon="14.199256030842662">
        <ele>50.130000000000003</ele>
        <time>2024-09-17T15:35:46Z</time>
      </trkpt>
      <trkpt lat="51.848784014582634" lon="14.202202018350363">
        <ele>50.130000000000003</ele>
        <time>2024-09-17T15:35:55Z</time>
      </trkpt>
      <trkpt lat="51.849596975371242" lon="14.204590022563934">
        <ele>51.090000000000003</ele>
        <time>2024-09-17T15:36:03Z</time>
      </trkpt>
      <trkpt lat="51.85008698143065" lon="14.205924002453685">
        <ele>51.090000000000003</ele>
        <time>2024-09-17T15:36:10Z</time>
      </trkpt>
      <trkpt lat="51.850811010226607" lon="14.207165027037263">
        <ele>49.649999999999999</ele>
        <time>2024-09-17T15:36:19Z</time>
      </trkpt>
      <trkpt lat="51.85088200494647" lon="14.207314979285002">
        <ele>49.649999999999999</ele>
        <time>2024-09-17T15:36:20Z</time>
      </trkpt>
      <trkpt lat="51.851406041532755" lon="14.208711991086602">
        <ele>50.609999999999999</ele>
        <time>2024-09-17T15:36:29Z</time>
      </trkpt>
      <trkpt lat="51.851454991847277" lon="14.208826990798116">
        <ele>50.609999999999999</ele>
        <time>2024-09-17T15:36:30Z</time>
      </trkpt>
      <trkpt lat="51.851420039311051" lon="14.208940984681249">
        <ele>51.090000000000003</ele>
        <time>2024-09-17T15:36:31Z</time>
      </trkpt>
      <trkpt lat="51.85137796215713" lon="14.209080040454865">
        <ele>51.090000000000003</ele>
        <time>2024-09-17T15:36:32Z</time>
      </trkpt>
      <trkpt lat="51.85133496299386" lon="14.209220018237829">
        <ele>51.57</ele>
        <time>2024-09-17T15:36:33Z</time>
      </trkpt>
      <trkpt lat="51.851294981315732" lon="14.20935396105051">
        <ele>52.049999999999997</ele>
        <time>2024-09-17T15:36:34Z</time>
      </trkpt>
      <trkpt lat="51.850808998569846" lon="14.211098989471793">
        <ele>53.969999999999999</ele>
        <time>2024-09-17T15:36:45Z</time>
      </trkpt>
      <trkpt lat="51.850509010255337" lon="14.212361974641681">
        <ele>53.490000000000002</ele>
        <time>2024-09-17T15:36:52Z</time>
      </trkpt>
      <trkpt lat="51.850490989163518" lon="14.212549980729818">
        <ele>53.490000000000002</ele>
        <time>2024-09-17T15:36:53Z</time>
      </trkpt>
      <trkpt lat="51.850490989163518" lon="14.212741004303098">
        <ele>53.009999999999998</ele>
        <time>2024-09-17T15:36:54Z</time>
      </trkpt>
      <trkpt lat="51.850490989163518" lon="14.212933033704758">
        <ele>53.009999999999998</ele>
        <time>2024-09-17T15:36:55Z</time>
      </trkpt>
      <trkpt lat="51.850510016083717" lon="14.213124979287386">
        <ele>52.530000000000001</ele>
        <time>2024-09-17T15:36:56Z</time>
      </trkpt>
      <trkpt lat="51.850544968619943" lon="14.213310973718762">
        <ele>52.530000000000001</ele>
        <time>2024-09-17T15:36:57Z</time>
      </trkpt>
      <trkpt lat="51.8505800049752" lon="14.213497973978519">
        <ele>52.530000000000001</ele>
        <time>2024-09-17T15:36:58Z</time>
      </trkpt>
      <trkpt lat="51.850615041330457" lon="14.213682962581515">
        <ele>52.530000000000001</ele>
        <time>2024-09-17T15:36:59Z</time>
      </trkpt>
      <trkpt lat="51.851215017959476" lon="14.215815989300609">
        <ele>55.890000000000001</ele>
        <time>2024-09-17T15:37:11Z</time>
      </trkpt>
      <trkpt lat="51.851702006533742" lon="14.218423012644053">
        <ele>57.82</ele>
        <time>2024-09-17T15:37:25Z</time>
      </trkpt>
      <trkpt lat="51.852036025375128" lon="14.220270970836282">
        <ele>56.369999999999997</ele>
        <time>2024-09-17T15:37:35Z</time>
      </trkpt>
      <trkpt lat="51.852120012044907" lon="14.221029030159116">
        <ele>56.369999999999997</ele>
        <time>2024-09-17T15:37:39Z</time>
      </trkpt>
      <trkpt lat="51.852109031751752" lon="14.222970027476549">
        <ele>56.369999999999997</ele>
        <time>2024-09-17T15:37:49Z</time>
      </trkpt>
      <trkpt lat="51.852139960974455" lon="14.225345039740205">
        <ele>58.299999999999997</ele>
        <time>2024-09-17T15:38:01Z</time>
      </trkpt>
      <trkpt lat="51.852240040898323" lon="14.227421991527081">
        <ele>57.340000000000003</ele>
        <time>2024-09-17T15:38:09Z</time>
      </trkpt>
      <trkpt lat="51.852252027019858" lon="14.227718962356448">
        <ele>57.340000000000003</ele>
        <time>2024-09-17T15:38:10Z</time>
      </trkpt>
      <trkpt lat="51.852244986221194" lon="14.229324012994766">
        <ele>55.409999999999997</ele>
        <time>2024-09-17T15:38:15Z</time>
      </trkpt>
      <trkpt lat="51.851738970726728" lon="14.231181023642421">
        <ele>53.009999999999998</ele>
        <time>2024-09-17T15:38:21Z</time>
      </trkpt>
      <trkpt lat="51.851545013487339" lon="14.231796003878117">
        <ele>52.530000000000001</ele>
        <time>2024-09-17T15:38:23Z</time>
      </trkpt>
      <trkpt lat="51.851468989625573" lon="14.232117030769587">
        <ele>52.049999999999997</ele>
        <time>2024-09-17T15:38:24Z</time>
      </trkpt>
      <trkpt lat="51.851449962705374" lon="14.232464963570237">
        <ele>52.049999999999997</ele>
        <time>2024-09-17T15:38:25Z</time>
      </trkpt>
      <trkpt lat="51.851441999897361" lon="14.232803005725145">
        <ele>51.57</ele>
        <time>2024-09-17T15:38:26Z</time>
      </trkpt>
      <trkpt lat="51.851436970755458" lon="14.233139036223292">
        <ele>51.57</ele>
        <time>2024-09-17T15:38:27Z</time>
      </trkpt>
      <trkpt lat="51.851449040696025" lon="14.233472971245646">
        <ele>51.57</ele>
        <time>2024-09-17T15:38:28Z</time>
      </trkpt>
      <trkpt lat="51.851551970466971" lon="14.236535970121622">
        <ele>49.159999999999997</ele>
        <time>2024-09-17T15:38:37Z</time>
      </trkpt>
      <trkpt lat="51.851631011813879" lon="14.238887010142207">
        <ele>51.090000000000003</ele>
        <time>2024-09-17T15:38:45Z</time>
      </trkpt>
      <trkpt lat="51.851694965735078" lon="14.240460963919759">
        <ele>50.130000000000003</ele>
        <time>2024-09-17T15:38:52Z</time>
      </trkpt>
      <trkpt lat="51.851706029847264" lon="14.240646958351135">
        <ele>50.130000000000003</ele>
        <time>2024-09-17T15:38:53Z</time>
      </trkpt>
      <trkpt lat="51.851824969053268" lon="14.242459964007139">
        <ele>51.090000000000003</ele>
        <time>2024-09-17T15:39:04Z</time>
      </trkpt>
      <trkpt lat="51.851989002898335" lon="14.243984967470169">
        <ele>52.530000000000001</ele>
        <time>2024-09-17T15:39:14Z</time>
      </trkpt>
      <trkpt lat="51.851992020383477" lon="14.245796967297792">
        <ele>53.009999999999998</ele>
        <time>2024-09-17T15:39:24Z</time>
      </trkpt>
      <trkpt lat="51.85197601094842" lon="14.246572963893414">
        <ele>53.490000000000002</ele>
        <time>2024-09-17T15:39:28Z</time>
      </trkpt>
      <trkpt lat="51.852205004543066" lon="14.248335007578135">
        <ele>53.969999999999999</ele>
        <time>2024-09-17T15:39:38Z</time>
      </trkpt>
      <trkpt lat="51.85223501175642" lon="14.248427040874958">
        <ele>53.969999999999999</ele>
        <time>2024-09-17T15:39:39Z</time>
      </trkpt>
      <trkpt lat="51.852207016199827" lon="14.248616974800825">
        <ele>53.969999999999999</ele>
        <time>2024-09-17T15:39:40Z</time>
      </trkpt>
      <trkpt lat="51.852166028693318" lon="14.248666008934379">
        <ele>53.969999999999999</ele>
        <time>2024-09-17T15:39:41Z</time>
      </trkpt>
      <trkpt lat="51.85210601426661" lon="14.248738009482622">
        <ele>53.490000000000002</ele>
        <time>2024-09-17T15:39:42Z</time>
      </trkpt>
      <trkpt lat="51.852032002061605" lon="14.248828031122684">
        <ele>53.490000000000002</ele>
        <time>2024-09-17T15:39:43Z</time>
      </trkpt>
      <trkpt lat="51.851296992972493" lon="14.249691031873226">
        <ele>54.450000000000003</ele>
        <time>2024-09-17T15:39:51Z</time>
      </trkpt>
      <trkpt lat="51.851194985210896" lon="14.24980703741312">
        <ele>53.969999999999999</ele>
        <time>2024-09-17T15:39:52Z</time>
      </trkpt>
      <trkpt lat="51.851086020469666" lon="14.249879037961364">
        <ele>53.969999999999999</ele>
        <time>2024-09-17T15:39:53Z</time>
      </trkpt>
      <trkpt lat="51.850978983566165" lon="14.249951038509607">
        <ele>53.009999999999998</ele>
        <time>2024-09-17T15:39:54Z</time>
      </trkpt>
      <trkpt lat="51.850847974419594" lon="14.249969981610775">
        <ele>52.530000000000001</ele>
        <time>2024-09-17T15:39:55Z</time>
      </trkpt>
      <trkpt lat="51.85073004104197" lon="14.249964030459523">
        <ele>52.530000000000001</ele>
        <time>2024-09-17T15:39:56Z</time>
      </trkpt>
      <trkpt lat="51.850614035502076" lon="14.249956989660859">
        <ele>52.049999999999997</ele>
        <time>2024-09-17T15:39:57Z</time>
      </trkpt>
      <trkpt lat="51.850493000820279" lon="14.249950032681227">
        <ele>52.049999999999997</ele>
        <time>2024-09-17T15:39:58Z</time>
      </trkpt>
      <trkpt lat="51.850253026932478" lon="14.24993603490293">
        <ele>51.57</ele>
        <time>2024-09-17T15:40:00Z</time>
      </trkpt>
      <trkpt lat="51.84976402670145" lon="14.249908039346337">
        <ele>51.090000000000003</ele>
        <time>2024-09-17T15:40:04Z</time>
      </trkpt>
      <trkpt lat="51.849639974534512" lon="14.249899992719293">
        <ele>51.090000000000003</ele>
        <time>2024-09-17T15:40:05Z</time>
      </trkpt>
      <trkpt lat="51.849502008408308" lon="14.24989202991128">
        <ele>51.090000000000003</ele>
        <time>2024-09-17T15:40:06Z</time>
      </trkpt>
      <trkpt lat="51.849353983998299" lon="14.249934023246169">
        <ele>51.090000000000003</ele>
        <time>2024-09-17T15:40:07Z</time>
      </trkpt>
      <trkpt lat="51.849191961809993" lon="14.249999988824129">
        <ele>51.57</ele>
        <time>2024-09-17T15:40:08Z</time>
      </trkpt>
      <trkpt lat="51.848423006013036" lon="14.2505609896034">
        <ele>53.969999999999999</ele>
        <time>2024-09-17T15:40:14Z</time>
      </trkpt>
      <trkpt lat="51.848052022978663" lon="14.250899031758308">
        <ele>55.409999999999997</ele>
        <time>2024-09-17T15:40:20Z</time>
      </trkpt>
      <trkpt lat="51.848026961088181" lon="14.250916969031096">
        <ele>55.890000000000001</ele>
        <time>2024-09-17T15:40:28Z</time>
      </trkpt>
      <trkpt lat="51.848026961088181" lon="14.250916969031096">
        <ele>56.369999999999997</ele>
        <time>2024-09-17T15:41:09Z</time>
      </trkpt>
      <trkpt lat="51.847809031605721" lon="14.251081002876163">
        <ele>57.340000000000003</ele>
        <time>2024-09-17T15:41:31Z</time>
      </trkpt>
      <trkpt lat="51.847302010282874" lon="14.251344026997685">
        <ele>57.340000000000003</ele>
        <time>2024-09-17T15:41:39Z</time>
      </trkpt>
      <trkpt lat="51.846501035615802" lon="14.251624988391995">
        <ele>57.82</ele>
        <time>2024-09-17T15:41:46Z</time>
      </trkpt>
      <trkpt lat="51.845953026786447" lon="14.251673016697168">
        <ele>57.82</ele>
        <time>2024-09-17T15:41:50Z</time>
      </trkpt>
      <trkpt lat="51.844911994412541" lon="14.251499008387327">
        <ele>58.299999999999997</ele>
        <time>2024-09-17T15:41:57Z</time>
      </trkpt>
      <trkpt lat="51.844776961952448" lon="14.251510994508862">
        <ele>58.299999999999997</ele>
        <time>2024-09-17T15:41:58Z</time>
      </trkpt>
      <trkpt lat="51.844620974734426" lon="14.251533038914204">
        <ele>58.780000000000001</ele>
        <time>2024-09-17T15:41:59Z</time>
      </trkpt>
      <trkpt lat="51.843697959557176" lon="14.251830009743571">
        <ele>58.299999999999997</ele>
        <time>2024-09-17T15:42:03Z</time>
      </trkpt>
      <trkpt lat="51.842605965211987" lon="14.252207027748227">
        <ele>58.780000000000001</ele>
        <time>2024-09-17T15:42:07Z</time>
      </trkpt>
      <trkpt lat="51.842370014637709" lon="14.252289002761245">
        <ele>58.780000000000001</ele>
        <time>2024-09-17T15:42:08Z</time>
      </trkpt>
      <trkpt lat="51.840660022571683" lon="14.25288001075387">
        <ele>61.18</ele>
        <time>2024-09-17T15:42:16Z</time>
      </trkpt>
      <trkpt lat="51.838931003585458" lon="14.253476969897747">
        <ele>62.619999999999997</ele>
        <time>2024-09-17T15:42:25Z</time>
      </trkpt>
      <trkpt lat="51.837374987080693" lon="14.254036964848638">
        <ele>62.619999999999997</ele>
        <time>2024-09-17T15:42:33Z</time>
      </trkpt>
      <trkpt lat="51.837037028744817" lon="14.254309963434935">
        <ele>62.619999999999997</ele>
        <time>2024-09-17T15:42:35Z</time>
      </trkpt>
      <trkpt lat="51.83687299489975" lon="14.254483971744776">
        <ele>62.619999999999997</ele>
        <time>2024-09-17T15:42:36Z</time>
      </trkpt>
      <trkpt lat="51.836732011288404" lon="14.254719000309706">
        <ele>62.619999999999997</ele>
        <time>2024-09-17T15:42:37Z</time>
      </trkpt>
      <trkpt lat="51.83539099059999" lon="14.2568330001086">
        <ele>62.140000000000001</ele>
        <time>2024-09-17T15:42:46Z</time>
      </trkpt>
      <trkpt lat="51.835232991725206" lon="14.257011031731963">
        <ele>62.140000000000001</ele>
        <time>2024-09-17T15:42:47Z</time>
      </trkpt>
      <trkpt lat="51.835066024214029" lon="14.257104992866516">
        <ele>61.659999999999997</ele>
        <time>2024-09-17T15:42:48Z</time>
      </trkpt>
      <trkpt lat="51.834893021732569" lon="14.257164001464844">
        <ele>62.140000000000001</ele>
        <time>2024-09-17T15:42:49Z</time>
      </trkpt>
      <trkpt lat="51.834696969017386" lon="14.257167018949986">
        <ele>62.140000000000001</ele>
        <time>2024-09-17T15:42:50Z</time>
      </trkpt>
      <trkpt lat="51.834493037313223" lon="14.257170036435127">
        <ele>62.140000000000001</ele>
        <time>2024-09-17T15:42:51Z</time>
      </trkpt>
      <trkpt lat="51.832393035292625" lon="14.257314959540963">
        <ele>62.140000000000001</ele>
        <time>2024-09-17T15:43:01Z</time>
      </trkpt>
      <trkpt lat="51.831212025135756" lon="14.257678985595703">
        <ele>62.619999999999997</ele>
        <time>2024-09-17T15:43:08Z</time>
      </trkpt>
      <trkpt lat="51.830695029348135" lon="14.257743023335934">
        <ele>62.619999999999997</ele>
        <time>2024-09-17T15:43:12Z</time>
      </trkpt>
      <trkpt lat="51.830570977181196" lon="14.257727013900876">
        <ele>62.619999999999997</ele>
        <time>2024-09-17T15:43:13Z</time>
      </trkpt>
      <trkpt lat="51.830452037975192" lon="14.257698012515903">
        <ele>62.619999999999997</ele>
        <time>2024-09-17T15:43:14Z</time>
      </trkpt>
      <trkpt lat="51.829230040311813" lon="14.257403975352645">
        <ele>62.619999999999997</ele>
        <time>2024-09-17T15:43:26Z</time>
      </trkpt>
      <trkpt lat="51.828861990943551" lon="14.257361982017756">
        <ele>61.659999999999997</ele>
        <time>2024-09-17T15:43:32Z</time>
      </trkpt>
      <trkpt lat="51.828818991780281" lon="14.257425013929605">
        <ele>61.659999999999997</ele>
        <time>2024-09-17T15:43:33Z</time>
      </trkpt>
      <trkpt lat="51.828818991780281" lon="14.257535990327597">
        <ele>61.659999999999997</ele>
        <time>2024-09-17T15:43:34Z</time>
      </trkpt>
      <trkpt lat="51.828749002888799" lon="14.258822025731206">
        <ele>59.740000000000002</ele>
        <time>2024-09-17T15:43:42Z</time>
      </trkpt>
      <trkpt lat="51.828626040369272" lon="14.260983970016241">
        <ele>57.82</ele>
        <time>2024-09-17T15:43:54Z</time>
      </trkpt>
      <trkpt lat="51.82864498347044" lon="14.262694967910647">
        <ele>56.859999999999999</ele>
        <time>2024-09-17T15:44:03Z</time>
      </trkpt>
      <trkpt lat="51.828654035925865" lon="14.262880962342024">
        <ele>56.369999999999997</ele>
        <time>2024-09-17T15:44:04Z</time>
      </trkpt>
      <trkpt lat="51.828732993453741" lon="14.265064029023051">
        <ele>55.890000000000001</ele>
        <time>2024-09-17T15:44:15Z</time>
      </trkpt>
      <trkpt lat="51.828696029260755" lon="14.267352037131786">
        <ele>56.369999999999997</ele>
        <time>2024-09-17T15:44:23Z</time>
      </trkpt>
      <trkpt lat="51.828581029549241" lon="14.271306032314897">
        <ele>55.409999999999997</ele>
        <time>2024-09-17T15:44:35Z</time>
      </trkpt>
      <trkpt lat="51.828295961022377" lon="14.275239994749427">
        <ele>55.890000000000001</ele>
        <time>2024-09-17T15:44:47Z</time>
      </trkpt>
      <trkpt lat="51.828016005456448" lon="14.278309028595686">
        <ele>54.93</ele>
        <time>2024-09-17T15:44:57Z</time>
      </trkpt>
      <trkpt lat="51.827697996050119" lon="14.281350988894701">
        <ele>53.969999999999999</ele>
        <time>2024-09-17T15:45:08Z</time>
      </trkpt>
      <trkpt lat="51.827550977468491" lon="14.282568963244557">
        <ele>53.490000000000002</ele>
        <time>2024-09-17T15:45:15Z</time>
      </trkpt>
      <trkpt lat="51.827487023547292" lon="14.282970959320664">
        <ele>53.009999999999998</ele>
        <time>2024-09-17T15:45:20Z</time>
      </trkpt>
      <trkpt lat="51.827487023547292" lon="14.282970959320664">
        <ele>52.530000000000001</ele>
        <time>2024-09-17T15:45:27Z</time>
      </trkpt>
      <trkpt lat="51.827487023547292" lon="14.282970959320664">
        <ele>52.530000000000001</ele>
        <time>2024-09-17T15:45:49Z</time>
      </trkpt>
      <trkpt lat="51.827467996627092" lon="14.283074978739023">
        <ele>52.530000000000001</ele>
        <time>2024-09-17T15:45:50Z</time>
      </trkpt>
      <trkpt lat="51.827456010505557" lon="14.283144967630506">
        <ele>52.530000000000001</ele>
        <time>2024-09-17T15:45:51Z</time>
      </trkpt>
      <trkpt lat="51.827436983585358" lon="14.283249992877245">
        <ele>53.490000000000002</ele>
        <time>2024-09-17T15:45:52Z</time>
      </trkpt>
      <trkpt lat="51.827410999685526" lon="14.283376978710294">
        <ele>53.490000000000002</ele>
        <time>2024-09-17T15:45:53Z</time>
      </trkpt>
      <trkpt lat="51.82737504132092" lon="14.283526008948684">
        <ele>53.969999999999999</ele>
        <time>2024-09-17T15:45:54Z</time>
      </trkpt>
      <trkpt lat="51.827014032751322" lon="14.285028968006372">
        <ele>55.409999999999997</ele>
        <time>2024-09-17T15:46:02Z</time>
      </trkpt>
      <trkpt lat="51.826742962002754" lon="14.286611974239349">
        <ele>55.890000000000001</ele>
        <time>2024-09-17T15:46:11Z</time>
      </trkpt>
      <trkpt lat="51.826590998098254" lon="14.287488972768188">
        <ele>55.890000000000001</ele>
        <time>2024-09-17T15:46:16Z</time>
      </trkpt>
      <trkpt lat="51.826531989499927" lon="14.2876420263201">
        <ele>55.890000000000001</ele>
        <time>2024-09-17T15:46:17Z</time>
      </trkpt>
      <trkpt lat="51.826120018959045" lon="14.288724968209863">
        <ele>55.409999999999997</ele>
        <time>2024-09-17T15:46:24Z</time>
      </trkpt>
      <trkpt lat="51.82608800008893" lon="14.288886990398169">
        <ele>55.409999999999997</ele>
        <time>2024-09-17T15:46:25Z</time>
      </trkpt>
      <trkpt lat="51.826077019795775" lon="14.289050018414855">
        <ele>55.409999999999997</ele>
        <time>2024-09-17T15:46:26Z</time>
      </trkpt>
      <trkpt lat="51.826085988432169" lon="14.289212040603161">
        <ele>55.409999999999997</ele>
        <time>2024-09-17T15:46:27Z</time>
      </trkpt>
      <trkpt lat="51.82610996067524" lon="14.289378002285957">
        <ele>55.890000000000001</ele>
        <time>2024-09-17T15:46:28Z</time>
      </trkpt>
      <trkpt lat="51.826135022565722" lon="14.289552010595798">
        <ele>55.890000000000001</ele>
        <time>2024-09-17T15:46:29Z</time>
      </trkpt>
      <trkpt lat="51.826293021440506" lon="14.29129796102643">
        <ele>59.259999999999998</ele>
        <time>2024-09-17T15:46:39Z</time>
      </trkpt>
      <trkpt lat="51.826295033097267" lon="14.291829038411379">
        <ele>59.259999999999998</ele>
        <time>2024-09-17T15:46:42Z</time>
      </trkpt>
      <trkpt lat="51.826286986470222" lon="14.292004974558949">
        <ele>59.259999999999998</ele>
        <time>2024-09-17T15:46:43Z</time>
      </trkpt>
      <trkpt lat="51.82625999674201" lon="14.292174037545919">
        <ele>58.780000000000001</ele>
        <time>2024-09-17T15:46:44Z</time>
      </trkpt>
      <trkpt lat="51.826018011197448" lon="14.293266031891108">
        <ele>54.93</ele>
        <time>2024-09-17T15:46:51Z</time>
      </trkpt>
      <trkpt lat="51.825982974842191" lon="14.293390000239015">
        <ele>54.93</ele>
        <time>2024-09-17T15:46:52Z</time>
      </trkpt>
      <trkpt lat="51.825933018699288" lon="14.2934650182724">
        <ele>54.450000000000003</ele>
        <time>2024-09-17T15:46:53Z</time>
      </trkpt>
      <trkpt lat="51.825856994837523" lon="14.293499970808625">
        <ele>53.969999999999999</ele>
        <time>2024-09-17T15:46:54Z</time>
      </trkpt>
      <trkpt lat="51.825774013996124" lon="14.293474992737174">
        <ele>53.490000000000002</ele>
        <time>2024-09-17T15:46:55Z</time>
      </trkpt>
      <trkpt lat="51.825672006234527" lon="14.293442973867059">
        <ele>53.009999999999998</ele>
        <time>2024-09-17T15:46:56Z</time>
      </trkpt>
      <trkpt lat="51.825563041493297" lon="14.293410032987595">
        <ele>52.530000000000001</ele>
        <time>2024-09-17T15:46:57Z</time>
      </trkpt>
      <trkpt lat="51.824950994923711" lon="14.293114989995956">
        <ele>52.049999999999997</ele>
        <time>2024-09-17T15:47:03Z</time>
      </trkpt>
      <trkpt lat="51.824842030182481" lon="14.293051036074758">
        <ele>52.049999999999997</ele>
        <time>2024-09-17T15:47:04Z</time>
      </trkpt>
      <trkpt lat="51.824732981622219" lon="14.292988004162908">
        <ele>52.049999999999997</ele>
        <time>2024-09-17T15:47:05Z</time>
      </trkpt>
      <trkpt lat="51.82449703104794" lon="14.292946010828018">
        <ele>52.530000000000001</ele>
        <time>2024-09-17T15:47:07Z</time>
      </trkpt>
      <trkpt lat="51.823214013129473" lon="14.292878033593297">
        <ele>53.490000000000002</ele>
        <time>2024-09-17T15:47:18Z</time>
      </trkpt>
      <trkpt lat="51.822000984102488" lon="14.292989009991288">
        <ele>53.490000000000002</ele>
        <time>2024-09-17T15:47:27Z</time>
      </trkpt>
      <trkpt lat="51.820291997864842" lon="14.293441968038678">
        <ele>54.93</ele>
        <time>2024-09-17T15:47:35Z</time>
      </trkpt>
      <trkpt lat="51.817458998411894" lon="14.294188963249326">
        <ele>55.409999999999997</ele>
        <time>2024-09-17T15:47:46Z</time>
      </trkpt>
      <trkpt lat="51.814143033698201" lon="14.295061016455293">
        <ele>55.890000000000001</ele>
        <time>2024-09-17T15:47:59Z</time>
      </trkpt>
      <trkpt lat="51.811472978442907" lon="14.295793008059263">
        <ele>57.340000000000003</ele>
        <time>2024-09-17T15:48:10Z</time>
      </trkpt>
      <trkpt lat="51.811268962919712" lon="14.295928962528706">
        <ele>56.859999999999999</ele>
        <time>2024-09-17T15:48:11Z</time>
      </trkpt>
      <trkpt lat="51.80928798392415" lon="14.29756703786552">
        <ele>56.859999999999999</ele>
        <time>2024-09-17T15:48:20Z</time>
      </trkpt>
      <trkpt lat="51.808488015085459" lon="14.298186963424087">
        <ele>55.890000000000001</ele>
        <time>2024-09-17T15:48:24Z</time>
      </trkpt>
      <trkpt lat="51.806867038831115" lon="14.298910992220044">
        <ele>53.969999999999999</ele>
        <time>2024-09-17T15:48:32Z</time>
      </trkpt>
      <trkpt lat="51.805897001177073" lon="14.299321034923196">
        <ele>54.450000000000003</ele>
        <time>2024-09-17T15:48:39Z</time>
      </trkpt>
      <trkpt lat="51.804638961330056" lon="14.299852028489113">
        <ele>56.859999999999999</ele>
        <time>2024-09-17T15:48:51Z</time>
      </trkpt>
      <trkpt lat="51.803579991683364" lon="14.30030096322298">
        <ele>56.859999999999999</ele>
        <time>2024-09-17T15:49:00Z</time>
      </trkpt>
      <trkpt lat="51.802532002329826" lon="14.300747970119119">
        <ele>56.369999999999997</ele>
        <time>2024-09-17T15:49:09Z</time>
      </trkpt>
      <trkpt lat="51.801017979159951" lon="14.301383988931775">
        <ele>57.82</ele>
        <time>2024-09-17T15:49:22Z</time>
      </trkpt>
      <trkpt lat="51.800329992547631" lon="14.301720019429922">
        <ele>59.259999999999998</ele>
        <time>2024-09-17T15:49:28Z</time>
      </trkpt>
      <trkpt lat="51.800225973129272" lon="14.301814986392856">
        <ele>59.259999999999998</ele>
        <time>2024-09-17T15:49:29Z</time>
      </trkpt>
      <trkpt lat="51.800134023651481" lon="14.301920011639595">
        <ele>59.259999999999998</ele>
        <time>2024-09-17T15:49:30Z</time>
      </trkpt>
      <trkpt lat="51.800092030316591" lon="14.302069041877985">
        <ele>58.780000000000001</ele>
        <time>2024-09-17T15:49:31Z</time>
      </trkpt>
      <trkpt lat="51.800052970647812" lon="14.302216982468963">
        <ele>58.780000000000001</ele>
        <time>2024-09-17T15:49:32Z</time>
      </trkpt>
      <trkpt lat="51.800013994798064" lon="14.302365006878972">
        <ele>59.259999999999998</ele>
        <time>2024-09-17T15:49:33Z</time>
      </trkpt>
      <trkpt lat="51.799975018948317" lon="14.302514959126711">
        <ele>59.740000000000002</ele>
        <time>2024-09-17T15:49:34Z</time>
      </trkpt>
      <trkpt lat="51.799807967618108" lon="14.303104961290956">
        <ele>60.219999999999999</ele>
        <time>2024-09-17T15:49:38Z</time>
      </trkpt>
      <trkpt lat="51.799731021746993" lon="14.30324200540781">
        <ele>60.219999999999999</ele>
        <time>2024-09-17T15:49:39Z</time>
      </trkpt>
      <trkpt lat="51.799662038683891" lon="14.303363962098956">
        <ele>60.219999999999999</ele>
        <time>2024-09-17T15:49:40Z</time>
      </trkpt>
      <trkpt lat="51.799586014822125" lon="14.303469993174076">
        <ele>60.219999999999999</ele>
        <time>2024-09-17T15:49:41Z</time>
      </trkpt>
      <trkpt lat="51.799495993182063" lon="14.303536964580417">
        <ele>60.219999999999999</ele>
        <time>2024-09-17T15:49:42Z</time>
      </trkpt>
      <trkpt lat="51.79940395988524" lon="14.30360603146255">
        <ele>59.740000000000002</ele>
        <time>2024-09-17T15:49:43Z</time>
      </trkpt>
      <trkpt lat="51.799304969608784" lon="14.30365095846355">
        <ele>59.740000000000002</ele>
        <time>2024-09-17T15:49:44Z</time>
      </trkpt>
      <trkpt lat="51.799206985160708" lon="14.303669985383749">
        <ele>59.740000000000002</ele>
        <time>2024-09-17T15:49:45Z</time>
      </trkpt>
      <trkpt lat="51.799105983227491" lon="14.303689012303948">
        <ele>60.219999999999999</ele>
        <time>2024-09-17T15:49:46Z</time>
      </trkpt>
      <trkpt lat="51.799002969637513" lon="14.303708961233497">
        <ele>60.219999999999999</ele>
        <time>2024-09-17T15:49:47Z</time>
      </trkpt>
      <trkpt lat="51.797539992257953" lon="14.30364903062582">
        <ele>58.780000000000001</ele>
        <time>2024-09-17T15:50:00Z</time>
      </trkpt>
      <trkpt lat="51.796242976561189" lon="14.3038210272789">
        <ele>58.780000000000001</ele>
        <time>2024-09-17T15:50:11Z</time>
      </trkpt>
      <trkpt lat="51.796150021255016" lon="14.303836030885577">
        <ele>58.780000000000001</ele>
        <time>2024-09-17T15:50:12Z</time>
      </trkpt>
      <trkpt lat="51.796062011271715" lon="14.303851034492254">
        <ele>58.780000000000001</ele>
        <time>2024-09-17T15:50:13Z</time>
      </trkpt>
      <trkpt lat="51.795977018773556" lon="14.30386402644217">
        <ele>58.780000000000001</ele>
        <time>2024-09-17T15:50:14Z</time>
      </trkpt>
      <trkpt lat="51.795386010780931" lon="14.30395295843482">
        <ele>58.299999999999997</ele>
        <time>2024-09-17T15:50:20Z</time>
      </trkpt>
      <trkpt lat="51.794111961498857" lon="14.304172983393073">
        <ele>61.18</ele>
        <time>2024-09-17T15:50:33Z</time>
      </trkpt>
      <trkpt lat="51.793912975117564" lon="14.30420801974833">
        <ele>61.659999999999997</ele>
        <time>2024-09-17T15:50:35Z</time>
      </trkpt>
      <trkpt lat="51.793723963201046" lon="14.304310027509928">
        <ele>61.659999999999997</ele>
        <time>2024-09-17T15:50:37Z</time>
      </trkpt>
      <trkpt lat="51.793635031208396" lon="14.304376998916268">
        <ele>61.659999999999997</ele>
        <time>2024-09-17T15:50:38Z</time>
      </trkpt>
      <trkpt lat="51.793548027053475" lon="14.304441958665848">
        <ele>62.140000000000001</ele>
        <time>2024-09-17T15:50:39Z</time>
      </trkpt>
      <trkpt lat="51.793459011241794" lon="14.304523011669517">
        <ele>61.659999999999997</ele>
        <time>2024-09-17T15:50:40Z</time>
      </trkpt>
      <trkpt lat="51.793376030400395" lon="14.304615966975689">
        <ele>61.659999999999997</ele>
        <time>2024-09-17T15:50:41Z</time>
      </trkpt>
      <trkpt lat="51.79248696193099" lon="14.305531019344926">
        <ele>61.659999999999997</ele>
        <time>2024-09-17T15:50:52Z</time>
      </trkpt>
      <trkpt lat="51.79149404168129" lon="14.306327970698476">
        <ele>61.18</ele>
        <time>2024-09-17T15:51:04Z</time>
      </trkpt>
      <trkpt lat="51.791404020041227" lon="14.306398965418339">
        <ele>61.18</ele>
        <time>2024-09-17T15:51:05Z</time>
      </trkpt>
      <trkpt lat="51.791235962882638" lon="14.306533997878432">
        <ele>60.700000000000003</ele>
        <time>2024-09-17T15:51:07Z</time>
      </trkpt>
      <trkpt lat="51.790974028408527" lon="14.306739019230008">
        <ele>59.259999999999998</ele>
        <time>2024-09-17T15:51:10Z</time>
      </trkpt>
      <trkpt lat="51.790884006768465" lon="14.306806996464729">
        <ele>59.259999999999998</ele>
        <time>2024-09-17T15:51:11Z</time>
      </trkpt>
      <trkpt lat="51.790064005181193" lon="14.307447038590908">
        <ele>56.859999999999999</ele>
        <time>2024-09-17T15:51:21Z</time>
      </trkpt>
      <trkpt lat="51.789106037467718" lon="14.30829101242125">
        <ele>58.299999999999997</ele>
        <time>2024-09-17T15:51:32Z</time>
      </trkpt>
      <trkpt lat="51.788114961236715" lon="14.309371020644903">
        <ele>60.700000000000003</ele>
        <time>2024-09-17T15:51:43Z</time>
      </trkpt>
      <trkpt lat="51.787364026531577" lon="14.310199990868568">
        <ele>60.700000000000003</ele>
        <time>2024-09-17T15:51:51Z</time>
      </trkpt>
      <trkpt lat="51.786164995282888" lon="14.311548974364996">
        <ele>60.219999999999999</ele>
        <time>2024-09-17T15:52:03Z</time>
      </trkpt>
      <trkpt lat="51.785111976787448" lon="14.312733002007008">
        <ele>59.740000000000002</ele>
        <time>2024-09-17T15:52:14Z</time>
      </trkpt>
      <trkpt lat="51.784924976527691" lon="14.3129319883883">
        <ele>59.740000000000002</ele>
        <time>2024-09-17T15:52:16Z</time>
      </trkpt>
      <trkpt lat="51.784747028723359" lon="14.313118988648057">
        <ele>59.740000000000002</ele>
        <time>2024-09-17T15:52:18Z</time>
      </trkpt>
      <trkpt lat="51.784657007083297" lon="14.313213033601642">
        <ele>59.740000000000002</ele>
        <time>2024-09-17T15:52:19Z</time>
      </trkpt>
      <trkpt lat="51.784564973786473" lon="14.313315041363239">
        <ele>59.740000000000002</ele>
        <time>2024-09-17T15:52:20Z</time>
      </trkpt>
      <trkpt lat="51.783427968621254" lon="14.314577020704746">
        <ele>60.219999999999999</ele>
        <time>2024-09-17T15:52:31Z</time>
      </trkpt>
      <trkpt lat="51.782389031723142" lon="14.315745960921049">
        <ele>60.219999999999999</ele>
        <time>2024-09-17T15:52:42Z</time>
      </trkpt>
      <trkpt lat="51.781800035387278" lon="14.316406035795808">
        <ele>60.700000000000003</ele>
        <time>2024-09-17T15:52:53Z</time>
      </trkpt>
      <trkpt lat="51.781369037926197" lon="14.316893024370074">
        <ele>60.700000000000003</ele>
        <time>2024-09-17T15:52:59Z</time>
      </trkpt>
      <trkpt lat="51.781300976872444" lon="14.316972987726331">
        <ele>60.700000000000003</ele>
        <time>2024-09-17T15:53:00Z</time>
      </trkpt>
      <trkpt lat="51.78116200491786" lon="14.317136015743017">
        <ele>59.740000000000002</ele>
        <time>2024-09-17T15:53:02Z</time>
      </trkpt>
      <trkpt lat="51.780179981142282" lon="14.318354995921254">
        <ele>62.140000000000001</ele>
        <time>2024-09-17T15:53:15Z</time>
      </trkpt>
      <trkpt lat="51.77931597456336" lon="14.319473979994655">
        <ele>63.579999999999998</ele>
        <time>2024-09-17T15:53:26Z</time>
      </trkpt>
      <trkpt lat="51.778122978284955" lon="14.320999989286065">
        <ele>65.989999999999995</ele>
        <time>2024-09-17T15:53:40Z</time>
      </trkpt>
      <trkpt lat="51.777112036943436" lon="14.322410998865962">
        <ele>67.430000000000007</ele>
        <time>2024-09-17T15:53:51Z</time>
      </trkpt>
      <trkpt lat="51.776724960654974" lon="14.322797991335392">
        <ele>67.430000000000007</ele>
        <time>2024-09-17T15:53:55Z</time>
      </trkpt>
      <trkpt lat="51.776655977591872" lon="14.322866974398494">
        <ele>67.430000000000007</ele>
        <time>2024-09-17T15:53:56Z</time>
      </trkpt>
      <trkpt lat="51.776604009792209" lon="14.322919026017189">
        <ele>66.950000000000003</ele>
        <time>2024-09-17T15:53:57Z</time>
      </trkpt>
      <trkpt lat="51.776513988152146" lon="14.32300896383822">
        <ele>66.469999999999999</ele>
        <time>2024-09-17T15:54:00Z</time>
      </trkpt>
      <trkpt lat="51.77650099620223" lon="14.323022039607167">
        <ele>66.469999999999999</ele>
        <time>2024-09-17T15:54:01Z</time>
      </trkpt>
      <trkpt lat="51.776488004252315" lon="14.323034025728703">
        <ele>66.469999999999999</ele>
        <time>2024-09-17T15:54:02Z</time>
      </trkpt>
      <trkpt lat="51.776427989825606" lon="14.32309496216476">
        <ele>65.989999999999995</ele>
        <time>2024-09-17T15:54:12Z</time>
      </trkpt>
      <trkpt lat="51.775858020409942" lon="14.323599971830845">
        <ele>65.030000000000001</ele>
        <time>2024-09-17T15:54:20Z</time>
      </trkpt>
      <trkpt lat="51.775517966598272" lon="14.323883028700948">
        <ele>64.549999999999997</ele>
        <time>2024-09-17T15:54:24Z</time>
      </trkpt>
      <trkpt lat="51.774640968069434" lon="14.324558023363352">
        <ele>59.740000000000002</ele>
        <time>2024-09-17T15:54:34Z</time>
      </trkpt>
      <trkpt lat="51.774270990863442" lon="14.324910985305905">
        <ele>59.259999999999998</ele>
        <time>2024-09-17T15:54:38Z</time>
      </trkpt>
      <trkpt lat="51.774185998365283" lon="14.325006036087871">
        <ele>58.780000000000001</ele>
        <time>2024-09-17T15:54:39Z</time>
      </trkpt>
      <trkpt lat="51.773851979523897" lon="14.325440973043442">
        <ele>57.340000000000003</ele>
        <time>2024-09-17T15:54:43Z</time>
      </trkpt>
      <trkpt lat="51.773762963712215" lon="14.325556978583336">
        <ele>56.859999999999999</ele>
        <time>2024-09-17T15:54:44Z</time>
      </trkpt>
      <trkpt lat="51.773673025891185" lon="14.325673989951611">
        <ele>56.369999999999997</ele>
        <time>2024-09-17T15:54:45Z</time>
      </trkpt>
      <trkpt lat="51.773587027564645" lon="14.325785972177982">
        <ele>55.890000000000001</ele>
        <time>2024-09-17T15:54:46Z</time>
      </trkpt>
      <trkpt lat="51.773485019803047" lon="14.325911030173302">
        <ele>55.890000000000001</ele>
        <time>2024-09-17T15:54:47Z</time>
      </trkpt>
      <trkpt lat="51.773036001250148" lon="14.326461972668767">
        <ele>53.969999999999999</ele>
        <time>2024-09-17T15:54:52Z</time>
      </trkpt>
      <trkpt lat="51.772536020725965" lon="14.327074019238353">
        <ele>53.969999999999999</ele>
        <time>2024-09-17T15:54:58Z</time>
      </trkpt>
      <trkpt lat="51.772451028227806" lon="14.32717602699995">
        <ele>54.450000000000003</ele>
        <time>2024-09-17T15:54:59Z</time>
      </trkpt>
      <trkpt lat="51.771115036681294" lon="14.328558035194874">
        <ele>59.259999999999998</ele>
        <time>2024-09-17T15:55:13Z</time>
      </trkpt>
      <trkpt lat="51.770185986533761" lon="14.329211991280317">
        <ele>60.219999999999999</ele>
        <time>2024-09-17T15:55:22Z</time>
      </trkpt>
      <trkpt lat="51.77007601596415" lon="14.329254990443587">
        <ele>60.219999999999999</ele>
        <time>2024-09-17T15:55:23Z</time>
      </trkpt>
      <trkpt lat="51.769961016252637" lon="14.32928298600018">
        <ele>60.219999999999999</ele>
        <time>2024-09-17T15:55:24Z</time>
      </trkpt>
      <trkpt lat="51.769841993227601" lon="14.32928298600018">
        <ele>60.219999999999999</ele>
        <time>2024-09-17T15:55:25Z</time>
      </trkpt>
      <trkpt lat="51.769722970202565" lon="14.329273011535406">
        <ele>59.740000000000002</ele>
        <time>2024-09-17T15:55:26Z</time>
      </trkpt>
      <trkpt lat="51.768169971182942" lon="14.328923989087343">
        <ele>60.219999999999999</ele>
        <time>2024-09-17T15:55:39Z</time>
      </trkpt>
      <trkpt lat="51.767221977934241" lon="14.328620983287692">
        <ele>63.100000000000001</ele>
        <time>2024-09-17T15:55:47Z</time>
      </trkpt>
      <trkpt lat="51.766151022166014" lon="14.3282700330019">
        <ele>64.069999999999993</ele>
        <time>2024-09-17T15:55:56Z</time>
      </trkpt>
      <trkpt lat="51.764829028397799" lon="14.327814979478717">
        <ele>64.549999999999997</ele>
        <time>2024-09-17T15:56:06Z</time>
      </trkpt>
      <trkpt lat="51.76397399045527" lon="14.327544998377562">
        <ele>65.510000000000005</ele>
        <time>2024-09-17T15:56:13Z</time>
      </trkpt>
      <trkpt lat="51.763104032725096" lon="14.327472997829318">
        <ele>67.909999999999997</ele>
        <time>2024-09-17T15:56:22Z</time>
      </trkpt>
      <trkpt lat="51.763044018298388" lon="14.327478026971221">
        <ele>68.390000000000001</ele>
        <time>2024-09-17T15:56:29Z</time>
      </trkpt>
      <trkpt lat="51.763019962236285" lon="14.327480038627982">
        <ele>68.870000000000005</ele>
        <time>2024-09-17T15:56:40Z</time>
      </trkpt>
      <trkpt lat="51.762978974729776" lon="14.327475009486079">
        <ele>68.870000000000005</ele>
        <time>2024-09-17T15:56:41Z</time>
      </trkpt>
      <trkpt lat="51.762440018355846" lon="14.327432010322809">
        <ele>69.829999999999998</ele>
        <time>2024-09-17T15:56:48Z</time>
      </trkpt>
      <trkpt lat="51.76158900372684" lon="14.327469980344176">
        <ele>68.870000000000005</ele>
        <time>2024-09-17T15:56:58Z</time>
      </trkpt>
      <trkpt lat="51.760886013507843" lon="14.327550027519464">
        <ele>71.269999999999996</ele>
        <time>2024-09-17T15:57:07Z</time>
      </trkpt>
      <trkpt lat="51.760534979403019" lon="14.327609958127141">
        <ele>73.200000000000003</ele>
        <time>2024-09-17T15:57:12Z</time>
      </trkpt>
      <trkpt lat="51.760461973026395" lon="14.327622028067708">
        <ele>73.200000000000003</ele>
        <time>2024-09-17T15:57:13Z</time>
      </trkpt>
      <trkpt lat="51.760310009121895" lon="14.32764801196754">
        <ele>74.159999999999997</ele>
        <time>2024-09-17T15:57:15Z</time>
      </trkpt>
      <trkpt lat="51.760233985260129" lon="14.327656980603933">
        <ele>74.159999999999997</ele>
        <time>2024-09-17T15:57:16Z</time>
      </trkpt>
      <trkpt lat="51.759472992271185" lon="14.327733004465699">
        <ele>75.599999999999994</ele>
        <time>2024-09-17T15:57:27Z</time>
      </trkpt>
      <trkpt lat="51.759403003379703" lon="14.327738033607602">
        <ele>75.599999999999994</ele>
        <time>2024-09-17T15:57:28Z</time>
      </trkpt>
      <trkpt lat="51.759337037801743" lon="14.327753037214279">
        <ele>75.599999999999994</ele>
        <time>2024-09-17T15:57:29Z</time>
      </trkpt>
      <trkpt lat="51.759265959262848" lon="14.327768962830305">
        <ele>75.599999999999994</ele>
        <time>2024-09-17T15:57:30Z</time>
      </trkpt>
      <trkpt lat="51.759195970371366" lon="14.327782960608602">
        <ele>75.599999999999994</ele>
        <time>2024-09-17T15:57:31Z</time>
      </trkpt>
      <trkpt lat="51.759131010621786" lon="14.327791007235646">
        <ele>75.599999999999994</ele>
        <time>2024-09-17T15:57:32Z</time>
      </trkpt>
      <trkpt lat="51.758290976285934" lon="14.327916987240314">
        <ele>76.079999999999998</ele>
        <time>2024-09-17T15:57:44Z</time>
      </trkpt>
      <trkpt lat="51.757972966879606" lon="14.327970966696739">
        <ele>77.519999999999996</ele>
        <time>2024-09-17T15:57:49Z</time>
      </trkpt>
      <trkpt lat="51.757902977988124" lon="14.327983958646655">
        <ele>77.519999999999996</ele>
        <time>2024-09-17T15:57:50Z</time>
      </trkpt>
      <trkpt lat="51.757833994925022" lon="14.327995022758842">
        <ele>78</ele>
        <time>2024-09-17T15:57:51Z</time>
      </trkpt>
      <trkpt lat="51.757759982720017" lon="14.328008014708757">
        <ele>78.480000000000004</ele>
        <time>2024-09-17T15:57:52Z</time>
      </trkpt>
      <trkpt lat="51.757683036848903" lon="14.328021006658673">
        <ele>78.969999999999999</ele>
        <time>2024-09-17T15:57:53Z</time>
      </trkpt>
      <trkpt lat="51.757606007158756" lon="14.328033998608589">
        <ele>79.450000000000003</ele>
        <time>2024-09-17T15:57:54Z</time>
      </trkpt>
      <trkpt lat="51.75752897746861" lon="14.328043973073363">
        <ele>79.930000000000007</ele>
        <time>2024-09-17T15:57:55Z</time>
      </trkpt>
      <trkpt lat="51.757451025769114" lon="14.328054031357169">
        <ele>80.409999999999997</ele>
        <time>2024-09-17T15:57:56Z</time>
      </trkpt>
      <trkpt lat="51.75720501691103" lon="14.328082026913762">
        <ele>81.849999999999994</ele>
        <time>2024-09-17T15:58:03Z</time>
      </trkpt>
      <trkpt lat="51.75720501691103" lon="14.328082026913762">
        <ele>81.849999999999994</ele>
        <time>2024-09-17T15:58:36Z</time>
      </trkpt>
      <trkpt lat="51.756931012496352" lon="14.328102981671691">
        <ele>82.810000000000002</ele>
        <time>2024-09-17T15:58:53Z</time>
      </trkpt>
      <trkpt lat="51.756085027009249" lon="14.328147992491722">
        <ele>83.769999999999996</ele>
        <time>2024-09-17T15:59:03Z</time>
      </trkpt>
      <trkpt lat="51.755261002108455" lon="14.328256035223603">
        <ele>83.290000000000006</ele>
        <time>2024-09-17T15:59:14Z</time>
      </trkpt>
      <trkpt lat="51.754956990480423" lon="14.328311020508409">
        <ele>82.329999999999998</ele>
        <time>2024-09-17T15:59:18Z</time>
      </trkpt>
      <trkpt lat="51.754824975505471" lon="14.328330969437957">
        <ele>81.849999999999994</ele>
        <time>2024-09-17T15:59:20Z</time>
      </trkpt>
      <trkpt lat="51.754703018814325" lon="14.328348990529776">
        <ele>81.370000000000005</ele>
        <time>2024-09-17T15:59:22Z</time>
      </trkpt>
      <trkpt lat="51.754653984680772" lon="14.32835703715682">
        <ele>81.370000000000005</ele>
        <time>2024-09-17T15:59:23Z</time>
      </trkpt>
      <trkpt lat="51.754462961107492" lon="14.328385032713413">
        <ele>80.409999999999997</ele>
        <time>2024-09-17T15:59:33Z</time>
      </trkpt>
      <trkpt lat="51.754378974437714" lon="14.328397018834949">
        <ele>80.409999999999997</ele>
        <time>2024-09-17T15:59:40Z</time>
      </trkpt>
      <trkpt lat="51.754323989152908" lon="14.328404981642962">
        <ele>80.409999999999997</ele>
        <time>2024-09-17T15:59:41Z</time>
      </trkpt>
      <trkpt lat="51.754254000261426" lon="14.328415039926767">
        <ele>79.930000000000007</ele>
        <time>2024-09-17T15:59:42Z</time>
      </trkpt>
      <trkpt lat="51.753475992009044" lon="14.328232984989882">
        <ele>77.040000000000006</ele>
        <time>2024-09-17T15:59:49Z</time>
      </trkpt>
      <trkpt lat="51.752185011282563" lon="14.328314960002899">
        <ele>80.409999999999997</ele>
        <time>2024-09-17T15:59:59Z</time>
      </trkpt>
      <trkpt lat="51.751313041895628" lon="14.328364999964833">
        <ele>84.25</ele>
        <time>2024-09-17T16:00:08Z</time>
      </trkpt>
      <trkpt lat="51.750901993364096" lon="14.32838000357151">
        <ele>84.730000000000004</ele>
        <time>2024-09-17T16:00:16Z</time>
      </trkpt>
      <trkpt lat="51.75031098537147" lon="14.328360976651311">
        <ele>81.370000000000005</ele>
        <time>2024-09-17T16:00:25Z</time>
      </trkpt>
      <trkpt lat="51.750006973743439" lon="14.328360976651311">
        <ele>78</ele>
        <time>2024-09-17T16:00:33Z</time>
      </trkpt>
      <trkpt lat="51.749207004904747" lon="14.328354019671679">
        <ele>75.120000000000005</ele>
        <time>2024-09-17T16:00:43Z</time>
      </trkpt>
      <trkpt lat="51.748233027756214" lon="14.328244971111417">
        <ele>72.719999999999999</ele>
        <time>2024-09-17T16:00:53Z</time>
      </trkpt>
      <trkpt lat="51.747827008366585" lon="14.32827103883028">
        <ele>72.239999999999995</ele>
        <time>2024-09-17T16:00:57Z</time>
      </trkpt>
      <trkpt lat="51.746365036815405" lon="14.328071968629956">
        <ele>73.680000000000007</ele>
        <time>2024-09-17T16:01:10Z</time>
      </trkpt>
      <trkpt lat="51.745809987187386" lon="14.327838029712439">
        <ele>73.680000000000007</ele>
        <time>2024-09-17T16:01:15Z</time>
      </trkpt>
      <trkpt lat="51.744451029226184" lon="14.326995983719826">
        <ele>74.159999999999997</ele>
        <time>2024-09-17T16:01:27Z</time>
      </trkpt>
      <trkpt lat="51.744352960959077" lon="14.326885007321835">
        <ele>74.640000000000001</ele>
        <time>2024-09-17T16:01:28Z</time>
      </trkpt>
      <trkpt lat="51.743761030957103" lon="14.326301040127873">
        <ele>76.079999999999998</ele>
        <time>2024-09-17T16:01:34Z</time>
      </trkpt>
      <trkpt lat="51.743546035140753" lon="14.326301040127873">
        <ele>75.599999999999994</ele>
        <time>2024-09-17T16:01:35Z</time>
      </trkpt>
      <trkpt lat="51.74339197576046" lon="14.32616600766778">
        <ele>75.599999999999994</ele>
        <time>2024-09-17T16:01:37Z</time>
      </trkpt>
      <trkpt lat="51.741974009200931" lon="14.325019028037786">
        <ele>77.040000000000006</ele>
        <time>2024-09-17T16:01:50Z</time>
      </trkpt>
      <trkpt lat="51.740648997947574" lon="14.324312014505267">
        <ele>75.599999999999994</ele>
        <time>2024-09-17T16:02:02Z</time>
      </trkpt>
      <trkpt lat="51.739494977518916" lon="14.323786972090602">
        <ele>73.200000000000003</ele>
        <time>2024-09-17T16:02:13Z</time>
      </trkpt>
      <trkpt lat="51.738229980692267" lon="14.323540963232517">
        <ele>70.310000000000002</ele>
        <time>2024-09-17T16:02:24Z</time>
      </trkpt>
      <trkpt lat="51.737917000427842" lon="14.323567030951381">
        <ele>70.310000000000002</ele>
        <time>2024-09-17T16:02:29Z</time>
      </trkpt>
      <trkpt lat="51.737877018749714" lon="14.323582034558058">
        <ele>70.310000000000002</ele>
        <time>2024-09-17T16:02:30Z</time>
      </trkpt>
      <trkpt lat="51.7376549821347" lon="14.323663003742695">
        <ele>70.310000000000002</ele>
        <time>2024-09-17T16:02:40Z</time>
      </trkpt>
      <trkpt lat="51.737443003803492" lon="14.323741961270571">
        <ele>71.760000000000005</ele>
        <time>2024-09-17T16:03:07Z</time>
      </trkpt>
      <trkpt lat="51.736560976132751" lon="14.324242025613785">
        <ele>71.760000000000005</ele>
        <time>2024-09-17T16:03:17Z</time>
      </trkpt>
      <trkpt lat="51.73539899289608" lon="14.324996983632445">
        <ele>73.680000000000007</ele>
        <time>2024-09-17T16:03:29Z</time>
      </trkpt>
      <trkpt lat="51.734395008534193" lon="14.325483972206712">
        <ele>72.239999999999995</ele>
        <time>2024-09-17T16:03:39Z</time>
      </trkpt>
      <trkpt lat="51.734171966090798" lon="14.325563013553619">
        <ele>72.239999999999995</ele>
        <time>2024-09-17T16:03:41Z</time>
      </trkpt>
      <trkpt lat="51.733151972293854" lon="14.325493024662137">
        <ele>72.239999999999995</ele>
        <time>2024-09-17T16:03:50Z</time>
      </trkpt>
      <trkpt lat="51.731584975495934" lon="14.325060015544295">
        <ele>71.269999999999996</ele>
        <time>2024-09-17T16:04:04Z</time>
      </trkpt>
      <trkpt lat="51.730606975033879" lon="14.324767990037799">
        <ele>71.760000000000005</ele>
        <time>2024-09-17T16:04:14Z</time>
      </trkpt>
      <trkpt lat="51.729482961818576" lon="14.323957962915301">
        <ele>72.239999999999995</ele>
        <time>2024-09-17T16:04:25Z</time>
      </trkpt>
      <trkpt lat="51.728965966030955" lon="14.323322027921677">
        <ele>73.200000000000003</ele>
        <time>2024-09-17T16:04:32Z</time>
      </trkpt>
      <trkpt lat="51.728926990181208" lon="14.323273999616504">
        <ele>73.200000000000003</ele>
        <time>2024-09-17T16:04:33Z</time>
      </trkpt>
      <trkpt lat="51.728891031816602" lon="14.323228988796473">
        <ele>73.680000000000007</ele>
        <time>2024-09-17T16:04:34Z</time>
      </trkpt>
      <trkpt lat="51.728857001289725" lon="14.323186995461583">
        <ele>73.680000000000007</ele>
        <time>2024-09-17T16:04:35Z</time>
      </trkpt>
      <trkpt lat="51.728826994076371" lon="14.323150031268597">
        <ele>73.680000000000007</ele>
        <time>2024-09-17T16:04:36Z</time>
      </trkpt>
      <trkpt lat="51.728800004348159" lon="14.323118012398481">
        <ele>73.680000000000007</ele>
        <time>2024-09-17T16:04:37Z</time>
      </trkpt>
      <trkpt lat="51.728776032105088" lon="14.323088005185127">
        <ele>73.680000000000007</ele>
        <time>2024-09-17T16:04:38Z</time>
      </trkpt>
      <trkpt lat="51.728636976331472" lon="14.322929000481963">
        <ele>74.159999999999997</ele>
        <time>2024-09-17T16:04:48Z</time>
      </trkpt>
      <trkpt lat="51.728580985218287" lon="14.322866974398494">
        <ele>74.640000000000001</ele>
        <time>2024-09-17T16:05:28Z</time>
      </trkpt>
      <trkpt lat="51.728054014965892" lon="14.32236397638917">
        <ele>74.640000000000001</ele>
        <time>2024-09-17T16:05:35Z</time>
      </trkpt>
      <trkpt lat="51.727310037240386" lon="14.321831976994872">
        <ele>74.159999999999997</ele>
        <time>2024-09-17T16:05:43Z</time>
      </trkpt>
      <trkpt lat="51.726056020706892" lon="14.321018010377884">
        <ele>75.120000000000005</ele>
        <time>2024-09-17T16:05:55Z</time>
      </trkpt>
      <trkpt lat="51.725024040788412" lon="14.32040898129344">
        <ele>75.599999999999994</ele>
        <time>2024-09-17T16:06:05Z</time>
      </trkpt>
      <trkpt lat="51.724477959796786" lon="14.320010002702475">
        <ele>75.599999999999994</ele>
        <time>2024-09-17T16:06:10Z</time>
      </trkpt>
      <trkpt lat="51.723499959334731" lon="14.319312041625381">
        <ele>76.560000000000002</ele>
        <time>2024-09-17T16:06:20Z</time>
      </trkpt>
      <trkpt lat="51.722523970529437" lon="14.318966958671808">
        <ele>76.560000000000002</ele>
        <time>2024-09-17T16:06:29Z</time>
      </trkpt>
      <trkpt lat="51.721489978954196" lon="14.318983973935246">
        <ele>76.560000000000002</ele>
        <time>2024-09-17T16:06:37Z</time>
      </trkpt>
      <trkpt lat="51.720524970442057" lon="14.318941980600357">
        <ele>78.969999999999999</ele>
        <time>2024-09-17T16:06:45Z</time>
      </trkpt>
      <trkpt lat="51.720221964642406" lon="14.318825975060463">
        <ele>80.409999999999997</ele>
        <time>2024-09-17T16:06:48Z</time>
      </trkpt>
      <trkpt lat="51.719390982761979" lon="14.318438982591033">
        <ele>81.849999999999994</ele>
        <time>2024-09-17T16:06:57Z</time>
      </trkpt>
      <trkpt lat="51.719285035505891" lon="14.318404030054808">
        <ele>81.849999999999994</ele>
        <time>2024-09-17T16:06:58Z</time>
      </trkpt>
      <trkpt lat="51.71917799860239" lon="14.318369999527931">
        <ele>81.370000000000005</ele>
        <time>2024-09-17T16:06:59Z</time>
      </trkpt>
      <trkpt lat="51.71825498342514" lon="14.318445017561316">
        <ele>79.930000000000007</ele>
        <time>2024-09-17T16:07:08Z</time>
      </trkpt>
      <trkpt lat="51.717080008238554" lon="14.318288024514914">
        <ele>78.969999999999999</ele>
        <time>2024-09-17T16:07:20Z</time>
      </trkpt>
      <trkpt lat="51.717011025175452" lon="14.318276960402727">
        <ele>78.969999999999999</ele>
        <time>2024-09-17T16:07:21Z</time>
      </trkpt>
      <trkpt lat="51.716955034062266" lon="14.318267991766334">
        <ele>79.450000000000003</ele>
        <time>2024-09-17T16:07:22Z</time>
      </trkpt>
      <trkpt lat="51.716915974393487" lon="14.318261034786701">
        <ele>78.969999999999999</ele>
        <time>2024-09-17T16:07:23Z</time>
      </trkpt>
      <trkpt lat="51.7168790102005" lon="14.318188028410077">
        <ele>78.969999999999999</ele>
        <time>2024-09-17T16:07:24Z</time>
      </trkpt>
      <trkpt lat="51.716881021857262" lon="14.318143017590046">
        <ele>78.969999999999999</ele>
        <time>2024-09-17T16:07:31Z</time>
      </trkpt>
      <trkpt lat="51.716884039342403" lon="14.318105969578028">
        <ele>78.969999999999999</ele>
        <time>2024-09-17T16:07:32Z</time>
      </trkpt>
      <trkpt lat="51.716885967180133" lon="14.318073028698564">
        <ele>78.480000000000004</ele>
        <time>2024-09-17T16:07:33Z</time>
      </trkpt>
      <trkpt lat="51.716887978836894" lon="14.318038998171687">
        <ele>78.480000000000004</ele>
        <time>2024-09-17T16:07:34Z</time>
      </trkpt>
      <trkpt lat="51.716889990493655" lon="14.318005973473191">
        <ele>78.480000000000004</ele>
        <time>2024-09-17T16:07:35Z</time>
      </trkpt>
      <trkpt lat="51.716893007978797" lon="14.317974038422108">
        <ele>78</ele>
        <time>2024-09-17T16:07:36Z</time>
      </trkpt>
      <trkpt lat="51.716894013807178" lon="14.317949982360005">
        <ele>77.519999999999996</ele>
        <time>2024-09-17T16:07:37Z</time>
      </trkpt>
      <trkpt lat="51.716861994937062" lon="14.318251982331276">
        <ele>77.519999999999996</ele>
        <time>2024-09-17T16:07:39Z</time>
      </trkpt>
      <trkpt lat="51.716893007978797" lon="14.317970015108585">
        <ele>77.519999999999996</ele>
        <time>2024-09-17T16:07:40Z</time>
      </trkpt>
      <trkpt lat="51.716888984665275" lon="14.318033969029784">
        <ele>77.040000000000006</ele>
        <time>2024-09-17T16:07:41Z</time>
      </trkpt>
      <trkpt lat="51.716884961351752" lon="14.318092977628112">
        <ele>77.040000000000006</ele>
        <time>2024-09-17T16:07:42Z</time>
      </trkpt>
      <trkpt lat="51.716882027685642" lon="14.318131031468511">
        <ele>77.040000000000006</ele>
        <time>2024-09-17T16:07:43Z</time>
      </trkpt>
      <trkpt lat="51.716883033514023" lon="14.318256005644798">
        <ele>77.040000000000006</ele>
        <time>2024-09-17T16:07:44Z</time>
      </trkpt>
      <trkpt lat="51.716919997707009" lon="14.318262040615082">
        <ele>76.560000000000002</ele>
        <time>2024-09-17T16:07:45Z</time>
      </trkpt>
      <trkpt lat="51.716978000476956" lon="14.318271009251475">
        <ele>76.560000000000002</ele>
        <time>2024-09-17T16:07:46Z</time>
      </trkpt>
      <trkpt lat="51.717048995196819" lon="14.318282995373011">
        <ele>76.079999999999998</ele>
        <time>2024-09-17T16:07:47Z</time>
      </trkpt>
      <trkpt lat="51.717128036543727" lon="14.318295987322927">
        <ele>76.079999999999998</ele>
        <time>2024-09-17T16:07:48Z</time>
      </trkpt>
      <trkpt lat="51.717212023213506" lon="14.318309985101223">
        <ele>76.079999999999998</ele>
        <time>2024-09-17T16:07:49Z</time>
      </trkpt>
      <trkpt lat="51.717490972951055" lon="14.318339992314577">
        <ele>75.599999999999994</ele>
        <time>2024-09-17T16:07:53Z</time>
      </trkpt>
      <trkpt lat="51.717535983771086" lon="14.31834502145648">
        <ele>75.599999999999994</ele>
        <time>2024-09-17T16:07:59Z</time>
      </trkpt>
      <trkpt lat="51.717618964612484" lon="14.318352984264493">
        <ele>75.599999999999994</ele>
        <time>2024-09-17T16:08:05Z</time>
      </trkpt>
      <trkpt lat="51.717671016231179" lon="14.318357007578015">
        <ele>75.120000000000005</ele>
        <time>2024-09-17T16:08:06Z</time>
      </trkpt>
      <trkpt lat="51.71771896071732" lon="14.318262962624431">
        <ele>75.120000000000005</ele>
        <time>2024-09-17T16:08:07Z</time>
      </trkpt>
      <trkpt lat="51.717726001515985" lon="14.31817595846951">
        <ele>74.640000000000001</ele>
        <time>2024-09-17T16:08:08Z</time>
      </trkpt>
      <trkpt lat="51.717732958495617" lon="14.318076968193054">
        <ele>74.640000000000001</ele>
        <time>2024-09-17T16:08:09Z</time>
      </trkpt>
      <trkpt lat="51.717742010951042" lon="14.317964985966682">
        <ele>74.640000000000001</ele>
        <time>2024-09-17T16:08:10Z</time>
      </trkpt>
      <trkpt lat="51.717751985415816" lon="14.317843029275537">
        <ele>74.640000000000001</ele>
        <time>2024-09-17T16:08:11Z</time>
      </trkpt>
      <trkpt lat="51.717839995399117" lon="14.31667098775506">
        <ele>75.599999999999994</ele>
        <time>2024-09-17T16:08:21Z</time>
      </trkpt>
      <trkpt lat="51.717806970700622" lon="14.316552970558405">
        <ele>75.599999999999994</ele>
        <time>2024-09-17T16:08:22Z</time>
      </trkpt>
      <trkpt lat="51.717769000679255" lon="14.316545007750392">
        <ele>75.599999999999994</ele>
        <time>2024-09-17T16:08:23Z</time>
      </trkpt>
      <trkpt lat="51.717733964323997" lon="14.316537966951728">
        <ele>75.120000000000005</ele>
        <time>2024-09-17T16:08:24Z</time>
      </trkpt>
      <trkpt lat="51.717704040929675" lon="14.316532015800476">
        <ele>75.599999999999994</ele>
        <time>2024-09-17T16:08:25Z</time>
      </trkpt>
      <trkpt lat="51.717675039544702" lon="14.316525980830193">
        <ele>75.599999999999994</ele>
        <time>2024-09-17T16:08:26Z</time>
      </trkpt>
      <trkpt lat="51.717624999582767" lon="14.316617008298635">
        <ele>75.599999999999994</ele>
        <time>2024-09-17T16:08:27Z</time>
      </trkpt>
      <trkpt lat="51.717624999582767" lon="14.316664030775428">
        <ele>75.599999999999994</ele>
        <time>2024-09-17T16:08:28Z</time>
      </trkpt>
      <trkpt lat="51.717624999582767" lon="14.316704012453556">
        <ele>76.079999999999998</ele>
        <time>2024-09-17T16:08:29Z</time>
      </trkpt>
      <trkpt lat="51.717603961005807" lon="14.316944992169738">
        <ele>76.079999999999998</ele>
        <time>2024-09-17T16:08:35Z</time>
      </trkpt>
      <trkpt lat="51.717571020126343" lon="14.316947003826499">
        <ele>76.079999999999998</ele>
        <time>2024-09-17T16:08:36Z</time>
      </trkpt>
      <trkpt lat="51.71754302456975" lon="14.31694901548326">
        <ele>75.599999999999994</ele>
        <time>2024-09-17T16:08:37Z</time>
      </trkpt>
      <trkpt lat="51.717518968507648" lon="14.316951027140021">
        <ele>75.120000000000005</ele>
        <time>2024-09-17T16:08:38Z</time>
      </trkpt>
      <trkpt lat="51.71750002540648" lon="14.316952032968402">
        <ele>74.640000000000001</ele>
        <time>2024-09-17T16:08:39Z</time>
      </trkpt>
      <trkpt lat="51.717486027628183" lon="14.316953038796782">
        <ele>74.640000000000001</ele>
        <time>2024-09-17T16:08:40Z</time>
      </trkpt>
      <trkpt lat="51.717486027628183" lon="14.316953038796782">
        <ele>74.159999999999997</ele>
        <time>2024-09-17T16:08:41Z</time>
      </trkpt>
      <trkpt lat="51.717486027628183" lon="14.316953038796782">
        <ele>72.719999999999999</ele>
        <time>2024-09-17T16:08:56Z</time>
      </trkpt>
      <trkpt lat="51.717486027628183" lon="14.316953038796782">
        <ele>80.890000000000001</ele>
        <time>2024-09-17T16:09:55Z</time>
      </trkpt>
      <trkpt lat="51.717486027628183" lon="14.316953038796782">
        <ele>84.25</ele>
        <time>2024-09-17T16:10:40Z</time>
      </trkpt>
      <trkpt lat="51.717486027628183" lon="14.316953038796782">
        <ele>82.329999999999998</ele>
        <time>2024-09-17T16:12:17Z</time>
      </trkpt>
      <trkpt lat="51.717486027628183" lon="14.316953038796782">
        <ele>82.329999999999998</ele>
        <time>2024-09-17T16:13:02Z</time>
      </trkpt>
      <trkpt lat="51.717486027628183" lon="14.316953038796782">
        <ele>81.849999999999994</ele>
        <time>2024-09-17T16:13:45Z</time>
      </trkpt>
      <trkpt lat="51.717486027628183" lon="14.316953038796782">
        <ele>81.849999999999994</ele>
        <time>2024-09-17T16:14:29Z</time>
      </trkpt>
      <trkpt lat="51.717486027628183" lon="14.316953038796782">
        <ele>81.849999999999994</ele>
        <time>2024-09-17T16:15:09Z</time>
      </trkpt>
      <trkpt lat="51.717486027628183" lon="14.316953038796782">
        <ele>81.370000000000005</ele>
        <time>2024-09-17T16:15:50Z</time>
      </trkpt>
      <trkpt lat="51.717486027628183" lon="14.316953038796782">
        <ele>80.890000000000001</ele>
        <time>2024-09-17T16:16:31Z</time>
      </trkpt>
      <trkpt lat="51.717486027628183" lon="14.316953038796782">
        <ele>80.890000000000001</ele>
        <time>2024-09-17T16:17:09Z</time>
      </trkpt>
      <trkpt lat="51.717486027628183" lon="14.316953038796782">
        <ele>81.370000000000005</ele>
        <time>2024-09-17T16:17:44Z</time>
      </trkpt>
      <trkpt lat="51.717486027628183" lon="14.316953038796782">
        <ele>81.370000000000005</ele>
        <time>2024-09-17T16:17:59Z</time>
      </trkpt>
      <trkpt lat="51.717588035389781" lon="14.316507959738374">
        <ele>80.409999999999997</ele>
        <time>2024-09-17T16:18:02Z</time>
      </trkpt>
      <trkpt lat="51.717618964612484" lon="14.316515000537038">
        <ele>80.409999999999997</ele>
        <time>2024-09-17T16:18:03Z</time>
      </trkpt>
      <trkpt lat="51.717649977654219" lon="14.316521035507321">
        <ele>79.930000000000007</ele>
        <time>2024-09-17T16:18:04Z</time>
      </trkpt>
      <trkpt lat="51.717624999582767" lon="14.316752040758729">
        <ele>78.969999999999999</ele>
        <time>2024-09-17T16:18:05Z</time>
      </trkpt>
      <trkpt lat="51.717624999582767" lon="14.316660007461905">
        <ele>78.480000000000004</ele>
        <time>2024-09-17T16:18:06Z</time>
      </trkpt>
      <trkpt lat="51.717624999582767" lon="14.316609967499971">
        <ele>77.519999999999996</ele>
        <time>2024-09-17T16:18:07Z</time>
      </trkpt>
      <trkpt lat="51.717624999582767" lon="14.316566968336701">
        <ele>77.040000000000006</ele>
        <time>2024-09-17T16:18:08Z</time>
      </trkpt>
      <trkpt lat="51.71771896071732" lon="14.316535033285618">
        <ele>76.560000000000002</ele>
        <time>2024-09-17T16:18:09Z</time>
      </trkpt>
      <trkpt lat="51.717746034264565" lon="14.316539978608489">
        <ele>76.079999999999998</ele>
        <time>2024-09-17T16:18:10Z</time>
      </trkpt>
      <trkpt lat="51.717776041477919" lon="14.316546013578773">
        <ele>75.599999999999994</ele>
        <time>2024-09-17T16:18:11Z</time>
      </trkpt>
      <trkpt lat="51.717839995399117" lon="14.316594041883945">
        <ele>75.599999999999994</ele>
        <time>2024-09-17T16:18:12Z</time>
      </trkpt>
      <trkpt lat="51.717839995399117" lon="14.316654978320003">
        <ele>75.120000000000005</ele>
        <time>2024-09-17T16:18:13Z</time>
      </trkpt>
      <trkpt lat="51.717839995399117" lon="14.316732008010149">
        <ele>74.640000000000001</ele>
        <time>2024-09-17T16:18:14Z</time>
      </trkpt>
      <trkpt lat="51.717833960428834" lon="14.31681901216507">
        <ele>74.159999999999997</ele>
        <time>2024-09-17T16:18:15Z</time>
      </trkpt>
      <trkpt lat="51.717825997620821" lon="14.316919008269906">
        <ele>73.680000000000007</ele>
        <time>2024-09-17T16:18:16Z</time>
      </trkpt>
      <trkpt lat="51.717818034812808" lon="14.317020010203123">
        <ele>73.200000000000003</ele>
        <time>2024-09-17T16:18:17Z</time>
      </trkpt>
      <trkpt lat="51.717809988185763" lon="14.317115982994437">
        <ele>72.719999999999999</ele>
        <time>2024-09-17T16:18:18Z</time>
      </trkpt>
      <trkpt lat="51.717803031206131" lon="14.317202987149358">
        <ele>72.239999999999995</ele>
        <time>2024-09-17T16:18:19Z</time>
      </trkpt>
      <trkpt lat="51.717813005670905" lon="14.317555027082562">
        <ele>71.269999999999996</ele>
        <time>2024-09-17T16:18:23Z</time>
      </trkpt>
      <trkpt lat="51.717835972085595" lon="14.317560978233814">
        <ele>71.269999999999996</ele>
        <time>2024-09-17T16:18:24Z</time>
      </trkpt>
      <trkpt lat="51.717748967930675" lon="14.317884016782045">
        <ele>69.829999999999998</ele>
        <time>2024-09-17T16:18:32Z</time>
      </trkpt>
      <trkpt lat="51.717943008989096" lon="14.317960040643811">
        <ele>69.829999999999998</ele>
        <time>2024-09-17T16:18:35Z</time>
      </trkpt>
      <trkpt lat="51.717948960140347" lon="14.317917041480541">
        <ele>69.349999999999994</ele>
        <time>2024-09-17T16:18:47Z</time>
      </trkpt>
      <trkpt lat="51.717445962131023" lon="14.318609973415732">
        <ele>116.94</ele>
        <time>2024-09-17T17:16:42Z</time>
      </trkpt>
      <trkpt lat="51.717903027310967" lon="14.317882005125284">
        <ele>78.969999999999999</ele>
        <time>2024-09-17T17:17:16Z</time>
      </trkpt>
      <trkpt lat="51.717899003997445" lon="14.317923998460174">
        <ele>77.519999999999996</ele>
        <time>2024-09-17T17:17:30Z</time>
      </trkpt>
      <trkpt lat="51.717743016779423" lon="14.317954005673528">
        <ele>77.040000000000006</ele>
        <time>2024-09-17T17:17:32Z</time>
      </trkpt>
      <trkpt lat="51.717902021482587" lon="14.318391038104892">
        <ele>77.040000000000006</ele>
        <time>2024-09-17T17:17:33Z</time>
      </trkpt>
      <trkpt lat="51.717928005382419" lon="14.318394977599382">
        <ele>76.560000000000002</ele>
        <time>2024-09-17T17:17:34Z</time>
      </trkpt>
      <trkpt lat="51.717950971797109" lon="14.318397995084524">
        <ele>76.560000000000002</ele>
        <time>2024-09-17T17:17:35Z</time>
      </trkpt>
      <trkpt lat="51.717950971797109" lon="14.318397995084524">
        <ele>76.560000000000002</ele>
        <time>2024-09-17T17:17:36Z</time>
      </trkpt>
      <trkpt lat="51.718080975115299" lon="14.318418027833104">
        <ele>75.599999999999994</ele>
        <time>2024-09-17T17:17:52Z</time>
      </trkpt>
      <trkpt lat="51.718193963170052" lon="14.318435965105891">
        <ele>74.640000000000001</ele>
        <time>2024-09-17T17:17:56Z</time>
      </trkpt>
      <trkpt lat="51.718244003131986" lon="14.317650999873877">
        <ele>73.200000000000003</ele>
        <time>2024-09-17T17:18:02Z</time>
      </trkpt>
      <trkpt lat="51.71821198426187" lon="14.317641025409102">
        <ele>72.719999999999999</ele>
        <time>2024-09-17T17:18:03Z</time>
      </trkpt>
      <trkpt lat="51.717836977913976" lon="14.317560978233814">
        <ele>72.719999999999999</ele>
        <time>2024-09-17T17:18:13Z</time>
      </trkpt>
      <trkpt lat="51.717800013720989" lon="14.317552009597421">
        <ele>72.239999999999995</ele>
        <time>2024-09-17T17:18:17Z</time>
      </trkpt>
      <trkpt lat="51.717778975144029" lon="14.317546980455518">
        <ele>72.239999999999995</ele>
        <time>2024-09-17T17:18:18Z</time>
      </trkpt>
      <trkpt lat="51.717769000679255" lon="14.317629039287567">
        <ele>72.239999999999995</ele>
        <time>2024-09-17T17:18:19Z</time>
      </trkpt>
      <trkpt lat="51.717762965708971" lon="14.317706990987062">
        <ele>72.239999999999995</ele>
        <time>2024-09-17T17:18:20Z</time>
      </trkpt>
      <trkpt lat="51.717757014557719" lon="14.317787038162351">
        <ele>72.239999999999995</ele>
        <time>2024-09-17T17:18:21Z</time>
      </trkpt>
      <trkpt lat="51.717749973759055" lon="14.317868007346988">
        <ele>72.239999999999995</ele>
        <time>2024-09-17T17:18:22Z</time>
      </trkpt>
      <trkpt lat="51.717744022607803" lon="14.317949982360005">
        <ele>72.239999999999995</ele>
        <time>2024-09-17T17:18:23Z</time>
      </trkpt>
      <trkpt lat="51.717736981809139" lon="14.318038998171687">
        <ele>72.239999999999995</ele>
        <time>2024-09-17T17:18:24Z</time>
      </trkpt>
      <trkpt lat="51.717729019001126" lon="14.31813002564013">
        <ele>72.239999999999995</ele>
        <time>2024-09-17T17:18:25Z</time>
      </trkpt>
      <trkpt lat="51.717722984030843" lon="14.318208983168006">
        <ele>72.239999999999995</ele>
        <time>2024-09-17T17:18:26Z</time>
      </trkpt>
      <trkpt lat="51.717579988762736" lon="14.318348960950971">
        <ele>72.239999999999995</ele>
        <time>2024-09-17T17:18:27Z</time>
      </trkpt>
      <trkpt lat="51.717520980164409" lon="14.318343009799719">
        <ele>71.760000000000005</ele>
        <time>2024-09-17T17:18:28Z</time>
      </trkpt>
      <trkpt lat="51.717446967959404" lon="14.318335969001055">
        <ele>71.760000000000005</ele>
        <time>2024-09-17T17:18:29Z</time>
      </trkpt>
      <trkpt lat="51.716507021337748" lon="14.318204037845135">
        <ele>72.239999999999995</ele>
        <time>2024-09-17T17:18:38Z</time>
      </trkpt>
      <trkpt lat="51.715115960687399" lon="14.317986024543643">
        <ele>73.680000000000007</ele>
        <time>2024-09-17T17:18:51Z</time>
      </trkpt>
      <trkpt lat="51.715059969574213" lon="14.317982001230121">
        <ele>74.159999999999997</ele>
        <time>2024-09-17T17:18:52Z</time>
      </trkpt>
      <trkpt lat="51.715016970410943" lon="14.317978983744979">
        <ele>74.159999999999997</ele>
        <time>2024-09-17T17:18:53Z</time>
      </trkpt>
      <trkpt lat="51.71500900760293" lon="14.318104963749647">
        <ele>74.159999999999997</ele>
        <time>2024-09-17T17:18:54Z</time>
      </trkpt>
      <trkpt lat="51.715043960139155" lon="14.318206971511245">
        <ele>74.159999999999997</ele>
        <time>2024-09-17T17:18:55Z</time>
      </trkpt>
      <trkpt lat="51.715092994272709" lon="14.318350972607732">
        <ele>74.159999999999997</ele>
        <time>2024-09-17T17:18:56Z</time>
      </trkpt>
      <trkpt lat="51.715154014527798" lon="14.318530010059476">
        <ele>74.640000000000001</ele>
        <time>2024-09-17T17:18:57Z</time>
      </trkpt>
      <trkpt lat="51.715682996436954" lon="14.319853009656072">
        <ele>76.079999999999998</ele>
        <time>2024-09-17T17:19:04Z</time>
      </trkpt>
      <trkpt lat="51.716456981375813" lon="14.321755031123757">
        <ele>77.040000000000006</ele>
        <time>2024-09-17T17:19:13Z</time>
      </trkpt>
      <trkpt lat="51.716832993552089" lon="14.3232879973948">
        <ele>78</ele>
        <time>2024-09-17T17:19:21Z</time>
      </trkpt>
      <trkpt lat="51.716887978836894" lon="14.32365202344954">
        <ele>78</ele>
        <time>2024-09-17T17:19:23Z</time>
      </trkpt>
      <trkpt lat="51.716926032677293" lon="14.324006997048855">
        <ele>77.519999999999996</ele>
        <time>2024-09-17T17:19:25Z</time>
      </trkpt>
      <trkpt lat="51.716888984665275" lon="14.325754037126899">
        <ele>77.040000000000006</ele>
        <time>2024-09-17T17:19:34Z</time>
      </trkpt>
      <trkpt lat="51.716590002179146" lon="14.328032992780209">
        <ele>77.040000000000006</ele>
        <time>2024-09-17T17:19:45Z</time>
      </trkpt>
      <trkpt lat="51.716280039399862" lon="14.330515963956714">
        <ele>76.560000000000002</ele>
        <time>2024-09-17T17:19:54Z</time>
      </trkpt>
      <trkpt lat="51.716251960024238" lon="14.33082802221179">
        <ele>76.560000000000002</ele>
        <time>2024-09-17T17:19:55Z</time>
      </trkpt>
      <trkpt lat="51.71638498082757" lon="14.332799026742578">
        <ele>77.040000000000006</ele>
        <time>2024-09-17T17:20:02Z</time>
      </trkpt>
      <trkpt lat="51.716847997158766" lon="14.334355965256691">
        <ele>76.079999999999998</ele>
        <time>2024-09-17T17:20:09Z</time>
      </trkpt>
      <trkpt lat="51.717132981866598" lon="14.335127016529441">
        <ele>74.640000000000001</ele>
        <time>2024-09-17T17:20:16Z</time>
      </trkpt>
      <trkpt lat="51.717228032648563" lon="14.335377970710397">
        <ele>73.680000000000007</ele>
        <time>2024-09-17T17:20:24Z</time>
      </trkpt>
      <trkpt lat="51.717370022088289" lon="14.335777033120394">
        <ele>73.200000000000003</ele>
        <time>2024-09-17T17:20:31Z</time>
      </trkpt>
      <trkpt lat="51.717770006507635" lon="14.336851006373763">
        <ele>72.719999999999999</ele>
        <time>2024-09-17T17:20:39Z</time>
      </trkpt>
      <trkpt lat="51.71855203807354" lon="14.338965006172657">
        <ele>72.719999999999999</ele>
        <time>2024-09-17T17:20:50Z</time>
      </trkpt>
      <trkpt lat="51.719340020790696" lon="14.341122005134821">
        <ele>76.560000000000002</ele>
        <time>2024-09-17T17:21:01Z</time>
      </trkpt>
      <trkpt lat="51.720064971596003" lon="14.343101978302002">
        <ele>72.719999999999999</ele>
        <time>2024-09-17T17:21:12Z</time>
      </trkpt>
      <trkpt lat="51.720561012625694" lon="14.344464037567377">
        <ele>74.159999999999997</ele>
        <time>2024-09-17T17:21:21Z</time>
      </trkpt>
      <trkpt lat="51.720611974596977" lon="14.344743993133307">
        <ele>74.159999999999997</ele>
        <time>2024-09-17T17:21:23Z</time>
      </trkpt>
      <trkpt lat="51.72063603065908" lon="14.344885982573032">
        <ele>74.159999999999997</ele>
        <time>2024-09-17T17:21:24Z</time>
      </trkpt>
      <trkpt lat="51.720654973760247" lon="14.345031995326281">
        <ele>73.680000000000007</ele>
        <time>2024-09-17T17:21:25Z</time>
      </trkpt>
      <trkpt lat="51.720677018165588" lon="14.345356039702892">
        <ele>73.680000000000007</ele>
        <time>2024-09-17T17:21:27Z</time>
      </trkpt>
      <trkpt lat="51.720676012337208" lon="14.345920979976654">
        <ele>72.719999999999999</ele>
        <time>2024-09-17T17:21:33Z</time>
      </trkpt>
      <trkpt lat="51.720671989023685" lon="14.346003038808703">
        <ele>72.239999999999995</ele>
        <time>2024-09-17T17:21:42Z</time>
      </trkpt>
      <trkpt lat="51.720661008730531" lon="14.346314007416368">
        <ele>72.239999999999995</ele>
        <time>2024-09-17T17:22:10Z</time>
      </trkpt>
      <trkpt lat="51.720653967931867" lon="14.346488015726209">
        <ele>72.239999999999995</ele>
        <time>2024-09-17T17:22:12Z</time>
      </trkpt>
      <trkpt lat="51.720624966546893" lon="14.346602009609342">
        <ele>71.760000000000005</ele>
        <time>2024-09-17T17:22:13Z</time>
      </trkpt>
      <trkpt lat="51.720578027889132" lon="14.346645008772612">
        <ele>72.239999999999995</ele>
        <time>2024-09-17T17:22:14Z</time>
      </trkpt>
      <trkpt lat="51.719861961901188" lon="14.347292007878423">
        <ele>72.719999999999999</ele>
        <time>2024-09-17T17:22:24Z</time>
      </trkpt>
      <trkpt lat="51.719783004373312" lon="14.347364008426666">
        <ele>72.719999999999999</ele>
        <time>2024-09-17T17:22:25Z</time>
      </trkpt>
      <trkpt lat="51.719123013317585" lon="14.347977982833982">
        <ele>72.239999999999995</ele>
        <time>2024-09-17T17:22:33Z</time>
      </trkpt>
      <trkpt lat="51.719045983627439" lon="14.348054006695747">
        <ele>72.239999999999995</ele>
        <time>2024-09-17T17:22:34Z</time>
      </trkpt>
      <trkpt lat="51.718974988907576" lon="14.348116032779217">
        <ele>72.239999999999995</ele>
        <time>2024-09-17T17:22:35Z</time>
      </trkpt>
      <trkpt lat="51.718912040814757" lon="14.348170012235641">
        <ele>72.239999999999995</ele>
        <time>2024-09-17T17:22:36Z</time>
      </trkpt>
      <trkpt lat="51.718846997246146" lon="14.348222985863686">
        <ele>71.760000000000005</ele>
        <time>2024-09-17T17:22:37Z</time>
      </trkpt>
      <trkpt lat="51.718787988647819" lon="14.348270008340478">
        <ele>71.760000000000005</ele>
        <time>2024-09-17T17:22:38Z</time>
      </trkpt>
      <trkpt lat="51.718485988676548" lon="14.348518028855324">
        <ele>69.829999999999998</ele>
        <time>2024-09-17T17:22:47Z</time>
      </trkpt>
      <trkpt lat="51.718437960371375" lon="14.348558010533452">
        <ele>69.829999999999998</ele>
        <time>2024-09-17T17:22:48Z</time>
      </trkpt>
      <trkpt lat="51.71791099011898" lon="14.349014991894364">
        <ele>68.870000000000005</ele>
        <time>2024-09-17T17:22:56Z</time>
      </trkpt>
      <trkpt lat="51.71782398596406" lon="14.349095961079001">
        <ele>69.349999999999994</ele>
        <time>2024-09-17T17:22:57Z</time>
      </trkpt>
      <trkpt lat="51.717733964323997" lon="14.349179025739431">
        <ele>69.349999999999994</ele>
        <time>2024-09-17T17:22:58Z</time>
      </trkpt>
      <trkpt lat="51.71705100685358" lon="14.349814038723707">
        <ele>69.349999999999994</ele>
        <time>2024-09-17T17:23:05Z</time>
      </trkpt>
      <trkpt lat="51.71616998501122" lon="14.350630016997457">
        <ele>71.269999999999996</ele>
        <time>2024-09-17T17:23:14Z</time>
      </trkpt>
      <trkpt lat="51.715133981779218" lon="14.351548003032804">
        <ele>74.640000000000001</ele>
        <time>2024-09-17T17:23:24Z</time>
      </trkpt>
      <trkpt lat="51.714830975979567" lon="14.351817984133959">
        <ele>75.599999999999994</ele>
        <time>2024-09-17T17:23:27Z</time>
      </trkpt>
      <trkpt lat="51.714739026501775" lon="14.351908005774021">
        <ele>75.599999999999994</ele>
        <time>2024-09-17T17:23:28Z</time>
      </trkpt>
      <trkpt lat="51.71447197906673" lon="14.352112021297216">
        <ele>76.079999999999998</ele>
        <time>2024-09-17T17:23:31Z</time>
      </trkpt>
      <trkpt lat="51.714115999639034" lon="14.352447967976332">
        <ele>76.560000000000002</ele>
        <time>2024-09-17T17:23:35Z</time>
      </trkpt>
      <trkpt lat="51.713892035186291" lon="14.352629017084837">
        <ele>76.079999999999998</ele>
        <time>2024-09-17T17:23:37Z</time>
      </trkpt>
      <trkpt lat="51.712986035272479" lon="14.35349503532052">
        <ele>77.040000000000006</ele>
        <time>2024-09-17T17:23:46Z</time>
      </trkpt>
      <trkpt lat="51.711740987375379" lon="14.354674033820629">
        <ele>75.120000000000005</ele>
        <time>2024-09-17T17:23:58Z</time>
      </trkpt>
      <trkpt lat="51.711638979613781" lon="14.354775035753846">
        <ele>74.640000000000001</ele>
        <time>2024-09-17T17:23:59Z</time>
      </trkpt>
      <trkpt lat="51.711534038186073" lon="14.354878971353173">
        <ele>74.640000000000001</ele>
        <time>2024-09-17T17:24:00Z</time>
      </trkpt>
      <trkpt lat="51.71049602329731" lon="14.355883039534092">
        <ele>71.760000000000005</ele>
        <time>2024-09-17T17:24:10Z</time>
      </trkpt>
      <trkpt lat="51.709293974563479" lon="14.357000011950731">
        <ele>71.269999999999996</ele>
        <time>2024-09-17T17:24:22Z</time>
      </trkpt>
      <trkpt lat="51.708712019026279" lon="14.357542991638184">
        <ele>71.760000000000005</ele>
        <time>2024-09-17T17:24:29Z</time>
      </trkpt>
      <trkpt lat="51.70774701051414" lon="14.358415966853499">
        <ele>73.680000000000007</ele>
        <time>2024-09-17T17:24:38Z</time>
      </trkpt>
      <trkpt lat="51.706794993951917" lon="14.359258012846112">
        <ele>75.599999999999994</ele>
        <time>2024-09-17T17:24:47Z</time>
      </trkpt>
      <trkpt lat="51.705952025949955" lon="14.360010959208012">
        <ele>77.519999999999996</ele>
        <time>2024-09-17T17:24:55Z</time>
      </trkpt>
      <trkpt lat="51.705121966078877" lon="14.360753009095788">
        <ele>79.930000000000007</ele>
        <time>2024-09-17T17:25:03Z</time>
      </trkpt>
      <trkpt lat="51.70501803047955" lon="14.360844036564231">
        <ele>79.930000000000007</ele>
        <time>2024-09-17T17:25:04Z</time>
      </trkpt>
      <trkpt lat="51.704486031085253" lon="14.361307974904776">
        <ele>80.409999999999997</ele>
        <time>2024-09-17T17:25:09Z</time>
      </trkpt>
      <trkpt lat="51.704380000010133" lon="14.361400008201599">
        <ele>79.930000000000007</ele>
        <time>2024-09-17T17:25:10Z</time>
      </trkpt>
      <trkpt lat="51.704048998653889" lon="14.361633025109768">
        <ele>79.930000000000007</ele>
        <time>2024-09-17T17:25:13Z</time>
      </trkpt>
      <trkpt lat="51.703822016716003" lon="14.36176897957921">
        <ele>79.930000000000007</ele>
        <time>2024-09-17T17:25:15Z</time>
      </trkpt>
      <trkpt lat="51.703705005347729" lon="14.361826982349157">
        <ele>79.930000000000007</ele>
        <time>2024-09-17T17:25:16Z</time>
      </trkpt>
      <trkpt lat="51.703115003183484" lon="14.362032003700733">
        <ele>79.930000000000007</ele>
        <time>2024-09-17T17:25:21Z</time>
      </trkpt>
      <trkpt lat="51.702993968501687" lon="14.362041978165507">
        <ele>79.930000000000007</ele>
        <time>2024-09-17T17:25:22Z</time>
      </trkpt>
      <trkpt lat="51.701909014955163" lon="14.36202303506434">
        <ele>79.930000000000007</ele>
        <time>2024-09-17T17:25:31Z</time>
      </trkpt>
      <trkpt lat="51.700633959844708" lon="14.361800998449326">
        <ele>79.930000000000007</ele>
        <time>2024-09-17T17:25:40Z</time>
      </trkpt>
      <trkpt lat="51.699032010510564" lon="14.361493969336152">
        <ele>78.969999999999999</ele>
        <time>2024-09-17T17:25:48Z</time>
      </trkpt>
      <trkpt lat="51.696927985176444" lon="14.361109994351864">
        <ele>80.890000000000001</ele>
        <time>2024-09-17T17:25:58Z</time>
      </trkpt>
      <trkpt lat="51.694850027561188" lon="14.36073599383235">
        <ele>82.329999999999998</ele>
        <time>2024-09-17T17:26:08Z</time>
      </trkpt>
      <trkpt lat="51.692925039678812" lon="14.360397029668093">
        <ele>85.689999999999998</ele>
        <time>2024-09-17T17:26:17Z</time>
      </trkpt>
      <trkpt lat="51.689919037744403" lon="14.359838962554932">
        <ele>87.140000000000001</ele>
        <time>2024-09-17T17:26:31Z</time>
      </trkpt>
      <trkpt lat="51.687238002195954" lon="14.35933998785913">
        <ele>89.060000000000002</ele>
        <time>2024-09-17T17:26:43Z</time>
      </trkpt>
      <trkpt lat="51.684613041579723" lon="14.358850987628102">
        <ele>85.689999999999998</ele>
        <time>2024-09-17T17:26:56Z</time>
      </trkpt>
      <trkpt lat="51.682858960703015" lon="14.358531972393394">
        <ele>85.689999999999998</ele>
        <time>2024-09-17T17:27:05Z</time>
      </trkpt>
      <trkpt lat="51.681033968925476" lon="14.358193008229136">
        <ele>89.540000000000006</ele>
        <time>2024-09-17T17:27:14Z</time>
      </trkpt>
      <trkpt lat="51.680076001212001" lon="14.357977006584406">
        <ele>93.870000000000005</ele>
        <time>2024-09-17T17:27:21Z</time>
      </trkpt>
      <trkpt lat="51.678946036845446" lon="14.357317015528679">
        <ele>96.269999999999996</ele>
        <time>2024-09-17T17:27:31Z</time>
      </trkpt>
      <trkpt lat="51.677492028102279" lon="14.356360975652933">
        <ele>96.269999999999996</ele>
        <time>2024-09-17T17:27:44Z</time>
      </trkpt>
      <trkpt lat="51.676381006836891" lon="14.355896031484008">
        <ele>93.390000000000001</ele>
        <time>2024-09-17T17:27:53Z</time>
      </trkpt>
      <trkpt lat="51.675901981070638" lon="14.355770973488688">
        <ele>93.390000000000001</ele>
        <time>2024-09-17T17:27:56Z</time>
      </trkpt>
      <trkpt lat="51.674253009259701" lon="14.356022011488676">
        <ele>92.900000000000006</ele>
        <time>2024-09-17T17:28:05Z</time>
      </trkpt>
      <trkpt lat="51.671505002304912" lon="14.356744028627872">
        <ele>92.420000000000002</ele>
        <time>2024-09-17T17:28:18Z</time>
      </trkpt>
      <trkpt lat="51.669379016384482" lon="14.357252977788448">
        <ele>90.5</ele>
        <time>2024-09-17T17:28:27Z</time>
      </trkpt>
      <trkpt lat="51.665803967043757" lon="14.358146991580725">
        <ele>87.620000000000005</ele>
        <time>2024-09-17T17:28:42Z</time>
      </trkpt>
      <trkpt lat="51.662511974573135" lon="14.358947966247797">
        <ele>87.620000000000005</ele>
        <time>2024-09-17T17:28:55Z</time>
      </trkpt>
      <trkpt lat="51.660165041685104" lon="14.359480971470475">
        <ele>89.060000000000002</ele>
        <time>2024-09-17T17:29:05Z</time>
      </trkpt>
      <trkpt lat="51.658399980515242" lon="14.360031997784972">
        <ele>90.980000000000004</ele>
        <time>2024-09-17T17:29:15Z</time>
      </trkpt>
      <trkpt lat="51.656166035681963" lon="14.360595010221004">
        <ele>96.269999999999996</ele>
        <time>2024-09-17T17:29:27Z</time>
      </trkpt>
      <trkpt lat="51.654386976733804" lon="14.360992982983589">
        <ele>102.04000000000001</ele>
        <time>2024-09-17T17:29:36Z</time>
      </trkpt>
      <trkpt lat="51.652470035478473" lon="14.361140001565218">
        <ele>105.40000000000001</ele>
        <time>2024-09-17T17:29:45Z</time>
      </trkpt>
      <trkpt lat="51.650053029879928" lon="14.361261958256364">
        <ele>104.44</ele>
        <time>2024-09-17T17:29:56Z</time>
      </trkpt>
      <trkpt lat="51.647423040121794" lon="14.361404031515121">
        <ele>104.44</ele>
        <time>2024-09-17T17:30:07Z</time>
      </trkpt>
      <trkpt lat="51.645238967612386" lon="14.361506039276719">
        <ele>100.11</ele>
        <time>2024-09-17T17:30:16Z</time>
      </trkpt>
      <trkpt lat="51.643488993868232" lon="14.36159698292613">
        <ele>98.670000000000002</ele>
        <time>2024-09-17T17:30:24Z</time>
      </trkpt>
      <trkpt lat="51.641709012910724" lon="14.361664038151503">
        <ele>96.269999999999996</ele>
        <time>2024-09-17T17:30:33Z</time>
      </trkpt>
      <trkpt lat="51.639819983392954" lon="14.361773002892733">
        <ele>92.900000000000006</ele>
        <time>2024-09-17T17:30:43Z</time>
      </trkpt>
      <trkpt lat="51.637829029932618" lon="14.361862018704414">
        <ele>90.5</ele>
        <time>2024-09-17T17:30:53Z</time>
      </trkpt>
      <trkpt lat="51.635678987950087" lon="14.361972995102406">
        <ele>90.019999999999996</ele>
        <time>2024-09-17T17:31:04Z</time>
      </trkpt>
      <trkpt lat="51.633670013397932" lon="14.362079026177526">
        <ele>88.579999999999998</ele>
        <time>2024-09-17T17:31:14Z</time>
      </trkpt>
      <trkpt lat="51.630653031170368" lon="14.362237025052309">
        <ele>90.5</ele>
        <time>2024-09-17T17:31:28Z</time>
      </trkpt>
      <trkpt lat="51.627754988148808" lon="14.362380020320415">
        <ele>91.459999999999994</ele>
        <time>2024-09-17T17:31:40Z</time>
      </trkpt>
      <trkpt lat="51.624099975451827" lon="14.362560985609889">
        <ele>93.390000000000001</ele>
        <time>2024-09-17T17:31:55Z</time>
      </trkpt>
      <trkpt lat="51.621099002659321" lon="14.362710015848279">
        <ele>94.829999999999998</ele>
        <time>2024-09-17T17:32:08Z</time>
      </trkpt>
      <trkpt lat="51.619404014199972" lon="14.362804982811213">
        <ele>95.790000000000006</ele>
        <time>2024-09-17T17:32:17Z</time>
      </trkpt>
      <trkpt lat="51.617204016074538" lon="14.362915959209204">
        <ele>96.75</ele>
        <time>2024-09-17T17:32:27Z</time>
      </trkpt>
      <trkpt lat="51.615226976573467" lon="14.363019978627563">
        <ele>97.709999999999994</ele>
        <time>2024-09-17T17:32:36Z</time>
      </trkpt>
      <trkpt lat="51.612974004819989" lon="14.36314201913774">
        <ele>100.11</ele>
        <time>2024-09-17T17:32:47Z</time>
      </trkpt>
      <trkpt lat="51.611873041838408" lon="14.363180994987488">
        <ele>101.56</ele>
        <time>2024-09-17T17:32:54Z</time>
      </trkpt>
      <trkpt lat="51.611661985516548" lon="14.363192981109023">
        <ele>103</ele>
        <time>2024-09-17T17:32:59Z</time>
      </trkpt>
      <trkpt lat="51.611544974148273" lon="14.363201027736068">
        <ele>103</ele>
        <time>2024-09-17T17:33:03Z</time>
      </trkpt>
      <trkpt lat="51.611476996913552" lon="14.363204967230558">
        <ele>103</ele>
        <time>2024-09-17T17:33:04Z</time>
      </trkpt>
      <trkpt lat="51.611414970830083" lon="14.363322984427214">
        <ele>103</ele>
        <time>2024-09-17T17:33:05Z</time>
      </trkpt>
      <trkpt lat="51.611397033557296" lon="14.363448964431882">
        <ele>103</ele>
        <time>2024-09-17T17:33:06Z</time>
      </trkpt>
      <trkpt lat="51.611373983323574" lon="14.363610986620188">
        <ele>103</ele>
        <time>2024-09-17T17:33:07Z</time>
      </trkpt>
      <trkpt lat="51.611347999423742" lon="14.363798992708325">
        <ele>103</ele>
        <time>2024-09-17T17:33:08Z</time>
      </trkpt>
      <trkpt lat="51.611113976687193" lon="14.365332964807749">
        <ele>102.52</ele>
        <time>2024-09-17T17:33:14Z</time>
      </trkpt>
      <trkpt lat="51.610720027238131" lon="14.36797502450645">
        <ele>101.08</ele>
        <time>2024-09-17T17:33:23Z</time>
      </trkpt>
      <trkpt lat="51.610449962317944" lon="14.370338972657919">
        <ele>98.670000000000002</ele>
        <time>2024-09-17T17:33:31Z</time>
      </trkpt>
      <trkpt lat="51.610454991459846" lon="14.370655976235867">
        <ele>98.189999999999998</ele>
        <time>2024-09-17T17:33:32Z</time>
      </trkpt>
      <trkpt lat="51.610546018928289" lon="14.373771026730537">
        <ele>92.900000000000006</ele>
        <time>2024-09-17T17:33:41Z</time>
      </trkpt>
      <trkpt lat="51.610419033095241" lon="14.376347959041595">
        <ele>89.540000000000006</ele>
        <time>2024-09-17T17:33:49Z</time>
      </trkpt>
      <trkpt lat="51.610262962058187" lon="14.377449005842209">
        <ele>89.540000000000006</ele>
        <time>2024-09-17T17:33:55Z</time>
      </trkpt>
      <trkpt lat="51.610238989815116" lon="14.377618990838528">
        <ele>89.060000000000002</ele>
        <time>2024-09-17T17:33:56Z</time>
      </trkpt>
      <trkpt lat="51.610217029228806" lon="14.377792999148369">
        <ele>89.060000000000002</ele>
        <time>2024-09-17T17:33:57Z</time>
      </trkpt>
      <trkpt lat="51.60988200455904" lon="14.380016969516873">
        <ele>84.730000000000004</ele>
        <time>2024-09-17T17:34:10Z</time>
      </trkpt>
      <trkpt lat="51.609855014830828" lon="14.380204975605011">
        <ele>83.769999999999996</ele>
        <time>2024-09-17T17:34:11Z</time>
      </trkpt>
      <trkpt lat="51.609828025102615" lon="14.380393987521529">
        <ele>83.290000000000006</ele>
        <time>2024-09-17T17:34:12Z</time>
      </trkpt>
      <trkpt lat="51.609801035374403" lon="14.380581993609667">
        <ele>82.810000000000002</ele>
        <time>2024-09-17T17:34:13Z</time>
      </trkpt>
      <trkpt lat="51.609773961827159" lon="14.380769999697804">
        <ele>81.849999999999994</ele>
        <time>2024-09-17T17:34:14Z</time>
      </trkpt>
      <trkpt lat="51.60949400626123" lon="14.382634973153472">
        <ele>78</ele>
        <time>2024-09-17T17:34:24Z</time>
      </trkpt>
      <trkpt lat="51.608933005481958" lon="14.38411395996809">
        <ele>77.519999999999996</ele>
        <time>2024-09-17T17:34:33Z</time>
      </trkpt>
      <trkpt lat="51.608148962259293" lon="14.386010030284524">
        <ele>72.239999999999995</ele>
        <time>2024-09-17T17:34:45Z</time>
      </trkpt>
      <trkpt lat="51.607488971203566" lon="14.387921020388603">
        <ele>72.239999999999995</ele>
        <time>2024-09-17T17:34:55Z</time>
      </trkpt>
      <trkpt lat="51.606667041778564" lon="14.390480015426874">
        <ele>70.790000000000006</ele>
        <time>2024-09-17T17:35:06Z</time>
      </trkpt>
      <trkpt lat="51.606603004038334" lon="14.390695011243224">
        <ele>70.790000000000006</ele>
        <time>2024-09-17T17:35:07Z</time>
      </trkpt>
      <trkpt lat="51.606538966298103" lon="14.391166996210814">
        <ele>70.310000000000002</ele>
        <time>2024-09-17T17:35:09Z</time>
      </trkpt>
      <trkpt lat="51.606547012925148" lon="14.391437983140349">
        <ele>70.310000000000002</ele>
        <time>2024-09-17T17:35:10Z</time>
      </trkpt>
      <trkpt lat="51.60655396990478" lon="14.391690026968718">
        <ele>70.310000000000002</ele>
        <time>2024-09-17T17:35:11Z</time>
      </trkpt>
      <trkpt lat="51.606568973511457" lon="14.391940981149673">
        <ele>70.310000000000002</ele>
        <time>2024-09-17T17:35:12Z</time>
      </trkpt>
      <trkpt lat="51.606614990159869" lon="14.392186990007758">
        <ele>70.310000000000002</ele>
        <time>2024-09-17T17:35:13Z</time>
      </trkpt>
      <trkpt lat="51.606662012636662" lon="14.392435010522604">
        <ele>70.310000000000002</ele>
        <time>2024-09-17T17:35:14Z</time>
      </trkpt>
      <trkpt lat="51.606709035113454" lon="14.39268303103745">
        <ele>70.310000000000002</ele>
        <time>2024-09-17T17:35:15Z</time>
      </trkpt>
      <trkpt lat="51.606888994574547" lon="14.393402030691504">
        <ele>70.790000000000006</ele>
        <time>2024-09-17T17:35:18Z</time>
      </trkpt>
      <trkpt lat="51.607122011482716" lon="14.394494025036693">
        <ele>72.719999999999999</ele>
        <time>2024-09-17T17:35:23Z</time>
      </trkpt>
      <trkpt lat="51.607126034796238" lon="14.394693011417985">
        <ele>73.200000000000003</ele>
        <time>2024-09-17T17:35:24Z</time>
      </trkpt>
      <trkpt lat="51.607136009261012" lon="14.395265998318791">
        <ele>75.120000000000005</ele>
        <time>2024-09-17T17:35:28Z</time>
      </trkpt>
      <trkpt lat="51.607157969847322" lon="14.395505972206593">
        <ele>77.040000000000006</ele>
        <time>2024-09-17T17:35:30Z</time>
      </trkpt>
      <trkpt lat="51.607186971232295" lon="14.395616026595235">
        <ele>77.519999999999996</ele>
        <time>2024-09-17T17:35:31Z</time>
      </trkpt>
      <trkpt lat="51.607216978445649" lon="14.39573303796351">
        <ele>78.480000000000004</ele>
        <time>2024-09-17T17:35:32Z</time>
      </trkpt>
      <trkpt lat="51.607396015897393" lon="14.396518003195524">
        <ele>83.769999999999996</ele>
        <time>2024-09-17T17:35:38Z</time>
      </trkpt>
      <trkpt lat="51.607418982312083" lon="14.396665021777153">
        <ele>84.730000000000004</ele>
        <time>2024-09-17T17:35:39Z</time>
      </trkpt>
      <trkpt lat="51.607418982312083" lon="14.396818997338414">
        <ele>85.209999999999994</ele>
        <time>2024-09-17T17:35:40Z</time>
      </trkpt>
      <trkpt lat="51.607415964826941" lon="14.396984037011862">
        <ele>85.689999999999998</ele>
        <time>2024-09-17T17:35:41Z</time>
      </trkpt>
      <trkpt lat="51.607397021725774" lon="14.397139018401504">
        <ele>86.180000000000007</ele>
        <time>2024-09-17T17:35:42Z</time>
      </trkpt>
      <trkpt lat="51.607376988977194" lon="14.397298023104668">
        <ele>86.659999999999997</ele>
        <time>2024-09-17T17:35:43Z</time>
      </trkpt>
      <trkpt lat="51.607222007587552" lon="14.398547010496259">
        <ele>86.659999999999997</ele>
        <time>2024-09-17T17:35:51Z</time>
      </trkpt>
      <trkpt lat="51.607126034796238" lon="14.399341028183699">
        <ele>87.140000000000001</ele>
        <time>2024-09-17T17:35:59Z</time>
      </trkpt>
      <trkpt lat="51.60704699344933" lon="14.399921977892518">
        <ele>89.060000000000002</ele>
        <time>2024-09-17T17:36:06Z</time>
      </trkpt>
      <trkpt lat="51.607029978185892" lon="14.400029014796019">
        <ele>89.540000000000006</ele>
        <time>2024-09-17T17:36:07Z</time>
      </trkpt>
      <trkpt lat="51.606844989582896" lon="14.40121497027576">
        <ele>91.939999999999998</ele>
        <time>2024-09-17T17:36:17Z</time>
      </trkpt>
      <trkpt lat="51.606825962662697" lon="14.401336004957557">
        <ele>91.939999999999998</ele>
        <time>2024-09-17T17:36:18Z</time>
      </trkpt>
      <trkpt lat="51.606807019561529" lon="14.401461984962225">
        <ele>91.939999999999998</ele>
        <time>2024-09-17T17:36:19Z</time>
      </trkpt>
      <trkpt lat="51.606595041230321" lon="14.402821026742458">
        <ele>90.5</ele>
        <time>2024-09-17T17:36:30Z</time>
      </trkpt>
      <trkpt lat="51.606579031795263" lon="14.402944995090365">
        <ele>90.019999999999996</ele>
        <time>2024-09-17T17:36:31Z</time>
      </trkpt>
      <trkpt lat="51.606469983235002" lon="14.404851039871573">
        <ele>91.939999999999998</ele>
        <time>2024-09-17T17:36:43Z</time>
      </trkpt>
      <trkpt lat="51.606413992121816" lon="14.406337989494205">
        <ele>94.829999999999998</ele>
        <time>2024-09-17T17:36:52Z</time>
      </trkpt>
      <trkpt lat="51.606334028765559" lon="14.407324036583304">
        <ele>98.189999999999998</ele>
        <time>2024-09-17T17:37:00Z</time>
      </trkpt>
      <trkpt lat="51.606307961046696" lon="14.407481029629707">
        <ele>99.150000000000006</ele>
        <time>2024-09-17T17:37:04Z</time>
      </trkpt>
      <trkpt lat="51.606303015723825" lon="14.40751195885241">
        <ele>99.150000000000006</ele>
        <time>2024-09-17T17:37:05Z</time>
      </trkpt>
    </trkseg>
  </trk>

</gpx>